
Distance (Route):
Temperature : 23.4°C
Humidity : 47.9%
Pressure : 945.3hPa| Receiver | Frames | First received | Last received |
|---|---|---|---|
| DO3MHA-11 | 809 | 2026-08-30 10:46:15 | 2026-08-30 13:19:38 |
| OE5MMP-10 | 602 | 2026-08-30 11:10:21 | 2026-08-30 13:21:02 |
| BAUMI2-15 | 295 | 2026-08-30 11:24:24 | 2026-08-30 12:57:51 |
| OE5WHR-10 | 275 | 2026-08-30 11:02:45 | 2026-08-30 13:13:51 |
| DG1MFX-10 | 226 | 2026-08-30 10:47:14 | 2026-08-30 13:11:32 |
| OE5DRO-10 | 223 | 2026-08-30 10:58:04 | 2026-08-30 13:16:56 |
| OE3JTB-15 | 205 | 2026-08-30 10:55:20 | 2026-08-30 13:20:16 |
| OE5DXL-15 | 186 | 2026-08-30 10:52:41 | 2026-08-30 13:21:28 |
| OE5FHM-15 | 174 | 2026-08-30 11:13:20 | 2026-08-30 13:14:08 |
| DL6DJ-15 | 158 | 2026-08-30 10:50:31 | 2026-08-30 13:04:38 |
| OE5REO-15 | 152 | 2026-08-30 11:34:36 | 2026-08-30 13:10:03 |
| PG1ADW-2 | 97 | 2026-08-30 11:03:17 | 2026-08-30 13:14:02 |
| PETON7-10 | 73 | 2026-08-30 11:38:52 | 2026-08-30 12:04:02 |
| OE8JPQ-2 | 53 | 2026-08-30 11:58:28 | 2026-08-30 12:28:43 |
| OE5HKT-10 | 52 | 2026-08-30 11:35:23 | 2026-08-30 13:09:42 |
| DK5PH-5 | 46 | 2026-08-30 11:17:00 | 2026-08-30 12:55:46 |
| DB0UT-7 | 41 | 2026-08-30 11:03:03 | 2026-08-30 12:54:46 |
| DO7DH-14 | 29 | 2026-08-30 11:33:05 | 2026-08-30 13:04:02 |
| OM5KV | 17 | 2026-08-30 12:22:19 | 2026-08-30 12:24:16 |
| DF3TZ-5 | 16 | 2026-08-30 11:19:04 | 2026-08-30 12:56:53 |
| DH7VM-15 | 15 | 2026-08-30 11:19:14 | 2026-08-30 12:48:09 |
| NBG1-10 | 15 | 2026-08-30 11:37:15 | 2026-08-30 13:06:14 |
| DB0NH | 12 | 2026-08-30 12:55:04 | 2026-08-30 13:08:15 |
| S52SK | 11 | 2026-08-30 11:29:09 | 2026-08-30 11:39:25 |
| DG1MJG | 10 | 2026-08-30 10:53:20 | 2026-08-30 11:58:17 |
| DF7PN | 10 | 2026-08-30 11:25:53 | 2026-08-30 12:48:44 |
| DB0ND-19 | 8 | 2026-08-30 12:46:13 | 2026-08-30 12:58:07 |
| Receiver | Date | Latitude | Longitude | Direction | Speed | Altitude | Climb | Temperature | Humidity | Pressure | Voltage | Killtimer | Uptime | BKT | XDATA |
|---|---|---|---|---|---|---|---|---|---|---|---|---|---|---|---|
| OE5DXL-15 | 2026-08-30 13:21:28 | 48.36613 | 12.92523 | 68° | 9km/h | 647m | -3.5m/s | 23.4°C | 47.9% | 945.3hPa | 2.7V | 00:00:00 | 00:00:00 | 00:00:00 | |
| OE5DXL-15 | 2026-08-30 13:21:26 | 48.36612 | 12.92516 | 77° | 9km/h | 655m | -4.1m/s | 23.4°C | 48.3% | 944.3hPa | 2.7V | 00:00:00 | 00:00:00 | 00:00:00 | |
| OE5DXL-15 | 2026-08-30 13:21:24 | 48.36610 | 12.92509 | 67° | 9km/h | 663m | -4.4m/s | 23.3°C | 48.4% | 943.6hPa | 2.7V | 00:00:00 | 00:00:00 | 00:00:00 | |
| OE5DXL-15 | 2026-08-30 13:21:22 | 48.36608 | 12.92503 | 73° | 11km/h | 671m | -3.7m/s | 23.2°C | 48.7% | 942.8hPa | 2.7V | 00:00:00 | 00:00:00 | 00:00:00 | |
| OE5DXL-15 | 2026-08-30 13:21:20 | 48.36607 | 12.92495 | 54° | 11km/h | 681m | -5.0m/s | 23.1°C | 48.8% | 941.8hPa | 2.7V | 07:32:00 | 00:00:00 | 00:00:00 | |
| OE5DXL-15 | 2026-08-30 13:21:18 | 48.36604 | 12.92489 | 60° | 11km/h | 692m | -5.3m/s | 23.1°C | 49.2% | 940.6hPa | 2.7V | 00:00:00 | 00:00:00 | 00:00:00 | |
| OE5DXL-15 | 2026-08-30 13:21:16 | 48.36601 | 12.92483 | 60° | 9km/h | 703m | -5.2m/s | 23.1°C | 49.3% | 939.6hPa | 2.7V | 00:00:00 | 00:00:00 | 00:00:00 | |
| OE5DXL-15 | 2026-08-30 13:21:14 | 48.36598 | 12.92478 | 50° | 7km/h | 714m | -5.9m/s | 22.8°C | 49.8% | 938.1hPa | 2.7V | 00:00:00 | 00:00:00 | 00:00:00 | |
| OE5DXL-15 | 2026-08-30 13:21:12 | 48.36597 | 12.92474 | 69° | 5km/h | 726m | -5.4m/s | 22.7°C | 50.3% | 936.8hPa | 2.7V | 00:00:00 | 00:00:00 | 00:00:00 | |
| OE5DXL-15 | 2026-08-30 13:21:10 | 48.36596 | 12.92469 | 78° | 5km/h | 737m | -5.6m/s | 22.5°C | 50.4% | 935.7hPa | 2.7V | 00:00:00 | 00:00:00 | 00:00:00 | |
| OE5DXL-15 | 2026-08-30 13:21:04 | 48.36594 | 12.92458 | 69° | 7km/h | 773m | -5.9m/s | 22.2°C | 51.3% | 931.8hPa | 2.7V | 00:00:00 | 00:00:00 | 00:00:00 | |
| OE5MMP-10 | 2026-08-30 13:21:02 | 48.36593 | 12.92453 | 80° | 7km/h | 784m | -5.3m/s | 22.1°C | 51.5% | 930.5hPa | 2.7V | 00:00:00 | 02:51:14 | 00:00:00 | |
| OE5MMP-10 | 2026-08-30 13:21:00 | 48.36592 | 12.92448 | 90° | 5km/h | 795m | -5.0m/s | 22.0°C | 51.7% | 929.5hPa | 2.7V | 00:00:00 | 02:51:12 | 00:00:00 | |
| OE5DXL-15 | 2026-08-30 13:20:58 | 48.36593 | 12.92444 | 110° | 7km/h | 804m | -5.0m/s | 21.9°C | 52.0% | 928.4hPa | 2.7V | 00:00:00 | 00:00:00 | 00:00:00 | |
| OE5MMP-10 | 2026-08-30 13:20:58 | 48.36593 | 12.92444 | 110° | 5km/h | 804m | -5.0m/s | 21.9°C | 52.0% | 928.4hPa | 2.7V | 00:00:00 | 02:51:10 | 00:00:00 | |
| OE5DXL-15 | 2026-08-30 13:20:52 | 48.36598 | 12.92430 | 115° | 7km/h | 835m | -5.5m/s | 21.6°C | 52.9% | 925.2hPa | 2.7V | 07:33:00 | 00:00:00 | 00:00:00 | |
| OE5DXL-15 | 2026-08-30 13:20:46 | 48.36604 | 12.92418 | 133° | 7km/h | 866m | -5.1m/s | 21.3°C | 53.6% | 921.9hPa | 2.7V | 00:00:00 | 00:00:00 | 00:00:00 | |
| OE5MMP-10 | 2026-08-30 13:20:46 | 48.36604 | 12.92418 | 133° | 7km/h | 866m | -5.1m/s | 21.3°C | 53.6% | 921.9hPa | 2.7V | 00:00:00 | 02:50:58 | 00:00:00 | |
| OE5MMP-10 | 2026-08-30 13:20:44 | 48.36606 | 12.92414 | 113° | 7km/h | 877m | -4.8m/s | 21.2°C | 53.7% | 920.9hPa | 2.7V | 00:00:00 | 02:50:56 | 00:00:00 | |
| OE5DXL-15 | 2026-08-30 13:20:40 | 48.36608 | 12.92404 | 106° | 7km/h | 896m | -4.7m/s | 21.0°C | 54.3% | 918.8hPa | 2.7V | 00:00:00 | 00:00:00 | 00:00:00 | |
| OE5DXL-15 | 2026-08-30 13:20:28 | 48.36617 | 12.92376 | 127° | 5km/h | 963m | -6.1m/s | 20.4°C | 56.0% | 911.6hPa | 2.7V | 00:00:00 | 00:00:00 | 00:00:00 | |
| OE5DXL-15 | 2026-08-30 13:20:22 | 48.36620 | 12.92367 | 137° | 5km/h | 1000m | -6.2m/s | 20.0°C | 57.4% | 908.0hPa | 2.7V | 00:00:00 | 00:00:00 | 00:00:00 | |
| OE3JTB-15 | 2026-08-30 13:20:16 | 48.36626 | 12.92360 | 146° | 5km/h | 1037m | -6.1m/s | 19.7°C | 58.5% | 903.8hPa | 2.7V | 00:00:00 | 00:00:00 | 00:00:00 | |
| OE5DXL-15 | 2026-08-30 13:20:16 | 48.36626 | 12.92360 | 146° | 4km/h | 1037m | -6.1m/s | 19.7°C | 58.5% | 903.8hPa | 2.7V | 00:00:00 | 00:00:00 | 00:00:00 | |
| OE3JTB-15 | 2026-08-30 13:20:14 | 48.36627 | 12.92358 | 125° | 4km/h | 1049m | -5.9m/s | 19.6°C | 59.1% | 902.7hPa | 2.7V | 00:00:00 | 00:00:00 | 00:00:00 | |
| OE3JTB-15 | 2026-08-30 13:20:12 | 48.36629 | 12.92355 | 115° | 4km/h | 1062m | -6.4m/s | 19.4°C | 59.2% | 901.3hPa | 2.7V | 00:00:00 | 02:50:24 | 00:00:00 | |
| OE3JTB-15 | 2026-08-30 13:20:10 | 48.36630 | 12.92353 | 129° | 4km/h | 1075m | -6.5m/s | 19.3°C | 59.6% | 900.1hPa | 2.7V | 00:00:00 | 00:00:00 | 00:00:00 | |
| OE5DXL-15 | 2026-08-30 13:20:10 | 48.36630 | 12.92353 | 129° | 4km/h | 1075m | -6.5m/s | 19.3°C | 59.6% | 900.1hPa | 2.7V | 00:00:00 | 00:00:00 | 00:00:00 | |
| OE3JTB-15 | 2026-08-30 13:20:08 | 48.36630 | 12.92351 | 143° | 4km/h | 1088m | -6.3m/s | 19.2°C | 60.2% | 898.7hPa | 2.7V | 00:00:00 | 00:00:00 | 00:00:00 | |
| OE3JTB-15 | 2026-08-30 13:20:06 | 48.36632 | 12.92350 | 152° | 4km/h | 1101m | -6.6m/s | 19.0°C | 60.5% | 897.3hPa | 2.7V | 07:33:00 | 02:50:18 | 00:00:00 | |
| OE3JTB-15 | 2026-08-30 13:20:04 | 48.36634 | 12.92349 | 160° | 5km/h | 1114m | -6.1m/s | 18.9°C | 60.8% | 896.0hPa | 2.7V | 00:00:00 | 00:00:00 | 00:00:00 | |
| OE5DXL-15 | 2026-08-30 13:20:04 | 48.36634 | 12.92349 | 160° | 7km/h | 1114m | -6.1m/s | 18.9°C | 60.8% | 896.0hPa | 2.7V | 07:33:00 | 00:00:00 | 00:00:00 | |
| OE3JTB-15 | 2026-08-30 13:20:02 | 48.36637 | 12.92347 | 151° | 7km/h | 1126m | -6.0m/s | 18.8°C | 61.0% | 894.6hPa | 2.7V | 00:00:00 | 00:00:00 | 00:00:00 | |
| OE3JTB-15 | 2026-08-30 13:20:00 | 48.36640 | 12.92343 | 147° | 7km/h | 1138m | -6.1m/s | 18.7°C | 61.6% | 893.3hPa | 2.7V | 00:00:00 | 02:50:12 | 00:00:00 | |
| OE3JTB-15 | 2026-08-30 13:19:58 | 48.36643 | 12.92340 | 147° | 7km/h | 1150m | -5.9m/s | 18.6°C | 61.9% | 892.1hPa | 2.7V | 00:00:00 | 00:00:00 | 00:00:00 | |
| OE5DXL-15 | 2026-08-30 13:19:58 | 48.36643 | 12.92340 | 147° | 7km/h | 1150m | -5.9m/s | 18.6°C | 61.9% | 892.1hPa | 2.7V | 00:00:00 | 00:00:00 | 00:00:00 | |
| OE3JTB-15 | 2026-08-30 13:19:56 | 48.36647 | 12.92338 | 159° | 7km/h | 1163m | -6.0m/s | 18.5°C | 62.2% | 890.9hPa | 2.7V | 00:00:00 | 00:00:00 | 00:00:00 | |
| OE3JTB-15 | 2026-08-30 13:19:54 | 48.36651 | 12.92336 | 159° | 7km/h | 1175m | -5.9m/s | 18.4°C | 62.4% | 889.6hPa | 2.7V | 00:00:00 | 02:50:06 | 00:00:00 | |
| OE3JTB-15 | 2026-08-30 13:19:52 | 48.36654 | 12.92334 | 157° | 7km/h | 1187m | -5.9m/s | 18.2°C | 63.0% | 888.5hPa | 2.7V | 00:00:00 | 00:00:00 | 00:00:00 | |
| OE5DXL-15 | 2026-08-30 13:19:52 | 48.36654 | 12.92334 | 157° | 9km/h | 1187m | -5.9m/s | 18.2°C | 63.0% | 888.5hPa | 2.7V | 00:00:00 | 00:00:00 | 00:00:00 | |
| OE5MMP-10 | 2026-08-30 13:19:51 | 48.36656 | 12.92333 | 155° | 9km/h | 1193m | -5.8m/s | 18.2°C | 63.3% | 887.8hPa | 2.7V | 00:00:00 | 02:50:03 | 00:00:00 | |
| OE3JTB-15 | 2026-08-30 13:19:50 | 48.36658 | 12.92331 | 155° | 9km/h | 1199m | -6.2m/s | 18.1°C | 63.3% | 887.1hPa | 2.7V | 07:34:00 | 00:00:00 | 00:00:00 | |
| OE3JTB-15 | 2026-08-30 13:19:48 | 48.36661 | 12.92328 | 145° | 9km/h | 1212m | -6.2m/s | 18.0°C | 63.3% | 885.7hPa | 2.7V | 00:00:00 | 02:50:00 | 00:00:00 | |
| OE3JTB-15 | 2026-08-30 13:19:46 | 48.36665 | 12.92324 | 143° | 9km/h | 1224m | -5.9m/s | 17.9°C | 63.4% | 884.6hPa | 2.7V | 00:00:00 | 00:00:00 | 00:00:00 | |
| OE5MMP-10 | 2026-08-30 13:19:46 | 48.36665 | 12.92324 | 143° | 9km/h | 1224m | -5.9m/s | 17.9°C | 63.4% | 884.6hPa | 2.7V | 00:00:00 | 02:49:58 | 00:00:00 | |
| OE5DXL-15 | 2026-08-30 13:19:46 | 48.36665 | 12.92324 | 143° | 9km/h | 1224m | -5.9m/s | 17.9°C | 63.4% | 884.6hPa | 2.7V | 00:00:00 | 00:00:00 | 00:00:00 | |
| OE3JTB-15 | 2026-08-30 13:19:44 | 48.36669 | 12.92320 | 145° | 9km/h | 1236m | -5.4m/s | 17.8°C | 63.8% | 883.3hPa | 2.7V | 00:00:00 | 00:00:00 | 00:00:00 | |
| OE3JTB-15 | 2026-08-30 13:19:42 | 48.36673 | 12.92315 | 140° | 9km/h | 1247m | -4.9m/s | 17.6°C | 64.6% | 882.2hPa | 2.7V | 00:00:00 | 02:49:54 | 00:00:00 | |
| OE5MMP-10 | 2026-08-30 13:19:41 | 48.36675 | 12.92313 | 142° | 9km/h | 1252m | -5.1m/s | 17.6°C | 64.6% | 881.5hPa | 2.7V | 07:34:00 | 02:49:53 | 00:00:00 | |
| OE3JTB-15 | 2026-08-30 13:19:40 | 48.36677 | 12.92310 | 135° | 9km/h | 1257m | -5.5m/s | 17.6°C | 64.7% | 881.1hPa | 2.7V | 00:00:00 | 00:00:00 | 00:00:00 | |
| OE5DXL-15 | 2026-08-30 13:19:40 | 48.36677 | 12.92310 | 135° | 9km/h | 1257m | -5.5m/s | 17.6°C | 64.7% | 881.1hPa | 2.7V | 00:00:00 | 00:00:00 | 00:00:00 | |
| OE3JTB-15 | 2026-08-30 13:19:38 | 48.36680 | 12.92305 | 141° | 9km/h | 1268m | -5.4m/s | 17.5°C | 65.5% | 880.1hPa | 2.7V | 00:00:00 | 00:00:00 | 00:00:00 | |
| DO3MHA-11 | 2026-08-30 13:19:38 | 48.36680 | 12.92305 | 141° | 7km/h | 1268m | -5.4m/s | 17.5°C | 65.5% | 880.1hPa | 2.7V | 00:00:00 | 02:49:50 | 00:00:00 | |
| OE3JTB-15 | 2026-08-30 13:19:36 | 48.36684 | 12.92301 | 149° | 7km/h | 1279m | -6.2m/s | 17.3°C | 66.6% | 878.9hPa | 2.7V | 00:00:00 | 02:49:48 | 00:00:00 | |
| OE5MMP-10 | 2026-08-30 13:19:36 | 48.36684 | 12.92301 | 149° | 7km/h | 1279m | -6.2m/s | 17.3°C | 66.6% | 878.9hPa | 2.7V | 00:00:00 | 02:49:48 | 00:00:00 | |
| OE5DXL-15 | 2026-08-30 13:19:34 | 48.36687 | 12.92298 | 150° | 7km/h | 1291m | -5.6m/s | 17.3°C | 66.8% | 877.7hPa | 2.7V | 00:00:00 | 00:00:00 | 00:00:00 | |
| OE3JTB-15 | 2026-08-30 13:19:34 | 48.36687 | 12.92298 | 150° | 7km/h | 1291m | -5.6m/s | 17.3°C | 66.8% | 877.7hPa | 2.7V | 07:34:00 | 00:00:00 | 00:00:00 | |
| OE3JTB-15 | 2026-08-30 13:19:32 | 48.36691 | 12.92296 | 157° | 7km/h | 1302m | -5.4m/s | 17.2°C | 67.2% | 876.5hPa | 2.7V | 00:00:00 | 00:00:00 | 00:00:00 | |
| DO3MHA-11 | 2026-08-30 13:19:32 | 48.36691 | 12.92296 | 157° | 7km/h | 1302m | -5.4m/s | 17.2°C | 67.2% | 876.5hPa | 2.7V | 00:00:00 | 02:49:44 | 00:00:00 | |
| OE3JTB-15 | 2026-08-30 13:19:30 | 48.36693 | 12.92294 | 153° | 5km/h | 1313m | -6.0m/s | 17.0°C | 67.2% | 875.3hPa | 2.7V | 00:00:00 | 02:49:42 | 00:00:00 | |
| DO3MHA-11 | 2026-08-30 13:19:30 | 48.36693 | 12.92294 | 153° | 5km/h | 1313m | -6.0m/s | 17.0°C | 67.2% | 875.3hPa | 2.7V | 00:00:00 | 02:49:42 | 00:00:00 | |
| OE3JTB-15 | 2026-08-30 13:19:28 | 48.36696 | 12.92291 | 132° | 7km/h | 1325m | -5.8m/s | 16.9°C | 67.7% | 874.1hPa | 2.7V | 00:00:00 | 00:00:00 | 00:00:00 | |
| OE5DXL-15 | 2026-08-30 13:19:28 | 48.36696 | 12.92291 | 132° | 7km/h | 1325m | -5.8m/s | 16.9°C | 67.7% | 874.1hPa | 2.7V | 00:00:00 | 00:00:00 | 00:00:00 | |
| DO3MHA-11 | 2026-08-30 13:19:28 | 48.36696 | 12.92291 | 132° | 7km/h | 1325m | -5.8m/s | 16.9°C | 67.7% | 874.1hPa | 2.7V | 07:34:00 | 02:49:40 | 00:00:00 | |
| OE3JTB-15 | 2026-08-30 13:19:26 | 48.36698 | 12.92286 | 130° | 7km/h | 1337m | -5.5m/s | 16.8°C | 67.9% | 872.9hPa | 2.7V | 00:00:00 | 00:00:00 | 00:00:00 | |
| DO3MHA-11 | 2026-08-30 13:19:26 | 48.36698 | 12.92286 | 130° | 7km/h | 1337m | -5.5m/s | 16.8°C | 67.9% | 872.9hPa | 2.7V | 00:00:00 | 02:49:38 | 00:00:00 | |
| OE5MMP-10 | 2026-08-30 13:19:25 | 48.36700 | 12.92284 | 136° | 7km/h | 1343m | -6.1m/s | 16.8°C | 67.8% | 872.4hPa | 2.7V | 00:00:00 | 02:49:37 | 00:00:00 | |
| DO3MHA-11 | 2026-08-30 13:19:24 | 48.36701 | 12.92282 | 149° | 7km/h | 1349m | -5.8m/s | 16.6°C | 68.2% | 871.6hPa | 2.7V | 00:00:00 | 02:49:36 | 00:00:00 | |
| OE5DXL-15 | 2026-08-30 13:19:22 | 48.36705 | 12.92279 | 149° | 7km/h | 1360m | -5.8m/s | 16.6°C | 67.9% | 870.5hPa | 2.7V | 00:00:00 | 00:00:00 | 00:00:00 | |
| DO3MHA-11 | 2026-08-30 13:19:22 | 48.36705 | 12.92279 | 149° | 7km/h | 1360m | -5.8m/s | 16.6°C | 67.9% | 870.5hPa | 2.7V | 00:00:00 | 02:49:34 | 00:00:00 | |
| DO3MHA-11 | 2026-08-30 13:19:20 | 48.36708 | 12.92276 | 135° | 7km/h | 1371m | -4.9m/s | 16.5°C | 68.3% | 869.5hPa | 2.7V | 00:00:00 | 02:49:32 | 00:00:00 | |
| DO3MHA-11 | 2026-08-30 13:19:18 | 48.36710 | 12.92272 | 123° | 7km/h | 1381m | -4.7m/s | 16.4°C | 69.2% | 868.4hPa | 2.7V | 00:00:00 | 02:49:30 | 00:00:00 | |
| OE5DXL-15 | 2026-08-30 13:19:16 | 48.36712 | 12.92268 | 117° | 7km/h | 1390m | -4.3m/s | 16.3°C | 69.9% | 867.5hPa | 2.7V | 07:34:00 | 00:00:00 | 00:00:00 | |
| DO3MHA-11 | 2026-08-30 13:19:16 | 48.36712 | 12.92268 | 117° | 5km/h | 1390m | -4.3m/s | 16.3°C | 69.9% | 867.5hPa | 2.7V | 00:00:00 | 02:49:28 | 00:00:00 | |
| OE3JTB-15 | 2026-08-30 13:19:15 | 48.36712 | 12.92266 | 127° | 5km/h | 1394m | -4.6m/s | 16.2°C | 70.2% | 867.0hPa | 2.7V | 00:00:00 | 02:49:27 | 00:00:00 | |
| DO3MHA-11 | 2026-08-30 13:19:14 | 48.36713 | 12.92264 | 124° | 5km/h | 1399m | -4.5m/s | 16.2°C | 70.3% | 866.5hPa | 2.7V | 00:00:00 | 02:49:26 | 00:00:00 | |
| OE3JTB-15 | 2026-08-30 13:19:13 | 48.36714 | 12.92262 | 130° | 7km/h | 1404m | -4.6m/s | 16.1°C | 70.6% | 866.1hPa | 2.7V | 00:00:00 | 00:00:00 | 00:00:00 | |
| DO3MHA-11 | 2026-08-30 13:19:12 | 48.36716 | 12.92260 | 136° | 9km/h | 1408m | -4.5m/s | 16.1°C | 70.7% | 865.6hPa | 2.7V | 07:34:00 | 02:49:24 | 00:00:00 | |
| OE3JTB-15 | 2026-08-30 13:19:11 | 48.36717 | 12.92258 | 132° | 9km/h | 1413m | -4.0m/s | 16.1°C | 70.6% | 865.3hPa | 2.7V | 00:00:00 | 00:00:00 | 00:00:00 | |
| OE5DXL-15 | 2026-08-30 13:19:10 | 48.36719 | 12.92255 | 135° | 11km/h | 1417m | -4.1m/s | 16.1°C | 71.0% | 864.6hPa | 2.7V | 00:00:00 | 00:00:00 | 00:00:00 | |
| DO3MHA-11 | 2026-08-30 13:19:10 | 48.36719 | 12.92255 | 135° | 11km/h | 1417m | -4.1m/s | 16.1°C | 71.0% | 864.6hPa | 2.7V | 00:00:00 | 02:49:22 | 00:00:00 | |
| OE3JTB-15 | 2026-08-30 13:19:09 | 48.36720 | 12.92252 | 129° | 11km/h | 1421m | -3.9m/s | 16.0°C | 71.3% | 864.3hPa | 2.7V | 07:34:00 | 02:49:21 | 00:00:00 | |
| DO3MHA-11 | 2026-08-30 13:19:08 | 48.36722 | 12.92249 | 131° | 11km/h | 1425m | -4.4m/s | 15.9°C | 71.5% | 864.0hPa | 2.7V | 00:00:00 | 02:49:20 | 00:00:00 | |
| OE3JTB-15 | 2026-08-30 13:19:07 | 48.36724 | 12.92245 | 132° | 13km/h | 1429m | -4.1m/s | 15.9°C | 71.6% | 863.5hPa | 2.7V | 00:00:00 | 00:00:00 | 00:00:00 | |
| DO3MHA-11 | 2026-08-30 13:19:06 | 48.36726 | 12.92242 | 130° | 11km/h | 1434m | -4.4m/s | 15.9°C | 71.7% | 863.1hPa | 2.7V | 00:00:00 | 02:49:18 | 00:00:00 | |
| OE3JTB-15 | 2026-08-30 13:19:05 | 48.36728 | 12.92238 | 129° | 11km/h | 1438m | -4.5m/s | 15.8°C | 71.9% | 862.6hPa | 2.7V | 00:00:00 | 00:00:00 | 00:00:00 | |
| OE5DXL-15 | 2026-08-30 13:19:04 | 48.36730 | 12.92235 | 131° | 5km/h | 1443m | -4.3m/s | 15.8°C | 72.0% | 862.2hPa | 2.7V | 00:00:00 | 00:00:00 | 00:00:00 | |
| DO3MHA-11 | 2026-08-30 13:19:04 | 48.36730 | 12.92235 | 131° | 9km/h | 1443m | -4.3m/s | 15.8°C | 72.0% | 862.2hPa | 2.7V | 00:00:00 | 02:49:16 | 00:00:00 | |
| OE3JTB-15 | 2026-08-30 13:19:03 | 48.36731 | 12.92232 | 126° | 7km/h | 1447m | -4.3m/s | 15.8°C | 72.1% | 861.7hPa | 2.7V | 00:00:00 | 02:49:15 | 00:00:00 | |
| DO3MHA-11 | 2026-08-30 13:19:02 | 48.36732 | 12.92230 | 123° | 5km/h | 1451m | -4.3m/s | 15.7°C | 71.9% | 861.1hPa | 2.7V | 00:00:00 | 02:49:14 | 00:00:00 | |
| OE3JTB-15 | 2026-08-30 13:19:01 | 48.36733 | 12.92228 | 117° | 4km/h | 1456m | -4.0m/s | 15.7°C | 72.3% | 860.8hPa | 2.7V | 00:00:00 | 00:00:00 | 00:00:00 | |
| DO3MHA-11 | 2026-08-30 13:19:00 | 48.36733 | 12.92227 | 120° | 2km/h | 1460m | -4.0m/s | 15.6°C | 72.6% | 860.3hPa | 2.7V | 00:00:00 | 02:49:12 | 00:00:00 | |
| OE3JTB-15 | 2026-08-30 13:18:59 | 48.36734 | 12.92227 | 164° | 4km/h | 1464m | -3.8m/s | 15.6°C | 72.8% | 859.9hPa | 2.7V | 00:00:00 | 00:00:00 | 00:00:00 | |
| OE5DXL-15 | 2026-08-30 13:18:58 | 48.36734 | 12.92227 | 159° | 5km/h | 1468m | -4.0m/s | 15.5°C | 72.8% | 859.6hPa | 2.7V | 00:00:00 | 00:00:00 | 00:00:00 | |
| DO3MHA-11 | 2026-08-30 13:18:58 | 48.36734 | 12.92227 | 159° | 4km/h | 1468m | -4.0m/s | 15.5°C | 72.8% | 859.6hPa | 2.7V | 00:00:00 | 02:49:10 | 00:00:00 | |
| OE3JTB-15 | 2026-08-30 13:18:57 | 48.36735 | 12.92226 | 145° | 4km/h | 1472m | -4.0m/s | 15.5°C | 73.1% | 859.1hPa | 2.7V | 00:00:00 | 02:49:09 | 00:00:00 | |
| DO3MHA-11 | 2026-08-30 13:18:56 | 48.36736 | 12.92225 | 165° | 5km/h | 1476m | -3.9m/s | 15.4°C | 73.3% | 858.6hPa | 2.7V | 07:35:00 | 02:49:08 | 00:00:00 | |
| OE3JTB-15 | 2026-08-30 13:18:55 | 48.36738 | 12.92225 | 156° | 5km/h | 1480m | -4.0m/s | 15.4°C | 73.5% | 858.2hPa | 2.7V | 00:00:00 | 00:00:00 | 00:00:00 | |
| DO3MHA-11 | 2026-08-30 13:18:54 | 48.36739 | 12.92224 | 158° | 5km/h | 1484m | -4.2m/s | 15.4°C | 73.7% | 857.9hPa | 2.7V | 00:00:00 | 02:49:06 | 00:00:00 | |
| OE3JTB-15 | 2026-08-30 13:18:53 | 48.36740 | 12.92223 | 162° | 5km/h | 1488m | -4.4m/s | 15.3°C | 73.7% | 857.4hPa | 2.7V | 07:35:00 | 00:00:00 | 00:00:00 | |
| DO3MHA-11 | 2026-08-30 13:18:52 | 48.36742 | 12.92222 | 150° | 5km/h | 1493m | -4.3m/s | 15.3°C | 74.0% | 857.0hPa | 2.7V | 00:00:00 | 02:49:04 | 00:00:00 | |
| OE5DXL-15 | 2026-08-30 13:18:52 | 48.36742 | 12.92222 | 150° | 4km/h | 1493m | -4.3m/s | 15.3°C | 74.0% | 857.0hPa | 2.7V | 00:00:00 | 00:00:00 | 00:00:00 | |
| OE3JTB-15 | 2026-08-30 13:18:51 | 48.36743 | 12.92221 | 137° | 5km/h | 1497m | -5.2m/s | 15.2°C | 74.2% | 856.5hPa | 2.7V | 00:00:00 | 02:49:03 | 00:00:00 | |
| OE3JTB-15 | 2026-08-30 13:18:47 | 48.36745 | 12.92218 | 117° | 2km/h | 1517m | -5.5m/s | 15.0°C | 74.3% | 854.6hPa | 2.7V | 00:00:00 | 00:00:00 | 00:00:00 | |
| OE5DXL-15 | 2026-08-30 13:18:46 | 48.36745 | 12.92217 | 84° | 5km/h | 1522m | -4.3m/s | 15.0°C | 73.8% | 854.0hPa | 2.7V | 00:00:00 | 00:00:00 | 00:00:00 | |
| OE3JTB-15 | 2026-08-30 13:18:45 | 48.36745 | 12.92216 | 89° | 4km/h | 1526m | -4.3m/s | 14.9°C | 73.8% | 853.6hPa | 2.7V | 00:00:00 | 02:48:57 | 00:00:00 | |
| DO3MHA-11 | 2026-08-30 13:18:45 | 48.36745 | 12.92216 | 89° | 5km/h | 1526m | -4.3m/s | 14.9°C | 73.8% | 853.6hPa | 2.7V | 00:00:00 | 02:48:57 | 00:00:00 | |
| OE3JTB-15 | 2026-08-30 13:18:43 | 48.36745 | 12.92213 | 109° | 5km/h | 1535m | -4.1m/s | 14.8°C | 74.8% | 852.6hPa | 2.7V | 00:00:00 | 00:00:00 | 00:00:00 | |
| OE3JTB-15 | 2026-08-30 13:18:41 | 48.36747 | 12.92209 | 132° | 7km/h | 1544m | -4.4m/s | 14.8°C | 75.1% | 851.9hPa | 2.7V | 00:00:00 | 00:00:00 | 00:00:00 | |
| DO3MHA-11 | 2026-08-30 13:18:40 | 48.36749 | 12.92208 | 139° | 7km/h | 1548m | -4.4m/s | 14.7°C | 75.4% | 851.4hPa | 2.7V | 00:00:00 | 02:48:52 | 00:00:00 | |
| OE3JTB-15 | 2026-08-30 13:18:39 | 48.36750 | 12.92206 | 145° | 7km/h | 1552m | -4.6m/s | 14.7°C | 75.5% | 850.9hPa | 2.7V | 00:00:00 | 02:48:51 | 00:00:00 | |
| OE3JTB-15 | 2026-08-30 13:18:37 | 48.36753 | 12.92202 | 126° | 5km/h | 1561m | -4.4m/s | 14.6°C | 76.4% | 850.0hPa | 2.7V | 07:35:00 | 00:00:00 | 00:00:00 | |
| OE3JTB-15 | 2026-08-30 13:18:35 | 48.36754 | 12.92198 | 119° | 5km/h | 1570m | -4.4m/s | 14.5°C | 76.4% | 849.0hPa | 2.7V | 00:00:00 | 00:00:00 | 00:00:00 | |
| DO3MHA-11 | 2026-08-30 13:18:35 | 48.36754 | 12.92198 | 119° | 5km/h | 1570m | -4.4m/s | 14.5°C | 76.4% | 849.0hPa | 2.7V | 00:00:00 | 02:48:47 | 00:00:00 | |
| OE3JTB-15 | 2026-08-30 13:18:33 | 48.36756 | 12.92195 | 139° | 5km/h | 1579m | -4.1m/s | 14.4°C | 76.7% | 848.2hPa | 2.7V | 00:00:00 | 02:48:45 | 00:00:00 | |
| OE3JTB-15 | 2026-08-30 13:18:31 | 48.36758 | 12.92192 | 135° | 5km/h | 1588m | -4.9m/s | 14.3°C | 77.3% | 847.4hPa | 2.7V | 00:00:00 | 00:00:00 | 00:00:00 | |
| DO3MHA-11 | 2026-08-30 13:18:30 | 48.36759 | 12.92191 | 143° | 5km/h | 1593m | -5.3m/s | 14.3°C | 77.5% | 846.9hPa | 2.7V | 00:00:00 | 02:48:42 | 00:00:00 | |
| OE3JTB-15 | 2026-08-30 13:18:29 | 48.36760 | 12.92189 | 134° | 5km/h | 1599m | -5.0m/s | 14.2°C | 77.6% | 846.3hPa | 2.7V | 00:00:00 | 00:00:00 | 00:00:00 | |
| OE5DXL-15 | 2026-08-30 13:18:28 | 48.36761 | 12.92188 | 120° | 7km/h | 1604m | -4.7m/s | 14.2°C | 78.2% | 845.9hPa | 2.7V | 00:00:00 | 00:00:00 | 00:00:00 | |
| OE3JTB-15 | 2026-08-30 13:18:27 | 48.36761 | 12.92186 | 107° | 5km/h | 1608m | -4.8m/s | 14.1°C | 78.5% | 845.4hPa | 2.7V | 00:00:00 | 02:48:39 | 00:00:00 | |
| OE3JTB-15 | 2026-08-30 13:18:25 | 48.36762 | 12.92181 | 108° | 7km/h | 1618m | -4.6m/s | 14.1°C | 79.1% | 844.5hPa | 2.7V | 00:00:00 | 00:00:00 | 00:00:00 | |
| DO3MHA-11 | 2026-08-30 13:18:25 | 48.36762 | 12.92181 | 108° | 5km/h | 1618m | -4.6m/s | 14.1°C | 79.1% | 844.5hPa | 2.7V | 07:35:00 | 02:48:37 | 00:00:00 | |
| OE3JTB-15 | 2026-08-30 13:18:23 | 48.36763 | 12.92177 | 106° | 5km/h | 1627m | -4.8m/s | 14.0°C | 79.6% | 843.5hPa | 2.7V | 00:00:00 | 00:00:00 | 00:00:00 | |
| OE3JTB-15 | 2026-08-30 13:18:21 | 48.36764 | 12.92173 | 113° | 4km/h | 1637m | -4.9m/s | 13.9°C | 79.6% | 842.5hPa | 2.7V | 07:35:00 | 02:48:33 | 00:00:00 | |
| DO3MHA-11 | 2026-08-30 13:18:20 | 48.36764 | 12.92172 | 158° | 5km/h | 1642m | -4.8m/s | 13.9°C | 79.4% | 841.9hPa | 2.7V | 00:00:00 | 02:48:32 | 00:00:00 | |
| OE3JTB-15 | 2026-08-30 13:18:17 | 48.36768 | 12.92170 | 152° | 7km/h | 1658m | -4.9m/s | 13.7°C | 79.9% | 840.5hPa | 2.7V | 00:00:00 | 00:00:00 | 00:00:00 | |
| OE3JTB-15 | 2026-08-30 13:18:15 | 48.36771 | 12.92167 | 135° | 9km/h | 1667m | -4.3m/s | 13.6°C | 80.6% | 839.6hPa | 2.7V | 00:00:00 | 02:48:27 | 00:00:00 | |
| DO3MHA-11 | 2026-08-30 13:18:15 | 48.36771 | 12.92167 | 135° | 11km/h | 1667m | -4.3m/s | 13.6°C | 80.6% | 839.6hPa | 2.7V | 00:00:00 | 02:48:27 | 00:00:00 | |
| OE3JTB-15 | 2026-08-30 13:18:13 | 48.36774 | 12.92161 | 127° | 11km/h | 1676m | -5.0m/s | 13.7°C | 78.6% | 838.7hPa | 2.7V | 00:00:00 | 00:00:00 | 00:00:00 | |
| OE5MMP-10 | 2026-08-30 13:18:12 | 48.36776 | 12.92158 | 130° | 13km/h | 1681m | -5.2m/s | 13.7°C | 78.6% | 838.1hPa | 2.7V | 00:00:00 | 02:48:24 | 00:00:00 | |
| OE3JTB-15 | 2026-08-30 13:18:11 | 48.36778 | 12.92154 | 126° | 13km/h | 1686m | -4.7m/s | 13.6°C | 79.9% | 837.7hPa | 2.7V | 00:00:00 | 00:00:00 | 00:00:00 | |
| DO3MHA-11 | 2026-08-30 13:18:10 | 48.36780 | 12.92149 | 120° | 11km/h | 1691m | -4.9m/s | 13.6°C | 79.2% | 837.1hPa | 2.7V | 00:00:00 | 02:48:22 | 00:00:00 | |
| OE3JTB-15 | 2026-08-30 13:18:09 | 48.36781 | 12.92145 | 120° | 13km/h | 1696m | -4.8m/s | 13.5°C | 79.3% | 836.5hPa | 2.7V | 00:00:00 | 02:48:21 | 00:00:00 | |
| OE5DXL-15 | 2026-08-30 13:18:08 | 48.36783 | 12.92141 | 118° | 13km/h | 1701m | -5.3m/s | 13.5°C | 79.6% | 836.1hPa | 2.7V | 00:00:00 | 00:00:00 | 00:00:00 | |
| OE3JTB-15 | 2026-08-30 13:18:07 | 48.36784 | 12.92137 | 112° | 9km/h | 1707m | -5.8m/s | 13.5°C | 78.7% | 835.6hPa | 2.7V | 00:00:00 | 00:00:00 | 00:00:00 | |
| OE5MMP-10 | 2026-08-30 13:18:07 | 48.36784 | 12.92137 | 112° | 9km/h | 1707m | -5.8m/s | 13.5°C | 78.7% | 835.6hPa | 2.7V | 00:00:00 | 02:48:19 | 00:00:00 | |
| OE3JTB-15 | 2026-08-30 13:18:05 | 48.36786 | 12.92130 | 116° | 9km/h | 1719m | -5.7m/s | 13.3°C | 79.5% | 834.6hPa | 2.7V | 07:35:00 | 00:00:00 | 00:00:00 | |
| DO3MHA-11 | 2026-08-30 13:18:05 | 48.36786 | 12.92130 | 116° | 11km/h | 1719m | -5.7m/s | 13.3°C | 79.5% | 834.6hPa | 2.7V | 00:00:00 | 02:48:17 | 00:00:00 | |
| OE3JTB-15 | 2026-08-30 13:18:03 | 48.36788 | 12.92123 | 114° | 11km/h | 1730m | -5.6m/s | 13.1°C | 82.1% | 833.3hPa | 2.7V | 00:00:00 | 02:48:15 | 00:00:00 | |
| OE5MMP-10 | 2026-08-30 13:18:02 | 48.36789 | 12.92120 | 117° | 11km/h | 1736m | -5.6m/s | 13.1°C | 81.0% | 832.8hPa | 2.7V | 00:00:00 | 02:48:14 | 00:00:00 | |
| OE3JTB-15 | 2026-08-30 13:18:01 | 48.36790 | 12.92116 | 113° | 11km/h | 1741m | -5.1m/s | 13.0°C | 82.2% | 832.2hPa | 2.7V | 00:00:00 | 00:00:00 | 00:00:00 | |
| DO3MHA-11 | 2026-08-30 13:18:00 | 48.36791 | 12.92112 | 118° | 13km/h | 1747m | -5.3m/s | 13.0°C | 80.9% | 831.5hPa | 2.7V | 00:00:00 | 02:48:12 | 00:00:00 | |
| OE3JTB-15 | 2026-08-30 13:17:59 | 48.36793 | 12.92108 | 120° | 13km/h | 1752m | -5.1m/s | 13.0°C | 82.1% | 831.1hPa | 2.7V | 00:00:00 | 00:00:00 | 00:00:00 | |
| OE3JTB-15 | 2026-08-30 13:17:57 | 48.36795 | 12.92099 | 113° | 15km/h | 1762m | -4.9m/s | 13.1°C | 78.5% | 830.2hPa | 2.7V | 00:00:00 | 02:48:09 | 00:00:00 | |
| OE5MMP-10 | 2026-08-30 13:17:57 | 48.36795 | 12.92099 | 113° | 13km/h | 1762m | -4.9m/s | 13.1°C | 78.5% | 830.2hPa | 2.7V | 00:00:00 | 02:48:09 | 00:00:00 | |
| OE3JTB-15 | 2026-08-30 13:17:55 | 48.36798 | 12.92089 | 107° | 15km/h | 1772m | -4.9m/s | 13.0°C | 78.5% | 829.0hPa | 2.7V | 00:00:00 | 00:00:00 | 00:00:00 | |
| DO3MHA-11 | 2026-08-30 13:17:55 | 48.36798 | 12.92089 | 107° | 15km/h | 1772m | -4.9m/s | 13.0°C | 78.5% | 829.0hPa | 2.7V | 00:00:00 | 02:48:07 | 00:00:00 | |
| OE3JTB-15 | 2026-08-30 13:17:53 | 48.36800 | 12.92079 | 108° | 15km/h | 1782m | -5.0m/s | 12.9°C | 79.1% | 828.1hPa | 2.7V | 00:00:00 | 00:00:00 | 00:00:00 | |
| OE3JTB-15 | 2026-08-30 13:17:51 | 48.36803 | 12.92069 | 112° | 13km/h | 1792m | -4.6m/s | 12.8°C | 79.9% | 827.2hPa | 2.7V | 00:00:00 | 02:48:03 | 00:00:00 | |
| OE5MMP-10 | 2026-08-30 13:17:50 | 48.36804 | 12.92064 | 115° | 15km/h | 1796m | -4.7m/s | 12.8°C | 79.7% | 826.8hPa | 2.7V | 00:00:00 | 02:48:02 | 00:00:00 | |
| DO3MHA-11 | 2026-08-30 13:17:50 | 48.36804 | 12.92064 | 115° | 15km/h | 1796m | -4.7m/s | 12.8°C | 79.7% | 826.8hPa | 2.7V | 00:00:00 | 02:48:02 | 00:00:00 | |
| OE3JTB-15 | 2026-08-30 13:17:49 | 48.36805 | 12.92059 | 113° | 15km/h | 1801m | -4.5m/s | 12.8°C | 79.9% | 826.3hPa | 2.7V | 07:36:00 | 00:00:00 | 00:00:00 | |
| OE3JTB-15 | 2026-08-30 13:17:47 | 48.36808 | 12.92049 | 112° | 15km/h | 1810m | -4.6m/s | 12.6°C | 80.6% | 825.4hPa | 2.7V | 00:00:00 | 00:00:00 | 00:00:00 | |
| OE3JTB-15 | 2026-08-30 13:17:45 | 48.36811 | 12.92039 | 112° | 15km/h | 1820m | -4.7m/s | 12.5°C | 81.0% | 824.6hPa | 2.7V | 00:00:00 | 02:47:57 | 00:00:00 | |
| OE5MMP-10 | 2026-08-30 13:17:45 | 48.36811 | 12.92039 | 112° | 15km/h | 1820m | -4.7m/s | 12.5°C | 81.0% | 824.6hPa | 2.7V | 07:36:00 | 02:47:57 | 00:00:00 | |
| DO3MHA-11 | 2026-08-30 13:17:45 | 48.36811 | 12.92039 | 112° | 15km/h | 1820m | -4.7m/s | 12.5°C | 81.0% | 824.6hPa | 2.7V | 07:36:00 | 02:47:57 | 00:00:00 | |
| OE3JTB-15 | 2026-08-30 13:17:41 | 48.36816 | 12.92019 | 114° | 15km/h | 1837m | -4.0m/s | 12.4°C | 80.8% | 822.8hPa | 2.7V | 00:00:00 | 00:00:00 | 00:00:00 | |
| DO3MHA-11 | 2026-08-30 13:17:40 | 48.36817 | 12.92015 | 116° | 15km/h | 1841m | -4.2m/s | 12.4°C | 80.8% | 822.3hPa | 2.7V | 00:00:00 | 02:47:52 | 00:00:00 | |
| OE5MMP-10 | 2026-08-30 13:17:40 | 48.36817 | 12.92015 | 116° | 15km/h | 1841m | -4.2m/s | 12.4°C | 80.8% | 822.3hPa | 2.7V | 00:00:00 | 02:47:52 | 00:00:00 | |
| OE3JTB-15 | 2026-08-30 13:17:39 | 48.36819 | 12.92010 | 118° | 15km/h | 1845m | -4.0m/s | 12.4°C | 81.4% | 822.1hPa | 2.7V | 00:00:00 | 00:00:00 | 00:00:00 | |
| OE3JTB-15 | 2026-08-30 13:17:37 | 48.36822 | 12.91999 | 114° | 15km/h | 1854m | -4.7m/s | 12.3°C | 80.0% | 821.1hPa | 2.7V | 00:00:00 | 02:47:49 | 00:00:00 | |
| OE3JTB-15 | 2026-08-30 13:17:33 | 48.36826 | 12.91976 | 99° | 16km/h | 1873m | -4.4m/s | 12.2°C | 79.4% | 819.4hPa | 2.7V | 00:00:00 | 00:00:00 | 00:00:00 | |
| OE3JTB-15 | 2026-08-30 13:17:31 | 48.36827 | 12.91963 | 92° | 16km/h | 1882m | -4.3m/s | 12.1°C | 79.8% | 818.5hPa | 2.7V | 07:36:00 | 02:47:43 | 00:00:00 | |
| DO3MHA-11 | 2026-08-30 13:17:30 | 48.36827 | 12.91956 | 95° | 16km/h | 1886m | -4.8m/s | 12.1°C | 79.6% | 818.0hPa | 2.7V | 00:00:00 | 02:47:42 | 00:00:00 | |
| OE3JTB-15 | 2026-08-30 13:17:29 | 48.36827 | 12.91950 | 93° | 16km/h | 1891m | -4.7m/s | 12.1°C | 79.2% | 817.6hPa | 2.7V | 00:00:00 | 00:00:00 | 00:00:00 | |
| OE5DXL-15 | 2026-08-30 13:17:28 | 48.36827 | 12.91944 | 96° | 18km/h | 1896m | -4.4m/s | 12.1°C | 79.2% | 817.0hPa | 2.7V | 00:00:00 | 00:00:00 | 00:00:00 | |
| OE3JTB-15 | 2026-08-30 13:17:25 | 48.36829 | 12.91927 | 107° | 15km/h | 1908m | -4.0m/s | 11.9°C | 79.8% | 815.9hPa | 2.7V | 00:00:00 | 02:47:37 | 00:00:00 | |
| DO3MHA-11 | 2026-08-30 13:17:25 | 48.36829 | 12.91927 | 107° | 16km/h | 1908m | -4.0m/s | 11.9°C | 79.8% | 815.9hPa | 2.7V | 00:00:00 | 02:47:37 | 00:00:00 | |
| OE3JTB-15 | 2026-08-30 13:17:23 | 48.36831 | 12.91915 | 104° | 15km/h | 1916m | -3.6m/s | 11.9°C | 79.5% | 815.0hPa | 2.7V | 00:00:00 | 00:00:00 | 00:00:00 | |
| OE3JTB-15 | 2026-08-30 13:17:21 | 48.36833 | 12.91903 | 94° | 16km/h | 1923m | -3.3m/s | 12.0°C | 77.8% | 814.2hPa | 2.7V | 00:00:00 | 00:00:00 | 00:00:00 | |
| DO3MHA-11 | 2026-08-30 13:17:20 | 48.36833 | 12.91897 | 91° | 16km/h | 1927m | -3.6m/s | 11.9°C | 78.8% | 814.1hPa | 2.7V | 00:00:00 | 02:47:32 | 00:00:00 | |
| OE3JTB-15 | 2026-08-30 13:17:19 | 48.36833 | 12.91891 | 93° | 16km/h | 1931m | -3.6m/s | 11.9°C | 78.3% | 813.6hPa | 2.6V | 00:00:00 | 02:47:31 | 00:00:00 | |
| OE3JTB-15 | 2026-08-30 13:17:17 | 48.36833 | 12.91879 | 96° | 18km/h | 1937m | -3.4m/s | 11.8°C | 78.9% | 813.1hPa | 2.6V | 00:00:00 | 00:00:00 | 00:00:00 | |
| OE3JTB-15 | 2026-08-30 13:17:15 | 48.36834 | 12.91864 | 97° | 20km/h | 1944m | -3.7m/s | 11.6°C | 81.3% | 812.4hPa | 2.7V | 07:36:00 | 00:00:00 | 00:00:00 | |
| DO3MHA-11 | 2026-08-30 13:17:15 | 48.36834 | 12.91864 | 97° | 22km/h | 1944m | -3.7m/s | 11.6°C | 81.3% | 812.4hPa | 2.7V | 00:00:00 | 02:47:27 | 00:00:00 | |
| OE5MMP-10 | 2026-08-30 13:17:14 | 48.36835 | 12.91856 | 99° | 29km/h | 1948m | -3.9m/s | 11.5°C | 81.5% | 812.1hPa | 2.7V | 00:00:00 | 02:47:26 | 00:00:00 | |
| OE3JTB-15 | 2026-08-30 13:17:13 | 48.36836 | 12.91848 | 94° | 24km/h | 1952m | -2.9m/s | 11.6°C | 81.2% | 811.8hPa | 2.7V | 00:00:00 | 02:47:25 | 00:00:00 | |
| OE3JTB-15 | 2026-08-30 13:17:11 | 48.36835 | 12.91830 | 85° | 26km/h | 1958m | -3.3m/s | 11.7°C | 78.7% | 811.0hPa | 2.7V | 00:00:00 | 00:00:00 | 00:00:00 | |
| DO3MHA-11 | 2026-08-30 13:17:10 | 48.36835 | 12.91821 | 83° | 24km/h | 1961m | -3.0m/s | 11.7°C | 76.8% | 810.8hPa | 2.7V | 00:00:00 | 02:47:22 | 00:00:00 | |
| OE3JTB-15 | 2026-08-30 13:17:09 | 48.36834 | 12.91811 | 80° | 24km/h | 1964m | -3.3m/s | 11.6°C | 77.9% | 810.4hPa | 2.7V | 00:00:00 | 00:00:00 | 00:00:00 | |
| OE5DXL-15 | 2026-08-30 13:17:08 | 48.36833 | 12.91803 | 80° | 29km/h | 1967m | -3.1m/s | 11.6°C | 78.2% | 810.1hPa | 2.7V | 00:00:00 | 00:00:00 | 00:00:00 | |
| OE3JTB-15 | 2026-08-30 13:17:07 | 48.36832 | 12.91794 | 80° | 24km/h | 1971m | -3.5m/s | 11.5°C | 78.9% | 809.7hPa | 2.7V | 00:00:00 | 02:47:19 | 00:00:00 | |
| OE3JTB-15 | 2026-08-30 13:17:05 | 48.36830 | 12.91776 | 86° | 26km/h | 1978m | -3.3m/s | 11.6°C | 76.8% | 809.0hPa | 2.7V | 00:00:00 | 00:00:00 | 00:00:00 | |
| DO3MHA-11 | 2026-08-30 13:17:05 | 48.36830 | 12.91776 | 86° | 27km/h | 1978m | -3.3m/s | 11.6°C | 76.8% | 809.0hPa | 2.7V | 07:36:00 | 02:47:17 | 00:00:00 | |
| OE3JTB-15 | 2026-08-30 13:17:03 | 48.36827 | 12.91756 | 80° | 27km/h | 1985m | -3.8m/s | 11.6°C | 77.4% | 808.3hPa | 2.7V | 00:00:00 | 00:00:00 | 00:00:00 | |
| OE3JTB-15 | 2026-08-30 13:17:01 | 48.36824 | 12.91736 | 76° | 29km/h | 1993m | -3.8m/s | 12.3°C | 64.3% | 807.6hPa | 2.7V | 00:00:00 | 02:47:13 | 00:00:00 | |
| DO3MHA-11 | 2026-08-30 13:17:00 | 48.36822 | 12.91725 | 75° | 29km/h | 1997m | -3.8m/s | 12.2°C | 63.7% | 807.3hPa | 2.7V | 00:00:00 | 02:47:12 | 00:00:00 | |
| OE3JTB-15 | 2026-08-30 13:16:59 | 48.36821 | 12.91715 | 78° | 29km/h | 2000m | -3.7m/s | 12.2°C | 63.7% | 807.0hPa | 2.7V | 07:36:00 | 00:00:00 | 00:00:00 | |
| OE3JTB-15 | 2026-08-30 13:16:57 | 48.36817 | 12.91693 | 76° | 29km/h | 2008m | -3.7m/s | 12.2°C | 63.7% | 806.2hPa | 2.7V | 00:00:00 | 00:00:00 | 00:00:00 | |
| OE5DRO-10 | 2026-08-30 13:16:56 | 48.36815 | 12.91682 | 77° | 31km/h | 2011m | -3.4m/s | 12.3°C | 62.3% | 805.9hPa | 2.7V | 00:00:00 | 00:00:00 | 00:00:00 | |
| DO3MHA-11 | 2026-08-30 13:16:50 | 48.36801 | 12.91614 | 72° | 33km/h | 2033m | -3.6m/s | 12.5°C | 55.9% | 803.8hPa | 2.7V | 00:00:00 | 02:47:02 | 00:00:00 | |
| OE5DXL-15 | 2026-08-30 13:16:48 | 48.36796 | 12.91590 | 70° | 33km/h | 2040m | -3.6m/s | 12.5°C | 55.7% | 803.1hPa | 2.7V | 00:00:00 | 00:00:00 | 00:00:00 | |
| OE3JTB-15 | 2026-08-30 13:16:46 | 48.36791 | 12.91567 | 72° | 33km/h | 2047m | -3.5m/s | 12.4°C | 55.7% | 802.4hPa | 2.7V | 00:00:00 | 00:00:00 | 00:00:00 | |
| DO3MHA-11 | 2026-08-30 13:16:45 | 48.36788 | 12.91556 | 70° | 33km/h | 2051m | -3.7m/s | 12.4°C | 55.4% | 802.0hPa | 2.7V | 00:00:00 | 02:46:57 | 00:00:00 | |
| OE5DRO-10 | 2026-08-30 13:16:41 | 48.36777 | 12.91510 | 71° | 33km/h | 2065m | -3.4m/s | 12.7°C | 51.9% | 800.6hPa | 2.7V | 00:00:00 | 00:00:00 | 00:00:00 | |
| DO3MHA-11 | 2026-08-30 13:16:40 | 48.36774 | 12.91499 | 68° | 33km/h | 2069m | -3.6m/s | 12.6°C | 52.0% | 800.4hPa | 2.7V | 00:00:00 | 02:46:52 | 00:00:00 | |
| OE3JTB-15 | 2026-08-30 13:16:36 | 48.36761 | 12.91453 | 66° | 33km/h | 2084m | -3.7m/s | 12.6°C | 52.2% | 799.0hPa | 2.7V | 00:00:00 | 00:00:00 | 00:00:00 | |
| DO3MHA-11 | 2026-08-30 13:16:35 | 48.36758 | 12.91442 | 68° | 33km/h | 2087m | -3.6m/s | 12.5°C | 52.3% | 798.7hPa | 2.7V | 00:00:00 | 02:46:47 | 00:00:00 | |
| OE5DRO-10 | 2026-08-30 13:16:34 | 48.36755 | 12.91430 | 69° | 33km/h | 2091m | -3.3m/s | 12.5°C | 52.3% | 798.4hPa | 2.7V | 00:00:00 | 00:00:00 | 00:00:00 | |
| DO3MHA-11 | 2026-08-30 13:16:30 | 48.36742 | 12.91384 | 68° | 33km/h | 2105m | -3.7m/s | 12.4°C | 52.3% | 797.0hPa | 2.7V | 00:00:00 | 02:46:42 | 00:00:00 | |
| OE5DXL-15 | 2026-08-30 13:16:28 | 48.36736 | 12.91361 | 70° | 33km/h | 2112m | -3.5m/s | 12.4°C | 52.5% | 796.2hPa | 2.7V | 00:00:00 | 00:00:00 | 00:00:00 | |
| OE3JTB-15 | 2026-08-30 13:16:27 | 48.36733 | 12.91349 | 68° | 33km/h | 2116m | -3.6m/s | 12.3°C | 52.7% | 795.9hPa | 2.7V | 00:00:00 | 02:46:39 | 00:00:00 | |
| DO3MHA-11 | 2026-08-30 13:16:25 | 48.36727 | 12.91325 | 70° | 35km/h | 2123m | -3.4m/s | 12.2°C | 52.9% | 795.1hPa | 2.7V | 07:37:00 | 02:46:37 | 00:00:00 | |
| OE5DRO-10 | 2026-08-30 13:16:21 | 48.36711 | 12.91266 | 66° | 33km/h | 2141m | -3.6m/s | 12.1°C | 53.5% | 793.6hPa | 2.7V | 00:00:00 | 00:00:00 | 00:00:00 | |
| DO3MHA-11 | 2026-08-30 13:16:20 | 48.36711 | 12.91266 | 66° | 33km/h | 2141m | -3.6m/s | 12.1°C | 53.5% | 793.6hPa | 2.7V | 00:00:00 | 02:46:32 | 00:00:00 | |
| OE5MMP-10 | 2026-08-30 13:16:18 | 48.36704 | 12.91243 | 65° | 33km/h | 2148m | -3.6m/s | 12.0°C | 54.0% | 792.9hPa | 2.7V | 00:00:00 | 02:46:30 | 00:00:00 | |
| DO3MHA-11 | 2026-08-30 13:16:15 | 48.36694 | 12.91209 | 68° | 33km/h | 2159m | -3.6m/s | 11.9°C | 54.1% | 791.8hPa | 2.7V | 00:00:00 | 02:46:27 | 00:00:00 | |
| OE5DRO-10 | 2026-08-30 13:16:13 | 48.36688 | 12.91186 | 70° | 33km/h | 2166m | -3.7m/s | 11.9°C | 54.4% | 791.2hPa | 2.7V | 00:00:00 | 00:00:00 | 00:00:00 | |
| DO3MHA-11 | 2026-08-30 13:16:10 | 48.36679 | 12.91150 | 70° | 33km/h | 2177m | -3.5m/s | 11.8°C | 54.5% | 790.2hPa | 2.7V | 00:00:00 | 02:46:22 | 00:00:00 | |
| OE3JTB-15 | 2026-08-30 13:16:09 | 48.36675 | 12.91138 | 68° | 33km/h | 2180m | -3.5m/s | 11.7°C | 54.7% | 789.8hPa | 2.7V | 00:00:00 | 00:00:00 | 00:00:00 | |
| OE5MMP-10 | 2026-08-30 13:16:08 | 48.36672 | 12.91127 | 67° | 33km/h | 2184m | -3.5m/s | 11.7°C | 54.7% | 789.4hPa | 2.7V | 00:00:00 | 02:46:20 | 00:00:00 | |
| OE5DRO-10 | 2026-08-30 13:16:06 | 48.36666 | 12.91103 | 69° | 33km/h | 2191m | -3.7m/s | 11.7°C | 54.5% | 788.8hPa | 2.7V | 00:00:00 | 00:00:00 | 00:00:00 | |
| DO3MHA-11 | 2026-08-30 13:16:05 | 48.36662 | 12.91091 | 67° | 33km/h | 2195m | -3.7m/s | 11.6°C | 54.7% | 788.4hPa | 2.7V | 00:00:00 | 02:46:17 | 00:00:00 | |
| DO3MHA-11 | 2026-08-30 13:16:00 | 48.36646 | 12.91033 | 68° | 33km/h | 2213m | -3.8m/s | 11.5°C | 54.6% | 786.6hPa | 2.7V | 00:00:00 | 02:46:12 | 00:00:00 | |
| OE5DRO-10 | 2026-08-30 13:15:59 | 48.36643 | 12.91021 | 66° | 33km/h | 2217m | -3.6m/s | 11.5°C | 54.7% | 786.4hPa | 2.7V | 00:00:00 | 00:00:00 | 00:00:00 | |
| OE5MMP-10 | 2026-08-30 13:15:58 | 48.36640 | 12.91010 | 68° | 33km/h | 2220m | -3.6m/s | 11.5°C | 55.0% | 786.0hPa | 2.7V | 00:00:00 | 02:46:10 | 00:00:00 | |
| DO3MHA-11 | 2026-08-30 13:15:55 | 48.36630 | 12.90975 | 69° | 33km/h | 2231m | -3.5m/s | 11.4°C | 55.7% | 784.9hPa | 2.7V | 00:00:00 | 02:46:07 | 00:00:00 | |
| OE5DRO-10 | 2026-08-30 13:15:52 | 48.36621 | 12.90940 | 69° | 33km/h | 2243m | -3.6m/s | 11.3°C | 56.1% | 784.0hPa | 2.7V | 07:38:00 | 00:00:00 | 00:00:00 | |
| OE3JTB-15 | 2026-08-30 13:15:51 | 48.36618 | 12.90928 | 70° | 35km/h | 2246m | -3.6m/s | 11.3°C | 56.1% | 783.7hPa | 2.7V | 00:00:00 | 00:00:00 | 00:00:00 | |
| DO3MHA-11 | 2026-08-30 13:15:50 | 48.36615 | 12.90916 | 69° | 33km/h | 2250m | -3.9m/s | 11.2°C | 56.6% | 783.3hPa | 2.7V | 00:00:00 | 02:46:02 | 00:00:00 | |
| OE5DXL-15 | 2026-08-30 13:15:48 | 48.36609 | 12.90892 | 69° | 35km/h | 2258m | -3.7m/s | 11.1°C | 56.7% | 782.5hPa | 2.7V | 00:00:00 | 00:00:00 | 00:00:00 | |
| DO3MHA-11 | 2026-08-30 13:15:45 | 48.36599 | 12.90857 | 69° | 35km/h | 2269m | -3.7m/s | 11.0°C | 57.1% | 781.4hPa | 2.7V | 07:38:00 | 02:45:57 | 00:00:00 | |
| OE5MMP-10 | 2026-08-30 13:15:44 | 48.36596 | 12.90845 | 67° | 35km/h | 2273m | -3.7m/s | 11.0°C | 57.3% | 781.1hPa | 2.7V | 00:00:00 | 02:45:56 | 00:00:00 | |
| OE3JTB-15 | 2026-08-30 13:15:42 | 48.36590 | 12.90821 | 70° | 35km/h | 2281m | -3.7m/s | 10.9°C | 58.1% | 780.5hPa | 2.6V | 00:00:00 | 00:00:00 | 00:00:00 | |
| DO3MHA-11 | 2026-08-30 13:15:40 | 48.36583 | 12.90797 | 67° | 35km/h | 2288m | -3.7m/s | 10.9°C | 59.3% | 779.7hPa | 2.6V | 00:00:00 | 02:45:52 | 00:00:00 | |
| OE5DRO-10 | 2026-08-30 13:15:38 | 48.36576 | 12.90773 | 66° | 35km/h | 2295m | -3.8m/s | 10.8°C | 59.6% | 779.1hPa | 2.6V | 00:00:00 | 00:00:00 | 00:00:00 | |
| DO3MHA-11 | 2026-08-30 13:15:35 | 48.36566 | 12.90737 | 69° | 35km/h | 2307m | -3.8m/s | 10.7°C | 60.2% | 777.9hPa | 2.6V | 00:00:00 | 02:45:47 | 00:00:00 | |
| OE3JTB-15 | 2026-08-30 13:15:33 | 48.36559 | 12.90713 | 70° | 35km/h | 2315m | -3.9m/s | 10.6°C | 60.3% | 777.1hPa | 2.7V | 00:00:00 | 02:45:45 | 00:00:00 | |
| OE5DRO-10 | 2026-08-30 13:15:31 | 48.36553 | 12.90689 | 68° | 35km/h | 2323m | -3.9m/s | 10.5°C | 60.8% | 776.3hPa | 2.7V | 00:00:00 | 00:00:00 | 00:00:00 | |
| OE5MMP-10 | 2026-08-30 13:15:29 | 48.36546 | 12.90665 | 67° | 37km/h | 2331m | -4.0m/s | 10.4°C | 61.8% | 775.6hPa | 2.7V | 07:38:00 | 02:45:41 | 00:00:00 | |
| OE5DXL-15 | 2026-08-30 13:15:28 | 48.36542 | 12.90653 | 65° | 37km/h | 2335m | -3.9m/s | 10.4°C | 62.1% | 775.3hPa | 2.7V | 00:00:00 | 02:45:40 | 00:00:00 | |
| DO3MHA-11 | 2026-08-30 13:15:25 | 48.36531 | 12.90616 | 68° | 37km/h | 2347m | -3.9m/s | 10.3°C | 62.8% | 774.2hPa | 2.7V | 00:00:00 | 02:45:37 | 00:00:00 | |
| OE3JTB-15 | 2026-08-30 13:15:24 | 48.36527 | 12.90603 | 67° | 37km/h | 2351m | -4.4m/s | 10.2°C | 63.0% | 773.8hPa | 2.7V | 00:00:00 | 00:00:00 | 00:00:00 | |
| DO3MHA-11 | 2026-08-30 13:15:20 | 48.36513 | 12.90552 | 69° | 37km/h | 2367m | -3.9m/s | 10.1°C | 63.6% | 772.3hPa | 2.7V | 00:00:00 | 02:45:32 | 00:00:00 | |
| OE5DRO-10 | 2026-08-30 13:15:18 | 48.36502 | 12.90513 | 67° | 37km/h | 2380m | -4.1m/s | 10.0°C | 63.7% | 771.2hPa | 2.7V | 00:00:00 | 00:00:00 | 00:00:00 | |
| OE5MMP-10 | 2026-08-30 13:15:16 | 48.36498 | 12.90500 | 67° | 38km/h | 2384m | -4.2m/s | 10.0°C | 63.0% | 770.7hPa | 2.7V | 00:00:00 | 02:45:28 | 00:00:00 | |
| DO3MHA-11 | 2026-08-30 13:15:15 | 48.36494 | 12.90487 | 66° | 37km/h | 2388m | -4.0m/s | 10.1°C | 62.8% | 770.3hPa | 2.7V | 00:00:00 | 02:45:27 | 00:00:00 | |
| DO3MHA-11 | 2026-08-30 13:15:10 | 48.36475 | 12.90421 | 68° | 38km/h | 2409m | -3.8m/s | 10.0°C | 60.6% | 768.4hPa | 2.7V | 00:00:00 | 02:45:22 | 00:00:00 | |
| OE5DXL-15 | 2026-08-30 13:15:08 | 48.36468 | 12.90395 | 68° | 38km/h | 2417m | -4.1m/s | 10.0°C | 58.9% | 767.7hPa | 2.7V | 07:38:00 | 00:00:00 | 00:00:00 | |
| OE5MMP-10 | 2026-08-30 13:15:06 | 48.36461 | 12.90369 | 66° | 38km/h | 2425m | -3.9m/s | 9.9°C | 59.7% | 766.9hPa | 2.7V | 00:00:00 | 02:45:18 | 00:00:00 | |
| DO3MHA-11 | 2026-08-30 13:15:05 | 48.36457 | 12.90356 | 68° | 38km/h | 2429m | -4.2m/s | 9.9°C | 59.8% | 766.6hPa | 2.6V | 00:00:00 | 02:45:17 | 00:00:00 | |
| DO3MHA-11 | 2026-08-30 13:15:00 | 48.36438 | 12.90289 | 68° | 38km/h | 2450m | -4.4m/s | 9.7°C | 60.0% | 764.6hPa | 2.6V | 07:38:00 | 02:45:12 | 00:00:00 | |
| OE3JTB-15 | 2026-08-30 13:14:57 | 48.36428 | 12.90248 | 70° | 38km/h | 2463m | -4.2m/s | 9.6°C | 60.1% | 763.4hPa | 2.7V | 00:00:00 | 00:00:00 | 00:00:00 | |
| OE5DRO-10 | 2026-08-30 13:14:56 | 48.36425 | 12.90235 | 72° | 38km/h | 2467m | -4.0m/s | 9.6°C | 60.0% | 762.9hPa | 2.7V | 07:39:00 | 00:00:00 | 00:00:00 | |
| DO3MHA-11 | 2026-08-30 13:14:55 | 48.36422 | 12.90221 | 72° | 38km/h | 2472m | -4.2m/s | 9.5°C | 60.4% | 762.6hPa | 2.7V | 00:00:00 | 02:45:07 | 00:00:00 | |
| DO3MHA-11 | 2026-08-30 13:14:50 | 48.36405 | 12.90154 | 70° | 37km/h | 2493m | -4.1m/s | 9.4°C | 60.2% | 760.7hPa | 2.7V | 00:00:00 | 02:45:02 | 00:00:00 | |
| OE5DRO-10 | 2026-08-30 13:14:49 | 48.36402 | 12.90141 | 71° | 38km/h | 2497m | -4.3m/s | 9.3°C | 60.7% | 760.4hPa | 2.7V | 00:00:00 | 00:00:00 | 00:00:00 | |
| OE5DXL-15 | 2026-08-30 13:14:48 | 48.36399 | 12.90128 | 69° | 38km/h | 2501m | -4.2m/s | 9.3°C | 60.0% | 759.9hPa | 2.7V | 00:00:00 | 00:00:00 | 00:00:00 | |
| DO3MHA-11 | 2026-08-30 13:14:45 | 48.36389 | 12.90088 | 69° | 38km/h | 2514m | -4.3m/s | 9.1°C | 60.1% | 758.7hPa | 2.7V | 00:00:00 | 02:44:57 | 00:00:00 | |
| OE5MMP-10 | 2026-08-30 13:14:43 | 48.36382 | 12.90060 | 71° | 38km/h | 2523m | -4.2m/s | 9.1°C | 60.3% | 758.0hPa | 2.6V | 00:00:00 | 02:44:55 | 00:00:00 | |
| DO3MHA-11 | 2026-08-30 13:14:40 | 48.36372 | 12.90019 | 71° | 38km/h | 2536m | -4.3m/s | 9.0°C | 60.7% | 756.8hPa | 2.6V | 00:00:00 | 02:44:52 | 00:00:00 | |
| OE5DRO-10 | 2026-08-30 13:14:37 | 48.36362 | 12.89978 | 71° | 38km/h | 2549m | -4.3m/s | 8.9°C | 60.3% | 755.6hPa | 2.6V | 00:00:00 | 00:00:00 | 00:00:00 | |
| DO3MHA-11 | 2026-08-30 13:14:35 | 48.36355 | 12.89950 | 70° | 38km/h | 2558m | -4.4m/s | 8.8°C | 60.4% | 754.7hPa | 2.7V | 00:00:00 | 02:44:47 | 00:00:00 | |
| OE5MMP-10 | 2026-08-30 13:14:32 | 48.36345 | 12.89909 | 71° | 38km/h | 2571m | -4.2m/s | 8.6°C | 61.6% | 753.7hPa | 2.7V | 00:00:00 | 02:44:44 | 00:00:00 | |
| OE3JTB-15 | 2026-08-30 13:14:31 | 48.36342 | 12.89895 | 73° | 38km/h | 2575m | -4.2m/s | 8.6°C | 61.6% | 753.3hPa | 2.7V | 00:00:00 | 02:44:43 | 00:00:00 | |
| DO3MHA-11 | 2026-08-30 13:14:30 | 48.36339 | 12.89881 | 71° | 38km/h | 2580m | -4.5m/s | 8.5°C | 62.5% | 752.8hPa | 2.7V | 00:00:00 | 02:44:42 | 00:00:00 | |
| DO3MHA-11 | 2026-08-30 13:14:25 | 48.36322 | 12.89812 | 70° | 40km/h | 2601m | -4.6m/s | 8.3°C | 63.3% | 750.8hPa | 2.6V | 00:00:00 | 02:44:37 | 00:00:00 | |
| OE5DXL-15 | 2026-08-30 13:14:22 | 48.36312 | 12.89771 | 71° | 40km/h | 2615m | -4.5m/s | 8.2°C | 63.9% | 749.5hPa | 2.6V | 00:00:00 | 00:00:00 | 00:00:00 | |
| OE5DRO-10 | 2026-08-30 13:14:21 | 48.36308 | 12.89756 | 70° | 40km/h | 2620m | -4.5m/s | 8.1°C | 64.1% | 749.1hPa | 2.6V | 00:00:00 | 00:00:00 | 00:00:00 | |
| DO3MHA-11 | 2026-08-30 13:14:20 | 48.36305 | 12.89742 | 70° | 40km/h | 2624m | -4.4m/s | 8.1°C | 64.0% | 748.6hPa | 2.6V | 07:39:00 | 02:44:32 | 00:00:00 | |
| DO3MHA-11 | 2026-08-30 13:14:15 | 48.36288 | 12.89671 | 71° | 40km/h | 2648m | -4.6m/s | 7.9°C | 64.8% | 746.6hPa | 2.6V | 00:00:00 | 02:44:27 | 00:00:00 | |
| OE3JTB-15 | 2026-08-30 13:14:12 | 48.36277 | 12.89630 | 71° | 40km/h | 2663m | -4.7m/s | 7.7°C | 65.3% | 745.2hPa | 2.7V | 00:00:00 | 00:00:00 | 00:00:00 | |
| OE5MMP-10 | 2026-08-30 13:14:10 | 48.36270 | 12.89601 | 71° | 40km/h | 2672m | -4.7m/s | 7.6°C | 65.5% | 744.4hPa | 2.6V | 00:00:00 | 02:44:22 | 00:00:00 | |
| OE5FHM-15 | 2026-08-30 13:14:08 | 48.36264 | 12.89573 | 70° | 38km/h | 2682m | -4.9m/s | 7.6°C | 65.8% | 743.6hPa | 2.6V | 00:00:00 | 02:44:20 | 00:00:00 | |
| DO3MHA-11 | 2026-08-30 13:14:05 | 48.36253 | 12.89530 | 69° | 40km/h | 2696m | -4.7m/s | 7.4°C | 66.5% | 742.3hPa | 2.6V | 00:00:00 | 02:44:17 | 00:00:00 | |
| PG1ADW-2 | 2026-08-30 13:14:02 | 48.36243 | 12.89488 | 69° | 38km/h | 2710m | -4.8m/s | 7.2°C | 67.2% | 741.0hPa | 2.6V | 00:00:00 | 00:00:00 | 00:00:00 | |
| DO3MHA-11 | 2026-08-30 13:14:00 | 48.36236 | 12.89459 | 70° | 40km/h | 2720m | -4.8m/s | 7.2°C | 67.0% | 740.0hPa | 2.6V | 00:00:00 | 02:44:12 | 00:00:00 | |
| OE3JTB-15 | 2026-08-30 13:13:53 | 48.36213 | 12.89360 | 71° | 38km/h | 2754m | -4.8m/s | 6.9°C | 67.7% | 737.1hPa | 2.7V | 00:00:00 | 00:00:00 | 00:00:00 | |
| OE5DXL-15 | 2026-08-30 13:13:52 | 48.36210 | 12.89346 | 72° | 40km/h | 2759m | -4.8m/s | 6.8°C | 68.2% | 736.5hPa | 2.7V | 00:00:00 | 00:00:00 | 00:00:00 | |
| OE5WHR-10 | 2026-08-30 13:13:51 | 48.36207 | 12.89332 | 71° | 38km/h | 2764m | -4.7m/s | 6.8°C | 68.4% | 736.2hPa | 2.6V | 00:00:00 | 02:44:03 | 00:00:00 | |
| DO3MHA-11 | 2026-08-30 13:13:50 | 48.36203 | 12.89318 | 71° | 38km/h | 2768m | -4.6m/s | 6.7°C | 68.6% | 735.8hPa | 2.6V | 00:00:00 | 02:44:02 | 00:00:00 | |
| OE5DRO-10 | 2026-08-30 13:13:49 | 48.36200 | 12.89304 | 73° | 38km/h | 2773m | -4.8m/s | 6.7°C | 68.9% | 735.3hPa | 2.6V | 00:00:00 | 00:00:00 | 00:00:00 | |
| OE5MMP-10 | 2026-08-30 13:13:48 | 48.36197 | 12.89290 | 72° | 38km/h | 2778m | -4.9m/s | 6.6°C | 69.2% | 734.9hPa | 2.7V | 00:00:00 | 02:44:00 | 00:00:00 | |
| DO3MHA-11 | 2026-08-30 13:13:45 | 48.36189 | 12.89247 | 75° | 38km/h | 2793m | -4.8m/s | 6.5°C | 69.9% | 733.6hPa | 2.7V | 00:00:00 | 02:43:57 | 00:00:00 | |
| DO3MHA-11 | 2026-08-30 13:13:40 | 48.36176 | 12.89176 | 75° | 38km/h | 2818m | -4.9m/s | 6.3°C | 67.6% | 731.3hPa | 2.7V | 07:40:00 | 02:43:52 | 00:00:00 | |
| OE5MMP-10 | 2026-08-30 13:13:38 | 48.36171 | 12.89147 | 73° | 42km/h | 2827m | -4.9m/s | 6.2°C | 67.9% | 730.4hPa | 2.7V | 00:00:00 | 02:43:50 | 00:00:00 | |
| DO3MHA-11 | 2026-08-30 13:13:35 | 48.36163 | 12.89104 | 75° | 40km/h | 2843m | -5.2m/s | 6.1°C | 68.1% | 729.1hPa | 2.7V | 00:00:00 | 02:43:47 | 00:00:00 | |
| OE5WHR-10 | 2026-08-30 13:13:34 | 48.36160 | 12.89089 | 77° | 42km/h | 2848m | -5.0m/s | 6.0°C | 67.6% | 728.8hPa | 2.7V | 00:00:00 | 00:00:00 | 00:00:00 | |
| OE5DRO-10 | 2026-08-30 13:13:33 | 48.36158 | 12.89074 | 78° | 42km/h | 2853m | -4.9m/s | 6.0°C | 67.6% | 728.3hPa | 2.6V | 00:00:00 | 00:00:00 | 00:00:00 | |
| DO3MHA-11 | 2026-08-30 13:13:30 | 48.36151 | 12.89028 | 78° | 42km/h | 2868m | -4.8m/s | 5.9°C | 67.5% | 726.9hPa | 2.6V | 00:00:00 | 02:43:42 | 00:00:00 | |
| DO3MHA-11 | 2026-08-30 13:13:25 | 48.36139 | 12.88950 | 78° | 42km/h | 2893m | -5.2m/s | 5.7°C | 67.8% | 724.7hPa | 2.7V | 00:00:00 | 02:43:37 | 00:00:00 | |
| OE5MMP-10 | 2026-08-30 13:13:24 | 48.36137 | 12.88935 | 79° | 42km/h | 2898m | -5.1m/s | 5.6°C | 67.8% | 724.3hPa | 2.7V | 00:00:00 | 02:43:36 | 00:00:00 | |
| OE5DXL-15 | 2026-08-30 13:13:22 | 48.36133 | 12.88903 | 80° | 44km/h | 2909m | -5.1m/s | 5.6°C | 67.4% | 723.2hPa | 2.7V | 00:00:00 | 00:00:00 | 00:00:00 | |
| OE5WHR-10 | 2026-08-30 13:13:17 | 48.36123 | 12.88823 | 78° | 44km/h | 2935m | -5.2m/s | 5.4°C | 68.3% | 720.9hPa | 2.7V | 00:00:00 | 00:00:00 | 00:00:00 | |
| DO3MHA-11 | 2026-08-30 13:13:15 | 48.36118 | 12.88792 | 80° | 42km/h | 2945m | -5.1m/s | 5.3°C | 69.5% | 720.1hPa | 2.7V | 00:00:00 | 02:43:27 | 00:00:00 | |
| OE5MMP-10 | 2026-08-30 13:13:11 | 48.36111 | 12.88729 | 81° | 44km/h | 2966m | -5.3m/s | 5.2°C | 70.2% | 718.3hPa | 2.6V | 00:00:00 | 02:43:23 | 00:00:00 | |
| DO3MHA-11 | 2026-08-30 13:13:10 | 48.36109 | 12.88713 | 81° | 44km/h | 2971m | -5.1m/s | 5.1°C | 70.5% | 717.8hPa | 2.6V | 00:00:00 | 02:43:22 | 00:00:00 | |
| DO3MHA-11 | 2026-08-30 13:13:05 | 48.36098 | 12.88630 | 78° | 44km/h | 2997m | -5.2m/s | 4.8°C | 71.6% | 715.5hPa | 2.6V | 00:00:00 | 02:43:17 | 00:00:00 | |
| PG1ADW-2 | 2026-08-30 13:13:02 | 48.36091 | 12.88581 | 77° | 46km/h | 3013m | -5.1m/s | 4.7°C | 71.9% | 714.2hPa | 2.6V | 07:40:00 | 00:00:00 | 00:00:00 | |
| OE5MMP-10 | 2026-08-30 13:13:01 | 48.36088 | 12.88564 | 78° | 44km/h | 3018m | -5.1m/s | 4.7°C | 71.5% | 713.7hPa | 2.6V | 00:00:00 | 02:43:13 | 00:00:00 | |
| DO3MHA-11 | 2026-08-30 13:13:00 | 48.36086 | 12.88548 | 78° | 44km/h | 3023m | -5.1m/s | 4.7°C | 71.1% | 713.1hPa | 2.6V | 07:40:00 | 02:43:12 | 00:00:00 | |
| OE5WHR-10 | 2026-08-30 13:12:59 | 48.36084 | 12.88531 | 77° | 46km/h | 3028m | -5.1m/s | 4.7°C | 70.9% | 712.8hPa | 2.7V | 00:00:00 | 02:43:11 | 00:00:00 | |
| OE3JTB-15 | 2026-08-30 13:12:56 | 48.36075 | 12.88482 | 75° | 46km/h | 3044m | -5.1m/s | 4.5°C | 71.0% | 711.4hPa | 2.7V | 00:00:00 | 00:00:00 | 00:00:00 | |
| DO3MHA-11 | 2026-08-30 13:12:55 | 48.36072 | 12.88466 | 75° | 44km/h | 3049m | -5.2m/s | 4.5°C | 71.1% | 711.0hPa | 2.7V | 00:00:00 | 02:43:07 | 00:00:00 | |
| OE5DXL-15 | 2026-08-30 13:12:52 | 48.36063 | 12.88417 | 75° | 47km/h | 3064m | -5.2m/s | 4.4°C | 71.8% | 709.6hPa | 2.7V | 00:00:00 | 00:00:00 | 00:00:00 | |
| OE5MMP-10 | 2026-08-30 13:12:51 | 48.36060 | 12.88401 | 75° | 46km/h | 3069m | -5.1m/s | 4.3°C | 72.0% | 709.2hPa | 2.7V | 00:00:00 | 02:43:03 | 00:00:00 | |
| DO3MHA-11 | 2026-08-30 13:12:50 | 48.36057 | 12.88385 | 75° | 46km/h | 3075m | -5.1m/s | 4.3°C | 71.8% | 708.6hPa | 2.7V | 00:00:00 | 02:43:02 | 00:00:00 | |
| DO3MHA-11 | 2026-08-30 13:12:45 | 48.36043 | 12.88301 | 76° | 47km/h | 3100m | -5.2m/s | 4.1°C | 72.4% | 706.5hPa | 2.7V | 00:00:00 | 02:42:57 | 00:00:00 | |
| OE5WHR-10 | 2026-08-30 13:12:42 | 48.36033 | 12.88249 | 75° | 49km/h | 3116m | -5.3m/s | 4.0°C | 73.9% | 705.1hPa | 2.7V | 00:00:00 | 00:00:00 | 00:00:00 | |
| OE5MMP-10 | 2026-08-30 13:12:41 | 48.36030 | 12.88231 | 74° | 49km/h | 3121m | -5.2m/s | 3.9°C | 74.2% | 704.6hPa | 2.7V | 00:00:00 | 02:42:53 | 00:00:00 | |
| DO3MHA-11 | 2026-08-30 13:12:40 | 48.36026 | 12.88213 | 74° | 47km/h | 3127m | -5.2m/s | 3.9°C | 74.5% | 704.3hPa | 2.7V | 00:00:00 | 02:42:52 | 00:00:00 | |
| OE3JTB-15 | 2026-08-30 13:12:37 | 48.36016 | 12.88161 | 74° | 49km/h | 3142m | -5.0m/s | 3.8°C | 75.2% | 702.8hPa | 2.7V | 00:00:00 | 02:42:49 | 00:00:00 | |
| DO3MHA-11 | 2026-08-30 13:12:35 | 48.36009 | 12.88125 | 74° | 49km/h | 3152m | -5.0m/s | 3.8°C | 75.2% | 701.9hPa | 2.7V | 00:00:00 | 02:42:47 | 00:00:00 | |
| OE5MMP-10 | 2026-08-30 13:12:31 | 48.35995 | 12.88053 | 74° | 49km/h | 3172m | -5.1m/s | 3.7°C | 73.5% | 700.2hPa | 2.7V | 07:41:00 | 02:42:43 | 00:00:00 | |
| DO3MHA-11 | 2026-08-30 13:12:30 | 48.35992 | 12.88035 | 75° | 49km/h | 3178m | -5.1m/s | 3.6°C | 73.3% | 699.8hPa | 2.7V | 00:00:00 | 02:42:42 | 00:00:00 | |
| OE5DRO-10 | 2026-08-30 13:12:29 | 48.35988 | 12.88017 | 73° | 49km/h | 3182m | -5.0m/s | 3.6°C | 73.1% | 699.3hPa | 2.7V | 00:00:00 | 00:00:00 | 00:00:00 | |
| DO3MHA-11 | 2026-08-30 13:12:25 | 48.35973 | 12.87944 | 72° | 49km/h | 3203m | -5.2m/s | 3.4°C | 72.8% | 697.6hPa | 2.7V | 00:00:00 | 02:42:37 | 00:00:00 | |
| OE5DXL-15 | 2026-08-30 13:12:22 | 48.35961 | 12.87890 | 72° | 51km/h | 3218m | -5.1m/s | 3.4°C | 71.8% | 696.1hPa | 2.7V | 00:00:00 | 00:00:00 | 00:00:00 | |
| OE5MMP-10 | 2026-08-30 13:12:21 | 48.35957 | 12.87872 | 73° | 49km/h | 3223m | -4.9m/s | 3.3°C | 72.2% | 695.8hPa | 2.7V | 00:00:00 | 02:42:33 | 00:00:00 | |
| DO3MHA-11 | 2026-08-30 13:12:20 | 48.35953 | 12.87853 | 72° | 49km/h | 3228m | -5.2m/s | 3.3°C | 72.6% | 695.4hPa | 2.6V | 07:41:00 | 02:42:32 | 00:00:00 | |
| OE3JTB-15 | 2026-08-30 13:12:18 | 48.35945 | 12.87818 | 73° | 51km/h | 3239m | -5.1m/s | 3.2°C | 73.4% | 694.6hPa | 2.6V | 07:41:00 | 00:00:00 | 00:00:00 | |
| DO3MHA-11 | 2026-08-30 13:12:15 | 48.35934 | 12.87764 | 72° | 51km/h | 3254m | -5.0m/s | 3.0°C | 75.7% | 693.2hPa | 2.7V | 00:00:00 | 02:42:27 | 00:00:00 | |
| OE5DRO-10 | 2026-08-30 13:12:13 | 48.35926 | 12.87728 | 72° | 51km/h | 3264m | -5.0m/s | 2.9°C | 76.0% | 692.4hPa | 2.7V | 00:00:00 | 00:00:00 | 00:00:00 | |
| OE5FHM-15 | 2026-08-30 13:12:10 | 48.35914 | 12.87673 | 72° | 53km/h | 3279m | -5.0m/s | 2.8°C | 76.6% | 691.0hPa | 2.7V | 00:00:00 | 02:42:22 | 00:00:00 | |
| OE5WHR-10 | 2026-08-30 13:12:08 | 48.35906 | 12.87637 | 73° | 51km/h | 3289m | -4.8m/s | 2.7°C | 76.8% | 690.1hPa | 2.6V | 00:00:00 | 02:42:20 | 00:00:00 | |
| DO3MHA-11 | 2026-08-30 13:12:05 | 48.35894 | 12.87582 | 73° | 51km/h | 3303m | -4.9m/s | 2.5°C | 79.0% | 689.0hPa | 2.6V | 00:00:00 | 02:42:17 | 00:00:00 | |
| PG1ADW-2 | 2026-08-30 13:12:02 | 48.35883 | 12.87527 | 73° | 53km/h | 3319m | -5.0m/s | 2.4°C | 79.8% | 687.6hPa | 2.6V | 00:00:00 | 00:00:00 | 00:00:00 | |
| DO3MHA-11 | 2026-08-30 13:12:00 | 48.35875 | 12.87490 | 75° | 53km/h | 3329m | -5.0m/s | 2.3°C | 81.7% | 686.8hPa | 2.6V | 00:00:00 | 02:42:12 | 00:00:00 | |
| OE3JTB-15 | 2026-08-30 13:11:59 | 48.35872 | 12.87471 | 75° | 55km/h | 3334m | -4.8m/s | 2.3°C | 82.8% | 686.4hPa | 2.6V | 00:00:00 | 00:00:00 | 00:00:00 | |
| OE5DRO-10 | 2026-08-30 13:11:57 | 48.35865 | 12.87432 | 76° | 55km/h | 3344m | -5.1m/s | 2.2°C | 81.9% | 685.4hPa | 2.6V | 00:00:00 | 00:00:00 | 00:00:00 | |
| DO3MHA-11 | 2026-08-30 13:11:55 | 48.35858 | 12.87393 | 75° | 53km/h | 3354m | -5.2m/s | 2.1°C | 81.5% | 684.7hPa | 2.6V | 00:00:00 | 02:42:07 | 00:00:00 | |
| OE5DXL-15 | 2026-08-30 13:11:52 | 48.35847 | 12.87334 | 76° | 57km/h | 3369m | -4.8m/s | 2.0°C | 80.9% | 683.4hPa | 2.6V | 00:00:00 | 00:00:00 | 00:00:00 | |
| OE5WHR-10 | 2026-08-30 13:11:51 | 48.35844 | 12.87314 | 77° | 55km/h | 3374m | -4.8m/s | 2.0°C | 81.1% | 683.0hPa | 2.6V | 00:00:00 | 00:00:00 | 00:00:00 | |
| DO3MHA-11 | 2026-08-30 13:11:50 | 48.35841 | 12.87295 | 77° | 53km/h | 3379m | -5.2m/s | 1.9°C | 81.1% | 682.5hPa | 2.7V | 00:00:00 | 02:42:02 | 00:00:00 | |
| OE5MMP-10 | 2026-08-30 13:11:49 | 48.35838 | 12.87275 | 77° | 55km/h | 3384m | -5.0m/s | 1.9°C | 80.9% | 682.0hPa | 2.7V | 00:00:00 | 02:42:01 | 00:00:00 | |
| DO3MHA-11 | 2026-08-30 13:11:45 | 48.35825 | 12.87195 | 77° | 57km/h | 3404m | -4.8m/s | 1.8°C | 81.5% | 680.5hPa | 2.6V | 00:00:00 | 02:41:57 | 00:00:00 | |
| PG1ADW-2 | 2026-08-30 13:11:42 | 48.35816 | 12.87134 | 79° | 57km/h | 3418m | -4.8m/s | 1.6°C | 82.6% | 679.1hPa | 2.7V | 00:00:00 | 00:00:00 | 00:00:00 | |
| OE5DRO-10 | 2026-08-30 13:11:41 | 48.35813 | 12.87112 | 79° | 57km/h | 3423m | -4.7m/s | 1.6°C | 82.8% | 678.7hPa | 2.7V | 00:00:00 | 00:00:00 | 00:00:00 | |
| DO3MHA-11 | 2026-08-30 13:11:40 | 48.35810 | 12.87091 | 79° | 57km/h | 3428m | -4.9m/s | 1.5°C | 83.1% | 678.4hPa | 2.7V | 07:42:00 | 02:41:52 | 00:00:00 | |
| DO3MHA-11 | 2026-08-30 13:11:35 | 48.35796 | 12.86986 | 79° | 57km/h | 3453m | -4.9m/s | 1.4°C | 84.1% | 676.3hPa | 2.7V | 00:00:00 | 02:41:47 | 00:00:00 | |
| OE5MMP-10 | 2026-08-30 13:11:33 | 48.35790 | 12.86944 | 80° | 57km/h | 3463m | -5.0m/s | 1.3°C | 83.9% | 675.4hPa | 2.7V | 00:00:00 | 02:41:45 | 00:00:00 | |
| DG1MFX-10 | 2026-08-30 13:11:32 | 48.35790 | 12.86944 | 80° | 57km/h | 3463m | -5.0m/s | 1.3°C | 83.5% | 675.5hPa | 2.7V | 07:42:00 | 00:00:00 | 00:00:00 | |
| DO3MHA-11 | 2026-08-30 13:11:30 | 48.35782 | 12.86881 | 79° | 57km/h | 3477m | -4.8m/s | 1.2°C | 83.5% | 674.3hPa | 2.7V | 00:00:00 | 02:41:42 | 00:00:00 | |
| DO3MHA-11 | 2026-08-30 13:11:25 | 48.35768 | 12.86775 | 79° | 57km/h | 3502m | -4.9m/s | 1.0°C | 81.9% | 672.3hPa | 2.7V | 00:00:00 | 02:41:37 | 00:00:00 | |
| OE5MMP-10 | 2026-08-30 13:11:22 | 48.35760 | 12.86712 | 81° | 55km/h | 3516m | -4.7m/s | 0.9°C | 81.8% | 671.0hPa | 2.7V | 00:00:00 | 02:41:34 | 00:00:00 | |
| OE3JTB-15 | 2026-08-30 13:11:21 | 48.35757 | 12.86691 | 80° | 53km/h | 3521m | -4.7m/s | 0.9°C | 81.4% | 670.6hPa | 2.7V | 00:00:00 | 00:00:00 | 00:00:00 | |
| DO3MHA-11 | 2026-08-30 13:11:20 | 48.35755 | 12.86670 | 79° | 57km/h | 3526m | -4.8m/s | 0.8°C | 81.6% | 670.2hPa | 2.6V | 00:00:00 | 02:41:32 | 00:00:00 | |
| OE5WHR-10 | 2026-08-30 13:11:16 | 48.35743 | 12.86586 | 80° | 53km/h | 3545m | -4.5m/s | 0.7°C | 78.6% | 668.7hPa | 2.6V | 00:00:00 | 02:41:28 | 00:00:00 | |
| DO3MHA-11 | 2026-08-30 13:11:15 | 48.35740 | 12.86565 | 80° | 55km/h | 3549m | -4.7m/s | 0.6°C | 78.2% | 668.2hPa | 2.6V | 00:00:00 | 02:41:27 | 00:00:00 | |
| DO3MHA-11 | 2026-08-30 13:11:10 | 48.35729 | 12.86462 | 81° | 53km/h | 3573m | -4.5m/s | 0.4°C | 77.8% | 666.3hPa | 2.7V | 00:00:00 | 02:41:22 | 00:00:00 | |
| OE5DRO-10 | 2026-08-30 13:11:09 | 48.35726 | 12.86442 | 80° | 51km/h | 3577m | -4.8m/s | 0.4°C | 77.9% | 665.8hPa | 2.7V | 00:00:00 | 00:00:00 | 00:00:00 | |
| DG1MFX-10 | 2026-08-30 13:11:08 | 48.35726 | 12.86442 | 80° | 53km/h | 3577m | -4.8m/s | 0.4°C | 77.4% | 665.9hPa | 2.7V | 00:00:00 | 00:00:00 | 00:00:00 | |
| DO3MHA-11 | 2026-08-30 13:11:05 | 48.35716 | 12.86363 | 79° | 51km/h | 3596m | -4.7m/s | 0.3°C | 78.2% | 664.3hPa | 2.7V | 00:00:00 | 02:41:17 | 00:00:00 | |
| OE5MMP-10 | 2026-08-30 13:11:04 | 48.35714 | 12.86344 | 80° | 47km/h | 3601m | -4.7m/s | 0.2°C | 77.1% | 664.0hPa | 2.7V | 00:00:00 | 02:41:16 | 00:00:00 | |
| PG1ADW-2 | 2026-08-30 13:11:02 | 48.35708 | 12.86305 | 79° | 47km/h | 3610m | -4.4m/s | 0.2°C | 75.6% | 663.1hPa | 2.7V | 00:00:00 | 02:41:14 | 00:00:00 | |
| DO3MHA-11 | 2026-08-30 13:11:00 | 48.35703 | 12.86267 | 79° | 49km/h | 3619m | -4.5m/s | 0.3°C | 70.3% | 662.4hPa | 2.7V | 07:42:00 | 02:41:12 | 00:00:00 | |
| OE5WHR-10 | 2026-08-30 13:10:59 | 48.35701 | 12.86248 | 79° | 46km/h | 3624m | -4.5m/s | 0.3°C | 66.0% | 662.1hPa | 2.7V | 00:00:00 | 00:00:00 | 00:00:00 | |
| DO3MHA-11 | 2026-08-30 13:10:55 | 48.35691 | 12.86175 | 79° | 47km/h | 3642m | -4.6m/s | 0.4°C | 58.3% | 660.6hPa | 2.7V | 00:00:00 | 02:41:07 | 00:00:00 | |
| OE5DRO-10 | 2026-08-30 13:10:53 | 48.35686 | 12.86140 | 78° | 44km/h | 3651m | -4.5m/s | 0.3°C | 56.7% | 659.9hPa | 2.7V | 07:43:00 | 00:00:00 | 00:00:00 | |
| OE5DXL-15 | 2026-08-30 13:10:52 | 48.35684 | 12.86123 | 78° | 44km/h | 3655m | -4.4m/s | 0.4°C | 56.0% | 659.4hPa | 2.7V | 00:00:00 | 00:00:00 | 00:00:00 | |
| DO3MHA-11 | 2026-08-30 13:10:50 | 48.35678 | 12.86089 | 76° | 46km/h | 3664m | -4.6m/s | 0.3°C | 54.0% | 658.6hPa | 2.6V | 00:00:00 | 02:41:02 | 00:00:00 | |
| OE5MMP-10 | 2026-08-30 13:10:49 | 48.35675 | 12.86072 | 77° | 44km/h | 3669m | -4.7m/s | 0.3°C | 53.5% | 658.4hPa | 2.6V | 07:43:00 | 02:41:01 | 00:00:00 | |
| DO3MHA-11 | 2026-08-30 13:10:45 | 48.35664 | 12.86006 | 75° | 44km/h | 3687m | -4.6m/s | 0.4°C | 49.5% | 656.8hPa | 2.6V | 00:00:00 | 02:40:57 | 00:00:00 | |
| OE5WHR-10 | 2026-08-30 13:10:42 | 48.35655 | 12.85958 | 75° | 44km/h | 3701m | -4.5m/s | 0.4°C | 47.9% | 655.7hPa | 2.6V | 00:00:00 | 00:00:00 | 00:00:00 | |
| DO3MHA-11 | 2026-08-30 13:10:40 | 48.35649 | 12.85926 | 75° | 44km/h | 3710m | -4.6m/s | 0.4°C | 47.7% | 655.0hPa | 2.6V | 00:00:00 | 02:40:52 | 00:00:00 | |
| OE5MMP-10 | 2026-08-30 13:10:39 | 48.35646 | 12.85910 | 73° | 44km/h | 3715m | -4.5m/s | 0.5°C | 43.5% | 654.6hPa | 2.6V | 00:00:00 | 02:40:51 | 00:00:00 | |
| OE5DRO-10 | 2026-08-30 13:10:37 | 48.35639 | 12.85879 | 72° | 44km/h | 3724m | -4.6m/s | 0.5°C | 39.8% | 653.8hPa | 2.6V | 00:00:00 | 00:00:00 | 00:00:00 | |
| DO3MHA-11 | 2026-08-30 13:10:35 | 48.35631 | 12.85847 | 70° | 44km/h | 3733m | -4.5m/s | 0.5°C | 37.2% | 653.0hPa | 2.6V | 00:00:00 | 02:40:47 | 00:00:00 | |
| DO3MHA-11 | 2026-08-30 13:10:30 | 48.35612 | 12.85768 | 70° | 44km/h | 3755m | -4.5m/s | 0.4°C | 34.5% | 651.3hPa | 2.6V | 00:00:00 | 02:40:42 | 00:00:00 | |
| OE5MMP-10 | 2026-08-30 13:10:29 | 48.35608 | 12.85752 | 70° | 44km/h | 3760m | -4.5m/s | 0.4°C | 32.1% | 650.9hPa | 2.6V | 00:00:00 | 02:40:41 | 00:00:00 | |
| OE3JTB-15 | 2026-08-30 13:10:26 | 48.35597 | 12.85706 | 69° | 44km/h | 3773m | -4.3m/s | 0.4°C | 30.0% | 649.8hPa | 2.7V | 00:00:00 | 02:40:38 | 00:00:00 | |
| DO3MHA-11 | 2026-08-30 13:10:25 | 48.35593 | 12.85691 | 69° | 44km/h | 3778m | -4.4m/s | 0.4°C | 30.6% | 649.5hPa | 2.7V | 00:00:00 | 02:40:37 | 00:00:00 | |
| OE5DXL-15 | 2026-08-30 13:10:22 | 48.35580 | 12.85646 | 69° | 42km/h | 3791m | -4.4m/s | 0.3°C | 30.0% | 648.5hPa | 2.7V | 00:00:00 | 00:00:00 | 00:00:00 | |
| OE5DRO-10 | 2026-08-30 13:10:21 | 48.35576 | 12.85630 | 67° | 44km/h | 3795m | -4.5m/s | 0.3°C | 29.5% | 648.0hPa | 2.7V | 00:00:00 | 00:00:00 | 00:00:00 | |
| DO3MHA-11 | 2026-08-30 13:10:20 | 48.35572 | 12.85615 | 68° | 44km/h | 3800m | -4.4m/s | 0.3°C | 29.2% | 647.6hPa | 2.7V | 07:43:00 | 02:40:32 | 00:00:00 | |
| OE5MMP-10 | 2026-08-30 13:10:17 | 48.35559 | 12.85569 | 67° | 44km/h | 3813m | -4.5m/s | 0.4°C | 30.1% | 646.6hPa | 2.7V | 00:00:00 | 02:40:29 | 00:00:00 | |
| DO3MHA-11 | 2026-08-30 13:10:15 | 48.35550 | 12.85539 | 65° | 42km/h | 3822m | -4.5m/s | 0.3°C | 28.3% | 645.9hPa | 2.7V | 00:00:00 | 02:40:27 | 00:00:00 | |
| OE5FHM-15 | 2026-08-30 13:10:10 | 48.35527 | 12.85466 | 67° | 42km/h | 3844m | -4.4m/s | 0.2°C | 25.6% | 644.0hPa | 2.6V | 00:00:00 | 02:40:22 | 00:00:00 | |
| OE5MMP-10 | 2026-08-30 13:10:07 | 48.35514 | 12.85420 | 68° | 42km/h | 3858m | -4.5m/s | 0.2°C | 23.7% | 643.0hPa | 2.6V | 00:00:00 | 02:40:19 | 00:00:00 | |
| DO3MHA-11 | 2026-08-30 13:10:05 | 48.35505 | 12.85390 | 65° | 44km/h | 3867m | -4.4m/s | 0.1°C | 24.2% | 642.1hPa | 2.6V | 00:00:00 | 02:40:17 | 00:00:00 | |
| OE5REO-15 | 2026-08-30 13:10:03 | 48.35501 | 12.85375 | 66° | 44km/h | 3871m | -4.5m/s | 0.1°C | 24.2% | 641.9hPa | 2.6V | 00:00:00 | 00:00:00 | 00:00:00 | |
| PG1ADW-2 | 2026-08-30 13:10:02 | 48.35491 | 12.85345 | 65° | 42km/h | 3880m | -4.4m/s | -0.0°C | 23.9% | 641.2hPa | 2.6V | 00:00:00 | 00:00:00 | 00:00:00 | |
| DO3MHA-11 | 2026-08-30 13:10:00 | 48.35482 | 12.85316 | 65° | 42km/h | 3889m | -4.1m/s | -0.1°C | 25.0% | 640.5hPa | 2.6V | 00:00:00 | 02:40:12 | 00:00:00 | |
| OE3JTB-15 | 2026-08-30 13:09:57 | 48.35470 | 12.85273 | 69° | 40km/h | 3902m | -4.5m/s | -0.1°C | 25.7% | 639.5hPa | 2.7V | 00:00:00 | 00:00:00 | 00:00:00 | |
| OE5MMP-10 | 2026-08-30 13:09:56 | 48.35466 | 12.85258 | 71° | 42km/h | 3906m | -4.3m/s | -0.2°C | 25.5% | 639.1hPa | 2.6V | 00:00:00 | 02:40:08 | 00:00:00 | |
| DO3MHA-11 | 2026-08-30 13:09:55 | 48.35463 | 12.85243 | 72° | 42km/h | 3911m | -4.4m/s | -0.2°C | 25.9% | 638.7hPa | 2.7V | 00:00:00 | 02:40:07 | 00:00:00 | |
| OE5DXL-15 | 2026-08-30 13:09:52 | 48.35452 | 12.85198 | 72° | 40km/h | 3924m | -4.2m/s | -0.3°C | 29.5% | 637.7hPa | 2.7V | 00:00:00 | 00:00:00 | 00:00:00 | |
| DO3MHA-11 | 2026-08-30 13:09:50 | 48.35445 | 12.85168 | 72° | 42km/h | 3932m | -4.2m/s | -0.3°C | 30.9% | 637.0hPa | 2.7V | 00:00:00 | 02:40:02 | 00:00:00 | |
| OE5DRO-10 | 2026-08-30 13:09:49 | 48.35442 | 12.85153 | 73° | 42km/h | 3936m | -4.2m/s | -0.3°C | 31.3% | 636.7hPa | 2.7V | 00:00:00 | 00:00:00 | 00:00:00 | |
| OE5MMP-10 | 2026-08-30 13:09:46 | 48.35432 | 12.85108 | 73° | 40km/h | 3949m | -4.3m/s | -0.0°C | 24.8% | 635.7hPa | 2.7V | 00:00:00 | 02:39:58 | 00:00:00 | |
| DO3MHA-11 | 2026-08-30 13:09:45 | 48.35429 | 12.85093 | 72° | 40km/h | 3953m | -4.2m/s | -0.0°C | 25.0% | 635.3hPa | 2.7V | 00:00:00 | 02:39:57 | 00:00:00 | |
| OE5HKT-10 | 2026-08-30 13:09:42 | 48.35420 | 12.85049 | 73° | 38km/h | 3966m | -4.1m/s | -0.1°C | 24.5% | 634.3hPa | 2.6V | 00:00:00 | 00:00:00 | 00:00:00 | |
| DO3MHA-11 | 2026-08-30 13:09:40 | 48.35414 | 12.85019 | 75° | 42km/h | 3974m | -4.1m/s | -0.1°C | 24.6% | 633.5hPa | 2.6V | 07:44:00 | 02:39:52 | 00:00:00 | |
| DO3MHA-11 | 2026-08-30 13:09:35 | 48.35400 | 12.84944 | 75° | 40km/h | 3995m | -4.3m/s | -0.2°C | 23.2% | 632.1hPa | 2.6V | 00:00:00 | 02:39:47 | 00:00:00 | |
| OE5DRO-10 | 2026-08-30 13:09:33 | 48.35395 | 12.84914 | 76° | 38km/h | 4004m | -4.2m/s | -0.2°C | 23.6% | 631.5hPa | 2.6V | 00:00:00 | 00:00:00 | 00:00:00 | |
| DO3MHA-11 | 2026-08-30 13:09:30 | 48.35388 | 12.84870 | 77° | 38km/h | 4016m | -4.1m/s | -0.3°C | 23.2% | 630.5hPa | 2.6V | 00:00:00 | 02:39:42 | 00:00:00 | |
| OE3JTB-15 | 2026-08-30 13:09:28 | 48.35383 | 12.84842 | 79° | 37km/h | 4025m | -4.2m/s | -0.3°C | 22.9% | 629.8hPa | 2.7V | 00:00:00 | 00:00:00 | 00:00:00 | |
| OE5MMP-10 | 2026-08-30 13:09:25 | 48.35377 | 12.84800 | 77° | 38km/h | 4037m | -4.1m/s | -0.3°C | 22.6% | 628.8hPa | 2.7V | 07:44:00 | 02:39:37 | 00:00:00 | |
| PG1ADW-2 | 2026-08-30 13:09:22 | 48.35370 | 12.84757 | 79° | 37km/h | 4049m | -4.0m/s | -0.3°C | 22.0% | 627.8hPa | 2.6V | 00:00:00 | 00:00:00 | 00:00:00 | |
| DO3MHA-11 | 2026-08-30 13:09:20 | 48.35366 | 12.84729 | 79° | 38km/h | 4057m | -4.2m/s | -0.3°C | 21.1% | 627.2hPa | 2.6V | 00:00:00 | 02:39:32 | 00:00:00 | |
| OE5DRO-10 | 2026-08-30 13:09:17 | 48.35361 | 12.84686 | 80° | 37km/h | 4069m | -4.0m/s | -0.3°C | 20.5% | 626.3hPa | 2.6V | 00:00:00 | 00:00:00 | 00:00:00 | |
| DO3MHA-11 | 2026-08-30 13:09:15 | 48.35358 | 12.84658 | 80° | 37km/h | 4077m | -4.1m/s | -0.3°C | 20.0% | 625.7hPa | 2.6V | 00:00:00 | 02:39:27 | 00:00:00 | |
| OE5REO-15 | 2026-08-30 13:09:13 | 48.35356 | 12.84644 | 79° | 37km/h | 4082m | -4.1m/s | -0.4°C | 19.3% | 625.4hPa | 2.6V | 00:00:00 | 00:00:00 | 00:00:00 | |
| DO3MHA-11 | 2026-08-30 13:09:10 | 48.35348 | 12.84589 | 79° | 37km/h | 4098m | -4.1m/s | -0.1°C | 15.4% | 624.1hPa | 2.6V | 00:00:00 | 02:39:22 | 00:00:00 | |
| DO3MHA-11 | 2026-08-30 13:09:05 | 48.35337 | 12.84520 | 75° | 37km/h | 4118m | -3.9m/s | 0.3°C | 7.3% | 622.5hPa | 2.6V | 00:00:00 | 02:39:17 | 00:00:00 | |
| PG1ADW-2 | 2026-08-30 13:09:02 | 48.35330 | 12.84480 | 74° | 37km/h | 4131m | -4.2m/s | 0.4°C | 7.1% | 621.6hPa | 2.6V | 00:00:00 | 00:00:00 | 00:00:00 | |
| OE5DRO-10 | 2026-08-30 13:09:01 | 48.35327 | 12.84467 | 75° | 37km/h | 4135m | -3.9m/s | 0.3°C | 6.9% | 621.3hPa | 2.6V | 00:00:00 | 00:00:00 | 00:00:00 | |
| DO3MHA-11 | 2026-08-30 13:09:00 | 48.35325 | 12.84454 | 76° | 37km/h | 4139m | -4.0m/s | 0.4°C | 6.8% | 620.8hPa | 2.6V | 07:44:00 | 02:39:12 | 00:00:00 | |
| OE3JTB-15 | 2026-08-30 13:08:59 | 48.35323 | 12.84440 | 75° | 37km/h | 4143m | -4.0m/s | 0.3°C | 6.8% | 620.6hPa | 2.7V | 07:44:00 | 02:39:11 | 00:00:00 | |
| OE5REO-15 | 2026-08-30 13:08:57 | 48.35320 | 12.84427 | 76° | 37km/h | 4147m | -4.0m/s | 0.4°C | 6.8% | 620.3hPa | 2.7V | 00:00:00 | 00:00:00 | 00:00:00 | |
| DO3MHA-11 | 2026-08-30 13:08:55 | 48.35312 | 12.84386 | 74° | 37km/h | 4160m | -4.2m/s | 0.3°C | 6.7% | 619.2hPa | 2.7V | 00:00:00 | 02:39:07 | 00:00:00 | |
| OE5DXL-15 | 2026-08-30 13:08:52 | 48.35304 | 12.84345 | 73° | 37km/h | 4172m | -4.3m/s | 0.3°C | 6.6% | 618.3hPa | 2.7V | 00:00:00 | 00:00:00 | 00:00:00 | |
| DO3MHA-11 | 2026-08-30 13:08:50 | 48.35299 | 12.84318 | 74° | 37km/h | 4180m | -4.1m/s | 0.2°C | 6.5% | 617.7hPa | 2.7V | 00:00:00 | 02:39:02 | 00:00:00 | |
| OE5MMP-10 | 2026-08-30 13:08:45 | 48.35287 | 12.84252 | 76° | 37km/h | 4201m | -4.2m/s | 0.2°C | 6.5% | 616.0hPa | 2.7V | 00:00:00 | 02:38:57 | 00:00:00 | |
| PG1ADW-2 | 2026-08-30 13:08:42 | 48.35279 | 12.84212 | 76° | 37km/h | 4214m | -4.1m/s | 0.1°C | 6.2% | 615.1hPa | 2.7V | 00:00:00 | 00:00:00 | 00:00:00 | |
| DO3MHA-11 | 2026-08-30 13:08:40 | 48.35274 | 12.84185 | 75° | 37km/h | 4223m | -4.1m/s | 0.1°C | 6.3% | 614.5hPa | 2.7V | 00:00:00 | 02:38:52 | 00:00:00 | |
| OE5MMP-10 | 2026-08-30 13:08:35 | 48.35262 | 12.84118 | 75° | 37km/h | 4244m | -4.1m/s | -0.0°C | 6.6% | 612.8hPa | 2.7V | 00:00:00 | 02:38:47 | 00:00:00 | |
| OE5HKT-10 | 2026-08-30 13:08:30 | 48.35251 | 12.84051 | 80° | 37km/h | 4266m | -4.1m/s | -0.1°C | 6.4% | 611.2hPa | 2.7V | 00:00:00 | 02:38:42 | 00:00:00 | |
| DO3MHA-11 | 2026-08-30 13:08:29 | 48.35249 | 12.84037 | 79° | 37km/h | 4270m | -4.3m/s | -0.0°C | 6.1% | 610.9hPa | 2.7V | 00:00:00 | 02:38:41 | 00:00:00 | |
| OE5MMP-10 | 2026-08-30 13:08:25 | 48.35243 | 12.83982 | 83° | 37km/h | 4287m | -4.3m/s | -0.2°C | 5.6% | 609.6hPa | 2.6V | 00:00:00 | 02:38:37 | 00:00:00 | |
| DO3MHA-11 | 2026-08-30 13:08:24 | 48.35242 | 12.83968 | 83° | 38km/h | 4291m | -4.1m/s | -0.2°C | 5.6% | 609.3hPa | 2.7V | 00:00:00 | 02:38:36 | 00:00:00 | |
| OE5DXL-15 | 2026-08-30 13:08:22 | 48.35238 | 12.83940 | 81° | 38km/h | 4300m | -4.2m/s | -0.2°C | 5.6% | 608.6hPa | 2.7V | 00:00:00 | 00:00:00 | 00:00:00 | |
| OE5REO-15 | 2026-08-30 13:08:21 | 48.35238 | 12.83940 | 82° | 37km/h | 4300m | -4.2m/s | -0.2°C | 5.6% | 608.6hPa | 2.7V | 07:46:00 | 00:00:00 | 00:00:00 | |
| DO3MHA-11 | 2026-08-30 13:08:19 | 48.35234 | 12.83898 | 81° | 37km/h | 4313m | -4.2m/s | -0.2°C | 6.0% | 607.6hPa | 2.7V | 07:45:00 | 02:38:31 | 00:00:00 | |
| OE5WHR-10 | 2026-08-30 13:08:18 | 48.35232 | 12.83884 | 81° | 38km/h | 4317m | -4.1m/s | -0.3°C | 6.1% | 607.3hPa | 2.7V | 00:00:00 | 00:00:00 | 00:00:00 | |
| DB0NH | 2026-08-30 13:08:15 | 48.35227 | 12.83843 | 83° | 38km/h | 4330m | -4.2m/s | -0.3°C | 6.4% | 606.3hPa | 2.7V | 00:00:00 | 02:38:27 | 00:00:00 | |
| DO3MHA-11 | 2026-08-30 13:08:14 | 48.35226 | 12.83829 | 81° | 38km/h | 4335m | -4.3m/s | -0.4°C | 6.5% | 606.1hPa | 2.7V | 00:00:00 | 02:38:26 | 00:00:00 | |
| OE5DRO-10 | 2026-08-30 13:08:13 | 48.35225 | 12.83814 | 82° | 38km/h | 4339m | -4.1m/s | -0.4°C | 6.8% | 605.7hPa | 2.7V | 00:00:00 | 00:00:00 | 00:00:00 | |
| OE5HKT-10 | 2026-08-30 13:08:12 | 48.35223 | 12.83801 | 82° | 68km/h | 4343m | -4.2m/s | -0.4°C | 7.1% | 605.4hPa | 2.7V | 00:00:00 | 00:00:00 | 00:00:00 | |
| OE5FHM-15 | 2026-08-30 13:08:10 | 48.35220 | 12.83772 | 82° | 37km/h | 4351m | -4.0m/s | -0.5°C | 7.7% | 604.7hPa | 2.7V | 00:00:00 | 02:38:22 | 00:00:00 | |
| DO3MHA-11 | 2026-08-30 13:08:09 | 48.35219 | 12.83758 | 82° | 38km/h | 4355m | -4.0m/s | -0.5°C | 7.9% | 604.3hPa | 2.7V | 00:00:00 | 02:38:21 | 00:00:00 | |
| OE5MMP-10 | 2026-08-30 13:08:05 | 48.35213 | 12.83701 | 81° | 38km/h | 4372m | -3.9m/s | -0.6°C | 8.4% | 603.1hPa | 2.7V | 07:45:00 | 02:38:17 | 00:00:00 | |
| DO3MHA-11 | 2026-08-30 13:08:04 | 48.35212 | 12.83687 | 82° | 38km/h | 4376m | -4.1m/s | -0.6°C | 8.3% | 602.7hPa | 2.7V | 00:00:00 | 02:38:16 | 00:00:00 | |
| PG1ADW-2 | 2026-08-30 13:08:02 | 48.35208 | 12.83659 | 80° | 37km/h | 4385m | -4.2m/s | -0.7°C | 8.5% | 602.2hPa | 2.7V | 00:00:00 | 00:00:00 | 00:00:00 | |
| OE5WHR-10 | 2026-08-30 13:08:01 | 48.35207 | 12.83645 | 81° | 37km/h | 4389m | -4.2m/s | -0.7°C | 8.5% | 601.8hPa | 2.7V | 00:00:00 | 02:38:13 | 00:00:00 | |
| DO3MHA-11 | 2026-08-30 13:07:59 | 48.35203 | 12.83617 | 80° | 37km/h | 4398m | -4.2m/s | -0.8°C | 9.5% | 601.1hPa | 2.7V | 00:00:00 | 02:38:11 | 00:00:00 | |
| OE5DRO-10 | 2026-08-30 13:07:57 | 48.35200 | 12.83588 | 81° | 37km/h | 4406m | -4.3m/s | -0.9°C | 10.7% | 600.4hPa | 2.7V | 00:00:00 | 00:00:00 | 00:00:00 | |
| OE5MMP-10 | 2026-08-30 13:07:55 | 48.35197 | 12.83560 | 81° | 37km/h | 4415m | -4.1m/s | -1.0°C | 11.1% | 599.8hPa | 2.7V | 00:00:00 | 02:38:07 | 00:00:00 | |
| DO3MHA-11 | 2026-08-30 13:07:54 | 48.35195 | 12.83547 | 80° | 37km/h | 4420m | -4.3m/s | -1.0°C | 11.2% | 599.5hPa | 2.7V | 00:00:00 | 02:38:06 | 00:00:00 | |
| OE5DXL-15 | 2026-08-30 13:07:52 | 48.35192 | 12.83519 | 81° | 37km/h | 4428m | -4.3m/s | -1.1°C | 11.2% | 598.8hPa | 2.7V | 00:00:00 | 00:00:00 | 00:00:00 | |
| OE5REO-15 | 2026-08-30 13:07:50 | 48.35190 | 12.83505 | 80° | 37km/h | 4433m | -4.4m/s | -1.2°C | 11.1% | 598.5hPa | 2.6V | 07:46:00 | 00:00:00 | 00:00:00 | |
| DO3MHA-11 | 2026-08-30 13:07:49 | 48.35186 | 12.83477 | 80° | 37km/h | 4441m | -4.2m/s | -1.2°C | 11.4% | 597.8hPa | 2.6V | 00:00:00 | 02:38:01 | 00:00:00 | |
| DB0NH | 2026-08-30 13:07:45 | 48.35180 | 12.83423 | 81° | 40km/h | 4459m | -4.5m/s | -1.3°C | 11.6% | 596.4hPa | 2.6V | 00:00:00 | 02:37:57 | 00:00:00 | |
| OE5WHR-10 | 2026-08-30 13:07:44 | 48.35178 | 12.83409 | 80° | 37km/h | 4463m | -4.6m/s | -1.4°C | 11.6% | 596.1hPa | 2.6V | 00:00:00 | 00:00:00 | 00:00:00 | |
| DO3MHA-11 | 2026-08-30 13:07:42 | 48.35175 | 12.83381 | 80° | 37km/h | 4472m | -4.1m/s | -1.5°C | 11.7% | 595.4hPa | 2.7V | 00:00:00 | 02:37:54 | 00:00:00 | |
| OE5DRO-10 | 2026-08-30 13:07:41 | 48.35173 | 12.83367 | 80° | 37km/h | 4477m | -4.5m/s | -1.5°C | 11.7% | 595.1hPa | 2.7V | 00:00:00 | 00:00:00 | 00:00:00 | |
| OE5FHM-15 | 2026-08-30 13:07:40 | 48.35171 | 12.83353 | 81° | 38km/h | 4481m | -4.6m/s | -1.6°C | 11.8% | 594.8hPa | 2.7V | 00:00:00 | 02:37:52 | 00:00:00 | |
| DO3MHA-11 | 2026-08-30 13:07:37 | 48.35167 | 12.83312 | 84° | 37km/h | 4495m | -4.7m/s | -1.7°C | 11.8% | 593.8hPa | 2.7V | 07:46:00 | 02:37:49 | 00:00:00 | |
| OE5MMP-10 | 2026-08-30 13:07:35 | 48.35164 | 12.83284 | 83° | 38km/h | 4505m | -4.5m/s | -1.7°C | 11.6% | 593.1hPa | 2.7V | 00:00:00 | 02:37:47 | 00:00:00 | |
| OE5REO-15 | 2026-08-30 13:07:34 | 48.35164 | 12.83284 | 84° | 37km/h | 4505m | -4.6m/s | -1.8°C | 11.5% | 593.2hPa | 2.7V | 07:46:00 | 00:00:00 | 00:00:00 | |
| DO3MHA-11 | 2026-08-30 13:07:32 | 48.35161 | 12.83242 | 83° | 38km/h | 4519m | -4.8m/s | -1.9°C | 11.7% | 592.0hPa | 2.7V | 00:00:00 | 02:37:44 | 00:00:00 | |
| DO3MHA-11 | 2026-08-30 13:07:27 | 48.35154 | 12.83171 | 82° | 38km/h | 4542m | -4.5m/s | -2.1°C | 12.0% | 590.3hPa | 2.7V | 00:00:00 | 02:37:39 | 00:00:00 | |
| OE5DRO-10 | 2026-08-30 13:07:25 | 48.35151 | 12.83142 | 83° | 38km/h | 4551m | -4.5m/s | -2.2°C | 12.7% | 589.6hPa | 2.7V | 00:00:00 | 00:00:00 | 00:00:00 | |
| OE5MMP-10 | 2026-08-30 13:07:23 | 48.35148 | 12.83114 | 82° | 38km/h | 4560m | -4.5m/s | -2.3°C | 13.2% | 588.9hPa | 2.6V | 00:00:00 | 02:37:35 | 00:00:00 | |
| DO3MHA-11 | 2026-08-30 13:07:22 | 48.35147 | 12.83100 | 82° | 38km/h | 4565m | -4.5m/s | -2.3°C | 13.2% | 588.5hPa | 2.7V | 00:00:00 | 02:37:34 | 00:00:00 | |
| OE5REO-15 | 2026-08-30 13:07:18 | 48.35143 | 12.83057 | 83° | 38km/h | 4579m | -4.7m/s | -2.5°C | 12.8% | 587.5hPa | 2.7V | 07:46:00 | 00:00:00 | 00:00:00 | |
| DO3MHA-11 | 2026-08-30 13:07:17 | 48.35140 | 12.83028 | 83° | 38km/h | 4588m | -4.8m/s | -2.5°C | 12.1% | 586.8hPa | 2.7V | 00:00:00 | 02:37:29 | 00:00:00 | |
| OE5MMP-10 | 2026-08-30 13:07:13 | 48.35135 | 12.82971 | 82° | 38km/h | 4608m | -4.7m/s | -2.7°C | 12.5% | 585.4hPa | 2.7V | 00:00:00 | 02:37:25 | 00:00:00 | |
| DO3MHA-11 | 2026-08-30 13:07:12 | 48.35134 | 12.82957 | 83° | 38km/h | 4613m | -4.8m/s | -2.7°C | 12.9% | 585.0hPa | 2.7V | 00:00:00 | 02:37:24 | 00:00:00 | |
| OE5WHR-10 | 2026-08-30 13:07:10 | 48.35131 | 12.82928 | 81° | 40km/h | 4622m | -4.8m/s | -2.8°C | 12.9% | 584.3hPa | 2.6V | 00:00:00 | 02:37:22 | 00:00:00 | |
| OE5DRO-10 | 2026-08-30 13:07:09 | 48.35130 | 12.82914 | 83° | 40km/h | 4627m | -4.8m/s | -2.8°C | 12.7% | 584.0hPa | 2.6V | 00:00:00 | 00:00:00 | 00:00:00 | |
| DO3MHA-11 | 2026-08-30 13:07:07 | 48.35127 | 12.82884 | 84° | 40km/h | 4637m | -4.8m/s | -2.9°C | 12.6% | 583.3hPa | 2.6V | 00:00:00 | 02:37:19 | 00:00:00 | |
| OE5MMP-10 | 2026-08-30 13:07:03 | 48.35124 | 12.82825 | 86° | 40km/h | 4656m | -4.8m/s | -3.1°C | 12.7% | 581.8hPa | 2.6V | 00:00:00 | 02:37:15 | 00:00:00 | |
| DO3MHA-11 | 2026-08-30 13:07:02 | 48.35123 | 12.82810 | 87° | 40km/h | 4661m | -4.7m/s | -3.1°C | 12.8% | 581.6hPa | 2.6V | 00:00:00 | 02:37:14 | 00:00:00 | |
| DO3MHA-11 | 2026-08-30 13:06:57 | 48.35119 | 12.82734 | 86° | 40km/h | 4685m | -4.8m/s | -3.3°C | 12.8% | 579.8hPa | 2.6V | 07:47:00 | 02:37:09 | 00:00:00 | |
| OE5WHR-10 | 2026-08-30 13:06:53 | 48.35115 | 12.82672 | 84° | 40km/h | 4705m | -5.0m/s | -3.5°C | 12.2% | 578.3hPa | 2.7V | 00:00:00 | 00:00:00 | 00:00:00 | |
| DO3MHA-11 | 2026-08-30 13:06:52 | 48.35114 | 12.82657 | 86° | 40km/h | 4710m | -5.0m/s | -3.5°C | 12.2% | 578.0hPa | 2.7V | 00:00:00 | 02:37:04 | 00:00:00 | |
| DO3MHA-11 | 2026-08-30 13:06:47 | 48.35110 | 12.82580 | 85° | 40km/h | 4735m | -4.9m/s | -3.6°C | 12.3% | 576.0hPa | 2.7V | 00:00:00 | 02:36:59 | 00:00:00 | |
| OE5REO-15 | 2026-08-30 13:06:46 | 48.35110 | 12.82580 | 86° | 40km/h | 4735m | -4.9m/s | -3.7°C | 12.1% | 576.1hPa | 2.7V | 07:47:00 | 00:00:00 | 00:00:00 | |
| DO3MHA-11 | 2026-08-30 13:06:42 | 48.35105 | 12.82503 | 85° | 42km/h | 4759m | -4.8m/s | -3.8°C | 11.8% | 574.2hPa | 2.7V | 00:00:00 | 02:36:54 | 00:00:00 | |
| DO3MHA-11 | 2026-08-30 13:06:37 | 48.35101 | 12.82424 | 87° | 42km/h | 4785m | -5.2m/s | -4.0°C | 11.9% | 572.5hPa | 2.6V | 00:00:00 | 02:36:49 | 00:00:00 | |
| OE5WHR-10 | 2026-08-30 13:06:36 | 48.35100 | 12.82408 | 86° | 42km/h | 4790m | -4.9m/s | -4.1°C | 11.8% | 572.0hPa | 2.6V | 00:00:00 | 00:00:00 | 00:00:00 | |
| OE3JTB-15 | 2026-08-30 13:06:34 | 48.35099 | 12.82377 | 88° | 42km/h | 4800m | -5.1m/s | -4.1°C | 11.4% | 571.3hPa | 2.6V | 00:00:00 | 00:00:00 | 00:00:00 | |
| OE5MMP-10 | 2026-08-30 13:06:32 | 48.35098 | 12.82344 | 89° | 42km/h | 4810m | -4.9m/s | -4.1°C | 11.4% | 570.5hPa | 2.6V | 00:00:00 | 02:36:44 | 00:00:00 | |
| DO3MHA-11 | 2026-08-30 13:06:31 | 48.35098 | 12.82328 | 88° | 42km/h | 4815m | -5.1m/s | -4.2°C | 11.4% | 570.3hPa | 2.6V | 00:00:00 | 02:36:43 | 00:00:00 | |
| DO3MHA-11 | 2026-08-30 13:06:26 | 48.35095 | 12.82247 | 87° | 42km/h | 4841m | -5.2m/s | -4.4°C | 11.6% | 568.4hPa | 2.6V | 00:00:00 | 02:36:38 | 00:00:00 | |
| OE5MMP-10 | 2026-08-30 13:06:22 | 48.35092 | 12.82183 | 86° | 42km/h | 4862m | -5.1m/s | -4.6°C | 11.9% | 566.9hPa | 2.7V | 00:00:00 | 02:36:34 | 00:00:00 | |
| DO3MHA-11 | 2026-08-30 13:06:21 | 48.35091 | 12.82167 | 88° | 42km/h | 4867m | -5.2m/s | -4.6°C | 12.0% | 566.5hPa | 2.7V | 00:00:00 | 02:36:33 | 00:00:00 | |
| OE5WHR-10 | 2026-08-30 13:06:19 | 48.35090 | 12.82135 | 86° | 42km/h | 4877m | -5.3m/s | -4.7°C | 12.1% | 565.8hPa | 2.7V | 07:47:00 | 02:36:31 | 00:00:00 | |
| DO3MHA-11 | 2026-08-30 13:06:16 | 48.35088 | 12.82087 | 88° | 44km/h | 4893m | -5.1m/s | -4.8°C | 12.2% | 564.6hPa | 2.7V | 07:47:00 | 02:36:28 | 00:00:00 | |
| OE5REO-15 | 2026-08-30 13:06:15 | 48.35088 | 12.82087 | 88° | 42km/h | 4893m | -5.2m/s | -4.9°C | 11.9% | 564.7hPa | 2.7V | 07:47:00 | 00:00:00 | 00:00:00 | |
| NBG1-10 | 2026-08-30 13:06:14 | 48.35088 | 12.82054 | 87° | 44km/h | 4903m | -5.0m/s | -4.9°C | 12.3% | 563.9hPa | 2.7V | 00:00:00 | 02:36:26 | 00:00:00 | |
| OE5MMP-10 | 2026-08-30 13:06:12 | 48.35086 | 12.82021 | 87° | 42km/h | 4913m | -5.0m/s | -5.0°C | 12.3% | 563.1hPa | 2.7V | 00:00:00 | 02:36:24 | 00:00:00 | |
| DO3MHA-11 | 2026-08-30 13:06:11 | 48.35085 | 12.82005 | 86° | 42km/h | 4919m | -5.2m/s | -5.1°C | 12.3% | 562.7hPa | 2.7V | 00:00:00 | 02:36:23 | 00:00:00 | |
| OE5FHM-15 | 2026-08-30 13:06:10 | 48.35085 | 12.81989 | 87° | 42km/h | 4924m | -5.1m/s | -5.1°C | 12.3% | 562.4hPa | 2.7V | 00:00:00 | 02:36:22 | 00:00:00 | |
| DO3MHA-11 | 2026-08-30 13:06:06 | 48.35082 | 12.81926 | 88° | 42km/h | 4945m | -5.3m/s | -5.2°C | 11.9% | 560.9hPa | 2.7V | 00:00:00 | 02:36:18 | 00:00:00 | |
| OE5DRO-10 | 2026-08-30 13:06:05 | 48.35082 | 12.81910 | 88° | 42km/h | 4950m | -5.2m/s | -5.2°C | 11.8% | 560.5hPa | 2.7V | 00:00:00 | 00:00:00 | 00:00:00 | |
| DB0NH | 2026-08-30 13:06:03 | 48.35081 | 12.81877 | 87° | 42km/h | 4961m | -5.3m/s | -5.3°C | 11.7% | 559.8hPa | 2.7V | 00:00:00 | 02:36:15 | 00:00:00 | |
| OE5WHR-10 | 2026-08-30 13:06:02 | 48.35081 | 12.81861 | 87° | 40km/h | 4966m | -5.2m/s | -5.4°C | 11.8% | 559.2hPa | 2.6V | 00:00:00 | 00:00:00 | 00:00:00 | |
| DO3MHA-11 | 2026-08-30 13:06:01 | 48.35080 | 12.81845 | 87° | 42km/h | 4971m | -5.2m/s | -5.4°C | 11.7% | 559.0hPa | 2.6V | 00:00:00 | 02:36:13 | 00:00:00 | |
| OE5REO-15 | 2026-08-30 13:05:59 | 48.35079 | 12.81829 | 86° | 42km/h | 4976m | -5.2m/s | -5.5°C | 11.4% | 558.7hPa | 2.6V | 00:00:00 | 00:00:00 | 00:00:00 | |
| DO3MHA-11 | 2026-08-30 13:05:56 | 48.35076 | 12.81766 | 86° | 40km/h | 4998m | -5.2m/s | -5.6°C | 11.2% | 557.1hPa | 2.6V | 00:00:00 | 02:36:08 | 00:00:00 | |
| OE5MMP-10 | 2026-08-30 13:05:52 | 48.35073 | 12.81704 | 88° | 40km/h | 5019m | -5.2m/s | -5.7°C | 10.8% | 555.6hPa | 2.7V | 00:00:00 | 02:36:04 | 00:00:00 | |
| DO3MHA-11 | 2026-08-30 13:05:50 | 48.35072 | 12.81673 | 88° | 40km/h | 5029m | -5.0m/s | -5.8°C | 10.8% | 554.9hPa | 2.6V | 00:00:00 | 02:36:02 | 00:00:00 | |
| OE5DRO-10 | 2026-08-30 13:05:49 | 48.35072 | 12.81658 | 88° | 40km/h | 5034m | -5.2m/s | -5.8°C | 10.7% | 554.5hPa | 2.6V | 00:00:00 | 00:00:00 | 00:00:00 | |
| OE5WHR-10 | 2026-08-30 13:05:45 | 48.35070 | 12.81597 | 88° | 40km/h | 5055m | -5.4m/s | -5.9°C | 10.1% | 553.1hPa | 2.7V | 00:00:00 | 00:00:00 | 00:00:00 | |
| OE5REO-15 | 2026-08-30 13:05:44 | 48.35070 | 12.81597 | 89° | 38km/h | 5055m | -5.5m/s | -6.0°C | 9.9% | 553.1hPa | 2.7V | 00:00:00 | 00:00:00 | 00:00:00 | |
| OE5MMP-10 | 2026-08-30 13:05:42 | 48.35069 | 12.81553 | 90° | 40km/h | 5072m | -5.3m/s | -6.0°C | 9.2% | 551.9hPa | 2.7V | 00:00:00 | 02:35:54 | 00:00:00 | |
| DO3MHA-11 | 2026-08-30 13:05:40 | 48.35069 | 12.81522 | 89° | 42km/h | 5082m | -5.3m/s | -6.1°C | 9.1% | 551.1hPa | 2.7V | 00:00:00 | 02:35:52 | 00:00:00 | |
| OE3JTB-15 | 2026-08-30 13:05:36 | 48.35068 | 12.81459 | 89° | 44km/h | 5104m | -5.3m/s | -6.2°C | 9.2% | 549.6hPa | 2.7V | 00:00:00 | 00:00:00 | 00:00:00 | |
| OE5DRO-10 | 2026-08-30 13:05:33 | 48.35068 | 12.81412 | 90° | 44km/h | 5120m | -5.3m/s | -6.4°C | 9.4% | 548.4hPa | 2.7V | 00:00:00 | 00:00:00 | 00:00:00 | |
| OE5MMP-10 | 2026-08-30 13:05:32 | 48.35067 | 12.81396 | 88° | 42km/h | 5126m | -5.4m/s | -6.4°C | 9.5% | 548.1hPa | 2.7V | 00:00:00 | 02:35:44 | 00:00:00 | |
| DB0NH | 2026-08-30 13:05:31 | 48.35067 | 12.81380 | 90° | 44km/h | 5131m | -5.5m/s | -6.5°C | 9.6% | 547.7hPa | 2.7V | 07:48:00 | 02:35:43 | 00:00:00 | |
| DO3MHA-11 | 2026-08-30 13:05:30 | 48.35067 | 12.81364 | 91° | 42km/h | 5136m | -5.2m/s | -6.5°C | 9.9% | 547.3hPa | 2.7V | 00:00:00 | 02:35:42 | 00:00:00 | |
| OE5WHR-10 | 2026-08-30 13:05:28 | 48.35067 | 12.81333 | 91° | 44km/h | 5147m | -5.4m/s | -6.6°C | 10.2% | 546.6hPa | 2.7V | 00:00:00 | 02:35:40 | 00:00:00 | |
| OE5MMP-10 | 2026-08-30 13:05:22 | 48.35067 | 12.81235 | 90° | 44km/h | 5180m | -5.7m/s | -6.8°C | 10.7% | 544.2hPa | 2.7V | 07:48:00 | 02:35:34 | 00:00:00 | |
| DO3MHA-11 | 2026-08-30 13:05:20 | 48.35066 | 12.81201 | 88° | 44km/h | 5191m | -5.5m/s | -6.9°C | 10.7% | 543.5hPa | 2.7V | 07:48:00 | 02:35:32 | 00:00:00 | |
| OE5DRO-10 | 2026-08-30 13:05:17 | 48.35065 | 12.81150 | 89° | 44km/h | 5208m | -5.7m/s | -7.0°C | 9.7% | 542.4hPa | 2.7V | 00:00:00 | 00:00:00 | 00:00:00 | |
| OE5REO-15 | 2026-08-30 13:05:13 | 48.35065 | 12.81101 | 92° | 44km/h | 5224m | -5.7m/s | -7.2°C | 9.7% | 541.2hPa | 2.7V | 00:00:00 | 00:00:00 | 00:00:00 | |
| DO3MHA-11 | 2026-08-30 13:05:10 | 48.35065 | 12.81033 | 90° | 44km/h | 5247m | -5.4m/s | -7.3°C | 10.9% | 539.6hPa | 2.7V | 00:00:00 | 02:35:22 | 00:00:00 | |
| OE3JTB-15 | 2026-08-30 13:05:07 | 48.35065 | 12.80981 | 90° | 47km/h | 5263m | -5.6m/s | -7.4°C | 11.0% | 538.5hPa | 2.7V | 07:48:00 | 00:00:00 | 00:00:00 | |
| PG1ADW-2 | 2026-08-30 13:05:02 | 48.35066 | 12.80897 | 91° | 47km/h | 5291m | -5.5m/s | -7.6°C | 10.2% | 536.5hPa | 2.7V | 07:48:00 | 00:00:00 | 00:00:00 | |
| DB0NH | 2026-08-30 13:05:01 | 48.35066 | 12.80881 | 92° | 46km/h | 5297m | -5.5m/s | -7.7°C | 10.4% | 536.1hPa | 2.7V | 00:00:00 | 02:35:13 | 00:00:00 | |
| DO3MHA-11 | 2026-08-30 13:05:00 | 48.35066 | 12.80864 | 92° | 47km/h | 5302m | -5.5m/s | -7.7°C | 10.5% | 535.7hPa | 2.7V | 00:00:00 | 02:35:12 | 00:00:00 | |
| OE5REO-15 | 2026-08-30 13:04:57 | 48.35067 | 12.80830 | 93° | 46km/h | 5314m | -5.7m/s | -7.9°C | 10.4% | 535.0hPa | 2.5V | 00:00:00 | 00:00:00 | 00:00:00 | |
| OE5WHR-10 | 2026-08-30 13:04:53 | 48.35069 | 12.80739 | 93° | 49km/h | 5343m | -5.9m/s | -8.0°C | 10.2% | 533.0hPa | 2.5V | 00:00:00 | 00:00:00 | 00:00:00 | |
| NBG1-10 | 2026-08-30 13:04:51 | 48.35070 | 12.80703 | 92° | 49km/h | 5354m | -5.9m/s | -8.0°C | 10.2% | 532.1hPa | 2.5V | 07:49:00 | 02:35:03 | 00:00:00 | |
| DO3MHA-11 | 2026-08-30 13:04:50 | 48.35071 | 12.80684 | 93° | 49km/h | 5360m | -5.6m/s | -8.1°C | 10.3% | 531.8hPa | 2.7V | 00:00:00 | 02:35:02 | 00:00:00 | |
| OE5MMP-10 | 2026-08-30 13:04:49 | 48.35071 | 12.80666 | 92° | 49km/h | 5366m | -5.8m/s | -8.0°C | 10.0% | 531.4hPa | 2.7V | 00:00:00 | 02:35:01 | 00:00:00 | |
| OE5DRO-10 | 2026-08-30 13:04:45 | 48.35073 | 12.80592 | 93° | 49km/h | 5389m | -5.7m/s | -7.8°C | 6.1% | 529.9hPa | 2.6V | 00:00:00 | 00:00:00 | 00:00:00 | |
| PG1ADW-2 | 2026-08-30 13:04:42 | 48.35075 | 12.80536 | 95° | 49km/h | 5407m | -5.9m/s | -7.9°C | 6.1% | 528.7hPa | 2.6V | 00:00:00 | 00:00:00 | 00:00:00 | |
| OE5REO-15 | 2026-08-30 13:04:41 | 48.35075 | 12.80536 | 95° | 49km/h | 5407m | -5.9m/s | -7.9°C | 5.8% | 528.8hPa | 2.6V | 00:00:00 | 00:00:00 | 00:00:00 | |
| DO3MHA-11 | 2026-08-30 13:04:40 | 48.35076 | 12.80499 | 94° | 49km/h | 5418m | -5.6m/s | -7.9°C | 6.3% | 527.9hPa | 2.6V | 00:00:00 | 02:34:52 | 00:00:00 | |
| OE3JTB-15 | 2026-08-30 13:04:39 | 48.35078 | 12.80461 | 94° | 47km/h | 5430m | -5.5m/s | -8.0°C | 6.9% | 527.1hPa | 2.6V | 00:00:00 | 02:34:50 | 00:00:00 | |
| DL6DJ-15 | 2026-08-30 13:04:38 | 48.35079 | 12.80443 | 93° | 47km/h | 5435m | -5.6m/s | -8.1°C | 7.2% | 526.8hPa | 2.6V | 00:00:00 | 00:00:00 | 00:00:00 | |
| OE5WHR-10 | 2026-08-30 13:04:36 | 48.35079 | 12.80424 | 93° | 47km/h | 5441m | -5.6m/s | -8.0°C | 7.4% | 526.3hPa | 2.6V | 00:00:00 | 02:34:48 | 00:00:00 | |
| DO3MHA-11 | 2026-08-30 13:04:30 | 48.35083 | 12.80313 | 94° | 47km/h | 5475m | -5.6m/s | -8.3°C | 7.9% | 524.0hPa | 2.6V | 00:00:00 | 02:34:42 | 00:00:00 | |
| OE5MMP-10 | 2026-08-30 13:04:29 | 48.35084 | 12.80295 | 94° | 47km/h | 5481m | -5.6m/s | -8.3°C | 7.8% | 523.6hPa | 2.7V | 00:00:00 | 02:34:41 | 00:00:00 | |
| DB0NH | 2026-08-30 13:04:27 | 48.35084 | 12.80259 | 92° | 47km/h | 5492m | -5.6m/s | -8.4°C | 7.7% | 522.9hPa | 2.7V | 00:00:00 | 02:34:39 | 00:00:00 | |
| OE5DXL-15 | 2026-08-30 13:04:22 | 48.35085 | 12.80168 | 89° | 47km/h | 5520m | -5.4m/s | -8.6°C | 7.6% | 520.9hPa | 2.6V | 00:00:00 | 00:00:00 | 00:00:00 | |
| DO3MHA-11 | 2026-08-30 13:04:20 | 48.35084 | 12.80133 | 89° | 46km/h | 5531m | -5.7m/s | -8.6°C | 7.5% | 520.1hPa | 2.6V | 00:00:00 | 02:34:32 | 00:00:00 | |
| OE5MMP-10 | 2026-08-30 13:04:19 | 48.35084 | 12.80116 | 89° | 46km/h | 5537m | -5.6m/s | -8.7°C | 7.4% | 519.8hPa | 2.6V | 00:00:00 | 02:34:31 | 00:00:00 | |
| NBG1-10 | 2026-08-30 13:04:18 | 48.35083 | 12.80098 | 88° | 47km/h | 5543m | -5.8m/s | -8.7°C | 7.2% | 519.4hPa | 2.5V | 00:00:00 | 02:34:30 | 00:00:00 | |
| OE5DRO-10 | 2026-08-30 13:04:13 | 48.35081 | 12.80011 | 86° | 47km/h | 5571m | -5.6m/s | -8.7°C | 5.7% | 517.6hPa | 2.5V | 00:00:00 | 00:00:00 | 00:00:00 | |
| OE5FHM-15 | 2026-08-30 13:04:10 | 48.35078 | 12.79959 | 85° | 49km/h | 5588m | -5.5m/s | -8.8°C | 5.4% | 516.4hPa | 2.7V | 00:00:00 | 02:34:22 | 00:00:00 | |
| OE5MMP-10 | 2026-08-30 13:04:09 | 48.35077 | 12.79942 | 86° | 47km/h | 5593m | -5.5m/s | -8.8°C | 5.0% | 516.0hPa | 2.7V | 00:00:00 | 02:34:21 | 00:00:00 | |
| OE5REO-15 | 2026-08-30 13:04:03 | 48.35071 | 12.79851 | 86° | 49km/h | 5621m | -5.5m/s | -9.0°C | 3.8% | 514.3hPa | 2.7V | 07:50:00 | 00:00:00 | 00:00:00 | |
| DO7DH-14 | 2026-08-30 13:04:02 | 48.35069 | 12.79814 | 85° | 51km/h | 5633m | -5.8m/s | -9.0°C | 3.9% | 513.4hPa | 2.7V | 00:00:00 | 02:34:14 | 00:00:00 | |
| DO3MHA-11 | 2026-08-30 13:04:00 | 48.35067 | 12.79777 | 86° | 49km/h | 5644m | -5.6m/s | -9.0°C | 4.1% | 512.7hPa | 2.7V | 07:49:00 | 02:34:12 | 00:00:00 | |
| OE5WHR-10 | 2026-08-30 13:03:59 | 48.35066 | 12.79758 | 85° | 49km/h | 5650m | -5.5m/s | -9.0°C | 4.2% | 512.3hPa | 2.7V | 07:49:00 | 00:00:00 | 00:00:00 | |
| DB0NH | 2026-08-30 13:03:56 | 48.35062 | 12.79703 | 85° | 47km/h | 5667m | -5.7m/s | -9.1°C | 4.2% | 511.2hPa | 2.7V | 00:00:00 | 02:34:08 | 00:00:00 | |
| OE5DRO-10 | 2026-08-30 13:03:54 | 48.35060 | 12.79666 | 84° | 47km/h | 5678m | -5.7m/s | -9.1°C | 4.1% | 510.4hPa | 2.7V | 00:00:00 | 00:00:00 | 00:00:00 | |
| OE5DXL-15 | 2026-08-30 13:03:52 | 48.35058 | 12.79629 | 84° | 47km/h | 5689m | -5.6m/s | -9.1°C | 4.0% | 509.7hPa | 2.7V | 00:00:00 | 00:00:00 | 00:00:00 | |
| DO3MHA-11 | 2026-08-30 13:03:50 | 48.35055 | 12.79592 | 84° | 49km/h | 5701m | -5.6m/s | -9.2°C | 4.9% | 509.0hPa | 2.7V | 00:00:00 | 02:34:02 | 00:00:00 | |
| OE5MMP-10 | 2026-08-30 13:03:49 | 48.35053 | 12.79574 | 83° | 47km/h | 5706m | -5.6m/s | -9.3°C | 5.2% | 508.6hPa | 2.7V | 00:00:00 | 02:34:01 | 00:00:00 | |
| OE5REO-15 | 2026-08-30 13:03:47 | 48.35052 | 12.79556 | 84° | 49km/h | 5712m | -5.5m/s | -9.3°C | 5.5% | 508.3hPa | 2.6V | 07:50:00 | 00:00:00 | 00:00:00 | |
| NBG1-10 | 2026-08-30 13:03:42 | 48.35042 | 12.79446 | 84° | 49km/h | 5745m | -5.5m/s | -9.5°C | 7.5% | 506.1hPa | 2.6V | 00:00:00 | 02:33:54 | 00:00:00 | |
| DO3MHA-11 | 2026-08-30 13:03:40 | 48.35039 | 12.79410 | 84° | 47km/h | 5756m | -5.5m/s | -9.6°C | 8.1% | 505.4hPa | 2.6V | 00:00:00 | 02:33:52 | 00:00:00 | |
| OE5MMP-10 | 2026-08-30 13:03:39 | 48.35038 | 12.79392 | 83° | 47km/h | 5762m | -5.5m/s | -9.7°C | 8.2% | 504.9hPa | 2.6V | 00:00:00 | 02:33:51 | 00:00:00 | |
| OE5WHR-10 | 2026-08-30 13:03:38 | 48.35036 | 12.79374 | 83° | 47km/h | 5768m | -5.5m/s | -9.7°C | 8.2% | 504.6hPa | 2.6V | 00:00:00 | 02:33:50 | 00:00:00 | |
| OE5DRO-10 | 2026-08-30 13:03:35 | 48.35031 | 12.79321 | 83° | 49km/h | 5784m | -5.5m/s | -9.8°C | 8.3% | 503.5hPa | 2.6V | 00:00:00 | 00:00:00 | 00:00:00 | |
| OE5REO-15 | 2026-08-30 13:03:31 | 48.35027 | 12.79267 | 84° | 49km/h | 5801m | -5.5m/s | -10.0°C | 8.0% | 502.5hPa | 2.6V | 07:51:00 | 00:00:00 | 00:00:00 | |
| DO3MHA-11 | 2026-08-30 13:03:30 | 48.35023 | 12.79230 | 81° | 49km/h | 5812m | -5.3m/s | -10.0°C | 8.4% | 501.7hPa | 2.6V | 00:00:00 | 02:33:42 | 00:00:00 | |
| OE5MMP-10 | 2026-08-30 13:03:29 | 48.35021 | 12.79212 | 82° | 49km/h | 5817m | -5.3m/s | -10.1°C | 8.5% | 501.3hPa | 2.6V | 00:00:00 | 02:33:41 | 00:00:00 | |
| DB0NH | 2026-08-30 13:03:26 | 48.35016 | 12.79158 | 82° | 51km/h | 5834m | -5.4m/s | 0°C | 0% | 0hPa | 2.6V | 00:00:00 | 02:33:38 | 00:00:00 | |
| OE5DXL-15 | 2026-08-30 13:03:22 | 48.35009 | 12.79085 | 83° | 51km/h | 5855m | -5.6m/s | -10.4°C | 8.6% | 498.8hPa | 2.6V | 07:50:00 | 00:00:00 | 00:00:00 | |
| DO3MHA-11 | 2026-08-30 13:03:20 | 48.35005 | 12.79047 | 82° | 51km/h | 5866m | -5.5m/s | -10.5°C | 8.7% | 498.2hPa | 2.5V | 00:00:00 | 02:33:32 | 00:00:00 | |
| OE5MMP-10 | 2026-08-30 13:03:18 | 48.35002 | 12.79010 | 82° | 51km/h | 5877m | -5.3m/s | -10.6°C | 8.7% | 497.4hPa | 2.5V | 00:00:00 | 02:33:30 | 00:00:00 | |
| OE5WHR-10 | 2026-08-30 13:03:17 | 48.35000 | 12.78991 | 82° | 51km/h | 5882m | -5.6m/s | -10.6°C | 8.7% | 497.1hPa | 2.6V | 00:00:00 | 00:00:00 | 00:00:00 | |
| OE5DRO-10 | 2026-08-30 13:03:16 | 48.34999 | 12.78972 | 83° | 51km/h | 5888m | -5.3m/s | -10.7°C | 8.7% | 496.7hPa | 2.6V | 00:00:00 | 00:00:00 | 00:00:00 | |
| OE3JTB-15 | 2026-08-30 13:03:11 | 48.34990 | 12.78877 | 83° | 51km/h | 5915m | -5.2m/s | -10.9°C | 8.7% | 494.9hPa | 2.6V | 00:00:00 | 02:33:23 | 00:00:00 | |
| DO3MHA-11 | 2026-08-30 13:03:10 | 48.34988 | 12.78858 | 82° | 51km/h | 5920m | -5.4m/s | -11.0°C | 8.7% | 494.6hPa | 2.6V | 00:00:00 | 02:33:22 | 00:00:00 | |
| NBG1-10 | 2026-08-30 13:03:09 | 48.34986 | 12.78838 | 82° | 51km/h | 5926m | -5.5m/s | -11.0°C | 8.6% | 494.3hPa | 2.6V | 00:00:00 | 02:33:21 | 00:00:00 | |
| OE5MMP-10 | 2026-08-30 13:03:08 | 48.34984 | 12.78819 | 83° | 51km/h | 5931m | -5.3m/s | -11.0°C | 8.7% | 493.9hPa | 2.5V | 00:00:00 | 02:33:20 | 00:00:00 | |
| DL6DJ-15 | 2026-08-30 13:03:05 | 48.34977 | 12.78742 | 83° | 49km/h | 5953m | -5.4m/s | -11.3°C | 8.3% | 492.6hPa | 2.5V | 00:00:00 | 00:00:00 | 00:00:00 | |
| PG1ADW-2 | 2026-08-30 13:03:02 | 48.34974 | 12.78704 | 84° | 51km/h | 5964m | -5.3m/s | -11.4°C | 8.7% | 491.9hPa | 2.5V | 00:00:00 | 02:33:14 | 00:00:00 | |
| OE5REO-15 | 2026-08-30 13:03:01 | 48.34974 | 12.78704 | 84° | 51km/h | 5964m | -5.4m/s | -11.4°C | 8.3% | 491.9hPa | 2.5V | 07:51:00 | 00:00:00 | 00:00:00 | |
| DO3MHA-11 | 2026-08-30 13:03:00 | 48.34971 | 12.78665 | 84° | 51km/h | 5974m | -5.4m/s | -11.4°C | 8.7% | 491.2hPa | 2.5V | 00:00:00 | 02:33:12 | 00:00:00 | |
| OE5MMP-10 | 2026-08-30 13:02:58 | 48.34968 | 12.78626 | 85° | 51km/h | 5985m | -5.3m/s | -11.5°C | 8.7% | 490.5hPa | 2.6V | 00:00:00 | 02:33:10 | 00:00:00 | |
| OE5DRO-10 | 2026-08-30 13:02:57 | 48.34967 | 12.78607 | 84° | 51km/h | 5991m | -5.3m/s | -11.6°C | 8.8% | 490.1hPa | 2.6V | 00:00:00 | 00:00:00 | 00:00:00 | |
| OE5WHR-10 | 2026-08-30 13:02:56 | 48.34965 | 12.78587 | 85° | 51km/h | 5996m | -5.4m/s | -11.6°C | 8.8% | 489.7hPa | 2.6V | 00:00:00 | 00:00:00 | 00:00:00 | |
| OE5DXL-15 | 2026-08-30 13:02:52 | 48.34960 | 12.78510 | 85° | 53km/h | 6017m | -5.2m/s | -11.7°C | 8.7% | 488.4hPa | 2.6V | 00:00:00 | 00:00:00 | 00:00:00 | |
| DO3MHA-11 | 2026-08-30 13:02:50 | 48.34957 | 12.78472 | 84° | 51km/h | 6028m | -5.2m/s | -11.8°C | 8.7% | 487.7hPa | 2.6V | 00:00:00 | 02:33:02 | 00:00:00 | |
| OE5MMP-10 | 2026-08-30 13:02:48 | 48.34954 | 12.78434 | 82° | 51km/h | 6039m | -5.3m/s | -11.9°C | 8.7% | 487.0hPa | 2.6V | 00:00:00 | 02:33:00 | 00:00:00 | |
| OE5REO-15 | 2026-08-30 13:02:46 | 48.34952 | 12.78415 | 83° | 51km/h | 6044m | -5.3m/s | -12.0°C | 8.3% | 486.7hPa | 2.5V | 07:52:00 | 00:00:00 | 00:00:00 | |
| PG1ADW-2 | 2026-08-30 13:02:42 | 48.34942 | 12.78319 | 83° | 53km/h | 6070m | -5.1m/s | -12.1°C | 8.3% | 485.0hPa | 2.5V | 00:00:00 | 00:00:00 | 00:00:00 | |
| DO3MHA-11 | 2026-08-30 13:02:40 | 48.34938 | 12.78280 | 83° | 53km/h | 6081m | -5.2m/s | -12.1°C | 8.3% | 484.3hPa | 2.5V | 07:51:00 | 02:32:52 | 00:00:00 | |
| OE5MMP-10 | 2026-08-30 13:02:38 | 48.34935 | 12.78241 | 83° | 53km/h | 6091m | -5.1m/s | -12.2°C | 8.4% | 483.6hPa | 2.5V | 07:51:00 | 02:32:50 | 00:00:00 | |
| OE5WHR-10 | 2026-08-30 13:02:35 | 48.34930 | 12.78180 | 82° | 55km/h | 6107m | -5.1m/s | -12.2°C | 8.4% | 482.7hPa | 2.5V | 00:00:00 | 02:32:47 | 00:00:00 | |
| DB0NH | 2026-08-30 13:02:34 | 48.34926 | 12.78140 | 83° | 53km/h | 6117m | -5.0m/s | 0°C | 0% | 0hPa | 2.5V | 00:00:00 | 02:32:45 | 00:00:00 | |
| DO3MHA-11 | 2026-08-30 13:02:30 | 48.34922 | 12.78080 | 86° | 55km/h | 6132m | -5.2m/s | -12.4°C | 7.6% | 481.1hPa | 2.5V | 00:00:00 | 02:32:42 | 00:00:00 | |
| OE5MMP-10 | 2026-08-30 13:02:28 | 48.34920 | 12.78039 | 88° | 55km/h | 6142m | -5.0m/s | -12.4°C | 7.3% | 480.3hPa | 2.5V | 00:00:00 | 02:32:40 | 00:00:00 | |
| OE5DXL-15 | 2026-08-30 13:02:22 | 48.34916 | 12.77914 | 86° | 53km/h | 6173m | -5.4m/s | -12.7°C | 6.8% | 478.4hPa | 2.5V | 00:00:00 | 00:00:00 | 00:00:00 | |
| DO3MHA-11 | 2026-08-30 13:02:20 | 48.34913 | 12.77872 | 85° | 55km/h | 6184m | -5.0m/s | -12.7°C | 6.5% | 477.8hPa | 2.5V | 00:00:00 | 02:32:32 | 00:00:00 | |
| OE5DRO-10 | 2026-08-30 13:02:19 | 48.34912 | 12.77852 | 84° | 53km/h | 6189m | -5.0m/s | -12.8°C | 6.4% | 477.5hPa | 2.5V | 00:00:00 | 00:00:00 | 00:00:00 | |
| OE5MMP-10 | 2026-08-30 13:02:18 | 48.34910 | 12.77831 | 85° | 55km/h | 6194m | -5.1m/s | -12.8°C | 6.3% | 477.2hPa | 2.6V | 00:00:00 | 02:32:30 | 00:00:00 | |
| OE5WHR-10 | 2026-08-30 13:02:14 | 48.34905 | 12.77750 | 85° | 53km/h | 6215m | -5.2m/s | -12.9°C | 6.4% | 475.9hPa | 2.5V | 00:00:00 | 00:00:00 | 00:00:00 | |
| OE3JTB-15 | 2026-08-30 13:02:13 | 48.34904 | 12.77729 | 85° | 53km/h | 6220m | -5.3m/s | -13.0°C | 6.4% | 475.5hPa | 2.5V | 00:00:00 | 00:00:00 | 00:00:00 | |
| DO3MHA-11 | 2026-08-30 13:02:10 | 48.34899 | 12.77667 | 84° | 53km/h | 6236m | -5.3m/s | -13.1°C | 6.5% | 474.6hPa | 2.5V | 00:00:00 | 02:32:22 | 00:00:00 | |
| OE5MMP-10 | 2026-08-30 13:02:08 | 48.34897 | 12.77627 | 84° | 53km/h | 6246m | -5.0m/s | -13.2°C | 6.5% | 473.9hPa | 2.5V | 00:00:00 | 02:32:20 | 00:00:00 | |
| PG1ADW-2 | 2026-08-30 13:02:02 | 48.34888 | 12.77507 | 85° | 53km/h | 6277m | -4.8m/s | -13.3°C | 6.6% | 472.0hPa | 2.5V | 00:00:00 | 00:00:00 | 00:00:00 | |
| DO3MHA-11 | 2026-08-30 13:02:00 | 48.34885 | 12.77467 | 84° | 53km/h | 6287m | -5.1m/s | -13.4°C | 6.6% | 471.4hPa | 2.5V | 00:00:00 | 02:32:12 | 00:00:00 | |
| OE5REO-15 | 2026-08-30 13:01:59 | 48.34885 | 12.77467 | 84° | 53km/h | 6287m | -5.1m/s | -13.4°C | 6.2% | 471.4hPa | 2.6V | 07:52:00 | 00:00:00 | 00:00:00 | |
| OE5MMP-10 | 2026-08-30 13:01:58 | 48.34882 | 12.77427 | 84° | 53km/h | 6297m | -5.1m/s | -13.5°C | 6.6% | 470.8hPa | 2.6V | 00:00:00 | 02:32:10 | 00:00:00 | |
| OE5WHR-10 | 2026-08-30 13:01:53 | 48.34873 | 12.77327 | 83° | 53km/h | 6323m | -5.1m/s | -13.6°C | 6.7% | 469.2hPa | 2.6V | 00:00:00 | 00:00:00 | 00:00:00 | |
| OE5DXL-15 | 2026-08-30 13:01:52 | 48.34871 | 12.77307 | 83° | 53km/h | 6328m | -5.0m/s | -13.7°C | 6.6% | 468.9hPa | 2.6V | 00:00:00 | 00:00:00 | 00:00:00 | |
| DO3MHA-11 | 2026-08-30 13:01:50 | 48.34868 | 12.77267 | 85° | 51km/h | 6338m | -4.9m/s | -13.7°C | 6.6% | 468.3hPa | 2.6V | 00:00:00 | 02:32:02 | 00:00:00 | |
| OE5MMP-10 | 2026-08-30 13:01:48 | 48.34865 | 12.77227 | 85° | 51km/h | 6348m | -4.8m/s | -13.8°C | 6.7% | 467.6hPa | 2.6V | 00:00:00 | 02:32:00 | 00:00:00 | |
| OE3JTB-15 | 2026-08-30 13:01:44 | 48.34860 | 12.77149 | 84° | 53km/h | 6368m | -4.7m/s | -14.0°C | 6.8% | 466.4hPa | 2.5V | 00:00:00 | 02:31:56 | 00:00:00 | |
| OE5REO-15 | 2026-08-30 13:01:43 | 48.34860 | 12.77149 | 85° | 51km/h | 6368m | -4.8m/s | -14.0°C | 6.4% | 466.5hPa | 2.5V | 07:52:00 | 00:00:00 | 00:00:00 | |
| PG1ADW-2 | 2026-08-30 13:01:42 | 48.34857 | 12.77110 | 85° | 53km/h | 6378m | -4.7m/s | -14.0°C | 6.5% | 465.8hPa | 2.5V | 00:00:00 | 02:31:54 | 00:00:00 | |
| OE5DRO-10 | 2026-08-30 13:01:41 | 48.34856 | 12.77091 | 83° | 53km/h | 6383m | -4.8m/s | -14.1°C | 6.5% | 465.6hPa | 2.5V | 00:00:00 | 00:00:00 | 00:00:00 | |
| DO3MHA-11 | 2026-08-30 13:01:40 | 48.34854 | 12.77071 | 84° | 53km/h | 6387m | -5.0m/s | -14.1°C | 6.4% | 465.2hPa | 2.5V | 00:00:00 | 02:31:52 | 00:00:00 | |
| OE5MMP-10 | 2026-08-30 13:01:38 | 48.34851 | 12.77031 | 82° | 53km/h | 6397m | -4.9m/s | -14.2°C | 6.1% | 464.6hPa | 2.5V | 00:00:00 | 02:31:50 | 00:00:00 | |
| OE5WHR-10 | 2026-08-30 13:01:32 | 48.34841 | 12.76910 | 84° | 53km/h | 6427m | -4.9m/s | -14.4°C | 7.3% | 462.8hPa | 2.5V | 00:00:00 | 02:31:44 | 00:00:00 | |
| DL6DJ-15 | 2026-08-30 13:01:31 | 48.34840 | 12.76890 | 84° | 53km/h | 6432m | -4.8m/s | -14.4°C | 6.3% | 462.6hPa | 2.5V | 00:00:00 | 00:00:00 | 00:00:00 | |
| DO3MHA-11 | 2026-08-30 13:01:30 | 48.34838 | 12.76869 | 85° | 53km/h | 6437m | -4.9m/s | -14.4°C | 6.6% | 462.2hPa | 2.5V | 00:00:00 | 02:31:42 | 00:00:00 | |
| NBG1-10 | 2026-08-30 13:01:29 | 48.34837 | 12.76849 | 85° | 55km/h | 6441m | -4.7m/s | -14.4°C | 6.5% | 461.9hPa | 2.6V | 00:00:00 | 02:31:41 | 00:00:00 | |
| OE5MMP-10 | 2026-08-30 13:01:28 | 48.34836 | 12.76828 | 85° | 53km/h | 6446m | -4.7m/s | -14.5°C | 6.5% | 461.6hPa | 2.6V | 00:00:00 | 02:31:40 | 00:00:00 | |
| OE5REO-15 | 2026-08-30 13:01:27 | 48.34836 | 12.76828 | 86° | 55km/h | 6446m | -4.8m/s | -14.5°C | 6.1% | 461.6hPa | 2.6V | 07:52:00 | 00:00:00 | 00:00:00 | |
| PG1ADW-2 | 2026-08-30 13:01:22 | 48.34828 | 12.76706 | 86° | 53km/h | 6476m | -4.8m/s | -14.6°C | 5.9% | 459.9hPa | 2.6V | 00:00:00 | 00:00:00 | 00:00:00 | |
| DO3MHA-11 | 2026-08-30 13:01:20 | 48.34826 | 12.76666 | 86° | 53km/h | 6486m | -5.1m/s | -14.7°C | 6.0% | 459.2hPa | 2.5V | 07:52:00 | 02:31:32 | 00:00:00 | |
| OE5MMP-10 | 2026-08-30 13:01:18 | 48.34824 | 12.76625 | 86° | 55km/h | 6496m | -5.1m/s | -14.7°C | 5.8% | 458.6hPa | 2.5V | 07:52:00 | 02:31:30 | 00:00:00 | |
| OE3JTB-15 | 2026-08-30 13:01:15 | 48.34821 | 12.76564 | 87° | 55km/h | 6511m | -5.1m/s | -14.8°C | 5.8% | 457.8hPa | 2.6V | 07:52:00 | 00:00:00 | 00:00:00 | |
| OE5REO-15 | 2026-08-30 13:01:12 | 48.34820 | 12.76523 | 88° | 55km/h | 6521m | -5.0m/s | -14.9°C | 5.7% | 457.1hPa | 2.5V | 07:52:00 | 00:00:00 | 00:00:00 | |
| OE5WHR-10 | 2026-08-30 13:01:11 | 48.34819 | 12.76482 | 87° | 55km/h | 6531m | -5.1m/s | -15.0°C | 6.5% | 456.6hPa | 2.5V | 07:52:00 | 00:00:00 | 00:00:00 | |
| DO3MHA-11 | 2026-08-30 13:01:10 | 48.34818 | 12.76462 | 87° | 55km/h | 6536m | -4.9m/s | -14.9°C | 6.6% | 456.2hPa | 2.6V | 00:00:00 | 02:31:22 | 00:00:00 | |
| OE5MMP-10 | 2026-08-30 13:01:08 | 48.34816 | 12.76421 | 87° | 55km/h | 6546m | -4.8m/s | -15.0°C | 6.9% | 455.6hPa | 2.6V | 00:00:00 | 02:31:20 | 00:00:00 | |
| OE5DRO-10 | 2026-08-30 13:01:03 | 48.34813 | 12.76319 | 89° | 55km/h | 6571m | -4.8m/s | -15.2°C | 7.2% | 454.1hPa | 2.6V | 00:00:00 | 00:00:00 | 00:00:00 | |
| PG1ADW-2 | 2026-08-30 13:01:02 | 48.34812 | 12.76298 | 88° | 55km/h | 6576m | -5.0m/s | -15.2°C | 7.3% | 453.8hPa | 2.6V | 00:00:00 | 00:00:00 | 00:00:00 | |
| DO3MHA-11 | 2026-08-30 13:01:00 | 48.34812 | 12.76257 | 90° | 55km/h | 6586m | -5.2m/s | -15.3°C | 7.6% | 453.3hPa | 2.6V | 00:00:00 | 02:31:12 | 00:00:00 | |
| OE5MMP-10 | 2026-08-30 13:00:58 | 48.34811 | 12.76216 | 90° | 55km/h | 6596m | -4.8m/s | -15.4°C | 8.1% | 452.7hPa | 2.6V | 00:00:00 | 02:31:10 | 00:00:00 | |
| OE5REO-15 | 2026-08-30 13:00:57 | 48.34811 | 12.76216 | 90° | 55km/h | 6596m | -4.9m/s | -15.4°C | 7.6% | 452.7hPa | 2.6V | 07:53:00 | 00:00:00 | 00:00:00 | |
| OE5DXL-15 | 2026-08-30 13:00:52 | 48.34810 | 12.76092 | 91° | 55km/h | 6626m | -5.0m/s | -15.6°C | 10.7% | 450.9hPa | 2.6V | 00:00:00 | 00:00:00 | 00:00:00 | |
| OE5WHR-10 | 2026-08-30 13:00:50 | 48.34810 | 12.76050 | 91° | 55km/h | 6636m | -5.0m/s | -15.6°C | 11.0% | 450.2hPa | 2.6V | 00:00:00 | 00:00:00 | 00:00:00 | |
| OE5MMP-10 | 2026-08-30 13:00:48 | 48.34810 | 12.76008 | 90° | 55km/h | 6646m | -4.8m/s | -15.7°C | 11.3% | 449.6hPa | 2.6V | 00:00:00 | 02:31:00 | 00:00:00 | |
| OE3JTB-15 | 2026-08-30 13:00:46 | 48.34810 | 12.75967 | 90° | 55km/h | 6656m | -4.9m/s | -15.8°C | 11.1% | 449.0hPa | 2.6V | 00:00:00 | 00:00:00 | 00:00:00 | |
| OE5DRO-10 | 2026-08-30 13:00:44 | 48.34810 | 12.75925 | 90° | 55km/h | 6666m | -4.9m/s | -15.9°C | 10.5% | 448.5hPa | 2.6V | 00:00:00 | 00:00:00 | 00:00:00 | |
| PG1ADW-2 | 2026-08-30 13:00:42 | 48.34809 | 12.75884 | 89° | 55km/h | 6676m | -5.0m/s | -15.9°C | 10.1% | 447.9hPa | 2.6V | 00:00:00 | 00:00:00 | 00:00:00 | |
| OE5FHM-15 | 2026-08-30 13:00:40 | 48.34809 | 12.75842 | 91° | 57km/h | 6686m | -5.1m/s | -16.1°C | 10.5% | 447.2hPa | 2.6V | 00:00:00 | 02:30:52 | 00:00:00 | |
| OE5MMP-10 | 2026-08-30 13:00:38 | 48.34809 | 12.75801 | 91° | 55km/h | 6696m | -4.9m/s | -16.2°C | 11.1% | 446.6hPa | 2.6V | 00:00:00 | 02:30:50 | 00:00:00 | |
| OE5WHR-10 | 2026-08-30 13:00:29 | 48.34809 | 12.75612 | 92° | 57km/h | 6741m | -5.0m/s | -16.6°C | 12.2% | 444.0hPa | 2.6V | 00:00:00 | 02:30:41 | 00:00:00 | |
| DO3MHA-11 | 2026-08-30 13:00:28 | 48.34810 | 12.75592 | 92° | 57km/h | 6746m | -4.9m/s | -16.6°C | 12.2% | 443.7hPa | 2.6V | 00:00:00 | 02:30:40 | 00:00:00 | |
| OE5REO-15 | 2026-08-30 13:00:26 | 48.34810 | 12.75570 | 93° | 57km/h | 6750m | -5.0m/s | -16.7°C | 11.7% | 443.4hPa | 2.5V | 07:53:00 | 00:00:00 | 00:00:00 | |
| OE5DRO-10 | 2026-08-30 13:00:25 | 48.34811 | 12.75527 | 93° | 57km/h | 6760m | -4.8m/s | -16.7°C | 12.1% | 442.8hPa | 2.5V | 00:00:00 | 00:00:00 | 00:00:00 | |
| OE5DXL-15 | 2026-08-30 13:00:22 | 48.34812 | 12.75463 | 92° | 57km/h | 6775m | -5.0m/s | -16.9°C | 12.6% | 442.0hPa | 2.6V | 00:00:00 | 00:00:00 | 00:00:00 | |
| DO3MHA-11 | 2026-08-30 13:00:18 | 48.34813 | 12.75377 | 91° | 57km/h | 6795m | -4.9m/s | -17.0°C | 12.7% | 440.8hPa | 2.6V | 00:00:00 | 02:30:30 | 00:00:00 | |
| OE3JTB-15 | 2026-08-30 13:00:17 | 48.34813 | 12.75356 | 91° | 58km/h | 6800m | -4.9m/s | -17.1°C | 12.7% | 440.4hPa | 2.6V | 00:00:00 | 02:30:29 | 00:00:00 | |
| OE5REO-15 | 2026-08-30 13:00:11 | 48.34814 | 12.75249 | 91° | 57km/h | 6825m | -4.9m/s | -17.3°C | 12.1% | 439.1hPa | 2.6V | 07:54:00 | 00:00:00 | 00:00:00 | |
| OE5FHM-15 | 2026-08-30 13:00:10 | 48.34814 | 12.75206 | 90° | 58km/h | 6835m | -5.0m/s | -17.4°C | 12.7% | 438.4hPa | 2.6V | 00:00:00 | 02:30:22 | 00:00:00 | |
| OE5MMP-10 | 2026-08-30 13:00:08 | 48.34814 | 12.75163 | 90° | 57km/h | 6845m | -4.8m/s | -17.5°C | 12.7% | 437.9hPa | 2.6V | 00:00:00 | 02:30:20 | 00:00:00 | |
| OE5DRO-10 | 2026-08-30 13:00:06 | 48.34812 | 12.75077 | 89° | 58km/h | 6865m | -5.0m/s | -17.6°C | 12.6% | 436.6hPa | 2.6V | 00:00:00 | 00:00:00 | 00:00:00 | |
| PG1ADW-2 | 2026-08-30 13:00:02 | 48.34811 | 12.75034 | 89° | 58km/h | 6875m | -5.0m/s | -17.6°C | 12.4% | 436.2hPa | 2.6V | 00:00:00 | 00:00:00 | 00:00:00 | |
| DO3MHA-11 | 2026-08-30 12:59:58 | 48.34808 | 12.74946 | 87° | 58km/h | 6895m | -5.0m/s | -17.7°C | 11.9% | 434.9hPa | 2.6V | 07:54:00 | 02:30:10 | 00:00:00 | |
| OE5REO-15 | 2026-08-30 12:59:55 | 48.34807 | 12.74902 | 88° | 58km/h | 6905m | -5.0m/s | -17.9°C | 11.1% | 434.4hPa | 2.5V | 07:54:00 | 00:00:00 | 00:00:00 | |
| OE5DXL-15 | 2026-08-30 12:59:52 | 48.34803 | 12.74812 | 85° | 62km/h | 6926m | -5.1m/s | -17.9°C | 11.8% | 433.1hPa | 2.5V | 00:00:00 | 00:00:00 | 00:00:00 | |
| OE5MMP-10 | 2026-08-30 12:59:48 | 48.34798 | 12.74722 | 86° | 60km/h | 6945m | -4.9m/s | -18.1°C | 11.0% | 432.0hPa | 2.5V | 00:00:00 | 02:30:00 | 00:00:00 | |
| OE5WHR-10 | 2026-08-30 12:59:47 | 48.34797 | 12.74699 | 86° | 62km/h | 6951m | -5.0m/s | -18.1°C | 10.3% | 431.7hPa | 2.5V | 00:00:00 | 00:00:00 | 00:00:00 | |
| NBG1-10 | 2026-08-30 12:59:43 | 48.34791 | 12.74609 | 84° | 62km/h | 6970m | -5.1m/s | -18.3°C | 8.7% | 430.5hPa | 2.5V | 00:00:00 | 02:29:55 | 00:00:00 | |
| PG1ADW-2 | 2026-08-30 12:59:42 | 48.34790 | 12.74586 | 84° | 62km/h | 6975m | -4.9m/s | -18.3°C | 8.8% | 430.2hPa | 2.6V | 07:54:00 | 00:00:00 | 00:00:00 | |
| OE5FHM-15 | 2026-08-30 12:59:40 | 48.34786 | 12.74540 | 84° | 62km/h | 6985m | -5.1m/s | -18.4°C | 9.0% | 429.7hPa | 2.6V | 00:00:00 | 02:29:52 | 00:00:00 | |
| OE5REO-15 | 2026-08-30 12:59:39 | 48.34786 | 12.74540 | 84° | 62km/h | 6985m | -5.2m/s | -18.5°C | 8.3% | 429.7hPa | 2.6V | 07:54:00 | 00:00:00 | 00:00:00 | |
| DO3MHA-11 | 2026-08-30 12:59:38 | 48.34782 | 12.74493 | 83° | 62km/h | 6995m | -5.3m/s | -18.5°C | 9.1% | 429.1hPa | 2.6V | 00:00:00 | 02:29:50 | 00:00:00 | |
| OE5MMP-10 | 2026-08-30 12:59:28 | 48.34762 | 12.74258 | 82° | 62km/h | 7045m | -4.9m/s | -18.8°C | 11.0% | 426.1hPa | 2.6V | 00:00:00 | 02:29:40 | 00:00:00 | |
| OE5WHR-10 | 2026-08-30 12:59:26 | 48.34758 | 12.74211 | 82° | 60km/h | 7056m | -5.0m/s | -18.9°C | 10.6% | 425.6hPa | 2.6V | 00:00:00 | 02:29:38 | 00:00:00 | |
| OE5DRO-10 | 2026-08-30 12:59:24 | 48.34753 | 12.74164 | 82° | 60km/h | 7066m | -5.2m/s | -19.0°C | 10.7% | 425.1hPa | 2.6V | 07:54:00 | 00:00:00 | 00:00:00 | |
| OE5REO-15 | 2026-08-30 12:59:23 | 48.34754 | 12.74164 | 83° | 62km/h | 7066m | -5.3m/s | -19.0°C | 10.0% | 425.1hPa | 2.6V | 07:54:00 | 00:00:00 | 00:00:00 | |
| OE5DXL-15 | 2026-08-30 12:59:22 | 48.34749 | 12.74118 | 84° | 62km/h | 7077m | -5.0m/s | -19.1°C | 10.8% | 424.4hPa | 2.6V | 07:54:00 | 00:00:00 | 00:00:00 | |
| OE3JTB-15 | 2026-08-30 12:59:19 | 48.34744 | 12.74049 | 83° | 62km/h | 7092m | -5.1m/s | -19.2°C | 11.0% | 423.6hPa | 2.6V | 00:00:00 | 00:00:00 | 00:00:00 | |
| DO3MHA-11 | 2026-08-30 12:59:18 | 48.34742 | 12.74025 | 82° | 60km/h | 7097m | -5.0m/s | -19.3°C | 11.0% | 423.2hPa | 2.6V | 00:00:00 | 02:29:30 | 00:00:00 | |
| OE5FHM-15 | 2026-08-30 12:59:10 | 48.34723 | 12.73842 | 84° | 64km/h | 7138m | -5.0m/s | -19.6°C | 11.4% | 420.9hPa | 2.6V | 00:00:00 | 02:29:22 | 00:00:00 | |
| DO3MHA-11 | 2026-08-30 12:59:08 | 48.34719 | 12.73797 | 84° | 62km/h | 7148m | -4.8m/s | -19.7°C | 11.5% | 420.4hPa | 2.6V | 00:00:00 | 02:29:20 | 00:00:00 | |
| OE5REO-15 | 2026-08-30 12:59:07 | 48.34719 | 12.73797 | 85° | 60km/h | 7148m | -4.9m/s | -19.8°C | 10.7% | 420.4hPa | 2.6V | 07:55:00 | 00:00:00 | 00:00:00 | |
| OE5WHR-10 | 2026-08-30 12:59:05 | 48.34714 | 12.73727 | 83° | 64km/h | 7163m | -5.2m/s | -19.9°C | 11.6% | 419.5hPa | 2.6V | 00:00:00 | 00:00:00 | 00:00:00 | |
| DL6DJ-15 | 2026-08-30 12:58:56 | 48.34686 | 12.73416 | 81° | 64km/h | 7231m | -5.3m/s | -20.4°C | 10.5% | 415.7hPa | 2.6V | 00:00:00 | 00:00:00 | 00:00:00 | |
| OE5DXL-15 | 2026-08-30 12:58:53 | 48.34686 | 12.73416 | 82° | 66km/h | 7231m | -5.2m/s | -20.3°C | 11.4% | 415.7hPa | 2.6V | 00:00:00 | 00:00:00 | 00:00:00 | |
| OE3JTB-15 | 2026-08-30 12:58:50 | 48.34681 | 12.73368 | 82° | 66km/h | 7241m | -5.0m/s | -20.4°C | 10.9% | 415.0hPa | 2.6V | 00:00:00 | 02:29:02 | 00:00:00 | |
| OE5MMP-10 | 2026-08-30 12:58:48 | 48.34677 | 12.73319 | 83° | 66km/h | 7251m | -5.0m/s | -20.5°C | 9.8% | 414.5hPa | 2.6V | 00:00:00 | 02:29:00 | 00:00:00 | |
| OE5DRO-10 | 2026-08-30 12:58:46 | 48.34672 | 12.73269 | 83° | 66km/h | 7262m | -5.1m/s | -20.5°C | 9.2% | 414.0hPa | 2.6V | 00:00:00 | 00:00:00 | 00:00:00 | |
| OE5WHR-10 | 2026-08-30 12:58:44 | 48.34669 | 12.73220 | 84° | 68km/h | 7272m | -5.0m/s | -20.6°C | 10.2% | 413.3hPa | 2.6V | 00:00:00 | 00:00:00 | 00:00:00 | |
| PG1ADW-2 | 2026-08-30 12:58:42 | 48.34665 | 12.73170 | 84° | 68km/h | 7282m | -5.3m/s | -20.7°C | 11.7% | 412.7hPa | 2.6V | 00:00:00 | 00:00:00 | 00:00:00 | |
| OE5FHM-15 | 2026-08-30 12:58:40 | 48.34661 | 12.73120 | 83° | 68km/h | 7293m | -5.2m/s | -20.7°C | 11.9% | 412.2hPa | 2.6V | 00:00:00 | 02:28:52 | 00:00:00 | |
| DO3MHA-11 | 2026-08-30 12:58:38 | 48.34657 | 12.73070 | 84° | 66km/h | 7303m | -5.2m/s | -20.8°C | 12.2% | 411.6hPa | 2.5V | 07:55:00 | 02:28:50 | 00:00:00 | |
| NBG1-10 | 2026-08-30 12:58:37 | 48.34655 | 12.73045 | 84° | 68km/h | 7308m | -5.4m/s | -20.9°C | 12.3% | 411.3hPa | 2.5V | 00:00:00 | 02:28:49 | 00:00:00 | |
| OE5REO-15 | 2026-08-30 12:58:36 | 48.34655 | 12.73045 | 84° | 66km/h | 7308m | -5.4m/s | -21.0°C | 11.4% | 411.4hPa | 2.5V | 07:55:00 | 00:00:00 | 00:00:00 | |
| DO3MHA-11 | 2026-08-30 12:58:28 | 48.34638 | 12.72819 | 85° | 68km/h | 7355m | -5.4m/s | -21.3°C | 8.8% | 408.7hPa | 2.5V | 00:00:00 | 02:28:40 | 00:00:00 | |
| OE5DRO-10 | 2026-08-30 12:58:27 | 48.34636 | 12.72794 | 85° | 69km/h | 7361m | -5.3m/s | -21.3°C | 8.5% | 408.4hPa | 2.5V | 00:00:00 | 00:00:00 | 00:00:00 | |
| DL6DJ-15 | 2026-08-30 12:58:25 | 48.34631 | 12.72716 | 83° | 68km/h | 7376m | -5.2m/s | -21.4°C | 8.6% | 407.6hPa | 2.5V | 00:00:00 | 00:00:00 | 00:00:00 | |
| OE5WHR-10 | 2026-08-30 12:58:23 | 48.34629 | 12.72690 | 85° | 69km/h | 7382m | -5.2m/s | -21.5°C | 9.9% | 407.2hPa | 2.5V | 07:55:00 | 02:28:35 | 00:00:00 | |
| OE3JTB-15 | 2026-08-30 12:58:22 | 48.34626 | 12.72639 | 86° | 69km/h | 7392m | -5.1m/s | -21.5°C | 10.7% | 406.7hPa | 2.5V | 00:00:00 | 00:00:00 | 00:00:00 | |
| OE5REO-15 | 2026-08-30 12:58:20 | 48.34626 | 12.72639 | 86° | 69km/h | 7392m | -5.2m/s | -21.6°C | 9.9% | 406.7hPa | 2.6V | 07:56:00 | 00:00:00 | 00:00:00 | |
| DO3MHA-11 | 2026-08-30 12:58:18 | 48.34622 | 12.72562 | 87° | 69km/h | 7408m | -5.3m/s | -21.6°C | 9.4% | 405.8hPa | 2.6V | 00:00:00 | 02:28:30 | 00:00:00 | |
| OE5FHM-15 | 2026-08-30 12:58:10 | 48.34611 | 12.72354 | 85° | 69km/h | 7450m | -5.4m/s | -21.9°C | 10.7% | 403.5hPa | 2.6V | 00:00:00 | 02:28:22 | 00:00:00 | |
| DG1MFX-10 | 2026-08-30 12:58:09 | 48.34611 | 12.72354 | 85° | 69km/h | 7450m | -5.5m/s | -22.0°C | 9.8% | 403.5hPa | 2.6V | 07:56:00 | 00:00:00 | 00:00:00 | |
| DO3MHA-11 | 2026-08-30 12:58:08 | 48.34607 | 12.72302 | 84° | 69km/h | 7461m | -5.2m/s | -22.1°C | 11.5% | 402.9hPa | 2.6V | 00:00:00 | 02:28:20 | 00:00:00 | |
| DB0ND-19 | 2026-08-30 12:58:07 | 48.34604 | 12.72250 | 83° | 68km/h | 7471m | -5.1m/s | -22.2°C | 10.8% | 402.4hPa | 2.6V | 00:00:00 | 00:00:00 | 00:00:00 | |
| NBG1-10 | 2026-08-30 12:58:04 | 48.34601 | 12.72198 | 86° | 71km/h | 7482m | -5.2m/s | -22.2°C | 12.1% | 401.7hPa | 2.6V | 00:00:00 | 02:28:16 | 00:00:00 | |
| DL6DJ-15 | 2026-08-30 12:57:54 | 48.34586 | 12.71911 | 86° | 69km/h | 7539m | -5.3m/s | -22.6°C | 12.1% | 398.6hPa | 2.5V | 00:00:00 | 00:00:00 | 00:00:00 | |
| OE5DXL-15 | 2026-08-30 12:57:52 | 48.34584 | 12.71884 | 87° | 73km/h | 7545m | -5.1m/s | -22.6°C | 13.2% | 398.3hPa | 2.5V | 00:00:00 | 00:00:00 | 00:00:00 | |
| BAUMI2-15 | 2026-08-30 12:57:51 | 48.34584 | 12.71858 | 87° | 71km/h | 7550m | -5.3m/s | -22.7°C | 13.4% | 398.0hPa | 2.5V | 00:00:00 | 02:28:03 | 00:00:00 | |
| DG1MFX-10 | 2026-08-30 12:57:50 | 48.34583 | 12.71831 | 89° | 69km/h | 7555m | -5.3m/s | -22.7°C | 12.4% | 397.8hPa | 2.5V | 07:56:00 | 00:00:00 | 00:00:00 | |
| OE5DRO-10 | 2026-08-30 12:57:49 | 48.34582 | 12.71804 | 89° | 71km/h | 7561m | -5.3m/s | -22.8°C | 13.5% | 397.4hPa | 2.5V | 00:00:00 | 00:00:00 | 00:00:00 | |
| DO3MHA-11 | 2026-08-30 12:57:48 | 48.34582 | 12.71778 | 88° | 71km/h | 7566m | -5.1m/s | -22.8°C | 13.5% | 397.1hPa | 2.5V | 00:00:00 | 02:28:00 | 00:00:00 | |
| PG1ADW-2 | 2026-08-30 12:57:42 | 48.34576 | 12.71617 | 87° | 73km/h | 7597m | -5.1m/s | -22.9°C | 13.0% | 395.4hPa | 2.5V | 00:00:00 | 02:27:54 | 00:00:00 | |
| OE5WHR-10 | 2026-08-30 12:57:41 | 48.34575 | 12.71590 | 87° | 73km/h | 7602m | -5.3m/s | -23.0°C | 13.1% | 395.2hPa | 2.5V | 00:00:00 | 00:00:00 | 00:00:00 | |
| OE5FHM-15 | 2026-08-30 12:57:40 | 48.34574 | 12.71563 | 86° | 75km/h | 7608m | -5.3m/s | -23.0°C | 13.0% | 394.9hPa | 2.5V | 00:00:00 | 02:27:52 | 00:00:00 | |
| DO3MHA-11 | 2026-08-30 12:57:38 | 48.34572 | 12.71510 | 88° | 73km/h | 7618m | -5.3m/s | -23.1°C | 12.6% | 394.3hPa | 2.5V | 00:00:00 | 02:27:50 | 00:00:00 | |
| DB0ND-19 | 2026-08-30 12:57:36 | 48.34570 | 12.71428 | 89° | 73km/h | 7634m | -5.3m/s | -23.2°C | 11.5% | 393.6hPa | 2.5V | 00:00:00 | 00:00:00 | 00:00:00 | |
| OE5REO-15 | 2026-08-30 12:57:33 | 48.34570 | 12.71400 | 89° | 73km/h | 7640m | -5.3m/s | -23.3°C | 11.6% | 393.3hPa | 2.5V | 07:57:00 | 00:00:00 | 00:00:00 | |
| NBG1-10 | 2026-08-30 12:57:31 | 48.34568 | 12.71317 | 88° | 77km/h | 7655m | -4.9m/s | -23.3°C | 12.5% | 392.4hPa | 2.5V | 00:00:00 | 02:27:43 | 00:00:00 | |
| OE5DRO-10 | 2026-08-30 12:57:30 | 48.34567 | 12.71289 | 88° | 75km/h | 7660m | -5.4m/s | -23.4°C | 12.4% | 392.1hPa | 2.5V | 00:00:00 | 00:00:00 | 00:00:00 | |
| DO3MHA-11 | 2026-08-30 12:57:28 | 48.34565 | 12.71233 | 86° | 75km/h | 7671m | -5.2m/s | -23.5°C | 12.2% | 391.5hPa | 2.5V | 00:00:00 | 02:27:40 | 00:00:00 | |
| OE3JTB-15 | 2026-08-30 12:57:23 | 48.34559 | 12.71090 | 88° | 77km/h | 7697m | -5.1m/s | -23.6°C | 11.3% | 390.1hPa | 2.5V | 07:56:00 | 02:27:35 | 00:00:00 | |
| DO7DH-14 | 2026-08-30 12:57:22 | 48.34558 | 12.71062 | 87° | 80km/h | 7702m | -5.3m/s | -23.6°C | 11.3% | 389.9hPa | 2.5V | 00:00:00 | 02:27:34 | 00:00:00 | |
| DO3MHA-11 | 2026-08-30 12:57:18 | 48.34553 | 12.70947 | 86° | 77km/h | 7723m | -5.2m/s | -23.7°C | 11.4% | 388.7hPa | 2.5V | 07:56:00 | 02:27:30 | 00:00:00 | |
| BAUMI2-15 | 2026-08-30 12:57:17 | 48.34551 | 12.70919 | 85° | 77km/h | 7728m | -5.2m/s | -23.7°C | 11.6% | 388.4hPa | 2.5V | 00:00:00 | 02:27:29 | 00:00:00 | |
| OE5DRO-10 | 2026-08-30 12:57:11 | 48.34542 | 12.70745 | 86° | 77km/h | 7759m | -5.2m/s | -24.0°C | 11.9% | 386.8hPa | 2.5V | 00:00:00 | 00:00:00 | 00:00:00 | |
| OE5FHM-15 | 2026-08-30 12:57:10 | 48.34541 | 12.70717 | 86° | 78km/h | 7764m | -5.2m/s | -24.0°C | 11.9% | 386.5hPa | 2.5V | 07:56:00 | 02:27:22 | 00:00:00 | |
| DO3MHA-11 | 2026-08-30 12:57:08 | 48.34538 | 12.70659 | 86° | 77km/h | 7775m | -5.2m/s | -24.1°C | 12.0% | 385.9hPa | 2.5V | 00:00:00 | 02:27:20 | 00:00:00 | |
| DG1MFX-10 | 2026-08-30 12:57:07 | 48.34538 | 12.70659 | 87° | 77km/h | 7775m | -5.3m/s | -24.2°C | 11.0% | 386.0hPa | 2.5V | 07:57:00 | 00:00:00 | 00:00:00 | |
| BAUMI2-15 | 2026-08-30 12:57:04 | 48.34533 | 12.70544 | 87° | 78km/h | 7795m | -5.2m/s | -24.3°C | 12.1% | 384.8hPa | 2.5V | 00:00:00 | 02:27:16 | 00:00:00 | |
| OE5REO-15 | 2026-08-30 12:57:02 | 48.34532 | 12.70515 | 88° | 78km/h | 7800m | -5.2m/s | -24.4°C | 11.1% | 384.6hPa | 2.5V | 07:57:00 | 00:00:00 | 00:00:00 | |
| DF3TZ-5 | 2026-08-30 12:56:53 | 48.34516 | 12.70189 | 85° | 78km/h | 7857m | -5.3m/s | -24.8°C | 11.3% | 381.7hPa | 2.5V | 00:00:00 | 00:00:00 | 00:00:00 | |
| DL6DJ-15 | 2026-08-30 12:56:52 | 48.34505 | 12.69975 | 85° | 78km/h | 7893m | -5.3m/s | -25.2°C | 11.3% | 379.7hPa | 2.5V | 00:00:00 | 00:00:00 | 00:00:00 | |
| BAUMI2-15 | 2026-08-30 12:56:49 | 48.34512 | 12.70097 | 86° | 78km/h | 7872m | -5.0m/s | -24.9°C | 12.5% | 380.8hPa | 2.5V | 00:00:00 | 02:27:01 | 00:00:00 | |
| OE5MMP-10 | 2026-08-30 12:56:48 | 48.34510 | 12.70066 | 86° | 80km/h | 7878m | -5.2m/s | -25.0°C | 12.5% | 380.5hPa | 2.5V | 00:00:00 | 02:27:00 | 00:00:00 | |
| DG1MFX-10 | 2026-08-30 12:56:47 | 48.34508 | 12.70036 | 86° | 82km/h | 7883m | -5.3m/s | -25.1°C | 11.4% | 380.3hPa | 2.6V | 07:57:00 | 00:00:00 | 00:00:00 | |
| PG1ADW-2 | 2026-08-30 12:56:42 | 48.34501 | 12.69886 | 87° | 80km/h | 7909m | -4.9m/s | -25.2°C | 12.3% | 378.9hPa | 2.6V | 00:00:00 | 00:00:00 | 00:00:00 | |
| BAUMI2-15 | 2026-08-30 12:56:41 | 48.34499 | 12.69856 | 87° | 80km/h | 7914m | -5.2m/s | -25.3°C | 12.2% | 378.6hPa | 2.6V | 00:00:00 | 02:26:53 | 00:00:00 | |
| OE5FHM-15 | 2026-08-30 12:56:40 | 48.34498 | 12.69826 | 87° | 80km/h | 7919m | -5.2m/s | -25.3°C | 12.2% | 378.3hPa | 2.6V | 00:00:00 | 02:26:52 | 00:00:00 | |
| DO3MHA-11 | 2026-08-30 12:56:38 | 48.34496 | 12.69765 | 86° | 80km/h | 7929m | -5.4m/s | -25.5°C | 12.5% | 377.8hPa | 2.6V | 00:00:00 | 02:26:50 | 00:00:00 | |
| DB0NH | 2026-08-30 12:56:35 | 48.34491 | 12.69673 | 86° | 78km/h | 7945m | -5.4m/s | 0°C | 0% | 0hPa | 2.6V | 00:00:00 | 02:26:47 | 00:00:00 | |
| OE5DRO-10 | 2026-08-30 12:56:33 | 48.34488 | 12.69611 | 86° | 80km/h | 7956m | -5.2m/s | -25.7°C | 12.8% | 376.4hPa | 2.6V | 00:00:00 | 00:00:00 | 00:00:00 | |
| OE5REO-15 | 2026-08-30 12:56:31 | 48.34486 | 12.69580 | 87° | 82km/h | 7961m | -5.0m/s | -25.8°C | 11.6% | 376.2hPa | 2.5V | 07:57:00 | 00:00:00 | 00:00:00 | |
| DO3MHA-11 | 2026-08-30 12:56:28 | 48.34481 | 12.69458 | 87° | 82km/h | 7981m | -5.3m/s | -25.8°C | 12.3% | 375.1hPa | 2.5V | 00:00:00 | 02:26:40 | 00:00:00 | |
| NBG1-10 | 2026-08-30 12:56:25 | 48.34477 | 12.69364 | 87° | 80km/h | 7997m | -5.5m/s | -26.0°C | 12.7% | 374.3hPa | 2.6V | 00:00:00 | 02:26:37 | 00:00:00 | |
| OE5DXL-15 | 2026-08-30 12:56:22 | 48.34473 | 12.69272 | 87° | 78km/h | 8013m | -5.3m/s | -26.1°C | 12.9% | 373.5hPa | 2.6V | 00:00:00 | 00:00:00 | 00:00:00 | |
| DL6DJ-15 | 2026-08-30 12:56:20 | 48.34471 | 12.69210 | 85° | 80km/h | 8024m | -5.3m/s | -26.3°C | 12.0% | 372.9hPa | 2.6V | 00:00:00 | 00:00:00 | 00:00:00 | |
| DO7DH-14 | 2026-08-30 12:56:19 | 48.34469 | 12.69180 | 86° | 78km/h | 8029m | -5.4m/s | -26.2°C | 13.5% | 372.6hPa | 2.6V | 00:00:00 | 02:26:31 | 00:00:00 | |
| DO3MHA-11 | 2026-08-30 12:56:18 | 48.34468 | 12.69149 | 87° | 80km/h | 8035m | -5.1m/s | -26.3°C | 13.6% | 372.3hPa | 2.6V | 00:00:00 | 02:26:30 | 00:00:00 | |
| OE5WHR-10 | 2026-08-30 12:56:17 | 48.34466 | 12.69118 | 86° | 78km/h | 8040m | -5.2m/s | -26.4°C | 13.6% | 372.1hPa | 2.6V | 00:00:00 | 02:26:29 | 00:00:00 | |
| OE5REO-15 | 2026-08-30 12:56:15 | 48.34465 | 12.69088 | 87° | 80km/h | 8045m | -5.2m/s | -26.4°C | 12.1% | 371.8hPa | 2.6V | 07:57:00 | 00:00:00 | 00:00:00 | |
| OE5DRO-10 | 2026-08-30 12:56:14 | 48.34462 | 12.69027 | 87° | 78km/h | 8056m | -5.3m/s | -26.5°C | 13.0% | 371.3hPa | 2.6V | 00:00:00 | 00:00:00 | 00:00:00 | |
| OE5FHM-15 | 2026-08-30 12:56:10 | 48.34458 | 12.68907 | 88° | 78km/h | 8077m | -5.6m/s | -26.7°C | 13.1% | 370.1hPa | 2.6V | 00:00:00 | 02:26:22 | 00:00:00 | |
| DO3MHA-11 | 2026-08-30 12:56:08 | 48.34456 | 12.68846 | 87° | 78km/h | 8087m | -5.2m/s | -26.8°C | 12.9% | 369.6hPa | 2.6V | 00:00:00 | 02:26:20 | 00:00:00 | |
| DB0ND-19 | 2026-08-30 12:56:02 | 48.34448 | 12.68637 | 86° | 77km/h | 8124m | -5.2m/s | -27.2°C | 11.4% | 367.8hPa | 2.6V | 00:00:00 | 00:00:00 | 00:00:00 | |
| DF3TZ-5 | 2026-08-30 12:55:51 | 48.34439 | 12.68312 | 88° | 78km/h | 8183m | -5.1m/s | -27.7°C | -1.0% | -1.0hPa | 2.6V | 00:00:00 | 00:00:00 | 00:00:00 | |
| DO7DH-14 | 2026-08-30 12:55:49 | 48.34438 | 12.68282 | 89° | 77km/h | 8189m | -5.4m/s | -27.7°C | 11.6% | 364.4hPa | 2.6V | 00:00:00 | 02:26:01 | 00:00:00 | |
| DO3MHA-11 | 2026-08-30 12:55:48 | 48.34438 | 12.68252 | 90° | 78km/h | 8194m | -5.5m/s | -27.7°C | 11.5% | 364.1hPa | 2.6V | 00:00:00 | 02:26:00 | 00:00:00 | |
| DK5PH-5 | 2026-08-30 12:55:46 | 48.34437 | 12.68192 | 88° | 80km/h | 8205m | -5.4m/s | -27.8°C | 11.2% | 363.6hPa | 2.6V | 00:00:00 | 02:25:58 | 00:00:00 | |
| PG1ADW-2 | 2026-08-30 12:55:43 | 48.34435 | 12.68075 | 90° | 77km/h | 8227m | -5.4m/s | -28.0°C | 10.9% | 362.5hPa | 2.6V | 00:00:00 | 00:00:00 | 00:00:00 | |
| OE5FHM-15 | 2026-08-30 12:55:40 | 48.34435 | 12.68017 | 91° | 77km/h | 8237m | -5.2m/s | -28.1°C | 11.2% | 361.9hPa | 2.6V | 00:00:00 | 02:25:52 | 00:00:00 | |
| DO3MHA-11 | 2026-08-30 12:55:38 | 48.34435 | 12.67958 | 91° | 77km/h | 8248m | -5.6m/s | -28.1°C | 11.4% | 361.5hPa | 2.5V | 00:00:00 | 02:25:50 | 00:00:00 | |
| DG1MFX-10 | 2026-08-30 12:55:37 | 48.34436 | 12.67957 | 91° | 78km/h | 8248m | -5.6m/s | -28.2°C | 10.2% | 361.5hPa | 2.5V | 07:58:00 | 00:00:00 | 00:00:00 | |
| OE5DRO-10 | 2026-08-30 12:55:36 | 48.34436 | 12.67899 | 91° | 77km/h | 8259m | -5.4m/s | -28.2°C | 11.9% | 360.9hPa | 2.5V | 00:00:00 | 00:00:00 | 00:00:00 | |
| OE5WHR-10 | 2026-08-30 12:55:35 | 48.34436 | 12.67869 | 91° | 77km/h | 8264m | -5.4m/s | -28.2°C | 12.2% | 360.6hPa | 2.6V | 07:58:00 | 00:00:00 | 00:00:00 | |
| DB0NH | 2026-08-30 12:55:34 | 48.34436 | 12.67840 | 91° | 77km/h | 8270m | -5.4m/s | 0°C | 0% | 0hPa | 2.6V | 00:00:00 | 02:25:46 | 00:00:00 | |
| DB0ND-19 | 2026-08-30 12:55:31 | 48.34438 | 12.67725 | 93° | 77km/h | 8291m | -5.5m/s | -28.5°C | 11.0% | 359.3hPa | 2.6V | 00:00:00 | 00:00:00 | 00:00:00 | |
| DO3MHA-11 | 2026-08-30 12:55:28 | 48.34440 | 12.67666 | 93° | 77km/h | 8302m | -5.1m/s | -28.5°C | 12.4% | 358.7hPa | 2.6V | 00:00:00 | 02:25:40 | 00:00:00 | |
| OE3JTB-15 | 2026-08-30 12:55:27 | 48.34441 | 12.67637 | 93° | 77km/h | 8307m | -5.4m/s | -28.6°C | 12.5% | 358.4hPa | 2.5V | 00:00:00 | 00:00:00 | 00:00:00 | |
| PG1ADW-2 | 2026-08-30 12:55:22 | 48.34444 | 12.67493 | 93° | 77km/h | 8335m | -5.6m/s | -28.8°C | 12.6% | 357.1hPa | 2.5V | 00:00:00 | 00:00:00 | 00:00:00 | |
| DF3TZ-5 | 2026-08-30 12:55:20 | 48.34447 | 12.67407 | 92° | 75km/h | 8352m | -5.7m/s | -29.0°C | -1.0% | -1.0hPa | 2.6V | 00:00:00 | 00:00:00 | 00:00:00 | |
| DO7DH-14 | 2026-08-30 12:55:19 | 48.34447 | 12.67407 | 93° | 77km/h | 8352m | -5.7m/s | -28.9°C | 12.5% | 356.2hPa | 2.6V | 00:00:00 | 02:25:31 | 00:00:00 | |
| DO3MHA-11 | 2026-08-30 12:55:18 | 48.34448 | 12.67378 | 93° | 77km/h | 8357m | -5.6m/s | -29.0°C | 12.5% | 355.9hPa | 2.6V | 00:00:00 | 02:25:30 | 00:00:00 | |
| OE5DRO-10 | 2026-08-30 12:55:17 | 48.34449 | 12.67349 | 92° | 77km/h | 8363m | -5.6m/s | -29.0°C | 12.5% | 355.7hPa | 2.6V | 00:00:00 | 00:00:00 | 00:00:00 | |
| DG1MFX-10 | 2026-08-30 12:55:16 | 48.34449 | 12.67349 | 92° | 77km/h | 8363m | -5.6m/s | -29.1°C | 11.2% | 355.7hPa | 2.6V | 07:58:00 | 00:00:00 | 00:00:00 | |
| OE5WHR-10 | 2026-08-30 12:55:14 | 48.34451 | 12.67263 | 93° | 77km/h | 8380m | -5.7m/s | -29.1°C | 12.4% | 354.8hPa | 2.6V | 00:00:00 | 02:25:26 | 00:00:00 | |
| OE5REO-15 | 2026-08-30 12:55:12 | 48.34452 | 12.67234 | 94° | 75km/h | 8385m | -5.8m/s | -29.2°C | 11.1% | 354.6hPa | 2.6V | 07:58:00 | 00:00:00 | 00:00:00 | |
| OE5FHM-15 | 2026-08-30 12:55:10 | 48.34455 | 12.67148 | 94° | 78km/h | 8402m | -5.7m/s | -29.4°C | 12.5% | 353.8hPa | 2.6V | 00:00:00 | 02:25:22 | 00:00:00 | |
| DO3MHA-11 | 2026-08-30 12:55:08 | 48.34457 | 12.67090 | 93° | 77km/h | 8413m | -5.6m/s | -29.4°C | 12.7% | 353.2hPa | 2.6V | 00:00:00 | 02:25:20 | 00:00:00 | |
| DB0NH | 2026-08-30 12:55:04 | 48.34461 | 12.66974 | 94° | 77km/h | 8436m | -5.6m/s | 0°C | 0% | 0hPa | 2.6V | 00:00:00 | 02:25:16 | 00:00:00 | |
| DB0ND-19 | 2026-08-30 12:55:00 | 48.34466 | 12.66857 | 93° | 77km/h | 8458m | -5.7m/s | -29.8°C | 13.4% | 351.0hPa | 2.6V | 00:00:00 | 00:00:00 | 00:00:00 | |
| DL6DJ-15 | 2026-08-30 12:54:47 | 48.34475 | 12.66466 | 91° | 80km/h | 8533m | -5.6m/s | -30.4°C | 15.6% | 347.4hPa | 2.6V | 00:00:00 | 00:00:00 | 00:00:00 | |
| DB0UT-7 | 2026-08-30 12:54:46 | 48.34475 | 12.66435 | 92° | 80km/h | 8538m | -5.4m/s | -30.4°C | 17.5% | 347.0hPa | 2.6V | 00:00:00 | 02:24:58 | 00:00:00 | |
| PG1ADW-2 | 2026-08-30 12:54:42 | 48.34479 | 12.66313 | 94° | 80km/h | 8561m | -5.9m/s | -30.6°C | 18.8% | 345.9hPa | 2.6V | 00:00:00 | 00:00:00 | 00:00:00 | |
| OE5DRO-10 | 2026-08-30 12:54:40 | 48.34482 | 12.66221 | 93° | 80km/h | 8579m | -5.6m/s | -30.7°C | 19.2% | 345.0hPa | 2.6V | 00:00:00 | 00:00:00 | 00:00:00 | |
| DO3MHA-11 | 2026-08-30 12:54:38 | 48.34482 | 12.66190 | 93° | 80km/h | 8584m | -5.7m/s | -30.7°C | 19.4% | 344.8hPa | 2.6V | 07:59:00 | 02:24:50 | 00:00:00 | |
| DG1MFX-10 | 2026-08-30 12:54:35 | 48.34484 | 12.66128 | 93° | 80km/h | 8596m | -6.0m/s | -30.9°C | 17.6% | 344.3hPa | 2.6V | 00:00:00 | 00:00:00 | 00:00:00 | |
| OE5WHR-10 | 2026-08-30 12:54:32 | 48.34487 | 12.66008 | 94° | 80km/h | 8619m | -5.8m/s | -31.0°C | 20.7% | 343.1hPa | 2.6V | 00:00:00 | 00:00:00 | 00:00:00 | |
| OE3JTB-15 | 2026-08-30 12:54:29 | 48.34490 | 12.65916 | 94° | 80km/h | 8637m | -6.0m/s | -31.2°C | 21.7% | 342.3hPa | 2.6V | 00:00:00 | 02:24:41 | 00:00:00 | |
| DO3MHA-11 | 2026-08-30 12:54:28 | 48.34491 | 12.65885 | 93° | 80km/h | 8643m | -6.0m/s | -31.2°C | 22.1% | 342.0hPa | 2.6V | 00:00:00 | 02:24:40 | 00:00:00 | |
| OE5REO-15 | 2026-08-30 12:54:24 | 48.34493 | 12.65793 | 93° | 80km/h | 8661m | -6.0m/s | -31.4°C | 21.5% | 341.2hPa | 2.6V | 07:59:00 | 00:00:00 | 00:00:00 | |
| PG1ADW-2 | 2026-08-30 12:54:22 | 48.34496 | 12.65703 | 94° | 82km/h | 8679m | -5.7m/s | -31.5°C | 26.4% | 340.2hPa | 2.6V | 07:59:00 | 00:00:00 | 00:00:00 | |
| OE5DRO-10 | 2026-08-30 12:54:20 | 48.34499 | 12.65643 | 94° | 82km/h | 8690m | -5.8m/s | -31.6°C | 28.7% | 339.7hPa | 2.5V | 07:59:00 | 00:00:00 | 00:00:00 | |
| BAUMI2-15 | 2026-08-30 12:54:19 | 48.34500 | 12.65613 | 94° | 82km/h | 8696m | -5.6m/s | -31.7°C | 28.3% | 339.4hPa | 2.5V | 00:00:00 | 02:24:31 | 00:00:00 | |
| OE5MMP-10 | 2026-08-30 12:54:18 | 48.34501 | 12.65582 | 93° | 82km/h | 8701m | -5.5m/s | -31.7°C | 28.9% | 339.2hPa | 2.5V | 00:00:00 | 02:24:30 | 00:00:00 | |
| DB0UT-7 | 2026-08-30 12:54:16 | 48.34503 | 12.65521 | 93° | 82km/h | 8712m | -5.5m/s | -31.8°C | 33.2% | 338.6hPa | 2.6V | 00:00:00 | 00:00:00 | 00:00:00 | |
| BAUMI2-15 | 2026-08-30 12:54:14 | 48.34504 | 12.65459 | 92° | 82km/h | 8723m | -5.5m/s | -31.9°C | 40.5% | 338.1hPa | 2.6V | 00:00:00 | 02:24:26 | 00:00:00 | |
| DG1MFX-10 | 2026-08-30 12:54:13 | 48.34504 | 12.65459 | 93° | 80km/h | 8723m | -5.5m/s | -31.9°C | 37.7% | 338.1hPa | 2.6V | 08:00:00 | 00:00:00 | 00:00:00 | |
| OE5WHR-10 | 2026-08-30 12:54:11 | 48.34506 | 12.65367 | 93° | 82km/h | 8740m | -6.0m/s | -32.0°C | 44.5% | 337.3hPa | 2.6V | 00:00:00 | 02:24:23 | 00:00:00 | |
| OE5FHM-15 | 2026-08-30 12:54:10 | 48.34507 | 12.65336 | 92° | 82km/h | 8746m | -6.0m/s | -32.1°C | 44.4% | 336.9hPa | 2.6V | 00:00:00 | 02:24:22 | 00:00:00 | |
| OE5REO-15 | 2026-08-30 12:54:09 | 48.34508 | 12.65304 | 92° | 82km/h | 8752m | -5.8m/s | -32.2°C | 41.3% | 336.7hPa | 2.5V | 08:00:00 | 00:00:00 | 00:00:00 | |
| OE5MMP-10 | 2026-08-30 12:54:08 | 48.34508 | 12.65273 | 92° | 82km/h | 8758m | -6.0m/s | -32.2°C | 44.3% | 336.4hPa | 2.5V | 00:00:00 | 02:24:20 | 00:00:00 | |
| DO7DH-14 | 2026-08-30 12:54:06 | 48.34509 | 12.65210 | 91° | 82km/h | 8769m | -6.0m/s | -32.3°C | 44.7% | 335.8hPa | 2.5V | 00:00:00 | 02:24:18 | 00:00:00 | |
| BAUMI2-15 | 2026-08-30 12:54:04 | 48.34510 | 12.65148 | 91° | 82km/h | 8781m | -6.0m/s | -32.4°C | 45.7% | 335.2hPa | 2.5V | 07:59:00 | 02:24:16 | 00:00:00 | |
| DB0ND-19 | 2026-08-30 12:53:58 | 48.34514 | 12.64901 | 91° | 80km/h | 8829m | -6.0m/s | -32.8°C | 47.4% | 333.1hPa | 2.5V | 00:00:00 | 00:00:00 | 00:00:00 | |
| DL6DJ-15 | 2026-08-30 12:53:45 | 48.34520 | 12.64563 | 92° | 80km/h | 8895m | -6.1m/s | -33.4°C | 56.2% | 329.9hPa | 2.5V | 00:00:00 | 00:00:00 | 00:00:00 | |
| PG1ADW-2 | 2026-08-30 12:53:42 | 48.34522 | 12.64470 | 92° | 82km/h | 8913m | -5.9m/s | -33.6°C | 61.1% | 329.1hPa | 2.5V | 00:00:00 | 02:23:54 | 00:00:00 | |
| BAUMI2-15 | 2026-08-30 12:53:41 | 48.34522 | 12.64439 | 93° | 80km/h | 8919m | -6.0m/s | -33.6°C | 61.4% | 328.8hPa | 2.5V | 00:00:00 | 02:23:53 | 00:00:00 | |
| OE5FHM-15 | 2026-08-30 12:53:40 | 48.34523 | 12.64408 | 92° | 82km/h | 8925m | -6.1m/s | -33.7°C | 61.8% | 328.6hPa | 2.5V | 00:00:00 | 02:23:52 | 00:00:00 | |
| DO3MHA-11 | 2026-08-30 12:53:38 | 48.34525 | 12.64347 | 92° | 82km/h | 8937m | -6.0m/s | -33.8°C | 62.7% | 328.0hPa | 2.5V | 00:00:00 | 02:23:50 | 00:00:00 | |
| OE5REO-15 | 2026-08-30 12:53:37 | 48.34525 | 12.64347 | 93° | 80km/h | 8937m | -6.1m/s | -33.9°C | 58.7% | 328.0hPa | 2.5V | 08:00:00 | 00:00:00 | 00:00:00 | |
| DO7DH-14 | 2026-08-30 12:53:36 | 48.34527 | 12.64286 | 94° | 82km/h | 8949m | -5.8m/s | -33.9°C | 63.6% | 327.4hPa | 2.5V | 00:00:00 | 02:23:48 | 00:00:00 | |
| DG1MFX-10 | 2026-08-30 12:53:31 | 48.34532 | 12.64162 | 95° | 84km/h | 8974m | -6.1m/s | -34.2°C | 61.6% | 326.3hPa | 2.6V | 08:00:00 | 00:00:00 | 00:00:00 | |
| BAUMI2-15 | 2026-08-30 12:53:30 | 48.34534 | 12.64099 | 94° | 82km/h | 8986m | -6.1m/s | -34.2°C | 67.2% | 325.7hPa | 2.6V | 00:00:00 | 02:23:42 | 00:00:00 | |
| OE5WHR-10 | 2026-08-30 12:53:29 | 48.34536 | 12.64068 | 94° | 82km/h | 8992m | -6.0m/s | 0°C | 0% | 0hPa | 2.5V | 00:00:00 | 00:00:00 | 00:00:00 | |
| OE5MMP-10 | 2026-08-30 12:53:28 | 48.34537 | 12.64036 | 94° | 82km/h | 8998m | -6.4m/s | -34.3°C | 67.7% | 325.2hPa | 2.5V | 00:00:00 | 02:23:40 | 00:00:00 | |
| DK5PH-5 | 2026-08-30 12:53:27 | 48.34538 | 12.64005 | 94° | 84km/h | 9004m | -6.1m/s | -34.4°C | 67.9% | 324.8hPa | 2.5V | 00:00:00 | 02:23:39 | 00:00:00 | |
| OE5DRO-10 | 2026-08-30 12:53:23 | 48.34542 | 12.63880 | 94° | 84km/h | 9028m | -5.9m/s | -34.6°C | 68.7% | 323.7hPa | 2.5V | 00:00:00 | 00:00:00 | 00:00:00 | |
| PG1ADW-2 | 2026-08-30 12:53:22 | 48.34543 | 12.63849 | 93° | 84km/h | 9034m | -6.1m/s | -34.6°C | 68.6% | 323.4hPa | 2.5V | 08:00:00 | 00:00:00 | 00:00:00 | |
| OE5REO-15 | 2026-08-30 12:53:21 | 48.34543 | 12.63849 | 93° | 82km/h | 9034m | -6.1m/s | -34.7°C | 64.2% | 323.5hPa | 2.5V | 08:01:00 | 00:00:00 | 00:00:00 | |
| DB0UT-7 | 2026-08-30 12:53:19 | 48.34547 | 12.63754 | 93° | 84km/h | 9053m | -6.2m/s | -34.8°C | 69.2% | 322.5hPa | 2.5V | 00:00:00 | 02:23:31 | 00:00:00 | |
| DO3MHA-11 | 2026-08-30 12:53:18 | 48.34548 | 12.63723 | 94° | 84km/h | 9059m | -6.0m/s | -34.8°C | 69.1% | 322.3hPa | 2.5V | 00:00:00 | 02:23:30 | 00:00:00 | |
| BAUMI2-15 | 2026-08-30 12:53:14 | 48.34551 | 12.63595 | 93° | 84km/h | 9083m | -6.4m/s | -35.1°C | 70.1% | 321.1hPa | 2.5V | 00:00:00 | 02:23:26 | 00:00:00 | |
| OE5FHM-15 | 2026-08-30 12:53:10 | 48.34555 | 12.63469 | 93° | 84km/h | 9108m | -6.2m/s | -35.3°C | 70.9% | 320.0hPa | 2.5V | 00:00:00 | 02:23:22 | 00:00:00 | |
| DO3MHA-11 | 2026-08-30 12:53:08 | 48.34557 | 12.63407 | 94° | 84km/h | 9121m | -6.1m/s | -35.4°C | 71.2% | 319.4hPa | 2.5V | 00:00:00 | 02:23:20 | 00:00:00 | |
| OE5MMP-10 | 2026-08-30 12:53:06 | 48.34559 | 12.63343 | 92° | 84km/h | 9132m | -6.0m/s | -35.5°C | 71.2% | 318.9hPa | 2.5V | 00:00:00 | 02:23:18 | 00:00:00 | |
| BAUMI2-15 | 2026-08-30 12:53:04 | 48.34561 | 12.63279 | 92° | 84km/h | 9145m | -6.0m/s | -35.6°C | 71.2% | 318.4hPa | 2.5V | 00:00:00 | 02:23:16 | 00:00:00 | |
| PG1ADW-2 | 2026-08-30 12:53:02 | 48.34562 | 12.63215 | 93° | 84km/h | 9157m | -6.0m/s | -35.7°C | 70.5% | 317.8hPa | 2.5V | 00:00:00 | 00:00:00 | 00:00:00 | |
| BAUMI2-15 | 2026-08-30 12:52:59 | 48.34565 | 12.63119 | 93° | 84km/h | 9175m | -6.0m/s | -35.9°C | 69.5% | 316.9hPa | 2.5V | 00:00:00 | 02:23:11 | 00:00:00 | |
| DK5PH-5 | 2026-08-30 12:52:57 | 48.34567 | 12.63056 | 93° | 82km/h | 9188m | -5.9m/s | -36.0°C | 69.0% | 316.3hPa | 2.5V | 00:00:00 | 02:23:09 | 00:00:00 | |
| OE5MMP-10 | 2026-08-30 12:52:56 | 48.34568 | 12.63025 | 94° | 84km/h | 9194m | -6.1m/s | -36.0°C | 68.5% | 316.0hPa | 2.5V | 00:00:00 | 02:23:08 | 00:00:00 | |
| BAUMI2-15 | 2026-08-30 12:52:54 | 48.34569 | 12.62961 | 92° | 84km/h | 9206m | -6.5m/s | -36.1°C | 67.2% | 315.5hPa | 2.5V | 00:00:00 | 02:23:06 | 00:00:00 | |
| OE5DXL-15 | 2026-08-30 12:52:52 | 48.34571 | 12.62898 | 93° | 82km/h | 9219m | -6.4m/s | -36.2°C | 66.7% | 314.9hPa | 2.5V | 00:00:00 | 00:00:00 | 00:00:00 | |
| OE5REO-15 | 2026-08-30 12:52:51 | 48.34571 | 12.62898 | 93° | 84km/h | 9219m | -6.4m/s | -36.2°C | 62.1% | 315.0hPa | 2.5V | 08:01:00 | 00:00:00 | 00:00:00 | |
| DG1MFX-10 | 2026-08-30 12:52:50 | 48.34573 | 12.62834 | 93° | 84km/h | 9231m | -6.2m/s | -36.3°C | 62.1% | 314.4hPa | 2.5V | 00:00:00 | 00:00:00 | 00:00:00 | |
| BAUMI2-15 | 2026-08-30 12:52:49 | 48.34573 | 12.62802 | 92° | 84km/h | 9237m | -6.0m/s | -36.3°C | 66.6% | 314.1hPa | 2.5V | 08:01:00 | 02:23:01 | 00:00:00 | |
| DO3MHA-11 | 2026-08-30 12:52:48 | 48.34574 | 12.62770 | 91° | 82km/h | 9243m | -5.9m/s | -36.4°C | 65.9% | 313.8hPa | 2.6V | 00:00:00 | 02:23:00 | 00:00:00 | |
| OE5WHR-10 | 2026-08-30 12:52:47 | 48.34574 | 12.62738 | 91° | 82km/h | 9249m | -6.1m/s | -36.4°C | 65.4% | 313.5hPa | 2.6V | 08:01:00 | 00:00:00 | 00:00:00 | |
| OE5MMP-10 | 2026-08-30 12:52:46 | 48.34574 | 12.62706 | 90° | 82km/h | 9255m | -6.2m/s | -36.5°C | 65.0% | 313.2hPa | 2.6V | 00:00:00 | 02:22:58 | 00:00:00 | |
| OE5DRO-10 | 2026-08-30 12:52:45 | 48.34574 | 12.62674 | 90° | 82km/h | 9261m | -6.0m/s | -36.5°C | 64.3% | 313.0hPa | 2.5V | 00:00:00 | 00:00:00 | 00:00:00 | |
| BAUMI2-15 | 2026-08-30 12:52:44 | 48.34574 | 12.62643 | 89° | 82km/h | 9267m | -6.1m/s | -36.6°C | 64.0% | 312.7hPa | 2.6V | 00:00:00 | 02:22:56 | 00:00:00 | |
| DL6DJ-15 | 2026-08-30 12:52:43 | 48.34573 | 12.62612 | 89° | 80km/h | 9274m | -6.3m/s | -36.7°C | 59.6% | 312.5hPa | 2.6V | 00:00:00 | 00:00:00 | 00:00:00 | |
| PG1ADW-2 | 2026-08-30 12:52:42 | 48.34573 | 12.62581 | 91° | 82km/h | 9280m | -5.9m/s | -36.7°C | 63.8% | 312.1hPa | 2.6V | 00:00:00 | 00:00:00 | 00:00:00 | |
| OE5FHM-15 | 2026-08-30 12:52:40 | 48.34573 | 12.62519 | 91° | 82km/h | 9292m | -6.2m/s | -36.7°C | 63.0% | 311.6hPa | 2.6V | 00:00:00 | 02:22:52 | 00:00:00 | |
| DO3MHA-11 | 2026-08-30 12:52:38 | 48.34573 | 12.62456 | 91° | 82km/h | 9304m | -6.0m/s | -36.8°C | 63.1% | 311.0hPa | 2.5V | 00:00:00 | 02:22:50 | 00:00:00 | |
| OE5REO-15 | 2026-08-30 12:52:36 | 48.34574 | 12.62393 | 93° | 84km/h | 9317m | -5.9m/s | -37.0°C | 58.2% | 310.5hPa | 2.5V | 08:01:00 | 00:00:00 | 00:00:00 | |
| DO3MHA-11 | 2026-08-30 12:52:29 | 48.34575 | 12.62142 | 90° | 82km/h | 9365m | -6.2m/s | -37.4°C | 61.0% | 308.4hPa | 2.5V | 08:01:00 | 02:22:40 | 00:00:00 | |
| OE5MMP-10 | 2026-08-30 12:52:28 | 48.34575 | 12.62079 | 91° | 82km/h | 9377m | -6.0m/s | -37.5°C | 60.6% | 307.8hPa | 2.5V | 00:00:00 | 02:22:38 | 00:00:00 | |
| OE5WHR-10 | 2026-08-30 12:52:27 | 48.34575 | 12.62079 | 91° | 82km/h | 9377m | -6.0m/s | -37.5°C | 60.6% | 307.8hPa | 2.5V | 00:00:00 | 00:00:00 | 00:00:00 | |
| OE3JTB-15 | 2026-08-30 12:52:25 | 48.34575 | 12.62047 | 90° | 82km/h | 9384m | -6.1m/s | -37.5°C | 60.5% | 307.5hPa | 2.5V | 00:00:00 | 00:00:00 | 00:00:00 | |
| PG1ADW-2 | 2026-08-30 12:52:22 | 48.34575 | 12.61953 | 90° | 82km/h | 9402m | -6.2m/s | -37.7°C | 61.8% | 306.7hPa | 2.5V | 00:00:00 | 02:22:34 | 00:00:00 | |
| DB0UT-7 | 2026-08-30 12:52:19 | 48.34575 | 12.61859 | 90° | 82km/h | 9420m | -6.0m/s | -37.8°C | 62.8% | 305.9hPa | 2.5V | 00:00:00 | 02:22:31 | 00:00:00 | |
| DO3MHA-11 | 2026-08-30 12:52:18 | 48.34575 | 12.61828 | 90° | 82km/h | 9426m | -6.0m/s | -37.9°C | 62.9% | 305.6hPa | 2.5V | 00:00:00 | 02:22:30 | 00:00:00 | |
| OE5MMP-10 | 2026-08-30 12:52:16 | 48.34575 | 12.61766 | 90° | 82km/h | 9438m | -5.9m/s | -38.0°C | 62.9% | 305.0hPa | 2.5V | 08:01:00 | 02:22:28 | 00:00:00 | |
| DL6DJ-15 | 2026-08-30 12:52:12 | 48.34575 | 12.61641 | 90° | 82km/h | 9463m | -6.1m/s | -38.3°C | 59.0% | 304.0hPa | 2.6V | 00:00:00 | 00:00:00 | 00:00:00 | |
| OE5FHM-15 | 2026-08-30 12:52:10 | 48.34576 | 12.61579 | 91° | 82km/h | 9475m | -6.1m/s | -38.3°C | 63.9% | 303.5hPa | 2.6V | 00:00:00 | 02:22:22 | 00:00:00 | |
| DO3MHA-11 | 2026-08-30 12:52:08 | 48.34576 | 12.61516 | 92° | 82km/h | 9487m | -6.1m/s | -38.4°C | 64.2% | 302.9hPa | 2.6V | 00:00:00 | 02:22:20 | 00:00:00 | |
| OE5DRO-10 | 2026-08-30 12:52:07 | 48.34576 | 12.61485 | 90° | 82km/h | 9493m | -6.2m/s | -38.4°C | 64.5% | 302.6hPa | 2.6V | 00:00:00 | 00:00:00 | 00:00:00 | |
| OE5MMP-10 | 2026-08-30 12:52:06 | 48.34576 | 12.61454 | 91° | 82km/h | 9499m | -6.3m/s | -38.5°C | 65.0% | 302.4hPa | 2.6V | 00:00:00 | 02:22:18 | 00:00:00 | |
| OE5WHR-10 | 2026-08-30 12:52:05 | 48.34577 | 12.61423 | 92° | 84km/h | 9506m | -6.4m/s | -38.5°C | 65.7% | 302.1hPa | 2.6V | 00:00:00 | 02:22:17 | 00:00:00 | |
| OE5REO-15 | 2026-08-30 12:52:04 | 48.34577 | 12.61423 | 93° | 82km/h | 9506m | -6.4m/s | -38.6°C | 60.8% | 302.2hPa | 2.6V | 08:02:00 | 00:00:00 | 00:00:00 | |
| DB0ND-19 | 2026-08-30 12:51:54 | 48.34584 | 12.61077 | 91° | 80km/h | 9573m | -6.1m/s | -39.2°C | 69.8% | 299.2hPa | 2.6V | 00:00:00 | 00:00:00 | 00:00:00 | |
| OE5DXL-15 | 2026-08-30 12:51:52 | 48.34585 | 12.61014 | 92° | 84km/h | 9585m | -6.3m/s | -39.3°C | 75.1% | 298.6hPa | 2.6V | 00:00:00 | 00:00:00 | 00:00:00 | |
| DB0UT-7 | 2026-08-30 12:51:49 | 48.34587 | 12.60919 | 93° | 82km/h | 9604m | -5.8m/s | -39.4°C | 70.9% | 297.8hPa | 2.6V | 08:02:00 | 00:00:00 | 00:00:00 | |
| OE5MMP-10 | 2026-08-30 12:51:46 | 48.34591 | 12.60825 | 95° | 84km/h | 9621m | -6.1m/s | -39.5°C | 66.1% | 297.0hPa | 2.5V | 00:00:00 | 02:21:58 | 00:00:00 | |
| OE5WHR-10 | 2026-08-30 12:51:44 | 48.34594 | 12.60761 | 95° | 82km/h | 9633m | -6.3m/s | -39.5°C | 65.1% | 296.4hPa | 2.5V | 00:00:00 | 00:00:00 | 00:00:00 | |
| PG1ADW-2 | 2026-08-30 12:51:42 | 48.34597 | 12.60697 | 93° | 82km/h | 9646m | -6.3m/s | -39.6°C | 65.6% | 295.9hPa | 2.6V | 00:00:00 | 00:00:00 | 00:00:00 | |
| OE3JTB-15 | 2026-08-30 12:51:41 | 48.34598 | 12.60666 | 93° | 82km/h | 9652m | -6.2m/s | -39.7°C | 66.3% | 295.7hPa | 2.6V | 00:00:00 | 02:21:53 | 00:00:00 | |
| OE5FHM-15 | 2026-08-30 12:51:40 | 48.34599 | 12.60634 | 93° | 82km/h | 9658m | -6.1m/s | -39.7°C | 66.0% | 295.4hPa | 2.6V | 00:00:00 | 02:21:52 | 00:00:00 | |
| OE5MMP-10 | 2026-08-30 12:51:36 | 48.34603 | 12.60508 | 93° | 82km/h | 9683m | -6.2m/s | -39.8°C | 64.2% | 294.4hPa | 2.6V | 00:00:00 | 02:21:48 | 00:00:00 | |
| DG1MFX-10 | 2026-08-30 12:51:34 | 48.34604 | 12.60477 | 94° | 82km/h | 9689m | -6.3m/s | -39.9°C | 59.2% | 294.1hPa | 2.6V | 00:00:00 | 00:00:00 | 00:00:00 | |
| OE5REO-15 | 2026-08-30 12:51:33 | 48.34605 | 12.60445 | 94° | 82km/h | 9695m | -6.1m/s | -40.0°C | 59.1% | 293.9hPa | 2.6V | 08:03:00 | 00:00:00 | 00:00:00 | |
| DK5PH-5 | 2026-08-30 12:51:32 | 48.34607 | 12.60383 | 96° | 82km/h | 9708m | -6.1m/s | -40.0°C | 63.2% | 293.3hPa | 2.6V | 00:00:00 | 02:21:44 | 00:00:00 | |
| OE5DRO-10 | 2026-08-30 12:51:30 | 48.34613 | 12.60290 | 96° | 82km/h | 9726m | -6.4m/s | -40.1°C | 60.0% | 292.5hPa | 2.5V | 00:00:00 | 00:00:00 | 00:00:00 | |
| DO3MHA-11 | 2026-08-30 12:51:28 | 48.34615 | 12.60259 | 96° | 82km/h | 9733m | -6.1m/s | -40.1°C | 58.5% | 292.3hPa | 2.5V | 00:00:00 | 02:21:40 | 00:00:00 | |
| OE5MMP-10 | 2026-08-30 12:51:26 | 48.34619 | 12.60196 | 95° | 82km/h | 9745m | -6.5m/s | -40.2°C | 55.0% | 291.7hPa | 2.5V | 00:00:00 | 02:21:38 | 00:00:00 | |
| OE5WHR-10 | 2026-08-30 12:51:23 | 48.34623 | 12.60102 | 96° | 82km/h | 9764m | -6.4m/s | -40.3°C | 51.3% | 290.9hPa | 2.5V | 00:00:00 | 00:00:00 | 00:00:00 | |
| PG1ADW-2 | 2026-08-30 12:51:22 | 48.34625 | 12.60071 | 96° | 82km/h | 9770m | -6.4m/s | -40.3°C | 50.5% | 290.6hPa | 2.5V | 00:00:00 | 00:00:00 | 00:00:00 | |
| DB0UT-7 | 2026-08-30 12:51:19 | 48.34631 | 12.59978 | 97° | 82km/h | 9789m | -6.2m/s | -40.5°C | 48.0% | 289.8hPa | 2.6V | 00:00:00 | 02:21:31 | 00:00:00 | |
| DO3MHA-11 | 2026-08-30 12:51:18 | 48.34633 | 12.59947 | 96° | 82km/h | 9795m | -6.4m/s | -40.4°C | 46.6% | 289.5hPa | 2.6V | 00:00:00 | 02:21:30 | 00:00:00 | |
| OE5MMP-10 | 2026-08-30 12:51:16 | 48.34637 | 12.59885 | 97° | 82km/h | 9808m | -6.0m/s | -40.4°C | 44.1% | 289.0hPa | 2.6V | 00:00:00 | 02:21:28 | 00:00:00 | |
| DL6DJ-15 | 2026-08-30 12:51:10 | 48.34654 | 12.59665 | 96° | 82km/h | 9852m | -6.2m/s | -40.8°C | 39.5% | 287.2hPa | 2.5V | 00:00:00 | 00:00:00 | 00:00:00 | |
| DO3MHA-11 | 2026-08-30 12:51:08 | 48.34656 | 12.59634 | 97° | 82km/h | 9858m | -6.4m/s | -40.8°C | 43.7% | 286.9hPa | 2.5V | 00:00:00 | 02:21:20 | 00:00:00 | |
| OE5MMP-10 | 2026-08-30 12:51:06 | 48.34661 | 12.59572 | 98° | 82km/h | 9871m | -6.3m/s | -40.9°C | 43.9% | 286.4hPa | 2.5V | 00:00:00 | 02:21:18 | 00:00:00 | |
| OE5REO-15 | 2026-08-30 12:51:03 | 48.34667 | 12.59510 | 99° | 82km/h | 9883m | -6.4m/s | -41.1°C | 40.0% | 285.9hPa | 2.5V | 08:03:00 | 00:00:00 | 00:00:00 | |
| DK5PH-5 | 2026-08-30 12:51:02 | 48.34673 | 12.59448 | 99° | 84km/h | 9896m | -6.2m/s | -41.1°C | 44.4% | 285.3hPa | 2.5V | 00:00:00 | 02:21:14 | 00:00:00 | |
| DO3MHA-11 | 2026-08-30 12:50:58 | 48.34684 | 12.59323 | 99° | 84km/h | 9922m | -6.3m/s | -41.4°C | 45.0% | 284.2hPa | 2.5V | 08:03:00 | 02:21:10 | 00:00:00 | |
| OE5MMP-10 | 2026-08-30 12:50:56 | 48.34690 | 12.59260 | 99° | 84km/h | 9935m | -6.4m/s | -41.5°C | 45.3% | 283.7hPa | 2.6V | 00:00:00 | 02:21:08 | 00:00:00 | |
| OE5DXL-15 | 2026-08-30 12:50:52 | 48.34705 | 12.59135 | 100° | 84km/h | 9960m | -6.1m/s | -41.7°C | 45.6% | 282.6hPa | 2.6V | 00:00:00 | 00:00:00 | 00:00:00 | |
| OE5DRO-10 | 2026-08-30 12:50:51 | 48.34708 | 12.59104 | 101° | 84km/h | 9966m | -6.3m/s | -41.8°C | 45.5% | 282.3hPa | 2.6V | 08:03:00 | 00:00:00 | 00:00:00 | |
| DB0UT-7 | 2026-08-30 12:50:49 | 48.34716 | 12.59042 | 100° | 86km/h | 9979m | -6.4m/s | -41.9°C | 45.7% | 281.8hPa | 2.6V | 00:00:00 | 00:00:00 | 00:00:00 | |
| DO3MHA-11 | 2026-08-30 12:50:48 | 48.34719 | 12.59011 | 101° | 84km/h | 9986m | -6.6m/s | -42.0°C | 45.7% | 281.6hPa | 2.6V | 00:00:00 | 02:21:00 | 00:00:00 | |
| OE5REO-15 | 2026-08-30 12:50:47 | 48.34719 | 12.59011 | 102° | 82km/h | 9986m | -6.7m/s | -42.0°C | 41.3% | 281.6hPa | 2.6V | 08:03:00 | 00:00:00 | 00:00:00 | |
| OE5MMP-10 | 2026-08-30 12:50:46 | 48.34727 | 12.58949 | 102° | 84km/h | 9999m | -6.3m/s | -42.1°C | 45.4% | 281.0hPa | 2.6V | 08:03:00 | 02:20:58 | 00:00:00 | |
| PG1ADW-2 | 2026-08-30 12:50:42 | 48.34743 | 12.58823 | 102° | 86km/h | 10025m | -6.5m/s | -42.3°C | 43.8% | 279.9hPa | 2.6V | 00:00:00 | 00:00:00 | 00:00:00 | |
| OE5WHR-10 | 2026-08-30 12:50:41 | 48.34747 | 12.58791 | 101° | 86km/h | 10031m | -6.4m/s | -42.3°C | 43.5% | 279.6hPa | 2.6V | 00:00:00 | 00:00:00 | 00:00:00 | |
| OE5FHM-15 | 2026-08-30 12:50:40 | 48.34751 | 12.58759 | 100° | 86km/h | 10037m | -6.4m/s | -42.4°C | 43.5% | 279.4hPa | 2.5V | 00:00:00 | 02:20:52 | 00:00:00 | |
| DL6DJ-15 | 2026-08-30 12:50:39 | 48.34758 | 12.58695 | 100° | 84km/h | 10050m | -6.6m/s | -42.5°C | 39.4% | 278.9hPa | 2.5V | 00:00:00 | 00:00:00 | 00:00:00 | |
| DO3MHA-11 | 2026-08-30 12:50:38 | 48.34758 | 12.58695 | 101° | 84km/h | 10050m | -6.6m/s | -42.5°C | 43.9% | 278.8hPa | 2.5V | 00:00:00 | 02:20:50 | 00:00:00 | |
| OE5MMP-10 | 2026-08-30 12:50:36 | 48.34766 | 12.58633 | 101° | 84km/h | 10064m | -6.8m/s | -42.6°C | 44.1% | 278.4hPa | 2.5V | 00:00:00 | 02:20:48 | 00:00:00 | |
| OE5DRO-10 | 2026-08-30 12:50:33 | 48.34781 | 12.58508 | 103° | 88km/h | 10090m | -6.2m/s | -42.7°C | 46.0% | 277.3hPa | 2.5V | 00:00:00 | 00:00:00 | 00:00:00 | |
| DK5PH-5 | 2026-08-30 12:50:32 | 48.34781 | 12.58508 | 103° | 88km/h | 10090m | -6.2m/s | -42.7°C | 46.0% | 277.3hPa | 2.5V | 00:00:00 | 02:20:44 | 00:00:00 | |
| DO3MHA-11 | 2026-08-30 12:50:28 | 48.34800 | 12.58380 | 102° | 88km/h | 10115m | -6.7m/s | -43.0°C | 48.0% | 276.2hPa | 2.5V | 00:00:00 | 02:20:40 | 00:00:00 | |
| OE5MMP-10 | 2026-08-30 12:50:26 | 48.34809 | 12.58317 | 103° | 88km/h | 10129m | -6.5m/s | -43.1°C | 48.6% | 275.6hPa | 2.5V | 00:00:00 | 02:20:38 | 00:00:00 | |
| OE5WHR-10 | 2026-08-30 12:50:20 | 48.34836 | 12.58123 | 103° | 89km/h | 10168m | -6.6m/s | -43.3°C | 49.5% | 274.0hPa | 2.5V | 00:00:00 | 00:00:00 | 00:00:00 | |
| DB0UT-7 | 2026-08-30 12:50:19 | 48.34840 | 12.58090 | 103° | 89km/h | 10175m | -6.7m/s | -43.4°C | 49.6% | 273.8hPa | 2.5V | 00:00:00 | 02:20:31 | 00:00:00 | |
| DO3MHA-11 | 2026-08-30 12:50:18 | 48.34845 | 12.58058 | 103° | 88km/h | 10182m | -6.6m/s | -43.5°C | 50.0% | 273.5hPa | 2.6V | 00:00:00 | 02:20:30 | 00:00:00 | |
| OE5MMP-10 | 2026-08-30 12:50:16 | 48.34855 | 12.57992 | 104° | 88km/h | 10195m | -6.4m/s | -43.6°C | 50.5% | 273.0hPa | 2.6V | 00:00:00 | 02:20:28 | 00:00:00 | |
| OE5DRO-10 | 2026-08-30 12:50:13 | 48.34871 | 12.57894 | 104° | 89km/h | 10214m | -6.3m/s | -43.7°C | 50.8% | 272.1hPa | 2.5V | 00:00:00 | 00:00:00 | 00:00:00 | |
| BAUMI2-15 | 2026-08-30 12:50:12 | 48.34876 | 12.57861 | 103° | 97km/h | 10220m | -6.7m/s | -43.8°C | 50.9% | 271.9hPa | 2.5V | 00:00:00 | 02:20:24 | 00:00:00 | |
| OE5FHM-15 | 2026-08-30 12:50:10 | 48.34885 | 12.57796 | 103° | 89km/h | 10233m | -6.3m/s | -43.9°C | 51.5% | 271.4hPa | 2.5V | 00:00:00 | 02:20:22 | 00:00:00 | |
| DL6DJ-15 | 2026-08-30 12:50:08 | 48.34900 | 12.57698 | 103° | 88km/h | 10253m | -6.6m/s | -44.1°C | 46.8% | 270.6hPa | 2.5V | 00:00:00 | 00:00:00 | 00:00:00 | |
| OE5MMP-10 | 2026-08-30 12:50:06 | 48.34905 | 12.57665 | 104° | 89km/h | 10259m | -6.5m/s | -44.1°C | 52.1% | 270.4hPa | 2.5V | 00:00:00 | 02:20:18 | 00:00:00 | |
| DK5PH-5 | 2026-08-30 12:50:02 | 48.34927 | 12.57533 | 105° | 89km/h | 10285m | -6.1m/s | -44.4°C | 52.0% | 269.3hPa | 2.5V | 08:03:00 | 02:20:14 | 00:00:00 | |
| OE5REO-15 | 2026-08-30 12:50:01 | 48.34932 | 12.57500 | 105° | 89km/h | 10292m | -6.5m/s | -44.5°C | 46.8% | 269.1hPa | 2.5V | 08:04:00 | 00:00:00 | 00:00:00 | |
| OE5WHR-10 | 2026-08-30 12:49:59 | 48.34943 | 12.57434 | 103° | 89km/h | 10305m | -6.5m/s | -44.6°C | 51.9% | 268.5hPa | 2.5V | 00:00:00 | 02:20:11 | 00:00:00 | |
| DO3MHA-11 | 2026-08-30 12:49:58 | 48.34948 | 12.57401 | 104° | 89km/h | 10311m | -6.5m/s | -44.6°C | 51.7% | 268.2hPa | 2.5V | 00:00:00 | 02:20:10 | 00:00:00 | |
| OE5MMP-10 | 2026-08-30 12:49:56 | 48.34958 | 12.57335 | 103° | 89km/h | 10324m | -6.4m/s | -44.7°C | 51.4% | 267.7hPa | 2.5V | 00:00:00 | 02:20:08 | 00:00:00 | |
| OE5DRO-10 | 2026-08-30 12:49:54 | 48.34968 | 12.57270 | 104° | 91km/h | 10337m | -6.5m/s | -44.8°C | 51.5% | 267.2hPa | 2.5V | 00:00:00 | 00:00:00 | 00:00:00 | |
| OE5DXL-15 | 2026-08-30 12:49:52 | 48.34978 | 12.57203 | 104° | 91km/h | 10350m | -6.7m/s | -44.9°C | 51.9% | 266.7hPa | 2.5V | 00:00:00 | 00:00:00 | 00:00:00 | |
| DB0UT-7 | 2026-08-30 12:49:49 | 48.34994 | 12.57103 | 104° | 91km/h | 10370m | -6.6m/s | -45.1°C | 52.5% | 265.8hPa | 2.6V | 00:00:00 | 00:00:00 | 00:00:00 | |
| DO3MHA-11 | 2026-08-30 12:49:48 | 48.34999 | 12.57069 | 103° | 89km/h | 10377m | -6.5m/s | -45.2°C | 53.0% | 265.6hPa | 2.6V | 00:00:00 | 02:20:00 | 00:00:00 | |
| OE5MMP-10 | 2026-08-30 12:49:46 | 48.35009 | 12.57003 | 102° | 91km/h | 10389m | -6.6m/s | -45.3°C | 53.5% | 265.1hPa | 2.6V | 00:00:00 | 02:19:58 | 00:00:00 | |
| OE5REO-15 | 2026-08-30 12:49:45 | 48.35008 | 12.57003 | 103° | 88km/h | 10389m | -6.6m/s | -45.4°C | 48.1% | 265.2hPa | 2.6V | 08:04:00 | 00:00:00 | 00:00:00 | |
| PG1ADW-2 | 2026-08-30 12:49:41 | 48.35034 | 12.56836 | 103° | 93km/h | 10423m | -6.6m/s | -45.5°C | 55.0% | 263.8hPa | 2.6V | 00:00:00 | 02:19:53 | 00:00:00 | |
| OE5FHM-15 | 2026-08-30 12:49:40 | 48.35039 | 12.56802 | 104° | 95km/h | 10429m | -6.6m/s | -45.6°C | 55.2% | 263.5hPa | 2.6V | 00:00:00 | 02:19:52 | 00:00:00 | |
| OE5WHR-10 | 2026-08-30 12:49:38 | 48.35049 | 12.56734 | 103° | 93km/h | 10443m | -6.7m/s | -45.7°C | 55.2% | 263.0hPa | 2.5V | 08:04:00 | 00:00:00 | 00:00:00 | |
| DL6DJ-15 | 2026-08-30 12:49:37 | 48.35060 | 12.56666 | 103° | 91km/h | 10456m | -6.6m/s | -45.8°C | 49.7% | 262.5hPa | 2.5V | 00:00:00 | 00:00:00 | 00:00:00 | |
| OE5MMP-10 | 2026-08-30 12:49:36 | 48.35060 | 12.56666 | 104° | 91km/h | 10456m | -6.6m/s | -45.8°C | 55.4% | 262.5hPa | 2.5V | 00:00:00 | 02:19:48 | 00:00:00 | |
| OE5DRO-10 | 2026-08-30 12:49:35 | 48.35065 | 12.56632 | 104° | 95km/h | 10463m | -6.4m/s | -45.8°C | 55.5% | 262.2hPa | 2.5V | 00:00:00 | 00:00:00 | 00:00:00 | |
| DK5PH-5 | 2026-08-30 12:49:32 | 48.35081 | 12.56531 | 103° | 99km/h | 10483m | -6.8m/s | -46.0°C | 56.3% | 261.4hPa | 2.5V | 00:00:00 | 02:19:44 | 00:00:00 | |
| OE5REO-15 | 2026-08-30 12:49:29 | 48.35090 | 12.56463 | 104° | 93km/h | 10496m | -6.6m/s | -46.2°C | 50.8% | 260.9hPa | 2.5V | 08:04:00 | 00:00:00 | 00:00:00 | |
| DO3MHA-11 | 2026-08-30 12:49:28 | 48.35101 | 12.56394 | 103° | 95km/h | 10509m | -6.7m/s | -46.3°C | 57.0% | 260.4hPa | 2.5V | 08:04:00 | 02:19:40 | 00:00:00 | |
| DG1MFX-10 | 2026-08-30 12:49:27 | 48.35106 | 12.56360 | 105° | 93km/h | 10515m | -6.7m/s | -46.4°C | 51.4% | 260.2hPa | 2.6V | 08:04:00 | 00:00:00 | 00:00:00 | |
| OE5MMP-10 | 2026-08-30 12:49:26 | 48.35112 | 12.56325 | 105° | 97km/h | 10522m | -6.9m/s | -46.4°C | 57.1% | 259.9hPa | 2.6V | 00:00:00 | 02:19:38 | 00:00:00 | |
| OE5DXL-15 | 2026-08-30 12:49:23 | 48.35136 | 12.56185 | 105° | 102km/h | 10549m | -6.6m/s | -46.6°C | 57.9% | 258.8hPa | 2.6V | 00:00:00 | 00:00:00 | 00:00:00 | |
| PG1ADW-2 | 2026-08-30 12:49:20 | 48.35148 | 12.56114 | 106° | 100km/h | 10562m | -6.8m/s | -46.7°C | 58.0% | 258.3hPa | 2.6V | 00:00:00 | 00:00:00 | 00:00:00 | |
| DB0UT-7 | 2026-08-30 12:49:19 | 48.35155 | 12.56079 | 105° | 104km/h | 10569m | -6.6m/s | -46.8°C | 57.9% | 258.0hPa | 2.5V | 00:00:00 | 02:19:31 | 00:00:00 | |
| DO3MHA-11 | 2026-08-30 12:49:18 | 48.35161 | 12.56042 | 106° | 100km/h | 10575m | -6.7m/s | -46.8°C | 58.0% | 257.8hPa | 2.5V | 00:00:00 | 02:19:30 | 00:00:00 | |
| OE5WHR-10 | 2026-08-30 12:49:17 | 48.35168 | 12.56006 | 107° | 102km/h | 10582m | -6.2m/s | -46.8°C | 57.8% | 257.5hPa | 2.5V | 00:00:00 | 00:00:00 | 00:00:00 | |
| OE5MMP-10 | 2026-08-30 12:49:16 | 48.35175 | 12.55970 | 106° | 100km/h | 10588m | -6.7m/s | -46.9°C | 57.7% | 257.3hPa | 2.5V | 08:04:00 | 02:19:28 | 00:00:00 | |
| OE5REO-15 | 2026-08-30 12:49:14 | 48.35189 | 12.55897 | 107° | 100km/h | 10602m | -6.8m/s | -47.0°C | 51.5% | 256.8hPa | 2.6V | 08:04:00 | 00:00:00 | 00:00:00 | |
| OE5FHM-15 | 2026-08-30 12:49:10 | 48.35218 | 12.55751 | 107° | 106km/h | 10629m | -6.6m/s | -47.1°C | 57.3% | 255.7hPa | 2.6V | 00:00:00 | 02:19:22 | 00:00:00 | |
| DO3MHA-11 | 2026-08-30 12:49:08 | 48.35233 | 12.55678 | 108° | 102km/h | 10642m | -6.7m/s | -47.3°C | 58.0% | 255.2hPa | 2.6V | 00:00:00 | 02:19:20 | 00:00:00 | |
| OE5MMP-10 | 2026-08-30 12:49:06 | 48.35249 | 12.55604 | 108° | 104km/h | 10655m | -6.6m/s | -47.3°C | 58.2% | 254.7hPa | 2.6V | 00:00:00 | 02:19:18 | 00:00:00 | |
| DL6DJ-15 | 2026-08-30 12:49:05 | 48.35257 | 12.55567 | 108° | 102km/h | 10662m | -6.9m/s | -47.5°C | 52.5% | 254.5hPa | 2.6V | 00:00:00 | 00:00:00 | 00:00:00 | |
| DG1MFX-10 | 2026-08-30 12:49:04 | 48.35257 | 12.55567 | 109° | 102km/h | 10662m | -6.9m/s | -47.5°C | 52.5% | 254.5hPa | 2.6V | 00:00:00 | 00:00:00 | 00:00:00 | |
| PG1ADW-2 | 2026-08-30 12:49:00 | 48.35296 | 12.55379 | 107° | 108km/h | 10696m | -6.8m/s | -47.7°C | 59.7% | 253.1hPa | 2.6V | 00:00:00 | 00:00:00 | 00:00:00 | |
| DO3MHA-11 | 2026-08-30 12:48:58 | 48.35312 | 12.55304 | 109° | 108km/h | 10709m | -6.8m/s | -47.8°C | 60.5% | 252.6hPa | 2.6V | 00:00:00 | 02:19:10 | 00:00:00 | |
| OE5MMP-10 | 2026-08-30 12:48:56 | 48.35329 | 12.55229 | 109° | 108km/h | 10723m | -6.5m/s | -47.9°C | 60.8% | 252.1hPa | 2.5V | 00:00:00 | 02:19:08 | 00:00:00 | |
| OE5DXL-15 | 2026-08-30 12:48:52 | 48.35379 | 12.54996 | 107° | 110km/h | 10764m | -6.9m/s | -48.3°C | 62.0% | 250.6hPa | 2.5V | 00:00:00 | 00:00:00 | 00:00:00 | |
| DF7PN | 2026-08-30 12:48:44 | 48.35429 | 12.54759 | 107° | 110km/h | 10805m | -7.2m/s | -48.6°C | -1.0% | -1.0hPa | 2.5V | 00:00:00 | 00:00:00 | 00:00:00 | |
| DG1MFX-10 | 2026-08-30 12:48:43 | 48.35429 | 12.54759 | 109° | 110km/h | 10805m | -7.2m/s | -48.6°C | 55.3% | 249.0hPa | 2.5V | 00:00:00 | 00:00:00 | 00:00:00 | |
| OE5REO-15 | 2026-08-30 12:48:42 | 48.35438 | 12.54719 | 109° | 110km/h | 10812m | -7.0m/s | -48.6°C | 55.3% | 248.8hPa | 2.5V | 08:05:00 | 00:00:00 | 00:00:00 | |
| OE5FHM-15 | 2026-08-30 12:48:40 | 48.35463 | 12.54601 | 108° | 110km/h | 10832m | -6.9m/s | -48.7°C | 61.5% | 248.0hPa | 2.5V | 00:00:00 | 02:18:52 | 00:00:00 | |
| DO3MHA-11 | 2026-08-30 12:48:38 | 48.35480 | 12.54522 | 108° | 110km/h | 10846m | -6.9m/s | -48.8°C | 61.0% | 247.4hPa | 2.5V | 00:00:00 | 02:18:50 | 00:00:00 | |
| OE5DRO-10 | 2026-08-30 12:48:37 | 48.35488 | 12.54483 | 108° | 110km/h | 10853m | -7.1m/s | -48.8°C | 60.4% | 247.2hPa | 2.5V | 00:00:00 | 00:00:00 | 00:00:00 | |
| OE5MMP-10 | 2026-08-30 12:48:36 | 48.35497 | 12.54444 | 108° | 110km/h | 10860m | -6.8m/s | -48.8°C | 60.3% | 246.9hPa | 2.5V | 00:00:00 | 02:18:48 | 00:00:00 | |
| DL6DJ-15 | 2026-08-30 12:48:34 | 48.35513 | 12.54365 | 107° | 108km/h | 10873m | -7.0m/s | -49.0°C | 53.2% | 246.4hPa | 2.5V | 00:00:00 | 00:00:00 | 00:00:00 | |
| DK5PH-5 | 2026-08-30 12:48:32 | 48.35529 | 12.54286 | 107° | 110km/h | 10887m | -6.9m/s | -49.0°C | 59.5% | 245.9hPa | 2.5V | 00:00:00 | 02:18:44 | 00:00:00 | |
| DO3MHA-11 | 2026-08-30 12:48:28 | 48.35562 | 12.54127 | 108° | 108km/h | 10915m | -7.0m/s | -49.2°C | 58.0% | 244.8hPa | 2.5V | 00:00:00 | 02:18:40 | 00:00:00 | |
| OE5REO-15 | 2026-08-30 12:48:27 | 48.35562 | 12.54127 | 109° | 108km/h | 10915m | -7.1m/s | -49.3°C | 51.5% | 244.9hPa | 2.5V | 08:05:00 | 00:00:00 | 00:00:00 | |
| OE5MMP-10 | 2026-08-30 12:48:26 | 48.35578 | 12.54050 | 108° | 110km/h | 10929m | -6.8m/s | -49.3°C | 57.9% | 244.3hPa | 2.5V | 00:00:00 | 02:18:38 | 00:00:00 | |
| DG1MFX-10 | 2026-08-30 12:48:23 | 48.35595 | 12.53972 | 109° | 110km/h | 10943m | -6.8m/s | -49.4°C | 50.8% | 243.8hPa | 2.5V | 00:00:00 | 00:00:00 | 00:00:00 | |
| OE5DXL-15 | 2026-08-30 12:48:21 | 48.35626 | 12.53813 | 107° | 110km/h | 10971m | -6.8m/s | -49.6°C | 57.1% | 242.8hPa | 2.5V | 00:00:00 | 00:00:00 | 00:00:00 | |
| PG1ADW-2 | 2026-08-30 12:48:20 | 48.35626 | 12.53813 | 107° | 110km/h | 10971m | -6.8m/s | -49.6°C | 57.1% | 242.8hPa | 2.5V | 00:00:00 | 02:18:32 | 00:00:00 | |
| DO3MHA-11 | 2026-08-30 12:48:18 | 48.35642 | 12.53734 | 107° | 110km/h | 10984m | -7.0m/s | -49.8°C | 57.1% | 242.3hPa | 2.5V | 00:00:00 | 02:18:30 | 00:00:00 | |
| OE5MMP-10 | 2026-08-30 12:48:16 | 48.35658 | 12.53654 | 107° | 110km/h | 10998m | -6.9m/s | -49.9°C | 56.6% | 241.7hPa | 2.5V | 00:00:00 | 02:18:28 | 00:00:00 | |
| OE5WHR-10 | 2026-08-30 12:48:14 | 48.35674 | 12.53573 | 107° | 110km/h | 11012m | -6.8m/s | -49.9°C | 55.2% | 241.2hPa | 2.5V | 00:00:00 | 00:00:00 | 00:00:00 | |
| DF7PN | 2026-08-30 12:48:13 | 48.35689 | 12.53493 | 105° | 110km/h | 11026m | -7.0m/s | 0°C | -1.0% | -1.0hPa | 2.5V | 00:00:00 | 00:00:00 | 00:00:00 | |
| OE5REO-15 | 2026-08-30 12:48:11 | 48.35689 | 12.53493 | 107° | 110km/h | 11026m | -7.0m/s | -50.1°C | 48.3% | 240.8hPa | 2.5V | 08:06:00 | 00:00:00 | 00:00:00 | |
| OE5FHM-15 | 2026-08-30 12:48:10 | 48.35704 | 12.53413 | 106° | 110km/h | 11040m | -7.1m/s | -50.2°C | 54.9% | 240.2hPa | 2.5V | 00:00:00 | 02:18:22 | 00:00:00 | |
| DH7VM-15 | 2026-08-30 12:48:09 | 48.35703 | 12.53413 | 107° | 108km/h | 11040m | -7.2m/s | -50.3°C | 48.4% | 240.2hPa | 2.6V | 00:00:00 | 00:00:00 | 00:00:00 | |
| DO3MHA-11 | 2026-08-30 12:48:08 | 48.35719 | 12.53334 | 107° | 110km/h | 11054m | -7.0m/s | -50.3°C | 55.0% | 239.7hPa | 2.6V | 00:00:00 | 02:18:20 | 00:00:00 | |
| OE5MMP-10 | 2026-08-30 12:48:06 | 48.35734 | 12.53255 | 107° | 110km/h | 11068m | -7.0m/s | -50.4°C | 55.1% | 239.2hPa | 2.6V | 00:00:00 | 02:18:18 | 00:00:00 | |
| DL6DJ-15 | 2026-08-30 12:48:03 | 48.35757 | 12.53135 | 106° | 108km/h | 11089m | -7.0m/s | -50.7°C | 48.5% | 238.4hPa | 2.6V | 00:00:00 | 00:00:00 | 00:00:00 | |
| DK5PH-5 | 2026-08-30 12:48:02 | 48.35765 | 12.53095 | 106° | 110km/h | 11096m | -7.0m/s | -50.7°C | 54.8% | 238.1hPa | 2.6V | 00:00:00 | 02:18:14 | 00:00:00 | |
| PG1ADW-2 | 2026-08-30 12:48:00 | 48.35779 | 12.53016 | 105° | 110km/h | 11110m | -7.0m/s | -50.8°C | 55.4% | 237.6hPa | 2.6V | 00:00:00 | 00:00:00 | 00:00:00 | |
| OE5DRO-10 | 2026-08-30 12:47:59 | 48.35786 | 12.52976 | 106° | 110km/h | 11117m | -7.0m/s | -50.9°C | 55.5% | 237.4hPa | 2.6V | 08:05:00 | 00:00:00 | 00:00:00 | |
| DO3MHA-11 | 2026-08-30 12:47:58 | 48.35794 | 12.52936 | 106° | 110km/h | 11124m | -7.0m/s | -51.0°C | 55.8% | 237.1hPa | 2.5V | 08:06:00 | 02:18:10 | 00:00:00 | |
| OE5MMP-10 | 2026-08-30 12:47:56 | 48.35808 | 12.52858 | 107° | 110km/h | 11138m | -7.0m/s | -51.0°C | 56.2% | 236.6hPa | 2.5V | 00:00:00 | 02:18:08 | 00:00:00 | |
| OE5REO-15 | 2026-08-30 12:47:55 | 48.35808 | 12.52858 | 107° | 108km/h | 11138m | -7.0m/s | -51.1°C | 49.4% | 236.6hPa | 2.5V | 08:06:00 | 00:00:00 | 00:00:00 | |
| OE5WHR-10 | 2026-08-30 12:47:53 | 48.35831 | 12.52739 | 107° | 110km/h | 11160m | -7.1m/s | -51.2°C | 56.9% | 235.8hPa | 2.5V | 00:00:00 | 02:18:05 | 00:00:00 | |
| OE5DXL-15 | 2026-08-30 12:47:51 | 48.35853 | 12.52619 | 106° | 110km/h | 11181m | -6.9m/s | -51.4°C | 58.0% | 235.1hPa | 2.5V | 00:00:00 | 00:00:00 | 00:00:00 | |
| DO3MHA-11 | 2026-08-30 12:47:48 | 48.35868 | 12.52539 | 106° | 110km/h | 11195m | -6.7m/s | -51.6°C | 58.7% | 234.5hPa | 2.5V | 00:00:00 | 02:18:00 | 00:00:00 | |
| OE5MMP-10 | 2026-08-30 12:47:46 | 48.35883 | 12.52461 | 107° | 111km/h | 11209m | -6.9m/s | -51.7°C | 59.1% | 234.0hPa | 2.5V | 08:06:00 | 02:17:58 | 00:00:00 | |
| DG1MFX-10 | 2026-08-30 12:47:41 | 48.35916 | 12.52301 | 107° | 111km/h | 11237m | -7.1m/s | -52.0°C | 52.8% | 233.0hPa | 2.5V | 08:06:00 | 00:00:00 | 00:00:00 | |
| OE5FHM-15 | 2026-08-30 12:47:40 | 48.35932 | 12.52220 | 106° | 110km/h | 11251m | -7.0m/s | -52.1°C | 60.2% | 232.5hPa | 2.5V | 00:00:00 | 02:17:52 | 00:00:00 | |
| OE3JTB-15 | 2026-08-30 12:47:39 | 48.35939 | 12.52179 | 106° | 113km/h | 11258m | -7.1m/s | -52.2°C | 61.1% | 232.2hPa | 2.5V | 08:06:00 | 00:00:00 | 00:00:00 | |
| DO3MHA-11 | 2026-08-30 12:47:38 | 48.35947 | 12.52138 | 106° | 111km/h | 11265m | -7.0m/s | -52.2°C | 60.9% | 232.0hPa | 2.5V | 00:00:00 | 02:17:50 | 00:00:00 | |
| OE5MMP-10 | 2026-08-30 12:47:36 | 48.35961 | 12.52057 | 106° | 111km/h | 11279m | -7.0m/s | -52.3°C | 61.0% | 231.5hPa | 2.5V | 00:00:00 | 02:17:48 | 00:00:00 | |
| OE5WHR-10 | 2026-08-30 12:47:32 | 48.35992 | 12.51896 | 107° | 110km/h | 11307m | -7.0m/s | -52.5°C | 61.4% | 230.5hPa | 2.5V | 00:00:00 | 00:00:00 | 00:00:00 | |
| DO3MHA-11 | 2026-08-30 12:47:28 | 48.36022 | 12.51734 | 107° | 110km/h | 11336m | -7.0m/s | -52.7°C | 60.7% | 229.5hPa | 2.5V | 00:00:00 | 02:17:40 | 00:00:00 | |
| OE5MMP-10 | 2026-08-30 12:47:26 | 48.36038 | 12.51652 | 106° | 110km/h | 11351m | -7.1m/s | -52.9°C | 60.2% | 229.0hPa | 2.6V | 00:00:00 | 02:17:38 | 00:00:00 | |
| OE5REO-15 | 2026-08-30 12:47:23 | 48.36053 | 12.51572 | 106° | 110km/h | 11365m | -7.3m/s | -53.1°C | 51.9% | 228.5hPa | 2.6V | 08:07:00 | 00:00:00 | 00:00:00 | |
| OE5DRO-10 | 2026-08-30 12:47:21 | 48.36075 | 12.51453 | 106° | 110km/h | 11387m | -7.0m/s | -53.2°C | 56.9% | 227.7hPa | 2.6V | 00:00:00 | 00:00:00 | 00:00:00 | |
| PG1ADW-2 | 2026-08-30 12:47:20 | 48.36082 | 12.51414 | 106° | 111km/h | 11394m | -7.2m/s | -53.4°C | 56.1% | 227.4hPa | 2.6V | 08:06:00 | 00:00:00 | 00:00:00 | |
| DO3MHA-11 | 2026-08-30 12:47:18 | 48.36098 | 12.51333 | 106° | 110km/h | 11408m | -7.2m/s | -53.5°C | 55.2% | 226.9hPa | 2.5V | 00:00:00 | 02:17:30 | 00:00:00 | |
| OE5MMP-10 | 2026-08-30 12:47:16 | 48.36113 | 12.51252 | 107° | 110km/h | 11423m | -7.2m/s | -53.6°C | 54.9% | 226.4hPa | 2.5V | 00:00:00 | 02:17:28 | 00:00:00 | |
| DB0UT-7 | 2026-08-30 12:47:15 | 48.36121 | 12.51212 | 106° | 111km/h | 11430m | -7.1m/s | -53.6°C | 54.5% | 226.2hPa | 2.5V | 00:00:00 | 00:00:00 | 00:00:00 | |
| OE5WHR-10 | 2026-08-30 12:47:11 | 48.36151 | 12.51051 | 106° | 111km/h | 11459m | -7.3m/s | -53.8°C | 52.5% | 225.1hPa | 2.5V | 00:00:00 | 00:00:00 | 00:00:00 | |
| OE5FHM-15 | 2026-08-30 12:47:10 | 48.36158 | 12.51011 | 107° | 111km/h | 11466m | -7.1m/s | -53.8°C | 52.5% | 224.9hPa | 2.5V | 00:00:00 | 02:17:22 | 00:00:00 | |
| DO3MHA-11 | 2026-08-30 12:47:08 | 48.36174 | 12.50930 | 107° | 111km/h | 11480m | -7.1m/s | -53.9°C | 52.2% | 224.4hPa | 2.5V | 00:00:00 | 02:17:20 | 00:00:00 | |
| OE5MMP-10 | 2026-08-30 12:47:06 | 48.36190 | 12.50850 | 107° | 111km/h | 11495m | -7.2m/s | -54.1°C | 52.6% | 223.9hPa | 2.5V | 00:00:00 | 02:17:18 | 00:00:00 | |
| DO7DH-14 | 2026-08-30 12:47:04 | 48.36206 | 12.50769 | 106° | 117km/h | 11509m | -7.2m/s | -54.3°C | 53.9% | 223.4hPa | 2.5V | 00:00:00 | 02:17:16 | 00:00:00 | |
| DL6DJ-15 | 2026-08-30 12:47:01 | 48.36228 | 12.50647 | 105° | 110km/h | 11531m | -7.3m/s | -54.4°C | 46.8% | 222.7hPa | 2.5V | 00:00:00 | 00:00:00 | 00:00:00 | |
| PG1ADW-2 | 2026-08-30 12:47:00 | 48.36236 | 12.50606 | 106° | 111km/h | 11538m | -7.1m/s | -54.4°C | 54.3% | 222.4hPa | 2.5V | 00:00:00 | 02:17:12 | 00:00:00 | |
| DO3MHA-11 | 2026-08-30 12:46:58 | 48.36251 | 12.50525 | 106° | 111km/h | 11553m | -7.1m/s | -54.6°C | 53.4% | 221.9hPa | 2.5V | 00:00:00 | 02:17:10 | 00:00:00 | |
| OE5MMP-10 | 2026-08-30 12:46:56 | 48.36266 | 12.50442 | 106° | 111km/h | 11567m | -7.4m/s | -54.7°C | 53.6% | 221.3hPa | 2.5V | 00:00:00 | 02:17:08 | 00:00:00 | |
| OE5REO-15 | 2026-08-30 12:46:52 | 48.36288 | 12.50318 | 106° | 113km/h | 11589m | -7.5m/s | -55.0°C | 45.6% | 220.7hPa | 2.5V | 08:07:00 | 00:00:00 | 00:00:00 | |
| OE5WHR-10 | 2026-08-30 12:46:50 | 48.36310 | 12.50195 | 105° | 111km/h | 11611m | -7.0m/s | -55.2°C | 54.5% | 219.8hPa | 2.5V | 00:00:00 | 02:17:02 | 00:00:00 | |
| DO3MHA-11 | 2026-08-30 12:46:48 | 48.36324 | 12.50114 | 106° | 111km/h | 11625m | -7.2m/s | -55.2°C | 54.9% | 219.3hPa | 2.5V | 00:00:00 | 02:17:00 | 00:00:00 | |
| OE5MMP-10 | 2026-08-30 12:46:46 | 48.36339 | 12.50033 | 105° | 111km/h | 11639m | -7.2m/s | -55.3°C | 54.8% | 218.9hPa | 2.5V | 00:00:00 | 02:16:58 | 00:00:00 | |
| DB0UT-7 | 2026-08-30 12:46:45 | 48.36346 | 12.49992 | 106° | 111km/h | 11647m | -7.3m/s | -55.4°C | 55.1% | 218.6hPa | 2.6V | 00:00:00 | 02:16:57 | 00:00:00 | |
| OE5DRO-10 | 2026-08-30 12:46:44 | 48.36360 | 12.49910 | 105° | 113km/h | 11661m | -7.3m/s | -55.4°C | 55.3% | 218.1hPa | 2.6V | 00:00:00 | 00:00:00 | 00:00:00 | |
| OE5FHM-15 | 2026-08-30 12:46:40 | 48.36381 | 12.49786 | 104° | 117km/h | 11683m | -7.2m/s | -55.6°C | 54.6% | 217.3hPa | 2.6V | 08:07:00 | 02:16:52 | 00:00:00 | |
| DO3MHA-11 | 2026-08-30 12:46:38 | 48.36395 | 12.49703 | 105° | 113km/h | 11698m | -7.4m/s | -55.8°C | 54.9% | 216.9hPa | 2.5V | 00:00:00 | 02:16:50 | 00:00:00 | |
| OE5MMP-10 | 2026-08-30 12:46:36 | 48.36409 | 12.49620 | 104° | 115km/h | 11712m | -7.3m/s | -55.9°C | 56.0% | 216.4hPa | 2.5V | 00:00:00 | 02:16:48 | 00:00:00 | |
| DK5PH-5 | 2026-08-30 12:46:32 | 48.36435 | 12.49453 | 104° | 119km/h | 11742m | -7.2m/s | -56.0°C | 56.9% | 215.4hPa | 2.5V | 00:00:00 | 02:16:44 | 00:00:00 | |
| DL6DJ-15 | 2026-08-30 12:46:30 | 48.36447 | 12.49369 | 101° | 113km/h | 11756m | -7.4m/s | -56.2°C | 47.7% | 214.9hPa | 2.5V | 00:00:00 | 00:00:00 | 00:00:00 | |
| OE5WHR-10 | 2026-08-30 12:46:29 | 48.36453 | 12.49326 | 103° | 117km/h | 11763m | -7.2m/s | -56.2°C | 55.2% | 214.6hPa | 2.5V | 08:07:00 | 00:00:00 | 00:00:00 | |
| DO3MHA-11 | 2026-08-30 12:46:28 | 48.36460 | 12.49283 | 103° | 117km/h | 11771m | -7.2m/s | -56.2°C | 54.2% | 214.4hPa | 2.5V | 08:07:00 | 02:16:40 | 00:00:00 | |
| OE5MMP-10 | 2026-08-30 12:46:26 | 48.36473 | 12.49197 | 103° | 117km/h | 11785m | -7.1m/s | -56.4°C | 54.3% | 213.8hPa | 2.5V | 00:00:00 | 02:16:38 | 00:00:00 | |
| OE5DRO-10 | 2026-08-30 12:46:24 | 48.36485 | 12.49111 | 102° | 119km/h | 11800m | -7.2m/s | -56.4°C | 53.5% | 213.4hPa | 2.5V | 00:00:00 | 00:00:00 | 00:00:00 | |
| PG1ADW-2 | 2026-08-30 12:46:20 | 48.36508 | 12.48937 | 101° | 119km/h | 11829m | -7.3m/s | -56.6°C | 52.7% | 212.4hPa | 2.5V | 00:00:00 | 00:00:00 | 00:00:00 | |
| DO3MHA-11 | 2026-08-30 12:46:18 | 48.36519 | 12.48847 | 100° | 119km/h | 11844m | -7.3m/s | -56.6°C | 52.1% | 211.9hPa | 2.6V | 00:00:00 | 02:16:30 | 00:00:00 | |
| OE5MMP-10 | 2026-08-30 12:46:16 | 48.36530 | 12.48758 | 101° | 119km/h | 11858m | -7.2m/s | -56.8°C | 51.8% | 211.4hPa | 2.6V | 08:07:00 | 02:16:28 | 00:00:00 | |
| DB0ND-19 | 2026-08-30 12:46:13 | 48.36554 | 12.48581 | 101° | 117km/h | 11887m | -7.2m/s | 0°C | -1.0% | -1.0hPa | 2.6V | 00:00:00 | 00:00:00 | 00:00:00 | |
| OE5DXL-15 | 2026-08-30 12:46:12 | 48.36560 | 12.48537 | 102° | 115km/h | 11894m | -7.2m/s | -57.0°C | 49.9% | 210.2hPa | 2.6V | 00:00:00 | 00:00:00 | 00:00:00 | |
| OE5FHM-15 | 2026-08-30 12:46:10 | 48.36566 | 12.48493 | 102° | 115km/h | 11902m | -7.3m/s | -57.0°C | 50.0% | 210.0hPa | 2.6V | 00:00:00 | 02:16:22 | 00:00:00 | |
| DO3MHA-11 | 2026-08-30 12:46:08 | 48.36578 | 12.48406 | 103° | 120km/h | 11916m | -7.2m/s | -57.0°C | 49.9% | 209.4hPa | 2.6V | 00:00:00 | 02:16:20 | 00:00:00 | |
| DG1MFX-10 | 2026-08-30 12:46:07 | 48.36578 | 12.48406 | 103° | 117km/h | 11916m | -7.2m/s | -57.1°C | 42.1% | 209.5hPa | 2.6V | 08:08:00 | 00:00:00 | 00:00:00 | |
| OE5MMP-10 | 2026-08-30 12:46:06 | 48.36591 | 12.48318 | 103° | 119km/h | 11930m | -7.3m/s | -57.1°C | 49.5% | 209.0hPa | 2.6V | 00:00:00 | 02:16:18 | 00:00:00 | |
| OE3JTB-15 | 2026-08-30 12:46:05 | 48.36597 | 12.48273 | 103° | 119km/h | 11938m | -7.3m/s | -57.1°C | 48.9% | 208.8hPa | 2.6V | 00:00:00 | 00:00:00 | 00:00:00 | |
| DL6DJ-15 | 2026-08-30 12:45:59 | 48.36638 | 12.48005 | 103° | 115km/h | 11981m | -7.2m/s | -57.6°C | 38.7% | 207.3hPa | 2.6V | 00:00:00 | 00:00:00 | 00:00:00 | |
| DO3MHA-11 | 2026-08-30 12:45:58 | 48.36645 | 12.47962 | 104° | 113km/h | 11989m | -7.1m/s | -57.6°C | 45.7% | 207.1hPa | 2.6V | 00:00:00 | 02:16:10 | 00:00:00 | |
| PG1ADW-2 | 2026-08-30 12:45:56 | 48.36658 | 12.47877 | 104° | 102km/h | 12003m | -7.3m/s | -57.8°C | 44.7% | 206.6hPa | 2.5V | 00:00:00 | 00:00:00 | 00:00:00 | |
| DO7DH-14 | 2026-08-30 12:45:55 | 48.36665 | 12.47835 | 104° | 77km/h | 12011m | -7.3m/s | -57.8°C | 44.4% | 206.3hPa | 2.5V | 00:00:00 | 02:16:07 | 00:00:00 | |
| OE5REO-15 | 2026-08-30 12:45:49 | 48.36699 | 12.47626 | 105° | 111km/h | 12047m | -7.3m/s | -57.7°C | 33.2% | 205.2hPa | 2.5V | 08:08:00 | 00:00:00 | 00:00:00 | |
| DO3MHA-11 | 2026-08-30 12:45:48 | 48.36712 | 12.47544 | 104° | 108km/h | 12061m | -7.4m/s | -57.7°C | 39.0% | 204.7hPa | 2.5V | 00:00:00 | 02:16:00 | 00:00:00 | |
| OE5WHR-10 | 2026-08-30 12:45:47 | 48.36719 | 12.47503 | 104° | 104km/h | 12069m | -7.3m/s | -57.7°C | 38.2% | 204.4hPa | 2.5V | 00:00:00 | 02:15:59 | 00:00:00 | |
| OE5MMP-10 | 2026-08-30 12:45:46 | 48.36725 | 12.47463 | 105° | 106km/h | 12076m | -7.2m/s | -57.8°C | 37.7% | 204.2hPa | 2.5V | 00:00:00 | 02:15:58 | 00:00:00 | |
| OE5DXL-15 | 2026-08-30 12:45:42 | 48.36756 | 12.47265 | 103° | 95km/h | 12112m | -7.4m/s | -58.0°C | 34.5% | 203.1hPa | 2.6V | 00:00:00 | 00:00:00 | 00:00:00 | |
| OE5FHM-15 | 2026-08-30 12:45:40 | 48.36763 | 12.47225 | 104° | 97km/h | 12119m | -7.2m/s | -58.1°C | 34.1% | 202.8hPa | 2.6V | 00:00:00 | 02:15:52 | 00:00:00 | |
| DO3MHA-11 | 2026-08-30 12:45:38 | 48.36776 | 12.47147 | 104° | 104km/h | 12134m | -7.4m/s | -58.2°C | 33.4% | 202.3hPa | 2.6V | 00:00:00 | 02:15:50 | 00:00:00 | |
| OE5MMP-10 | 2026-08-30 12:45:36 | 48.36788 | 12.47070 | 105° | 102km/h | 12149m | -7.3m/s | -58.3°C | 32.3% | 201.9hPa | 2.6V | 00:00:00 | 02:15:48 | 00:00:00 | |
| OE5REO-15 | 2026-08-30 12:45:33 | 48.36801 | 12.46993 | 105° | 104km/h | 12164m | -7.3m/s | -58.4°C | 24.5% | 201.5hPa | 2.6V | 08:09:00 | 00:00:00 | 00:00:00 | |
| DK5PH-5 | 2026-08-30 12:45:32 | 48.36813 | 12.46917 | 103° | 89km/h | 12178m | -7.4m/s | -58.5°C | 29.7% | 200.9hPa | 2.6V | 08:08:00 | 02:15:44 | 00:00:00 | |
| DO3MHA-11 | 2026-08-30 12:45:28 | 48.36834 | 12.46767 | 101° | 95km/h | 12208m | -7.4m/s | -58.5°C | 26.1% | 200.0hPa | 2.5V | 00:00:00 | 02:15:40 | 00:00:00 | |
| OE5MMP-10 | 2026-08-30 12:45:26 | 48.36843 | 12.46693 | 100° | 93km/h | 12222m | -7.3m/s | -58.4°C | 24.3% | 199.5hPa | 2.6V | 00:00:00 | 02:15:38 | 00:00:00 | |
| DG1MFX-10 | 2026-08-30 12:45:21 | 48.36857 | 12.46550 | 98° | 91km/h | 12252m | -7.6m/s | -58.0°C | 15.4% | 198.6hPa | 2.6V | 08:09:00 | 00:00:00 | 00:00:00 | |
| DO3MHA-11 | 2026-08-30 12:45:18 | 48.36868 | 12.46414 | 98° | 86km/h | 12282m | -7.5m/s | -57.1°C | 17.6% | 197.6hPa | 2.6V | 00:00:00 | 02:15:30 | 00:00:00 | |
| OE5MMP-10 | 2026-08-30 12:45:17 | 48.36873 | 12.46348 | 96° | 84km/h | 12297m | -7.6m/s | -57.0°C | 16.9% | 197.2hPa | 2.6V | 00:00:00 | 02:15:28 | 00:00:00 | |
| OE5DXL-15 | 2026-08-30 12:45:11 | 48.36881 | 12.46154 | 91° | 89km/h | 12342m | -7.4m/s | -56.7°C | 15.4% | 195.8hPa | 2.6V | 00:00:00 | 00:00:00 | 00:00:00 | |
| OE5FHM-15 | 2026-08-30 12:45:10 | 48.36881 | 12.46154 | 91° | 89km/h | 12342m | -7.4m/s | -56.7°C | 15.4% | 195.8hPa | 2.6V | 00:00:00 | 02:15:22 | 00:00:00 | |
| DO3MHA-11 | 2026-08-30 12:45:08 | 48.36882 | 12.46091 | 91° | 82km/h | 12358m | -7.6m/s | -56.7°C | 15.1% | 195.3hPa | 2.6V | 00:00:00 | 02:15:20 | 00:00:00 | |
| OE5MMP-10 | 2026-08-30 12:45:06 | 48.36882 | 12.46029 | 90° | 84km/h | 12372m | -7.3m/s | -56.8°C | 15.0% | 194.8hPa | 2.6V | 00:00:00 | 02:15:18 | 00:00:00 | |
| OE5WHR-10 | 2026-08-30 12:45:05 | 48.36882 | 12.45998 | 91° | 89km/h | 12380m | -7.5m/s | -56.8°C | 15.0% | 194.6hPa | 2.6V | 00:00:00 | 00:00:00 | 00:00:00 | |
| DL6DJ-15 | 2026-08-30 12:44:57 | 48.36873 | 12.45712 | 86° | 86km/h | 12449m | -7.7m/s | -57.2°C | 9.7% | 192.5hPa | 2.6V | 00:00:00 | 00:00:00 | 00:00:00 | |
| OE5MMP-10 | 2026-08-30 12:44:56 | 48.36873 | 12.45712 | 87° | 93km/h | 12449m | -7.7m/s | -57.2°C | 14.0% | 192.5hPa | 2.6V | 00:00:00 | 02:15:08 | 00:00:00 | |
| OE5DRO-10 | 2026-08-30 12:44:52 | 48.36864 | 12.45538 | 84° | 102km/h | 12487m | -7.7m/s | -57.0°C | 13.2% | 191.3hPa | 2.6V | 00:00:00 | 00:00:00 | 00:00:00 | |
| DO3MHA-11 | 2026-08-30 12:44:48 | 48.36857 | 12.45431 | 84° | 100km/h | 12510m | -7.4m/s | -56.8°C | 12.9% | 190.6hPa | 2.6V | 00:00:00 | 02:15:00 | 00:00:00 | |
| OE5REO-15 | 2026-08-30 12:44:47 | 48.36857 | 12.45431 | 85° | 97km/h | 12510m | -7.5m/s | -56.9°C | 8.8% | 190.7hPa | 2.6V | 08:09:00 | 00:00:00 | 00:00:00 | |
| OE5MMP-10 | 2026-08-30 12:44:46 | 48.36852 | 12.45357 | 85° | 102km/h | 12525m | -7.5m/s | -56.7°C | 12.6% | 190.2hPa | 2.6V | 08:09:00 | 02:14:58 | 00:00:00 | |
| OE5WHR-10 | 2026-08-30 12:44:44 | 48.36847 | 12.45282 | 83° | 108km/h | 12541m | -7.6m/s | -56.7°C | 12.5% | 189.7hPa | 2.5V | 00:00:00 | 02:14:56 | 00:00:00 | |
| OE5DXL-15 | 2026-08-30 12:44:41 | 48.36833 | 12.45130 | 83° | 108km/h | 12571m | -7.6m/s | -56.7°C | 12.3% | 188.8hPa | 2.5V | 00:00:00 | 00:00:00 | 00:00:00 | |
| OE5FHM-15 | 2026-08-30 12:44:40 | 48.36833 | 12.45130 | 83° | 108km/h | 12571m | -7.6m/s | -56.7°C | 12.3% | 188.8hPa | 2.5V | 00:00:00 | 02:14:52 | 00:00:00 | |
| DO3MHA-11 | 2026-08-30 12:44:38 | 48.36827 | 12.45053 | 84° | 108km/h | 12586m | -7.6m/s | -56.8°C | 12.1% | 188.4hPa | 2.5V | 00:00:00 | 02:14:50 | 00:00:00 | |
| OE5MMP-10 | 2026-08-30 12:44:36 | 48.36821 | 12.44973 | 85° | 110km/h | 12602m | -7.6m/s | -56.9°C | 11.7% | 187.9hPa | 2.5V | 00:00:00 | 02:14:48 | 00:00:00 | |
| DK5PH-5 | 2026-08-30 12:44:32 | 48.36811 | 12.44808 | 85° | 108km/h | 12632m | -7.5m/s | -56.9°C | 11.2% | 187.0hPa | 2.5V | 00:00:00 | 02:14:44 | 00:00:00 | |
| OE5REO-15 | 2026-08-30 12:44:31 | 48.36811 | 12.44808 | 85° | 111km/h | 12632m | -7.6m/s | -56.9°C | 7.3% | 187.0hPa | 2.5V | 08:09:00 | 00:00:00 | 00:00:00 | |
| DO3MHA-11 | 2026-08-30 12:44:28 | 48.36801 | 12.44641 | 86° | 108km/h | 12663m | -7.6m/s | -56.9°C | 10.9% | 186.1hPa | 2.5V | 00:00:00 | 02:14:40 | 00:00:00 | |
| OE5MMP-10 | 2026-08-30 12:44:26 | 48.36798 | 12.44557 | 87° | 111km/h | 12678m | -7.6m/s | -56.9°C | 10.7% | 185.6hPa | 2.5V | 00:00:00 | 02:14:38 | 00:00:00 | |
| OE5WHR-10 | 2026-08-30 12:44:23 | 48.36795 | 12.44430 | 90° | 108km/h | 12701m | -7.6m/s | -56.9°C | 10.5% | 185.0hPa | 2.5V | 00:00:00 | 00:00:00 | 00:00:00 | |
| DG1MFX-10 | 2026-08-30 12:44:20 | 48.36795 | 12.44345 | 90° | 111km/h | 12717m | -7.6m/s | -57.0°C | 6.7% | 184.6hPa | 2.6V | 00:00:00 | 00:00:00 | 00:00:00 | |
| OE5MMP-10 | 2026-08-30 12:44:16 | 48.36791 | 12.44138 | 89° | 106km/h | 12755m | -7.7m/s | -57.1°C | 10.1% | 183.4hPa | 2.6V | 00:00:00 | 02:14:28 | 00:00:00 | |
| OE5REO-15 | 2026-08-30 12:44:15 | 48.36791 | 12.44138 | 89° | 106km/h | 12755m | -7.8m/s | -57.1°C | 6.3% | 183.4hPa | 2.6V | 08:09:00 | 00:00:00 | 00:00:00 | |
| DO3MHA-11 | 2026-08-30 12:44:13 | 48.36790 | 12.44018 | 91° | 106km/h | 12778m | -7.5m/s | -57.1°C | 10.3% | 182.8hPa | 2.6V | 00:00:00 | 02:14:25 | 00:00:00 | |
| OE5DXL-15 | 2026-08-30 12:44:11 | 48.36792 | 12.43897 | 92° | 102km/h | 12801m | -7.6m/s | -56.9°C | 10.2% | 182.1hPa | 2.6V | 00:00:00 | 00:00:00 | 00:00:00 | |
| OE5FHM-15 | 2026-08-30 12:44:10 | 48.36792 | 12.43897 | 92° | 100km/h | 12801m | -7.6m/s | -56.9°C | 10.2% | 182.1hPa | 2.6V | 00:00:00 | 02:14:22 | 00:00:00 | |
| OE5MMP-10 | 2026-08-30 12:44:07 | 48.36792 | 12.43737 | 89° | 104km/h | 12831m | -7.8m/s | -56.8°C | 9.9% | 181.2hPa | 2.6V | 00:00:00 | 02:14:18 | 00:00:00 | |
| DB0UT-7 | 2026-08-30 12:44:04 | 48.36791 | 12.43657 | 89° | 97km/h | 12847m | -7.9m/s | -56.8°C | 9.7% | 180.7hPa | 2.6V | 00:00:00 | 00:00:00 | 00:00:00 | |
| DO3MHA-11 | 2026-08-30 12:44:03 | 48.36790 | 12.43617 | 89° | 99km/h | 12855m | -7.9m/s | -56.7°C | 9.5% | 180.5hPa | 2.6V | 00:00:00 | 02:14:15 | 00:00:00 | |
| DL6DJ-15 | 2026-08-30 12:43:55 | 48.36785 | 12.43269 | 86° | 95km/h | 12925m | -7.7m/s | -56.1°C | 5.0% | 178.6hPa | 2.6V | 00:00:00 | 00:00:00 | 00:00:00 | |
| OE5DRO-10 | 2026-08-30 12:43:53 | 48.36783 | 12.43233 | 88° | 95km/h | 12933m | -7.9m/s | -56.0°C | 8.4% | 178.3hPa | 2.6V | 00:00:00 | 00:00:00 | 00:00:00 | |
| OE5MMP-10 | 2026-08-30 12:43:46 | 48.36773 | 12.42977 | 86° | 97km/h | 12988m | -8.0m/s | -55.8°C | 8.4% | 176.7hPa | 2.6V | 00:00:00 | 02:13:58 | 00:00:00 | |
| OE5REO-15 | 2026-08-30 12:43:44 | 48.36770 | 12.42940 | 85° | 99km/h | 12996m | -7.9m/s | -55.9°C | 5.0% | 176.6hPa | 2.6V | 08:10:00 | 00:00:00 | 00:00:00 | |
| OE5WHR-10 | 2026-08-30 12:43:41 | 48.36759 | 12.42793 | 84° | 97km/h | 13028m | -7.9m/s | -55.9°C | 8.3% | 175.6hPa | 2.6V | 00:00:00 | 02:13:53 | 00:00:00 | |
| OE5FHM-15 | 2026-08-30 12:43:40 | 48.36757 | 12.42758 | 85° | 95km/h | 13036m | -7.9m/s | -56.0°C | 8.3% | 175.4hPa | 2.6V | 00:00:00 | 02:13:52 | 00:00:00 | |
| OE5MMP-10 | 2026-08-30 12:43:36 | 48.36748 | 12.42612 | 85° | 97km/h | 13068m | -7.8m/s | -55.9°C | 8.3% | 174.5hPa | 2.6V | 00:00:00 | 02:13:48 | 00:00:00 | |
| DK5PH-5 | 2026-08-30 12:43:32 | 48.36739 | 12.42463 | 84° | 93km/h | 13099m | -8.0m/s | -55.8°C | 8.1% | 173.6hPa | 2.6V | 00:00:00 | 02:13:44 | 00:00:00 | |
| OE5REO-15 | 2026-08-30 12:43:28 | 48.36732 | 12.42356 | 86° | 93km/h | 13123m | -8.1m/s | -55.9°C | 4.7% | 173.0hPa | 2.6V | 08:10:00 | 00:00:00 | 00:00:00 | |
| OE5MMP-10 | 2026-08-30 12:43:26 | 48.36727 | 12.42248 | 87° | 95km/h | 13148m | -7.9m/s | -56.0°C | 7.9% | 172.3hPa | 2.6V | 00:00:00 | 02:13:38 | 00:00:00 | |
| DL6DJ-15 | 2026-08-30 12:43:24 | 48.36723 | 12.42136 | 85° | 99km/h | 13172m | -8.3m/s | -56.1°C | 4.5% | 171.7hPa | 2.6V | 00:00:00 | 00:00:00 | 00:00:00 | |
| DG1MFX-10 | 2026-08-30 12:43:21 | 48.36721 | 12.42099 | 87° | 97km/h | 13180m | -8.1m/s | -56.0°C | 4.5% | 171.5hPa | 2.6V | 08:10:00 | 00:00:00 | 00:00:00 | |
| OE5WHR-10 | 2026-08-30 12:43:20 | 48.36717 | 12.42026 | 87° | 91km/h | 13197m | -8.1m/s | -56.0°C | 7.8% | 171.0hPa | 2.6V | 08:10:00 | 00:00:00 | 00:00:00 | |
| OE5MMP-10 | 2026-08-30 12:43:16 | 48.36712 | 12.41887 | 88° | 93km/h | 13229m | -8.1m/s | -56.0°C | 7.6% | 170.2hPa | 2.6V | 08:10:00 | 02:13:28 | 00:00:00 | |
| OE5REO-15 | 2026-08-30 12:43:12 | 48.36708 | 12.41782 | 87° | 93km/h | 13253m | -8.4m/s | -56.1°C | 4.2% | 169.5hPa | 2.5V | 08:11:00 | 00:00:00 | 00:00:00 | |
| OE5FHM-15 | 2026-08-30 12:43:10 | 48.36703 | 12.41673 | 86° | 89km/h | 13279m | -8.7m/s | -56.1°C | 7.2% | 168.8hPa | 2.5V | 00:00:00 | 02:13:22 | 00:00:00 | |
| OE5MMP-10 | 2026-08-30 12:43:06 | 48.36697 | 12.41534 | 88° | 88km/h | 13312m | -8.1m/s | -56.0°C | 7.0% | 167.9hPa | 2.5V | 00:00:00 | 02:13:18 | 00:00:00 | |
| DO3MHA-11 | 2026-08-30 12:43:04 | 48.36693 | 12.41434 | 87° | 88km/h | 13337m | -8.3m/s | -55.9°C | 6.9% | 167.2hPa | 2.5V | 00:00:00 | 02:13:15 | 00:00:00 | |
| DL6DJ-15 | 2026-08-30 12:42:53 | 48.36675 | 12.41066 | 87° | 88km/h | 13429m | -8.2m/s | -55.9°C | 3.4% | 164.9hPa | 2.6V | 00:00:00 | 00:00:00 | 00:00:00 | |
| OE5MMP-10 | 2026-08-30 12:42:46 | 48.36669 | 12.40862 | 88° | 88km/h | 13479m | -8.2m/s | -56.1°C | 6.5% | 163.6hPa | 2.6V | 00:00:00 | 02:12:58 | 00:00:00 | |
| OE5HKT-10 | 2026-08-30 12:42:45 | 48.36668 | 12.40829 | 88° | 93km/h | 13488m | -8.3m/s | -56.2°C | 6.6% | 163.4hPa | 2.5V | 00:00:00 | 00:00:00 | 00:00:00 | |
| DO3MHA-11 | 2026-08-30 12:42:43 | 48.36666 | 12.40763 | 88° | 89km/h | 13504m | -8.6m/s | -56.3°C | 6.6% | 162.9hPa | 2.5V | 00:00:00 | 02:12:55 | 00:00:00 | |
| OE5REO-15 | 2026-08-30 12:42:42 | 48.36665 | 12.40730 | 88° | 88km/h | 13513m | -8.4m/s | -56.2°C | 3.3% | 162.7hPa | 2.5V | 08:11:00 | 00:00:00 | 00:00:00 | |
| DG1MFX-10 | 2026-08-30 12:42:41 | 48.36664 | 12.40697 | 88° | 88km/h | 13521m | -8.5m/s | -56.1°C | 3.3% | 162.5hPa | 2.5V | 08:11:00 | 00:00:00 | 00:00:00 | |
| OE5FHM-15 | 2026-08-30 12:42:40 | 48.36662 | 12.40663 | 86° | 97km/h | 13530m | -8.3m/s | -56.1°C | 6.4% | 162.2hPa | 2.5V | 00:00:00 | 02:12:52 | 00:00:00 | |
| OE5WHR-10 | 2026-08-30 12:42:38 | 48.36659 | 12.40596 | 86° | 95km/h | 13547m | -8.5m/s | -56.2°C | 6.4% | 161.8hPa | 2.5V | 00:00:00 | 02:12:50 | 00:00:00 | |
| OE5MMP-10 | 2026-08-30 12:42:36 | 48.36654 | 12.40528 | 84° | 93km/h | 13564m | -8.5m/s | -56.2°C | 6.4% | 161.4hPa | 2.5V | 00:00:00 | 02:12:48 | 00:00:00 | |
| OE5DXL-15 | 2026-08-30 12:42:35 | 48.36650 | 12.40461 | 85° | 99km/h | 13581m | -8.3m/s | -56.3°C | 6.4% | 161.0hPa | 2.5V | 00:00:00 | 00:00:00 | 00:00:00 | |
| DO3MHA-11 | 2026-08-30 12:42:33 | 48.36647 | 12.40426 | 85° | 97km/h | 13589m | -8.6m/s | -56.3°C | 6.5% | 160.8hPa | 2.5V | 08:11:00 | 02:12:45 | 00:00:00 | |
| DK5PH-5 | 2026-08-30 12:42:32 | 48.36645 | 12.40391 | 86° | 99km/h | 13598m | -8.6m/s | -56.3°C | 6.5% | 160.5hPa | 2.5V | 00:00:00 | 02:12:44 | 00:00:00 | |
| DF7PN | 2026-08-30 12:42:31 | 48.36643 | 12.40355 | 85° | 95km/h | 13606m | -8.3m/s | -56.3°C | -1.0% | -1.0hPa | 2.6V | 00:00:00 | 00:00:00 | 00:00:00 | |
| OE5MMP-10 | 2026-08-30 12:42:27 | 48.36633 | 12.40173 | 86° | 99km/h | 13648m | -8.2m/s | -56.6°C | 6.6% | 159.3hPa | 2.6V | 00:00:00 | 02:12:38 | 00:00:00 | |
| DO3MHA-11 | 2026-08-30 12:42:23 | 48.36628 | 12.40062 | 87° | 100km/h | 13674m | -8.3m/s | -56.5°C | 6.5% | 158.6hPa | 2.6V | 00:00:00 | 02:12:35 | 00:00:00 | |
| DL6DJ-15 | 2026-08-30 12:42:22 | 48.36625 | 12.39987 | 86° | 99km/h | 13690m | -8.4m/s | -56.5°C | 3.2% | 158.2hPa | 2.6V | 00:00:00 | 00:00:00 | 00:00:00 | |
| DG1MFX-10 | 2026-08-30 12:42:20 | 48.36624 | 12.39950 | 88° | 99km/h | 13699m | -8.6m/s | -56.5°C | 3.3% | 158.0hPa | 2.6V | 00:00:00 | 00:00:00 | 00:00:00 | |
| BAUMI2-15 | 2026-08-30 12:42:19 | 48.36623 | 12.39912 | 88° | 102km/h | 13708m | -8.5m/s | -56.4°C | 6.6% | 157.7hPa | 2.6V | 00:00:00 | 02:12:31 | 00:00:00 | |
| OE5DRO-10 | 2026-08-30 12:42:17 | 48.36620 | 12.39797 | 90° | 75km/h | 13733m | -8.4m/s | -56.2°C | 6.5% | 157.1hPa | 2.6V | 00:00:00 | 00:00:00 | 00:00:00 | |
| OE5MMP-10 | 2026-08-30 12:42:16 | 48.36620 | 12.39797 | 90° | 100km/h | 13733m | -8.4m/s | -56.2°C | 6.5% | 157.1hPa | 2.6V | 00:00:00 | 02:12:28 | 00:00:00 | |
| BAUMI2-15 | 2026-08-30 12:42:14 | 48.36619 | 12.39719 | 89° | 100km/h | 13750m | -8.5m/s | -56.2°C | 6.5% | 156.7hPa | 2.6V | 00:00:00 | 02:12:26 | 00:00:00 | |
| DO3MHA-11 | 2026-08-30 12:42:13 | 48.36618 | 12.39680 | 89° | 97km/h | 13759m | -8.4m/s | -56.3°C | 6.6% | 156.5hPa | 2.6V | 00:00:00 | 02:12:25 | 00:00:00 | |
| OE5REO-15 | 2026-08-30 12:42:11 | 48.36618 | 12.39641 | 89° | 102km/h | 13767m | -8.7m/s | -56.4°C | 3.3% | 156.3hPa | 2.6V | 08:12:00 | 00:00:00 | 00:00:00 | |
| OE5FHM-15 | 2026-08-30 12:42:10 | 48.36616 | 12.39566 | 90° | 86km/h | 13785m | -8.8m/s | -56.1°C | 6.6% | 155.8hPa | 2.6V | 08:11:00 | 02:12:22 | 00:00:00 | |
| BAUMI2-15 | 2026-08-30 12:42:09 | 48.36616 | 12.39528 | 89° | 95km/h | 13793m | -8.8m/s | -56.1°C | 6.5% | 155.6hPa | 2.5V | 00:00:00 | 02:12:21 | 00:00:00 | |
| OE5MMP-10 | 2026-08-30 12:42:06 | 48.36616 | 12.39420 | 91° | 91km/h | 13819m | -8.3m/s | -56.2°C | 6.6% | 155.0hPa | 2.5V | 00:00:00 | 02:12:18 | 00:00:00 | |
| OE5DXL-15 | 2026-08-30 12:42:05 | 48.36617 | 12.39350 | 93° | 82km/h | 13836m | -8.6m/s | -56.1°C | 6.5% | 154.6hPa | 2.5V | 08:11:00 | 00:00:00 | 00:00:00 | |
| DB0UT-7 | 2026-08-30 12:42:03 | 48.36618 | 12.39315 | 93° | 71km/h | 13845m | -8.4m/s | -56.0°C | 6.4% | 154.4hPa | 2.6V | 00:00:00 | 00:00:00 | 00:00:00 | |
| DL6DJ-15 | 2026-08-30 12:41:50 | 48.36632 | 12.38897 | 93° | 78km/h | 13956m | -8.7m/s | -55.2°C | 3.0% | 151.7hPa | 2.6V | 00:00:00 | 00:00:00 | 00:00:00 | |
| BAUMI2-15 | 2026-08-30 12:41:49 | 48.36634 | 12.38866 | 95° | 78km/h | 13965m | -8.4m/s | -55.2°C | 6.0% | 151.5hPa | 2.6V | 00:00:00 | 02:12:01 | 00:00:00 | |
| OE5MMP-10 | 2026-08-30 12:41:46 | 48.36638 | 12.38776 | 95° | 78km/h | 13991m | -8.6m/s | -55.3°C | 6.1% | 150.9hPa | 2.6V | 08:12:00 | 02:11:58 | 00:00:00 | |
| DO3MHA-11 | 2026-08-30 12:41:43 | 48.36641 | 12.38687 | 93° | 77km/h | 14017m | -8.5m/s | -55.3°C | 6.1% | 150.2hPa | 2.5V | 00:00:00 | 02:11:55 | 00:00:00 | |
| OE5FHM-15 | 2026-08-30 12:41:40 | 48.36643 | 12.38598 | 92° | 71km/h | 14043m | -8.8m/s | -55.5°C | 6.3% | 149.7hPa | 2.5V | 00:00:00 | 02:11:52 | 00:00:00 | |
| DG1MFX-10 | 2026-08-30 12:41:38 | 48.36644 | 12.38569 | 94° | 77km/h | 14052m | -8.7m/s | -55.5°C | 3.2% | 149.5hPa | 2.5V | 00:00:00 | 00:00:00 | 00:00:00 | |
| OE5HKT-10 | 2026-08-30 12:41:37 | 48.36646 | 12.38511 | 94° | 71km/h | 14069m | -8.7m/s | -55.6°C | 6.3% | 149.0hPa | 2.5V | 00:00:00 | 00:00:00 | 00:00:00 | |
| OE5MMP-10 | 2026-08-30 12:41:36 | 48.36647 | 12.38482 | 95° | 73km/h | 14078m | -8.4m/s | -55.7°C | 6.5% | 148.8hPa | 2.5V | 00:00:00 | 02:11:48 | 00:00:00 | |
| OE5WHR-10 | 2026-08-30 12:41:35 | 48.36649 | 12.38453 | 94° | 69km/h | 14086m | -8.6m/s | -55.6°C | 6.5% | 148.6hPa | 2.5V | 00:00:00 | 02:11:47 | 00:00:00 | |
| DO3MHA-11 | 2026-08-30 12:41:33 | 48.36651 | 12.38397 | 94° | 69km/h | 14103m | -8.6m/s | -55.6°C | 6.4% | 148.2hPa | 2.5V | 00:00:00 | 02:11:45 | 00:00:00 | |
| DK5PH-5 | 2026-08-30 12:41:32 | 48.36652 | 12.38369 | 92° | 68km/h | 14112m | -8.7m/s | -55.6°C | 6.2% | 148.0hPa | 2.6V | 00:00:00 | 02:11:44 | 00:00:00 | |
| BAUMI2-15 | 2026-08-30 12:41:30 | 48.36653 | 12.38314 | 92° | 69km/h | 14129m | -8.6m/s | -55.4°C | 6.2% | 147.7hPa | 2.6V | 00:00:00 | 02:11:42 | 00:00:00 | |
| OE5MMP-10 | 2026-08-30 12:41:26 | 48.36653 | 12.38210 | 91° | 68km/h | 14163m | -8.4m/s | -55.3°C | 6.2% | 146.8hPa | 2.6V | 00:00:00 | 02:11:38 | 00:00:00 | |
| OE5REO-15 | 2026-08-30 12:41:24 | 48.36653 | 12.38184 | 91° | 68km/h | 14172m | -8.7m/s | -55.4°C | 3.2% | 146.7hPa | 2.6V | 08:13:00 | 00:00:00 | 00:00:00 | |
| DO3MHA-11 | 2026-08-30 12:41:23 | 48.36653 | 12.38132 | 89° | 68km/h | 14189m | -8.3m/s | -55.4°C | 6.4% | 146.2hPa | 2.6V | 00:00:00 | 02:11:35 | 00:00:00 | |
| DL6DJ-15 | 2026-08-30 12:41:19 | 48.36648 | 12.38029 | 82° | 66km/h | 14222m | -8.4m/s | -55.6°C | 3.4% | 145.5hPa | 2.6V | 00:00:00 | 00:00:00 | 00:00:00 | |
| DG1MFX-10 | 2026-08-30 12:41:18 | 48.36645 | 12.38004 | 84° | 68km/h | 14231m | -8.6m/s | -55.7°C | 3.5% | 145.3hPa | 2.6V | 08:13:00 | 00:00:00 | 00:00:00 | |
| OE5MMP-10 | 2026-08-30 12:41:16 | 48.36641 | 12.37953 | 82° | 66km/h | 14248m | -8.6m/s | -55.8°C | 6.7% | 144.9hPa | 2.6V | 00:00:00 | 02:11:28 | 00:00:00 | |
| OE5WHR-10 | 2026-08-30 12:41:14 | 48.36636 | 12.37903 | 84° | 66km/h | 14265m | -8.3m/s | -56.1°C | 6.7% | 144.5hPa | 2.5V | 00:00:00 | 00:00:00 | 00:00:00 | |
| DO3MHA-11 | 2026-08-30 12:41:13 | 48.36634 | 12.37878 | 84° | 66km/h | 14273m | -8.5m/s | -56.1°C | 6.7% | 144.3hPa | 2.6V | 00:00:00 | 02:11:25 | 00:00:00 | |
| OE5FHM-15 | 2026-08-30 12:41:10 | 48.36630 | 12.37803 | 85° | 66km/h | 14299m | -8.7m/s | -56.2°C | 6.7% | 143.7hPa | 2.6V | 00:00:00 | 02:11:22 | 00:00:00 | |
| BAUMI2-15 | 2026-08-30 12:41:09 | 48.36629 | 12.37778 | 87° | 66km/h | 14308m | -8.6m/s | -56.3°C | 6.7% | 143.5hPa | 2.6V | 00:00:00 | 02:11:21 | 00:00:00 | |
| OE5REO-15 | 2026-08-30 12:41:08 | 48.36629 | 12.37778 | 87° | 66km/h | 14308m | -8.7m/s | -56.3°C | 3.4% | 143.6hPa | 2.6V | 08:13:00 | 00:00:00 | 00:00:00 | |
| OE5MMP-10 | 2026-08-30 12:41:06 | 48.36626 | 12.37705 | 89° | 68km/h | 14334m | -8.8m/s | -56.0°C | 6.5% | 142.9hPa | 2.6V | 00:00:00 | 02:11:18 | 00:00:00 | |
| OE5DXL-15 | 2026-08-30 12:41:05 | 48.36626 | 12.37656 | 91° | 66km/h | 14352m | -8.6m/s | -55.8°C | 6.4% | 142.6hPa | 2.6V | 00:00:00 | 00:00:00 | 00:00:00 | |
| BAUMI2-15 | 2026-08-30 12:41:04 | 48.36626 | 12.37656 | 91° | 68km/h | 14352m | -8.6m/s | -55.8°C | 6.4% | 142.6hPa | 2.6V | 00:00:00 | 02:11:16 | 00:00:00 | |
| DO3MHA-11 | 2026-08-30 12:41:03 | 48.36626 | 12.37631 | 94° | 68km/h | 14360m | -8.8m/s | -55.7°C | 6.4% | 142.3hPa | 2.6V | 08:12:00 | 02:11:15 | 00:00:00 | |
| DL6DJ-15 | 2026-08-30 12:40:48 | 48.36646 | 12.37253 | 94° | 66km/h | 14492m | -9.0m/s | -56.1°C | 3.4% | 139.4hPa | 2.5V | 00:00:00 | 00:00:00 | 00:00:00 | |
| BAUMI2-15 | 2026-08-30 12:40:47 | 48.36647 | 12.37228 | 95° | 68km/h | 14501m | -8.8m/s | -56.0°C | 6.7% | 139.2hPa | 2.5V | 00:00:00 | 02:10:59 | 00:00:00 | |
| OE5MMP-10 | 2026-08-30 12:40:46 | 48.36648 | 12.37202 | 95° | 66km/h | 14510m | -8.9m/s | -56.0°C | 6.7% | 139.0hPa | 2.5V | 00:00:00 | 02:10:58 | 00:00:00 | |
| DO3MHA-11 | 2026-08-30 12:40:43 | 48.36654 | 12.37127 | 97° | 66km/h | 14537m | -8.9m/s | -56.1°C | 6.8% | 138.4hPa | 2.5V | 00:00:00 | 02:10:55 | 00:00:00 | |
| BAUMI2-15 | 2026-08-30 12:40:42 | 48.36656 | 12.37102 | 98° | 66km/h | 14546m | -9.0m/s | -56.1°C | 6.8% | 138.2hPa | 2.5V | 08:13:00 | 02:10:54 | 00:00:00 | |
| OE5FHM-15 | 2026-08-30 12:40:40 | 48.36661 | 12.37052 | 100° | 55km/h | 14564m | -8.9m/s | -56.1°C | 6.8% | 137.9hPa | 2.5V | 00:00:00 | 02:10:52 | 00:00:00 | |
| OE5DRO-10 | 2026-08-30 12:40:38 | 48.36667 | 12.37004 | 103° | 57km/h | 14582m | -9.0m/s | -56.0°C | 6.8% | 137.5hPa | 2.6V | 08:13:00 | 00:00:00 | 00:00:00 | |
| OE5MMP-10 | 2026-08-30 12:40:36 | 48.36674 | 12.36956 | 103° | 58km/h | 14600m | -9.0m/s | -56.1°C | 6.8% | 137.1hPa | 2.6V | 00:00:00 | 02:10:48 | 00:00:00 | |
| OE5DXL-15 | 2026-08-30 12:40:35 | 48.36682 | 12.36909 | 103° | 51km/h | 14618m | -8.9m/s | -56.1°C | 6.7% | 136.7hPa | 2.6V | 00:00:00 | 00:00:00 | 00:00:00 | |
| DO3MHA-11 | 2026-08-30 12:40:33 | 48.36685 | 12.36886 | 104° | 57km/h | 14627m | -8.9m/s | -56.1°C | 6.7% | 136.5hPa | 2.6V | 00:00:00 | 02:10:45 | 00:00:00 | |
| OE5HKT-10 | 2026-08-30 12:40:32 | 48.36688 | 12.36864 | 104° | 53km/h | 14636m | -9.2m/s | -56.1°C | 6.7% | 136.3hPa | 2.6V | 00:00:00 | 00:00:00 | 00:00:00 | |
| BAUMI2-15 | 2026-08-30 12:40:30 | 48.36695 | 12.36821 | 103° | 53km/h | 14654m | -8.9m/s | -56.0°C | 6.6% | 135.9hPa | 2.6V | 00:00:00 | 02:10:42 | 00:00:00 | |
| OE5MMP-10 | 2026-08-30 12:40:26 | 48.36706 | 12.36739 | 102° | 51km/h | 14690m | -9.0m/s | -56.2°C | 6.6% | 135.1hPa | 2.6V | 00:00:00 | 02:10:38 | 00:00:00 | |
| DO3MHA-11 | 2026-08-30 12:40:23 | 48.36713 | 12.36680 | 100° | 49km/h | 14718m | -9.1m/s | -56.1°C | 6.5% | 134.6hPa | 2.6V | 00:00:00 | 02:10:35 | 00:00:00 | |
| OE5REO-15 | 2026-08-30 12:40:21 | 48.36714 | 12.36661 | 98° | 53km/h | 14727m | -9.3m/s | -56.2°C | 3.3% | 134.4hPa | 2.6V | 08:14:00 | 00:00:00 | 00:00:00 | |
| OE5DRO-10 | 2026-08-30 12:40:20 | 48.36720 | 12.36584 | 94° | 47km/h | 14764m | -9.0m/s | -56.0°C | 6.3% | 133.6hPa | 2.6V | 00:00:00 | 00:00:00 | 00:00:00 | |
| DL6DJ-15 | 2026-08-30 12:40:17 | 48.36721 | 12.36566 | 95° | 47km/h | 14773m | -9.2m/s | -56.0°C | 3.1% | 133.4hPa | 2.6V | 00:00:00 | 00:00:00 | 00:00:00 | |
| OE5MMP-10 | 2026-08-30 12:40:16 | 48.36721 | 12.36548 | 94° | 47km/h | 14782m | -9.2m/s | -56.1°C | 6.3% | 133.2hPa | 2.6V | 08:13:00 | 02:10:28 | 00:00:00 | |
| DO3MHA-11 | 2026-08-30 12:40:13 | 48.36723 | 12.36494 | 92° | 47km/h | 14810m | -9.0m/s | -56.3°C | 6.3% | 132.6hPa | 2.6V | 00:00:00 | 02:10:25 | 00:00:00 | |
| OE5WHR-10 | 2026-08-30 12:40:11 | 48.36723 | 12.36458 | 91° | 53km/h | 14828m | -9.3m/s | -56.4°C | 6.4% | 132.2hPa | 2.6V | 08:13:00 | 00:00:00 | 00:00:00 | |
| OE5FHM-15 | 2026-08-30 12:40:10 | 48.36723 | 12.36439 | 91° | 55km/h | 14838m | -9.0m/s | -56.4°C | 6.4% | 132.0hPa | 2.5V | 00:00:00 | 02:10:22 | 00:00:00 | |
| OE5MMP-10 | 2026-08-30 12:40:06 | 48.36722 | 12.36367 | 87° | 49km/h | 14874m | -9.2m/s | -56.7°C | 6.5% | 131.3hPa | 2.5V | 00:00:00 | 02:10:18 | 00:00:00 | |
| OE5DXL-15 | 2026-08-30 12:40:05 | 48.36721 | 12.36331 | 88° | 58km/h | 14893m | -9.2m/s | -56.8°C | 6.5% | 130.9hPa | 2.5V | 00:00:00 | 00:00:00 | 00:00:00 | |
| DK5PH-5 | 2026-08-30 12:40:02 | 48.36719 | 12.36295 | 83° | 58km/h | 14911m | -8.9m/s | -56.9°C | 6.4% | 130.5hPa | 2.5V | 00:00:00 | 02:10:14 | 00:00:00 | |
| OE5DRO-10 | 2026-08-30 12:40:00 | 48.36715 | 12.36258 | 78° | 58km/h | 14929m | -9.1m/s | -57.0°C | 6.4% | 130.1hPa | 2.5V | 00:00:00 | 00:00:00 | 00:00:00 | |
| OE5MMP-10 | 2026-08-30 12:39:56 | 48.36701 | 12.36178 | 74° | 60km/h | 14966m | -9.2m/s | -57.0°C | 6.3% | 129.4hPa | 2.5V | 00:00:00 | 02:10:08 | 00:00:00 | |
| DG1MFX-10 | 2026-08-30 12:39:55 | 48.36701 | 12.36178 | 75° | 57km/h | 14966m | -9.3m/s | -57.0°C | 2.9% | 129.4hPa | 2.5V | 08:14:00 | 00:00:00 | 00:00:00 | |
| DO3MHA-11 | 2026-08-30 12:39:52 | 48.36684 | 12.36093 | 74° | 62km/h | 15004m | -9.1m/s | -56.2°C | 5.9% | 128.6hPa | 2.5V | 00:00:00 | 02:10:04 | 00:00:00 | |
| OE5WHR-10 | 2026-08-30 12:39:50 | 48.36675 | 12.36049 | 75° | 60km/h | 15022m | -9.4m/s | -56.3°C | 5.9% | 128.2hPa | 2.5V | 00:00:00 | 00:00:00 | 00:00:00 | |
| OE5MMP-10 | 2026-08-30 12:39:46 | 48.36660 | 12.35958 | 79° | 62km/h | 15060m | -9.5m/s | -55.9°C | 5.6% | 127.4hPa | 2.5V | 00:00:00 | 02:09:58 | 00:00:00 | |
| DO3MHA-11 | 2026-08-30 12:39:42 | 48.36647 | 12.35866 | 80° | 60km/h | 15098m | -9.6m/s | -55.8°C | 5.4% | 126.7hPa | 2.5V | 00:00:00 | 02:09:54 | 00:00:00 | |
| OE5DRO-10 | 2026-08-30 12:39:41 | 48.36645 | 12.35843 | 81° | 57km/h | 15107m | -9.4m/s | -55.7°C | 5.3% | 126.5hPa | 2.5V | 00:00:00 | 00:00:00 | 00:00:00 | |
| OE5FHM-15 | 2026-08-30 12:39:40 | 48.36642 | 12.35821 | 82° | 53km/h | 15117m | -9.5m/s | -55.7°C | 5.3% | 126.3hPa | 2.6V | 00:00:00 | 02:09:52 | 00:00:00 | |
| OE5MMP-10 | 2026-08-30 12:39:36 | 48.36635 | 12.35729 | 84° | 57km/h | 15155m | -9.5m/s | -55.5°C | 5.2% | 125.6hPa | 2.6V | 00:00:00 | 02:09:48 | 00:00:00 | |
| DG1MFX-10 | 2026-08-30 12:39:34 | 48.36633 | 12.35706 | 84° | 58km/h | 15165m | -9.4m/s | -55.5°C | 2.2% | 125.4hPa | 2.6V | 00:00:00 | 00:00:00 | 00:00:00 | |
| DO3MHA-11 | 2026-08-30 12:39:32 | 48.36628 | 12.35642 | 84° | 53km/h | 15193m | -9.5m/s | -55.6°C | 5.2% | 124.8hPa | 2.6V | 08:14:00 | 02:09:44 | 00:00:00 | |
| OE5WHR-10 | 2026-08-30 12:39:29 | 48.36624 | 12.35580 | 86° | 49km/h | 15222m | -9.5m/s | -55.7°C | 5.2% | 124.3hPa | 2.5V | 00:00:00 | 02:09:41 | 00:00:00 | |
| OE5MMP-10 | 2026-08-30 12:39:26 | 48.36622 | 12.35520 | 87° | 51km/h | 15250m | -9.5m/s | -55.8°C | 5.1% | 123.7hPa | 2.5V | 00:00:00 | 02:09:38 | 00:00:00 | |
| DO3MHA-11 | 2026-08-30 12:39:22 | 48.36619 | 12.35440 | 89° | 49km/h | 15288m | -9.5m/s | -56.1°C | 5.2% | 123.0hPa | 2.5V | 00:00:00 | 02:09:34 | 00:00:00 | |
| OE5REO-15 | 2026-08-30 12:39:19 | 48.36618 | 12.35401 | 88° | 51km/h | 15308m | -9.6m/s | -56.2°C | 2.1% | 122.6hPa | 2.5V | 08:14:00 | 00:00:00 | 00:00:00 | |
| OE5MMP-10 | 2026-08-30 12:39:16 | 48.36616 | 12.35324 | 88° | 46km/h | 15346m | -9.7m/s | -56.3°C | 5.2% | 121.8hPa | 2.5V | 00:00:00 | 02:09:28 | 00:00:00 | |
| DL6DJ-15 | 2026-08-30 12:39:15 | 48.36615 | 12.35306 | 85° | 47km/h | 15356m | -9.7m/s | -56.3°C | 2.1% | 121.7hPa | 2.5V | 00:00:00 | 00:00:00 | 00:00:00 | |
| DG1MFX-10 | 2026-08-30 12:39:13 | 48.36614 | 12.35287 | 86° | 46km/h | 15365m | -9.6m/s | -56.3°C | 2.1% | 121.5hPa | 2.5V | 00:00:00 | 00:00:00 | 00:00:00 | |
| DO3MHA-11 | 2026-08-30 12:39:12 | 48.36612 | 12.35253 | 83° | 44km/h | 15385m | -9.8m/s | -56.3°C | 5.2% | 121.1hPa | 2.5V | 00:00:00 | 02:09:24 | 00:00:00 | |
| OE5FHM-15 | 2026-08-30 12:39:10 | 48.36609 | 12.35219 | 82° | 46km/h | 15405m | -9.9m/s | -56.3°C | 5.2% | 120.7hPa | 2.5V | 00:00:00 | 02:09:22 | 00:00:00 | |
| OE5WHR-10 | 2026-08-30 12:39:08 | 48.36605 | 12.35186 | 78° | 44km/h | 15424m | -9.7m/s | -56.3°C | 5.1% | 120.3hPa | 2.6V | 00:00:00 | 00:00:00 | 00:00:00 | |
| OE5HKT-10 | 2026-08-30 12:39:07 | 48.36603 | 12.35170 | 79° | 46km/h | 15434m | -9.5m/s | -56.3°C | 5.1% | 120.2hPa | 2.6V | 00:00:00 | 02:09:19 | 00:00:00 | |
| OE5MMP-10 | 2026-08-30 12:39:06 | 48.36600 | 12.35154 | 77° | 44km/h | 15444m | -9.7m/s | -56.3°C | 5.1% | 120.0hPa | 2.6V | 00:00:00 | 02:09:18 | 00:00:00 | |
| OE5REO-15 | 2026-08-30 12:39:04 | 48.36597 | 12.35138 | 75° | 42km/h | 15453m | -9.7m/s | -56.3°C | 2.0% | 119.9hPa | 2.6V | 08:14:00 | 00:00:00 | 00:00:00 | |
| OE5DRO-10 | 2026-08-30 12:39:03 | 48.36592 | 12.35107 | 73° | 46km/h | 15473m | -9.8m/s | -56.1°C | 4.9% | 119.5hPa | 2.6V | 00:00:00 | 00:00:00 | 00:00:00 | |
| DO3MHA-11 | 2026-08-30 12:39:02 | 48.36588 | 12.35091 | 70° | 46km/h | 15483m | -9.7m/s | -56.1°C | 4.9% | 119.2hPa | 2.6V | 00:00:00 | 02:09:14 | 00:00:00 | |
| OE5MMP-10 | 2026-08-30 12:38:56 | 48.36560 | 12.34999 | 63° | 46km/h | 15541m | -9.9m/s | -56.2°C | 4.9% | 118.1hPa | 2.5V | 00:00:00 | 02:09:08 | 00:00:00 | |
| DO3MHA-11 | 2026-08-30 12:38:52 | 48.36541 | 12.34937 | 69° | 46km/h | 15581m | -10.0m/s | -56.4°C | 4.9% | 117.4hPa | 2.5V | 00:00:00 | 02:09:04 | 00:00:00 | |
| OE5WHR-10 | 2026-08-30 12:38:47 | 48.36518 | 12.34856 | 64° | 46km/h | 15631m | -9.8m/s | -56.5°C | 4.9% | 116.5hPa | 2.5V | 00:00:00 | 00:00:00 | 00:00:00 | |
| OE5MMP-10 | 2026-08-30 12:38:46 | 48.36512 | 12.34840 | 66° | 46km/h | 15641m | -9.8m/s | -56.5°C | 4.9% | 116.3hPa | 2.5V | 08:15:00 | 02:08:58 | 00:00:00 | |
| OE5DRO-10 | 2026-08-30 12:38:44 | 48.36503 | 12.34808 | 66° | 46km/h | 15660m | -10.0m/s | -56.5°C | 4.9% | 115.9hPa | 2.6V | 00:00:00 | 00:00:00 | 00:00:00 | |
| OE5HKT-10 | 2026-08-30 12:38:43 | 48.36498 | 12.34792 | 67° | 46km/h | 15671m | -10.1m/s | -56.6°C | 5.0% | 115.8hPa | 2.5V | 08:15:00 | 00:00:00 | 00:00:00 | |
| DO3MHA-11 | 2026-08-30 12:38:42 | 48.36494 | 12.34776 | 70° | 46km/h | 15681m | -10.1m/s | -56.5°C | 4.9% | 115.6hPa | 2.5V | 00:00:00 | 02:08:54 | 00:00:00 | |
| OE5FHM-15 | 2026-08-30 12:38:40 | 48.36486 | 12.34744 | 69° | 46km/h | 15701m | -9.9m/s | -56.6°C | 4.9% | 115.2hPa | 2.5V | 00:00:00 | 02:08:52 | 00:00:00 | |
| OE5MMP-10 | 2026-08-30 12:38:36 | 48.36468 | 12.34679 | 69° | 46km/h | 15741m | -10.0m/s | -56.7°C | 5.0% | 114.5hPa | 2.5V | 00:00:00 | 02:08:48 | 00:00:00 | |
| DO3MHA-11 | 2026-08-30 12:38:32 | 48.36450 | 12.34614 | 69° | 47km/h | 15782m | -10.1m/s | -56.8°C | 5.0% | 113.7hPa | 2.5V | 00:00:00 | 02:08:44 | 00:00:00 | |
| OE5DXL-15 | 2026-08-30 12:38:31 | 48.36442 | 12.34581 | 71° | 46km/h | 15802m | -10.2m/s | -56.9°C | 5.0% | 113.4hPa | 2.6V | 00:00:00 | 00:00:00 | 00:00:00 | |
| OE5WHR-10 | 2026-08-30 12:38:26 | 48.36424 | 12.34515 | 67° | 44km/h | 15843m | -10.0m/s | -56.9°C | 4.9% | 112.6hPa | 2.6V | 00:00:00 | 02:08:38 | 00:00:00 | |
| OE5DRO-10 | 2026-08-30 12:38:25 | 48.36414 | 12.34482 | 68° | 44km/h | 15864m | -10.3m/s | -57.1°C | 5.0% | 112.3hPa | 2.6V | 00:00:00 | 00:00:00 | 00:00:00 | |
| DO3MHA-11 | 2026-08-30 12:38:22 | 48.36406 | 12.34449 | 71° | 46km/h | 15884m | -10.4m/s | -57.0°C | 5.0% | 111.9hPa | 2.6V | 00:00:00 | 02:08:34 | 00:00:00 | |
| OE5HKT-10 | 2026-08-30 12:38:21 | 48.36402 | 12.34432 | 75° | 42km/h | 15894m | -10.1m/s | -57.0°C | 5.0% | 111.7hPa | 2.6V | 00:00:00 | 00:00:00 | 00:00:00 | |
| DG1MFX-10 | 2026-08-30 12:38:20 | 48.36402 | 12.34432 | 76° | 44km/h | 15894m | -10.2m/s | -57.0°C | 1.8% | 111.8hPa | 2.6V | 08:15:00 | 00:00:00 | 00:00:00 | |
| BAUMI2-15 | 2026-08-30 12:38:18 | 48.36394 | 12.34383 | 78° | 46km/h | 15925m | -10.3m/s | -57.1°C | 4.9% | 111.2hPa | 2.6V | 00:00:00 | 02:08:30 | 00:00:00 | |
| OE5MMP-10 | 2026-08-30 12:38:16 | 48.36389 | 12.34350 | 75° | 42km/h | 15946m | -10.1m/s | -57.2°C | 5.0% | 110.8hPa | 2.5V | 00:00:00 | 02:08:28 | 00:00:00 | |
| BAUMI2-15 | 2026-08-30 12:38:13 | 48.36379 | 12.34301 | 70° | 42km/h | 15976m | -10.4m/s | -57.0°C | 4.9% | 110.3hPa | 2.6V | 00:00:00 | 02:08:25 | 00:00:00 | |
| DO3MHA-11 | 2026-08-30 12:38:12 | 48.36375 | 12.34286 | 68° | 42km/h | 15986m | -10.2m/s | -57.1°C | 4.8% | 110.1hPa | 2.6V | 00:00:00 | 02:08:24 | 00:00:00 | |
| OE5FHM-15 | 2026-08-30 12:38:10 | 48.36366 | 12.34256 | 65° | 51km/h | 16007m | -10.4m/s | -57.0°C | 4.8% | 109.7hPa | 2.6V | 00:00:00 | 02:08:22 | 00:00:00 | |
| BAUMI2-15 | 2026-08-30 12:38:08 | 48.36358 | 12.34228 | 68° | 44km/h | 16028m | -10.5m/s | -57.1°C | 4.8% | 109.4hPa | 2.6V | 00:00:00 | 02:08:20 | 00:00:00 | |
| OE5MMP-10 | 2026-08-30 12:38:06 | 48.36350 | 12.34199 | 69° | 49km/h | 16049m | -10.4m/s | -57.2°C | 4.6% | 109.0hPa | 2.6V | 00:00:00 | 02:08:18 | 00:00:00 | |
| OE5WHR-10 | 2026-08-30 12:38:05 | 48.36347 | 12.34184 | 70° | 53km/h | 16059m | -10.3m/s | -57.3°C | 4.7% | 108.9hPa | 2.6V | 00:00:00 | 00:00:00 | 00:00:00 | |
| BAUMI2-15 | 2026-08-30 12:38:03 | 48.36338 | 12.34151 | 70° | 49km/h | 16080m | -10.2m/s | -57.4°C | 4.9% | 108.5hPa | 2.5V | 00:00:00 | 02:08:15 | 00:00:00 | |
| DO3MHA-11 | 2026-08-30 12:38:02 | 48.36334 | 12.34134 | 71° | 53km/h | 16090m | -10.4m/s | -57.4°C | 5.0% | 108.3hPa | 2.5V | 08:15:00 | 02:08:14 | 00:00:00 | |
| OE5DXL-15 | 2026-08-30 12:37:59 | 48.36313 | 12.34062 | 63° | 55km/h | 16132m | -10.4m/s | -57.5°C | 5.0% | 107.6hPa | 2.5V | 00:00:00 | 00:00:00 | 00:00:00 | |
| BAUMI2-15 | 2026-08-30 12:37:58 | 48.36313 | 12.34062 | 63° | 53km/h | 16132m | -10.4m/s | -57.5°C | 5.0% | 107.6hPa | 2.5V | 00:00:00 | 02:08:10 | 00:00:00 | |
| OE5MMP-10 | 2026-08-30 12:37:56 | 48.36301 | 12.34027 | 62° | 55km/h | 16153m | -10.6m/s | -57.6°C | 5.1% | 107.3hPa | 2.5V | 00:00:00 | 02:08:08 | 00:00:00 | |
| BAUMI2-15 | 2026-08-30 12:37:53 | 48.36280 | 12.33975 | 63° | 55km/h | 16184m | -10.6m/s | -57.9°C | 5.1% | 106.7hPa | 2.5V | 00:00:00 | 02:08:05 | 00:00:00 | |
| DO3MHA-11 | 2026-08-30 12:37:52 | 48.36274 | 12.33956 | 63° | 55km/h | 16195m | -10.6m/s | -57.9°C | 5.1% | 106.5hPa | 2.5V | 00:00:00 | 02:08:04 | 00:00:00 | |
| BAUMI2-15 | 2026-08-30 12:37:48 | 48.36251 | 12.33881 | 66° | 55km/h | 16237m | -10.3m/s | -57.8°C | 5.1% | 105.8hPa | 2.5V | 08:16:00 | 02:08:00 | 00:00:00 | |
| OE5DRO-10 | 2026-08-30 12:37:47 | 48.36245 | 12.33862 | 69° | 55km/h | 16247m | -10.5m/s | -57.8°C | 5.1% | 105.7hPa | 2.5V | 08:16:00 | 00:00:00 | 00:00:00 | |
| OE5MMP-10 | 2026-08-30 12:37:46 | 48.36240 | 12.33842 | 69° | 57km/h | 16258m | -10.6m/s | -57.6°C | 5.0% | 105.5hPa | 2.5V | 00:00:00 | 02:07:58 | 00:00:00 | |
| OE5WHR-10 | 2026-08-30 12:37:44 | 48.36230 | 12.33803 | 71° | 53km/h | 16279m | -10.5m/s | -57.4°C | 4.9% | 105.1hPa | 2.5V | 00:00:00 | 00:00:00 | 00:00:00 | |
| BAUMI2-15 | 2026-08-30 12:37:43 | 48.36225 | 12.33783 | 70° | 57km/h | 16290m | -10.4m/s | -57.4°C | 4.9% | 104.9hPa | 2.5V | 00:00:00 | 02:07:55 | 00:00:00 | |
| DO3MHA-11 | 2026-08-30 12:37:42 | 48.36220 | 12.33762 | 70° | 57km/h | 16300m | -10.7m/s | -57.3°C | 4.9% | 104.8hPa | 2.5V | 00:00:00 | 02:07:54 | 00:00:00 | |
| OE5FHM-15 | 2026-08-30 12:37:40 | 48.36210 | 12.33722 | 70° | 53km/h | 16322m | -10.7m/s | -57.2°C | 4.8% | 104.4hPa | 2.5V | 08:16:00 | 02:07:52 | 00:00:00 | |
| BAUMI2-15 | 2026-08-30 12:37:38 | 48.36200 | 12.33683 | 70° | 55km/h | 16343m | -10.6m/s | -57.0°C | 4.7% | 104.0hPa | 2.5V | 00:00:00 | 02:07:50 | 00:00:00 | |
| OE5MMP-10 | 2026-08-30 12:37:36 | 48.36189 | 12.33643 | 67° | 51km/h | 16364m | -10.6m/s | -57.2°C | 4.9% | 103.7hPa | 2.5V | 00:00:00 | 02:07:48 | 00:00:00 | |
| BAUMI2-15 | 2026-08-30 12:37:33 | 48.36172 | 12.33586 | 63° | 51km/h | 16396m | -10.6m/s | -56.9°C | 4.8% | 103.2hPa | 2.5V | 00:00:00 | 02:07:45 | 00:00:00 | |
| DO3MHA-11 | 2026-08-30 12:37:32 | 48.36166 | 12.33569 | 64° | 49km/h | 16407m | -10.5m/s | -56.8°C | 4.7% | 103.0hPa | 2.5V | 00:00:00 | 02:07:44 | 00:00:00 | |
| BAUMI2-15 | 2026-08-30 12:37:28 | 48.36144 | 12.33500 | 69° | 49km/h | 16449m | -10.5m/s | -56.9°C | 4.7% | 102.3hPa | 2.5V | 00:00:00 | 02:07:40 | 00:00:00 | |
| OE5MMP-10 | 2026-08-30 12:37:26 | 48.36135 | 12.33466 | 72° | 51km/h | 16471m | -10.6m/s | -56.6°C | 4.6% | 101.9hPa | 2.5V | 00:00:00 | 02:07:38 | 00:00:00 | |
| OE5WHR-10 | 2026-08-30 12:37:23 | 48.36123 | 12.33413 | 69° | 53km/h | 16503m | -10.7m/s | -56.7°C | 4.7% | 101.4hPa | 2.5V | 00:00:00 | 02:07:35 | 00:00:00 | |
| DO3MHA-11 | 2026-08-30 12:37:22 | 48.36119 | 12.33395 | 69° | 53km/h | 16514m | -10.7m/s | -56.8°C | 4.7% | 101.3hPa | 2.5V | 00:00:00 | 02:07:34 | 00:00:00 | |
| BAUMI2-15 | 2026-08-30 12:37:18 | 48.36095 | 12.33323 | 63° | 53km/h | 16557m | -10.8m/s | -56.5°C | 4.6% | 100.6hPa | 2.5V | 00:00:00 | 02:07:30 | 00:00:00 | |
| BAUMI2-15 | 2026-08-30 12:37:13 | 48.36068 | 12.33233 | 71° | 53km/h | 16612m | -10.8m/s | -56.4°C | 4.7% | 99.7hPa | 2.6V | 00:00:00 | 02:07:25 | 00:00:00 | |
| DO3MHA-11 | 2026-08-30 12:37:12 | 48.36064 | 12.33214 | 71° | 51km/h | 16623m | -11.0m/s | -56.4°C | 4.7% | 99.6hPa | 2.6V | 00:00:00 | 02:07:24 | 00:00:00 | |
| DL6DJ-15 | 2026-08-30 12:37:11 | 48.36056 | 12.33177 | 73° | 49km/h | 16644m | -10.6m/s | -56.1°C | 1.4% | 99.3hPa | 2.6V | 00:00:00 | 00:00:00 | 00:00:00 | |
| OE5FHM-15 | 2026-08-30 12:37:10 | 48.36056 | 12.33177 | 74° | 40km/h | 16644m | -10.5m/s | -56.1°C | 4.6% | 99.2hPa | 2.6V | 00:00:00 | 02:07:22 | 00:00:00 | |
| OE5DRO-10 | 2026-08-30 12:37:09 | 48.36051 | 12.33158 | 72° | 44km/h | 16655m | -10.8m/s | -56.1°C | 4.7% | 99.0hPa | 2.6V | 00:00:00 | 00:00:00 | 00:00:00 | |
| BAUMI2-15 | 2026-08-30 12:37:08 | 48.36047 | 12.33139 | 72° | 51km/h | 16665m | -10.7m/s | -55.8°C | 4.6% | 98.9hPa | 2.6V | 00:00:00 | 02:07:20 | 00:00:00 | |
| OE5REO-15 | 2026-08-30 12:37:07 | 48.36043 | 12.33121 | 74° | 51km/h | 16676m | -10.9m/s | -55.6°C | 1.3% | 98.8hPa | 2.6V | 08:17:00 | 00:00:00 | 00:00:00 | |
| OE5MMP-10 | 2026-08-30 12:37:06 | 48.36039 | 12.33101 | 72° | 47km/h | 16687m | -10.7m/s | -55.4°C | 4.4% | 98.5hPa | 2.6V | 00:00:00 | 02:07:18 | 00:00:00 | |
| BAUMI2-15 | 2026-08-30 12:37:03 | 48.36028 | 12.33046 | 74° | 46km/h | 16720m | -11.1m/s | -55.1°C | 4.2% | 98.0hPa | 2.6V | 08:16:00 | 02:07:15 | 00:00:00 | |
| DO3MHA-11 | 2026-08-30 12:37:02 | 48.36024 | 12.33028 | 75° | 42km/h | 16731m | -11.0m/s | -55.1°C | 4.2% | 97.9hPa | 2.6V | 00:00:00 | 02:07:14 | 00:00:00 | |
| BAUMI2-15 | 2026-08-30 12:36:58 | 48.36014 | 12.32963 | 80° | 40km/h | 16775m | -11.2m/s | -55.4°C | 4.4% | 97.2hPa | 2.6V | 00:00:00 | 02:07:10 | 00:00:00 | |
| DG1MFX-10 | 2026-08-30 12:36:57 | 48.36014 | 12.32963 | 80° | 42km/h | 16775m | -11.3m/s | -55.4°C | 1.4% | 97.2hPa | 2.6V | 08:17:00 | 00:00:00 | 00:00:00 | |
| OE5MMP-10 | 2026-08-30 12:36:56 | 48.36009 | 12.32932 | 75° | 35km/h | 16797m | -11.0m/s | -55.5°C | 4.4% | 96.9hPa | 2.6V | 00:00:00 | 02:07:08 | 00:00:00 | |
| BAUMI2-15 | 2026-08-30 12:36:53 | 48.36000 | 12.32890 | 67° | 33km/h | 16830m | -10.9m/s | -54.5°C | 4.1% | 96.3hPa | 2.6V | 00:00:00 | 02:07:05 | 00:00:00 | |
| DO3MHA-11 | 2026-08-30 12:36:52 | 48.35997 | 12.32878 | 69° | 31km/h | 16841m | -11.0m/s | -54.3°C | 4.0% | 96.2hPa | 2.6V | 00:00:00 | 02:07:04 | 00:00:00 | |
| BAUMI2-15 | 2026-08-30 12:36:48 | 48.35983 | 12.32835 | 61° | 31km/h | 16885m | -11.3m/s | -54.2°C | 4.0% | 95.5hPa | 2.6V | 00:00:00 | 02:07:00 | 00:00:00 | |
| OE5MMP-10 | 2026-08-30 12:36:46 | 48.35975 | 12.32816 | 58° | 33km/h | 16907m | -11.2m/s | -54.3°C | 4.0% | 95.2hPa | 2.5V | 00:00:00 | 02:06:58 | 00:00:00 | |
| BAUMI2-15 | 2026-08-30 12:36:43 | 48.35962 | 12.32786 | 58° | 35km/h | 16940m | -11.0m/s | -54.5°C | 4.0% | 94.7hPa | 2.6V | 00:00:00 | 02:06:55 | 00:00:00 | |
| DO3MHA-11 | 2026-08-30 12:36:42 | 48.35958 | 12.32775 | 63° | 35km/h | 16951m | -10.8m/s | -54.6°C | 4.1% | 94.6hPa | 2.6V | 00:00:00 | 02:06:54 | 00:00:00 | |
| OE5WHR-10 | 2026-08-30 12:36:41 | 48.35953 | 12.32763 | 62° | 37km/h | 16962m | -11.0m/s | -54.8°C | 4.1% | 94.4hPa | 2.6V | 00:00:00 | 00:00:00 | 00:00:00 | |
| DL6DJ-15 | 2026-08-30 12:36:40 | 48.35946 | 12.32739 | 68° | 35km/h | 16984m | -11.5m/s | -54.9°C | 1.3% | 94.1hPa | 2.6V | 00:00:00 | 00:00:00 | 00:00:00 | |
| BAUMI2-15 | 2026-08-30 12:36:38 | 48.35943 | 12.32727 | 69° | 35km/h | 16996m | -11.4m/s | -54.9°C | 4.3% | 93.9hPa | 2.6V | 00:00:00 | 02:06:50 | 00:00:00 | |
| DG1MFX-10 | 2026-08-30 12:36:37 | 48.35943 | 12.32727 | 69° | 35km/h | 16996m | -11.5m/s | -55.0°C | 1.3% | 93.9hPa | 2.6V | 08:17:00 | 00:00:00 | 00:00:00 | |
| OE5MMP-10 | 2026-08-30 12:36:36 | 48.35938 | 12.32702 | 79° | 38km/h | 17019m | -11.2m/s | -54.3°C | 4.0% | 93.6hPa | 2.6V | 00:00:00 | 02:06:48 | 00:00:00 | |
| BAUMI2-15 | 2026-08-30 12:36:33 | 48.35931 | 12.32661 | 77° | 40km/h | 17052m | -11.3m/s | -54.1°C | 4.0% | 93.1hPa | 2.6V | 00:00:00 | 02:06:45 | 00:00:00 | |
| DO3MHA-11 | 2026-08-30 12:36:32 | 48.35929 | 12.32647 | 71° | 37km/h | 17063m | -11.1m/s | -54.2°C | 4.1% | 92.9hPa | 2.5V | 08:17:00 | 02:06:44 | 00:00:00 | |
| OE5DRO-10 | 2026-08-30 12:36:31 | 48.35925 | 12.32632 | 70° | 31km/h | 17075m | -11.3m/s | -54.2°C | 4.1% | 92.8hPa | 2.5V | 00:00:00 | 00:00:00 | 00:00:00 | |
| BAUMI2-15 | 2026-08-30 12:36:28 | 48.35914 | 12.32589 | 68° | 37km/h | 17108m | -11.5m/s | -54.3°C | 4.1% | 92.2hPa | 2.5V | 00:00:00 | 02:06:40 | 00:00:00 | |
| OE5MMP-10 | 2026-08-30 12:36:26 | 48.35908 | 12.32562 | 74° | 31km/h | 17131m | -11.2m/s | -54.3°C | 4.1% | 91.9hPa | 2.5V | 00:00:00 | 02:06:38 | 00:00:00 | |
| BAUMI2-15 | 2026-08-30 12:36:23 | 48.35903 | 12.32524 | 85° | 26km/h | 17165m | -11.0m/s | -54.4°C | 4.1% | 91.5hPa | 2.5V | 00:00:00 | 02:06:35 | 00:00:00 | |
| OE5HKT-10 | 2026-08-30 12:36:21 | 48.35902 | 12.32501 | 92° | 22km/h | 17186m | -11.3m/s | -54.2°C | 4.0% | 91.1hPa | 2.5V | 00:00:00 | 02:06:33 | 00:00:00 | |
| DO3MHA-11 | 2026-08-30 12:36:20 | 48.35902 | 12.32489 | 90° | 20km/h | 17198m | -11.3m/s | -54.0°C | 3.9% | 91.0hPa | 2.5V | 00:00:00 | 02:06:32 | 00:00:00 | |
| OE5WHR-10 | 2026-08-30 12:36:19 | 48.35902 | 12.32479 | 88° | 20km/h | 17209m | -11.3m/s | -53.9°C | 3.9% | 90.8hPa | 2.5V | 00:00:00 | 02:06:31 | 00:00:00 | |
| OE5REO-15 | 2026-08-30 12:36:17 | 48.35902 | 12.32469 | 90° | 26km/h | 17221m | -11.6m/s | -53.8°C | 1.1% | 90.7hPa | 2.5V | 00:00:00 | 00:00:00 | 00:00:00 | |
| OE5MMP-10 | 2026-08-30 12:36:16 | 48.35901 | 12.32450 | 81° | 18km/h | 17244m | -11.2m/s | -53.4°C | 3.7% | 90.3hPa | 2.5V | 00:00:00 | 02:06:28 | 00:00:00 | |
| OE5FHM-15 | 2026-08-30 12:36:10 | 48.35895 | 12.32408 | 78° | 24km/h | 17312m | -11.2m/s | -53.5°C | 3.7% | 89.4hPa | 2.5V | 00:00:00 | 02:06:22 | 00:00:00 | |
| DL6DJ-15 | 2026-08-30 12:36:09 | 48.35894 | 12.32395 | 83° | 18km/h | 17335m | -11.6m/s | -53.8°C | 1.1% | 89.1hPa | 2.5V | 00:00:00 | 00:00:00 | 00:00:00 | |
| OE5MMP-10 | 2026-08-30 12:36:06 | 48.35892 | 12.32381 | 85° | 20km/h | 17358m | -11.3m/s | -53.8°C | 3.8% | 88.7hPa | 2.5V | 00:00:00 | 02:06:18 | 00:00:00 | |
| DO3MHA-11 | 2026-08-30 12:35:59 | 48.35877 | 12.32333 | 57° | 26km/h | 17439m | -11.4m/s | -54.5°C | 4.0% | 87.6hPa | 2.5V | 00:00:00 | 02:06:11 | 00:00:00 | |
| OE5WHR-10 | 2026-08-30 12:35:58 | 48.35874 | 12.32326 | 56° | 27km/h | 17450m | -11.7m/s | -54.6°C | 4.0% | 87.5hPa | 2.5V | 00:00:00 | 00:00:00 | 00:00:00 | |
| OE5MMP-10 | 2026-08-30 12:35:56 | 48.35869 | 12.32311 | 73° | 27km/h | 17474m | -11.6m/s | -54.9°C | 4.1% | 87.1hPa | 2.5V | 00:00:00 | 02:06:08 | 00:00:00 | |
| OE5DRO-10 | 2026-08-30 12:35:53 | 48.35866 | 12.32284 | 82° | 20km/h | 17508m | -11.8m/s | -55.0°C | 4.2% | 86.6hPa | 2.5V | 00:00:00 | 00:00:00 | 00:00:00 | |
| OE5DXL-15 | 2026-08-30 12:35:51 | 48.35860 | 12.32241 | 76° | 22km/h | 17555m | -11.7m/s | -54.7°C | 4.2% | 86.0hPa | 2.5V | 00:00:00 | 00:00:00 | 00:00:00 | |
| DO3MHA-11 | 2026-08-30 12:35:49 | 48.35860 | 12.32241 | 76° | 29km/h | 17555m | -11.7m/s | -54.7°C | 4.2% | 86.0hPa | 2.5V | 00:00:00 | 02:06:01 | 00:00:00 | |
| OE5MMP-10 | 2026-08-30 12:35:46 | 48.35855 | 12.32208 | 74° | 27km/h | 17590m | -11.7m/s | -54.6°C | 4.2% | 85.6hPa | 2.5V | 08:18:00 | 02:05:58 | 00:00:00 | |
| OE5FHM-15 | 2026-08-30 12:35:40 | 48.35844 | 12.32144 | 75° | 16km/h | 17661m | -11.8m/s | -54.7°C | 4.2% | 84.6hPa | 2.5V | 00:00:00 | 02:05:52 | 00:00:00 | |
| DO3MHA-11 | 2026-08-30 12:35:39 | 48.35842 | 12.32135 | 74° | 22km/h | 17672m | -11.5m/s | -54.7°C | 4.2% | 84.5hPa | 2.5V | 00:00:00 | 02:05:51 | 00:00:00 | |
| DL6DJ-15 | 2026-08-30 12:35:38 | 48.35839 | 12.32116 | 74° | 24km/h | 17696m | -11.8m/s | -54.4°C | 1.2% | 84.2hPa | 2.5V | 00:00:00 | 00:00:00 | 00:00:00 | |
| OE5WHR-10 | 2026-08-30 12:35:37 | 48.35839 | 12.32116 | 75° | 18km/h | 17696m | -11.8m/s | -54.4°C | 4.0% | 84.1hPa | 2.5V | 00:00:00 | 00:00:00 | 00:00:00 | |
| OE5MMP-10 | 2026-08-30 12:35:36 | 48.35838 | 12.32107 | 77° | 18km/h | 17708m | -11.8m/s | -54.0°C | 3.9% | 84.0hPa | 2.5V | 00:00:00 | 02:05:48 | 00:00:00 | |
| DG1MFX-10 | 2026-08-30 12:35:35 | 48.35838 | 12.32107 | 77° | 22km/h | 17708m | -11.9m/s | -54.1°C | 1.2% | 84.0hPa | 2.5V | 08:18:00 | 00:00:00 | 00:00:00 | |
| DO3MHA-11 | 2026-08-30 12:35:29 | 48.35837 | 12.32056 | 104° | 16km/h | 17791m | -11.8m/s | -54.1°C | 3.9% | 82.9hPa | 2.5V | 00:00:00 | 02:05:41 | 00:00:00 | |
| OE5MMP-10 | 2026-08-30 12:35:26 | 48.35840 | 12.32039 | 107° | 16km/h | 17826m | -11.8m/s | -54.1°C | 3.9% | 82.4hPa | 2.5V | 00:00:00 | 02:05:38 | 00:00:00 | |
| OE5DXL-15 | 2026-08-30 12:35:21 | 48.35850 | 12.31998 | 108° | 15km/h | 17909m | -11.8m/s | -54.5°C | 3.9% | 81.4hPa | 2.5V | 00:00:00 | 00:00:00 | 00:00:00 | |
| DO3MHA-11 | 2026-08-30 12:35:19 | 48.35850 | 12.31998 | 108° | 11km/h | 17909m | -11.8m/s | -54.5°C | 3.9% | 81.4hPa | 2.5V | 00:00:00 | 02:05:31 | 00:00:00 | |
| OE5WHR-10 | 2026-08-30 12:35:16 | 48.35853 | 12.31982 | 99° | 5km/h | 17944m | -11.9m/s | -54.8°C | 4.0% | 81.0hPa | 2.5V | 00:00:00 | 02:05:28 | 00:00:00 | |
| DG1MFX-10 | 2026-08-30 12:35:15 | 48.35853 | 12.31982 | 100° | 15km/h | 17944m | -11.9m/s | -54.9°C | 1.2% | 81.0hPa | 2.5V | 08:19:00 | 00:00:00 | 00:00:00 | |
| OE5FHM-15 | 2026-08-30 12:35:10 | 48.35855 | 12.31964 | 102° | 7km/h | 18015m | -12.0m/s | -54.8°C | 3.9% | 80.0hPa | 2.5V | 00:00:00 | 02:05:22 | 00:00:00 | |
| DO3MHA-11 | 2026-08-30 12:35:09 | 48.35855 | 12.31963 | 69° | 2km/h | 18027m | -12.0m/s | -54.9°C | 4.0% | 79.9hPa | 2.5V | 00:00:00 | 02:05:21 | 00:00:00 | |
| DL6DJ-15 | 2026-08-30 12:35:07 | 48.35855 | 12.31962 | 342° | 0km/h | 18063m | -12.2m/s | -54.9°C | 1.2% | 79.5hPa | 2.5V | 00:00:00 | 00:00:00 | 00:00:00 | |
| OE5MMP-10 | 2026-08-30 12:35:06 | 48.35855 | 12.31962 | 343° | 4km/h | 18063m | -12.1m/s | -54.8°C | 4.0% | 79.4hPa | 2.5V | 00:00:00 | 02:05:18 | 00:00:00 | |
| DO3MHA-11 | 2026-08-30 12:34:59 | 48.35850 | 12.31967 | 318° | 7km/h | 18147m | -11.8m/s | -55.4°C | 4.0% | 78.4hPa | 2.5V | 08:18:00 | 02:05:11 | 00:00:00 | |
| OE5MMP-10 | 2026-08-30 12:34:56 | 48.35846 | 12.31969 | 338° | 9km/h | 18183m | -12.2m/s | -55.7°C | 4.0% | 77.9hPa | 2.5V | 00:00:00 | 02:05:08 | 00:00:00 | |
| OE5WHR-10 | 2026-08-30 12:34:55 | 48.35845 | 12.31970 | 350° | 13km/h | 18195m | -12.1m/s | -55.8°C | 4.0% | 77.8hPa | 2.5V | 00:00:00 | 00:00:00 | 00:00:00 | |
| DG1MFX-10 | 2026-08-30 12:34:54 | 48.35845 | 12.31970 | 351° | 5km/h | 18195m | -12.2m/s | -55.8°C | 1.2% | 77.9hPa | 2.6V | 08:19:00 | 00:00:00 | 00:00:00 | |
| DO3MHA-11 | 2026-08-30 12:34:49 | 48.35832 | 12.31967 | 22° | 13km/h | 18268m | -12.3m/s | -56.4°C | 4.2% | 76.9hPa | 2.6V | 00:00:00 | 02:05:01 | 00:00:00 | |
| OE5REO-15 | 2026-08-30 12:34:46 | 48.35824 | 12.31962 | 14° | 11km/h | 18305m | -12.0m/s | -56.7°C | 1.3% | 76.5hPa | 2.6V | 08:19:00 | 00:00:00 | 00:00:00 | |
| OE5DRO-10 | 2026-08-30 12:34:42 | 48.35812 | 12.31957 | 24° | 22km/h | 18354m | -12.1m/s | -57.1°C | 4.5% | 75.9hPa | 2.6V | 00:00:00 | 00:00:00 | 00:00:00 | |
| OE5FHM-15 | 2026-08-30 12:34:40 | 48.35805 | 12.31952 | 28° | 20km/h | 18378m | -12.2m/s | -57.2°C | 4.5% | 75.6hPa | 2.6V | 00:00:00 | 02:04:52 | 00:00:00 | |
| DO3MHA-11 | 2026-08-30 12:34:39 | 48.35802 | 12.31949 | 41° | 22km/h | 18390m | -12.2m/s | -57.3°C | 4.6% | 75.5hPa | 2.6V | 00:00:00 | 02:04:51 | 00:00:00 | |
| OE5MMP-10 | 2026-08-30 12:34:36 | 48.35791 | 12.31934 | 45° | 24km/h | 18427m | -12.1m/s | -57.5°C | 4.7% | 75.0hPa | 2.6V | 00:00:00 | 02:04:48 | 00:00:00 | |
| DL6DJ-15 | 2026-08-30 12:34:35 | 48.35787 | 12.31929 | 41° | 24km/h | 18439m | -12.1m/s | -57.7°C | 1.4% | 74.9hPa | 2.6V | 00:00:00 | 00:00:00 | 00:00:00 | |
| OE5WHR-10 | 2026-08-30 12:34:34 | 48.35782 | 12.31923 | 35° | 22km/h | 18451m | -12.1m/s | -57.6°C | 4.8% | 74.7hPa | 2.6V | 00:00:00 | 00:00:00 | 00:00:00 | |
| DG1MFX-10 | 2026-08-30 12:34:33 | 48.35782 | 12.31923 | 35° | 24km/h | 18451m | -12.2m/s | -57.7°C | 1.5% | 74.7hPa | 2.6V | 08:20:00 | 00:00:00 | 00:00:00 | |
| OE5REO-15 | 2026-08-30 12:34:30 | 48.35767 | 12.31909 | 24° | 24km/h | 18487m | -12.2m/s | -57.5°C | 1.4% | 74.3hPa | 2.6V | 08:20:00 | 00:00:00 | 00:00:00 | |
| DO3MHA-11 | 2026-08-30 12:34:29 | 48.35756 | 12.31903 | 22° | 22km/h | 18512m | -12.3m/s | -57.4°C | 4.8% | 74.0hPa | 2.6V | 00:00:00 | 02:04:41 | 00:00:00 | |
| OE5MMP-10 | 2026-08-30 12:34:26 | 48.35739 | 12.31895 | 22° | 22km/h | 18549m | -12.4m/s | -57.7°C | 5.0% | 73.5hPa | 2.6V | 00:00:00 | 02:04:38 | 00:00:00 | |
| OE5DRO-10 | 2026-08-30 12:34:23 | 48.35723 | 12.31885 | 30° | 18km/h | 18586m | -12.2m/s | -57.7°C | 5.1% | 73.1hPa | 2.6V | 00:00:00 | 00:00:00 | 00:00:00 | |
| DO3MHA-11 | 2026-08-30 12:34:19 | 48.35703 | 12.31869 | 29° | 18km/h | 18635m | -12.5m/s | -57.5°C | 5.1% | 72.5hPa | 2.6V | 00:00:00 | 02:04:31 | 00:00:00 | |
| OE5MMP-10 | 2026-08-30 12:34:16 | 48.35690 | 12.31858 | 36° | 18km/h | 18672m | -12.4m/s | -56.8°C | 4.8% | 72.1hPa | 2.6V | 08:19:00 | 02:04:28 | 00:00:00 | |
| BAUMI2-15 | 2026-08-30 12:34:14 | 48.35683 | 12.31851 | 48° | 16km/h | 18697m | -12.5m/s | -56.6°C | 4.7% | 71.8hPa | 2.5V | 08:19:00 | 02:04:26 | 00:00:00 | |
| OE5WHR-10 | 2026-08-30 12:34:13 | 48.35681 | 12.31845 | 61° | 18km/h | 18710m | -12.5m/s | -56.5°C | 4.6% | 71.7hPa | 2.5V | 00:00:00 | 02:04:25 | 00:00:00 | |
| OE5FHM-15 | 2026-08-30 12:34:10 | 48.35676 | 12.31827 | 81° | 18km/h | 18747m | -12.4m/s | -56.2°C | 4.5% | 71.3hPa | 2.5V | 00:00:00 | 02:04:22 | 00:00:00 | |
| DO3MHA-11 | 2026-08-30 12:34:09 | 48.35675 | 12.31820 | 78° | 15km/h | 18760m | -12.7m/s | -56.1°C | 4.5% | 71.1hPa | 2.5V | 00:00:00 | 02:04:21 | 00:00:00 | |
| OE5MMP-10 | 2026-08-30 12:34:06 | 48.35673 | 12.31801 | 75° | 16km/h | 18798m | -12.9m/s | -55.7°C | 4.4% | 70.7hPa | 2.5V | 00:00:00 | 02:04:18 | 00:00:00 | |
| BAUMI2-15 | 2026-08-30 12:34:04 | 48.35670 | 12.31790 | 66° | 15km/h | 18823m | -12.6m/s | -55.4°C | 4.4% | 70.4hPa | 2.5V | 00:00:00 | 02:04:16 | 00:00:00 | |
| DO3MHA-11 | 2026-08-30 12:33:59 | 48.35659 | 12.31768 | 47° | 22km/h | 18887m | -12.8m/s | -54.8°C | 4.0% | 69.7hPa | 2.5V | 00:00:00 | 02:04:11 | 00:00:00 | |
| OE5REO-15 | 2026-08-30 12:33:58 | 48.35656 | 12.31763 | 50° | 20km/h | 18900m | -12.9m/s | -54.9°C | 1.1% | 69.6hPa | 2.6V | 08:20:00 | 00:00:00 | 00:00:00 | |
| OE5MMP-10 | 2026-08-30 12:33:56 | 48.35648 | 12.31750 | 48° | 20km/h | 18926m | -12.8m/s | -55.0°C | 4.1% | 69.3hPa | 2.6V | 00:00:00 | 02:04:08 | 00:00:00 | |
| BAUMI2-15 | 2026-08-30 12:33:54 | 48.35640 | 12.31737 | 51° | 22km/h | 18952m | -12.8m/s | -55.2°C | 4.1% | 69.0hPa | 2.6V | 00:00:00 | 02:04:06 | 00:00:00 | |
| OE5WHR-10 | 2026-08-30 12:33:52 | 48.35632 | 12.31725 | 39° | 16km/h | 18977m | -13.0m/s | -55.3°C | 4.2% | 68.7hPa | 2.6V | 08:20:00 | 00:00:00 | 00:00:00 | |
| DG1MFX-10 | 2026-08-30 12:33:50 | 48.35624 | 12.31716 | 31° | 20km/h | 19003m | -13.1m/s | -55.4°C | 1.2% | 68.5hPa | 2.6V | 08:20:00 | 00:00:00 | 00:00:00 | |
| DO3MHA-11 | 2026-08-30 12:33:49 | 48.35620 | 12.31713 | 23° | 16km/h | 19016m | -12.8m/s | -55.5°C | 4.3% | 68.3hPa | 2.6V | 00:00:00 | 02:04:01 | 00:00:00 | |
| OE5MMP-10 | 2026-08-30 12:33:46 | 48.35608 | 12.31705 | 24° | 16km/h | 19056m | -13.4m/s | -55.7°C | 4.5% | 67.9hPa | 2.6V | 00:00:00 | 02:03:58 | 00:00:00 | |
| OE5DRO-10 | 2026-08-30 12:33:45 | 48.35605 | 12.31702 | 34° | 13km/h | 19069m | -13.2m/s | -55.8°C | 4.5% | 67.7hPa | 2.5V | 00:00:00 | 00:00:00 | 00:00:00 | |
| BAUMI2-15 | 2026-08-30 12:33:44 | 48.35601 | 12.31698 | 43° | 18km/h | 19082m | -13.1m/s | -55.7°C | 4.5% | 67.6hPa | 2.5V | 00:00:00 | 02:03:56 | 00:00:00 | |
| OE5REO-15 | 2026-08-30 12:33:42 | 48.35598 | 12.31694 | 44° | 18km/h | 19095m | -13.3m/s | -55.5°C | 1.2% | 67.5hPa | 2.6V | 08:20:00 | 00:00:00 | 00:00:00 | |
| OE5FHM-15 | 2026-08-30 12:33:40 | 48.35590 | 12.31677 | 56° | 11km/h | 19136m | -13.1m/s | -55.2°C | 4.3% | 67.0hPa | 2.6V | 00:00:00 | 02:03:52 | 00:00:00 | |
| DO3MHA-11 | 2026-08-30 12:33:39 | 48.35588 | 12.31672 | 62° | 13km/h | 19149m | -13.0m/s | -55.2°C | 4.3% | 66.9hPa | 2.6V | 00:00:00 | 02:03:51 | 00:00:00 | |
| OE5MMP-10 | 2026-08-30 12:33:36 | 48.35583 | 12.31657 | 59° | 11km/h | 19188m | -13.3m/s | -55.3°C | 4.3% | 66.5hPa | 2.6V | 00:00:00 | 02:03:48 | 00:00:00 | |
| DL6DJ-15 | 2026-08-30 12:33:34 | 48.35577 | 12.31650 | 6° | 9km/h | 19229m | -13.2m/s | -55.2°C | 1.2% | 66.1hPa | 2.6V | 00:00:00 | 00:00:00 | 00:00:00 | |
| OE5WHR-10 | 2026-08-30 12:33:31 | 48.35573 | 12.31650 | 358° | 9km/h | 19255m | -13.4m/s | -54.7°C | 4.1% | 65.8hPa | 2.6V | 00:00:00 | 00:00:00 | 00:00:00 | |
| DO3MHA-11 | 2026-08-30 12:33:29 | 48.35567 | 12.31651 | 352° | 7km/h | 19283m | -13.6m/s | -54.4°C | 4.0% | 65.4hPa | 2.6V | 08:20:00 | 02:03:41 | 00:00:00 | |
| DG1MFX-10 | 2026-08-30 12:33:28 | 48.35567 | 12.31651 | 352° | 11km/h | 19283m | -13.6m/s | -54.5°C | 1.1% | 65.5hPa | 2.5V | 08:20:00 | 00:00:00 | 00:00:00 | |
| OE5MMP-10 | 2026-08-30 12:33:26 | 48.35559 | 12.31652 | 1° | 7km/h | 19323m | -13.5m/s | -54.2°C | 3.9% | 65.1hPa | 2.5V | 00:00:00 | 02:03:38 | 00:00:00 | |
| OE5REO-15 | 2026-08-30 12:33:25 | 48.35559 | 12.31652 | 1° | 7km/h | 19323m | -13.5m/s | -54.2°C | 1.1% | 65.1hPa | 2.5V | 08:20:00 | 00:00:00 | 00:00:00 | |
| BAUMI2-15 | 2026-08-30 12:33:24 | 48.35555 | 12.31651 | 10° | 5km/h | 19351m | -14.0m/s | -54.3°C | 4.0% | 64.8hPa | 2.5V | 00:00:00 | 02:03:36 | 00:00:00 | |
| DO3MHA-11 | 2026-08-30 12:33:19 | 48.35549 | 12.31646 | 32° | 11km/h | 19419m | -14.0m/s | -54.4°C | 4.0% | 64.1hPa | 2.5V | 00:00:00 | 02:03:31 | 00:00:00 | |
| OE5MMP-10 | 2026-08-30 12:33:16 | 48.35542 | 12.31642 | 27° | 11km/h | 19460m | -13.8m/s | -54.7°C | 4.0% | 63.7hPa | 2.5V | 00:00:00 | 02:03:28 | 00:00:00 | |
| BAUMI2-15 | 2026-08-30 12:33:14 | 48.35536 | 12.31637 | 29° | 11km/h | 19488m | -14.0m/s | -54.8°C | 4.1% | 63.4hPa | 2.5V | 00:00:00 | 02:03:26 | 00:00:00 | |
| OE5FHM-15 | 2026-08-30 12:33:10 | 48.35532 | 12.31624 | 100° | 13km/h | 19543m | -13.7m/s | -55.1°C | 4.2% | 62.8hPa | 2.5V | 08:20:00 | 02:03:22 | 00:00:00 | |
| DG1MFX-10 | 2026-08-30 12:33:09 | 48.35533 | 12.31620 | 107° | 13km/h | 19557m | -13.9m/s | -55.2°C | 1.2% | 62.8hPa | 2.5V | 08:20:00 | 00:00:00 | 00:00:00 | |
| OE5MMP-10 | 2026-08-30 12:33:06 | 48.35537 | 12.31607 | 125° | 13km/h | 19599m | -14.0m/s | -54.5°C | 4.0% | 62.3hPa | 2.5V | 00:00:00 | 02:03:18 | 00:00:00 | |
| BAUMI2-15 | 2026-08-30 12:33:04 | 48.35541 | 12.31599 | 131° | 9km/h | 19627m | -13.6m/s | -54.5°C | 4.0% | 62.0hPa | 2.5V | 00:00:00 | 02:03:16 | 00:00:00 | |
| OE5REO-15 | 2026-08-30 12:33:03 | 48.35541 | 12.31599 | 132° | 11km/h | 19627m | -13.6m/s | -54.6°C | 1.1% | 62.1hPa | 2.5V | 08:20:00 | 00:00:00 | 00:00:00 | |
| DL6DJ-15 | 2026-08-30 12:33:02 | 48.35543 | 12.31593 | 95° | 7km/h | 19654m | -14.0m/s | -54.6°C | 1.1% | 61.9hPa | 2.5V | 00:00:00 | 00:00:00 | 00:00:00 | |
| DO3MHA-11 | 2026-08-30 12:32:59 | 48.35541 | 12.31581 | 66° | 16km/h | 19696m | -13.8m/s | -54.7°C | 4.1% | 61.4hPa | 2.5V | 00:00:00 | 02:03:11 | 00:00:00 | |
| OE5MMP-10 | 2026-08-30 12:32:56 | 48.35536 | 12.31564 | 71° | 15km/h | 19738m | -13.9m/s | -54.8°C | 4.2% | 61.0hPa | 2.5V | 00:00:00 | 02:03:08 | 00:00:00 | |
| BAUMI2-15 | 2026-08-30 12:32:54 | 48.35533 | 12.31552 | 77° | 15km/h | 19767m | -13.9m/s | -54.9°C | 4.2% | 60.7hPa | 2.5V | 00:00:00 | 02:03:06 | 00:00:00 | |
| DO3MHA-11 | 2026-08-30 12:32:49 | 48.35531 | 12.31524 | 86° | 11km/h | 19837m | -13.9m/s | -54.6°C | 4.1% | 60.0hPa | 2.5V | 00:00:00 | 02:03:01 | 00:00:00 | |
| DG1MFX-10 | 2026-08-30 12:32:48 | 48.35531 | 12.31519 | 100° | 11km/h | 19851m | -14.2m/s | -54.6°C | 1.2% | 60.0hPa | 2.5V | 08:21:00 | 00:00:00 | 00:00:00 | |
| OE5MMP-10 | 2026-08-30 12:32:46 | 48.35532 | 12.31510 | 107° | 11km/h | 19879m | -14.1m/s | -54.6°C | 4.1% | 59.6hPa | 2.5V | 08:21:00 | 02:02:58 | 00:00:00 | |
| BAUMI2-15 | 2026-08-30 12:32:44 | 48.35536 | 12.31503 | 135° | 11km/h | 19907m | -14.2m/s | -54.7°C | 4.2% | 59.4hPa | 2.6V | 08:21:00 | 02:02:56 | 00:00:00 | |
| OE5FHM-15 | 2026-08-30 12:32:40 | 48.35545 | 12.31495 | 167° | 16km/h | 19965m | -14.6m/s | -54.9°C | 4.2% | 58.9hPa | 2.7V | 00:00:00 | 02:02:52 | 00:00:00 | |
| DO3MHA-11 | 2026-08-30 12:32:39 | 48.35547 | 12.31495 | 185° | 7km/h | 19980m | -14.4m/s | -54.9°C | 4.2% | 58.7hPa | 2.7V | 00:00:00 | 02:02:51 | 00:00:00 | |
| OE5MMP-10 | 2026-08-30 12:32:36 | 48.35554 | 12.31497 | 211° | 9km/h | 20023m | -14.0m/s | -54.7°C | 4.1% | 58.3hPa | 2.7V | 00:00:00 | 02:02:48 | 00:00:00 | |
| BAUMI2-15 | 2026-08-30 12:32:34 | 48.35557 | 12.31500 | 216° | 5km/h | 20051m | -13.9m/s | -54.6°C | 4.1% | 58.0hPa | 2.7V | 00:00:00 | 02:02:46 | 00:00:00 | |
| DL6DJ-15 | 2026-08-30 12:32:31 | 48.35558 | 12.31507 | 271° | 5km/h | 20093m | -14.4m/s | -54.5°C | 1.1% | 57.8hPa | 2.7V | 00:00:00 | 00:00:00 | 00:00:00 | |
| DO3MHA-11 | 2026-08-30 12:32:29 | 48.35556 | 12.31512 | 305° | 18km/h | 20122m | -14.4m/s | -54.4°C | 4.1% | 57.4hPa | 2.7V | 00:00:00 | 02:02:41 | 00:00:00 | |
| OE5WHR-10 | 2026-08-30 12:32:28 | 48.35555 | 12.31515 | 312° | 22km/h | 20137m | -14.1m/s | -54.2°C | 4.0% | 57.3hPa | 2.6V | 00:00:00 | 00:00:00 | 00:00:00 | |
| DG1MFX-10 | 2026-08-30 12:32:27 | 48.35555 | 12.31515 | 313° | 11km/h | 20137m | -14.2m/s | -54.2°C | 1.1% | 57.3hPa | 2.6V | 08:21:00 | 00:00:00 | 00:00:00 | |
| OE5MMP-10 | 2026-08-30 12:32:26 | 48.35550 | 12.31522 | 314° | 20km/h | 20165m | -14.6m/s | -54.2°C | 4.0% | 57.0hPa | 2.6V | 00:00:00 | 02:02:38 | 00:00:00 | |
| BAUMI2-15 | 2026-08-30 12:32:24 | 48.35544 | 12.31532 | 310° | 16km/h | 20194m | -14.2m/s | -54.2°C | 3.9% | 56.8hPa | 2.6V | 00:00:00 | 02:02:36 | 00:00:00 | |
| DO3MHA-11 | 2026-08-30 12:32:19 | 48.35531 | 12.31567 | 295° | 26km/h | 20267m | -14.7m/s | -54.4°C | 4.0% | 56.1hPa | 2.6V | 00:00:00 | 02:02:31 | 00:00:00 | |
| OE5MMP-10 | 2026-08-30 12:32:16 | 48.35521 | 12.31589 | 307° | 27km/h | 20311m | -14.8m/s | -54.5°C | 4.1% | 55.8hPa | 2.6V | 00:00:00 | 02:02:28 | 00:00:00 | |
| OE5FHM-15 | 2026-08-30 12:32:10 | 48.35489 | 12.31629 | 328° | 15km/h | 20399m | -14.5m/s | -54.8°C | 4.2% | 55.0hPa | 2.5V | 00:00:00 | 02:02:22 | 00:00:00 | |
| DO3MHA-11 | 2026-08-30 12:32:09 | 48.35482 | 12.31635 | 327° | 24km/h | 20413m | -14.6m/s | -54.7°C | 4.1% | 54.8hPa | 2.5V | 00:00:00 | 02:02:21 | 00:00:00 | |
| OE5WHR-10 | 2026-08-30 12:32:07 | 48.35471 | 12.31645 | 333° | 16km/h | 20443m | -14.5m/s | -54.7°C | 4.1% | 54.6hPa | 2.5V | 00:00:00 | 02:02:19 | 00:00:00 | |
| OE5MMP-10 | 2026-08-30 12:32:06 | 48.35465 | 12.31649 | 332° | 22km/h | 20457m | -14.5m/s | -54.7°C | 4.2% | 54.5hPa | 2.5V | 00:00:00 | 02:02:18 | 00:00:00 | |
| DL6DJ-15 | 2026-08-30 12:32:00 | 48.35432 | 12.31661 | 349° | 20km/h | 20545m | -14.7m/s | -54.6°C | 1.1% | 53.8hPa | 2.5V | 00:00:00 | 00:00:00 | 00:00:00 | |
| DO3MHA-11 | 2026-08-30 12:31:59 | 48.35427 | 12.31662 | 352° | 15km/h | 20560m | -14.5m/s | -54.6°C | 4.2% | 53.6hPa | 2.5V | 08:21:00 | 02:02:11 | 00:00:00 | |
| OE5MMP-10 | 2026-08-30 12:31:56 | 48.35412 | 12.31665 | 353° | 9km/h | 20604m | -15.0m/s | -54.5°C | 4.1% | 53.2hPa | 2.7V | 00:00:00 | 02:02:08 | 00:00:00 | |
| OE5DRO-10 | 2026-08-30 12:31:51 | 48.35397 | 12.31664 | 18° | 7km/h | 20678m | -15.0m/s | -54.5°C | 4.1% | 52.6hPa | 2.7V | 00:00:00 | 00:00:00 | 00:00:00 | |
| DO3MHA-11 | 2026-08-30 12:31:49 | 48.35395 | 12.31664 | 29° | 5km/h | 20708m | -15.1m/s | -54.6°C | 4.1% | 52.4hPa | 2.7V | 00:00:00 | 02:02:01 | 00:00:00 | |
| OE5WHR-10 | 2026-08-30 12:31:46 | 48.35393 | 12.31664 | 331° | 11km/h | 20752m | -14.7m/s | -54.4°C | 4.1% | 52.0hPa | 2.7V | 00:00:00 | 00:00:00 | 00:00:00 | |
| DG1MFX-10 | 2026-08-30 12:31:45 | 48.35393 | 12.31664 | 331° | 4km/h | 20752m | -14.8m/s | -54.5°C | 1.1% | 52.0hPa | 2.5V | 08:22:00 | 00:00:00 | 00:00:00 | |
| OE5DXL-15 | 2026-08-30 12:31:44 | 48.35390 | 12.31666 | 331° | 11km/h | 20782m | -14.9m/s | -54.2°C | 3.9% | 51.7hPa | 2.5V | 00:00:00 | 00:00:00 | 00:00:00 | |
| OE5FHM-15 | 2026-08-30 12:31:40 | 48.35383 | 12.31672 | 315° | 11km/h | 20842m | -14.8m/s | -54.2°C | 3.9% | 51.3hPa | 2.7V | 00:00:00 | 02:01:52 | 00:00:00 | |
| DO3MHA-11 | 2026-08-30 12:31:39 | 48.35382 | 12.31674 | 324° | 11km/h | 20857m | -15.2m/s | -54.2°C | 3.9% | 51.2hPa | 2.5V | 00:00:00 | 02:01:51 | 00:00:00 | |
| OE5MMP-10 | 2026-08-30 12:31:36 | 48.35377 | 12.31680 | 326° | 15km/h | 20903m | -15.1m/s | -54.4°C | 4.0% | 50.8hPa | 2.5V | 00:00:00 | 02:01:48 | 00:00:00 | |
| OE5DRO-10 | 2026-08-30 12:31:32 | 48.35365 | 12.31689 | 340° | 15km/h | 20963m | -14.9m/s | -54.7°C | 4.2% | 50.3hPa | 2.5V | 00:00:00 | 00:00:00 | 00:00:00 | |
| DO3MHA-11 | 2026-08-30 12:31:29 | 48.35354 | 12.31694 | 358° | 15km/h | 21008m | -14.8m/s | -54.8°C | 4.2% | 50.0hPa | 2.5V | 00:00:00 | 02:01:41 | 00:00:00 | |
| DG1MFX-10 | 2026-08-30 12:31:26 | 48.35343 | 12.31693 | 19° | 15km/h | 21053m | -15.1m/s | -54.9°C | 1.2% | 49.6hPa | 2.7V | 08:22:00 | 00:00:00 | 00:00:00 | |
| OE5WHR-10 | 2026-08-30 12:31:25 | 48.35339 | 12.31691 | 18° | 9km/h | 21068m | -15.0m/s | -54.7°C | 4.1% | 49.5hPa | 2.7V | 00:00:00 | 00:00:00 | 00:00:00 | |
| DO3MHA-11 | 2026-08-30 12:31:19 | 48.35319 | 12.31677 | 41° | 9km/h | 21159m | -15.1m/s | -54.5°C | 4.1% | 48.8hPa | 2.7V | 00:00:00 | 02:01:31 | 00:00:00 | |
| OE5MMP-10 | 2026-08-30 12:31:16 | 48.35316 | 12.31669 | 78° | 7km/h | 21204m | -15.1m/s | -54.7°C | 4.1% | 48.4hPa | 2.7V | 08:22:00 | 02:01:28 | 00:00:00 | |
| OE5DXL-15 | 2026-08-30 12:31:14 | 48.35316 | 12.31663 | 113° | 7km/h | 21235m | -15.1m/s | -54.7°C | 4.2% | 48.2hPa | 2.5V | 00:00:00 | 00:00:00 | 00:00:00 | |
| OE5DRO-10 | 2026-08-30 12:31:13 | 48.35316 | 12.31660 | 116° | 9km/h | 21250m | -15.4m/s | -54.7°C | 4.1% | 48.1hPa | 2.5V | 08:22:00 | 00:00:00 | 00:00:00 | |
| OE5FHM-15 | 2026-08-30 12:31:10 | 48.35320 | 12.31653 | 131° | 7km/h | 21296m | -15.4m/s | -54.5°C | 4.1% | 47.7hPa | 2.6V | 00:00:00 | 02:01:22 | 00:00:00 | |
| DO3MHA-11 | 2026-08-30 12:31:09 | 48.35321 | 12.31651 | 122° | 5km/h | 21312m | -15.4m/s | -54.3°C | 4.0% | 47.6hPa | 2.6V | 00:00:00 | 02:01:21 | 00:00:00 | |
| OE5MMP-10 | 2026-08-30 12:31:06 | 48.35323 | 12.31647 | 105° | 4km/h | 21359m | -15.5m/s | -54.4°C | 4.0% | 47.2hPa | 2.6V | 00:00:00 | 02:01:18 | 00:00:00 | |
| OE5WHR-10 | 2026-08-30 12:31:04 | 48.35323 | 12.31647 | 183° | 7km/h | 21390m | -15.8m/s | -54.4°C | 3.9% | 47.1hPa | 2.6V | 00:00:00 | 02:01:16 | 00:00:00 | |
| DL6DJ-15 | 2026-08-30 12:30:58 | 48.35322 | 12.31654 | 268° | 7km/h | 21484m | -15.5m/s | -54.8°C | 1.0% | 46.4hPa | 2.6V | 00:00:00 | 00:00:00 | 00:00:00 | |
| OE5MMP-10 | 2026-08-30 12:30:56 | 48.35321 | 12.31661 | 282° | 11km/h | 21515m | -15.0m/s | -54.9°C | 4.1% | 46.1hPa | 2.6V | 00:00:00 | 02:01:08 | 00:00:00 | |
| OE5MMP-10 | 2026-08-30 12:30:46 | 48.35308 | 12.31694 | 341° | 5km/h | 21674m | -16.0m/s | -55.3°C | 4.3% | 45.0hPa | 2.6V | 00:00:00 | 02:00:58 | 00:00:00 | |
| OE5DXL-15 | 2026-08-30 12:30:44 | 48.35306 | 12.31695 | 9° | 9km/h | 21705m | -16.0m/s | -55.3°C | 4.3% | 44.8hPa | 2.7V | 00:00:00 | 00:00:00 | 00:00:00 | |
| OE5WHR-10 | 2026-08-30 12:30:43 | 48.35305 | 12.31695 | 349° | 9km/h | 21721m | -15.9m/s | -55.3°C | 4.3% | 44.6hPa | 2.7V | 08:23:00 | 00:00:00 | 00:00:00 | |
| OE5FHM-15 | 2026-08-30 12:30:40 | 48.35302 | 12.31699 | 320° | 9km/h | 21769m | -16.1m/s | -55.1°C | 4.2% | 44.3hPa | 2.7V | 00:00:00 | 02:00:52 | 00:00:00 | |
| DO3MHA-11 | 2026-08-30 12:30:38 | 48.35299 | 12.31703 | 328° | 9km/h | 21802m | -16.3m/s | -54.9°C | 4.2% | 44.1hPa | 2.7V | 00:00:00 | 02:00:50 | 00:00:00 | |
| OE5MMP-10 | 2026-08-30 12:30:36 | 48.35295 | 12.31706 | 335° | 11km/h | 21834m | -16.2m/s | -54.9°C | 4.2% | 43.9hPa | 2.6V | 00:00:00 | 02:00:48 | 00:00:00 | |
| DO3MHA-11 | 2026-08-30 12:30:28 | 48.35278 | 12.31721 | 340° | 15km/h | 21964m | -16.7m/s | -54.7°C | 4.3% | 42.9hPa | 2.6V | 00:00:00 | 02:00:40 | 00:00:00 | |
| DL6DJ-15 | 2026-08-30 12:30:27 | 48.35275 | 12.31722 | 344° | 13km/h | 21981m | -16.4m/s | -54.7°C | 1.1% | 42.9hPa | 2.6V | 00:00:00 | 00:00:00 | 00:00:00 | |
| OE5MMP-10 | 2026-08-30 12:30:26 | 48.35271 | 12.31723 | 351° | 11km/h | 21998m | -16.5m/s | -54.7°C | 4.3% | 42.7hPa | 2.6V | 00:00:00 | 02:00:38 | 00:00:00 | |
| DG1MFX-10 | 2026-08-30 12:30:24 | 48.35264 | 12.31722 | 17° | 15km/h | 22030m | -16.2m/s | -55.0°C | 1.2% | 0hPa | 2.6V | 08:24:00 | 00:00:00 | 00:00:00 | |
| OE5WHR-10 | 2026-08-30 12:30:22 | 48.35258 | 12.31718 | 39° | 5km/h | 22063m | -16.1m/s | -54.7°C | 4.4% | 42.3hPa | 2.6V | 00:00:00 | 00:00:00 | 00:00:00 | |
| DO3MHA-11 | 2026-08-30 12:30:18 | 48.35251 | 12.31706 | 57° | 7km/h | 22127m | -16.2m/s | -54.8°C | 4.2% | 41.9hPa | 2.6V | 00:00:00 | 02:00:30 | 00:00:00 | |
| OE5MMP-10 | 2026-08-30 12:30:16 | 48.35249 | 12.31703 | 102° | 4km/h | 22160m | -16.3m/s | -54.6°C | 4.2% | 41.6hPa | 2.6V | 00:00:00 | 02:00:28 | 00:00:00 | |
| OE5DXL-15 | 2026-08-30 12:30:14 | 48.35250 | 12.31702 | 247° | 13km/h | 22193m | -16.4m/s | -54.4°C | 4.2% | 41.4hPa | 2.7V | 08:23:00 | 00:00:00 | 00:00:00 | |
| BAUMI2-15 | 2026-08-30 12:30:11 | 48.35252 | 12.31705 | 255° | 4km/h | 22243m | -16.6m/s | -53.9°C | 4.1% | 41.1hPa | 2.6V | 00:00:00 | 02:00:23 | 00:00:00 | |
| OE5FHM-15 | 2026-08-30 12:30:10 | 48.35252 | 12.31707 | 244° | 15km/h | 22260m | -16.7m/s | -53.7°C | 4.1% | 41.0hPa | 2.6V | 00:00:00 | 02:00:22 | 00:00:00 | |
| BAUMI2-15 | 2026-08-30 12:30:06 | 48.35252 | 12.31711 | 268° | 7km/h | 22326m | -16.6m/s | -53.8°C | 4.0% | 40.6hPa | 2.7V | 00:00:00 | 02:00:18 | 00:00:00 | |
| DG1MFX-10 | 2026-08-30 12:30:03 | 48.35252 | 12.31715 | 278° | 7km/h | 22360m | -17.4m/s | -53.9°C | 1.1% | 40.4hPa | 2.7V | 08:24:00 | 00:00:00 | 00:00:00 | |
| OE5WHR-10 | 2026-08-30 12:30:01 | 48.35251 | 12.31726 | 272° | 18km/h | 22410m | -16.5m/s | -53.5°C | 4.0% | 40.0hPa | 2.7V | 00:00:00 | 02:00:13 | 00:00:00 | |
| DK5PH-5 | 2026-08-30 12:29:58 | 48.35251 | 12.31745 | 277° | 16km/h | 22460m | -16.7m/s | -53.4°C | 4.0% | 39.7hPa | 2.7V | 00:00:00 | 02:00:10 | 00:00:00 | |
| BAUMI2-15 | 2026-08-30 12:29:56 | 48.35250 | 12.31760 | 282° | 18km/h | 22493m | -16.9m/s | -53.5°C | 4.1% | 39.5hPa | 2.7V | 08:24:00 | 02:00:08 | 00:00:00 | |
| DO3MHA-11 | 2026-08-30 12:29:51 | 48.35241 | 12.31789 | 309° | 18km/h | 22578m | -17.1m/s | -53.3°C | 4.0% | 39.0hPa | 2.7V | 00:00:00 | 02:00:03 | 00:00:00 | |
| OE5MMP-10 | 2026-08-30 12:29:46 | 48.35226 | 12.31812 | 317° | 15km/h | 22664m | -17.5m/s | -53.0°C | 3.9% | 38.4hPa | 2.7V | 08:24:00 | 01:59:58 | 00:00:00 | |
| OE5DXL-15 | 2026-08-30 12:29:44 | 48.35219 | 12.31823 | 314° | 15km/h | 22699m | -17.4m/s | -52.9°C | 3.8% | 38.2hPa | 2.7V | 00:00:00 | 00:00:00 | 00:00:00 | |
| DG1MFX-10 | 2026-08-30 12:29:43 | 48.35219 | 12.31823 | 314° | 18km/h | 22699m | -17.5m/s | -53.0°C | 1.0% | 38.3hPa | 2.7V | 08:24:00 | 00:00:00 | 00:00:00 | |
| PG1ADW-2 | 2026-08-30 12:29:42 | 48.35212 | 12.31831 | 325° | 13km/h | 22734m | -17.5m/s | -52.8°C | 3.8% | 38.0hPa | 2.7V | 00:00:00 | 00:00:00 | 00:00:00 | |
| DO3MHA-11 | 2026-08-30 12:29:41 | 48.35209 | 12.31835 | 326° | 15km/h | 22751m | -17.5m/s | -52.8°C | 3.8% | 37.9hPa | 2.7V | 00:00:00 | 01:59:53 | 00:00:00 | |
| OE5WHR-10 | 2026-08-30 12:29:40 | 48.35206 | 12.31838 | 338° | 15km/h | 22769m | -17.0m/s | -52.8°C | 3.8% | 37.8hPa | 2.7V | 00:00:00 | 00:00:00 | 00:00:00 | |
| BAUMI2-15 | 2026-08-30 12:29:35 | 48.35190 | 12.31847 | 331° | 16km/h | 22856m | -17.5m/s | -52.5°C | 3.7% | 37.3hPa | 2.7V | 00:00:00 | 01:59:47 | 00:00:00 | |
| OE5MMP-10 | 2026-08-30 12:29:34 | 48.35187 | 12.31850 | 332° | 15km/h | 22873m | -17.7m/s | -52.6°C | 3.7% | 37.2hPa | 2.7V | 00:00:00 | 01:59:46 | 00:00:00 | |
| DO3MHA-11 | 2026-08-30 12:29:31 | 48.35176 | 12.31858 | 336° | 16km/h | 22925m | -17.2m/s | -52.6°C | 3.7% | 36.9hPa | 2.7V | 00:00:00 | 01:59:43 | 00:00:00 | |
| BAUMI2-15 | 2026-08-30 12:29:30 | 48.35172 | 12.31860 | 344° | 15km/h | 22943m | -17.9m/s | -52.6°C | 3.7% | 36.8hPa | 2.7V | 00:00:00 | 01:59:42 | 00:00:00 | |
| DK5PH-5 | 2026-08-30 12:29:27 | 48.35161 | 12.31866 | 340° | 13km/h | 22996m | -17.9m/s | -52.8°C | 3.7% | 36.5hPa | 2.7V | 00:00:00 | 01:59:39 | 00:00:00 | |
| BAUMI2-15 | 2026-08-30 12:29:25 | 48.35155 | 12.31871 | 330° | 16km/h | 23031m | -17.9m/s | -53.0°C | 3.8% | 36.3hPa | 2.7V | 00:00:00 | 01:59:37 | 00:00:00 | |
| OE5MMP-10 | 2026-08-30 12:29:24 | 48.35151 | 12.31873 | 331° | 16km/h | 23049m | -18.2m/s | -52.9°C | 3.8% | 36.2hPa | 2.7V | 00:00:00 | 01:59:36 | 00:00:00 | |
| DG1MFX-10 | 2026-08-30 12:29:22 | 48.35148 | 12.31876 | 334° | 16km/h | 23067m | -18.0m/s | -53.0°C | 1.0% | 36.1hPa | 2.7V | 08:25:00 | 00:00:00 | 00:00:00 | |
| DO3MHA-11 | 2026-08-30 12:29:21 | 48.35140 | 12.31882 | 332° | 13km/h | 23103m | -18.2m/s | -53.1°C | 3.8% | 35.9hPa | 2.7V | 00:00:00 | 01:59:33 | 00:00:00 | |
| BAUMI2-15 | 2026-08-30 12:29:20 | 48.35136 | 12.31886 | 337° | 16km/h | 23121m | -17.8m/s | -53.0°C | 3.8% | 35.8hPa | 2.7V | 00:00:00 | 01:59:32 | 00:00:00 | |
| OE5WHR-10 | 2026-08-30 12:29:19 | 48.35131 | 12.31889 | 335° | 11km/h | 23139m | -18.0m/s | -53.1°C | 3.8% | 35.7hPa | 2.7V | 00:00:00 | 00:00:00 | 00:00:00 | |
| BAUMI2-15 | 2026-08-30 12:29:15 | 48.35117 | 12.31898 | 330° | 7km/h | 23211m | -18.1m/s | -53.2°C | 3.8% | 35.3hPa | 2.7V | 00:00:00 | 01:59:27 | 00:00:00 | |
| OE5MMP-10 | 2026-08-30 12:29:14 | 48.35115 | 12.31899 | 345° | 9km/h | 23229m | -17.7m/s | -53.3°C | 3.8% | 35.2hPa | 2.7V | 00:00:00 | 01:59:26 | 00:00:00 | |
| DO3MHA-11 | 2026-08-30 12:29:11 | 48.35110 | 12.31902 | 340° | 11km/h | 23282m | -18.3m/s | -53.3°C | 3.8% | 34.9hPa | 2.7V | 00:00:00 | 01:59:23 | 00:00:00 | |
| OE5DRO-10 | 2026-08-30 12:29:10 | 48.35103 | 12.31906 | 326° | 16km/h | 23337m | -18.2m/s | -53.5°C | 3.9% | 34.6hPa | 2.7V | 00:00:00 | 00:00:00 | 00:00:00 | |
| BAUMI2-15 | 2026-08-30 12:29:05 | 48.35096 | 12.31915 | 299° | 9km/h | 23391m | -18.2m/s | -53.5°C | 3.9% | 34.3hPa | 2.7V | 00:00:00 | 01:59:17 | 00:00:00 | |
| OE5MMP-10 | 2026-08-30 12:29:04 | 48.35095 | 12.31918 | 293° | 15km/h | 23410m | -18.0m/s | -53.4°C | 3.8% | 34.2hPa | 2.7V | 00:00:00 | 01:59:16 | 00:00:00 | |
| DG1MFX-10 | 2026-08-30 12:29:02 | 48.35094 | 12.31921 | 295° | 9km/h | 23427m | -18.0m/s | -53.4°C | 1.0% | 34.1hPa | 2.7V | 08:25:00 | 00:00:00 | 00:00:00 | |
| DO3MHA-11 | 2026-08-30 12:29:01 | 48.35093 | 12.31927 | 281° | 13km/h | 23463m | -17.8m/s | -53.4°C | 3.9% | 33.9hPa | 2.7V | 00:00:00 | 01:59:13 | 00:00:00 | |
| BAUMI2-15 | 2026-08-30 12:29:00 | 48.35092 | 12.31931 | 304° | 18km/h | 23481m | -18.6m/s | -53.5°C | 3.9% | 33.8hPa | 2.6V | 00:00:00 | 01:59:12 | 00:00:00 | |
| OE5WHR-10 | 2026-08-30 12:28:58 | 48.35087 | 12.31940 | 315° | 13km/h | 23518m | -18.9m/s | -53.5°C | 3.9% | 33.6hPa | 2.6V | 00:00:00 | 01:59:10 | 00:00:00 | |
| DK5PH-5 | 2026-08-30 12:28:57 | 48.35083 | 12.31944 | 332° | 22km/h | 23536m | -18.5m/s | -53.5°C | 3.9% | 33.5hPa | 2.6V | 00:00:00 | 01:59:09 | 00:00:00 | |
| BAUMI2-15 | 2026-08-30 12:28:55 | 48.35072 | 12.31952 | 335° | 22km/h | 23574m | -19.2m/s | -53.7°C | 4.0% | 33.3hPa | 2.7V | 00:00:00 | 01:59:07 | 00:00:00 | |
| OE5MMP-10 | 2026-08-30 12:28:54 | 48.35066 | 12.31956 | 341° | 9km/h | 23592m | -18.7m/s | -53.7°C | 4.0% | 33.2hPa | 2.7V | 00:00:00 | 01:59:06 | 00:00:00 | |
| BAUMI2-15 | 2026-08-30 12:28:50 | 48.35046 | 12.31964 | 353° | 9km/h | 23666m | -18.3m/s | -53.9°C | 4.1% | 32.8hPa | 2.7V | 00:00:00 | 01:59:02 | 00:00:00 | |
| OE5DRO-10 | 2026-08-30 12:28:46 | 48.35037 | 12.31965 | 357° | 7km/h | 23759m | -18.9m/s | -53.7°C | 4.0% | 32.3hPa | 2.7V | 00:00:00 | 00:00:00 | 00:00:00 | |
| BAUMI2-15 | 2026-08-30 12:28:45 | 48.35037 | 12.31965 | 357° | 9km/h | 23759m | -18.9m/s | -53.7°C | 4.0% | 32.3hPa | 2.7V | 00:00:00 | 01:58:57 | 00:00:00 | |
| DO3MHA-11 | 2026-08-30 12:28:44 | 48.35035 | 12.31964 | 14° | 7km/h | 23778m | -18.9m/s | -53.8°C | 4.1% | 32.3hPa | 2.7V | 00:00:00 | 01:58:56 | 00:00:00 | |
| OE8JPQ-2 | 2026-08-30 12:28:43 | 48.35032 | 12.31964 | 6° | 11km/h | 23797m | -18.8m/s | -53.8°C | 4.1% | 32.2hPa | 2.7V | 00:00:00 | 00:00:00 | 00:00:00 | |
| DG1MFX-10 | 2026-08-30 12:28:41 | 48.35030 | 12.31964 | 349° | 9km/h | 23816m | -19.6m/s | -53.8°C | 1.1% | 32.1hPa | 2.7V | 08:26:00 | 00:00:00 | 00:00:00 | |
| BAUMI2-15 | 2026-08-30 12:28:40 | 48.35027 | 12.31964 | 13° | 5km/h | 23854m | -18.8m/s | -53.7°C | 4.0% | 31.9hPa | 2.7V | 00:00:00 | 01:58:52 | 00:00:00 | |
| OE5FHM-15 | 2026-08-30 12:28:39 | 48.35026 | 12.31964 | 264° | 13km/h | 23873m | -19.5m/s | -53.7°C | 4.1% | 31.8hPa | 2.7V | 00:00:00 | 01:58:51 | 08:30:00 | |
| OE5WHR-10 | 2026-08-30 12:28:37 | 48.35029 | 12.31965 | 178° | 7km/h | 23910m | -19.5m/s | -53.6°C | 4.1% | 31.6hPa | 2.6V | 00:00:00 | 00:00:00 | 00:00:00 | |
| OE5MMP-10 | 2026-08-30 12:28:35 | 48.35032 | 12.31967 | 200° | 9km/h | 23948m | -19.3m/s | -53.6°C | 4.1% | 31.4hPa | 2.7V | 00:00:00 | 01:58:47 | 00:00:00 | |
| DO3MHA-11 | 2026-08-30 12:28:34 | 48.35034 | 12.31968 | 208° | 7km/h | 23968m | -19.9m/s | -53.6°C | 4.1% | 31.3hPa | 2.6V | 00:00:00 | 01:58:46 | 00:00:00 | |
| BAUMI2-15 | 2026-08-30 12:28:30 | 48.35035 | 12.31978 | 306° | 11km/h | 24045m | -18.9m/s | -53.5°C | 4.0% | 30.9hPa | 2.6V | 00:00:00 | 01:58:42 | 00:00:00 | |
| OE5DRO-10 | 2026-08-30 12:28:27 | 48.35030 | 12.31989 | 309° | 7km/h | 24103m | -19.7m/s | -53.6°C | 4.1% | 30.6hPa | 2.6V | 00:00:00 | 00:00:00 | 00:00:00 | |
| BAUMI2-15 | 2026-08-30 12:28:25 | 48.35027 | 12.31997 | 292° | 7km/h | 24143m | -20.0m/s | -53.5°C | 4.1% | 30.5hPa | 2.7V | 08:25:00 | 01:58:37 | 00:00:00 | |
| DL6DJ-15 | 2026-08-30 12:28:23 | 48.35025 | 12.32006 | 262° | 5km/h | 24201m | -19.5m/s | -53.4°C | 1.1% | 30.2hPa | 2.6V | 00:00:00 | 00:00:00 | 00:00:00 | |
| DO3MHA-11 | 2026-08-30 12:28:21 | 48.35025 | 12.32008 | 242° | 4km/h | 24221m | -19.6m/s | -53.2°C | 4.1% | 30.1hPa | 2.6V | 08:25:00 | 01:58:33 | 00:00:00 | |
| OE5WHR-10 | 2026-08-30 12:28:16 | 48.35026 | 12.32011 | 236° | 11km/h | 24319m | -20.0m/s | -52.8°C | 3.9% | 29.6hPa | 2.6V | 00:00:00 | 00:00:00 | 00:00:00 | |
| OE5MMP-10 | 2026-08-30 12:28:15 | 48.35026 | 12.32012 | 193° | 16km/h | 24339m | -19.5m/s | -52.7°C | 3.9% | 29.5hPa | 2.6V | 00:00:00 | 01:58:27 | 00:00:00 | |
| OE5DXL-15 | 2026-08-30 12:28:14 | 48.35027 | 12.32012 | 224° | 15km/h | 24358m | -19.6m/s | -52.5°C | 3.8% | 29.4hPa | 2.6V | 00:00:00 | 00:00:00 | 00:00:00 | |
| DO3MHA-11 | 2026-08-30 12:28:11 | 48.35030 | 12.32018 | 230° | 11km/h | 24417m | -20.2m/s | -52.2°C | 3.8% | 29.2hPa | 2.6V | 00:00:00 | 01:58:23 | 00:00:00 | |
| OE5DRO-10 | 2026-08-30 12:28:08 | 48.35031 | 12.32031 | 299° | 16km/h | 24496m | -19.6m/s | -52.3°C | 3.8% | 28.8hPa | 2.6V | 00:00:00 | 00:00:00 | 00:00:00 | |
| OE8JPQ-2 | 2026-08-30 12:28:03 | 48.35022 | 12.32051 | 306° | 16km/h | 24575m | -19.4m/s | -52.1°C | 3.7% | 28.5hPa | 2.6V | 00:00:00 | 01:58:15 | 00:00:00 | |
| DL6DJ-15 | 2026-08-30 12:27:52 | 48.35010 | 12.32111 | 284° | 13km/h | 24813m | -20.0m/s | -52.2°C | 0.9% | 27.5hPa | 2.6V | 00:00:00 | 00:00:00 | 00:00:00 | |
| OE5MMP-10 | 2026-08-30 12:27:50 | 48.35009 | 12.32117 | 293° | 13km/h | 24833m | -20.4m/s | -52.1°C | 3.8% | 27.3hPa | 2.6V | 00:00:00 | 01:58:02 | 00:00:00 | |
| OE5DRO-10 | 2026-08-30 12:27:49 | 48.35005 | 12.32130 | 292° | 13km/h | 24874m | -20.2m/s | -51.9°C | 3.7% | 27.1hPa | 2.6V | 00:00:00 | 00:00:00 | 00:00:00 | |
| OE5DXL-15 | 2026-08-30 12:27:44 | 48.35000 | 12.32156 | 291° | 13km/h | 24955m | -20.4m/s | -51.7°C | 3.7% | 26.8hPa | 2.6V | 00:00:00 | 00:00:00 | 00:00:00 | |
| DO3MHA-11 | 2026-08-30 12:27:43 | 48.34999 | 12.32160 | 284° | 11km/h | 24975m | -20.5m/s | -51.7°C | 3.7% | 26.7hPa | 2.6V | 00:00:00 | 01:57:55 | 00:00:00 | |
| DG1MFX-10 | 2026-08-30 12:27:40 | 48.34998 | 12.32167 | 285° | 7km/h | 25016m | -20.3m/s | -51.8°C | 0.9% | 26.6hPa | 2.6V | 08:26:00 | 00:00:00 | 00:00:00 | |
| OE5MMP-10 | 2026-08-30 12:27:34 | 48.34992 | 12.32194 | 288° | 16km/h | 25157m | -20.3m/s | -51.3°C | 3.6% | 26.0hPa | 2.6V | 00:00:00 | 01:57:46 | 00:00:00 | |
| DO3MHA-11 | 2026-08-30 12:27:33 | 48.34991 | 12.32200 | 281° | 13km/h | 25177m | -20.1m/s | -51.3°C | 3.6% | 25.9hPa | 2.6V | 00:00:00 | 01:57:45 | 00:00:00 | |
| OE5DRO-10 | 2026-08-30 12:27:30 | 48.34988 | 12.32222 | 277° | 16km/h | 25237m | -20.6m/s | -51.1°C | 3.6% | 25.7hPa | 2.7V | 00:00:00 | 00:00:00 | 00:00:00 | |
| OE5MMP-10 | 2026-08-30 12:27:24 | 48.34982 | 12.32248 | 343° | 15km/h | 25360m | -20.1m/s | -51.2°C | 3.6% | 25.2hPa | 2.6V | 00:00:00 | 01:57:36 | 00:00:00 | |
| OE8JPQ-2 | 2026-08-30 12:27:23 | 48.34979 | 12.32249 | 354° | 16km/h | 25380m | -20.7m/s | -51.2°C | 3.6% | 25.1hPa | 2.6V | 00:00:00 | 00:00:00 | 00:00:00 | |
| DO3MHA-11 | 2026-08-30 12:27:22 | 48.34977 | 12.32249 | 343° | 16km/h | 25400m | -20.9m/s | -51.2°C | 3.6% | 25.0hPa | 2.6V | 00:00:00 | 01:57:34 | 00:00:00 | |
| DG1MFX-10 | 2026-08-30 12:27:19 | 48.34971 | 12.32254 | 310° | 15km/h | 25443m | -21.0m/s | -51.1°C | 0.9% | 24.9hPa | 2.6V | 08:26:00 | 00:00:00 | 00:00:00 | |
| OE5WHR-10 | 2026-08-30 12:27:14 | 48.34968 | 12.32298 | 264° | 16km/h | 25586m | -20.8m/s | -51.1°C | 3.6% | 24.3hPa | 2.6V | 00:00:00 | 00:00:00 | 00:00:00 | |
| DO3MHA-11 | 2026-08-30 12:27:12 | 48.34968 | 12.32304 | 278° | 18km/h | 25606m | -19.5m/s | -51.1°C | 3.6% | 24.2hPa | 2.6V | 00:00:00 | 01:57:24 | 00:00:00 | |
| OE5DRO-10 | 2026-08-30 12:27:11 | 48.34965 | 12.32315 | 295° | 20km/h | 25645m | -20.4m/s | -51.1°C | 3.6% | 24.0hPa | 2.6V | 00:00:00 | 00:00:00 | 00:00:00 | |
| OE5MMP-10 | 2026-08-30 12:27:04 | 48.34952 | 12.32357 | 296° | 15km/h | 25770m | -20.6m/s | -50.4°C | 3.5% | 23.6hPa | 2.6V | 00:00:00 | 01:57:16 | 00:00:00 | |
| OE8JPQ-2 | 2026-08-30 12:27:03 | 48.34950 | 12.32364 | 294° | 16km/h | 25791m | -21.3m/s | -50.3°C | 3.4% | 23.5hPa | 2.6V | 00:00:00 | 01:57:15 | 00:00:00 | |
| DL6DJ-15 | 2026-08-30 12:26:49 | 48.34906 | 12.32426 | 338° | 15km/h | 26088m | -21.9m/s | -50.6°C | 0.9% | 22.5hPa | 2.6V | 00:00:00 | 00:00:00 | 00:00:00 | |
| OE5MMP-10 | 2026-08-30 12:26:44 | 48.34891 | 12.32421 | 53° | 7km/h | 26198m | -21.3m/s | -50.4°C | 3.6% | 22.1hPa | 2.6V | 00:00:00 | 01:56:56 | 00:00:00 | |
| OE8JPQ-2 | 2026-08-30 12:26:43 | 48.34890 | 12.32419 | 62° | 7km/h | 26219m | -21.8m/s | -50.2°C | 3.6% | 22.0hPa | 2.6V | 08:27:00 | 00:00:00 | 00:00:00 | |
| DO3MHA-11 | 2026-08-30 12:26:40 | 48.34885 | 12.32410 | 59° | 7km/h | 26284m | -22.1m/s | -49.9°C | 3.4% | 21.8hPa | 2.6V | 00:00:00 | 01:56:52 | 00:00:00 | |
| DG1MFX-10 | 2026-08-30 12:26:38 | 48.34884 | 12.32407 | 47° | 11km/h | 26307m | -22.3m/s | -49.9°C | 0.9% | 21.8hPa | 2.6V | 08:27:00 | 00:00:00 | 00:00:00 | |
| OE5MMP-10 | 2026-08-30 12:26:34 | 48.34881 | 12.32406 | 193° | 9km/h | 26417m | -22.7m/s | -49.6°C | 3.3% | 21.3hPa | 2.6V | 00:00:00 | 01:56:46 | 00:00:00 | |
| PG1ADW-2 | 2026-08-30 12:26:33 | 48.34883 | 12.32407 | 198° | 15km/h | 26439m | -21.9m/s | -49.7°C | 3.4% | 21.2hPa | 2.6V | 00:00:00 | 00:00:00 | 00:00:00 | |
| DO3MHA-11 | 2026-08-30 12:26:30 | 48.34891 | 12.32412 | 202° | 11km/h | 26503m | -21.6m/s | -49.8°C | 3.4% | 21.0hPa | 2.6V | 08:27:00 | 01:56:42 | 00:00:00 | |
| OE5DRO-10 | 2026-08-30 12:26:28 | 48.34895 | 12.32418 | 289° | 22km/h | 26590m | -22.4m/s | -49.7°C | 3.3% | 20.8hPa | 2.6V | 08:27:00 | 00:00:00 | 00:00:00 | |
| OE5MMP-10 | 2026-08-30 12:26:24 | 48.34893 | 12.32426 | 293° | 16km/h | 26634m | -21.6m/s | -49.5°C | 3.3% | 20.6hPa | 2.6V | 08:27:00 | 01:56:36 | 00:00:00 | |
| OE8JPQ-2 | 2026-08-30 12:26:23 | 48.34891 | 12.32432 | 286° | 18km/h | 26656m | -21.7m/s | -49.4°C | 3.3% | 20.5hPa | 2.6V | 00:00:00 | 00:00:00 | 00:00:00 | |
| DO3MHA-11 | 2026-08-30 12:26:20 | 48.34887 | 12.32456 | 288° | 20km/h | 26721m | -22.7m/s | -49.5°C | 3.3% | 20.3hPa | 2.6V | 00:00:00 | 01:56:32 | 00:00:00 | |
| DG1MFX-10 | 2026-08-30 12:26:17 | 48.34885 | 12.32465 | 303° | 9km/h | 26766m | -21.6m/s | -49.7°C | 0.8% | 20.3hPa | 2.6V | 08:27:00 | 00:00:00 | 00:00:00 | |
| OE5MMP-10 | 2026-08-30 12:26:14 | 48.34870 | 12.32477 | 339° | 24km/h | 26851m | -21.6m/s | -49.5°C | 3.3% | 19.9hPa | 2.6V | 00:00:00 | 01:56:26 | 00:00:00 | |
| PG1ADW-2 | 2026-08-30 12:26:13 | 48.34863 | 12.32482 | 334° | 27km/h | 26872m | -22.2m/s | -49.5°C | 3.3% | 19.9hPa | 2.6V | 00:00:00 | 00:00:00 | 00:00:00 | |
| DO3MHA-11 | 2026-08-30 12:26:10 | 48.34844 | 12.32501 | 317° | 26km/h | 26940m | -22.5m/s | -49.3°C | 3.3% | 19.6hPa | 2.7V | 00:00:00 | 01:56:22 | 00:00:00 | |
| DK5PH-5 | 2026-08-30 12:26:07 | 48.34833 | 12.32521 | 308° | 18km/h | 27006m | -21.8m/s | -49.3°C | 3.4% | 19.4hPa | 2.7V | 00:00:00 | 01:56:19 | 00:00:00 | |
| OE5MMP-10 | 2026-08-30 12:26:04 | 48.34821 | 12.32531 | 343° | 29km/h | 27071m | -21.5m/s | -49.2°C | 3.3% | 19.2hPa | 2.7V | 00:00:00 | 01:56:16 | 00:00:00 | |
| OE8JPQ-2 | 2026-08-30 12:26:03 | 48.34815 | 12.32533 | 349° | 33km/h | 27093m | -21.6m/s | -49.3°C | 3.3% | 19.2hPa | 2.7V | 00:00:00 | 01:56:15 | 00:00:00 | |
| DL6DJ-15 | 2026-08-30 12:25:47 | 48.34719 | 12.32547 | 2° | 13km/h | 27430m | -22.3m/s | -49.8°C | 0.8% | 18.2hPa | 2.7V | 00:00:00 | 00:00:00 | 00:00:00 | |
| OE5MMP-10 | 2026-08-30 12:25:44 | 48.34715 | 12.32549 | 241° | 16km/h | 27496m | -21.4m/s | -49.7°C | 3.6% | 18.0hPa | 2.7V | 00:00:00 | 01:55:56 | 00:00:00 | |
| OE8JPQ-2 | 2026-08-30 12:25:41 | 48.34716 | 12.32550 | 334° | 26km/h | 27565m | -22.4m/s | -49.0°C | 3.4% | 17.8hPa | 2.7V | 00:00:00 | 00:00:00 | 00:00:00 | |
| DO3MHA-11 | 2026-08-30 12:25:40 | 48.34714 | 12.32551 | 344° | 24km/h | 27587m | -22.5m/s | -48.9°C | 3.3% | 17.8hPa | 2.6V | 00:00:00 | 01:55:52 | 00:00:00 | |
| DG1MFX-10 | 2026-08-30 12:25:37 | 48.34705 | 12.32555 | 341° | 26km/h | 27630m | -21.1m/s | -48.9°C | 0.8% | 17.7hPa | 2.6V | 08:28:00 | 00:00:00 | 00:00:00 | |
| BAUMI2-15 | 2026-08-30 12:25:36 | 48.34692 | 12.32565 | 325° | 27km/h | 27674m | -22.7m/s | -48.7°C | 3.3% | 17.5hPa | 2.6V | 00:00:00 | 01:55:48 | 00:00:00 | |
| OE5MMP-10 | 2026-08-30 12:25:34 | 48.34681 | 12.32578 | 320° | 29km/h | 27717m | -21.4m/s | -48.5°C | 3.3% | 17.4hPa | 2.6V | 00:00:00 | 01:55:46 | 00:00:00 | |
| BAUMI2-15 | 2026-08-30 12:25:31 | 48.34668 | 12.32597 | 325° | 29km/h | 27781m | -22.0m/s | -48.3°C | 3.2% | 17.2hPa | 2.6V | 00:00:00 | 01:55:43 | 00:00:00 | |
| DO3MHA-11 | 2026-08-30 12:25:30 | 48.34663 | 12.32603 | 322° | 29km/h | 27803m | -22.3m/s | -48.2°C | 3.2% | 17.2hPa | 2.6V | 00:00:00 | 01:55:42 | 00:00:00 | |
| OE5HKT-10 | 2026-08-30 12:25:28 | 48.34649 | 12.32614 | 338° | 26km/h | 27849m | -23.8m/s | -48.2°C | 3.2% | 17.0hPa | 2.6V | 00:00:00 | 00:00:00 | 00:00:00 | |
| BAUMI2-15 | 2026-08-30 12:25:26 | 48.34633 | 12.32624 | 347° | 29km/h | 27897m | -24.7m/s | -48.2°C | 3.1% | 16.9hPa | 2.6V | 00:00:00 | 01:55:38 | 00:00:00 | |
| OE5MMP-10 | 2026-08-30 12:25:24 | 48.34617 | 12.32628 | 350° | 24km/h | 27947m | -25.8m/s | -48.4°C | 3.2% | 16.8hPa | 2.6V | 00:00:00 | 01:55:36 | 00:00:00 | |
| BAUMI2-15 | 2026-08-30 12:25:21 | 48.34599 | 12.32631 | 354° | 20km/h | 28021m | -24.2m/s | -48.2°C | 3.2% | 16.6hPa | 2.7V | 00:00:00 | 01:55:33 | 00:00:00 | |
| DO3MHA-11 | 2026-08-30 12:25:20 | 48.34594 | 12.32632 | 356° | 22km/h | 28045m | -23.9m/s | -48.1°C | 3.2% | 16.6hPa | 2.7V | 00:00:00 | 01:55:32 | 00:00:00 | |
| DG1MFX-10 | 2026-08-30 12:25:17 | 48.34585 | 12.32634 | 349° | 22km/h | 28092m | -23.7m/s | -48.3°C | 0.8% | 16.4hPa | 2.7V | 08:29:00 | 00:00:00 | 00:00:00 | |
| BAUMI2-15 | 2026-08-30 12:25:16 | 48.34574 | 12.32640 | 334° | 27km/h | 28138m | -23.1m/s | -48.1°C | 3.2% | 16.3hPa | 2.7V | 00:00:00 | 01:55:28 | 00:00:00 | |
| OE5MMP-10 | 2026-08-30 12:25:14 | 48.34561 | 12.32648 | 342° | 24km/h | 28185m | -25.4m/s | -48.1°C | 3.2% | 16.2hPa | 2.7V | 00:00:00 | 01:55:26 | 00:00:00 | |
| OE5DXL-15 | 2026-08-30 12:25:13 | 48.34555 | 12.32651 | 346° | 26km/h | 28210m | -25.1m/s | -48.1°C | 3.2% | 16.1hPa | 2.7V | 00:00:00 | 00:00:00 | 00:00:00 | |
| BAUMI2-15 | 2026-08-30 12:25:11 | 48.34543 | 12.32656 | 346° | 18km/h | 28258m | -24.4m/s | -48.2°C | 3.3% | 16.0hPa | 2.7V | 00:00:00 | 01:55:23 | 00:00:00 | |
| OE8JPQ-2 | 2026-08-30 12:25:10 | 48.34538 | 12.32658 | 345° | 24km/h | 28283m | -24.6m/s | -48.2°C | 3.3% | 15.9hPa | 2.7V | 00:00:00 | 00:00:00 | 00:00:00 | |
| OE5HKT-10 | 2026-08-30 12:25:07 | 48.34525 | 12.32659 | 9° | 26km/h | 28356m | -24.3m/s | -48.3°C | 3.4% | 15.7hPa | 2.7V | 00:00:00 | 01:55:19 | 00:00:00 | |
| BAUMI2-15 | 2026-08-30 12:25:06 | 48.34518 | 12.32657 | 14° | 29km/h | 28380m | -24.0m/s | -48.2°C | 3.4% | 15.7hPa | 2.7V | 00:00:00 | 01:55:18 | 00:00:00 | |
| OE5MMP-10 | 2026-08-30 12:25:04 | 48.34504 | 12.32654 | 359° | 27km/h | 28427m | -22.1m/s | -48.1°C | 3.4% | 15.6hPa | 2.7V | 00:00:00 | 01:55:16 | 00:00:00 | |
| DL6DJ-15 | 2026-08-30 12:24:45 | 48.34395 | 12.32698 | 6° | 9km/h | 28887m | -25.1m/s | -45.8°C | 0.7% | 14.5hPa | 2.7V | 00:00:00 | 00:00:00 | 00:00:00 | |
| OE5MMP-10 | 2026-08-30 12:24:44 | 48.34393 | 12.32695 | 44° | 13km/h | 28911m | -24.3m/s | -45.8°C | 3.0% | 14.4hPa | 2.7V | 00:00:00 | 01:54:56 | 00:00:00 | |
| OE5DRO-10 | 2026-08-30 12:24:41 | 48.34382 | 12.32682 | 49° | 13km/h | 28981m | -24.5m/s | -45.5°C | 2.9% | 14.3hPa | 2.7V | 00:00:00 | 00:00:00 | 00:00:00 | |
| OE5DXL-15 | 2026-08-30 12:24:40 | 48.34379 | 12.32677 | 50° | 22km/h | 29006m | -24.3m/s | -45.3°C | 2.9% | 14.2hPa | 2.6V | 00:00:00 | 00:00:00 | 00:00:00 | |
| OE5WHR-10 | 2026-08-30 12:24:39 | 48.34377 | 12.32672 | 74° | 20km/h | 29030m | -23.5m/s | -45.1°C | 2.8% | 14.2hPa | 2.6V | 00:00:00 | 01:54:51 | 00:00:00 | |
| BAUMI2-15 | 2026-08-30 12:24:36 | 48.34375 | 12.32662 | 37° | 11km/h | 29103m | -25.3m/s | -44.8°C | 2.8% | 14.0hPa | 2.6V | 00:00:00 | 01:54:48 | 00:00:00 | |
| DG1MFX-10 | 2026-08-30 12:24:35 | 48.34375 | 12.32662 | 37° | 5km/h | 29103m | -25.3m/s | -44.8°C | 0.7% | 14.1hPa | 2.6V | 08:29:00 | 00:00:00 | 00:00:00 | |
| OE5MMP-10 | 2026-08-30 12:24:34 | 48.34372 | 12.32664 | 306° | 24km/h | 29150m | -23.6m/s | -44.6°C | 2.8% | 13.9hPa | 2.6V | 00:00:00 | 01:54:46 | 00:00:00 | |
| BAUMI2-15 | 2026-08-30 12:24:31 | 48.34362 | 12.32668 | 5° | 31km/h | 29223m | -26.3m/s | -44.3°C | 2.7% | 13.8hPa | 2.6V | 00:00:00 | 01:54:43 | 00:00:00 | |
| OE8JPQ-2 | 2026-08-30 12:24:29 | 48.34352 | 12.32662 | 43° | 29km/h | 29271m | -23.2m/s | -44.1°C | 2.6% | 13.6hPa | 2.7V | 00:00:00 | 00:00:00 | 00:00:00 | |
| OE5HKT-10 | 2026-08-30 12:24:25 | 48.34335 | 12.32612 | 79° | 24km/h | 29364m | -22.0m/s | -44.1°C | 2.6% | 13.5hPa | 2.7V | 00:00:00 | 00:00:00 | 00:00:00 | |
| OE5MMP-10 | 2026-08-30 12:24:24 | 48.34333 | 12.32598 | 84° | 24km/h | 29386m | -22.8m/s | -44.1°C | 2.6% | 13.4hPa | 2.7V | 00:00:00 | 01:54:36 | 00:00:00 | |
| BAUMI2-15 | 2026-08-30 12:24:23 | 48.34333 | 12.32586 | 98° | 29km/h | 29408m | -21.9m/s | -44.1°C | 2.6% | 13.4hPa | 2.6V | 00:00:00 | 01:54:35 | 00:00:00 | |
| DO3MHA-11 | 2026-08-30 12:24:22 | 48.34335 | 12.32575 | 109° | 31km/h | 29429m | -21.7m/s | -44.1°C | 2.6% | 13.3hPa | 2.6V | 00:00:00 | 01:54:34 | 00:00:00 | |
| OE5WHR-10 | 2026-08-30 12:24:18 | 48.34349 | 12.32540 | 122° | 16km/h | 29516m | -22.3m/s | -44.1°C | 2.6% | 13.1hPa | 2.6V | 00:00:00 | 00:00:00 | 00:00:00 | |
| OM5KV | 2026-08-30 12:24:16 | 48.34353 | 12.32529 | 123° | 33km/h | 29538m | -22.3m/s | -44.1°C | 0% | 0hPa | 2.6V | 00:00:00 | 00:00:00 | 00:00:00 | |
| DL6DJ-15 | 2026-08-30 12:24:14 | 48.34365 | 12.32495 | 114° | 33km/h | 29606m | -23.0m/s | -44.1°C | 0.6% | 13.0hPa | 2.6V | 00:00:00 | 00:00:00 | 00:00:00 | |
| OE5FHM-15 | 2026-08-30 12:24:09 | 48.34370 | 12.32453 | 82° | 11km/h | 29720m | -22.4m/s | -44.1°C | 2.7% | 12.7hPa | 2.6V | 00:00:00 | 01:54:21 | 00:00:00 | |
| OE5MMP-10 | 2026-08-30 12:24:08 | 48.34369 | 12.32452 | 10° | 22km/h | 29742m | -23.2m/s | -44.0°C | 2.6% | 12.7hPa | 2.6V | 00:00:00 | 01:54:20 | 00:00:00 | |
| OE5HKT-10 | 2026-08-30 12:24:04 | 48.34364 | 12.32460 | 322° | 13km/h | 29845m | -25.8m/s | -44.0°C | 2.6% | 12.5hPa | 2.6V | 00:00:00 | 01:54:16 | 00:00:00 | |
| OE5WHR-10 | 2026-08-30 12:23:56 | 48.34349 | 12.32471 | 304° | 16km/h | 30061m | -28.2m/s | -44.3°C | 2.7% | 12.1hPa | 2.6V | 00:00:00 | 00:00:00 | 00:00:00 | |
| DG1MFX-10 | 2026-08-30 12:23:54 | 48.34348 | 12.32476 | 303° | 7km/h | 30117m | -28.8m/s | -44.3°C | 0.7% | 12.0hPa | 2.6V | 00:00:00 | 00:00:00 | 00:00:00 | |
| OM5KV | 2026-08-30 12:23:53 | 48.34347 | 12.32479 | 299° | 11km/h | 30144m | -26.7m/s | -44.3°C | 0% | 12.0hPa | 2.6V | 00:00:00 | 00:00:00 | 00:00:00 | |
| OM5KV | 2026-08-30 12:23:51 | 48.34345 | 12.32482 | 307° | 11km/h | 30171m | -26.3m/s | -44.3°C | 0% | 0hPa | 2.6V | 00:00:00 | 00:00:00 | 00:00:00 | |
| OE8JPQ-2 | 2026-08-30 12:23:49 | 48.34339 | 12.32489 | 1° | 24km/h | 30245m | -29.0m/s | -44.2°C | 2.7% | 11.7hPa | 2.6V | 00:00:00 | 01:54:01 | 00:00:00 | |
| OM5KV | 2026-08-30 12:23:46 | 48.34325 | 12.32487 | 13° | 26km/h | 30344m | -38.2m/s | -44.1°C | 0% | 0hPa | 2.6V | 00:00:00 | 00:00:00 | 00:00:00 | |
| OE5HKT-10 | 2026-08-30 12:23:43 | 48.34307 | 12.32485 | 360° | 26km/h | 30452m | -34.5m/s | -44.0°C | 2.6% | 11.4hPa | 2.6V | 00:00:00 | 00:00:00 | 08:30:00 | |
| OM5KV | 2026-08-30 12:23:40 | 48.34299 | 12.32484 | 2° | 13km/h | 30521m | -33.5m/s | -43.7°C | 0% | 11.3hPa | 2.7V | 00:00:00 | 00:00:00 | 00:00:00 | |
| OE5FHM-15 | 2026-08-30 12:23:39 | 48.34291 | 12.32482 | 17° | 29km/h | 30583m | -30.0m/s | -43.8°C | 2.5% | 11.1hPa | 2.7V | 00:00:00 | 01:53:51 | 00:00:00 | |
| OM5KV | 2026-08-30 12:23:35 | 48.34262 | 12.32469 | 14° | 42km/h | 30699m | -29.7m/s | -43.9°C | 0% | 0hPa | 2.7V | 00:00:00 | 00:00:00 | 00:00:00 | |
| OE5MMP-10 | 2026-08-30 12:23:33 | 48.34242 | 12.32461 | 20° | 29km/h | 30760m | -30.2m/s | -44.1°C | 2.6% | 10.8hPa | 2.7V | 00:00:00 | 01:53:45 | 00:00:00 | |
| DG1MFX-10 | 2026-08-30 12:23:32 | 48.34242 | 12.32461 | 21° | 37km/h | 30760m | -30.3m/s | -44.1°C | 0.6% | 10.9hPa | 2.7V | 00:00:00 | 00:00:00 | 00:00:00 | |
| OM5KV | 2026-08-30 12:23:30 | 48.34228 | 12.32450 | 41° | 26km/h | 30821m | -31.7m/s | -44.0°C | 0% | 10.8hPa | 2.7V | 00:00:00 | 00:00:00 | 00:00:00 | |
| OE8JPQ-2 | 2026-08-30 12:23:29 | 48.34218 | 12.32437 | 43° | 27km/h | 30868m | -14.9m/s | -43.9°C | 2.7% | 10.6hPa | 2.7V | 00:00:00 | 00:00:00 | 08:30:00 | |
| OM5KV | 2026-08-30 12:23:28 | 48.34214 | 12.32430 | 45° | 26km/h | 30878m | -5.2m/s | -43.9°C | 0% | 0hPa | 2.6V | 00:00:00 | 00:00:00 | 00:00:00 | |
| OM5KV | 2026-08-30 12:23:25 | 48.34199 | 12.32414 | 29° | 26km/h | 30868m | 6.5m/s | -44.0°C | 0% | 0hPa | 2.6V | 00:00:00 | 00:00:00 | 00:00:00 | |
| OE5MMP-10 | 2026-08-30 12:23:23 | 48.34187 | 12.32408 | 11° | 29km/h | 30856m | 5.3m/s | -44.1°C | 2.8% | 10.6hPa | 2.6V | 00:00:00 | 01:53:35 | 00:00:00 | |
| OE5HKT-10 | 2026-08-30 12:23:22 | 48.34180 | 12.32406 | 12° | 29km/h | 30850m | 4.9m/s | -44.0°C | 2.8% | 10.6hPa | 2.7V | 00:00:00 | 00:00:00 | 00:00:00 | |
| OM5KV | 2026-08-30 12:23:21 | 48.34173 | 12.32403 | 19° | 29km/h | 30845m | 5.9m/s | -44.0°C | 0% | 0hPa | 2.7V | 00:00:00 | 00:00:00 | 00:00:00 | |
| OM5KV | 2026-08-30 12:23:18 | 48.34159 | 12.32393 | 32° | 31km/h | 30833m | 5.7m/s | -43.9°C | 0% | 0hPa | 2.7V | 00:00:00 | 00:00:00 | 00:00:00 | |
| DO3MHA-11 | 2026-08-30 12:23:17 | 48.34145 | 12.32381 | 29° | 29km/h | 30821m | 6.3m/s | -43.8°C | 2.7% | 10.7hPa | 2.7V | 00:00:00 | 01:53:29 | 08:30:00 | |
| OE5WHR-10 | 2026-08-30 12:23:14 | 48.34124 | 12.32369 | 18° | 27km/h | 30804m | 5.2m/s | -43.9°C | 2.7% | 10.7hPa | 2.6V | 00:00:00 | 00:00:00 | 08:30:00 | |
| OE5MMP-10 | 2026-08-30 12:23:13 | 48.34118 | 12.32365 | 21° | 27km/h | 30798m | 6.6m/s | -44.0°C | 2.7% | 10.7hPa | 2.6V | 00:00:00 | 01:53:25 | 00:00:00 | |
| DL6DJ-15 | 2026-08-30 12:23:12 | 48.34112 | 12.32362 | 25° | 24km/h | 30792m | 6.2m/s | -44.0°C | 0.6% | 10.8hPa | 2.6V | 00:00:00 | 00:00:00 | 00:00:00 | |
| OE5FHM-15 | 2026-08-30 12:23:09 | 48.34094 | 12.32352 | 9° | 26km/h | 30775m | 6.8m/s | -43.9°C | 2.7% | 10.8hPa | 2.6V | 00:00:00 | 01:53:21 | 00:00:00 | |
| OM5KV | 2026-08-30 12:23:08 | 48.34094 | 12.32352 | 9° | 26km/h | 30775m | 6.8m/s | -43.9°C | 0% | 0hPa | 2.6V | 00:00:00 | 00:00:00 | 00:00:00 | |
| OE8JPQ-2 | 2026-08-30 12:23:07 | 48.34080 | 12.32351 | 360° | 29km/h | 30763m | 5.3m/s | -43.8°C | 2.6% | 10.8hPa | 2.6V | 00:00:00 | 00:00:00 | 00:00:00 | |
| DO3MHA-11 | 2026-08-30 12:23:03 | 48.34049 | 12.32340 | 31° | 27km/h | 30740m | 5.0m/s | -43.9°C | 2.6% | 10.8hPa | 2.6V | 00:00:00 | 01:53:15 | 00:00:00 | |
| OM5KV | 2026-08-30 12:23:02 | 48.34049 | 12.32340 | 32° | 33km/h | 30740m | 5.1m/s | -43.9°C | 0% | 0hPa | 2.6V | 00:00:00 | 00:00:00 | 00:00:00 | |
| OE5HKT-10 | 2026-08-30 12:23:01 | 48.34036 | 12.32327 | 29° | 20km/h | 30730m | 6.2m/s | -44.0°C | 2.6% | 10.8hPa | 2.6V | 00:00:00 | 01:53:13 | 00:00:00 | |
| OM5KV | 2026-08-30 12:22:58 | 48.34015 | 12.32319 | 5° | 26km/h | 30712m | 5.1m/s | 0°C | 0% | 0hPa | 2.6V | 00:00:00 | 00:00:00 | 00:00:00 | |
| DO3MHA-11 | 2026-08-30 12:22:53 | 48.33988 | 12.32311 | 17° | 24km/h | 30684m | 5.4m/s | -44.1°C | 2.7% | 10.9hPa | 2.6V | 00:00:00 | 01:53:05 | 00:00:00 | |
| DG1MFX-10 | 2026-08-30 12:22:52 | 48.33988 | 12.32311 | 18° | 24km/h | 30684m | 5.5m/s | -44.2°C | 0.7% | 11.0hPa | 2.6V | 00:00:00 | 00:00:00 | 00:00:00 | |
| DO7DH-14 | 2026-08-30 12:22:51 | 48.33975 | 12.32307 | 6° | 22km/h | 30671m | 6.4m/s | -44.2°C | 2.7% | 11.0hPa | 2.6V | 00:00:00 | 01:53:03 | 00:00:00 | |
| OE8JPQ-2 | 2026-08-30 12:22:47 | 48.33946 | 12.32301 | 20° | 20km/h | 30648m | 6.8m/s | -43.9°C | 2.6% | 11.0hPa | 2.6V | 00:00:00 | 01:52:59 | 00:00:00 | |
| OM5KV | 2026-08-30 12:22:46 | 48.33946 | 12.32301 | 21° | 26km/h | 30648m | 6.8m/s | 0°C | 0% | 0hPa | 2.6V | 00:00:00 | 00:00:00 | 00:00:00 | |
| DO3MHA-11 | 2026-08-30 12:22:43 | 48.33929 | 12.32291 | 2° | 20km/h | 30624m | 6.3m/s | -43.8°C | 2.6% | 11.0hPa | 2.6V | 00:00:00 | 01:52:55 | 00:00:00 | |
| OM5KV | 2026-08-30 12:22:40 | 48.33920 | 12.32293 | 344° | 18km/h | 30612m | 5.2m/s | 0°C | 0% | 0hPa | 2.7V | 00:00:00 | 00:00:00 | 00:00:00 | |
| OE5FHM-15 | 2026-08-30 12:22:39 | 48.33911 | 12.32297 | 346° | 22km/h | 30600m | 6.2m/s | -43.6°C | 2.6% | 11.1hPa | 2.7V | 00:00:00 | 01:52:51 | 00:00:00 | |
| OE5HKT-10 | 2026-08-30 12:22:37 | 48.33902 | 12.32300 | 351° | 22km/h | 30589m | 4.8m/s | -43.6°C | 2.6% | 11.1hPa | 2.7V | 00:00:00 | 00:00:00 | 00:00:00 | |
| OE5MMP-10 | 2026-08-30 12:22:33 | 48.33875 | 12.32304 | 2° | 26km/h | 30566m | 5.1m/s | -43.6°C | 2.6% | 11.1hPa | 2.6V | 00:00:00 | 01:52:45 | 00:00:00 | |
| OE5WHR-10 | 2026-08-30 12:22:32 | 48.33868 | 12.32303 | 11° | 22km/h | 30560m | 6.3m/s | -43.6°C | 2.6% | 11.1hPa | 2.6V | 00:00:00 | 01:52:44 | 00:00:00 | |
| DG1MFX-10 | 2026-08-30 12:22:31 | 48.33868 | 12.32303 | 12° | 27km/h | 30560m | 6.4m/s | -43.6°C | 0.6% | 11.2hPa | 2.6V | 00:00:00 | 00:00:00 | 00:00:00 | |
| OE8JPQ-2 | 2026-08-30 12:22:27 | 48.33842 | 12.32284 | 12° | 22km/h | 30530m | 6.5m/s | -43.7°C | 2.5% | 11.2hPa | 2.6V | 00:00:00 | 00:00:00 | 00:00:00 | |
| OE5MMP-10 | 2026-08-30 12:22:23 | 48.33817 | 12.32289 | 344° | 22km/h | 30507m | 6.6m/s | -43.9°C | 2.6% | 11.2hPa | 2.6V | 00:00:00 | 01:52:35 | 00:00:00 | |
| OM5KV | 2026-08-30 12:22:19 | 48.33801 | 12.32293 | 361° | 16km/h | 30483m | 5.7m/s | 0°C | 0% | 0hPa | 2.7V | 00:00:00 | 00:00:00 | 00:00:00 | |
| BAUMI2-15 | 2026-08-30 12:22:18 | 48.33796 | 12.32293 | 1° | 24km/h | 30477m | 6.6m/s | -44.1°C | 2.7% | 11.3hPa | 2.7V | 00:00:00 | 01:52:30 | 00:00:00 | |
| OE5HKT-10 | 2026-08-30 12:22:16 | 48.33784 | 12.32293 | 1° | 20km/h | 30465m | 5.6m/s | -44.3°C | 2.7% | 11.3hPa | 2.7V | 00:00:00 | 00:00:00 | 00:00:00 | |
| BAUMI2-15 | 2026-08-30 12:22:13 | 48.33766 | 12.32292 | 5° | 22km/h | 30446m | 5.7m/s | -44.2°C | 2.7% | 11.3hPa | 2.7V | 00:00:00 | 01:52:25 | 08:30:00 | |
| DG1MFX-10 | 2026-08-30 12:22:11 | 48.33762 | 12.32292 | 4° | 20km/h | 30441m | 5.1m/s | -44.3°C | 0.7% | 11.4hPa | 2.6V | 00:00:00 | 00:00:00 | 00:00:00 | |
| OE5WHR-10 | 2026-08-30 12:22:10 | 48.33751 | 12.32291 | 360° | 16km/h | 30428m | 6.7m/s | -44.2°C | 2.7% | 11.4hPa | 2.6V | 00:00:00 | 00:00:00 | 00:00:00 | |
| DO3MHA-11 | 2026-08-30 12:22:09 | 48.33745 | 12.32292 | 358° | 20km/h | 30422m | 5.7m/s | -44.3°C | 2.7% | 11.4hPa | 2.7V | 00:00:00 | 01:52:21 | 00:00:00 | |
| BAUMI2-15 | 2026-08-30 12:22:08 | 48.33740 | 12.32292 | 355° | 15km/h | 30417m | 5.4m/s | -44.3°C | 2.7% | 11.4hPa | 2.7V | 00:00:00 | 01:52:20 | 00:00:00 | |
| OE8JPQ-2 | 2026-08-30 12:22:05 | 48.33728 | 12.32294 | 350° | 13km/h | 30397m | 5.2m/s | -44.2°C | 2.7% | 11.4hPa | 2.7V | 00:00:00 | 00:00:00 | 00:00:00 | |
| OE5MMP-10 | 2026-08-30 12:22:03 | 48.33722 | 12.32297 | 348° | 18km/h | 30386m | 6.9m/s | -44.1°C | 2.7% | 11.4hPa | 2.7V | 00:00:00 | 01:52:15 | 00:00:00 | |
| BAUMI2-15 | 2026-08-30 12:22:02 | 48.33717 | 12.32298 | 349° | 24km/h | 30379m | 6.3m/s | -44.1°C | 2.6% | 11.5hPa | 2.7V | 00:00:00 | 01:52:14 | 00:00:00 | |
| DO3MHA-11 | 2026-08-30 12:21:59 | 48.33698 | 12.32303 | 353° | 11km/h | 30362m | 6.4m/s | -44.2°C | 2.7% | 11.5hPa | 2.7V | 00:00:00 | 01:52:11 | 00:00:00 | |
| BAUMI2-15 | 2026-08-30 12:21:57 | 48.33688 | 12.32304 | 353° | 13km/h | 30349m | 5.4m/s | -44.1°C | 2.7% | 11.5hPa | 2.6V | 00:00:00 | 01:52:09 | 00:00:00 | |
| OE5HKT-10 | 2026-08-30 12:21:55 | 48.33682 | 12.32306 | 350° | 11km/h | 30339m | 6.7m/s | -44.1°C | 2.7% | 11.5hPa | 2.7V | 00:00:00 | 01:52:07 | 00:00:00 | |
| OE5MMP-10 | 2026-08-30 12:21:53 | 48.33675 | 12.32308 | 347° | 11km/h | 30326m | 5.5m/s | -44.0°C | 2.7% | 11.5hPa | 2.7V | 00:00:00 | 01:52:05 | 00:00:00 | |
| BAUMI2-15 | 2026-08-30 12:21:52 | 48.33672 | 12.32310 | 348° | 5km/h | 30320m | 5.7m/s | -44.1°C | 2.7% | 11.5hPa | 2.7V | 00:00:00 | 01:52:04 | 00:00:00 | |
| DG1MFX-10 | 2026-08-30 12:21:50 | 48.33669 | 12.32310 | 352° | 7km/h | 30314m | 6.4m/s | -44.3°C | 0.7% | 11.6hPa | 2.7V | 00:00:00 | 00:00:00 | 00:00:00 | |
| OE5WHR-10 | 2026-08-30 12:21:49 | 48.33667 | 12.32310 | 9° | 9km/h | 30301m | 5.4m/s | -44.0°C | 2.6% | 11.6hPa | 2.7V | 00:00:00 | 00:00:00 | 00:00:00 | |
| DO3MHA-11 | 2026-08-30 12:21:48 | 48.33666 | 12.32310 | 351° | 9km/h | 30296m | 5.1m/s | -44.1°C | 2.6% | 11.6hPa | 2.7V | 00:00:00 | 01:52:00 | 00:00:00 | |
| BAUMI2-15 | 2026-08-30 12:21:47 | 48.33664 | 12.32311 | 346° | 18km/h | 30290m | 6.4m/s | -44.1°C | 2.6% | 11.6hPa | 2.7V | 00:00:00 | 01:51:59 | 00:00:00 | |
| OE8JPQ-2 | 2026-08-30 12:21:45 | 48.33657 | 12.32314 | 345° | 15km/h | 30277m | 5.9m/s | -44.1°C | 2.7% | 11.6hPa | 2.7V | 00:00:00 | 01:51:57 | 00:00:00 | |
| OE5MMP-10 | 2026-08-30 12:21:43 | 48.33646 | 12.32319 | 343° | 7km/h | 30266m | 5.6m/s | -44.1°C | 2.6% | 11.7hPa | 2.7V | 00:00:00 | 01:51:55 | 00:00:00 | |
| BAUMI2-15 | 2026-08-30 12:21:42 | 48.33642 | 12.32321 | 339° | 7km/h | 30260m | 6.8m/s | -44.1°C | 2.6% | 11.7hPa | 2.7V | 00:00:00 | 01:51:54 | 00:00:00 | |
| OE5FHM-15 | 2026-08-30 12:21:39 | 48.33638 | 12.32327 | 276° | 9km/h | 30241m | 6.2m/s | -44.1°C | 2.7% | 11.7hPa | 2.6V | 00:00:00 | 01:51:51 | 00:00:00 | |
| BAUMI2-15 | 2026-08-30 12:21:37 | 48.33638 | 12.32329 | 296° | 4km/h | 30228m | 5.5m/s | -44.2°C | 2.7% | 11.7hPa | 2.6V | 00:00:00 | 01:51:49 | 00:00:00 | |
| DO3MHA-11 | 2026-08-30 12:21:35 | 48.33637 | 12.32328 | 103° | 9km/h | 30217m | 6.9m/s | -44.4°C | 2.7% | 11.7hPa | 2.6V | 00:00:00 | 01:51:47 | 00:00:00 | |
| OE5HKT-10 | 2026-08-30 12:21:34 | 48.33638 | 12.32326 | 105° | 9km/h | 30210m | 6.4m/s | -44.3°C | 2.8% | 11.8hPa | 2.6V | 00:00:00 | 00:00:00 | 00:00:00 | |
| OE5MMP-10 | 2026-08-30 12:21:33 | 48.33638 | 12.32324 | 76° | 13km/h | 30204m | 5.1m/s | -44.2°C | 2.8% | 11.8hPa | 2.7V | 00:00:00 | 01:51:45 | 00:00:00 | |
| BAUMI2-15 | 2026-08-30 12:21:32 | 48.33637 | 12.32322 | 33° | 13km/h | 30199m | 5.7m/s | -44.0°C | 2.7% | 11.8hPa | 2.7V | 00:00:00 | 01:51:44 | 00:00:00 | |
| DG1MFX-10 | 2026-08-30 12:21:29 | 48.33631 | 12.32322 | 344° | 16km/h | 30186m | 6.0m/s | -43.9°C | 0.6% | 11.8hPa | 2.7V | 00:00:00 | 00:00:00 | 00:00:00 | |
| OE5WHR-10 | 2026-08-30 12:21:28 | 48.33623 | 12.32329 | 317° | 11km/h | 30175m | 5.3m/s | -44.0°C | 2.7% | 11.8hPa | 2.7V | 00:00:00 | 01:51:40 | 00:00:00 | |
| OE5MMP-10 | 2026-08-30 12:21:23 | 48.33625 | 12.32351 | 238° | 7km/h | 30146m | 6.0m/s | -44.0°C | 2.6% | 11.9hPa | 2.7V | 00:00:00 | 01:51:35 | 08:30:00 | |
| BAUMI2-15 | 2026-08-30 12:21:22 | 48.33626 | 12.32353 | 262° | 7km/h | 30140m | 6.3m/s | -44.0°C | 2.6% | 11.9hPa | 2.7V | 00:00:00 | 01:51:34 | 00:00:00 | |
| BAUMI2-15 | 2026-08-30 12:21:17 | 48.33619 | 12.32360 | 349° | 9km/h | 30109m | 5.7m/s | -44.4°C | 2.7% | 11.9hPa | 2.7V | 00:00:00 | 01:51:29 | 00:00:00 | |
| DO7DH-14 | 2026-08-30 12:21:15 | 48.33617 | 12.32362 | 325° | 11km/h | 30098m | 6.5m/s | -44.4°C | 2.8% | 12.0hPa | 2.7V | 00:00:00 | 01:51:27 | 00:00:00 | |
| OE5MMP-10 | 2026-08-30 12:21:13 | 48.33612 | 12.32367 | 311° | 11km/h | 30085m | 5.5m/s | -44.3°C | 2.7% | 12.0hPa | 2.7V | 00:00:00 | 01:51:25 | 00:00:00 | |
| BAUMI2-15 | 2026-08-30 12:21:12 | 48.33610 | 12.32371 | 300° | 13km/h | 30080m | 4.7m/s | -44.1°C | 2.7% | 12.0hPa | 2.7V | 00:00:00 | 01:51:24 | 00:00:00 | |
| OE5DRO-10 | 2026-08-30 12:21:11 | 48.33610 | 12.32380 | 255° | 11km/h | 30068m | 6.9m/s | -44.1°C | 2.7% | 12.0hPa | 2.6V | 00:00:00 | 00:00:00 | 00:00:00 | |
| OE5FHM-15 | 2026-08-30 12:21:09 | 48.33611 | 12.32384 | 232° | 9km/h | 30062m | 5.9m/s | -44.1°C | 2.7% | 12.0hPa | 2.6V | 00:00:00 | 01:51:21 | 00:00:00 | |
| DL6DJ-15 | 2026-08-30 12:21:08 | 48.33614 | 12.32389 | 239° | 5km/h | 30051m | 6.2m/s | -44.2°C | 0.6% | 12.1hPa | 2.6V | 00:00:00 | 00:00:00 | 00:00:00 | |
| OE5WHR-10 | 2026-08-30 12:21:07 | 48.33614 | 12.32389 | 240° | 11km/h | 30051m | 6.1m/s | -44.1°C | 2.7% | 12.0hPa | 2.6V | 00:00:00 | 00:00:00 | 00:00:00 | |
| DH7VM-15 | 2026-08-30 12:21:05 | 48.33614 | 12.32391 | 313° | 5km/h | 30044m | 6.4m/s | -44.2°C | 0.6% | 12.1hPa | 2.7V | 00:00:00 | 00:00:00 | 00:00:00 | |
| OE5MMP-10 | 2026-08-30 12:21:03 | 48.33606 | 12.32390 | 20° | 13km/h | 30027m | 6.4m/s | -44.1°C | 2.7% | 12.1hPa | 2.7V | 00:00:00 | 01:51:15 | 00:00:00 | |
| BAUMI2-15 | 2026-08-30 12:21:02 | 48.33603 | 12.32387 | 30° | 13km/h | 30021m | 6.4m/s | -44.1°C | 2.6% | 12.1hPa | 2.7V | 00:00:00 | 01:51:14 | 00:00:00 | |
| BAUMI2-15 | 2026-08-30 12:20:57 | 48.33588 | 12.32381 | 329° | 11km/h | 29991m | 5.2m/s | -44.0°C | 2.6% | 12.2hPa | 2.7V | 00:00:00 | 01:51:09 | 00:00:00 | |
| OE5MMP-10 | 2026-08-30 12:20:53 | 48.33588 | 12.32394 | 232° | 7km/h | 29967m | 5.1m/s | -44.1°C | 2.7% | 12.2hPa | 2.7V | 00:00:00 | 01:51:05 | 00:00:00 | |
| BAUMI2-15 | 2026-08-30 12:20:52 | 48.33589 | 12.32397 | 238° | 7km/h | 29962m | 5.0m/s | -44.1°C | 2.7% | 12.2hPa | 2.6V | 00:00:00 | 01:51:04 | 00:00:00 | |
| OE8JPQ-2 | 2026-08-30 12:20:50 | 48.33588 | 12.32399 | 352° | 9km/h | 29949m | 6.0m/s | -44.0°C | 2.7% | 12.2hPa | 2.6V | 00:00:00 | 00:00:00 | 00:00:00 | |
| DG1MFX-10 | 2026-08-30 12:20:48 | 48.33586 | 12.32399 | 11° | 11km/h | 29944m | 5.5m/s | -44.0°C | 0.7% | 12.3hPa | 2.6V | 00:00:00 | 00:00:00 | 00:00:00 | |
| BAUMI2-15 | 2026-08-30 12:20:47 | 48.33581 | 12.32397 | 30° | 7km/h | 29932m | 6.5m/s | -44.1°C | 2.7% | 12.3hPa | 2.6V | 00:00:00 | 01:50:59 | 00:00:00 | |
| OE5WHR-10 | 2026-08-30 12:20:46 | 48.33580 | 12.32395 | 32° | 9km/h | 29926m | 5.5m/s | -44.1°C | 2.7% | 12.3hPa | 2.6V | 00:00:00 | 00:00:00 | 00:00:00 | |
| OE5MMP-10 | 2026-08-30 12:20:43 | 48.33578 | 12.32399 | 294° | 11km/h | 29909m | 6.9m/s | -44.1°C | 2.6% | 12.3hPa | 2.6V | 00:00:00 | 01:50:55 | 00:00:00 | |
| BAUMI2-15 | 2026-08-30 12:20:42 | 48.33576 | 12.32403 | 296° | 15km/h | 29902m | 6.3m/s | -44.1°C | 2.6% | 12.3hPa | 2.6V | 00:00:00 | 01:50:54 | 08:30:00 | |
| OE5FHM-15 | 2026-08-30 12:20:39 | 48.33572 | 12.32420 | 279° | 9km/h | 29885m | 6.6m/s | -44.1°C | 2.7% | 12.4hPa | 2.6V | 00:00:00 | 01:50:51 | 08:30:00 | |
| BAUMI2-15 | 2026-08-30 12:20:37 | 48.33572 | 12.32427 | 276° | 7km/h | 29873m | 5.5m/s | -43.9°C | 2.6% | 12.4hPa | 2.6V | 00:00:00 | 01:50:49 | 00:00:00 | |
| OE5MMP-10 | 2026-08-30 12:20:33 | 48.33565 | 12.32425 | 33° | 9km/h | 29849m | 5.0m/s | -43.9°C | 2.6% | 12.4hPa | 2.6V | 00:00:00 | 01:50:45 | 00:00:00 | |
| BAUMI2-15 | 2026-08-30 12:20:32 | 48.33563 | 12.32423 | 39° | 7km/h | 29844m | 6.6m/s | -44.0°C | 2.6% | 12.4hPa | 2.6V | 00:00:00 | 01:50:44 | 00:00:00 | |
| DO3MHA-11 | 2026-08-30 12:20:30 | 48.33561 | 12.32420 | 14° | 9km/h | 29832m | 5.1m/s | -44.0°C | 2.6% | 12.5hPa | 2.6V | 00:00:00 | 01:50:42 | 08:30:00 | |
| OE5HKT-10 | 2026-08-30 12:20:29 | 48.33560 | 12.32421 | 325° | 9km/h | 29827m | 5.8m/s | -43.9°C | 2.6% | 12.5hPa | 2.6V | 00:00:00 | 00:00:00 | 08:30:00 | |
| DG1MFX-10 | 2026-08-30 12:20:28 | 48.33560 | 12.32421 | 326° | 5km/h | 29827m | 5.8m/s | -44.0°C | 0.7% | 12.5hPa | 2.7V | 00:00:00 | 00:00:00 | 00:00:00 | |
| BAUMI2-15 | 2026-08-30 12:20:27 | 48.33557 | 12.32425 | 308° | 13km/h | 29814m | 5.7m/s | -43.9°C | 2.6% | 12.5hPa | 2.7V | 00:00:00 | 01:50:39 | 00:00:00 | |
| OE5WHR-10 | 2026-08-30 12:20:25 | 48.33554 | 12.32435 | 283° | 9km/h | 29804m | 6.0m/s | -44.1°C | 2.7% | 12.5hPa | 2.6V | 00:00:00 | 01:50:37 | 00:00:00 | |
| OE5MMP-10 | 2026-08-30 12:20:23 | 48.33554 | 12.32445 | 254° | 11km/h | 29792m | 4.8m/s | -44.0°C | 2.7% | 12.5hPa | 2.6V | 00:00:00 | 01:50:35 | 00:00:00 | |
| BAUMI2-15 | 2026-08-30 12:20:22 | 48.33555 | 12.32448 | 251° | 7km/h | 29787m | 4.6m/s | -44.0°C | 2.7% | 12.6hPa | 2.6V | 00:00:00 | 01:50:34 | 00:00:00 | |
| OE8JPQ-2 | 2026-08-30 12:20:18 | 48.33551 | 12.32450 | 36° | 15km/h | 29765m | 4.3m/s | -44.3°C | 2.7% | 12.6hPa | 2.6V | 00:00:00 | 01:50:30 | 00:00:00 | |
| DO3MHA-11 | 2026-08-30 12:20:16 | 48.33547 | 12.32443 | 74° | 11km/h | 29755m | 6.3m/s | -44.4°C | 2.7% | 12.6hPa | 2.6V | 00:00:00 | 01:50:28 | 00:00:00 | |
| OE5DRO-10 | 2026-08-30 12:20:14 | 48.33548 | 12.32434 | 121° | 9km/h | 29743m | 5.5m/s | -44.1°C | 2.7% | 12.7hPa | 2.6V | 00:00:00 | 00:00:00 | 00:00:00 | |
| OE5MMP-10 | 2026-08-30 12:20:13 | 48.33550 | 12.32430 | 132° | 7km/h | 29738m | 5.3m/s | -44.1°C | 2.7% | 12.7hPa | 2.6V | 00:00:00 | 01:50:25 | 00:00:00 | |
| OE5DXL-15 | 2026-08-30 12:20:11 | 48.33553 | 12.32427 | 190° | 11km/h | 29726m | 6.0m/s | -44.1°C | 2.7% | 12.7hPa | 2.6V | 00:00:00 | 00:00:00 | 00:00:00 | |
| OE5FHM-15 | 2026-08-30 12:20:09 | 48.33552 | 12.32430 | 302° | 13km/h | 29716m | 4.3m/s | -44.2°C | 2.6% | 12.7hPa | 2.6V | 00:00:00 | 01:50:21 | 00:00:00 | |
| OE5HKT-10 | 2026-08-30 12:20:08 | 48.33551 | 12.32434 | 294° | 11km/h | 29711m | 5.3m/s | -44.4°C | 2.7% | 12.7hPa | 2.6V | 00:00:00 | 00:00:00 | 00:00:00 | |
| DO3MHA-11 | 2026-08-30 12:20:06 | 48.33549 | 12.32440 | 270° | 13km/h | 29699m | 5.3m/s | -44.3°C | 2.7% | 12.7hPa | 2.6V | 00:00:00 | 01:50:18 | 00:00:00 | |
| OE5WHR-10 | 2026-08-30 12:20:04 | 48.33550 | 12.32442 | 82° | 13km/h | 29689m | 5.0m/s | -44.3°C | 2.6% | 12.8hPa | 2.6V | 00:00:00 | 00:00:00 | 08:30:00 | |
| OE5MMP-10 | 2026-08-30 12:20:03 | 48.33549 | 12.32440 | 61° | 13km/h | 29683m | 6.0m/s | -44.3°C | 2.7% | 12.8hPa | 2.7V | 00:00:00 | 01:50:15 | 00:00:00 | |
| OE8JPQ-2 | 2026-08-30 12:19:56 | 48.33542 | 12.32406 | 101° | 9km/h | 29645m | 4.7m/s | -44.3°C | 2.7% | 12.8hPa | 2.7V | 00:00:00 | 00:00:00 | 08:30:00 | |
| DO3MHA-11 | 2026-08-30 12:19:55 | 48.33542 | 12.32403 | 72° | 11km/h | 29639m | 6.2m/s | -44.2°C | 2.7% | 12.9hPa | 2.7V | 00:00:00 | 01:50:07 | 00:00:00 | |
| OE5MMP-10 | 2026-08-30 12:19:53 | 48.33538 | 12.32401 | 12° | 15km/h | 29628m | 4.5m/s | -44.2°C | 2.6% | 12.9hPa | 2.6V | 00:00:00 | 01:50:05 | 08:30:00 | |
| OE5HKT-10 | 2026-08-30 12:19:47 | 48.33526 | 12.32382 | 59° | 13km/h | 29595m | 6.3m/s | -44.5°C | 2.7% | 13.0hPa | 2.7V | 00:00:00 | 01:49:59 | 00:00:00 | |
| OE5WHR-10 | 2026-08-30 12:19:43 | 48.33516 | 12.32361 | 62° | 11km/h | 29573m | 6.2m/s | -44.6°C | 2.7% | 13.0hPa | 2.7V | 00:00:00 | 00:00:00 | 00:00:00 | |
| OE5FHM-15 | 2026-08-30 12:19:38 | 48.33509 | 12.32340 | 36° | 9km/h | 29545m | 5.4m/s | -44.3°C | 2.7% | 13.0hPa | 2.7V | 00:00:00 | 01:49:50 | 00:00:00 | |
| OE5DRO-10 | 2026-08-30 12:19:36 | 48.33502 | 12.32334 | 25° | 9km/h | 29536m | 4.5m/s | -44.3°C | 2.7% | 13.1hPa | 2.7V | 00:00:00 | 00:00:00 | 00:00:00 | |
| DL6DJ-15 | 2026-08-30 12:19:35 | 48.33498 | 12.32331 | 46° | 5km/h | 29525m | 6.1m/s | -44.4°C | 0.7% | 13.1hPa | 2.7V | 00:00:00 | 00:00:00 | 00:00:00 | |
| OE5MMP-10 | 2026-08-30 12:19:33 | 48.33497 | 12.32329 | 75° | 7km/h | 29519m | 5.6m/s | -44.3°C | 2.7% | 13.1hPa | 2.7V | 00:00:00 | 01:49:45 | 00:00:00 | |
| DG1MFX-10 | 2026-08-30 12:19:27 | 48.33490 | 12.32309 | 58° | 7km/h | 29485m | 6.3m/s | -44.5°C | 0.6% | 13.2hPa | 2.7V | 00:00:00 | 00:00:00 | 00:00:00 | |
| OE5HKT-10 | 2026-08-30 12:19:26 | 48.33489 | 12.32308 | 51° | 9km/h | 29480m | 5.3m/s | -44.4°C | 2.7% | 13.2hPa | 2.7V | 00:00:00 | 00:00:00 | 00:00:00 | |
| DO3MHA-11 | 2026-08-30 12:19:25 | 48.33488 | 12.32307 | 36° | 11km/h | 29474m | 5.0m/s | -44.4°C | 2.7% | 13.2hPa | 2.7V | 00:00:00 | 01:49:37 | 00:00:00 | |
| OE5MMP-10 | 2026-08-30 12:19:23 | 48.33485 | 12.32304 | 23° | 11km/h | 29463m | 6.4m/s | -44.6°C | 2.6% | 13.2hPa | 2.6V | 00:00:00 | 01:49:35 | 00:00:00 | |
| OE5WHR-10 | 2026-08-30 12:19:22 | 48.33482 | 12.32302 | 26° | 11km/h | 29457m | 5.3m/s | -44.7°C | 2.6% | 13.2hPa | 2.7V | 00:00:00 | 01:49:34 | 00:00:00 | |
| OE5DRO-10 | 2026-08-30 12:19:17 | 48.33470 | 12.32281 | 43° | 11km/h | 29418m | 5.4m/s | -44.5°C | 2.6% | 13.3hPa | 2.7V | 00:00:00 | 00:00:00 | 00:00:00 | |
| DO3MHA-11 | 2026-08-30 12:19:15 | 48.33470 | 12.32281 | 43° | 9km/h | 29418m | 5.4m/s | -44.5°C | 2.6% | 13.3hPa | 2.7V | 00:00:00 | 01:49:27 | 00:00:00 | |
| OE5MMP-10 | 2026-08-30 12:19:13 | 48.33466 | 12.32278 | 23° | 11km/h | 29408m | 4.9m/s | -44.5°C | 2.7% | 13.3hPa | 2.7V | 00:00:00 | 01:49:25 | 00:00:00 | |
| OE5FHM-15 | 2026-08-30 12:19:08 | 48.33460 | 12.32278 | 4° | 13km/h | 29381m | 6.4m/s | -44.7°C | 2.6% | 13.4hPa | 2.7V | 00:00:00 | 01:49:20 | 00:00:00 | |
| DG1MFX-10 | 2026-08-30 12:19:06 | 48.33457 | 12.32278 | 12° | 16km/h | 29375m | 5.9m/s | -44.9°C | 0.7% | 13.5hPa | 2.6V | 00:00:00 | 00:00:00 | 00:00:00 | |
| DO3MHA-11 | 2026-08-30 12:19:05 | 48.33448 | 12.32273 | 24° | 13km/h | 29364m | 5.7m/s | -45.1°C | 2.7% | 13.4hPa | 2.6V | 00:00:00 | 01:49:17 | 00:00:00 | |
| OE5MMP-10 | 2026-08-30 12:19:03 | 48.33441 | 12.32267 | 40° | 11km/h | 29352m | 5.2m/s | -45.1°C | 2.7% | 13.4hPa | 2.6V | 00:00:00 | 01:49:15 | 00:00:00 | |
| OE5WHR-10 | 2026-08-30 12:19:01 | 48.33436 | 12.32260 | 39° | 11km/h | 29341m | 6.0m/s | -44.9°C | 2.7% | 13.4hPa | 2.6V | 00:00:00 | 00:00:00 | 00:00:00 | |
| OE5DRO-10 | 2026-08-30 12:18:59 | 48.33423 | 12.32252 | 10° | 11km/h | 29319m | 6.5m/s | -45.0°C | 2.8% | 13.5hPa | 2.6V | 00:00:00 | 00:00:00 | 00:00:00 | |
| DO3MHA-11 | 2026-08-30 12:18:55 | 48.33419 | 12.32253 | 345° | 13km/h | 29307m | 4.6m/s | -45.2°C | 2.8% | 13.5hPa | 2.6V | 00:00:00 | 01:49:07 | 08:30:00 | |
| OE5DXL-15 | 2026-08-30 12:18:54 | 48.33417 | 12.32253 | 353° | 9km/h | 29303m | 4.3m/s | -45.3°C | 2.8% | 13.5hPa | 2.7V | 00:00:00 | 00:00:00 | 00:00:00 | |
| OE5MMP-10 | 2026-08-30 12:18:53 | 48.33415 | 12.32253 | 2° | 15km/h | 29297m | 6.1m/s | -45.4°C | 2.8% | 13.6hPa | 2.7V | 00:00:00 | 01:49:05 | 00:00:00 | |
| DO7DH-14 | 2026-08-30 12:18:51 | 48.33406 | 12.32252 | 10° | 27km/h | 29285m | 5.3m/s | -45.4°C | 2.8% | 13.6hPa | 2.6V | 00:00:00 | 01:49:03 | 00:00:00 | |
| OE5MMP-10 | 2026-08-30 12:18:43 | 48.33384 | 12.32232 | 56° | 11km/h | 29242m | 5.0m/s | -45.4°C | 2.8% | 13.7hPa | 2.7V | 00:00:00 | 01:48:55 | 00:00:00 | |
| DO3MHA-11 | 2026-08-30 12:18:42 | 48.33382 | 12.32229 | 50° | 5km/h | 29237m | 4.9m/s | -45.5°C | 2.7% | 13.7hPa | 2.7V | 00:00:00 | 01:48:54 | 00:00:00 | |
| OE8JPQ-2 | 2026-08-30 12:18:40 | 48.33380 | 12.32225 | 45° | 16km/h | 29225m | 6.4m/s | -45.3°C | 2.8% | 13.7hPa | 2.7V | 00:00:00 | 00:00:00 | 00:00:00 | |
| OE5DRO-10 | 2026-08-30 12:18:39 | 48.33380 | 12.32224 | 356° | 13km/h | 29220m | 5.0m/s | -45.3°C | 2.7% | 13.7hPa | 2.7V | 00:00:00 | 00:00:00 | 00:00:00 | |
| OE5FHM-15 | 2026-08-30 12:18:38 | 48.33378 | 12.32225 | 353° | 13km/h | 29215m | 4.2m/s | -45.4°C | 2.8% | 13.7hPa | 2.7V | 00:00:00 | 01:48:50 | 00:00:00 | |
| OE5WHR-10 | 2026-08-30 12:18:37 | 48.33376 | 12.32225 | 1° | 16km/h | 29210m | 6.0m/s | -45.5°C | 2.8% | 13.7hPa | 2.7V | 00:00:00 | 00:00:00 | 00:00:00 | |
| OE5MMP-10 | 2026-08-30 12:18:33 | 48.33357 | 12.32218 | 26° | 9km/h | 29189m | 5.1m/s | -45.6°C | 2.8% | 13.8hPa | 2.7V | 00:00:00 | 01:48:45 | 00:00:00 | |
| DO3MHA-11 | 2026-08-30 12:18:32 | 48.33353 | 12.32215 | 38° | 15km/h | 29183m | 6.4m/s | -45.7°C | 2.8% | 13.8hPa | 2.7V | 00:00:00 | 01:48:44 | 00:00:00 | |
| OE5DXL-15 | 2026-08-30 12:18:24 | 48.33349 | 12.32193 | 358° | 16km/h | 29136m | 5.2m/s | -45.8°C | 2.8% | 13.9hPa | 2.7V | 00:00:00 | 00:00:00 | 00:00:00 | |
| OE5MMP-10 | 2026-08-30 12:18:23 | 48.33347 | 12.32193 | 1° | 18km/h | 29131m | 4.7m/s | -45.7°C | 2.8% | 13.9hPa | 2.7V | 00:00:00 | 01:48:35 | 08:30:00 | |
| OE8JPQ-2 | 2026-08-30 12:18:20 | 48.33331 | 12.32190 | 15° | 22km/h | 29114m | 4.9m/s | -45.8°C | 2.7% | 13.9hPa | 2.7V | 00:00:00 | 01:48:32 | 00:00:00 | |
| OE5WHR-10 | 2026-08-30 12:18:16 | 48.33309 | 12.32176 | 44° | 13km/h | 29095m | 6.5m/s | -46.1°C | 2.8% | 14.0hPa | 2.7V | 00:00:00 | 01:48:28 | 00:00:00 | |
| OE5MMP-10 | 2026-08-30 12:18:13 | 48.33312 | 12.32177 | 222° | 16km/h | 29077m | 5.7m/s | -46.2°C | 2.9% | 14.0hPa | 2.7V | 00:00:00 | 01:48:25 | 00:00:00 | |
| OE5FHM-15 | 2026-08-30 12:18:08 | 48.33306 | 12.32184 | 4° | 18km/h | 29050m | 5.5m/s | -46.3°C | 2.9% | 14.1hPa | 2.7V | 00:00:00 | 01:48:20 | 00:00:00 | |
| DG1MFX-10 | 2026-08-30 12:18:04 | 48.33289 | 12.32183 | 360° | 29km/h | 29034m | 7.1m/s | -46.4°C | 0.7% | 14.2hPa | 2.7V | 00:00:00 | 00:00:00 | 00:00:00 | |
| OE5MMP-10 | 2026-08-30 12:18:03 | 48.33274 | 12.32183 | 360° | 15km/h | 29022m | 4.5m/s | -46.3°C | 2.9% | 14.1hPa | 2.7V | 00:00:00 | 01:48:15 | 00:00:00 | |
| DL6DJ-15 | 2026-08-30 12:18:01 | 48.33264 | 12.32181 | 22° | 15km/h | 29011m | 6.6m/s | -46.6°C | 0.7% | 14.2hPa | 2.7V | 00:00:00 | 00:00:00 | 00:00:00 | |
| OE5WHR-10 | 2026-08-30 12:17:55 | 48.33254 | 12.32175 | 336° | 20km/h | 28979m | 5.2m/s | -46.4°C | 2.9% | 14.2hPa | 2.7V | 00:00:00 | 00:00:00 | 00:00:00 | |
| OE5MMP-10 | 2026-08-30 12:17:53 | 48.33242 | 12.32181 | 348° | 22km/h | 28967m | 6.3m/s | -46.5°C | 2.9% | 14.3hPa | 2.6V | 00:00:00 | 01:48:05 | 00:00:00 | |
| OE8JPQ-2 | 2026-08-30 12:17:51 | 48.33227 | 12.32186 | 348° | 27km/h | 28956m | 4.9m/s | -46.6°C | 2.9% | 14.3hPa | 2.7V | 00:00:00 | 00:00:00 | 00:00:00 | |
| BAUMI2-15 | 2026-08-30 12:17:50 | 48.33220 | 12.32188 | 344° | 20km/h | 28951m | 6.3m/s | -46.4°C | 2.9% | 14.3hPa | 2.7V | 00:00:00 | 01:48:02 | 00:00:00 | |
| BAUMI2-15 | 2026-08-30 12:17:45 | 48.33200 | 12.32195 | 33° | 15km/h | 28921m | 5.6m/s | -46.4°C | 2.9% | 14.4hPa | 2.6V | 00:00:00 | 01:47:57 | 00:00:00 | |
| OE5MMP-10 | 2026-08-30 12:17:43 | 48.33194 | 12.32189 | 31° | 18km/h | 28911m | 4.9m/s | -46.6°C | 2.9% | 14.4hPa | 2.6V | 00:00:00 | 01:47:55 | 00:00:00 | |
| BAUMI2-15 | 2026-08-30 12:17:40 | 48.33184 | 12.32186 | 356° | 20km/h | 28894m | 5.2m/s | -46.6°C | 2.8% | 14.4hPa | 2.6V | 00:00:00 | 01:47:52 | 00:00:00 | |
| OE5FHM-15 | 2026-08-30 12:17:38 | 48.33174 | 12.32186 | 2° | 26km/h | 28882m | 6.5m/s | -46.8°C | 2.8% | 14.5hPa | 2.6V | 00:00:00 | 01:47:50 | 00:00:00 | |
| BAUMI2-15 | 2026-08-30 12:17:35 | 48.33157 | 12.32184 | 3° | 22km/h | 28866m | 5.4m/s | -46.9°C | 2.9% | 14.5hPa | 2.7V | 00:00:00 | 01:47:47 | 08:30:00 | |
| OE5WHR-10 | 2026-08-30 12:17:34 | 48.33151 | 12.32184 | 353° | 26km/h | 28860m | 6.5m/s | -46.9°C | 2.9% | 14.5hPa | 2.6V | 00:00:00 | 00:00:00 | 00:00:00 | |
| OE5MMP-10 | 2026-08-30 12:17:33 | 48.33147 | 12.32186 | 342° | 22km/h | 28854m | 5.6m/s | -47.0°C | 2.9% | 14.5hPa | 2.6V | 00:00:00 | 01:47:45 | 00:00:00 | |
| BAUMI2-15 | 2026-08-30 12:17:30 | 48.33130 | 12.32193 | 353° | 26km/h | 28837m | 6.5m/s | -47.2°C | 3.0% | 14.6hPa | 2.6V | 00:00:00 | 01:47:42 | 00:00:00 | |
| OE5DRO-10 | 2026-08-30 12:17:29 | 48.33124 | 12.32194 | 5° | 27km/h | 28831m | 5.7m/s | -47.0°C | 3.0% | 14.6hPa | 2.6V | 00:00:00 | 00:00:00 | 00:00:00 | |
| BAUMI2-15 | 2026-08-30 12:17:25 | 48.33099 | 12.32185 | 11° | 26km/h | 28808m | 5.9m/s | -47.3°C | 3.1% | 14.6hPa | 2.6V | 00:00:00 | 01:47:37 | 00:00:00 | |
| OE5MMP-10 | 2026-08-30 12:17:23 | 48.33090 | 12.32184 | 1° | 31km/h | 28797m | 5.4m/s | -47.5°C | 3.1% | 14.7hPa | 2.6V | 00:00:00 | 01:47:35 | 00:00:00 | |
| OE8JPQ-2 | 2026-08-30 12:17:19 | 48.33061 | 12.32186 | 350° | 35km/h | 28773m | 6.4m/s | -47.5°C | 3.0% | 14.7hPa | 2.7V | 00:00:00 | 00:00:00 | 00:00:00 | |
| DH7VM-15 | 2026-08-30 12:17:18 | 48.33053 | 12.32189 | 346° | 33km/h | 28766m | 6.4m/s | -47.5°C | 0.7% | 14.8hPa | 2.7V | 00:00:00 | 00:00:00 | 00:00:00 | |
| BAUMI2-15 | 2026-08-30 12:17:14 | 48.33020 | 12.32199 | 2° | 29km/h | 28743m | 5.9m/s | -47.5°C | 3.1% | 14.8hPa | 2.7V | 00:00:00 | 01:47:26 | 00:00:00 | |
| OE5WHR-10 | 2026-08-30 12:17:13 | 48.33012 | 12.32198 | 8° | 18km/h | 28737m | 4.9m/s | -47.4°C | 3.1% | 14.8hPa | 2.7V | 00:00:00 | 01:47:25 | 00:00:00 | |
| BAUMI2-15 | 2026-08-30 12:17:09 | 48.32985 | 12.32195 | 352° | 33km/h | 28715m | 5.0m/s | -47.3°C | 3.0% | 14.9hPa | 2.7V | 00:00:00 | 01:47:21 | 00:00:00 | |
| DO3MHA-11 | 2026-08-30 12:17:08 | 48.32979 | 12.32197 | 350° | 35km/h | 28709m | 5.8m/s | -47.4°C | 3.0% | 14.9hPa | 2.7V | 00:00:00 | 01:47:20 | 00:00:00 | |
| OE5DRO-10 | 2026-08-30 12:17:07 | 48.32971 | 12.32199 | 350° | 27km/h | 28703m | 6.8m/s | -47.6°C | 3.1% | 14.9hPa | 2.7V | 00:00:00 | 00:00:00 | 00:00:00 | |
| BAUMI2-15 | 2026-08-30 12:17:04 | 48.32943 | 12.32208 | 345° | 35km/h | 28685m | 6.2m/s | -47.7°C | 3.1% | 14.9hPa | 2.7V | 00:00:00 | 01:47:16 | 00:00:00 | |
| DG1MFX-10 | 2026-08-30 12:17:03 | 48.32934 | 12.32212 | 343° | 37km/h | 28679m | 6.5m/s | -47.7°C | 0.8% | 15.0hPa | 2.7V | 00:00:00 | 00:00:00 | 00:00:00 | |
| DL6DJ-15 | 2026-08-30 12:17:00 | 48.32902 | 12.32226 | 354° | 31km/h | 28655m | 6.1m/s | -47.4°C | 0.7% | 15.1hPa | 2.7V | 00:00:00 | 00:00:00 | 00:00:00 | |
| BAUMI2-15 | 2026-08-30 12:16:59 | 48.32901 | 12.32226 | 355° | 26km/h | 28655m | 6.1m/s | -47.4°C | 3.0% | 15.0hPa | 2.7V | 00:00:00 | 01:47:11 | 00:00:00 | |
| OE5HKT-10 | 2026-08-30 12:16:58 | 48.32894 | 12.32226 | 360° | 27km/h | 28649m | 5.2m/s | -47.4°C | 3.0% | 15.0hPa | 2.7V | 00:00:00 | 00:00:00 | 00:00:00 | |
| DH7VM-15 | 2026-08-30 12:16:56 | 48.32887 | 12.32226 | 2° | 26km/h | 28644m | 6.1m/s | -47.6°C | 0.7% | 15.1hPa | 2.7V | 00:00:00 | 00:00:00 | 00:00:00 | |
| BAUMI2-15 | 2026-08-30 12:16:54 | 48.32872 | 12.32228 | 350° | 29km/h | 28626m | 4.5m/s | -47.6°C | 3.1% | 15.1hPa | 2.7V | 00:00:00 | 01:47:06 | 00:00:00 | |
| OE5MMP-10 | 2026-08-30 12:16:53 | 48.32866 | 12.32229 | 349° | 29km/h | 28621m | 6.6m/s | -47.5°C | 3.1% | 15.1hPa | 2.7V | 00:00:00 | 01:47:05 | 08:30:00 | |
| BAUMI2-15 | 2026-08-30 12:16:49 | 48.32834 | 12.32240 | 342° | 27km/h | 28597m | 6.2m/s | -47.5°C | 3.1% | 15.1hPa | 2.6V | 00:00:00 | 01:47:01 | 08:30:00 | |
| DO3MHA-11 | 2026-08-30 12:16:48 | 48.32827 | 12.32245 | 337° | 24km/h | 28591m | 6.4m/s | -47.4°C | 3.1% | 15.1hPa | 2.6V | 00:00:00 | 01:47:00 | 00:00:00 | |
| OE5MMP-10 | 2026-08-30 12:16:43 | 48.32796 | 12.32258 | 7° | 26km/h | 28562m | 5.4m/s | -47.6°C | 3.0% | 15.2hPa | 2.6V | 00:00:00 | 01:46:55 | 00:00:00 | |
| DG1MFX-10 | 2026-08-30 12:16:41 | 48.32790 | 12.32257 | 10° | 24km/h | 28556m | 5.6m/s | -47.6°C | 0.8% | 15.3hPa | 2.6V | 00:00:00 | 00:00:00 | 00:00:00 | |
| OE5DXL-15 | 2026-08-30 12:16:39 | 48.32774 | 12.32255 | 358° | 26km/h | 28539m | 4.9m/s | -47.4°C | 3.0% | 15.3hPa | 2.6V | 00:00:00 | 00:00:00 | 00:00:00 | |
| DO3MHA-11 | 2026-08-30 12:16:38 | 48.32768 | 12.32256 | 355° | 27km/h | 28533m | 5.9m/s | -47.5°C | 3.0% | 15.3hPa | 2.6V | 00:00:00 | 01:46:50 | 00:00:00 | |
| OE8JPQ-2 | 2026-08-30 12:16:35 | 48.32746 | 12.32260 | 347° | 27km/h | 28516m | 4.1m/s | -47.5°C | 3.0% | 15.3hPa | 2.6V | 00:00:00 | 00:00:00 | 00:00:00 | |
| BAUMI2-15 | 2026-08-30 12:16:33 | 48.32732 | 12.32268 | 330° | 27km/h | 28506m | 6.6m/s | -47.6°C | 3.0% | 15.3hPa | 2.6V | 00:00:00 | 01:46:45 | 00:00:00 | |
| DO3MHA-11 | 2026-08-30 12:16:28 | 48.32705 | 12.32299 | 340° | 20km/h | 28477m | 5.6m/s | -47.9°C | 3.2% | 15.4hPa | 2.6V | 00:00:00 | 01:46:40 | 00:00:00 | |
| OE5MMP-10 | 2026-08-30 12:16:23 | 48.32674 | 12.32305 | 350° | 22km/h | 28449m | 5.6m/s | -47.8°C | 3.1% | 15.5hPa | 2.6V | 00:00:00 | 01:46:35 | 00:00:00 | |
| DG1MFX-10 | 2026-08-30 12:16:21 | 48.32671 | 12.32306 | 338° | 15km/h | 28443m | 5.4m/s | -47.8°C | 0.8% | 15.5hPa | 2.6V | 00:00:00 | 00:00:00 | 00:00:00 | |
| DO3MHA-11 | 2026-08-30 12:16:18 | 48.32653 | 12.32325 | 318° | 26km/h | 28420m | 5.6m/s | -47.9°C | 3.1% | 15.6hPa | 2.6V | 00:00:00 | 01:46:30 | 08:30:00 | |
| OE5MMP-10 | 2026-08-30 12:16:13 | 48.32627 | 12.32350 | 356° | 20km/h | 28390m | 6.3m/s | -47.9°C | 3.1% | 15.6hPa | 2.6V | 00:00:00 | 01:46:25 | 00:00:00 | |
| OE5HKT-10 | 2026-08-30 12:16:12 | 48.32620 | 12.32350 | 8° | 20km/h | 28384m | 5.0m/s | -48.0°C | 3.2% | 15.6hPa | 2.6V | 00:00:00 | 00:00:00 | 00:00:00 | |
| OE5DXL-15 | 2026-08-30 12:16:09 | 48.32603 | 12.32344 | 9° | 20km/h | 28367m | 5.8m/s | -48.0°C | 3.2% | 15.7hPa | 2.6V | 00:00:00 | 00:00:00 | 00:00:00 | |
| OE5FHM-15 | 2026-08-30 12:16:08 | 48.32600 | 12.32344 | 347° | 20km/h | 28362m | 4.9m/s | -48.1°C | 3.2% | 15.7hPa | 2.6V | 00:00:00 | 01:46:20 | 08:30:00 | |
| DO3MHA-11 | 2026-08-30 12:16:07 | 48.32597 | 12.32346 | 329° | 20km/h | 28357m | 5.0m/s | -48.1°C | 3.2% | 15.7hPa | 2.6V | 00:00:00 | 01:46:19 | 00:00:00 | |
| OE5MMP-10 | 2026-08-30 12:16:03 | 48.32581 | 12.32360 | 333° | 22km/h | 28334m | 5.3m/s | -48.0°C | 3.1% | 15.8hPa | 2.6V | 00:00:00 | 01:46:15 | 00:00:00 | |
| DL6DJ-15 | 2026-08-30 12:15:57 | 48.32552 | 12.32382 | 355° | 22km/h | 28299m | 6.4m/s | -48.0°C | 0.8% | 15.9hPa | 2.6V | 00:00:00 | 00:00:00 | 00:00:00 | |
| OE5MMP-10 | 2026-08-30 12:15:53 | 48.32533 | 12.32382 | 351° | 20km/h | 28275m | 5.5m/s | -47.8°C | 3.2% | 15.9hPa | 2.6V | 00:00:00 | 01:46:05 | 00:00:00 | |
| OE5DRO-10 | 2026-08-30 12:15:52 | 48.32530 | 12.32383 | 347° | 18km/h | 28270m | 4.9m/s | -47.9°C | 3.2% | 15.9hPa | 2.7V | 00:00:00 | 00:00:00 | 00:00:00 | |
| DO3MHA-11 | 2026-08-30 12:15:51 | 48.32526 | 12.32384 | 348° | 15km/h | 28264m | 6.7m/s | -47.9°C | 3.2% | 15.9hPa | 2.7V | 00:00:00 | 01:46:03 | 00:00:00 | |
| OE5HKT-10 | 2026-08-30 12:15:48 | 48.32512 | 12.32389 | 342° | 27km/h | 28247m | 6.0m/s | -47.8°C | 3.1% | 16.0hPa | 2.7V | 00:00:00 | 00:00:00 | 00:00:00 | |
| OE5MMP-10 | 2026-08-30 12:15:43 | 48.32484 | 12.32401 | 360° | 20km/h | 28217m | 6.3m/s | -47.7°C | 3.2% | 16.1hPa | 2.7V | 00:00:00 | 01:45:55 | 00:00:00 | |
| PG1ADW-2 | 2026-08-30 12:15:42 | 48.32465 | 12.32399 | 5° | 11km/h | 28200m | 6.8m/s | -47.6°C | 3.2% | 16.1hPa | 2.7V | 00:00:00 | 00:00:00 | 00:00:00 | |
| OE5DXL-15 | 2026-08-30 12:15:39 | 48.32460 | 12.32399 | 359° | 20km/h | 28194m | 5.8m/s | -47.6°C | 3.2% | 16.1hPa | 2.7V | 00:00:00 | 00:00:00 | 00:00:00 | |
| OE5FHM-15 | 2026-08-30 12:15:38 | 48.32457 | 12.32399 | 353° | 20km/h | 28189m | 5.1m/s | -47.6°C | 3.1% | 16.1hPa | 2.7V | 00:00:00 | 01:45:50 | 00:00:00 | |
| OE5MMP-10 | 2026-08-30 12:15:33 | 48.32438 | 12.32406 | 336° | 20km/h | 28160m | 6.7m/s | -47.6°C | 3.1% | 16.2hPa | 2.7V | 00:00:00 | 01:45:45 | 00:00:00 | |
| DO3MHA-11 | 2026-08-30 12:15:32 | 48.32434 | 12.32408 | 332° | 15km/h | 28153m | 5.7m/s | -47.6°C | 3.1% | 16.2hPa | 2.7V | 00:00:00 | 01:45:44 | 00:00:00 | |
| DL6DJ-15 | 2026-08-30 12:15:26 | 48.32400 | 12.32412 | 10° | 22km/h | 28119m | 6.4m/s | -47.9°C | 0.8% | 16.3hPa | 2.6V | 00:00:00 | 00:00:00 | 00:00:00 | |
| OE3JTB-15 | 2026-08-30 12:15:25 | 48.32388 | 12.32410 | 1° | 18km/h | 28102m | 5.6m/s | -47.8°C | 3.2% | 16.3hPa | 2.6V | 00:00:00 | 00:00:00 | 00:00:00 | |
| OE5MMP-10 | 2026-08-30 12:15:23 | 48.32388 | 12.32410 | 1° | 20km/h | 28102m | 5.6m/s | -47.8°C | 3.2% | 16.3hPa | 2.6V | 00:00:00 | 01:45:35 | 08:30:00 | |
| DO3MHA-11 | 2026-08-30 12:15:22 | 48.32385 | 12.32410 | 2° | 15km/h | 28096m | 6.3m/s | -47.8°C | 3.2% | 16.4hPa | 2.7V | 00:00:00 | 01:45:34 | 00:00:00 | |
| DG1MFX-10 | 2026-08-30 12:15:19 | 48.32373 | 12.32412 | 339° | 18km/h | 28079m | 6.2m/s | -47.9°C | 0.8% | 16.4hPa | 2.7V | 00:00:00 | 00:00:00 | 00:00:00 | |
| OE5MMP-10 | 2026-08-30 12:15:13 | 48.32336 | 12.32425 | 8° | 24km/h | 28046m | 4.6m/s | -47.7°C | 3.0% | 16.5hPa | 2.7V | 00:00:00 | 01:45:25 | 00:00:00 | |
| OE5DRO-10 | 2026-08-30 12:15:12 | 48.32321 | 12.32421 | 10° | 31km/h | 28036m | 6.2m/s | -47.7°C | 3.0% | 16.5hPa | 2.7V | 00:00:00 | 00:00:00 | 00:00:00 | |
| DO3MHA-11 | 2026-08-30 12:15:10 | 48.32315 | 12.32420 | 5° | 27km/h | 28030m | 6.1m/s | -47.7°C | 3.1% | 16.5hPa | 2.6V | 00:00:00 | 01:45:22 | 00:00:00 | |
| OE5FHM-15 | 2026-08-30 12:15:08 | 48.32307 | 12.32421 | 343° | 31km/h | 28020m | 4.9m/s | -47.8°C | 3.1% | 16.5hPa | 2.6V | 00:00:00 | 01:45:20 | 00:00:00 | |
| DL6DJ-15 | 2026-08-30 12:14:55 | 48.32208 | 12.32437 | 13° | 24km/h | 27950m | 4.8m/s | -48.0°C | 0.8% | 16.8hPa | 2.6V | 00:00:00 | 00:00:00 | 00:00:00 | |
| OE5MMP-10 | 2026-08-30 12:14:53 | 48.32198 | 12.32435 | 347° | 37km/h | 27941m | 5.0m/s | -48.0°C | 3.2% | 16.8hPa | 2.6V | 00:00:00 | 01:45:05 | 00:00:00 | |
| OE5DRO-10 | 2026-08-30 12:14:52 | 48.32182 | 12.32453 | 320° | 26km/h | 27925m | 4.6m/s | -48.0°C | 3.2% | 16.8hPa | 2.6V | 00:00:00 | 00:00:00 | 00:00:00 | |
| OE5MMP-10 | 2026-08-30 12:14:43 | 48.32112 | 12.32480 | 358° | 24km/h | 27888m | 5.3m/s | -47.8°C | 3.1% | 16.9hPa | 2.6V | 00:00:00 | 01:44:55 | 00:00:00 | |
| OE5FHM-15 | 2026-08-30 12:14:38 | 48.32090 | 12.32494 | 317° | 26km/h | 27861m | 4.8m/s | -47.9°C | 3.0% | 17.0hPa | 2.6V | 00:00:00 | 01:44:50 | 00:00:00 | |
| OE5DXL-15 | 2026-08-30 12:14:37 | 48.32077 | 12.32512 | 316° | 29km/h | 27845m | 6.9m/s | -48.0°C | 3.1% | 17.0hPa | 2.6V | 00:00:00 | 00:00:00 | 00:00:00 | |
| DO3MHA-11 | 2026-08-30 12:14:35 | 48.32077 | 12.32512 | 316° | 27km/h | 27845m | 6.9m/s | -48.0°C | 3.1% | 17.0hPa | 2.6V | 00:00:00 | 01:44:47 | 00:00:00 | |
| OE5MMP-10 | 2026-08-30 12:14:33 | 48.32064 | 12.32531 | 321° | 26km/h | 27833m | 4.9m/s | -47.9°C | 3.1% | 17.0hPa | 2.6V | 00:00:00 | 01:44:45 | 00:00:00 | |
| DO3MHA-11 | 2026-08-30 12:14:25 | 48.32016 | 12.32575 | 325° | 24km/h | 27790m | 6.4m/s | -48.4°C | 3.2% | 17.2hPa | 2.6V | 00:00:00 | 01:44:37 | 00:00:00 | |
| DL6DJ-15 | 2026-08-30 12:14:24 | 48.32010 | 12.32582 | 315° | 15km/h | 27779m | 4.4m/s | -48.4°C | 0.8% | 17.2hPa | 2.6V | 00:00:00 | 00:00:00 | 00:00:00 | |
| OE5MMP-10 | 2026-08-30 12:14:23 | 48.32010 | 12.32582 | 316° | 27km/h | 27779m | 4.3m/s | -48.4°C | 3.2% | 17.2hPa | 2.6V | 00:00:00 | 01:44:35 | 00:00:00 | |
| OE5HKT-10 | 2026-08-30 12:14:21 | 48.32003 | 12.32594 | 311° | 27km/h | 27768m | 6.3m/s | -48.3°C | 3.2% | 17.2hPa | 2.7V | 00:00:00 | 00:00:00 | 00:00:00 | |
| BAUMI2-15 | 2026-08-30 12:14:18 | 48.31986 | 12.32621 | 318° | 27km/h | 27753m | 5.6m/s | -48.5°C | 3.1% | 17.2hPa | 2.6V | 00:00:00 | 01:44:30 | 00:00:00 | |
| DO3MHA-11 | 2026-08-30 12:14:15 | 48.31969 | 12.32642 | 320° | 18km/h | 27738m | 5.3m/s | -48.4°C | 3.1% | 17.3hPa | 2.7V | 00:00:00 | 01:44:27 | 08:30:00 | |
| BAUMI2-15 | 2026-08-30 12:14:13 | 48.31961 | 12.32653 | 319° | 22km/h | 27726m | 5.2m/s | -48.3°C | 3.1% | 17.3hPa | 2.6V | 00:00:00 | 01:44:25 | 00:00:00 | |
| OE5FHM-15 | 2026-08-30 12:14:08 | 48.31944 | 12.32663 | 345° | 13km/h | 27700m | 4.8m/s | -48.7°C | 3.2% | 17.4hPa | 2.6V | 00:00:00 | 01:44:20 | 00:00:00 | |
| DO3MHA-11 | 2026-08-30 12:14:05 | 48.31932 | 12.32679 | 302° | 16km/h | 27683m | 4.2m/s | -48.7°C | 3.2% | 17.5hPa | 2.6V | 00:00:00 | 01:44:17 | 00:00:00 | |
| BAUMI2-15 | 2026-08-30 12:14:04 | 48.31929 | 12.32687 | 296° | 16km/h | 27679m | 4.5m/s | -48.8°C | 3.2% | 17.5hPa | 2.6V | 00:00:00 | 01:44:16 | 00:00:00 | |
| OE5MMP-10 | 2026-08-30 12:14:03 | 48.31927 | 12.32695 | 294° | 15km/h | 27674m | 5.4m/s | -48.9°C | 3.3% | 17.5hPa | 2.6V | 00:00:00 | 01:44:15 | 00:00:00 | |
| DH7VM-15 | 2026-08-30 12:13:59 | 48.31921 | 12.32710 | 314° | 11km/h | 27657m | 5.5m/s | -49.0°C | 0.8% | 17.6hPa | 2.6V | 00:00:00 | 00:00:00 | 00:00:00 | |
| BAUMI2-15 | 2026-08-30 12:13:58 | 48.31917 | 12.32715 | 339° | 13km/h | 27646m | 4.4m/s | -49.0°C | 3.3% | 17.6hPa | 2.6V | 00:00:00 | 01:44:10 | 08:30:00 | |
| DG1MFX-10 | 2026-08-30 12:13:57 | 48.31917 | 12.32715 | 340° | 13km/h | 27646m | 4.5m/s | -49.1°C | 0.9% | 17.6hPa | 2.6V | 00:00:00 | 00:00:00 | 00:00:00 | |
| DO7DH-14 | 2026-08-30 12:13:56 | 48.31910 | 12.32716 | 6° | 13km/h | 27636m | 6.6m/s | -49.0°C | 3.2% | 17.6hPa | 2.6V | 00:00:00 | 01:44:08 | 00:00:00 | |
| DO3MHA-11 | 2026-08-30 12:13:55 | 48.31907 | 12.32715 | 11° | 15km/h | 27630m | 5.5m/s | -49.0°C | 3.2% | 17.6hPa | 2.6V | 00:00:00 | 01:44:07 | 00:00:00 | |
| OE5MMP-10 | 2026-08-30 12:13:53 | 48.31899 | 12.32716 | 341° | 11km/h | 27619m | 5.5m/s | -48.9°C | 3.1% | 17.6hPa | 2.6V | 00:00:00 | 01:44:05 | 08:30:00 | |
| DO3MHA-11 | 2026-08-30 12:13:45 | 48.31889 | 12.32748 | 79° | 4km/h | 27577m | 5.8m/s | -49.2°C | 3.2% | 17.7hPa | 2.7V | 00:00:00 | 01:43:57 | 00:00:00 | |
| OE5MMP-10 | 2026-08-30 12:13:43 | 48.31888 | 12.32747 | 13° | 5km/h | 27566m | 4.9m/s | -49.3°C | 3.3% | 17.8hPa | 2.7V | 00:00:00 | 01:43:55 | 00:00:00 | |
| OE5FHM-15 | 2026-08-30 12:13:38 | 48.31889 | 12.32743 | 165° | 11km/h | 27541m | 4.5m/s | -49.7°C | 3.5% | 17.8hPa | 2.7V | 00:00:00 | 01:43:50 | 00:00:00 | |
| OE5DXL-15 | 2026-08-30 12:13:36 | 48.31890 | 12.32743 | 283° | 13km/h | 27530m | 5.8m/s | -49.8°C | 3.5% | 17.9hPa | 2.7V | 00:00:00 | 00:00:00 | 00:00:00 | |
| DO3MHA-11 | 2026-08-30 12:13:35 | 48.31890 | 12.32744 | 334° | 7km/h | 27525m | 4.6m/s | -49.9°C | 3.5% | 17.9hPa | 2.7V | 00:00:00 | 01:43:47 | 00:00:00 | |
| OE5MMP-10 | 2026-08-30 12:13:33 | 48.31886 | 12.32744 | 24° | 7km/h | 27515m | 6.3m/s | -50.1°C | 3.4% | 17.9hPa | 2.7V | 00:00:00 | 01:43:45 | 00:00:00 | |
| DO3MHA-11 | 2026-08-30 12:13:25 | 48.31872 | 12.32737 | 360° | 13km/h | 27470m | 6.1m/s | -49.7°C | 3.5% | 18.1hPa | 2.7V | 00:00:00 | 01:43:37 | 00:00:00 | |
| OE5MMP-10 | 2026-08-30 12:13:23 | 48.31869 | 12.32737 | 8° | 16km/h | 27460m | 4.7m/s | -49.8°C | 3.5% | 18.1hPa | 2.7V | 00:00:00 | 01:43:35 | 00:00:00 | |
| DO7DH-14 | 2026-08-30 12:13:16 | 48.31845 | 12.32728 | 35° | 26km/h | 27422m | 4.3m/s | -49.7°C | 3.4% | 18.2hPa | 2.6V | 00:00:00 | 01:43:28 | 08:30:00 | |
| DO3MHA-11 | 2026-08-30 12:13:15 | 48.31840 | 12.32723 | 31° | 16km/h | 27417m | 5.6m/s | -49.7°C | 3.4% | 18.2hPa | 2.7V | 00:00:00 | 01:43:27 | 00:00:00 | |
| OE5MMP-10 | 2026-08-30 12:13:13 | 48.31828 | 12.32716 | 15° | 15km/h | 27405m | 5.0m/s | -49.5°C | 3.4% | 18.2hPa | 2.7V | 00:00:00 | 01:43:25 | 00:00:00 | |
| OE5FHM-15 | 2026-08-30 12:13:08 | 48.31812 | 12.32712 | 353° | 22km/h | 27378m | 4.4m/s | -49.4°C | 3.5% | 18.3hPa | 2.7V | 00:00:00 | 01:43:20 | 00:00:00 | |
| DO3MHA-11 | 2026-08-30 12:13:05 | 48.31803 | 12.32716 | 349° | 24km/h | 27362m | 5.6m/s | -49.5°C | 3.4% | 18.4hPa | 2.7V | 00:00:00 | 01:43:17 | 00:00:00 | |
| OE5MMP-10 | 2026-08-30 12:13:03 | 48.31793 | 12.32718 | 359° | 22km/h | 27349m | 6.0m/s | -49.7°C | 3.4% | 18.4hPa | 2.7V | 00:00:00 | 01:43:15 | 00:00:00 | |
| DL6DJ-15 | 2026-08-30 12:12:51 | 48.31723 | 12.32727 | 349° | 31km/h | 27278m | 4.5m/s | -49.4°C | 0.8% | 18.6hPa | 2.7V | 00:00:00 | 00:00:00 | 00:00:00 | |
| OE5MMP-10 | 2026-08-30 12:12:43 | 48.31673 | 12.32745 | 323° | 20km/h | 27240m | 6.1m/s | -49.5°C | 3.4% | 18.7hPa | 2.7V | 00:00:00 | 01:42:55 | 00:00:00 | |
| OE5DRO-10 | 2026-08-30 12:12:42 | 48.31669 | 12.32751 | 318° | 26km/h | 27234m | 5.3m/s | -49.4°C | 3.4% | 18.7hPa | 2.7V | 00:00:00 | 00:00:00 | 00:00:00 | |
| OE5FHM-15 | 2026-08-30 12:12:38 | 48.31655 | 12.32763 | 354° | 27km/h | 27213m | 4.4m/s | -49.6°C | 3.4% | 18.8hPa | 2.7V | 00:00:00 | 01:42:50 | 00:00:00 | |
| PG1ADW-2 | 2026-08-30 12:12:37 | 48.31651 | 12.32764 | 353° | 24km/h | 27207m | 6.5m/s | -49.6°C | 3.4% | 18.8hPa | 2.7V | 00:00:00 | 01:42:49 | 00:00:00 | |
| BAUMI2-15 | 2026-08-30 12:12:34 | 48.31632 | 12.32768 | 351° | 24km/h | 27189m | 6.1m/s | -49.3°C | 3.3% | 18.9hPa | 2.7V | 00:00:00 | 01:42:46 | 00:00:00 | |
| OE5MMP-10 | 2026-08-30 12:12:33 | 48.31625 | 12.32770 | 350° | 24km/h | 27183m | 5.8m/s | -49.3°C | 3.3% | 18.9hPa | 2.7V | 00:00:00 | 01:42:45 | 00:00:00 | |
| BAUMI2-15 | 2026-08-30 12:12:26 | 48.31592 | 12.32805 | 314° | 22km/h | 27143m | 4.9m/s | -49.3°C | 3.4% | 19.0hPa | 2.7V | 00:00:00 | 01:42:38 | 00:00:00 | |
| OE5MMP-10 | 2026-08-30 12:12:23 | 48.31580 | 12.32823 | 317° | 29km/h | 27126m | 6.0m/s | -49.4°C | 3.4% | 19.0hPa | 2.6V | 00:00:00 | 01:42:35 | 08:30:00 | |
| DL6DJ-15 | 2026-08-30 12:12:20 | 48.31557 | 12.32847 | 335° | 24km/h | 27104m | 5.8m/s | -49.4°C | 0.9% | 19.2hPa | 2.6V | 00:00:00 | 00:00:00 | 00:00:00 | |
| OE5MMP-10 | 2026-08-30 12:12:13 | 48.31522 | 12.32884 | 307° | 31km/h | 27071m | 4.7m/s | -49.3°C | 3.3% | 19.2hPa | 2.6V | 00:00:00 | 01:42:25 | 00:00:00 | |
| OE5MMP-10 | 2026-08-30 12:12:03 | 48.31468 | 12.32967 | 322° | 27km/h | 27014m | 5.5m/s | -49.4°C | 3.3% | 19.4hPa | 2.6V | 00:00:00 | 01:42:15 | 00:00:00 | |
| DL6DJ-15 | 2026-08-30 12:11:49 | 48.31395 | 12.33070 | 328° | 26km/h | 26930m | 5.4m/s | -49.5°C | 0.8% | 19.7hPa | 2.6V | 00:00:00 | 00:00:00 | 00:00:00 | |
| OE5MMP-10 | 2026-08-30 12:11:43 | 48.31369 | 12.33098 | 320° | 22km/h | 26903m | 6.1m/s | -49.5°C | 3.4% | 19.7hPa | 2.6V | 00:00:00 | 01:41:55 | 00:00:00 | |
| PG1ADW-2 | 2026-08-30 12:11:37 | 48.31349 | 12.33124 | 327° | 20km/h | 26869m | 4.7m/s | -49.4°C | 3.3% | 19.8hPa | 2.6V | 00:00:00 | 00:00:00 | 00:00:00 | |
| OE5MMP-10 | 2026-08-30 12:11:33 | 48.31325 | 12.33141 | 338° | 18km/h | 26847m | 5.3m/s | -49.6°C | 3.4% | 19.9hPa | 2.6V | 00:00:00 | 01:41:45 | 00:00:00 | |
| DG1MFX-10 | 2026-08-30 12:11:32 | 48.31325 | 12.33141 | 339° | 20km/h | 26847m | 5.4m/s | -49.6°C | 0.9% | 20.0hPa | 2.6V | 00:00:00 | 00:00:00 | 00:00:00 | |
| OE5FHM-15 | 2026-08-30 12:11:31 | 48.31317 | 12.33149 | 319° | 16km/h | 26836m | 6.4m/s | -49.3°C | 3.3% | 19.9hPa | 2.6V | 00:00:00 | 01:41:43 | 08:30:00 | |
| OE5MMP-10 | 2026-08-30 12:11:23 | 48.31298 | 12.33197 | 308° | 18km/h | 26791m | 6.1m/s | -49.3°C | 3.3% | 20.1hPa | 2.7V | 00:00:00 | 01:41:35 | 00:00:00 | |
| OE5DXL-15 | 2026-08-30 12:11:20 | 48.31277 | 12.33227 | 325° | 13km/h | 26763m | 5.0m/s | -49.4°C | 3.3% | 20.1hPa | 2.7V | 00:00:00 | 00:00:00 | 00:00:00 | |
| OE8JPQ-2 | 2026-08-30 12:11:18 | 48.31277 | 12.33227 | 325° | 15km/h | 26763m | 5.0m/s | -49.4°C | 3.3% | 20.1hPa | 2.6V | 00:00:00 | 01:41:30 | 00:00:00 | |
| PG1ADW-2 | 2026-08-30 12:11:15 | 48.31271 | 12.33238 | 289° | 13km/h | 26747m | 5.8m/s | -49.6°C | 3.3% | 20.2hPa | 2.6V | 00:00:00 | 00:00:00 | 00:00:00 | |
| OE5MMP-10 | 2026-08-30 12:11:13 | 48.31269 | 12.33250 | 276° | 13km/h | 26736m | 4.9m/s | -49.5°C | 3.4% | 20.3hPa | 2.6V | 00:00:00 | 01:41:25 | 00:00:00 | |
| DG1MFX-10 | 2026-08-30 12:11:11 | 48.31269 | 12.33256 | 272° | 13km/h | 26731m | 6.4m/s | -49.6°C | 0.9% | 20.3hPa | 2.6V | 00:00:00 | 00:00:00 | 00:00:00 | |
| DO3MHA-11 | 2026-08-30 12:11:10 | 48.31269 | 12.33264 | 269° | 11km/h | 26719m | 4.6m/s | -49.7°C | 3.4% | 20.3hPa | 2.6V | 00:00:00 | 01:41:22 | 08:30:00 | |
| OE5MMP-10 | 2026-08-30 12:11:03 | 48.31263 | 12.33293 | 287° | 11km/h | 26681m | 5.4m/s | -49.6°C | 3.3% | 20.4hPa | 2.6V | 00:00:00 | 01:41:15 | 00:00:00 | |
| DF7PN | 2026-08-30 12:10:56 | 48.31273 | 12.33342 | 248° | 15km/h | 26621m | 4.4m/s | 0°C | -1.0% | -1.0hPa | 2.6V | 00:00:00 | 00:00:00 | 00:00:00 | |
| DL6DJ-15 | 2026-08-30 12:10:46 | 48.31283 | 12.33361 | 240° | 11km/h | 26587m | 5.3m/s | -49.7°C | 0.8% | 20.8hPa | 2.6V | 00:00:00 | 00:00:00 | 00:00:00 | |
| OE5MMP-10 | 2026-08-30 12:10:43 | 48.31288 | 12.33371 | 219° | 9km/h | 26571m | 5.7m/s | -49.6°C | 3.4% | 20.8hPa | 2.6V | 00:00:00 | 01:40:55 | 00:00:00 | |
| DO3MHA-11 | 2026-08-30 12:10:38 | 48.31298 | 12.33385 | 218° | 7km/h | 26545m | 4.2m/s | -49.6°C | 3.4% | 20.9hPa | 2.6V | 00:00:00 | 01:40:50 | 00:00:00 | |
| DO7DH-14 | 2026-08-30 12:10:35 | 48.31303 | 12.33385 | 132° | 15km/h | 26528m | 5.1m/s | -49.6°C | 3.4% | 20.9hPa | 2.7V | 00:00:00 | 01:40:47 | 00:00:00 | |
| OE5MMP-10 | 2026-08-30 12:10:33 | 48.31304 | 12.33383 | 175° | 9km/h | 26517m | 6.3m/s | -49.5°C | 3.4% | 20.9hPa | 2.7V | 00:00:00 | 01:40:45 | 00:00:00 | |
| PG1ADW-2 | 2026-08-30 12:10:32 | 48.31304 | 12.33384 | 257° | 7km/h | 26511m | 5.3m/s | -49.5°C | 3.3% | 21.0hPa | 2.7V | 00:00:00 | 00:00:00 | 00:00:00 | |
| DG1MFX-10 | 2026-08-30 12:10:30 | 48.31305 | 12.33386 | 257° | 9km/h | 26506m | 4.3m/s | -49.6°C | 0.9% | 21.0hPa | 2.7V | 00:00:00 | 00:00:00 | 00:00:00 | |
| DO3MHA-11 | 2026-08-30 12:10:28 | 48.31308 | 12.33395 | 220° | 7km/h | 26490m | 5.2m/s | -49.5°C | 3.5% | 21.0hPa | 2.7V | 00:00:00 | 01:40:40 | 00:00:00 | |
| OE5MMP-10 | 2026-08-30 12:10:23 | 48.31315 | 12.33410 | 257° | 5km/h | 26464m | 4.5m/s | -49.6°C | 3.4% | 21.1hPa | 2.7V | 00:00:00 | 01:40:35 | 00:00:00 | |
| DO3MHA-11 | 2026-08-30 12:10:18 | 48.31316 | 12.33399 | 80° | 4km/h | 26436m | 6.3m/s | -49.5°C | 3.4% | 21.2hPa | 2.6V | 00:00:00 | 01:40:30 | 00:00:00 | |
| BAUMI2-15 | 2026-08-30 12:10:17 | 48.31315 | 12.33398 | 14° | 4km/h | 26430m | 5.7m/s | -49.4°C | 3.3% | 21.2hPa | 2.6V | 00:00:00 | 01:40:29 | 00:00:00 | |
| DL6DJ-15 | 2026-08-30 12:10:16 | 48.31315 | 12.33401 | 260° | 4km/h | 26419m | 5.8m/s | -49.4°C | 0.8% | 21.3hPa | 2.6V | 00:00:00 | 00:00:00 | 00:00:00 | |
| OE5REO-15 | 2026-08-30 12:10:14 | 48.31315 | 12.33401 | 261° | 4km/h | 26419m | 5.8m/s | -49.4°C | 0.8% | 21.3hPa | 2.6V | 00:00:00 | 00:00:00 | 00:00:00 | |
| OE5MMP-10 | 2026-08-30 12:10:13 | 48.31317 | 12.33403 | 219° | 7km/h | 26408m | 5.1m/s | -49.4°C | 3.3% | 21.3hPa | 2.6V | 00:00:00 | 01:40:25 | 00:00:00 | |
| DG1MFX-10 | 2026-08-30 12:10:09 | 48.31319 | 12.33408 | 260° | 5km/h | 26391m | 5.3m/s | -49.4°C | 0.9% | 21.4hPa | 2.6V | 00:00:00 | 00:00:00 | 00:00:00 | |
| DO3MHA-11 | 2026-08-30 12:10:08 | 48.31319 | 12.33410 | 91° | 7km/h | 26382m | 5.5m/s | -49.5°C | 3.3% | 21.4hPa | 2.6V | 00:00:00 | 01:40:20 | 00:00:00 | |
| BAUMI2-15 | 2026-08-30 12:10:05 | 48.31319 | 12.33399 | 83° | 9km/h | 26365m | 4.8m/s | -49.6°C | 3.3% | 21.5hPa | 2.6V | 00:00:00 | 01:40:17 | 00:00:00 | |
| OE5MMP-10 | 2026-08-30 12:10:03 | 48.31317 | 12.33392 | 46° | 5km/h | 26353m | 5.3m/s | -49.5°C | 3.3% | 21.5hPa | 2.6V | 00:00:00 | 01:40:15 | 00:00:00 | |
| BAUMI2-15 | 2026-08-30 12:10:00 | 48.31312 | 12.33388 | 33° | 4km/h | 26337m | 6.0m/s | -49.6°C | 3.4% | 21.5hPa | 2.6V | 00:00:00 | 01:40:12 | 00:00:00 | |
| DO3MHA-11 | 2026-08-30 12:09:58 | 48.31311 | 12.33386 | 109° | 15km/h | 26326m | 4.8m/s | -49.6°C | 3.4% | 21.6hPa | 2.6V | 00:00:00 | 01:40:10 | 00:00:00 | |
| OE5REO-15 | 2026-08-30 12:09:57 | 48.31311 | 12.33386 | 0° | 0km/h | 26326m | 4.8m/s | -49.6°C | 0.9% | 21.6hPa | 2.6V | 00:00:00 | 00:00:00 | 00:00:00 | |
| BAUMI2-15 | 2026-08-30 12:09:55 | 48.31310 | 12.33389 | 319° | 11km/h | 26309m | 5.0m/s | -49.7°C | 3.4% | 21.7hPa | 2.6V | 00:00:00 | 01:40:07 | 00:00:00 | |
| OE5MMP-10 | 2026-08-30 12:09:53 | 48.31306 | 12.33390 | 18° | 13km/h | 26299m | 6.4m/s | -49.8°C | 3.3% | 21.7hPa | 2.6V | 00:00:00 | 01:40:05 | 00:00:00 | |
| PG1ADW-2 | 2026-08-30 12:09:52 | 48.31304 | 12.33388 | 44° | 15km/h | 26293m | 5.4m/s | -49.8°C | 3.3% | 21.7hPa | 2.6V | 00:00:00 | 00:00:00 | 00:00:00 | |
| BAUMI2-15 | 2026-08-30 12:09:50 | 48.31298 | 12.33380 | 43° | 16km/h | 26283m | 5.8m/s | -49.6°C | 3.3% | 21.7hPa | 2.7V | 00:00:00 | 01:40:02 | 08:30:00 | |
| OE8JPQ-2 | 2026-08-30 12:09:49 | 48.31295 | 12.33376 | 34° | 18km/h | 26277m | 6.3m/s | -49.6°C | 3.3% | 21.8hPa | 2.7V | 00:00:00 | 00:00:00 | 00:00:00 | |
| DG1MFX-10 | 2026-08-30 12:09:48 | 48.31295 | 12.33376 | 35° | 18km/h | 26277m | 6.3m/s | -49.6°C | 0.9% | 21.8hPa | 2.6V | 00:00:00 | 00:00:00 | 00:00:00 | |
| BAUMI2-15 | 2026-08-30 12:09:45 | 48.31282 | 12.33364 | 40° | 7km/h | 26254m | 5.5m/s | -49.7°C | 3.3% | 21.8hPa | 2.6V | 00:00:00 | 01:39:57 | 00:00:00 | |
| OE5MMP-10 | 2026-08-30 12:09:43 | 48.31279 | 12.33363 | 341° | 13km/h | 26243m | 6.4m/s | -49.7°C | 3.4% | 21.9hPa | 2.6V | 00:00:00 | 01:39:55 | 00:00:00 | |
| BAUMI2-15 | 2026-08-30 12:09:40 | 48.31274 | 12.33368 | 347° | 15km/h | 26227m | 5.2m/s | -49.7°C | 3.4% | 21.9hPa | 2.6V | 00:00:00 | 01:39:52 | 00:00:00 | |
| BAUMI2-15 | 2026-08-30 12:09:35 | 48.31257 | 12.33354 | 23° | 18km/h | 26199m | 6.3m/s | -50.1°C | 3.3% | 22.0hPa | 2.6V | 00:00:00 | 01:39:47 | 00:00:00 | |
| OE5MMP-10 | 2026-08-30 12:09:33 | 48.31247 | 12.33350 | 8° | 16km/h | 26188m | 4.8m/s | -50.1°C | 3.4% | 22.0hPa | 2.6V | 00:00:00 | 01:39:45 | 00:00:00 | |
| OE5FHM-15 | 2026-08-30 12:09:32 | 48.31243 | 12.33349 | 9° | 20km/h | 26183m | 5.4m/s | -50.1°C | 3.4% | 22.1hPa | 2.6V | 00:00:00 | 01:39:44 | 00:00:00 | |
| OE5WHR-10 | 2026-08-30 12:09:31 | 48.31239 | 12.33348 | 18° | 16km/h | 26178m | 5.5m/s | -50.1°C | 3.4% | 22.1hPa | 2.6V | 00:00:00 | 00:00:00 | 08:30:00 | |
| OE5REO-15 | 2026-08-30 12:09:30 | 48.31236 | 12.33346 | 28° | 15km/h | 26173m | 5.0m/s | -50.1°C | 0.9% | 22.2hPa | 2.7V | 00:00:00 | 00:00:00 | 00:00:00 | |
| DG1MFX-10 | 2026-08-30 12:09:29 | 48.31232 | 12.33343 | 26° | 15km/h | 26168m | 4.1m/s | -50.1°C | 0.9% | 22.2hPa | 2.7V | 00:00:00 | 00:00:00 | 00:00:00 | |
| OE3JTB-15 | 2026-08-30 12:09:28 | 48.31229 | 12.33341 | 15° | 18km/h | 26163m | 5.1m/s | -50.1°C | 3.5% | 22.1hPa | 2.7V | 00:00:00 | 00:00:00 | 00:00:00 | |
| BAUMI2-15 | 2026-08-30 12:09:24 | 48.31215 | 12.33348 | 331° | 18km/h | 26140m | 5.1m/s | -50.1°C | 3.5% | 22.2hPa | 2.7V | 00:00:00 | 01:39:36 | 00:00:00 | |
| OE5MMP-10 | 2026-08-30 12:09:23 | 48.31211 | 12.33350 | 342° | 20km/h | 26134m | 6.2m/s | -50.2°C | 3.5% | 22.3hPa | 2.7V | 00:00:00 | 01:39:35 | 08:30:00 | |
| OE8JPQ-2 | 2026-08-30 12:09:19 | 48.31192 | 12.33355 | 341° | 20km/h | 26113m | 6.1m/s | -50.3°C | 3.5% | 22.3hPa | 2.7V | 00:00:00 | 00:00:00 | 00:00:00 | |
| BAUMI2-15 | 2026-08-30 12:09:18 | 48.31187 | 12.33358 | 335° | 20km/h | 26107m | 5.0m/s | -50.3°C | 3.5% | 22.4hPa | 2.7V | 00:00:00 | 01:39:30 | 00:00:00 | |
| OE5MMP-10 | 2026-08-30 12:09:13 | 48.31166 | 12.33370 | 350° | 22km/h | 26081m | 4.2m/s | -50.0°C | 3.4% | 22.4hPa | 2.6V | 00:00:00 | 01:39:25 | 00:00:00 | |
| PG1ADW-2 | 2026-08-30 12:09:12 | 48.31163 | 12.33371 | 335° | 22km/h | 26077m | 5.7m/s | -50.0°C | 3.5% | 22.4hPa | 2.6V | 00:00:00 | 00:00:00 | 00:00:00 | |
| BAUMI2-15 | 2026-08-30 12:09:08 | 48.31151 | 12.33390 | 317° | 29km/h | 26053m | 5.8m/s | -49.9°C | 3.4% | 22.5hPa | 2.6V | 00:00:00 | 01:39:20 | 00:00:00 | |
| OE5WHR-10 | 2026-08-30 12:09:05 | 48.31135 | 12.33410 | 318° | 18km/h | 26037m | 6.6m/s | -49.9°C | 3.4% | 22.6hPa | 2.6V | 00:00:00 | 00:00:00 | 00:00:00 | |
| OE5MMP-10 | 2026-08-30 12:09:03 | 48.31123 | 12.33427 | 316° | 20km/h | 26026m | 4.2m/s | -49.9°C | 3.4% | 22.6hPa | 2.6V | 00:00:00 | 01:39:15 | 00:00:00 | |
| OE5FHM-15 | 2026-08-30 12:09:02 | 48.31118 | 12.33435 | 317° | 18km/h | 26021m | 6.1m/s | -50.1°C | 3.4% | 22.6hPa | 2.6V | 00:00:00 | 01:39:14 | 00:00:00 | |
| OE8JPQ-2 | 2026-08-30 12:08:59 | 48.31108 | 12.33450 | 307° | 18km/h | 26004m | 5.1m/s | -50.0°C | 3.5% | 22.7hPa | 2.6V | 00:00:00 | 01:39:11 | 00:00:00 | |
| OE5MMP-10 | 2026-08-30 12:08:53 | 48.31093 | 12.33486 | 320° | 18km/h | 25970m | 4.4m/s | -50.5°C | 3.5% | 22.8hPa | 2.6V | 00:00:00 | 01:39:05 | 00:00:00 | |
| DK5PH-5 | 2026-08-30 12:08:52 | 48.31088 | 12.33491 | 322° | 16km/h | 25965m | 6.1m/s | -50.5°C | 3.5% | 22.8hPa | 2.7V | 00:00:00 | 01:39:04 | 00:00:00 | |
| OE3JTB-15 | 2026-08-30 12:08:49 | 48.31074 | 12.33507 | 328° | 16km/h | 25949m | 5.5m/s | -50.3°C | 3.4% | 22.9hPa | 2.7V | 00:00:00 | 01:39:01 | 00:00:00 | |
| DG1MFX-10 | 2026-08-30 12:08:48 | 48.31074 | 12.33507 | 328° | 22km/h | 25949m | 5.5m/s | -50.3°C | 0.9% | 23.0hPa | 2.7V | 00:00:00 | 00:00:00 | 00:00:00 | |
| OE5MMP-10 | 2026-08-30 12:08:43 | 48.31059 | 12.33525 | 291° | 16km/h | 25917m | 5.1m/s | -50.2°C | 3.5% | 23.0hPa | 2.7V | 00:00:00 | 01:38:55 | 00:00:00 | |
| OE5WHR-10 | 2026-08-30 12:08:42 | 48.31057 | 12.33531 | 290° | 16km/h | 25912m | 4.4m/s | -50.3°C | 3.5% | 23.0hPa | 2.7V | 00:00:00 | 01:38:54 | 00:00:00 | |
| OE8JPQ-2 | 2026-08-30 12:08:38 | 48.31051 | 12.33549 | 323° | 16km/h | 25891m | 4.6m/s | -50.6°C | 3.6% | 23.1hPa | 2.7V | 00:00:00 | 00:00:00 | 00:00:00 | |
| DO7DH-14 | 2026-08-30 12:08:35 | 48.31041 | 12.33562 | 317° | 13km/h | 25875m | 4.8m/s | -50.5°C | 3.6% | 23.2hPa | 2.7V | 00:00:00 | 01:38:47 | 00:00:00 | |
| OE5MMP-10 | 2026-08-30 12:08:33 | 48.31033 | 12.33573 | 320° | 16km/h | 25865m | 5.9m/s | -50.5°C | 3.5% | 23.2hPa | 2.7V | 00:00:00 | 01:38:45 | 00:00:00 | |
| PG1ADW-2 | 2026-08-30 12:08:32 | 48.31029 | 12.33577 | 322° | 18km/h | 25860m | 5.8m/s | -50.4°C | 3.5% | 23.2hPa | 2.7V | 00:00:00 | 00:00:00 | 00:00:00 | |
| OE5FHM-15 | 2026-08-30 12:08:30 | 48.31024 | 12.33586 | 304° | 16km/h | 25849m | 4.7m/s | -50.2°C | 3.4% | 23.3hPa | 2.7V | 00:00:00 | 01:38:42 | 00:00:00 | |
| OE5DXL-15 | 2026-08-30 12:08:29 | 48.31022 | 12.33591 | 290° | 16km/h | 25844m | 5.9m/s | -50.3°C | 3.4% | 23.3hPa | 2.7V | 00:00:00 | 00:00:00 | 00:00:00 | |
| DG1MFX-10 | 2026-08-30 12:08:27 | 48.31021 | 12.33597 | 280° | 18km/h | 25839m | 5.9m/s | -50.4°C | 0.9% | 23.4hPa | 2.7V | 00:00:00 | 00:00:00 | 00:00:00 | |
| OE5MMP-10 | 2026-08-30 12:08:23 | 48.31019 | 12.33628 | 291° | 18km/h | 25811m | 4.9m/s | -50.3°C | 3.5% | 23.4hPa | 2.7V | 00:00:00 | 01:38:35 | 00:00:00 | |
| OE5WHR-10 | 2026-08-30 12:08:21 | 48.31015 | 12.33639 | 301° | 22km/h | 25800m | 5.5m/s | -50.2°C | 3.5% | 23.4hPa | 2.7V | 00:00:00 | 00:00:00 | 00:00:00 | |
| DK5PH-5 | 2026-08-30 12:08:20 | 48.31012 | 12.33645 | 309° | 18km/h | 25794m | 5.1m/s | -50.2°C | 3.4% | 23.5hPa | 2.6V | 00:00:00 | 01:38:32 | 08:30:00 | |
| OE5MMP-10 | 2026-08-30 12:08:13 | 48.30992 | 12.33688 | 285° | 15km/h | 25755m | 5.3m/s | -50.5°C | 3.4% | 23.6hPa | 2.7V | 00:00:00 | 01:38:25 | 00:00:00 | |
| PG1ADW-2 | 2026-08-30 12:08:12 | 48.30991 | 12.33695 | 281° | 18km/h | 25749m | 6.4m/s | -50.6°C | 3.5% | 23.6hPa | 2.7V | 00:00:00 | 01:38:24 | 00:00:00 | |
| DL6DJ-15 | 2026-08-30 12:08:11 | 48.30990 | 12.33702 | 275° | 15km/h | 25743m | 4.8m/s | -50.7°C | 0.9% | 23.7hPa | 2.7V | 00:00:00 | 00:00:00 | 00:00:00 | |
| DG1MFX-10 | 2026-08-30 12:08:07 | 48.30989 | 12.33719 | 279° | 15km/h | 25727m | 5.3m/s | -50.7°C | 0.9% | 23.8hPa | 2.7V | 00:00:00 | 00:00:00 | 00:00:00 | |
| DO3MHA-11 | 2026-08-30 12:08:06 | 48.30988 | 12.33728 | 299° | 15km/h | 25716m | 6.5m/s | -50.9°C | 3.6% | 23.8hPa | 2.7V | 00:00:00 | 01:38:18 | 00:00:00 | |
| OE3JTB-15 | 2026-08-30 12:08:05 | 48.30986 | 12.33731 | 321° | 18km/h | 25710m | 6.0m/s | -51.0°C | 3.6% | 23.8hPa | 2.7V | 00:00:00 | 00:00:00 | 08:30:00 | |
| OE5MMP-10 | 2026-08-30 12:08:03 | 48.30982 | 12.33736 | 311° | 22km/h | 25700m | 4.2m/s | -51.0°C | 3.5% | 23.8hPa | 2.7V | 00:00:00 | 01:38:15 | 00:00:00 | |
| OE5DXL-15 | 2026-08-30 12:08:00 | 48.30977 | 12.33756 | 283° | 15km/h | 25684m | 5.0m/s | -51.2°C | 3.6% | 23.9hPa | 2.7V | 00:00:00 | 00:00:00 | 08:30:00 | |
| OE5FHM-15 | 2026-08-30 12:07:58 | 48.30975 | 12.33777 | 277° | 16km/h | 25673m | 6.2m/s | -50.9°C | 3.6% | 23.9hPa | 2.7V | 00:00:00 | 01:38:10 | 00:00:00 | |
| OE5WHR-10 | 2026-08-30 12:07:56 | 48.30974 | 12.33795 | 269° | 18km/h | 25662m | 4.6m/s | -51.0°C | 3.6% | 24.0hPa | 2.7V | 00:00:00 | 00:00:00 | 00:00:00 | |
| DO3MHA-11 | 2026-08-30 12:07:54 | 48.30975 | 12.33808 | 267° | 20km/h | 25652m | 5.9m/s | -51.1°C | 3.7% | 24.0hPa | 2.7V | 00:00:00 | 01:38:06 | 08:30:00 | |
| OE5MMP-10 | 2026-08-30 12:07:53 | 48.30975 | 12.33816 | 270° | 18km/h | 25646m | 5.3m/s | -51.0°C | 3.7% | 24.0hPa | 2.6V | 00:00:00 | 01:38:05 | 08:30:00 | |
| PG1ADW-2 | 2026-08-30 12:07:52 | 48.30975 | 12.33822 | 276° | 16km/h | 25641m | 4.9m/s | -50.9°C | 3.6% | 24.0hPa | 2.6V | 00:00:00 | 00:00:00 | 00:00:00 | |
| DK5PH-5 | 2026-08-30 12:07:50 | 48.30973 | 12.33834 | 286° | 15km/h | 25629m | 6.4m/s | -51.0°C | 3.6% | 24.1hPa | 2.6V | 00:00:00 | 01:38:02 | 00:00:00 | |
| DG1MFX-10 | 2026-08-30 12:07:46 | 48.30972 | 12.33847 | 269° | 16km/h | 25614m | 6.3m/s | -51.0°C | 1.0% | 24.2hPa | 2.6V | 00:00:00 | 00:00:00 | 00:00:00 | |
| OE5MMP-10 | 2026-08-30 12:07:43 | 48.30978 | 12.33883 | 252° | 16km/h | 25590m | 6.4m/s | -51.0°C | 3.5% | 24.2hPa | 2.6V | 00:00:00 | 01:37:55 | 00:00:00 | |
| DO3MHA-11 | 2026-08-30 12:07:42 | 48.30980 | 12.33891 | 251° | 11km/h | 25585m | 5.2m/s | -50.9°C | 3.5% | 24.2hPa | 2.6V | 00:00:00 | 01:37:54 | 00:00:00 | |
| OE8JPQ-2 | 2026-08-30 12:07:38 | 48.30981 | 12.33918 | 284° | 13km/h | 25563m | 5.4m/s | -50.8°C | 3.5% | 24.3hPa | 2.6V | 00:00:00 | 00:00:00 | 08:30:00 | |
| OE5WHR-10 | 2026-08-30 12:07:35 | 48.30977 | 12.33934 | 299° | 13km/h | 25546m | 5.7m/s | -50.8°C | 3.5% | 24.4hPa | 2.6V | 00:00:00 | 01:37:47 | 00:00:00 | |
| OE3JTB-15 | 2026-08-30 12:07:34 | 48.30976 | 12.33936 | 292° | 13km/h | 25541m | 3.8m/s | -50.8°C | 3.5% | 24.4hPa | 2.6V | 00:00:00 | 00:00:00 | 00:00:00 | |
| OE5MMP-10 | 2026-08-30 12:07:33 | 48.30976 | 12.33939 | 280° | 13km/h | 25536m | 5.1m/s | -50.9°C | 3.6% | 24.4hPa | 2.6V | 00:00:00 | 01:37:45 | 00:00:00 | |
| DO3MHA-11 | 2026-08-30 12:07:32 | 48.30975 | 12.33943 | 273° | 13km/h | 25531m | 6.5m/s | -51.0°C | 3.6% | 24.5hPa | 2.6V | 00:00:00 | 01:37:44 | 00:00:00 | |
| OE5FHM-15 | 2026-08-30 12:07:28 | 48.30975 | 12.33967 | 280° | 13km/h | 25508m | 6.2m/s | -51.0°C | 3.6% | 24.5hPa | 2.6V | 00:00:00 | 01:37:40 | 00:00:00 | |
| DG1MFX-10 | 2026-08-30 12:07:26 | 48.30974 | 12.33971 | 297° | 9km/h | 25502m | 5.4m/s | -51.1°C | 0.9% | 24.6hPa | 2.6V | 00:00:00 | 00:00:00 | 00:00:00 | |
| OE5MMP-10 | 2026-08-30 12:07:23 | 48.30967 | 12.33982 | 316° | 13km/h | 25481m | 5.0m/s | -51.1°C | 3.6% | 24.7hPa | 2.6V | 00:00:00 | 01:37:35 | 00:00:00 | |
| DO3MHA-11 | 2026-08-30 12:07:22 | 48.30964 | 12.33985 | 324° | 13km/h | 25475m | 4.9m/s | -51.0°C | 3.5% | 24.7hPa | 2.6V | 00:00:00 | 01:37:34 | 00:00:00 | |
| DK5PH-5 | 2026-08-30 12:07:20 | 48.30959 | 12.33989 | 339° | 13km/h | 25464m | 4.9m/s | -51.1°C | 3.5% | 24.7hPa | 2.6V | 00:00:00 | 01:37:32 | 00:00:00 | |
| OE5MMP-10 | 2026-08-30 12:07:14 | 48.30941 | 12.34012 | 338° | 13km/h | 25427m | 5.1m/s | -51.5°C | 3.7% | 24.9hPa | 2.6V | 00:00:00 | 01:37:25 | 00:00:00 | |
| OE5REO-15 | 2026-08-30 12:07:13 | 48.30941 | 12.34012 | 339° | 13km/h | 25427m | 5.2m/s | -51.5°C | 0.9% | 24.9hPa | 2.6V | 00:00:00 | 00:00:00 | 00:00:00 | |
| DO3MHA-11 | 2026-08-30 12:07:12 | 48.30938 | 12.34014 | 341° | 13km/h | 25422m | 4.8m/s | -51.4°C | 3.7% | 24.9hPa | 2.6V | 00:00:00 | 01:37:24 | 00:00:00 | |
| OE8JPQ-2 | 2026-08-30 12:07:11 | 48.30936 | 12.34015 | 334° | 11km/h | 25416m | 5.9m/s | -51.3°C | 3.7% | 24.9hPa | 2.6V | 00:00:00 | 00:00:00 | 00:00:00 | |
| DG1MFX-10 | 2026-08-30 12:07:06 | 48.30929 | 12.34029 | 301° | 11km/h | 25395m | 5.9m/s | -51.5°C | 1.0% | 25.1hPa | 2.6V | 00:00:00 | 00:00:00 | 00:00:00 | |
| OE3JTB-15 | 2026-08-30 12:07:05 | 48.30925 | 12.34035 | 309° | 15km/h | 25384m | 4.7m/s | -51.3°C | 3.6% | 25.0hPa | 2.6V | 00:00:00 | 01:37:17 | 00:00:00 | |
| OE5MMP-10 | 2026-08-30 12:07:03 | 48.30921 | 12.34045 | 306° | 13km/h | 25372m | 5.2m/s | -51.4°C | 3.7% | 25.1hPa | 2.6V | 00:00:00 | 01:37:15 | 00:00:00 | |
| DO3MHA-11 | 2026-08-30 12:07:02 | 48.30918 | 12.34050 | 308° | 13km/h | 25367m | 4.7m/s | -51.5°C | 3.7% | 25.1hPa | 2.6V | 00:00:00 | 01:37:14 | 00:00:00 | |
| OE5FHM-15 | 2026-08-30 12:06:58 | 48.30910 | 12.34063 | 302° | 15km/h | 25346m | 5.7m/s | -51.3°C | 3.7% | 25.2hPa | 2.6V | 00:00:00 | 01:37:10 | 00:00:00 | |
| OE5MMP-10 | 2026-08-30 12:06:53 | 48.30906 | 12.34084 | 289° | 15km/h | 25317m | 5.0m/s | -51.2°C | 3.6% | 25.3hPa | 2.6V | 00:00:00 | 01:37:05 | 00:00:00 | |
| DO3MHA-11 | 2026-08-30 12:06:52 | 48.30905 | 12.34089 | 292° | 15km/h | 25312m | 5.8m/s | -51.3°C | 3.6% | 25.3hPa | 2.7V | 00:00:00 | 01:37:04 | 00:00:00 | |
| OE5WHR-10 | 2026-08-30 12:06:51 | 48.30903 | 12.34094 | 292° | 15km/h | 25306m | 6.0m/s | -51.4°C | 3.6% | 25.3hPa | 2.7V | 00:00:00 | 00:00:00 | 00:00:00 | |
| DK5PH-5 | 2026-08-30 12:06:50 | 48.30902 | 12.34100 | 292° | 15km/h | 25301m | 4.7m/s | -51.2°C | 3.5% | 25.4hPa | 2.7V | 00:00:00 | 01:37:02 | 00:00:00 | |
| DG1MFX-10 | 2026-08-30 12:06:46 | 48.30898 | 12.34116 | 277° | 11km/h | 25285m | 4.7m/s | -51.3°C | 0.9% | 25.5hPa | 2.6V | 00:00:00 | 00:00:00 | 00:00:00 | |
| OE5MMP-10 | 2026-08-30 12:06:43 | 48.30901 | 12.34138 | 253° | 16km/h | 25263m | 4.5m/s | -51.2°C | 3.6% | 25.5hPa | 2.6V | 00:00:00 | 01:36:55 | 00:00:00 | |
| DO3MHA-11 | 2026-08-30 12:06:42 | 48.30903 | 12.34146 | 251° | 15km/h | 25258m | 4.9m/s | -51.1°C | 3.6% | 25.5hPa | 2.6V | 00:00:00 | 01:36:54 | 00:00:00 | |
| DL6DJ-15 | 2026-08-30 12:06:38 | 48.30905 | 12.34173 | 290° | 16km/h | 25230m | 5.6m/s | -51.2°C | 0.9% | 25.7hPa | 2.6V | 00:00:00 | 00:00:00 | 00:00:00 | |
| OE5REO-15 | 2026-08-30 12:06:34 | 48.30901 | 12.34185 | 294° | 16km/h | 25220m | 5.6m/s | -51.4°C | 0.9% | 25.7hPa | 2.6V | 00:00:00 | 00:00:00 | 00:00:00 | |
| OE5MMP-10 | 2026-08-30 12:06:33 | 48.30899 | 12.34194 | 283° | 13km/h | 25208m | 4.6m/s | -51.4°C | 3.5% | 25.7hPa | 2.6V | 00:00:00 | 01:36:45 | 00:00:00 | |
| DO3MHA-11 | 2026-08-30 12:06:32 | 48.30899 | 12.34198 | 276° | 13km/h | 25204m | 4.9m/s | -51.5°C | 3.6% | 25.7hPa | 2.6V | 00:00:00 | 01:36:44 | 00:00:00 | |
| OE8JPQ-2 | 2026-08-30 12:06:31 | 48.30899 | 12.34202 | 272° | 11km/h | 25198m | 6.1m/s | -51.5°C | 3.6% | 25.8hPa | 2.6V | 00:00:00 | 00:00:00 | 00:00:00 | |
| DH7VM-15 | 2026-08-30 12:06:30 | 48.30899 | 12.34207 | 267° | 16km/h | 25193m | 5.2m/s | -51.6°C | 0.9% | 25.9hPa | 2.7V | 00:00:00 | 00:00:00 | 00:00:00 | |
| OE5FHM-15 | 2026-08-30 12:06:28 | 48.30900 | 12.34219 | 251° | 11km/h | 25182m | 5.8m/s | -51.8°C | 3.7% | 25.8hPa | 2.7V | 00:00:00 | 01:36:40 | 00:00:00 | |
| DG1MFX-10 | 2026-08-30 12:06:25 | 48.30903 | 12.34228 | 236° | 13km/h | 25171m | 4.8m/s | -51.8°C | 1.0% | 25.9hPa | 2.7V | 00:00:00 | 00:00:00 | 00:00:00 | |
| OE5MMP-10 | 2026-08-30 12:06:23 | 48.30906 | 12.34240 | 287° | 9km/h | 25155m | 4.7m/s | -51.8°C | 3.7% | 26.0hPa | 2.7V | 00:00:00 | 01:36:35 | 08:30:00 | |
| DO3MHA-11 | 2026-08-30 12:06:22 | 48.30904 | 12.34244 | 306° | 9km/h | 25150m | 5.3m/s | -51.9°C | 3.7% | 25.9hPa | 2.6V | 00:00:00 | 01:36:34 | 08:30:00 | |
| DK5PH-5 | 2026-08-30 12:06:20 | 48.30901 | 12.34248 | 343° | 11km/h | 25138m | 5.1m/s | -51.9°C | 3.7% | 26.0hPa | 2.6V | 00:00:00 | 01:36:32 | 00:00:00 | |
| OE5DXL-15 | 2026-08-30 12:06:17 | 48.30893 | 12.34254 | 314° | 13km/h | 25122m | 5.1m/s | -52.0°C | 3.7% | 26.1hPa | 2.6V | 00:00:00 | 00:00:00 | 00:00:00 | |
| BAUMI2-15 | 2026-08-30 12:06:16 | 48.30892 | 12.34257 | 293° | 9km/h | 25117m | 5.1m/s | -52.0°C | 3.7% | 26.1hPa | 2.6V | 00:00:00 | 01:36:28 | 00:00:00 | |
| OE5MMP-10 | 2026-08-30 12:06:13 | 48.30895 | 12.34265 | 212° | 11km/h | 25100m | 4.8m/s | -52.0°C | 3.7% | 26.2hPa | 2.6V | 00:00:00 | 01:36:25 | 00:00:00 | |
| DO3MHA-11 | 2026-08-30 12:06:12 | 48.30897 | 12.34268 | 220° | 11km/h | 25095m | 5.8m/s | -52.0°C | 3.8% | 26.2hPa | 2.6V | 00:00:00 | 01:36:24 | 00:00:00 | |
| BAUMI2-15 | 2026-08-30 12:06:11 | 48.30899 | 12.34271 | 236° | 11km/h | 25089m | 5.8m/s | -52.0°C | 3.8% | 26.2hPa | 2.6V | 00:00:00 | 01:36:23 | 00:00:00 | |
| OE5WHR-10 | 2026-08-30 12:06:09 | 48.30901 | 12.34279 | 265° | 13km/h | 25078m | 5.2m/s | -52.0°C | 3.8% | 26.2hPa | 2.6V | 00:00:00 | 00:00:00 | 08:30:00 | |
| DL6DJ-15 | 2026-08-30 12:06:07 | 48.30898 | 12.34287 | 321° | 11km/h | 25062m | 5.1m/s | -52.0°C | 0.9% | 26.4hPa | 2.7V | 00:00:00 | 00:00:00 | 00:00:00 | |
| BAUMI2-15 | 2026-08-30 12:06:06 | 48.30898 | 12.34287 | 322° | 13km/h | 25062m | 5.1m/s | -51.9°C | 3.7% | 26.3hPa | 2.7V | 00:00:00 | 01:36:18 | 00:00:00 | |
| DG1MFX-10 | 2026-08-30 12:06:04 | 48.30896 | 12.34290 | 318° | 13km/h | 25057m | 6.3m/s | -52.0°C | 1.0% | 26.4hPa | 2.6V | 00:00:00 | 00:00:00 | 00:00:00 | |
| OE5MMP-10 | 2026-08-30 12:06:03 | 48.30890 | 12.34298 | 316° | 13km/h | 25046m | 5.1m/s | -51.9°C | 3.7% | 26.4hPa | 2.6V | 00:00:00 | 01:36:15 | 00:00:00 | |
| DO3MHA-11 | 2026-08-30 12:06:02 | 48.30888 | 12.34301 | 316° | 13km/h | 25040m | 6.2m/s | -51.9°C | 3.7% | 26.4hPa | 2.6V | 00:00:00 | 01:36:14 | 00:00:00 | |
| OE5FHM-15 | 2026-08-30 12:05:58 | 48.30887 | 12.34317 | 252° | 15km/h | 25018m | 5.3m/s | -52.0°C | 3.8% | 26.5hPa | 2.6V | 00:00:00 | 01:36:10 | 08:30:00 | |
| BAUMI2-15 | 2026-08-30 12:05:55 | 48.30891 | 12.34336 | 259° | 15km/h | 25003m | 6.0m/s | -52.0°C | 3.7% | 26.6hPa | 2.6V | 00:00:00 | 01:36:07 | 00:00:00 | |
| OE5MMP-10 | 2026-08-30 12:05:53 | 48.30891 | 12.34344 | 292° | 16km/h | 24992m | 4.2m/s | -52.0°C | 3.7% | 26.6hPa | 2.6V | 00:00:00 | 01:36:05 | 00:00:00 | |
| DO3MHA-11 | 2026-08-30 12:05:52 | 48.30890 | 12.34348 | 301° | 18km/h | 24988m | 5.4m/s | -52.1°C | 3.7% | 26.6hPa | 2.6V | 00:00:00 | 01:36:04 | 00:00:00 | |
| OE8JPQ-2 | 2026-08-30 12:05:51 | 48.30888 | 12.34353 | 299° | 16km/h | 24982m | 6.1m/s | -52.2°C | 3.8% | 26.6hPa | 2.7V | 00:00:00 | 01:36:03 | 00:00:00 | |
| DK5PH-5 | 2026-08-30 12:05:50 | 48.30886 | 12.34360 | 295° | 15km/h | 24976m | 4.9m/s | -52.2°C | 3.8% | 26.7hPa | 2.7V | 00:00:00 | 01:36:02 | 00:00:00 | |
| BAUMI2-15 | 2026-08-30 12:05:49 | 48.30883 | 12.34367 | 295° | 18km/h | 24971m | 4.6m/s | -52.3°C | 3.9% | 26.7hPa | 2.7V | 00:00:00 | 01:36:01 | 00:00:00 | |
| OE5WHR-10 | 2026-08-30 12:05:48 | 48.30881 | 12.34374 | 296° | 15km/h | 24966m | 5.4m/s | -52.2°C | 3.8% | 26.7hPa | 2.6V | 00:00:00 | 00:00:00 | 00:00:00 | |
| OE5DXL-15 | 2026-08-30 12:05:47 | 48.30879 | 12.34380 | 297° | 13km/h | 24961m | 5.7m/s | -52.2°C | 3.8% | 26.7hPa | 2.6V | 00:00:00 | 00:00:00 | 00:00:00 | |
| BAUMI2-15 | 2026-08-30 12:05:44 | 48.30876 | 12.34398 | 273° | 16km/h | 24945m | 6.1m/s | -52.2°C | 3.8% | 26.8hPa | 2.6V | 00:00:00 | 01:35:56 | 00:00:00 | |
| OE5MMP-10 | 2026-08-30 12:05:43 | 48.30876 | 12.34405 | 266° | 16km/h | 24939m | 4.7m/s | -52.1°C | 3.7% | 26.8hPa | 2.6V | 00:00:00 | 01:35:55 | 00:00:00 | |
| DO3MHA-11 | 2026-08-30 12:05:42 | 48.30876 | 12.34412 | 264° | 16km/h | 24934m | 4.0m/s | -52.2°C | 3.8% | 26.9hPa | 2.6V | 00:00:00 | 01:35:54 | 00:00:00 | |
| BAUMI2-15 | 2026-08-30 12:05:39 | 48.30876 | 12.34429 | 290° | 16km/h | 24919m | 4.6m/s | -52.2°C | 3.8% | 26.9hPa | 2.6V | 00:00:00 | 01:35:51 | 00:00:00 | |
| DL6DJ-15 | 2026-08-30 12:05:36 | 48.30871 | 12.34455 | 280° | 18km/h | 24898m | 4.6m/s | -52.3°C | 1.0% | 27.1hPa | 2.6V | 00:00:00 | 00:00:00 | 00:00:00 | |
| BAUMI2-15 | 2026-08-30 12:05:34 | 48.30870 | 12.34461 | 279° | 11km/h | 24893m | 5.1m/s | -52.3°C | 3.8% | 27.0hPa | 2.6V | 00:00:00 | 01:35:46 | 08:30:00 | |
| OE5MMP-10 | 2026-08-30 12:05:33 | 48.30869 | 12.34466 | 274° | 11km/h | 24887m | 6.1m/s | -52.3°C | 3.8% | 27.0hPa | 2.7V | 00:00:00 | 01:35:45 | 00:00:00 | |
| DO3MHA-11 | 2026-08-30 12:05:32 | 48.30869 | 12.34470 | 263° | 11km/h | 24881m | 5.0m/s | -52.3°C | 3.8% | 27.1hPa | 2.7V | 00:00:00 | 01:35:44 | 00:00:00 | |
| OE8JPQ-2 | 2026-08-30 12:05:31 | 48.30870 | 12.34473 | 248° | 11km/h | 24876m | 4.9m/s | -52.3°C | 3.7% | 27.1hPa | 2.7V | 00:00:00 | 00:00:00 | 00:00:00 | |
| BAUMI2-15 | 2026-08-30 12:05:29 | 48.30871 | 12.34479 | 252° | 13km/h | 24865m | 5.1m/s | -52.3°C | 3.8% | 27.1hPa | 2.6V | 00:00:00 | 01:35:41 | 00:00:00 | |
| OE5FHM-15 | 2026-08-30 12:05:28 | 48.30872 | 12.34482 | 256° | 13km/h | 24860m | 4.5m/s | -52.4°C | 3.8% | 27.2hPa | 2.6V | 00:00:00 | 01:35:40 | 00:00:00 | |
| OE5WHR-10 | 2026-08-30 12:05:24 | 48.30874 | 12.34499 | 264° | 16km/h | 24838m | 6.4m/s | -52.4°C | 3.9% | 27.3hPa | 2.6V | 00:00:00 | 01:35:36 | 00:00:00 | |
| OE5MMP-10 | 2026-08-30 12:05:23 | 48.30874 | 12.34506 | 265° | 13km/h | 24833m | 5.3m/s | -52.4°C | 3.8% | 27.3hPa | 2.6V | 00:00:00 | 01:35:35 | 00:00:00 | |
| DO3MHA-11 | 2026-08-30 12:05:22 | 48.30875 | 12.34513 | 266° | 11km/h | 24827m | 4.8m/s | -52.4°C | 3.9% | 27.3hPa | 2.6V | 00:00:00 | 01:35:34 | 00:00:00 | |
| DK5PH-5 | 2026-08-30 12:05:20 | 48.30875 | 12.34525 | 266° | 15km/h | 24816m | 4.8m/s | -52.3°C | 3.9% | 27.4hPa | 2.7V | 00:00:00 | 01:35:32 | 00:00:00 | |
| BAUMI2-15 | 2026-08-30 12:05:19 | 48.30875 | 12.34529 | 266° | 11km/h | 24812m | 4.5m/s | -52.3°C | 3.9% | 27.4hPa | 2.7V | 00:00:00 | 01:35:31 | 00:00:00 | |
| OE5DXL-15 | 2026-08-30 12:05:16 | 48.30878 | 12.34547 | 246° | 15km/h | 24785m | 6.2m/s | -52.2°C | 3.8% | 27.5hPa | 2.7V | 00:00:00 | 00:00:00 | 00:00:00 | |
| BAUMI2-15 | 2026-08-30 12:05:14 | 48.30878 | 12.34547 | 246° | 7km/h | 24785m | 6.2m/s | -52.2°C | 3.8% | 27.5hPa | 2.7V | 00:00:00 | 01:35:26 | 00:00:00 | |
| OE5MMP-10 | 2026-08-30 12:05:13 | 48.30879 | 12.34550 | 233° | 16km/h | 24779m | 5.1m/s | -52.2°C | 3.8% | 27.5hPa | 2.6V | 00:00:00 | 01:35:25 | 00:00:00 | |
| DO3MHA-11 | 2026-08-30 12:05:12 | 48.30879 | 12.34551 | 251° | 18km/h | 24774m | 3.4m/s | -52.2°C | 3.8% | 27.5hPa | 2.6V | 00:00:00 | 01:35:24 | 00:00:00 | |
| OE8JPQ-2 | 2026-08-30 12:05:11 | 48.30880 | 12.34554 | 270° | 16km/h | 24771m | 3.9m/s | -52.1°C | 3.8% | 27.6hPa | 2.6V | 00:00:00 | 00:00:00 | 00:00:00 | |
| BAUMI2-15 | 2026-08-30 12:05:09 | 48.30879 | 12.34565 | 283° | 22km/h | 24759m | 6.1m/s | -52.2°C | 3.8% | 27.6hPa | 2.6V | 00:00:00 | 01:35:21 | 00:00:00 | |
| DL6DJ-15 | 2026-08-30 12:05:05 | 48.30870 | 12.34606 | 292° | 20km/h | 24731m | 5.9m/s | -52.2°C | 1.0% | 27.8hPa | 2.6V | 00:00:00 | 00:00:00 | 00:00:00 | |
| BAUMI2-15 | 2026-08-30 12:05:04 | 48.30870 | 12.34606 | 293° | 15km/h | 24731m | 5.9m/s | -52.2°C | 3.7% | 27.7hPa | 2.6V | 00:00:00 | 01:35:16 | 00:00:00 | |
| OE5MMP-10 | 2026-08-30 12:05:03 | 48.30868 | 12.34613 | 290° | 13km/h | 24726m | 5.5m/s | -52.3°C | 3.7% | 27.7hPa | 2.6V | 00:00:00 | 01:35:15 | 00:00:00 | |
| DO3MHA-11 | 2026-08-30 12:05:02 | 48.30867 | 12.34619 | 285° | 9km/h | 24720m | 4.6m/s | -52.2°C | 3.7% | 27.8hPa | 2.6V | 00:00:00 | 01:35:14 | 00:00:00 | |
| BAUMI2-15 | 2026-08-30 12:04:59 | 48.30867 | 12.34629 | 216° | 13km/h | 24704m | 4.6m/s | -52.3°C | 3.8% | 27.8hPa | 2.6V | 00:00:00 | 01:35:11 | 00:00:00 | |
| OE5FHM-15 | 2026-08-30 12:04:58 | 48.30869 | 12.34630 | 229° | 15km/h | 24699m | 3.8m/s | -52.3°C | 3.8% | 27.9hPa | 2.6V | 00:00:00 | 01:35:10 | 00:00:00 | |
| BAUMI2-15 | 2026-08-30 12:04:54 | 48.30866 | 12.34651 | 299° | 22km/h | 24679m | 5.5m/s | -52.3°C | 3.8% | 27.9hPa | 2.6V | 00:00:00 | 01:35:06 | 00:00:00 | |
| OE5MMP-10 | 2026-08-30 12:04:53 | 48.30863 | 12.34659 | 306° | 16km/h | 24674m | 5.4m/s | -52.3°C | 3.8% | 28.0hPa | 2.6V | 00:00:00 | 01:35:05 | 08:30:00 | |
| DO3MHA-11 | 2026-08-30 12:04:52 | 48.30860 | 12.34665 | 309° | 15km/h | 24669m | 5.0m/s | -52.4°C | 3.8% | 28.0hPa | 2.7V | 00:00:00 | 01:35:04 | 08:30:00 | |
| OE8JPQ-2 | 2026-08-30 12:04:51 | 48.30856 | 12.34672 | 306° | 15km/h | 24664m | 4.1m/s | -52.3°C | 3.7% | 28.0hPa | 2.6V | 00:00:00 | 01:35:03 | 00:00:00 | |
| DK5PH-5 | 2026-08-30 12:04:50 | 48.30853 | 12.34679 | 300° | 13km/h | 24659m | 5.5m/s | -52.3°C | 3.7% | 28.1hPa | 2.6V | 00:00:00 | 01:35:02 | 00:00:00 | |
| BAUMI2-15 | 2026-08-30 12:04:49 | 48.30851 | 12.34686 | 293° | 13km/h | 24653m | 5.2m/s | -52.3°C | 3.7% | 28.1hPa | 2.6V | 00:00:00 | 01:35:01 | 00:00:00 | |
| OE5DXL-15 | 2026-08-30 12:04:45 | 48.30843 | 12.34708 | 310° | 9km/h | 24622m | 6.1m/s | -52.4°C | 3.8% | 28.2hPa | 2.6V | 00:00:00 | 00:00:00 | 00:00:00 | |
| OE5MMP-10 | 2026-08-30 12:04:43 | 48.30843 | 12.34708 | 310° | 15km/h | 24622m | 6.1m/s | -52.4°C | 3.8% | 28.2hPa | 2.6V | 00:00:00 | 01:34:55 | 00:00:00 | |
| OE5WHR-10 | 2026-08-30 12:04:42 | 48.30842 | 12.34712 | 302° | 13km/h | 24617m | 5.0m/s | -52.4°C | 3.8% | 28.2hPa | 2.6V | 00:00:00 | 00:00:00 | 00:00:00 | |
| OE3JTB-15 | 2026-08-30 12:04:36 | 48.30830 | 12.34759 | 265° | 5km/h | 24568m | 5.5m/s | -52.6°C | 3.9% | 28.4hPa | 2.6V | 00:00:00 | 00:00:00 | 00:00:00 | |
| OE5MMP-10 | 2026-08-30 12:04:33 | 48.30830 | 12.34759 | 265° | 7km/h | 24568m | 5.5m/s | -52.6°C | 3.9% | 28.4hPa | 2.6V | 00:00:00 | 01:34:45 | 00:00:00 | |
| DO3MHA-11 | 2026-08-30 12:04:32 | 48.30831 | 12.34762 | 249° | 9km/h | 24563m | 4.4m/s | -52.6°C | 3.8% | 28.5hPa | 2.6V | 00:00:00 | 01:34:44 | 00:00:00 | |
| OE8JPQ-2 | 2026-08-30 12:04:31 | 48.30832 | 12.34764 | 247° | 7km/h | 24558m | 5.4m/s | -52.6°C | 3.8% | 28.5hPa | 2.6V | 00:00:00 | 00:00:00 | 08:30:00 | |
| OE5FHM-15 | 2026-08-30 12:04:28 | 48.30833 | 12.34773 | 264° | 7km/h | 24543m | 4.3m/s | -52.8°C | 3.8% | 28.6hPa | 2.7V | 00:00:00 | 01:34:40 | 00:00:00 | |
| OE5REO-15 | 2026-08-30 12:04:26 | 48.30833 | 12.34776 | 262° | 9km/h | 24538m | 5.5m/s | -52.8°C | 1.0% | 28.6hPa | 2.7V | 00:00:00 | 00:00:00 | 00:00:00 | |
| OE5MMP-10 | 2026-08-30 12:04:23 | 48.30836 | 12.34789 | 251° | 9km/h | 24517m | 6.0m/s | -52.5°C | 3.9% | 28.7hPa | 2.7V | 00:00:00 | 01:34:35 | 00:00:00 | |
| DO3MHA-11 | 2026-08-30 12:04:22 | 48.30837 | 12.34793 | 245° | 7km/h | 24511m | 4.6m/s | -52.5°C | 3.9% | 28.7hPa | 2.7V | 00:00:00 | 01:34:34 | 00:00:00 | |
| OE5WHR-10 | 2026-08-30 12:04:21 | 48.30839 | 12.34798 | 236° | 7km/h | 24506m | 5.0m/s | -52.5°C | 4.0% | 28.7hPa | 2.6V | 00:00:00 | 01:34:33 | 00:00:00 | |
| DK5PH-5 | 2026-08-30 12:04:20 | 48.30841 | 12.34802 | 220° | 5km/h | 24501m | 6.0m/s | -52.4°C | 3.9% | 28.8hPa | 2.6V | 00:00:00 | 01:34:32 | 00:00:00 | |
| OE5MMP-10 | 2026-08-30 12:04:13 | 48.30845 | 12.34805 | 38° | 7km/h | 24464m | 5.9m/s | -52.4°C | 3.7% | 28.9hPa | 2.6V | 00:00:00 | 01:34:25 | 00:00:00 | |
| DO3MHA-11 | 2026-08-30 12:04:12 | 48.30843 | 12.34804 | 54° | 7km/h | 24459m | 4.6m/s | -52.4°C | 3.7% | 28.9hPa | 2.6V | 00:00:00 | 01:34:24 | 00:00:00 | |
| OE8JPQ-2 | 2026-08-30 12:04:11 | 48.30843 | 12.34803 | 81° | 7km/h | 24455m | 4.7m/s | -52.4°C | 3.7% | 29.0hPa | 2.6V | 00:00:00 | 00:00:00 | 00:00:00 | |
| OE5MMP-10 | 2026-08-30 12:04:03 | 48.30856 | 12.34811 | 144° | 5km/h | 24412m | 5.8m/s | -52.6°C | 3.8% | 29.2hPa | 2.6V | 00:00:00 | 01:34:15 | 00:00:00 | |
| PETON7-10 | 2026-08-30 12:04:02 | 48.30856 | 12.34810 | 22° | 9km/h | 24406m | 5.0m/s | -52.5°C | 3.8% | 29.2hPa | 2.6V | 00:00:00 | 00:00:00 | 00:00:00 | |
| DG1MFX-10 | 2026-08-30 12:04:01 | 48.30856 | 12.34810 | 22° | 4km/h | 24406m | 5.0m/s | -52.6°C | 1.0% | 29.2hPa | 2.6V | 00:00:00 | 00:00:00 | 00:00:00 | |
| OE5WHR-10 | 2026-08-30 12:04:00 | 48.30854 | 12.34808 | 52° | 9km/h | 24395m | 5.8m/s | -52.7°C | 3.8% | 29.2hPa | 2.6V | 00:00:00 | 00:00:00 | 00:00:00 | |
| OE5FHM-15 | 2026-08-30 12:03:58 | 48.30851 | 12.34802 | 59° | 9km/h | 24386m | 4.7m/s | -52.7°C | 3.8% | 29.3hPa | 2.6V | 00:00:00 | 01:34:10 | 00:00:00 | |
| OE5MMP-10 | 2026-08-30 12:03:53 | 48.30857 | 12.34801 | 176° | 11km/h | 24359m | 5.2m/s | -52.6°C | 3.8% | 29.4hPa | 2.6V | 00:00:00 | 01:34:05 | 00:00:00 | |
| DO3MHA-11 | 2026-08-30 12:03:52 | 48.30862 | 12.34801 | 175° | 11km/h | 24354m | 4.7m/s | -52.6°C | 3.8% | 29.4hPa | 2.7V | 00:00:00 | 01:34:04 | 00:00:00 | |
| OE8JPQ-2 | 2026-08-30 12:03:51 | 48.30866 | 12.34801 | 181° | 9km/h | 24349m | 5.1m/s | -52.7°C | 3.9% | 29.5hPa | 2.6V | 00:00:00 | 01:34:03 | 00:00:00 | |
| PETON7-10 | 2026-08-30 12:03:45 | 48.30880 | 12.34806 | 15° | 7km/h | 24316m | 4.7m/s | -52.8°C | 3.9% | 29.6hPa | 2.6V | 00:00:00 | 01:33:57 | 00:00:00 | |
| OE5MMP-10 | 2026-08-30 12:03:43 | 48.30878 | 12.34807 | 340° | 7km/h | 24305m | 5.4m/s | -52.8°C | 3.9% | 29.7hPa | 2.6V | 00:00:00 | 01:33:55 | 00:00:00 | |
| DO3MHA-11 | 2026-08-30 12:03:42 | 48.30876 | 12.34808 | 347° | 7km/h | 24300m | 4.6m/s | -52.7°C | 3.8% | 29.7hPa | 2.6V | 00:00:00 | 01:33:54 | 00:00:00 | |
| DG1MFX-10 | 2026-08-30 12:03:40 | 48.30875 | 12.34808 | 9° | 5km/h | 24294m | 6.0m/s | -52.8°C | 1.0% | 29.8hPa | 2.6V | 00:00:00 | 00:00:00 | 00:00:00 | |
| OE5WHR-10 | 2026-08-30 12:03:39 | 48.30874 | 12.34806 | 129° | 7km/h | 24283m | 4.8m/s | -53.0°C | 3.8% | 29.7hPa | 2.6V | 00:00:00 | 00:00:00 | 00:00:00 | |
| PG1ADW-2 | 2026-08-30 12:03:33 | 48.30884 | 12.34816 | 287° | 11km/h | 24246m | 5.0m/s | -52.9°C | 3.9% | 29.9hPa | 2.6V | 00:00:00 | 00:00:00 | 00:00:00 | |
| DO3MHA-11 | 2026-08-30 12:03:32 | 48.30884 | 12.34816 | 287° | 7km/h | 24246m | 5.0m/s | -52.9°C | 3.9% | 29.9hPa | 2.6V | 00:00:00 | 01:33:44 | 00:00:00 | |
| OE8JPQ-2 | 2026-08-30 12:03:31 | 48.30884 | 12.34819 | 302° | 9km/h | 24240m | 6.3m/s | -52.9°C | 4.0% | 30.0hPa | 2.6V | 00:00:00 | 00:00:00 | 00:00:00 | |
| OE5FHM-15 | 2026-08-30 12:03:28 | 48.30877 | 12.34831 | 323° | 11km/h | 24224m | 4.8m/s | -53.0°C | 3.9% | 30.0hPa | 2.7V | 00:00:00 | 01:33:40 | 00:00:00 | |
| OE5REO-15 | 2026-08-30 12:03:26 | 48.30875 | 12.34833 | 341° | 11km/h | 24219m | 6.2m/s | -53.0°C | 1.1% | 30.1hPa | 2.7V | 00:00:00 | 00:00:00 | 00:00:00 | |
| OE5MMP-10 | 2026-08-30 12:03:23 | 48.30867 | 12.34833 | 329° | 7km/h | 24198m | 5.1m/s | -52.9°C | 3.8% | 30.2hPa | 2.7V | 00:00:00 | 01:33:35 | 08:30:00 | |
| DO3MHA-11 | 2026-08-30 12:03:22 | 48.30866 | 12.34835 | 302° | 9km/h | 24193m | 4.3m/s | -52.9°C | 3.8% | 30.2hPa | 2.7V | 00:00:00 | 01:33:34 | 08:30:00 | |
| OE5WHR-10 | 2026-08-30 12:03:18 | 48.30864 | 12.34840 | 301° | 11km/h | 24174m | 3.6m/s | -52.9°C | 3.9% | 30.3hPa | 2.6V | 00:00:00 | 01:33:30 | 00:00:00 | |
| OE5MMP-10 | 2026-08-30 12:03:13 | 48.30860 | 12.34861 | 290° | 11km/h | 24146m | 6.3m/s | -53.0°C | 4.0% | 30.4hPa | 2.6V | 00:00:00 | 01:33:25 | 00:00:00 | |
| PG1ADW-2 | 2026-08-30 12:03:12 | 48.30858 | 12.34868 | 306° | 9km/h | 24136m | 4.5m/s | -53.1°C | 3.9% | 30.5hPa | 2.6V | 00:00:00 | 00:00:00 | 00:00:00 | |
| OE8JPQ-2 | 2026-08-30 12:03:11 | 48.30858 | 12.34868 | 306° | 11km/h | 24136m | 4.5m/s | -53.1°C | 3.9% | 30.5hPa | 2.6V | 00:00:00 | 00:00:00 | 00:00:00 | |
| PETON7-10 | 2026-08-30 12:03:08 | 48.30853 | 12.34878 | 312° | 11km/h | 24120m | 4.5m/s | -53.3°C | 3.9% | 30.5hPa | 2.6V | 00:00:00 | 00:00:00 | 00:00:00 | |
| DO7DH-14 | 2026-08-30 12:03:06 | 48.30848 | 12.34884 | 335° | 11km/h | 24109m | 6.5m/s | -53.3°C | 4.0% | 30.6hPa | 2.6V | 00:00:00 | 01:33:18 | 00:00:00 | |
| OE5MMP-10 | 2026-08-30 12:03:03 | 48.30840 | 12.34889 | 325° | 11km/h | 24093m | 6.1m/s | -53.3°C | 4.1% | 30.7hPa | 2.7V | 00:00:00 | 01:33:15 | 00:00:00 | |
| DL6DJ-15 | 2026-08-30 12:03:01 | 48.30832 | 12.34904 | 305° | 9km/h | 24070m | 5.2m/s | -53.2°C | 1.1% | 30.8hPa | 2.7V | 00:00:00 | 00:00:00 | 00:00:00 | |
| DG1MFX-10 | 2026-08-30 12:02:59 | 48.30834 | 12.34900 | 304° | 11km/h | 24076m | 6.6m/s | -53.2°C | 1.1% | 30.8hPa | 2.7V | 00:00:00 | 00:00:00 | 00:00:00 | |
| OE5FHM-15 | 2026-08-30 12:02:58 | 48.30831 | 12.34906 | 306° | 7km/h | 24065m | 5.4m/s | -53.3°C | 4.0% | 30.8hPa | 2.7V | 00:00:00 | 01:33:10 | 00:00:00 | |
| OE5WHR-10 | 2026-08-30 12:02:57 | 48.30829 | 12.34910 | 303° | 7km/h | 24059m | 6.3m/s | -53.3°C | 4.1% | 30.8hPa | 2.6V | 00:00:00 | 00:00:00 | 08:30:00 | |
| OE5MMP-10 | 2026-08-30 12:02:53 | 48.30822 | 12.34922 | 345° | 5km/h | 24038m | 6.3m/s | -53.1°C | 3.8% | 31.0hPa | 2.7V | 00:00:00 | 01:33:05 | 00:00:00 | |
| OE8JPQ-2 | 2026-08-30 12:02:51 | 48.30819 | 12.34922 | 25° | 7km/h | 24027m | 5.0m/s | -53.2°C | 3.9% | 31.0hPa | 2.6V | 00:00:00 | 01:33:03 | 00:00:00 | |
| PG1ADW-2 | 2026-08-30 12:02:44 | 48.30822 | 12.34930 | 264° | 7km/h | 23988m | 6.3m/s | -53.3°C | 4.1% | 31.2hPa | 2.6V | 00:00:00 | 01:32:56 | 08:30:00 | |
| OE5MMP-10 | 2026-08-30 12:02:42 | 48.30821 | 12.34935 | 300° | 9km/h | 23978m | 3.9m/s | -53.1°C | 4.0% | 31.2hPa | 2.6V | 00:00:00 | 01:32:54 | 00:00:00 | |
| DG1MFX-10 | 2026-08-30 12:02:39 | 48.30820 | 12.34935 | 88° | 5km/h | 23967m | 5.8m/s | -53.1°C | 1.1% | 31.3hPa | 2.6V | 00:00:00 | 00:00:00 | 00:00:00 | |
| DO3MHA-11 | 2026-08-30 12:02:37 | 48.30823 | 12.34925 | 136° | 7km/h | 23953m | 5.8m/s | -53.2°C | 4.0% | 31.4hPa | 2.6V | 00:00:00 | 01:32:49 | 00:00:00 | |
| OE5WHR-10 | 2026-08-30 12:02:35 | 48.30827 | 12.34923 | 194° | 7km/h | 23942m | 4.7m/s | -53.2°C | 3.9% | 31.4hPa | 2.6V | 00:00:00 | 00:00:00 | 00:00:00 | |
| PETON7-10 | 2026-08-30 12:02:33 | 48.30832 | 12.34926 | 202° | 7km/h | 23931m | 6.1m/s | -53.2°C | 4.0% | 31.5hPa | 2.6V | 00:00:00 | 00:00:00 | 08:30:00 | |
| OE5MMP-10 | 2026-08-30 12:02:32 | 48.30835 | 12.34927 | 199° | 9km/h | 23926m | 4.9m/s | -53.2°C | 3.9% | 31.5hPa | 2.7V | 00:00:00 | 01:32:44 | 00:00:00 | |
| OE8JPQ-2 | 2026-08-30 12:02:31 | 48.30836 | 12.34929 | 209° | 9km/h | 23921m | 4.8m/s | -53.2°C | 4.0% | 31.5hPa | 2.7V | 00:00:00 | 00:00:00 | 00:00:00 | |
| OE5FHM-15 | 2026-08-30 12:02:28 | 48.30835 | 12.34932 | 342° | 11km/h | 23904m | 4.5m/s | -53.1°C | 3.9% | 31.6hPa | 2.6V | 00:00:00 | 01:32:40 | 00:00:00 | |
| OE5DRO-10 | 2026-08-30 12:02:27 | 48.30832 | 12.34933 | 6° | 11km/h | 23899m | 6.0m/s | -53.1°C | 3.9% | 31.6hPa | 2.6V | 00:00:00 | 00:00:00 | 08:30:00 | |
| OE5REO-15 | 2026-08-30 12:02:26 | 48.30833 | 12.34933 | 6° | 11km/h | 23899m | 6.1m/s | -53.2°C | 1.0% | 31.7hPa | 2.7V | 00:00:00 | 00:00:00 | 00:00:00 | |
| PG1ADW-2 | 2026-08-30 12:02:24 | 48.30824 | 12.34925 | 43° | 9km/h | 23883m | 4.5m/s | -53.0°C | 4.0% | 31.7hPa | 2.7V | 00:00:00 | 00:00:00 | 00:00:00 | |
| OE5MMP-10 | 2026-08-30 12:02:22 | 48.30820 | 12.34920 | 34° | 5km/h | 23872m | 5.3m/s | -53.1°C | 4.0% | 31.8hPa | 2.7V | 00:00:00 | 01:32:34 | 00:00:00 | |
| DG1MFX-10 | 2026-08-30 12:02:19 | 48.30819 | 12.34919 | 0° | 0km/h | 23861m | 6.1m/s | -53.3°C | 1.1% | 31.9hPa | 2.7V | 00:00:00 | 00:00:00 | 00:00:00 | |
| PETON7-10 | 2026-08-30 12:02:18 | 48.30819 | 12.34918 | 9° | 11km/h | 23850m | 4.5m/s | -53.3°C | 4.1% | 31.9hPa | 2.7V | 00:00:00 | 00:00:00 | 00:00:00 | |
| OE5MMP-10 | 2026-08-30 12:02:12 | 48.30805 | 12.34918 | 22° | 11km/h | 23818m | 4.6m/s | -53.1°C | 3.9% | 32.0hPa | 2.7V | 00:00:00 | 01:32:24 | 00:00:00 | |
| OE8JPQ-2 | 2026-08-30 12:02:11 | 48.30800 | 12.34915 | 21° | 11km/h | 23813m | 5.9m/s | -53.2°C | 3.9% | 32.1hPa | 2.7V | 00:00:00 | 00:00:00 | 00:00:00 | |
| BAUMI2-15 | 2026-08-30 12:02:09 | 48.30793 | 12.34912 | 11° | 7km/h | 23802m | 4.9m/s | -53.1°C | 4.0% | 32.1hPa | 2.7V | 00:00:00 | 01:32:21 | 00:00:00 | |
| BAUMI2-15 | 2026-08-30 12:02:04 | 48.30786 | 12.34906 | 32° | 5km/h | 23776m | 5.1m/s | -53.2°C | 4.0% | 32.2hPa | 2.7V | 00:00:00 | 01:32:16 | 00:00:00 | |
| PETON7-10 | 2026-08-30 12:02:03 | 48.30785 | 12.34905 | 332° | 11km/h | 23770m | 6.3m/s | -53.2°C | 3.9% | 32.3hPa | 2.7V | 00:00:00 | 01:32:15 | 00:00:00 | |
| OE5MMP-10 | 2026-08-30 12:02:02 | 48.30784 | 12.34907 | 308° | 11km/h | 23765m | 5.0m/s | -53.2°C | 3.9% | 32.3hPa | 2.7V | 00:00:00 | 01:32:14 | 00:00:00 | |
| BAUMI2-15 | 2026-08-30 12:01:59 | 48.30780 | 12.34910 | 15° | 13km/h | 23749m | 5.0m/s | -53.3°C | 4.0% | 32.4hPa | 2.7V | 00:00:00 | 01:32:11 | 00:00:00 | |
| OE5FHM-15 | 2026-08-30 12:01:58 | 48.30779 | 12.34910 | 25° | 18km/h | 23745m | 4.1m/s | -53.2°C | 4.0% | 32.4hPa | 2.7V | 00:00:00 | 01:32:10 | 00:00:00 | |
| OE5REO-15 | 2026-08-30 12:01:55 | 48.30773 | 12.34907 | 15° | 13km/h | 23734m | 6.1m/s | -53.1°C | 1.0% | 32.5hPa | 2.7V | 00:00:00 | 00:00:00 | 00:00:00 | |
| OE5WHR-10 | 2026-08-30 12:01:53 | 48.30762 | 12.34901 | 30° | 20km/h | 23718m | 5.7m/s | -53.2°C | 4.0% | 32.5hPa | 2.7V | 00:00:00 | 00:00:00 | 00:00:00 | |
| OE5MMP-10 | 2026-08-30 12:01:52 | 48.30758 | 12.34897 | 42° | 15km/h | 23712m | 5.4m/s | -53.1°C | 3.9% | 32.6hPa | 2.6V | 00:00:00 | 01:32:04 | 08:30:00 | |
| OE8JPQ-2 | 2026-08-30 12:01:51 | 48.30755 | 12.34893 | 45° | 20km/h | 23707m | 3.8m/s | -53.1°C | 3.9% | 32.6hPa | 2.7V | 00:00:00 | 01:32:03 | 00:00:00 | |
| PETON7-10 | 2026-08-30 12:01:48 | 48.30745 | 12.34887 | 345° | 20km/h | 23692m | 5.7m/s | -53.2°C | 3.9% | 32.7hPa | 2.7V | 00:00:00 | 00:00:00 | 00:00:00 | |
| PG1ADW-2 | 2026-08-30 12:01:44 | 48.30732 | 12.34899 | 336° | 24km/h | 23671m | 5.1m/s | -53.3°C | 4.0% | 32.8hPa | 2.7V | 00:00:00 | 00:00:00 | 00:00:00 | |
| BAUMI2-15 | 2026-08-30 12:01:43 | 48.30728 | 12.34901 | 346° | 22km/h | 23667m | 4.4m/s | -53.3°C | 4.1% | 32.8hPa | 2.7V | 00:00:00 | 01:31:55 | 00:00:00 | |
| OE5MMP-10 | 2026-08-30 12:01:42 | 48.30724 | 12.34902 | 351° | 24km/h | 23662m | 5.1m/s | -53.3°C | 4.1% | 32.8hPa | 2.7V | 00:00:00 | 01:31:54 | 00:00:00 | |
| OE5REO-15 | 2026-08-30 12:01:40 | 48.30720 | 12.34903 | 354° | 20km/h | 23656m | 5.8m/s | -53.4°C | 1.1% | 32.9hPa | 2.7V | 00:00:00 | 00:00:00 | 00:00:00 | |
| BAUMI2-15 | 2026-08-30 12:01:38 | 48.30701 | 12.34902 | 12° | 26km/h | 23640m | 6.1m/s | -53.2°C | 4.0% | 32.9hPa | 2.7V | 00:00:00 | 01:31:50 | 00:00:00 | |
| PETON7-10 | 2026-08-30 12:01:33 | 48.30669 | 12.34898 | 338° | 24km/h | 23613m | 4.5m/s | -53.4°C | 4.0% | 33.1hPa | 2.7V | 00:00:00 | 00:00:00 | 00:00:00 | |
| OE5WHR-10 | 2026-08-30 12:01:32 | 48.30663 | 12.34902 | 333° | 22km/h | 23608m | 5.8m/s | -53.4°C | 4.0% | 33.1hPa | 2.7V | 00:00:00 | 00:00:00 | 00:00:00 | |
| OE8JPQ-2 | 2026-08-30 12:01:30 | 48.30653 | 12.34911 | 327° | 22km/h | 23597m | 4.6m/s | -53.3°C | 4.1% | 33.2hPa | 2.7V | 00:00:00 | 00:00:00 | 08:30:00 | |
| BAUMI2-15 | 2026-08-30 12:01:27 | 48.30637 | 12.34926 | 335° | 24km/h | 23581m | 3.9m/s | -53.4°C | 4.1% | 33.2hPa | 2.6V | 00:00:00 | 01:31:39 | 00:00:00 | |
| OE5REO-15 | 2026-08-30 12:01:26 | 48.30631 | 12.34930 | 341° | 24km/h | 23576m | 5.8m/s | -53.3°C | 1.1% | 33.3hPa | 2.6V | 00:00:00 | 00:00:00 | 00:00:00 | |
| DO3MHA-11 | 2026-08-30 12:01:23 | 48.30615 | 12.34936 | 349° | 22km/h | 23560m | 5.9m/s | -53.1°C | 4.0% | 33.4hPa | 2.6V | 00:00:00 | 01:31:35 | 00:00:00 | |
| OE5MMP-10 | 2026-08-30 12:01:22 | 48.30609 | 12.34937 | 347° | 22km/h | 23554m | 5.5m/s | -53.2°C | 4.0% | 33.4hPa | 2.6V | 00:00:00 | 01:31:34 | 00:00:00 | |
| PETON7-10 | 2026-08-30 12:01:18 | 48.30587 | 12.34945 | 346° | 16km/h | 23532m | 4.7m/s | -53.0°C | 3.8% | 33.5hPa | 2.6V | 00:00:00 | 01:31:30 | 00:00:00 | |
| OE5HKT-10 | 2026-08-30 12:01:17 | 48.30582 | 12.34947 | 340° | 16km/h | 23527m | 6.0m/s | -53.1°C | 3.9% | 33.5hPa | 2.6V | 00:00:00 | 00:00:00 | 00:00:00 | |
| DO3MHA-11 | 2026-08-30 12:01:13 | 48.30565 | 12.34964 | 319° | 15km/h | 23505m | 5.6m/s | -52.9°C | 3.9% | 33.6hPa | 2.6V | 00:00:00 | 01:31:25 | 00:00:00 | |
| BAUMI2-15 | 2026-08-30 12:01:12 | 48.30562 | 12.34967 | 320° | 13km/h | 23499m | 5.2m/s | -52.9°C | 3.9% | 33.7hPa | 2.6V | 00:00:00 | 01:31:24 | 00:00:00 | |
| OE5WHR-10 | 2026-08-30 12:01:11 | 48.30560 | 12.34970 | 328° | 13km/h | 23494m | 6.0m/s | -53.0°C | 3.9% | 33.7hPa | 2.6V | 00:00:00 | 01:31:23 | 00:00:00 | |
| OE8JPQ-2 | 2026-08-30 12:01:09 | 48.30554 | 12.34973 | 346° | 13km/h | 23483m | 4.2m/s | 0°C | 0% | 0hPa | 2.6V | 00:00:00 | 00:00:00 | 00:00:00 | |
| OE5REO-15 | 2026-08-30 12:01:08 | 48.30554 | 12.34973 | 346° | 15km/h | 23483m | 4.3m/s | -53.1°C | 1.1% | 33.8hPa | 2.6V | 00:00:00 | 00:00:00 | 00:00:00 | |
| BAUMI2-15 | 2026-08-30 12:01:07 | 48.30547 | 12.34975 | 356° | 16km/h | 23472m | 5.8m/s | -52.9°C | 4.0% | 33.8hPa | 2.6V | 00:00:00 | 01:31:19 | 00:00:00 | |
| PETON7-10 | 2026-08-30 12:01:03 | 48.30532 | 12.34984 | 326° | 13km/h | 23450m | 4.1m/s | -52.8°C | 3.9% | 33.9hPa | 2.6V | 00:00:00 | 00:00:00 | 00:00:00 | |
| OE5MMP-10 | 2026-08-30 12:01:02 | 48.30529 | 12.34988 | 317° | 13km/h | 23446m | 5.2m/s | -52.9°C | 3.9% | 34.0hPa | 2.6V | 00:00:00 | 01:31:14 | 00:00:00 | |
| OE5DRO-10 | 2026-08-30 12:00:59 | 48.30523 | 12.35002 | 288° | 13km/h | 23430m | 4.6m/s | -53.1°C | 3.9% | 34.0hPa | 2.6V | 00:00:00 | 00:00:00 | 00:00:00 | |
| BAUMI2-15 | 2026-08-30 12:00:57 | 48.30520 | 12.35010 | 303° | 9km/h | 23419m | 5.6m/s | -53.1°C | 4.0% | 34.1hPa | 2.6V | 00:00:00 | 01:31:09 | 00:00:00 | |
| OE5HKT-10 | 2026-08-30 12:00:56 | 48.30519 | 12.35014 | 313° | 16km/h | 23414m | 4.6m/s | -53.0°C | 3.9% | 34.1hPa | 2.6V | 00:00:00 | 01:31:08 | 00:00:00 | |
| DO3MHA-11 | 2026-08-30 12:00:53 | 48.30514 | 12.35021 | 302° | 13km/h | 23398m | 5.5m/s | -53.0°C | 4.0% | 34.2hPa | 2.6V | 00:00:00 | 01:31:05 | 00:00:00 | |
| OE5MMP-10 | 2026-08-30 12:00:52 | 48.30513 | 12.35023 | 301° | 15km/h | 23393m | 4.8m/s | -53.0°C | 3.9% | 34.3hPa | 2.6V | 00:00:00 | 01:31:04 | 00:00:00 | |
| OE5WHR-10 | 2026-08-30 12:00:50 | 48.30510 | 12.35028 | 326° | 11km/h | 23382m | 6.1m/s | -53.1°C | 3.9% | 34.3hPa | 2.7V | 00:00:00 | 00:00:00 | 00:00:00 | |
| OE8JPQ-2 | 2026-08-30 12:00:49 | 48.30507 | 12.35031 | 332° | 15km/h | 23376m | 4.6m/s | 0°C | 0% | 0hPa | 2.6V | 00:00:00 | 01:31:01 | 00:00:00 | |
| PETON7-10 | 2026-08-30 12:00:48 | 48.30503 | 12.35034 | 336° | 11km/h | 23371m | 5.0m/s | -53.2°C | 4.0% | 34.3hPa | 2.6V | 00:00:00 | 00:00:00 | 00:00:00 | |
| OE5FHM-15 | 2026-08-30 12:00:47 | 48.30499 | 12.35036 | 340° | 11km/h | 23366m | 5.9m/s | -53.1°C | 4.0% | 34.4hPa | 2.6V | 00:00:00 | 01:30:59 | 00:00:00 | |
| DO3MHA-11 | 2026-08-30 12:00:43 | 48.30482 | 12.35044 | 341° | 7km/h | 23344m | 4.7m/s | -53.1°C | 4.0% | 34.5hPa | 2.6V | 00:00:00 | 01:30:55 | 00:00:00 | |
| OE5MMP-10 | 2026-08-30 12:00:42 | 48.30479 | 12.35046 | 343° | 7km/h | 23340m | 4.1m/s | -52.9°C | 4.0% | 34.5hPa | 2.6V | 00:00:00 | 01:30:54 | 00:00:00 | |
| OE5DRO-10 | 2026-08-30 12:00:40 | 48.30474 | 12.35047 | 7° | 7km/h | 23328m | 5.4m/s | -52.9°C | 3.9% | 34.6hPa | 2.6V | 00:00:00 | 00:00:00 | 00:00:00 | |
| BAUMI2-15 | 2026-08-30 12:00:37 | 48.30472 | 12.35048 | 311° | 7km/h | 23312m | 5.6m/s | -53.0°C | 3.9% | 34.7hPa | 2.6V | 00:00:00 | 01:30:49 | 00:00:00 | |
| OE5REO-15 | 2026-08-30 12:00:36 | 48.30473 | 12.35048 | 311° | 5km/h | 23312m | 5.6m/s | -53.1°C | 1.0% | 34.7hPa | 2.6V | 00:00:00 | 00:00:00 | 00:00:00 | |
| OE5HKT-10 | 2026-08-30 12:00:34 | 48.30469 | 12.35054 | 317° | 15km/h | 23296m | 5.8m/s | -52.8°C | 4.0% | 34.8hPa | 2.6V | 00:00:00 | 00:00:00 | 08:30:00 | |
| DO3MHA-11 | 2026-08-30 12:00:33 | 48.30468 | 12.35056 | 327° | 11km/h | 23291m | 4.4m/s | -52.8°C | 3.9% | 34.8hPa | 2.6V | 00:00:00 | 01:30:45 | 00:00:00 | |
| OE5MMP-10 | 2026-08-30 12:00:32 | 48.30465 | 12.35058 | 330° | 13km/h | 23286m | 4.7m/s | -52.9°C | 3.9% | 34.8hPa | 2.6V | 00:00:00 | 01:30:44 | 00:00:00 | |
| OE5WHR-10 | 2026-08-30 12:00:29 | 48.30456 | 12.35064 | 348° | 13km/h | 23269m | 5.1m/s | -52.8°C | 4.0% | 34.9hPa | 2.6V | 00:00:00 | 00:00:00 | 00:00:00 | |
| BAUMI2-15 | 2026-08-30 12:00:27 | 48.30449 | 12.35064 | 25° | 11km/h | 23259m | 3.7m/s | -52.8°C | 4.0% | 35.0hPa | 2.6V | 00:00:00 | 01:30:39 | 00:00:00 | |
| DL6DJ-15 | 2026-08-30 12:00:25 | 48.30441 | 12.35059 | 5° | 11km/h | 23243m | 5.4m/s | -52.8°C | 1.1% | 35.1hPa | 2.6V | 00:00:00 | 00:00:00 | 00:00:00 | |
| BAUMI2-15 | 2026-08-30 12:00:23 | 48.30436 | 12.35060 | 342° | 11km/h | 23233m | 5.2m/s | -52.8°C | 3.9% | 35.1hPa | 2.6V | 00:00:00 | 01:30:34 | 00:00:00 | |
| OE5MMP-10 | 2026-08-30 12:00:22 | 48.30436 | 12.35060 | 342° | 13km/h | 23233m | 5.2m/s | -52.8°C | 3.9% | 35.1hPa | 2.6V | 00:00:00 | 01:30:34 | 08:30:00 | |
| OE5REO-15 | 2026-08-30 12:00:20 | 48.30435 | 12.35061 | 330° | 5km/h | 23227m | 6.0m/s | -52.8°C | 1.1% | 35.2hPa | 2.7V | 00:00:00 | 00:00:00 | 00:00:00 | |
| PETON7-10 | 2026-08-30 12:00:18 | 48.30431 | 12.35065 | 328° | 15km/h | 23213m | 6.1m/s | -52.7°C | 4.0% | 35.2hPa | 2.7V | 00:00:00 | 00:00:00 | 08:30:00 | |
| DG1MFX-10 | 2026-08-30 12:00:17 | 48.30427 | 12.35068 | 335° | 18km/h | 23207m | 5.3m/s | -52.7°C | 1.1% | 35.3hPa | 2.6V | 00:00:00 | 00:00:00 | 00:00:00 | |
| DO3MHA-11 | 2026-08-30 12:00:13 | 48.30410 | 12.35078 | 346° | 15km/h | 23186m | 4.6m/s | -52.6°C | 3.9% | 35.4hPa | 2.6V | 00:00:00 | 01:30:25 | 00:00:00 | |
| OE5MMP-10 | 2026-08-30 12:00:12 | 48.30406 | 12.35080 | 341° | 15km/h | 23181m | 5.2m/s | -52.5°C | 3.8% | 35.4hPa | 2.6V | 00:00:00 | 01:30:24 | 00:00:00 | |
| OE5DRO-10 | 2026-08-30 12:00:11 | 48.30402 | 12.35082 | 336° | 16km/h | 23175m | 6.0m/s | -52.5°C | 3.8% | 35.5hPa | 2.6V | 00:00:00 | 00:00:00 | 00:00:00 | |
| OE8JPQ-2 | 2026-08-30 12:00:09 | 48.30395 | 12.35087 | 330° | 16km/h | 23164m | 5.5m/s | 0°C | 0% | 0hPa | 2.6V | 00:00:00 | 00:00:00 | 00:00:00 | |
| OE5WHR-10 | 2026-08-30 12:00:08 | 48.30392 | 12.35089 | 337° | 16km/h | 23159m | 6.0m/s | -52.5°C | 3.8% | 35.5hPa | 2.6V | 00:00:00 | 01:30:20 | 00:00:00 | |
| OE3JTB-15 | 2026-08-30 12:00:05 | 48.30384 | 12.35094 | 337° | 18km/h | 23142m | 5.8m/s | -52.5°C | 3.9% | 35.6hPa | 2.6V | 00:00:00 | 01:30:17 | 00:00:00 | |
| OE5REO-15 | 2026-08-30 12:00:04 | 48.30384 | 12.35094 | 338° | 16km/h | 23142m | 5.8m/s | -52.5°C | 1.1% | 35.7hPa | 2.6V | 00:00:00 | 00:00:00 | 00:00:00 | |
| DF7PN | 2026-08-30 12:00:03 | 48.30372 | 12.35103 | 336° | 18km/h | 23127m | 5.5m/s | -52.6°C | -1.0% | 35.8hPa | 2.6V | 00:00:00 | 00:00:00 | 00:00:00 | |
| DL6DJ-15 | 2026-08-30 11:59:54 | 48.30332 | 12.35131 | 334° | 13km/h | 23079m | 5.5m/s | -52.5°C | 1.0% | 36.0hPa | 2.6V | 00:00:00 | 00:00:00 | 00:00:00 | |
| DO3MHA-11 | 2026-08-30 11:59:53 | 48.30332 | 12.35131 | 335° | 15km/h | 23080m | 5.4m/s | -52.4°C | 3.8% | 36.0hPa | 2.6V | 00:00:00 | 01:30:05 | 00:00:00 | |
| OE5MMP-10 | 2026-08-30 11:59:52 | 48.30329 | 12.35133 | 337° | 16km/h | 23074m | 5.6m/s | -52.4°C | 3.8% | 36.0hPa | 2.6V | 00:00:00 | 01:30:04 | 00:00:00 | |
| OE8JPQ-2 | 2026-08-30 11:59:49 | 48.30319 | 12.35140 | 329° | 16km/h | 23059m | 5.5m/s | 0°C | 0% | 0hPa | 2.7V | 00:00:00 | 01:30:01 | 00:00:00 | |
| PETON7-10 | 2026-08-30 11:59:48 | 48.30316 | 12.35142 | 320° | 18km/h | 23054m | 4.5m/s | -52.6°C | 3.9% | 36.1hPa | 2.7V | 00:00:00 | 01:30:00 | 00:00:00 | |
| OE5WHR-10 | 2026-08-30 11:59:47 | 48.30313 | 12.35146 | 316° | 18km/h | 23049m | 5.2m/s | -52.6°C | 4.0% | 36.2hPa | 2.7V | 00:00:00 | 00:00:00 | 08:30:00 | |
| OE5FHM-15 | 2026-08-30 11:59:46 | 48.30310 | 12.35151 | 318° | 16km/h | 23043m | 6.0m/s | -52.6°C | 3.9% | 36.2hPa | 2.6V | 00:00:00 | 01:29:58 | 00:00:00 | |
| OE5DRO-10 | 2026-08-30 11:59:45 | 48.30306 | 12.35156 | 320° | 18km/h | 23038m | 4.4m/s | -52.6°C | 3.9% | 36.2hPa | 2.6V | 00:00:00 | 00:00:00 | 00:00:00 | |
| DO3MHA-11 | 2026-08-30 11:59:43 | 48.30298 | 12.35166 | 329° | 16km/h | 23027m | 5.8m/s | -52.6°C | 3.9% | 36.3hPa | 2.6V | 00:00:00 | 01:29:55 | 00:00:00 | |
| OE5MMP-10 | 2026-08-30 11:59:42 | 48.30293 | 12.35169 | 340° | 16km/h | 23022m | 4.8m/s | -52.5°C | 3.8% | 36.3hPa | 2.6V | 00:00:00 | 01:29:54 | 00:00:00 | |
| OE5DXL-15 | 2026-08-30 11:59:41 | 48.30289 | 12.35171 | 350° | 16km/h | 23016m | 5.9m/s | -52.6°C | 3.8% | 36.3hPa | 2.6V | 00:00:00 | 00:00:00 | 00:00:00 | |
| DG1MFX-10 | 2026-08-30 11:59:34 | 48.30264 | 12.35170 | 348° | 13km/h | 22985m | 6.0m/s | -52.5°C | 1.1% | 36.6hPa | 2.7V | 00:00:00 | 00:00:00 | 00:00:00 | |
| DO3MHA-11 | 2026-08-30 11:59:33 | 48.30257 | 12.35176 | 324° | 16km/h | 22974m | 4.7m/s | -52.5°C | 3.9% | 36.6hPa | 2.7V | 00:00:00 | 01:29:45 | 00:00:00 | |
| OE5MMP-10 | 2026-08-30 11:59:32 | 48.30253 | 12.35180 | 317° | 18km/h | 22969m | 5.5m/s | -52.4°C | 3.9% | 36.6hPa | 2.7V | 00:00:00 | 01:29:44 | 00:00:00 | |
| OE5HKT-10 | 2026-08-30 11:59:29 | 48.30244 | 12.35194 | 328° | 18km/h | 22954m | 4.5m/s | -52.4°C | 3.9% | 36.7hPa | 2.7V | 00:00:00 | 00:00:00 | 00:00:00 | |
| OE5WHR-10 | 2026-08-30 11:59:26 | 48.30230 | 12.35201 | 351° | 18km/h | 22938m | 4.6m/s | -52.4°C | 3.8% | 36.8hPa | 2.7V | 00:00:00 | 00:00:00 | 00:00:00 | |
| DL6DJ-15 | 2026-08-30 11:59:23 | 48.30214 | 12.35207 | 330° | 15km/h | 22918m | 6.0m/s | -52.5°C | 1.0% | 36.9hPa | 2.7V | 00:00:00 | 00:00:00 | 00:00:00 | |
| OE5MMP-10 | 2026-08-30 11:59:22 | 48.30214 | 12.35207 | 331° | 15km/h | 22918m | 6.0m/s | -52.4°C | 3.9% | 36.9hPa | 2.7V | 00:00:00 | 01:29:34 | 00:00:00 | |
| DO3MHA-11 | 2026-08-30 11:59:20 | 48.30206 | 12.35215 | 318° | 15km/h | 22908m | 4.1m/s | -52.4°C | 3.8% | 36.9hPa | 2.6V | 00:00:00 | 01:29:32 | 00:00:00 | |
| PETON7-10 | 2026-08-30 11:59:18 | 48.30201 | 12.35224 | 305° | 16km/h | 22897m | 6.2m/s | -52.3°C | 3.8% | 37.0hPa | 2.6V | 00:00:00 | 00:00:00 | 00:00:00 | |
| OE5REO-15 | 2026-08-30 11:59:17 | 48.30200 | 12.35227 | 301° | 9km/h | 22892m | 4.8m/s | -52.4°C | 1.0% | 37.1hPa | 2.6V | 00:00:00 | 00:00:00 | 00:00:00 | |
| OE5FHM-15 | 2026-08-30 11:59:16 | 48.30199 | 12.35230 | 305° | 16km/h | 22887m | 3.9m/s | -52.3°C | 3.8% | 37.1hPa | 2.6V | 00:00:00 | 01:29:28 | 00:00:00 | |
| DG1MFX-10 | 2026-08-30 11:59:13 | 48.30194 | 12.35236 | 325° | 15km/h | 22878m | 5.7m/s | -52.5°C | 1.0% | 37.2hPa | 2.6V | 00:00:00 | 00:00:00 | 00:00:00 | |
| OE5MMP-10 | 2026-08-30 11:59:12 | 48.30186 | 12.35243 | 337° | 16km/h | 22867m | 5.3m/s | -52.5°C | 3.7% | 37.2hPa | 2.6V | 00:00:00 | 01:29:24 | 00:00:00 | |
| DO3MHA-11 | 2026-08-30 11:59:10 | 48.30177 | 12.35248 | 344° | 15km/h | 22857m | 4.2m/s | -52.4°C | 3.7% | 37.2hPa | 2.6V | 00:00:00 | 01:29:22 | 00:00:00 | |
| OE8JPQ-2 | 2026-08-30 11:59:09 | 48.30172 | 12.35250 | 344° | 18km/h | 22852m | 5.3m/s | 0°C | 0% | 0hPa | 2.6V | 00:00:00 | 00:00:00 | 00:00:00 | |
| OE5HKT-10 | 2026-08-30 11:59:08 | 48.30167 | 12.35253 | 341° | 20km/h | 22846m | 5.6m/s | -52.5°C | 3.8% | 37.3hPa | 2.6V | 00:00:00 | 01:29:20 | 00:00:00 | |
| OE5DRO-10 | 2026-08-30 11:59:06 | 48.30158 | 12.35258 | 335° | 18km/h | 22836m | 6.0m/s | -52.6°C | 3.8% | 37.4hPa | 2.6V | 00:00:00 | 00:00:00 | 08:30:00 | |
| OE5WHR-10 | 2026-08-30 11:59:03 | 48.30151 | 12.35266 | 319° | 18km/h | 22820m | 5.9m/s | -52.6°C | 3.9% | 37.5hPa | 2.6V | 00:00:00 | 01:29:15 | 00:00:00 | |
| DF7PN | 2026-08-30 11:59:01 | 48.30137 | 12.35286 | 322° | 20km/h | 22794m | 5.7m/s | -52.8°C | -1.0% | 37.7hPa | 2.6V | 00:00:00 | 00:00:00 | 00:00:00 | |
| DL6DJ-15 | 2026-08-30 11:58:52 | 48.30106 | 12.35316 | 318° | 13km/h | 22759m | 5.7m/s | -53.0°C | 1.0% | 37.9hPa | 2.6V | 00:00:00 | 00:00:00 | 00:00:00 | |
| OE3JTB-15 | 2026-08-30 11:58:49 | 48.30101 | 12.35324 | 317° | 18km/h | 22749m | 4.4m/s | -52.8°C | 3.9% | 37.9hPa | 2.6V | 00:00:00 | 00:00:00 | 00:00:00 | |
| DO3MHA-11 | 2026-08-30 11:58:48 | 48.30098 | 12.35328 | 312° | 20km/h | 22744m | 4.6m/s | -52.8°C | 3.9% | 37.9hPa | 2.6V | 00:00:00 | 01:29:00 | 08:30:00 | |
| OE5HKT-10 | 2026-08-30 11:58:47 | 48.30095 | 12.35333 | 304° | 22km/h | 22739m | 6.0m/s | -52.9°C | 3.8% | 37.9hPa | 2.6V | 00:00:00 | 00:00:00 | 00:00:00 | |
| OE5FHM-15 | 2026-08-30 11:58:46 | 48.30093 | 12.35339 | 299° | 18km/h | 22733m | 4.6m/s | -52.9°C | 3.8% | 38.0hPa | 2.6V | 00:00:00 | 01:28:58 | 00:00:00 | |
| OE5REO-15 | 2026-08-30 11:58:44 | 48.30090 | 12.35345 | 303° | 22km/h | 22729m | 4.6m/s | -53.0°C | 1.0% | 38.1hPa | 2.6V | 00:00:00 | 00:00:00 | 00:00:00 | |
| DO7DH-14 | 2026-08-30 11:58:43 | 48.30082 | 12.35360 | 318° | 20km/h | 22718m | 5.4m/s | 0°C | 0% | 0hPa | 2.6V | 00:00:00 | 01:28:55 | 00:00:00 | |
| OE5WHR-10 | 2026-08-30 11:58:42 | 48.30077 | 12.35366 | 321° | 20km/h | 22712m | 4.5m/s | -52.9°C | 3.9% | 38.1hPa | 2.6V | 00:00:00 | 00:00:00 | 00:00:00 | |
| DO3MHA-11 | 2026-08-30 11:58:37 | 48.30055 | 12.35388 | 343° | 18km/h | 22686m | 4.4m/s | -53.1°C | 4.0% | 38.3hPa | 2.6V | 00:00:00 | 01:28:49 | 00:00:00 | |
| PETON7-10 | 2026-08-30 11:58:33 | 48.30046 | 12.35402 | 288° | 18km/h | 22666m | 4.2m/s | -53.1°C | 3.9% | 38.4hPa | 2.6V | 00:00:00 | 00:00:00 | 00:00:00 | |
| OE5MMP-10 | 2026-08-30 11:58:32 | 48.30044 | 12.35408 | 293° | 20km/h | 22661m | 5.3m/s | -53.2°C | 4.0% | 38.4hPa | 2.6V | 00:00:00 | 01:28:44 | 00:00:00 | |
| OE8JPQ-2 | 2026-08-30 11:58:28 | 48.30030 | 12.35430 | 325° | 16km/h | 22642m | 5.3m/s | 0°C | 0% | 0hPa | 2.6V | 00:00:00 | 00:00:00 | 00:00:00 | |
| DO3MHA-11 | 2026-08-30 11:58:25 | 48.30018 | 12.35443 | 323° | 15km/h | 22626m | 6.0m/s | -53.0°C | 3.9% | 38.6hPa | 2.6V | 00:00:00 | 01:28:37 | 00:00:00 | |
| OE5MMP-10 | 2026-08-30 11:58:22 | 48.30009 | 12.35457 | 300° | 16km/h | 22611m | 6.5m/s | -53.1°C | 3.8% | 38.7hPa | 2.6V | 00:00:00 | 01:28:34 | 00:00:00 | |
| OE5WHR-10 | 2026-08-30 11:58:21 | 48.30008 | 12.35461 | 276° | 20km/h | 22605m | 5.6m/s | -53.1°C | 3.9% | 38.7hPa | 2.6V | 00:00:00 | 00:00:00 | 00:00:00 | |
| OE3JTB-15 | 2026-08-30 11:58:20 | 48.30008 | 12.35466 | 267° | 18km/h | 22599m | 4.7m/s | -53.1°C | 3.9% | 38.8hPa | 2.6V | 00:00:00 | 01:28:32 | 00:00:00 | |
| PETON7-10 | 2026-08-30 11:58:18 | 48.30008 | 12.35476 | 286° | 20km/h | 22589m | 5.0m/s | -53.2°C | 3.9% | 38.9hPa | 2.6V | 00:00:00 | 01:28:30 | 00:00:00 | |
| DG1MJG | 2026-08-30 11:58:17 | 48.30008 | 12.35476 | 286° | 13km/h | 22589m | 5.0m/s | 0°C | 0% | 38.9hPa | 2.6V | 00:00:00 | 00:00:00 | 00:00:00 | |
| OE5FHM-15 | 2026-08-30 11:58:16 | 48.30005 | 12.35487 | 295° | 18km/h | 22580m | 5.7m/s | -53.2°C | 4.0% | 38.9hPa | 2.6V | 00:00:00 | 01:28:28 | 00:00:00 | |
| DO3MHA-11 | 2026-08-30 11:58:15 | 48.30003 | 12.35493 | 294° | 22km/h | 22574m | 5.7m/s | -53.3°C | 4.1% | 38.9hPa | 2.7V | 00:00:00 | 01:28:27 | 00:00:00 | |
| BAUMI2-15 | 2026-08-30 11:58:14 | 48.30000 | 12.35501 | 297° | 26km/h | 22569m | 4.8m/s | -53.3°C | 4.0% | 39.0hPa | 2.7V | 00:00:00 | 01:28:26 | 00:00:00 | |
| OE5MMP-10 | 2026-08-30 11:58:12 | 48.29994 | 12.35516 | 306° | 20km/h | 22557m | 5.3m/s | -53.2°C | 4.0% | 39.0hPa | 2.7V | 00:00:00 | 01:28:24 | 00:00:00 | |
| BAUMI2-15 | 2026-08-30 11:58:09 | 48.29985 | 12.35543 | 281° | 20km/h | 22542m | 4.9m/s | -53.4°C | 4.0% | 39.1hPa | 2.7V | 00:00:00 | 01:28:21 | 00:00:00 | |
| DO3MHA-11 | 2026-08-30 11:58:05 | 48.29985 | 12.35572 | 266° | 16km/h | 22521m | 4.3m/s | -53.5°C | 4.1% | 39.3hPa | 2.7V | 00:00:00 | 01:28:17 | 00:00:00 | |
| BAUMI2-15 | 2026-08-30 11:58:04 | 48.29985 | 12.35577 | 262° | 15km/h | 22516m | 4.8m/s | -53.5°C | 4.0% | 39.3hPa | 2.7V | 00:00:00 | 01:28:16 | 00:00:00 | |
| PETON7-10 | 2026-08-30 11:58:03 | 48.29986 | 12.35581 | 261° | 16km/h | 22511m | 5.5m/s | -53.5°C | 4.0% | 39.3hPa | 2.7V | 00:00:00 | 00:00:00 | 08:30:00 | |
| OE5MMP-10 | 2026-08-30 11:58:02 | 48.29986 | 12.35586 | 269° | 18km/h | 22506m | 4.8m/s | -53.5°C | 4.0% | 39.3hPa | 2.6V | 00:00:00 | 01:28:14 | 00:00:00 | |
| OE5WHR-10 | 2026-08-30 11:58:00 | 48.29984 | 12.35597 | 299° | 16km/h | 22496m | 5.8m/s | -53.3°C | 3.9% | 39.4hPa | 2.6V | 00:00:00 | 01:28:12 | 00:00:00 | |
| BAUMI2-15 | 2026-08-30 11:57:59 | 48.29982 | 12.35602 | 305° | 20km/h | 22491m | 4.6m/s | -53.4°C | 4.0% | 39.4hPa | 2.6V | 00:00:00 | 01:28:11 | 08:30:00 | |
| OE5REO-15 | 2026-08-30 11:57:56 | 48.29977 | 12.35616 | 291° | 22km/h | 22481m | 5.9m/s | -53.5°C | 1.1% | 39.5hPa | 2.6V | 00:00:00 | 00:00:00 | 00:00:00 | |
| DO3MHA-11 | 2026-08-30 11:57:55 | 48.29975 | 12.35632 | 275° | 15km/h | 22471m | 4.4m/s | -53.2°C | 3.9% | 39.6hPa | 2.6V | 00:00:00 | 01:28:07 | 00:00:00 | |
| BAUMI2-15 | 2026-08-30 11:57:54 | 48.29974 | 12.35640 | 272° | 16km/h | 22466m | 5.9m/s | -53.3°C | 4.0% | 39.6hPa | 2.6V | 00:00:00 | 01:28:06 | 00:00:00 | |
| OE5MMP-10 | 2026-08-30 11:57:52 | 48.29975 | 12.35652 | 260° | 13km/h | 22455m | 4.5m/s | -53.4°C | 4.0% | 39.7hPa | 2.6V | 00:00:00 | 01:28:04 | 00:00:00 | |
| OE3JTB-15 | 2026-08-30 11:57:51 | 48.29976 | 12.35656 | 249° | 13km/h | 22450m | 5.5m/s | -53.4°C | 4.0% | 39.7hPa | 2.6V | 00:00:00 | 00:00:00 | 00:00:00 | |
| OE5HKT-10 | 2026-08-30 11:57:50 | 48.29977 | 12.35661 | 238° | 13km/h | 22445m | 5.2m/s | -53.3°C | 4.0% | 39.7hPa | 2.7V | 00:00:00 | 01:28:02 | 00:00:00 | |
| BAUMI2-15 | 2026-08-30 11:57:49 | 48.29979 | 12.35666 | 231° | 11km/h | 22440m | 4.6m/s | -53.3°C | 3.9% | 39.8hPa | 2.7V | 00:00:00 | 01:28:01 | 00:00:00 | |
| PETON7-10 | 2026-08-30 11:57:48 | 48.29982 | 12.35669 | 223° | 13km/h | 22434m | 5.8m/s | -53.2°C | 3.9% | 39.8hPa | 2.7V | 00:00:00 | 00:00:00 | 00:00:00 | |
| OE5FHM-15 | 2026-08-30 11:57:46 | 48.29986 | 12.35674 | 231° | 11km/h | 22424m | 4.0m/s | -53.3°C | 3.8% | 39.9hPa | 2.7V | 00:00:00 | 01:27:58 | 00:00:00 | |
| DO3MHA-11 | 2026-08-30 11:57:45 | 48.29986 | 12.35677 | 252° | 13km/h | 22420m | 5.1m/s | -53.5°C | 3.9% | 39.9hPa | 2.7V | 00:00:00 | 01:27:57 | 00:00:00 | |
| OE5MMP-10 | 2026-08-30 11:57:42 | 48.29985 | 12.35695 | 291° | 13km/h | 22405m | 4.0m/s | -53.6°C | 4.0% | 40.0hPa | 2.6V | 00:00:00 | 01:27:54 | 00:00:00 | |
| OE5DXL-15 | 2026-08-30 11:57:41 | 48.29983 | 12.35702 | 299° | 9km/h | 22400m | 4.9m/s | -53.6°C | 4.0% | 40.0hPa | 2.6V | 00:00:00 | 00:00:00 | 00:00:00 | |
| OE5WHR-10 | 2026-08-30 11:57:39 | 48.29978 | 12.35712 | 314° | 9km/h | 22390m | 4.1m/s | -53.7°C | 4.0% | 40.1hPa | 2.6V | 00:00:00 | 00:00:00 | 00:00:00 | |
| BAUMI2-15 | 2026-08-30 11:57:38 | 48.29977 | 12.35714 | 303° | 7km/h | 22386m | 3.5m/s | -53.8°C | 4.1% | 40.1hPa | 2.6V | 00:00:00 | 01:27:50 | 00:00:00 | |
| DO3MHA-11 | 2026-08-30 11:57:35 | 48.29980 | 12.35720 | 218° | 9km/h | 22370m | 4.8m/s | -53.8°C | 4.0% | 40.2hPa | 2.6V | 00:00:00 | 01:27:47 | 00:00:00 | |
| PETON7-10 | 2026-08-30 11:57:33 | 48.29984 | 12.35725 | 211° | 9km/h | 22361m | 5.1m/s | -53.7°C | 4.0% | 40.3hPa | 2.6V | 00:00:00 | 01:27:45 | 00:00:00 | |
| OE5MMP-10 | 2026-08-30 11:57:32 | 48.29986 | 12.35726 | 214° | 9km/h | 22356m | 5.2m/s | -53.6°C | 4.0% | 40.3hPa | 2.6V | 00:00:00 | 01:27:44 | 00:00:00 | |
| OE5DRO-10 | 2026-08-30 11:57:31 | 48.29986 | 12.35727 | 311° | 7km/h | 22351m | 4.8m/s | -53.7°C | 4.0% | 40.3hPa | 2.6V | 00:00:00 | 00:00:00 | 00:00:00 | |
| DG1MFX-10 | 2026-08-30 11:57:30 | 48.29986 | 12.35727 | 312° | 4km/h | 22351m | 4.8m/s | -53.7°C | 1.1% | 40.4hPa | 2.6V | 00:00:00 | 00:00:00 | 00:00:00 | |
| OE5HKT-10 | 2026-08-30 11:57:29 | 48.29983 | 12.35730 | 326° | 7km/h | 22340m | 5.3m/s | -53.7°C | 4.0% | 40.4hPa | 2.6V | 00:00:00 | 00:00:00 | 00:00:00 | |
| BAUMI2-15 | 2026-08-30 11:57:27 | 48.29978 | 12.35736 | 329° | 9km/h | 22329m | 5.8m/s | -53.5°C | 3.9% | 40.5hPa | 2.7V | 00:00:00 | 01:27:39 | 00:00:00 | |
| DO3MHA-11 | 2026-08-30 11:57:25 | 48.29974 | 12.35740 | 307° | 9km/h | 22320m | 4.0m/s | -53.6°C | 4.0% | 40.5hPa | 2.6V | 00:00:00 | 01:27:37 | 00:00:00 | |
| OE5MMP-10 | 2026-08-30 11:57:22 | 48.29976 | 12.35748 | 213° | 7km/h | 22304m | 5.2m/s | -53.8°C | 4.0% | 40.7hPa | 2.6V | 00:00:00 | 01:27:34 | 08:30:00 | |
| OE5WHR-10 | 2026-08-30 11:57:18 | 48.29986 | 12.35747 | 153° | 5km/h | 22284m | 5.1m/s | -53.9°C | 4.0% | 40.8hPa | 2.6V | 00:00:00 | 00:00:00 | 00:00:00 | |
| BAUMI2-15 | 2026-08-30 11:57:17 | 48.29988 | 12.35745 | 157° | 2km/h | 22279m | 5.4m/s | -54.0°C | 4.1% | 40.8hPa | 2.6V | 00:00:00 | 01:27:29 | 00:00:00 | |
| OE5FHM-15 | 2026-08-30 11:57:16 | 48.29989 | 12.35745 | 182° | 7km/h | 22274m | 4.6m/s | -53.9°C | 4.1% | 40.8hPa | 2.6V | 00:00:00 | 01:27:28 | 00:00:00 | |
| DO3MHA-11 | 2026-08-30 11:57:15 | 48.29989 | 12.35745 | 37° | 5km/h | 22269m | 5.7m/s | -53.9°C | 4.0% | 40.8hPa | 2.6V | 00:00:00 | 01:27:27 | 08:30:00 | |
| OE5MMP-10 | 2026-08-30 11:57:12 | 48.29987 | 12.35747 | 296° | 5km/h | 22253m | 6.0m/s | -54.0°C | 4.0% | 41.0hPa | 2.6V | 00:00:00 | 01:27:24 | 00:00:00 | |
| OE5DXL-15 | 2026-08-30 11:57:11 | 48.29987 | 12.35749 | 278° | 9km/h | 22247m | 4.6m/s | -54.0°C | 4.1% | 41.0hPa | 2.6V | 00:00:00 | 00:00:00 | 00:00:00 | |
| DG1MFX-10 | 2026-08-30 11:57:09 | 48.29987 | 12.35752 | 265° | 7km/h | 22243m | 4.0m/s | -54.0°C | 1.1% | 41.1hPa | 2.6V | 00:00:00 | 00:00:00 | 00:00:00 | |
| OE5HKT-10 | 2026-08-30 11:57:08 | 48.29988 | 12.35755 | 183° | 5km/h | 22232m | 5.3m/s | -54.0°C | 4.1% | 41.1hPa | 2.6V | 00:00:00 | 00:00:00 | 00:00:00 | |
| DO3MHA-11 | 2026-08-30 11:57:05 | 48.29992 | 12.35752 | 155° | 5km/h | 22217m | 5.7m/s | -54.1°C | 4.0% | 41.2hPa | 2.6V | 00:00:00 | 01:27:17 | 00:00:00 | |
| PETON7-10 | 2026-08-30 11:57:03 | 48.29993 | 12.35751 | 48° | 7km/h | 22207m | 4.4m/s | -54.3°C | 4.1% | 41.3hPa | 2.6V | 00:00:00 | 00:00:00 | 00:00:00 | |
| BAUMI2-15 | 2026-08-30 11:57:02 | 48.29992 | 12.35750 | 30° | 9km/h | 22202m | 6.1m/s | -54.2°C | 4.0% | 41.3hPa | 2.6V | 00:00:00 | 01:27:14 | 00:00:00 | |
| NBG1-10 | 2026-08-30 11:56:59 | 48.29986 | 12.35747 | 2° | 7km/h | 22186m | 5.8m/s | 0°C | 0% | 0hPa | 2.6V | 00:00:00 | 01:27:11 | 00:00:00 | |
| BAUMI2-15 | 2026-08-30 11:56:57 | 48.29982 | 12.35747 | 347° | 4km/h | 22177m | 4.2m/s | -54.5°C | 4.1% | 41.5hPa | 2.6V | 00:00:00 | 01:27:09 | 00:00:00 | |
| DO3MHA-11 | 2026-08-30 11:56:55 | 48.29981 | 12.35747 | 91° | 11km/h | 22166m | 5.2m/s | -54.7°C | 4.2% | 41.5hPa | 2.6V | 00:00:00 | 01:27:07 | 00:00:00 | |
| OE5REO-15 | 2026-08-30 11:56:54 | 48.29981 | 12.35747 | 91° | 4km/h | 22166m | 5.3m/s | -54.8°C | 1.2% | 41.6hPa | 2.6V | 00:00:00 | 00:00:00 | 00:00:00 | |
| OE3JTB-15 | 2026-08-30 11:56:53 | 48.29982 | 12.35745 | 140° | 11km/h | 22155m | 5.3m/s | -54.7°C | 4.3% | 41.6hPa | 2.6V | 00:00:00 | 01:27:05 | 00:00:00 | |
| BAUMI2-15 | 2026-08-30 11:56:52 | 48.29982 | 12.35743 | 115° | 9km/h | 22151m | 3.7m/s | -54.7°C | 4.3% | 41.6hPa | 2.6V | 00:00:00 | 01:27:04 | 00:00:00 | |
| OE5MMP-10 | 2026-08-30 11:56:50 | 48.29982 | 12.35739 | 64° | 15km/h | 22142m | 5.5m/s | -54.8°C | 4.3% | 41.7hPa | 2.6V | 00:00:00 | 01:27:02 | 00:00:00 | |
| DG1MFX-10 | 2026-08-30 11:56:49 | 48.29982 | 12.35739 | 65° | 11km/h | 22142m | 5.6m/s | -54.9°C | 1.2% | 41.7hPa | 2.6V | 00:00:00 | 00:00:00 | 00:00:00 | |
| PETON7-10 | 2026-08-30 11:56:48 | 48.29977 | 12.35729 | 49° | 15km/h | 22132m | 4.5m/s | -54.7°C | 4.3% | 41.8hPa | 2.6V | 00:00:00 | 01:27:00 | 00:00:00 | |
| OE5HKT-10 | 2026-08-30 11:56:47 | 48.29973 | 12.35724 | 41° | 13km/h | 22128m | 3.6m/s | -54.8°C | 4.3% | 41.8hPa | 2.6V | 00:00:00 | 01:26:59 | 00:00:00 | |
| OE5FHM-15 | 2026-08-30 11:56:46 | 48.29969 | 12.35720 | 31° | 15km/h | 22123m | 5.4m/s | -54.8°C | 4.3% | 41.8hPa | 2.6V | 00:00:00 | 01:26:58 | 08:30:00 | |
| DO3MHA-11 | 2026-08-30 11:56:45 | 48.29966 | 12.35718 | 12° | 13km/h | 22118m | 5.1m/s | -54.7°C | 4.3% | 41.8hPa | 2.6V | 00:00:00 | 01:26:57 | 00:00:00 | |
| BAUMI2-15 | 2026-08-30 11:56:42 | 48.29958 | 12.35721 | 336° | 11km/h | 22103m | 5.6m/s | -54.7°C | 4.2% | 41.9hPa | 2.7V | 00:00:00 | 01:26:54 | 00:00:00 | |
| OE5REO-15 | 2026-08-30 11:56:38 | 48.29951 | 12.35722 | 361° | 11km/h | 22088m | 5.4m/s | -54.6°C | 1.1% | 42.1hPa | 2.7V | 00:00:00 | 00:00:00 | 00:00:00 | |
| OE5WHR-10 | 2026-08-30 11:56:36 | 48.29940 | 12.35720 | 17° | 15km/h | 22071m | 6.1m/s | -54.4°C | 4.1% | 42.1hPa | 2.7V | 00:00:00 | 00:00:00 | 08:30:00 | |
| DO3MHA-11 | 2026-08-30 11:56:35 | 48.29934 | 12.35717 | 25° | 16km/h | 22066m | 4.9m/s | -54.4°C | 4.1% | 42.2hPa | 2.6V | 00:00:00 | 01:26:47 | 00:00:00 | |
| PETON7-10 | 2026-08-30 11:56:33 | 48.29924 | 12.35711 | 17° | 15km/h | 22058m | 5.2m/s | -54.5°C | 4.2% | 42.3hPa | 2.6V | 00:00:00 | 00:00:00 | 00:00:00 | |
| BAUMI2-15 | 2026-08-30 11:56:32 | 48.29919 | 12.35710 | 3° | 15km/h | 22053m | 5.3m/s | -54.6°C | 4.3% | 42.2hPa | 2.6V | 00:00:00 | 01:26:44 | 00:00:00 | |
| DG1MFX-10 | 2026-08-30 11:56:29 | 48.29908 | 12.35714 | 332° | 13km/h | 22036m | 5.0m/s | -54.7°C | 1.2% | 42.4hPa | 2.6V | 00:00:00 | 00:00:00 | 00:00:00 | |
| OE5DRO-10 | 2026-08-30 11:56:28 | 48.29906 | 12.35716 | 326° | 11km/h | 22032m | 4.8m/s | -54.6°C | 4.3% | 42.4hPa | 2.6V | 00:00:00 | 00:00:00 | 00:00:00 | |
| BAUMI2-15 | 2026-08-30 11:56:27 | 48.29903 | 12.35719 | 316° | 11km/h | 22027m | 4.8m/s | -54.7°C | 4.3% | 42.5hPa | 2.6V | 00:00:00 | 01:26:39 | 08:30:00 | |
| DO3MHA-11 | 2026-08-30 11:56:25 | 48.29899 | 12.35726 | 313° | 13km/h | 22016m | 4.6m/s | -54.6°C | 4.2% | 42.5hPa | 2.6V | 00:00:00 | 01:26:37 | 00:00:00 | |
| OE5REO-15 | 2026-08-30 11:56:23 | 48.29897 | 12.35729 | 329° | 11km/h | 22011m | 4.8m/s | -54.7°C | 1.2% | 42.6hPa | 2.6V | 00:00:00 | 00:00:00 | 00:00:00 | |
| BAUMI2-15 | 2026-08-30 11:56:22 | 48.29892 | 12.35730 | 16° | 15km/h | 22000m | 4.3m/s | -54.7°C | 4.3% | 42.6hPa | 2.6V | 00:00:00 | 01:26:34 | 00:00:00 | |
| PETON7-10 | 2026-08-30 11:56:18 | 48.29878 | 12.35729 | 329° | 11km/h | 21982m | 4.3m/s | -54.8°C | 4.3% | 42.8hPa | 2.6V | 00:00:00 | 00:00:00 | 00:00:00 | |
| OE5FHM-15 | 2026-08-30 11:56:16 | 48.29874 | 12.35736 | 303° | 11km/h | 21972m | 4.8m/s | -54.6°C | 4.3% | 42.8hPa | 2.6V | 00:00:00 | 01:26:28 | 00:00:00 | |
| OE5WHR-10 | 2026-08-30 11:56:15 | 48.29872 | 12.35740 | 306° | 13km/h | 21967m | 5.1m/s | -54.6°C | 4.2% | 42.8hPa | 2.6V | 00:00:00 | 00:00:00 | 00:00:00 | |
| OE3JTB-15 | 2026-08-30 11:56:14 | 48.29871 | 12.35743 | 317° | 11km/h | 21962m | 5.2m/s | -54.7°C | 4.3% | 42.9hPa | 2.6V | 00:00:00 | 00:00:00 | 08:30:00 | |
| OE5DXL-15 | 2026-08-30 11:56:12 | 48.29864 | 12.35751 | 316° | 11km/h | 21947m | 5.8m/s | -54.7°C | 4.3% | 43.0hPa | 2.6V | 00:00:00 | 00:00:00 | 00:00:00 | |
| OE5DRO-10 | 2026-08-30 11:56:09 | 48.29860 | 12.35757 | 329° | 13km/h | 21936m | 5.0m/s | -54.8°C | 4.3% | 43.0hPa | 2.6V | 00:00:00 | 00:00:00 | 00:00:00 | |
| DG1MFX-10 | 2026-08-30 11:56:08 | 48.29860 | 12.35757 | 329° | 13km/h | 21936m | 5.1m/s | -54.9°C | 1.2% | 43.1hPa | 2.6V | 00:00:00 | 00:00:00 | 00:00:00 | |
| OE5REO-15 | 2026-08-30 11:56:07 | 48.29857 | 12.35758 | 346° | 11km/h | 21931m | 5.6m/s | -54.8°C | 1.2% | 43.1hPa | 2.6V | 00:00:00 | 00:00:00 | 00:00:00 | |
| DO3MHA-11 | 2026-08-30 11:56:05 | 48.29850 | 12.35760 | 332° | 13km/h | 21916m | 5.9m/s | -54.6°C | 4.3% | 43.2hPa | 2.6V | 00:00:00 | 01:26:17 | 00:00:00 | |
| PETON7-10 | 2026-08-30 11:56:03 | 48.29847 | 12.35765 | 308° | 13km/h | 21907m | 4.1m/s | -54.5°C | 4.3% | 43.3hPa | 2.6V | 00:00:00 | 01:26:15 | 00:00:00 | |
| DF7PN | 2026-08-30 11:55:55 | 48.29813 | 12.35809 | 316° | 5km/h | 21831m | 4.6m/s | 0°C | -1.0% | -1.0hPa | 2.6V | 00:00:00 | 00:00:00 | 00:00:00 | |
| OE5WHR-10 | 2026-08-30 11:55:54 | 48.29818 | 12.35793 | 328° | 9km/h | 21861m | 4.3m/s | -54.5°C | 4.2% | 43.6hPa | 2.6V | 00:00:00 | 01:26:06 | 00:00:00 | |
| OE5REO-15 | 2026-08-30 11:55:51 | 48.29815 | 12.35799 | 292° | 9km/h | 21851m | 5.1m/s | -54.6°C | 1.2% | 43.7hPa | 2.6V | 00:00:00 | 00:00:00 | 00:00:00 | |
| OE5DRO-10 | 2026-08-30 11:55:50 | 48.29814 | 12.35805 | 283° | 9km/h | 21841m | 5.0m/s | -54.5°C | 4.2% | 43.7hPa | 2.6V | 00:00:00 | 00:00:00 | 08:30:00 | |
| PETON7-10 | 2026-08-30 11:55:48 | 48.29812 | 12.35809 | 317° | 9km/h | 21831m | 4.5m/s | -54.6°C | 4.2% | 43.8hPa | 2.6V | 00:00:00 | 00:00:00 | 08:30:00 | |
| OE5FHM-15 | 2026-08-30 11:55:46 | 48.29810 | 12.35814 | 308° | 7km/h | 21820m | 4.8m/s | -54.4°C | 4.1% | 43.9hPa | 2.7V | 00:00:00 | 01:25:58 | 00:00:00 | |
| DO3MHA-11 | 2026-08-30 11:55:45 | 48.29808 | 12.35817 | 310° | 11km/h | 21816m | 3.6m/s | -54.5°C | 4.1% | 43.9hPa | 2.7V | 00:00:00 | 01:25:57 | 08:30:00 | |
| OE3JTB-15 | 2026-08-30 11:55:43 | 48.29803 | 12.35824 | 325° | 7km/h | 21807m | 5.0m/s | -54.4°C | 4.1% | 43.9hPa | 2.7V | 00:00:00 | 00:00:00 | 00:00:00 | |
| OE5DXL-15 | 2026-08-30 11:55:41 | 48.29798 | 12.35829 | 315° | 5km/h | 21797m | 4.1m/s | -54.6°C | 4.2% | 44.0hPa | 2.7V | 00:00:00 | 00:00:00 | 00:00:00 | |
| NBG1-10 | 2026-08-30 11:55:38 | 48.29795 | 12.35840 | 274° | 7km/h | 21783m | 4.2m/s | 0°C | 0% | 0hPa | 2.7V | 00:00:00 | 01:25:50 | 00:00:00 | |
| OE5MMP-10 | 2026-08-30 11:55:36 | 48.29796 | 12.35845 | 228° | 5km/h | 21773m | 4.7m/s | -54.6°C | 4.2% | 44.2hPa | 2.7V | 00:00:00 | 01:25:48 | 00:00:00 | |
| DO3MHA-11 | 2026-08-30 11:55:35 | 48.29796 | 12.35846 | 192° | 5km/h | 21768m | 4.0m/s | -54.7°C | 4.2% | 44.2hPa | 2.6V | 00:00:00 | 01:25:47 | 00:00:00 | |
| OE5WHR-10 | 2026-08-30 11:55:33 | 48.29798 | 12.35847 | 219° | 5km/h | 21758m | 4.5m/s | -54.6°C | 4.2% | 44.3hPa | 2.6V | 00:00:00 | 00:00:00 | 00:00:00 | |
| DG1MFX-10 | 2026-08-30 11:55:27 | 48.29792 | 12.35848 | 335° | 9km/h | 21734m | 5.6m/s | -54.9°C | 1.2% | 44.5hPa | 2.6V | 00:00:00 | 00:00:00 | 00:00:00 | |
| OE5MMP-10 | 2026-08-30 11:55:26 | 48.29789 | 12.35852 | 314° | 4km/h | 21725m | 5.3m/s | -54.7°C | 4.3% | 44.5hPa | 2.6V | 00:00:00 | 01:25:38 | 00:00:00 | |
| DO3MHA-11 | 2026-08-30 11:55:25 | 48.29788 | 12.35853 | 321° | 5km/h | 21719m | 5.3m/s | -54.8°C | 4.3% | 44.6hPa | 2.6V | 00:00:00 | 01:25:37 | 00:00:00 | |
| OE5REO-15 | 2026-08-30 11:55:20 | 48.29788 | 12.35860 | 250° | 5km/h | 21700m | 3.5m/s | -54.8°C | 1.2% | 44.7hPa | 2.6V | 00:00:00 | 00:00:00 | 00:00:00 | |
| PETON7-10 | 2026-08-30 11:55:18 | 48.29788 | 12.35863 | 346° | 5km/h | 21685m | 4.2m/s | -54.8°C | 4.2% | 44.8hPa | 2.6V | 00:00:00 | 01:25:30 | 00:00:00 | |
| OE5MMP-10 | 2026-08-30 11:55:16 | 48.29787 | 12.35865 | 296° | 5km/h | 21675m | 5.2m/s | -54.9°C | 4.3% | 44.9hPa | 2.6V | 00:00:00 | 01:25:28 | 00:00:00 | |
| DO3MHA-11 | 2026-08-30 11:55:15 | 48.29786 | 12.35867 | 289° | 7km/h | 21670m | 4.9m/s | -54.8°C | 4.3% | 44.9hPa | 2.6V | 00:00:00 | 01:25:27 | 00:00:00 | |
| DL6DJ-15 | 2026-08-30 11:55:14 | 48.29786 | 12.35869 | 298° | 5km/h | 21665m | 5.6m/s | -54.9°C | 1.2% | 45.0hPa | 2.7V | 00:00:00 | 00:00:00 | 00:00:00 | |
| OE5WHR-10 | 2026-08-30 11:55:12 | 48.29783 | 12.35874 | 303° | 9km/h | 21655m | 4.0m/s | -54.8°C | 4.3% | 45.0hPa | 2.7V | 00:00:00 | 00:00:00 | 00:00:00 | |
| OE5HKT-10 | 2026-08-30 11:55:11 | 48.29783 | 12.35876 | 282° | 9km/h | 21650m | 5.7m/s | -54.8°C | 4.3% | 45.1hPa | 2.7V | 00:00:00 | 00:00:00 | 08:30:00 | |
| OE3JTB-15 | 2026-08-30 11:55:08 | 48.29783 | 12.35883 | 256° | 11km/h | 21635m | 5.8m/s | -54.8°C | 4.3% | 45.1hPa | 2.6V | 00:00:00 | 01:25:20 | 00:00:00 | |
| OE5MMP-10 | 2026-08-30 11:55:06 | 48.29783 | 12.35885 | 336° | 7km/h | 21626m | 4.0m/s | -54.6°C | 4.2% | 45.2hPa | 2.6V | 00:00:00 | 01:25:18 | 08:30:00 | |
| DO3MHA-11 | 2026-08-30 11:55:04 | 48.29781 | 12.35887 | 297° | 11km/h | 21616m | 5.0m/s | -54.7°C | 4.3% | 45.3hPa | 2.6V | 00:00:00 | 01:25:16 | 00:00:00 | |
| NBG1-10 | 2026-08-30 11:55:03 | 48.29780 | 12.35889 | 292° | 15km/h | 21612m | 4.1m/s | 0°C | 0% | 0hPa | 2.6V | 00:00:00 | 01:25:15 | 00:00:00 | |
| DF7PN | 2026-08-30 11:54:52 | 48.29764 | 12.35956 | 288° | 15km/h | 21533m | 5.0m/s | 0°C | -1.0% | -1.0hPa | 2.6V | 00:00:00 | 00:00:00 | 00:00:00 | |
| OE5WHR-10 | 2026-08-30 11:54:51 | 48.29773 | 12.35935 | 301° | 13km/h | 21553m | 4.8m/s | -54.8°C | 4.3% | 45.7hPa | 2.6V | 00:00:00 | 01:25:03 | 00:00:00 | |
| OE5HKT-10 | 2026-08-30 11:54:48 | 48.29766 | 12.35951 | 302° | 11km/h | 21538m | 4.6m/s | -54.7°C | 4.3% | 45.9hPa | 2.6V | 00:00:00 | 00:00:00 | 00:00:00 | |
| DO3MHA-11 | 2026-08-30 11:54:46 | 48.29764 | 12.35961 | 273° | 13km/h | 21528m | 5.6m/s | -54.7°C | 4.3% | 45.9hPa | 2.6V | 00:00:00 | 01:24:58 | 00:00:00 | |
| DL6DJ-15 | 2026-08-30 11:54:43 | 48.29766 | 12.35982 | 256° | 16km/h | 21514m | 5.7m/s | -54.6°C | 1.2% | 46.1hPa | 2.6V | 00:00:00 | 00:00:00 | 00:00:00 | |
| OE5DXL-15 | 2026-08-30 11:54:41 | 48.29767 | 12.35993 | 279° | 9km/h | 21504m | 4.3m/s | -54.5°C | 4.3% | 46.1hPa | 2.6V | 00:00:00 | 00:00:00 | 00:00:00 | |
| OE3JTB-15 | 2026-08-30 11:54:39 | 48.29765 | 12.36003 | 289° | 9km/h | 21494m | 5.7m/s | -54.4°C | 4.2% | 46.2hPa | 2.6V | 00:00:00 | 00:00:00 | 00:00:00 | |
| OE5MMP-10 | 2026-08-30 11:54:36 | 48.29762 | 12.36017 | 287° | 7km/h | 21480m | 5.9m/s | -54.4°C | 4.2% | 46.3hPa | 2.7V | 00:00:00 | 01:24:48 | 00:00:00 | |
| PETON7-10 | 2026-08-30 11:54:33 | 48.29763 | 12.36023 | 233° | 9km/h | 21464m | 5.4m/s | -54.4°C | 4.2% | 46.4hPa | 2.7V | 00:00:00 | 01:24:45 | 00:00:00 | |
| OE5REO-15 | 2026-08-30 11:54:32 | 48.29763 | 12.36023 | 233° | 7km/h | 21464m | 5.5m/s | -54.5°C | 1.1% | 46.4hPa | 2.7V | 00:00:00 | 00:00:00 | 00:00:00 | |
| OE5WHR-10 | 2026-08-30 11:54:30 | 48.29768 | 12.36031 | 221° | 7km/h | 21449m | 5.7m/s | -54.3°C | 4.3% | 46.5hPa | 2.7V | 00:00:00 | 00:00:00 | 00:00:00 | |
| OE5HKT-10 | 2026-08-30 11:54:26 | 48.29772 | 12.36042 | 273° | 7km/h | 21429m | 4.7m/s | -54.3°C | 4.2% | 46.7hPa | 2.7V | 00:00:00 | 01:24:38 | 00:00:00 | |
| DG1MFX-10 | 2026-08-30 11:54:25 | 48.29772 | 12.36042 | 273° | 13km/h | 21429m | 4.8m/s | -54.3°C | 1.2% | 46.7hPa | 2.7V | 00:00:00 | 00:00:00 | 00:00:00 | |
| PETON7-10 | 2026-08-30 11:54:18 | 48.29766 | 12.36058 | 191° | 5km/h | 21390m | 4.6m/s | -54.1°C | 4.2% | 46.9hPa | 2.7V | 00:00:00 | 00:00:00 | 00:00:00 | |
| BAUMI2-15 | 2026-08-30 11:54:17 | 48.29768 | 12.36058 | 176° | 5km/h | 21385m | 5.9m/s | -54.1°C | 4.2% | 47.0hPa | 2.7V | 00:00:00 | 01:24:29 | 00:00:00 | |
| OE5FHM-15 | 2026-08-30 11:54:16 | 48.29770 | 12.36058 | 160° | 7km/h | 21379m | 5.2m/s | -54.0°C | 4.2% | 47.0hPa | 2.7V | 00:00:00 | 01:24:28 | 00:00:00 | |
| BAUMI2-15 | 2026-08-30 11:54:12 | 48.29774 | 12.36058 | 263° | 4km/h | 21360m | 3.9m/s | -54.0°C | 4.1% | 47.2hPa | 2.7V | 00:00:00 | 01:24:24 | 00:00:00 | |
| OE5DXL-15 | 2026-08-30 11:54:11 | 48.29774 | 12.36058 | 350° | 7km/h | 21356m | 5.1m/s | -53.9°C | 4.0% | 47.2hPa | 2.7V | 00:00:00 | 00:00:00 | 00:00:00 | |
| OE5WHR-10 | 2026-08-30 11:54:09 | 48.29772 | 12.36056 | 54° | 7km/h | 21345m | 4.9m/s | -54.0°C | 4.1% | 47.3hPa | 2.7V | 00:00:00 | 00:00:00 | 00:00:00 | |
| OE3JTB-15 | 2026-08-30 11:54:08 | 48.29771 | 12.36054 | 60° | 7km/h | 21341m | 4.9m/s | -54.0°C | 4.0% | 47.3hPa | 2.7V | 00:00:00 | 00:00:00 | 00:00:00 | |
| BAUMI2-15 | 2026-08-30 11:54:07 | 48.29771 | 12.36053 | 78° | 7km/h | 21335m | 5.5m/s | -53.9°C | 4.0% | 47.4hPa | 2.7V | 00:00:00 | 01:24:19 | 00:00:00 | |
| OE5MMP-10 | 2026-08-30 11:54:06 | 48.29771 | 12.36051 | 118° | 7km/h | 21330m | 4.0m/s | -53.9°C | 4.0% | 47.4hPa | 2.7V | 00:00:00 | 01:24:18 | 00:00:00 | |
| DG1MFX-10 | 2026-08-30 11:54:05 | 48.29771 | 12.36051 | 118° | 4km/h | 21330m | 4.1m/s | -53.9°C | 1.2% | 47.4hPa | 2.7V | 00:00:00 | 00:00:00 | 00:00:00 | |
| PETON7-10 | 2026-08-30 11:54:03 | 48.29775 | 12.36045 | 133° | 9km/h | 21316m | 4.7m/s | -53.9°C | 4.0% | 47.5hPa | 2.7V | 00:00:00 | 00:00:00 | 00:00:00 | |
| BAUMI2-15 | 2026-08-30 11:54:02 | 48.29777 | 12.36042 | 144° | 7km/h | 21311m | 4.6m/s | -53.9°C | 4.1% | 47.5hPa | 2.7V | 00:00:00 | 01:24:14 | 00:00:00 | |
| OE5REO-15 | 2026-08-30 11:54:00 | 48.29779 | 12.36040 | 159° | 9km/h | 21306m | 5.8m/s | -54.1°C | 1.2% | 47.6hPa | 2.7V | 00:00:00 | 00:00:00 | 00:00:00 | |
| DO3MHA-11 | 2026-08-30 11:53:58 | 48.29784 | 12.36039 | 154° | 5km/h | 21292m | 5.4m/s | -54.0°C | 4.1% | 47.7hPa | 2.7V | 00:00:00 | 01:24:10 | 00:00:00 | |
| BAUMI2-15 | 2026-08-30 11:53:57 | 48.29785 | 12.36038 | 130° | 5km/h | 21286m | 5.2m/s | -54.0°C | 4.1% | 47.7hPa | 2.7V | 00:00:00 | 01:24:09 | 00:00:00 | |
| OE5MMP-10 | 2026-08-30 11:53:56 | 48.29786 | 12.36036 | 116° | 9km/h | 21281m | 4.7m/s | -54.1°C | 4.2% | 47.8hPa | 2.7V | 00:00:00 | 01:24:08 | 00:00:00 | |
| OE5DRO-10 | 2026-08-30 11:53:54 | 48.29787 | 12.36032 | 130° | 13km/h | 21271m | 4.3m/s | -54.1°C | 4.1% | 47.8hPa | 2.7V | 00:00:00 | 00:00:00 | 00:00:00 | |
| BAUMI2-15 | 2026-08-30 11:53:52 | 48.29789 | 12.36029 | 127° | 13km/h | 21262m | 5.8m/s | -54.2°C | 4.1% | 47.9hPa | 2.7V | 00:00:00 | 01:24:04 | 00:00:00 | |
| PETON7-10 | 2026-08-30 11:53:48 | 48.29799 | 12.36015 | 155° | 7km/h | 21241m | 5.0m/s | -54.2°C | 4.1% | 48.1hPa | 2.7V | 00:00:00 | 01:24:00 | 00:00:00 | |
| OE5WHR-10 | 2026-08-30 11:53:47 | 48.29801 | 12.36013 | 158° | 7km/h | 21236m | 4.6m/s | -54.2°C | 4.1% | 48.1hPa | 2.7V | 00:00:00 | 01:23:59 | 00:00:00 | |
| OE5FHM-15 | 2026-08-30 11:53:46 | 48.29803 | 12.36012 | 148° | 11km/h | 21231m | 5.7m/s | -54.1°C | 4.1% | 48.1hPa | 2.7V | 00:00:00 | 01:23:58 | 00:00:00 | |
| OE5REO-15 | 2026-08-30 11:53:45 | 48.29803 | 12.36012 | 149° | 9km/h | 21231m | 5.7m/s | -54.2°C | 1.2% | 48.2hPa | 2.6V | 00:00:00 | 00:00:00 | 00:00:00 | |
| DG1MFX-10 | 2026-08-30 11:53:44 | 48.29805 | 12.36010 | 135° | 7km/h | 21226m | 4.4m/s | -54.1°C | 1.2% | 48.2hPa | 2.6V | 00:00:00 | 00:00:00 | 00:00:00 | |
| BAUMI2-15 | 2026-08-30 11:53:42 | 48.29806 | 12.36006 | 357° | 7km/h | 21211m | 4.7m/s | -54.1°C | 4.1% | 48.3hPa | 2.6V | 00:00:00 | 01:23:54 | 08:30:00 | |
| OE5DXL-15 | 2026-08-30 11:53:41 | 48.29805 | 12.36006 | 30° | 11km/h | 21207m | 4.1m/s | -54.2°C | 4.1% | 48.3hPa | 2.7V | 00:00:00 | 00:00:00 | 08:30:00 | |
| DO3MHA-11 | 2026-08-30 11:53:40 | 48.29805 | 12.36005 | 62° | 11km/h | 21202m | 5.9m/s | -54.3°C | 4.1% | 48.3hPa | 2.7V | 00:00:00 | 01:23:52 | 00:00:00 | |
| OE3JTB-15 | 2026-08-30 11:53:39 | 48.29804 | 12.36002 | 82° | 15km/h | 21196m | 5.0m/s | -54.3°C | 4.2% | 48.4hPa | 2.7V | 00:00:00 | 01:23:51 | 00:00:00 | |
| DO7DH-14 | 2026-08-30 11:53:38 | 48.29804 | 12.35999 | 97° | 15km/h | 21192m | 4.2m/s | 0°C | 0% | 0hPa | 2.7V | 00:00:00 | 01:23:50 | 00:00:00 | |
| BAUMI2-15 | 2026-08-30 11:53:37 | 48.29805 | 12.35995 | 112° | 9km/h | 21187m | 5.7m/s | -54.3°C | 4.2% | 48.5hPa | 2.7V | 00:00:00 | 01:23:49 | 00:00:00 | |
| OE5MMP-10 | 2026-08-30 11:53:36 | 48.29806 | 12.35991 | 130° | 9km/h | 21181m | 5.3m/s | -54.3°C | 4.2% | 48.5hPa | 2.7V | 00:00:00 | 01:23:48 | 08:30:00 | |
| PETON7-10 | 2026-08-30 11:53:33 | 48.29810 | 12.35985 | 111° | 13km/h | 21168m | 5.4m/s | -54.3°C | 4.2% | 48.6hPa | 2.6V | 00:00:00 | 00:00:00 | 08:30:00 | |
| BAUMI2-15 | 2026-08-30 11:53:32 | 48.29810 | 12.35982 | 85° | 9km/h | 21162m | 5.1m/s | -54.3°C | 4.2% | 48.6hPa | 2.7V | 00:00:00 | 01:23:44 | 00:00:00 | |
| OE5REO-15 | 2026-08-30 11:53:30 | 48.29810 | 12.35979 | 75° | 9km/h | 21157m | 4.5m/s | -54.3°C | 1.2% | 48.8hPa | 2.7V | 00:00:00 | 00:00:00 | 00:00:00 | |
| BAUMI2-15 | 2026-08-30 11:53:27 | 48.29803 | 12.35968 | 28° | 15km/h | 21137m | 6.1m/s | -54.4°C | 4.1% | 48.8hPa | 2.7V | 00:00:00 | 01:23:39 | 00:00:00 | |
| OE5MMP-10 | 2026-08-30 11:53:26 | 48.29799 | 12.35965 | 22° | 15km/h | 21131m | 4.8m/s | -54.4°C | 4.1% | 48.9hPa | 2.7V | 00:00:00 | 01:23:38 | 00:00:00 | |
| DG1MFX-10 | 2026-08-30 11:53:23 | 48.29792 | 12.35961 | 23° | 15km/h | 21121m | 5.2m/s | -54.4°C | 1.2% | 49.0hPa | 2.7V | 00:00:00 | 00:00:00 | 00:00:00 | |
| BAUMI2-15 | 2026-08-30 11:53:22 | 48.29786 | 12.35956 | 44° | 15km/h | 21111m | 4.2m/s | -54.3°C | 4.2% | 49.0hPa | 2.7V | 00:00:00 | 01:23:34 | 00:00:00 | |
| DO3MHA-11 | 2026-08-30 11:53:20 | 48.29781 | 12.35947 | 53° | 11km/h | 21101m | 5.1m/s | -54.2°C | 4.1% | 49.1hPa | 2.7V | 00:00:00 | 01:23:32 | 08:30:00 | |
| PETON7-10 | 2026-08-30 11:53:18 | 48.29776 | 12.35937 | 50° | 11km/h | 21091m | 5.6m/s | -54.3°C | 4.1% | 49.2hPa | 2.6V | 00:00:00 | 00:00:00 | 00:00:00 | |
| BAUMI2-15 | 2026-08-30 11:53:17 | 48.29773 | 12.35934 | 35° | 11km/h | 21086m | 4.9m/s | -54.3°C | 4.1% | 49.2hPa | 2.6V | 00:00:00 | 01:23:29 | 00:00:00 | |
| OE5MMP-10 | 2026-08-30 11:53:16 | 48.29771 | 12.35932 | 14° | 11km/h | 21081m | 4.5m/s | -54.3°C | 4.1% | 49.3hPa | 2.6V | 00:00:00 | 01:23:28 | 00:00:00 | |
| OE5REO-15 | 2026-08-30 11:53:14 | 48.29769 | 12.35931 | 7° | 11km/h | 21076m | 5.6m/s | -54.4°C | 1.1% | 49.4hPa | 2.6V | 00:00:00 | 00:00:00 | 00:00:00 | |
| OE5DRO-10 | 2026-08-30 11:53:13 | 48.29763 | 12.35930 | 6° | 15km/h | 21065m | 4.7m/s | -54.4°C | 4.2% | 49.4hPa | 2.6V | 00:00:00 | 00:00:00 | 00:00:00 | |
| BAUMI2-15 | 2026-08-30 11:53:12 | 48.29760 | 12.35930 | 3° | 9km/h | 21061m | 3.6m/s | -54.4°C | 4.2% | 49.5hPa | 2.6V | 00:00:00 | 01:23:24 | 00:00:00 | |
| OE5DXL-15 | 2026-08-30 11:53:11 | 48.29757 | 12.35930 | 355° | 13km/h | 21056m | 5.9m/s | -54.5°C | 4.2% | 49.5hPa | 2.6V | 00:00:00 | 00:00:00 | 00:00:00 | |
| DL6DJ-15 | 2026-08-30 11:53:10 | 48.29755 | 12.35931 | 345° | 7km/h | 21050m | 5.4m/s | -54.5°C | 1.2% | 49.6hPa | 2.6V | 00:00:00 | 00:00:00 | 00:00:00 | |
| BAUMI2-15 | 2026-08-30 11:53:07 | 48.29749 | 12.35930 | 17° | 9km/h | 21035m | 4.4m/s | -54.4°C | 4.3% | 49.6hPa | 2.6V | 00:00:00 | 01:23:19 | 00:00:00 | |
| OE5MMP-10 | 2026-08-30 11:53:06 | 48.29747 | 12.35930 | 9° | 16km/h | 21030m | 5.3m/s | -54.5°C | 4.3% | 49.7hPa | 2.6V | 00:00:00 | 01:23:18 | 00:00:00 | |
| OE5WHR-10 | 2026-08-30 11:53:05 | 48.29744 | 12.35930 | 354° | 15km/h | 21024m | 5.4m/s | -54.7°C | 4.3% | 49.7hPa | 2.7V | 00:00:00 | 00:00:00 | 00:00:00 | |
| PETON7-10 | 2026-08-30 11:53:03 | 48.29739 | 12.35931 | 355° | 15km/h | 21014m | 5.9m/s | -54.7°C | 4.3% | 49.8hPa | 2.7V | 00:00:00 | 01:23:15 | 00:00:00 | |
| BAUMI2-15 | 2026-08-30 11:53:02 | 48.29735 | 12.35931 | 358° | 20km/h | 21009m | 5.0m/s | -54.8°C | 4.3% | 49.9hPa | 2.7V | 00:00:00 | 01:23:14 | 00:00:00 | |
| DO7DH-14 | 2026-08-30 11:53:01 | 48.29731 | 12.35932 | 352° | 11km/h | 21003m | 4.8m/s | 0°C | 0% | 0hPa | 2.7V | 00:00:00 | 01:23:13 | 00:00:00 | |
| OE5REO-15 | 2026-08-30 11:52:59 | 48.29726 | 12.35934 | 344° | 20km/h | 20998m | 6.1m/s | -54.9°C | 1.2% | 50.0hPa | 2.7V | 00:00:00 | 00:00:00 | 00:00:00 | |
| BAUMI2-15 | 2026-08-30 11:52:57 | 48.29712 | 12.35945 | 327° | 16km/h | 20983m | 5.3m/s | -54.8°C | 4.3% | 50.1hPa | 2.7V | 00:00:00 | 01:23:09 | 08:30:00 | |
| OE5MMP-10 | 2026-08-30 11:52:56 | 48.29708 | 12.35949 | 329° | 11km/h | 20978m | 4.9m/s | -54.8°C | 4.3% | 50.1hPa | 2.6V | 00:00:00 | 01:23:08 | 00:00:00 | |
| DO3MHA-11 | 2026-08-30 11:52:55 | 48.29704 | 12.35952 | 327° | 11km/h | 20974m | 4.0m/s | -54.8°C | 4.3% | 50.1hPa | 2.6V | 00:00:00 | 01:23:07 | 00:00:00 | |
| OE5DRO-10 | 2026-08-30 11:52:54 | 48.29701 | 12.35956 | 319° | 11km/h | 20969m | 5.3m/s | -54.7°C | 4.3% | 50.2hPa | 2.6V | 00:00:00 | 00:00:00 | 00:00:00 | |
| BAUMI2-15 | 2026-08-30 11:52:52 | 48.29698 | 12.35962 | 301° | 9km/h | 20959m | 4.3m/s | -54.5°C | 4.3% | 50.3hPa | 2.7V | 00:00:00 | 01:23:04 | 00:00:00 | |
| BAUMI2-15 | 2026-08-30 11:52:47 | 48.29691 | 12.35976 | 302° | 11km/h | 20932m | 4.9m/s | -54.5°C | 4.3% | 50.5hPa | 2.7V | 00:00:00 | 01:22:59 | 00:00:00 | |
| OE5MMP-10 | 2026-08-30 11:52:46 | 48.29689 | 12.35979 | 311° | 11km/h | 20927m | 5.9m/s | -54.4°C | 4.3% | 50.5hPa | 2.7V | 00:00:00 | 01:22:58 | 00:00:00 | |
| DO3MHA-11 | 2026-08-30 11:52:45 | 48.29687 | 12.35982 | 324° | 11km/h | 20921m | 5.3m/s | -54.3°C | 4.3% | 50.6hPa | 2.7V | 00:00:00 | 01:22:57 | 00:00:00 | |
| OE5WHR-10 | 2026-08-30 11:52:44 | 48.29685 | 12.35984 | 326° | 9km/h | 20916m | 3.9m/s | -54.2°C | 4.2% | 50.6hPa | 2.7V | 00:00:00 | 01:22:56 | 00:00:00 | |
| DG1MFX-10 | 2026-08-30 11:52:43 | 48.29685 | 12.35984 | 326° | 11km/h | 20916m | 3.9m/s | -54.3°C | 1.2% | 50.6hPa | 2.7V | 00:00:00 | 00:00:00 | 00:00:00 | |
| BAUMI2-15 | 2026-08-30 11:52:42 | 48.29681 | 12.35990 | 310° | 11km/h | 20906m | 5.0m/s | -54.3°C | 4.1% | 50.7hPa | 2.7V | 00:00:00 | 01:22:54 | 00:00:00 | |
| OE5DXL-15 | 2026-08-30 11:52:41 | 48.29679 | 12.35993 | 316° | 7km/h | 20901m | 4.6m/s | -54.4°C | 4.2% | 50.7hPa | 2.7V | 00:00:00 | 00:00:00 | 00:00:00 | |
| DL6DJ-15 | 2026-08-30 11:52:39 | 48.29672 | 12.36000 | 322° | 9km/h | 20886m | 5.0m/s | -54.5°C | 1.2% | 50.9hPa | 2.7V | 00:00:00 | 00:00:00 | 00:00:00 | |
| BAUMI2-15 | 2026-08-30 11:52:37 | 48.29671 | 12.36003 | 308° | 5km/h | 20881m | 5.6m/s | -54.4°C | 4.2% | 50.9hPa | 2.7V | 00:00:00 | 01:22:49 | 00:00:00 | |
| OE5MMP-10 | 2026-08-30 11:52:36 | 48.29670 | 12.36005 | 294° | 7km/h | 20875m | 5.1m/s | -54.4°C | 4.2% | 50.9hPa | 2.7V | 00:00:00 | 01:22:48 | 00:00:00 | |
| OE5DRO-10 | 2026-08-30 11:52:35 | 48.29669 | 12.36007 | 296° | 5km/h | 20870m | 5.9m/s | -54.4°C | 4.2% | 50.9hPa | 2.7V | 00:00:00 | 00:00:00 | 00:00:00 | |
| DO3MHA-11 | 2026-08-30 11:52:34 | 48.29668 | 12.36009 | 325° | 7km/h | 20864m | 5.4m/s | -54.4°C | 4.2% | 51.0hPa | 2.7V | 00:00:00 | 01:22:46 | 00:00:00 | |
| PETON7-10 | 2026-08-30 11:52:32 | 48.29667 | 12.36010 | 319° | 5km/h | 20855m | 5.2m/s | -54.3°C | 4.2% | 51.1hPa | 2.7V | 00:00:00 | 00:00:00 | 00:00:00 | |
| DO7DH-14 | 2026-08-30 11:52:31 | 48.29666 | 12.36012 | 300° | 11km/h | 20849m | 5.6m/s | 0°C | 0% | 0hPa | 2.7V | 00:00:00 | 01:22:43 | 08:30:00 | |
| OE5MMP-10 | 2026-08-30 11:52:27 | 48.29659 | 12.36023 | 309° | 5km/h | 20823m | 5.7m/s | -54.1°C | 4.0% | 51.3hPa | 2.7V | 00:00:00 | 01:22:38 | 00:00:00 | |
| DO3MHA-11 | 2026-08-30 11:52:24 | 48.29658 | 12.36028 | 280° | 4km/h | 20814m | 3.9m/s | -53.9°C | 4.0% | 51.4hPa | 2.7V | 00:00:00 | 01:22:36 | 00:00:00 | |
| OE5WHR-10 | 2026-08-30 11:52:23 | 48.29657 | 12.36030 | 274° | 5km/h | 20809m | 5.4m/s | -53.9°C | 4.1% | 51.4hPa | 2.7V | 00:00:00 | 00:00:00 | 00:00:00 | |
| BAUMI2-15 | 2026-08-30 11:52:22 | 48.29657 | 12.36030 | 61° | 5km/h | 20804m | 5.7m/s | -54.0°C | 4.1% | 51.5hPa | 2.6V | 00:00:00 | 01:22:34 | 00:00:00 | |
| PETON7-10 | 2026-08-30 11:52:17 | 48.29654 | 12.36027 | 346° | 7km/h | 20779m | 5.1m/s | -54.2°C | 4.2% | 51.7hPa | 2.6V | 00:00:00 | 01:22:29 | 00:00:00 | |
| OE5FHM-15 | 2026-08-30 11:52:16 | 48.29652 | 12.36028 | 2° | 7km/h | 20773m | 6.2m/s | -54.2°C | 4.1% | 51.7hPa | 2.6V | 00:00:00 | 01:22:28 | 08:30:00 | |
| DO3MHA-11 | 2026-08-30 11:52:14 | 48.29649 | 12.36027 | 15° | 5km/h | 20763m | 4.0m/s | -54.3°C | 4.2% | 51.8hPa | 2.7V | 00:00:00 | 01:22:26 | 00:00:00 | |
| OE5DXL-15 | 2026-08-30 11:52:11 | 48.29651 | 12.36029 | 206° | 9km/h | 20748m | 4.0m/s | -54.3°C | 4.2% | 51.9hPa | 2.6V | 00:00:00 | 00:00:00 | 00:00:00 | |
| DL6DJ-15 | 2026-08-30 11:52:08 | 48.29656 | 12.36028 | 74° | 4km/h | 20729m | 4.4m/s | -54.3°C | 1.2% | 52.1hPa | 2.7V | 00:00:00 | 00:00:00 | 00:00:00 | |
| OE5MMP-10 | 2026-08-30 11:52:06 | 48.29655 | 12.36026 | 50° | 9km/h | 20724m | 5.4m/s | -54.3°C | 4.1% | 52.1hPa | 2.7V | 00:00:00 | 01:22:18 | 08:30:00 | |
| DO3MHA-11 | 2026-08-30 11:52:04 | 48.29652 | 12.36022 | 43° | 9km/h | 20715m | 5.3m/s | -54.4°C | 4.1% | 52.2hPa | 2.6V | 00:00:00 | 01:22:16 | 00:00:00 | |
| PETON7-10 | 2026-08-30 11:52:02 | 48.29647 | 12.36015 | 44° | 7km/h | 20704m | 4.3m/s | -54.2°C | 4.2% | 52.3hPa | 2.6V | 00:00:00 | 00:00:00 | 00:00:00 | |
| DG1MFX-10 | 2026-08-30 11:52:01 | 48.29647 | 12.36015 | 44° | 15km/h | 20704m | 4.3m/s | -54.3°C | 1.2% | 52.4hPa | 2.6V | 00:00:00 | 00:00:00 | 00:00:00 | |
| OE5REO-15 | 2026-08-30 11:51:57 | 48.29638 | 12.36009 | 13° | 5km/h | 20679m | 5.3m/s | -54.3°C | 1.2% | 52.5hPa | 2.6V | 00:00:00 | 00:00:00 | 00:00:00 | |
| OE5MMP-10 | 2026-08-30 11:51:56 | 48.29637 | 12.36008 | 20° | 7km/h | 20675m | 4.7m/s | -54.2°C | 4.2% | 52.5hPa | 2.6V | 00:00:00 | 01:22:08 | 00:00:00 | |
| DO3MHA-11 | 2026-08-30 11:51:54 | 48.29634 | 12.36008 | 349° | 9km/h | 20665m | 5.9m/s | -54.2°C | 4.2% | 52.6hPa | 2.6V | 00:00:00 | 01:22:06 | 00:00:00 | |
| PETON7-10 | 2026-08-30 11:51:47 | 48.29620 | 12.36006 | 352° | 13km/h | 20630m | 4.9m/s | -54.1°C | 4.2% | 52.9hPa | 2.6V | 00:00:00 | 00:00:00 | 00:00:00 | |
| OE5FHM-15 | 2026-08-30 11:51:46 | 48.29617 | 12.36006 | 347° | 16km/h | 20626m | 3.7m/s | -54.1°C | 4.1% | 52.9hPa | 2.6V | 00:00:00 | 01:21:58 | 00:00:00 | |
| DO3MHA-11 | 2026-08-30 11:51:44 | 48.29610 | 12.36008 | 360° | 13km/h | 20616m | 5.6m/s | -54.1°C | 4.0% | 53.0hPa | 2.6V | 00:00:00 | 01:21:56 | 08:30:00 | |
| OE5WHR-10 | 2026-08-30 11:51:41 | 48.29599 | 12.36007 | 356° | 16km/h | 20601m | 5.1m/s | -54.1°C | 4.1% | 53.1hPa | 2.7V | 00:00:00 | 01:21:53 | 00:00:00 | |
| OE5DRO-10 | 2026-08-30 11:51:38 | 48.29591 | 12.36007 | 12° | 18km/h | 20586m | 4.9m/s | -54.2°C | 4.1% | 53.3hPa | 2.7V | 00:00:00 | 00:00:00 | 00:00:00 | |
| DL6DJ-15 | 2026-08-30 11:51:37 | 48.29586 | 12.36007 | 347° | 9km/h | 20576m | 5.2m/s | -54.3°C | 1.2% | 53.4hPa | 2.7V | 00:00:00 | 00:00:00 | 00:00:00 | |
| OE5MMP-10 | 2026-08-30 11:51:36 | 48.29586 | 12.36006 | 348° | 20km/h | 20576m | 5.1m/s | -54.2°C | 4.1% | 53.4hPa | 2.7V | 00:00:00 | 01:21:48 | 00:00:00 | |
| DO3MHA-11 | 2026-08-30 11:51:34 | 48.29581 | 12.36009 | 347° | 22km/h | 20567m | 4.6m/s | -54.3°C | 4.2% | 53.4hPa | 2.6V | 00:00:00 | 01:21:46 | 00:00:00 | |
| PETON7-10 | 2026-08-30 11:51:32 | 48.29573 | 12.36010 | 2° | 20km/h | 20557m | 4.6m/s | -54.1°C | 4.1% | 53.5hPa | 2.6V | 00:00:00 | 01:21:44 | 00:00:00 | |
| OE5MMP-10 | 2026-08-30 11:51:26 | 48.29537 | 12.36017 | 352° | 18km/h | 20527m | 4.8m/s | -54.2°C | 4.1% | 53.8hPa | 2.6V | 00:00:00 | 01:21:38 | 00:00:00 | |
| OE5REO-15 | 2026-08-30 11:51:25 | 48.29537 | 12.36017 | 353° | 22km/h | 20527m | 4.9m/s | -54.2°C | 1.2% | 53.8hPa | 2.6V | 00:00:00 | 00:00:00 | 00:00:00 | |
| DO3MHA-11 | 2026-08-30 11:51:24 | 48.29527 | 12.36019 | 350° | 18km/h | 20518m | 4.7m/s | -54.3°C | 4.1% | 53.9hPa | 2.6V | 00:00:00 | 01:21:36 | 00:00:00 | |
| OE5WHR-10 | 2026-08-30 11:51:20 | 48.29511 | 12.36029 | 338° | 24km/h | 20498m | 5.5m/s | -54.4°C | 4.1% | 54.0hPa | 2.6V | 00:00:00 | 00:00:00 | 00:00:00 | |
| OE5DRO-10 | 2026-08-30 11:51:19 | 48.29507 | 12.36031 | 344° | 24km/h | 20493m | 4.8m/s | -54.3°C | 4.1% | 54.1hPa | 2.7V | 00:00:00 | 00:00:00 | 00:00:00 | |
| PETON7-10 | 2026-08-30 11:51:17 | 48.29499 | 12.36034 | 343° | 24km/h | 20483m | 5.3m/s | -54.3°C | 4.1% | 54.1hPa | 2.7V | 00:00:00 | 00:00:00 | 08:30:00 | |
| OE5MMP-10 | 2026-08-30 11:51:16 | 48.29494 | 12.36037 | 338° | 22km/h | 20478m | 5.1m/s | -54.3°C | 4.1% | 54.2hPa | 2.6V | 00:00:00 | 01:21:28 | 00:00:00 | |
| DO3MHA-11 | 2026-08-30 11:51:14 | 48.29482 | 12.36045 | 333° | 22km/h | 20469m | 4.4m/s | -54.3°C | 4.1% | 54.3hPa | 2.6V | 00:00:00 | 01:21:26 | 00:00:00 | |
| OE5REO-15 | 2026-08-30 11:51:10 | 48.29467 | 12.36057 | 333° | 20km/h | 20454m | 4.6m/s | -54.5°C | 1.2% | 54.5hPa | 2.6V | 00:00:00 | 00:00:00 | 00:00:00 | |
| OE5DXL-15 | 2026-08-30 11:51:08 | 48.29449 | 12.36073 | 334° | 24km/h | 20434m | 5.7m/s | -54.7°C | 4.2% | 54.5hPa | 2.6V | 00:00:00 | 00:00:00 | 00:00:00 | |
| DL6DJ-15 | 2026-08-30 11:51:06 | 48.29440 | 12.36080 | 330° | 22km/h | 20424m | 5.7m/s | -54.7°C | 1.2% | 54.7hPa | 2.6V | 00:00:00 | 00:00:00 | 00:00:00 | |
| DO3MHA-11 | 2026-08-30 11:51:04 | 48.29434 | 12.36085 | 329° | 29km/h | 20419m | 5.1m/s | -54.7°C | 4.2% | 54.7hPa | 2.6V | 00:00:00 | 01:21:16 | 00:00:00 | |
| PETON7-10 | 2026-08-30 11:51:02 | 48.29421 | 12.36097 | 329° | 26km/h | 20410m | 5.1m/s | -54.6°C | 4.2% | 54.8hPa | 2.6V | 00:00:00 | 00:00:00 | 00:00:00 | |
| OE5DRO-10 | 2026-08-30 11:51:00 | 48.29408 | 12.36109 | 330° | 24km/h | 20400m | 4.6m/s | -54.6°C | 4.2% | 54.9hPa | 2.6V | 00:00:00 | 00:00:00 | 08:30:00 | |
| OE5WHR-10 | 2026-08-30 11:50:59 | 48.29402 | 12.36115 | 325° | 24km/h | 20395m | 4.4m/s | -54.7°C | 4.2% | 54.9hPa | 2.7V | 00:00:00 | 00:00:00 | 00:00:00 | |
| OE5MMP-10 | 2026-08-30 11:50:56 | 48.29386 | 12.36137 | 314° | 22km/h | 20380m | 4.8m/s | -54.5°C | 4.2% | 55.0hPa | 2.7V | 00:00:00 | 01:21:08 | 00:00:00 | |
| PG1ADW-2 | 2026-08-30 11:50:55 | 48.29382 | 12.36143 | 317° | 22km/h | 20374m | 6.0m/s | -54.5°C | 4.2% | 55.1hPa | 2.7V | 00:00:00 | 00:00:00 | 00:00:00 | |
| OE5REO-15 | 2026-08-30 11:50:54 | 48.29378 | 12.36149 | 322° | 22km/h | 20369m | 4.5m/s | -54.6°C | 1.2% | 55.2hPa | 2.7V | 00:00:00 | 00:00:00 | 00:00:00 | |
| PETON7-10 | 2026-08-30 11:50:47 | 48.29351 | 12.36193 | 308° | 22km/h | 20335m | 4.1m/s | -54.6°C | 4.2% | 55.4hPa | 2.7V | 00:00:00 | 01:20:59 | 00:00:00 | |
| OE5MMP-10 | 2026-08-30 11:50:46 | 48.29348 | 12.36200 | 308° | 22km/h | 20330m | 5.3m/s | -54.6°C | 4.2% | 55.5hPa | 2.7V | 00:00:00 | 01:20:58 | 00:00:00 | |
| DO3MHA-11 | 2026-08-30 11:50:44 | 48.29340 | 12.36215 | 306° | 22km/h | 20321m | 3.7m/s | -54.6°C | 4.2% | 55.6hPa | 2.7V | 00:00:00 | 01:20:56 | 00:00:00 | |
| OE5DRO-10 | 2026-08-30 11:50:41 | 48.29330 | 12.36236 | 302° | 18km/h | 20306m | 4.4m/s | -54.6°C | 4.1% | 55.7hPa | 2.6V | 00:00:00 | 00:00:00 | 00:00:00 | |
| DG1MFX-10 | 2026-08-30 11:50:39 | 48.29328 | 12.36243 | 299° | 22km/h | 20301m | 5.6m/s | -54.6°C | 1.2% | 55.8hPa | 2.6V | 00:00:00 | 00:00:00 | 00:00:00 | |
| OE5WHR-10 | 2026-08-30 11:50:38 | 48.29323 | 12.36258 | 292° | 16km/h | 20291m | 4.7m/s | -54.6°C | 4.1% | 55.8hPa | 2.6V | 00:00:00 | 01:20:50 | 00:00:00 | |
| OE5MMP-10 | 2026-08-30 11:50:36 | 48.29320 | 12.36272 | 289° | 18km/h | 20281m | 4.2m/s | -54.5°C | 4.1% | 55.9hPa | 2.6V | 00:00:00 | 01:20:48 | 08:30:00 | |
| DL6DJ-15 | 2026-08-30 11:50:35 | 48.29317 | 12.36286 | 285° | 20km/h | 20271m | 5.0m/s | -54.6°C | 1.2% | 56.0hPa | 2.7V | 00:00:00 | 00:00:00 | 00:00:00 | |
| DO3MHA-11 | 2026-08-30 11:50:34 | 48.29317 | 12.36286 | 286° | 16km/h | 20271m | 4.9m/s | -54.5°C | 4.2% | 56.0hPa | 2.7V | 00:00:00 | 01:20:46 | 00:00:00 | |
| PG1ADW-2 | 2026-08-30 11:50:33 | 48.29315 | 12.36294 | 289° | 15km/h | 20266m | 4.6m/s | -54.6°C | 4.2% | 56.0hPa | 2.7V | 00:00:00 | 00:00:00 | 00:00:00 | |
| PETON7-10 | 2026-08-30 11:50:32 | 48.29314 | 12.36301 | 292° | 15km/h | 20261m | 5.6m/s | -54.5°C | 4.2% | 56.1hPa | 2.7V | 00:00:00 | 00:00:00 | 00:00:00 | |
| OE5MMP-10 | 2026-08-30 11:50:26 | 48.29304 | 12.36336 | 297° | 13km/h | 20232m | 5.4m/s | -54.5°C | 4.2% | 56.3hPa | 2.6V | 00:00:00 | 01:20:38 | 00:00:00 | |
| DO3MHA-11 | 2026-08-30 11:50:24 | 48.29301 | 12.36344 | 296° | 13km/h | 20222m | 4.8m/s | -54.7°C | 4.1% | 56.4hPa | 2.6V | 00:00:00 | 01:20:36 | 00:00:00 | |
| OE5REO-15 | 2026-08-30 11:50:23 | 48.29301 | 12.36344 | 296° | 11km/h | 20222m | 4.8m/s | -54.8°C | 1.2% | 56.5hPa | 2.6V | 00:00:00 | 00:00:00 | 00:00:00 | |
| OE5DRO-10 | 2026-08-30 11:50:22 | 48.29299 | 12.36353 | 283° | 9km/h | 20212m | 4.4m/s | -54.7°C | 4.1% | 56.5hPa | 2.6V | 00:00:00 | 00:00:00 | 00:00:00 | |
| DG1MFX-10 | 2026-08-30 11:50:19 | 48.29297 | 12.36364 | 288° | 13km/h | 20202m | 5.4m/s | -54.9°C | 1.2% | 56.6hPa | 2.6V | 00:00:00 | 00:00:00 | 00:00:00 | |
| OE5WHR-10 | 2026-08-30 11:50:17 | 48.29294 | 12.36378 | 293° | 7km/h | 20187m | 4.2m/s | -54.8°C | 4.1% | 56.7hPa | 2.6V | 00:00:00 | 00:00:00 | 08:30:00 | |
| OE5MMP-10 | 2026-08-30 11:50:16 | 48.29293 | 12.36382 | 299° | 5km/h | 20183m | 4.1m/s | -54.9°C | 4.2% | 56.8hPa | 2.7V | 00:00:00 | 01:20:28 | 00:00:00 | |
| DO3MHA-11 | 2026-08-30 11:50:14 | 48.29290 | 12.36386 | 341° | 5km/h | 20172m | 4.4m/s | -54.8°C | 4.3% | 56.8hPa | 2.7V | 00:00:00 | 01:20:26 | 08:30:00 | |
| PG1ADW-2 | 2026-08-30 11:50:13 | 48.29289 | 12.36387 | 348° | 7km/h | 20168m | 3.8m/s | -54.9°C | 4.3% | 56.9hPa | 2.6V | 00:00:00 | 01:20:25 | 00:00:00 | |
| BAUMI2-15 | 2026-08-30 11:50:11 | 48.29288 | 12.36389 | 292° | 5km/h | 20159m | 4.7m/s | -54.8°C | 4.3% | 57.0hPa | 2.6V | 00:00:00 | 01:20:23 | 08:30:00 | |
| OE5REO-15 | 2026-08-30 11:50:07 | 48.29288 | 12.36395 | 237° | 4km/h | 20144m | 5.2m/s | -55.2°C | 1.2% | 57.2hPa | 2.6V | 00:00:00 | 00:00:00 | 00:00:00 | |
| OE5MMP-10 | 2026-08-30 11:50:06 | 48.29290 | 12.36398 | 250° | 7km/h | 20133m | 5.7m/s | -55.2°C | 4.3% | 57.2hPa | 2.6V | 00:00:00 | 01:20:18 | 00:00:00 | |
| DO3MHA-11 | 2026-08-30 11:50:04 | 48.29290 | 12.36403 | 267° | 9km/h | 20124m | 4.4m/s | -55.3°C | 4.3% | 57.3hPa | 2.7V | 00:00:00 | 01:20:16 | 00:00:00 | |
| OE5DRO-10 | 2026-08-30 11:50:03 | 48.29290 | 12.36406 | 265° | 11km/h | 20118m | 6.0m/s | -55.3°C | 4.2% | 57.4hPa | 2.7V | 00:00:00 | 00:00:00 | 00:00:00 | |
| PETON7-10 | 2026-08-30 11:50:02 | 48.29291 | 12.36408 | 244° | 11km/h | 20113m | 5.2m/s | -55.2°C | 4.2% | 57.4hPa | 2.6V | 00:00:00 | 01:20:14 | 00:00:00 | |
| BAUMI2-15 | 2026-08-30 11:50:01 | 48.29291 | 12.36409 | 239° | 9km/h | 20107m | 5.4m/s | -55.3°C | 4.3% | 57.4hPa | 2.6V | 00:00:00 | 01:20:13 | 00:00:00 | |
| DG1MFX-10 | 2026-08-30 11:49:58 | 48.29294 | 12.36414 | 224° | 9km/h | 20097m | 4.2m/s | -55.2°C | 1.2% | 57.6hPa | 2.6V | 00:00:00 | 00:00:00 | 00:00:00 | |
| OE5WHR-10 | 2026-08-30 11:49:56 | 48.29302 | 12.36419 | 198° | 13km/h | 20082m | 4.7m/s | -54.9°C | 4.3% | 57.7hPa | 2.6V | 00:00:00 | 00:00:00 | 00:00:00 | |
| DO3MHA-11 | 2026-08-30 11:49:54 | 48.29309 | 12.36423 | 205° | 13km/h | 20072m | 4.0m/s | -55.0°C | 4.3% | 57.8hPa | 2.6V | 00:00:00 | 01:20:06 | 00:00:00 | |
| PG1ADW-2 | 2026-08-30 11:49:53 | 48.29312 | 12.36426 | 200° | 11km/h | 20067m | 5.4m/s | -55.0°C | 4.3% | 57.8hPa | 2.6V | 00:00:00 | 00:00:00 | 00:00:00 | |
| OE5REO-15 | 2026-08-30 11:49:52 | 48.29312 | 12.36426 | 200° | 15km/h | 20067m | 5.5m/s | -55.1°C | 1.3% | 57.8hPa | 2.6V | 00:00:00 | 00:00:00 | 00:00:00 | |
| BAUMI2-15 | 2026-08-30 11:49:51 | 48.29319 | 12.36427 | 184° | 11km/h | 20058m | 4.0m/s | -55.0°C | 4.3% | 57.9hPa | 2.6V | 00:00:00 | 01:20:03 | 00:00:00 | |
| PETON7-10 | 2026-08-30 11:49:47 | 48.29329 | 12.36427 | 166° | 13km/h | 20038m | 4.9m/s | -55.2°C | 4.3% | 58.1hPa | 2.6V | 00:00:00 | 00:00:00 | 00:00:00 | |
| OE5FHM-15 | 2026-08-30 11:49:46 | 48.29332 | 12.36426 | 171° | 11km/h | 20033m | 3.8m/s | -55.2°C | 4.3% | 58.1hPa | 2.7V | 00:00:00 | 01:19:58 | 00:00:00 | |
| DO3MHA-11 | 2026-08-30 11:49:44 | 48.29339 | 12.36426 | 187° | 13km/h | 20024m | 4.3m/s | -55.1°C | 4.4% | 58.2hPa | 2.7V | 00:00:00 | 01:19:56 | 00:00:00 | |
| BAUMI2-15 | 2026-08-30 11:49:41 | 48.29351 | 12.36427 | 184° | 11km/h | 20009m | 3.6m/s | -55.1°C | 4.4% | 58.3hPa | 2.6V | 00:00:00 | 01:19:53 | 00:00:00 | |
| DG1MFX-10 | 2026-08-30 11:49:37 | 48.29361 | 12.36429 | 171° | 9km/h | 19994m | 4.5m/s | -55.0°C | 1.3% | 58.5hPa | 2.6V | 00:00:00 | 00:00:00 | 00:00:00 | |
| OE5MMP-10 | 2026-08-30 11:49:36 | 48.29364 | 12.36425 | 127° | 9km/h | 19984m | 4.5m/s | -54.9°C | 4.3% | 58.6hPa | 2.6V | 00:00:00 | 01:19:48 | 00:00:00 | |
| OE5WHR-10 | 2026-08-30 11:49:35 | 48.29366 | 12.36422 | 119° | 9km/h | 19980m | 4.5m/s | -54.9°C | 4.3% | 58.6hPa | 2.6V | 00:00:00 | 01:19:47 | 00:00:00 | |
| DO3MHA-11 | 2026-08-30 11:49:34 | 48.29367 | 12.36419 | 117° | 9km/h | 19975m | 5.3m/s | -54.9°C | 4.3% | 58.7hPa | 2.6V | 00:00:00 | 01:19:46 | 00:00:00 | |
| PETON7-10 | 2026-08-30 11:49:32 | 48.29369 | 12.36415 | 160° | 9km/h | 19964m | 4.6m/s | -54.7°C | 4.2% | 58.8hPa | 2.6V | 00:00:00 | 00:00:00 | 00:00:00 | |
| BAUMI2-15 | 2026-08-30 11:49:31 | 48.29371 | 12.36414 | 163° | 9km/h | 19960m | 5.7m/s | -54.8°C | 4.2% | 58.8hPa | 2.6V | 00:00:00 | 01:19:43 | 00:00:00 | |
| OE5MMP-10 | 2026-08-30 11:49:26 | 48.29381 | 12.36409 | 117° | 11km/h | 19936m | 4.1m/s | -54.6°C | 4.1% | 59.0hPa | 2.6V | 00:00:00 | 01:19:38 | 00:00:00 | |
| OE5DRO-10 | 2026-08-30 11:49:25 | 48.29382 | 12.36406 | 102° | 9km/h | 19931m | 5.6m/s | -54.7°C | 4.1% | 59.1hPa | 2.6V | 00:00:00 | 00:00:00 | 00:00:00 | |
| DO3MHA-11 | 2026-08-30 11:49:24 | 48.29382 | 12.36401 | 97° | 9km/h | 19925m | 4.9m/s | -54.6°C | 4.1% | 59.1hPa | 2.6V | 00:00:00 | 01:19:36 | 00:00:00 | |
| BAUMI2-15 | 2026-08-30 11:49:21 | 48.29384 | 12.36383 | 99° | 7km/h | 19912m | 5.2m/s | -54.6°C | 4.1% | 59.2hPa | 2.6V | 00:00:00 | 01:19:33 | 00:00:00 | |
| OE5REO-15 | 2026-08-30 11:49:20 | 48.29384 | 12.36383 | 99° | 13km/h | 19912m | 5.3m/s | -54.7°C | 1.2% | 59.3hPa | 2.6V | 00:00:00 | 00:00:00 | 00:00:00 | |
| PETON7-10 | 2026-08-30 11:49:17 | 48.29387 | 12.36374 | 124° | 9km/h | 19894m | 3.9m/s | -54.6°C | 4.2% | 59.4hPa | 2.6V | 00:00:00 | 01:19:29 | 00:00:00 | |
| OE5MMP-10 | 2026-08-30 11:49:16 | 48.29388 | 12.36373 | 89° | 9km/h | 19889m | 5.0m/s | -54.7°C | 4.2% | 59.5hPa | 2.6V | 00:00:00 | 01:19:28 | 00:00:00 | |
| OE5WHR-10 | 2026-08-30 11:49:14 | 48.29386 | 12.36369 | 34° | 15km/h | 19879m | 4.4m/s | -54.8°C | 4.2% | 59.6hPa | 2.6V | 00:00:00 | 00:00:00 | 00:00:00 | |
| DO7DH-14 | 2026-08-30 11:49:12 | 48.29382 | 12.36364 | 60° | 15km/h | 19869m | 5.3m/s | 0°C | 0% | 0hPa | 2.6V | 00:00:00 | 01:19:24 | 00:00:00 | |
| BAUMI2-15 | 2026-08-30 11:49:11 | 48.29381 | 12.36361 | 77° | 9km/h | 19864m | 4.7m/s | -54.9°C | 4.0% | 59.7hPa | 2.6V | 00:00:00 | 01:19:23 | 00:00:00 | |
| OE5MMP-10 | 2026-08-30 11:49:06 | 48.29380 | 12.36343 | 92° | 15km/h | 19839m | 5.3m/s | -55.3°C | 4.3% | 59.9hPa | 2.6V | 00:00:00 | 01:19:18 | 08:30:00 | |
| DO3MHA-11 | 2026-08-30 11:49:04 | 48.29379 | 12.36335 | 64° | 18km/h | 19829m | 5.3m/s | -55.4°C | 4.4% | 60.0hPa | 2.6V | 00:00:00 | 01:19:16 | 00:00:00 | |
| PETON7-10 | 2026-08-30 11:49:02 | 48.29375 | 12.36330 | 27° | 18km/h | 19819m | 4.3m/s | -55.3°C | 4.4% | 60.1hPa | 2.6V | 00:00:00 | 00:00:00 | 08:30:00 | |
| BAUMI2-15 | 2026-08-30 11:49:01 | 48.29372 | 12.36328 | 29° | 18km/h | 19814m | 5.5m/s | -55.3°C | 4.4% | 60.2hPa | 2.6V | 00:00:00 | 01:19:13 | 00:00:00 | |
| BAUMI2-15 | 2026-08-30 11:48:56 | 48.29349 | 12.36311 | 38° | 24km/h | 19789m | 5.7m/s | -55.2°C | 4.3% | 60.4hPa | 2.6V | 00:00:00 | 01:19:08 | 00:00:00 | |
| DO3MHA-11 | 2026-08-30 11:48:54 | 48.29341 | 12.36298 | 52° | 16km/h | 19780m | 3.9m/s | -55.3°C | 4.3% | 60.5hPa | 2.7V | 00:00:00 | 01:19:06 | 00:00:00 | |
| OE5WHR-10 | 2026-08-30 11:48:53 | 48.29338 | 12.36290 | 52° | 15km/h | 19775m | 5.7m/s | -55.3°C | 4.3% | 60.5hPa | 2.7V | 00:00:00 | 00:00:00 | 00:00:00 | |
| BAUMI2-15 | 2026-08-30 11:48:51 | 48.29330 | 12.36278 | 47° | 13km/h | 19766m | 3.9m/s | -55.2°C | 4.3% | 60.6hPa | 2.7V | 00:00:00 | 01:19:03 | 00:00:00 | |
| OE5REO-15 | 2026-08-30 11:48:49 | 48.29327 | 12.36273 | 52° | 15km/h | 19761m | 5.3m/s | -55.2°C | 1.2% | 60.7hPa | 2.7V | 00:00:00 | 00:00:00 | 00:00:00 | |
| PETON7-10 | 2026-08-30 11:48:47 | 48.29321 | 12.36264 | 21° | 13km/h | 19747m | 5.8m/s | -55.4°C | 4.3% | 60.8hPa | 2.7V | 00:00:00 | 00:00:00 | 00:00:00 | |
| OE5MMP-10 | 2026-08-30 11:48:46 | 48.29319 | 12.36264 | 2° | 15km/h | 19742m | 4.5m/s | -55.4°C | 4.3% | 60.9hPa | 2.7V | 00:00:00 | 01:18:58 | 00:00:00 | |
| BAUMI2-15 | 2026-08-30 11:48:41 | 48.29306 | 12.36257 | 65° | 16km/h | 19719m | 4.5m/s | -55.3°C | 4.3% | 61.1hPa | 2.7V | 00:00:00 | 01:18:53 | 08:30:00 | |
| OE5MMP-10 | 2026-08-30 11:48:36 | 48.29303 | 12.36227 | 98° | 9km/h | 19694m | 4.1m/s | -55.5°C | 4.3% | 61.3hPa | 2.6V | 00:00:00 | 01:18:48 | 00:00:00 | |
| DO3MHA-11 | 2026-08-30 11:48:34 | 48.29303 | 12.36215 | 85° | 9km/h | 19685m | 5.5m/s | -55.7°C | 4.4% | 61.4hPa | 2.6V | 00:00:00 | 01:18:46 | 00:00:00 | |
| DG1MFX-10 | 2026-08-30 11:48:33 | 48.29303 | 12.36215 | 86° | 11km/h | 19685m | 5.6m/s | -55.7°C | 1.3% | 61.5hPa | 2.6V | 00:00:00 | 00:00:00 | 00:00:00 | |
| PETON7-10 | 2026-08-30 11:48:32 | 48.29302 | 12.36209 | 53° | 11km/h | 19675m | 4.7m/s | -55.6°C | 4.4% | 61.5hPa | 2.6V | 00:00:00 | 01:18:44 | 00:00:00 | |
| BAUMI2-15 | 2026-08-30 11:48:31 | 48.29301 | 12.36208 | 53° | 7km/h | 19670m | 5.2m/s | -55.7°C | 4.4% | 61.6hPa | 2.6V | 00:00:00 | 01:18:43 | 00:00:00 | |
| DL6DJ-15 | 2026-08-30 11:48:30 | 48.29300 | 12.36206 | 47° | 5km/h | 19665m | 3.8m/s | -55.8°C | 1.3% | 61.6hPa | 2.6V | 00:00:00 | 00:00:00 | 00:00:00 | |
| OE5DRO-10 | 2026-08-30 11:48:28 | 48.29297 | 12.36203 | 35° | 13km/h | 19656m | 5.3m/s | -55.8°C | 4.4% | 61.7hPa | 2.6V | 00:00:00 | 00:00:00 | 00:00:00 | |
| OE5MMP-10 | 2026-08-30 11:48:26 | 48.29293 | 12.36197 | 62° | 13km/h | 19646m | 5.8m/s | -55.8°C | 4.4% | 61.8hPa | 2.6V | 00:00:00 | 01:18:38 | 00:00:00 | |
| DO3MHA-11 | 2026-08-30 11:48:24 | 48.29291 | 12.36187 | 70° | 13km/h | 19637m | 4.1m/s | -55.7°C | 4.5% | 61.9hPa | 2.6V | 00:00:00 | 01:18:36 | 00:00:00 | |
| BAUMI2-15 | 2026-08-30 11:48:21 | 48.29284 | 12.36173 | 41° | 11km/h | 19623m | 3.8m/s | -55.7°C | 4.5% | 62.0hPa | 2.6V | 00:00:00 | 01:18:33 | 00:00:00 | |
| OE5REO-15 | 2026-08-30 11:48:18 | 48.29280 | 12.36168 | 33° | 9km/h | 19613m | 4.6m/s | -55.7°C | 1.3% | 62.2hPa | 2.6V | 00:00:00 | 00:00:00 | 00:00:00 | |
| PETON7-10 | 2026-08-30 11:48:17 | 48.29274 | 12.36165 | 10° | 13km/h | 19604m | 5.5m/s | -55.6°C | 4.4% | 62.2hPa | 2.6V | 00:00:00 | 00:00:00 | 00:00:00 | |
| OE5FHM-15 | 2026-08-30 11:48:16 | 48.29271 | 12.36165 | 2° | 15km/h | 19599m | 4.7m/s | -55.6°C | 4.5% | 62.3hPa | 2.7V | 00:00:00 | 01:18:28 | 00:00:00 | |
| DO3MHA-11 | 2026-08-30 11:48:14 | 48.29262 | 12.36165 | 359° | 13km/h | 19591m | 4.6m/s | -55.5°C | 4.4% | 62.3hPa | 2.7V | 00:00:00 | 01:18:26 | 00:00:00 | |
| DG1MFX-10 | 2026-08-30 11:48:12 | 48.29259 | 12.36165 | 3° | 13km/h | 19586m | 4.9m/s | -55.6°C | 1.3% | 62.4hPa | 2.6V | 00:00:00 | 00:00:00 | 00:00:00 | |
| OE5WHR-10 | 2026-08-30 11:48:11 | 48.29253 | 12.36163 | 27° | 15km/h | 19577m | 4.8m/s | -55.5°C | 4.4% | 62.5hPa | 2.6V | 00:00:00 | 00:00:00 | 00:00:00 | |
| OE5DRO-10 | 2026-08-30 11:48:09 | 48.29248 | 12.36158 | 36° | 15km/h | 19567m | 3.9m/s | -55.5°C | 4.4% | 62.5hPa | 2.7V | 00:00:00 | 00:00:00 | 08:30:00 | |
| OE5MMP-10 | 2026-08-30 11:48:06 | 48.29240 | 12.36151 | 15° | 15km/h | 19553m | 4.3m/s | -55.3°C | 4.4% | 62.7hPa | 2.6V | 00:00:00 | 01:18:18 | 00:00:00 | |
| DO3MHA-11 | 2026-08-30 11:48:04 | 48.29234 | 12.36151 | 355° | 15km/h | 19544m | 4.8m/s | -55.2°C | 4.4% | 62.8hPa | 2.7V | 00:00:00 | 01:18:16 | 00:00:00 | |
| OE5REO-15 | 2026-08-30 11:48:02 | 48.29230 | 12.36152 | 350° | 16km/h | 19539m | 4.1m/s | -55.2°C | 1.3% | 62.9hPa | 2.7V | 00:00:00 | 00:00:00 | 00:00:00 | |
| DL6DJ-15 | 2026-08-30 11:47:59 | 48.29217 | 12.36158 | 356° | 11km/h | 19520m | 4.9m/s | -55.2°C | 1.2% | 63.1hPa | 2.7V | 00:00:00 | 00:00:00 | 00:00:00 | |
| OE5MMP-10 | 2026-08-30 11:47:56 | 48.29206 | 12.36154 | 23° | 15km/h | 19507m | 5.5m/s | -55.1°C | 4.3% | 63.2hPa | 2.7V | 00:00:00 | 01:18:08 | 00:00:00 | |
| DO3MHA-11 | 2026-08-30 11:47:54 | 48.29200 | 12.36149 | 26° | 15km/h | 19497m | 4.7m/s | -55.1°C | 4.3% | 63.2hPa | 2.7V | 00:00:00 | 01:18:06 | 00:00:00 | |
| DG1MFX-10 | 2026-08-30 11:47:51 | 48.29193 | 12.36145 | 15° | 16km/h | 19486m | 4.4m/s | -55.0°C | 1.3% | 63.4hPa | 2.7V | 00:00:00 | 00:00:00 | 00:00:00 | |
| OE5WHR-10 | 2026-08-30 11:47:50 | 48.29184 | 12.36144 | 353° | 13km/h | 19477m | 5.5m/s | -55.0°C | 4.3% | 63.4hPa | 2.7V | 00:00:00 | 00:00:00 | 00:00:00 | |
| PETON7-10 | 2026-08-30 11:47:47 | 48.29173 | 12.36149 | 343° | 13km/h | 19463m | 4.1m/s | -55.0°C | 4.3% | 63.6hPa | 2.7V | 00:00:00 | 01:17:59 | 00:00:00 | |
| OE5FHM-15 | 2026-08-30 11:47:46 | 48.29170 | 12.36151 | 338° | 13km/h | 19458m | 5.3m/s | -54.9°C | 4.3% | 63.6hPa | 2.7V | 00:00:00 | 01:17:58 | 08:30:00 | |
| DO3MHA-11 | 2026-08-30 11:47:44 | 48.29164 | 12.36154 | 345° | 13km/h | 19449m | 4.1m/s | -54.9°C | 4.3% | 63.7hPa | 2.6V | 00:00:00 | 01:17:56 | 00:00:00 | |
| OE5MMP-10 | 2026-08-30 11:47:36 | 48.29140 | 12.36148 | 359° | 15km/h | 19411m | 3.5m/s | -54.8°C | 4.2% | 64.1hPa | 2.6V | 00:00:00 | 01:17:48 | 08:30:00 | |
| DO3MHA-11 | 2026-08-30 11:47:34 | 48.29133 | 12.36150 | 343° | 15km/h | 19402m | 5.2m/s | -54.9°C | 4.2% | 64.2hPa | 2.6V | 00:00:00 | 01:17:46 | 00:00:00 | |
| PETON7-10 | 2026-08-30 11:47:32 | 48.29127 | 12.36153 | 336° | 13km/h | 19394m | 4.1m/s | -54.7°C | 4.2% | 64.3hPa | 2.6V | 00:00:00 | 00:00:00 | 00:00:00 | |
| OE5DRO-10 | 2026-08-30 11:47:31 | 48.29124 | 12.36155 | 341° | 15km/h | 19389m | 4.9m/s | -54.7°C | 4.1% | 64.3hPa | 2.6V | 00:00:00 | 00:00:00 | 00:00:00 | |
| DG1MFX-10 | 2026-08-30 11:47:30 | 48.29124 | 12.36155 | 342° | 13km/h | 19389m | 5.0m/s | -54.8°C | 1.2% | 64.4hPa | 2.6V | 00:00:00 | 00:00:00 | 00:00:00 | |
| DL6DJ-15 | 2026-08-30 11:47:28 | 48.29113 | 12.36162 | 331° | 15km/h | 19375m | 5.4m/s | -54.9°C | 1.2% | 64.5hPa | 2.6V | 00:00:00 | 00:00:00 | 00:00:00 | |
| OE5MMP-10 | 2026-08-30 11:47:26 | 48.29106 | 12.36168 | 326° | 13km/h | 19366m | 4.6m/s | -55.0°C | 4.1% | 64.6hPa | 2.6V | 00:00:00 | 01:17:38 | 00:00:00 | |
| DO3MHA-11 | 2026-08-30 11:47:24 | 48.29099 | 12.36174 | 335° | 13km/h | 19356m | 3.7m/s | -55.1°C | 4.2% | 64.7hPa | 2.6V | 00:00:00 | 01:17:36 | 00:00:00 | |
| PETON7-10 | 2026-08-30 11:47:17 | 48.29081 | 12.36179 | 23° | 13km/h | 19323m | 5.7m/s | -55.2°C | 4.3% | 65.0hPa | 2.6V | 00:00:00 | 00:00:00 | 00:00:00 | |
| OE5MMP-10 | 2026-08-30 11:47:16 | 48.29077 | 12.36177 | 17° | 13km/h | 19318m | 4.6m/s | -55.2°C | 4.3% | 65.1hPa | 2.6V | 00:00:00 | 01:17:28 | 00:00:00 | |
| OE5REO-15 | 2026-08-30 11:47:15 | 48.29077 | 12.36177 | 18° | 15km/h | 19318m | 4.6m/s | -55.2°C | 1.2% | 65.1hPa | 2.6V | 00:00:00 | 00:00:00 | 00:00:00 | |
| DO3MHA-11 | 2026-08-30 11:47:14 | 48.29069 | 12.36174 | 13° | 11km/h | 19308m | 5.4m/s | -55.4°C | 4.2% | 65.2hPa | 2.6V | 00:00:00 | 01:17:26 | 08:30:00 | |
| OE5DRO-10 | 2026-08-30 11:47:12 | 48.29060 | 12.36173 | 356° | 13km/h | 19298m | 5.6m/s | -55.9°C | 4.3% | 65.3hPa | 2.6V | 00:00:00 | 00:00:00 | 00:00:00 | |
| DG1MFX-10 | 2026-08-30 11:47:10 | 48.29057 | 12.36174 | 338° | 13km/h | 19293m | 5.2m/s | -56.0°C | 1.3% | 65.4hPa | 2.6V | 00:00:00 | 00:00:00 | 00:00:00 | |
| OE5MMP-10 | 2026-08-30 11:47:06 | 48.29047 | 12.36182 | 3° | 15km/h | 19269m | 5.3m/s | -55.9°C | 4.5% | 65.6hPa | 2.6V | 00:00:00 | 01:17:18 | 00:00:00 | |
| OE5WHR-10 | 2026-08-30 11:47:05 | 48.29045 | 12.36181 | 15° | 15km/h | 19264m | 3.7m/s | -55.8°C | 4.5% | 65.6hPa | 2.6V | 00:00:00 | 00:00:00 | 08:30:00 | |
| DO3MHA-11 | 2026-08-30 11:47:04 | 48.29042 | 12.36180 | 21° | 15km/h | 19260m | 5.0m/s | -55.8°C | 4.5% | 65.7hPa | 2.6V | 00:00:00 | 01:17:16 | 00:00:00 | |
| DL6DJ-15 | 2026-08-30 11:46:57 | 48.29014 | 12.36163 | 19° | 11km/h | 19226m | 4.9m/s | -55.7°C | 1.3% | 66.1hPa | 2.6V | 00:00:00 | 00:00:00 | 00:00:00 | |
| OE5MMP-10 | 2026-08-30 11:46:56 | 48.29011 | 12.36161 | 17° | 15km/h | 19222m | 4.4m/s | -55.7°C | 4.4% | 66.1hPa | 2.6V | 00:00:00 | 01:17:08 | 00:00:00 | |
| DO3MHA-11 | 2026-08-30 11:46:54 | 48.29006 | 12.36160 | 4° | 15km/h | 19212m | 4.8m/s | -55.8°C | 4.5% | 66.2hPa | 2.6V | 00:00:00 | 01:17:06 | 00:00:00 | |
| OE5DRO-10 | 2026-08-30 11:46:53 | 48.29004 | 12.36159 | 15° | 16km/h | 19208m | 3.4m/s | -55.7°C | 4.5% | 66.2hPa | 2.6V | 00:00:00 | 00:00:00 | 00:00:00 | |
| DG1MFX-10 | 2026-08-30 11:46:49 | 48.28995 | 12.36151 | 34° | 20km/h | 19194m | 4.0m/s | -55.7°C | 1.3% | 66.4hPa | 2.6V | 00:00:00 | 00:00:00 | 00:00:00 | |
| PETON7-10 | 2026-08-30 11:46:47 | 48.28982 | 12.36140 | 25° | 15km/h | 19180m | 4.9m/s | -55.6°C | 4.2% | 66.5hPa | 2.6V | 00:00:00 | 00:00:00 | 08:30:00 | |
| OE5MMP-10 | 2026-08-30 11:46:46 | 48.28978 | 12.36138 | 24° | 16km/h | 19176m | 3.9m/s | -55.6°C | 4.2% | 66.5hPa | 2.6V | 00:00:00 | 01:16:58 | 00:00:00 | |
| OE5WHR-10 | 2026-08-30 11:46:44 | 48.28972 | 12.36134 | 27° | 15km/h | 19166m | 4.4m/s | -55.8°C | 4.3% | 66.6hPa | 2.6V | 00:00:00 | 00:00:00 | 00:00:00 | |
| OE5MMP-10 | 2026-08-30 11:46:36 | 48.28941 | 12.36120 | 7° | 13km/h | 19128m | 5.0m/s | -56.2°C | 4.7% | 67.0hPa | 2.6V | 00:00:00 | 01:16:48 | 00:00:00 | |
| DO3MHA-11 | 2026-08-30 11:46:34 | 48.28934 | 12.36119 | 3° | 13km/h | 19118m | 5.1m/s | -56.3°C | 4.6% | 67.1hPa | 2.7V | 00:00:00 | 01:16:46 | 00:00:00 | |
| PETON7-10 | 2026-08-30 11:46:32 | 48.28927 | 12.36118 | 8° | 13km/h | 19108m | 4.3m/s | -56.2°C | 4.6% | 67.3hPa | 2.7V | 00:00:00 | 00:00:00 | 00:00:00 | |
| OE5DXL-15 | 2026-08-30 11:46:30 | 48.28921 | 12.36117 | 12° | 16km/h | 19098m | 4.2m/s | -56.2°C | 4.5% | 67.4hPa | 2.7V | 00:00:00 | 00:00:00 | 00:00:00 | |
| OE5REO-15 | 2026-08-30 11:46:29 | 48.28921 | 12.36117 | 13° | 9km/h | 19098m | 4.2m/s | -56.3°C | 1.3% | 67.4hPa | 2.7V | 00:00:00 | 00:00:00 | 00:00:00 | |
| OE5MMP-10 | 2026-08-30 11:46:26 | 48.28910 | 12.36107 | 41° | 15km/h | 19078m | 5.6m/s | -56.1°C | 4.5% | 67.6hPa | 2.7V | 00:00:00 | 01:16:38 | 00:00:00 | |
| DO3MHA-11 | 2026-08-30 11:46:24 | 48.28905 | 12.36100 | 35° | 15km/h | 19068m | 4.7m/s | -56.0°C | 4.5% | 67.7hPa | 2.7V | 00:00:00 | 01:16:36 | 00:00:00 | |
| OE5WHR-10 | 2026-08-30 11:46:23 | 48.28901 | 12.36097 | 29° | 16km/h | 19063m | 5.4m/s | -55.9°C | 4.5% | 67.7hPa | 2.7V | 00:00:00 | 01:16:35 | 00:00:00 | |
| BAUMI2-15 | 2026-08-30 11:46:17 | 48.28882 | 12.36092 | 14° | 20km/h | 19036m | 5.4m/s | -55.8°C | 4.6% | 68.0hPa | 2.7V | 00:00:00 | 01:16:29 | 00:00:00 | |
| OE5FHM-15 | 2026-08-30 11:46:16 | 48.28878 | 12.36090 | 27° | 16km/h | 19030m | 5.1m/s | -55.7°C | 4.6% | 68.1hPa | 2.7V | 00:00:00 | 01:16:28 | 00:00:00 | |
| OE5DRO-10 | 2026-08-30 11:46:15 | 48.28873 | 12.36086 | 37° | 16km/h | 19026m | 4.0m/s | -55.6°C | 4.5% | 68.1hPa | 2.7V | 00:00:00 | 00:00:00 | 00:00:00 | |
| DO3MHA-11 | 2026-08-30 11:46:14 | 48.28869 | 12.36080 | 43° | 18km/h | 19022m | 4.7m/s | -55.6°C | 4.5% | 68.2hPa | 2.6V | 00:00:00 | 01:16:26 | 00:00:00 | |
| OE5REO-15 | 2026-08-30 11:46:13 | 48.28869 | 12.36080 | 43° | 22km/h | 19022m | 4.8m/s | -55.7°C | 1.3% | 68.2hPa | 2.6V | 00:00:00 | 00:00:00 | 00:00:00 | |
| BAUMI2-15 | 2026-08-30 11:46:12 | 48.28862 | 12.36070 | 48° | 16km/h | 19012m | 3.5m/s | -55.6°C | 4.4% | 68.3hPa | 2.6V | 00:00:00 | 01:16:24 | 00:00:00 | |
| DG1MFX-10 | 2026-08-30 11:46:09 | 48.28852 | 12.36059 | 23° | 18km/h | 18998m | 4.3m/s | -55.6°C | 1.4% | 68.5hPa | 2.6V | 00:00:00 | 00:00:00 | 00:00:00 | |
| BAUMI2-15 | 2026-08-30 11:46:07 | 48.28844 | 12.36055 | 18° | 18km/h | 18989m | 5.2m/s | -55.5°C | 4.4% | 68.5hPa | 2.6V | 00:00:00 | 01:16:19 | 00:00:00 | |
| OE5MMP-10 | 2026-08-30 11:46:06 | 48.28840 | 12.36053 | 20° | 16km/h | 18984m | 4.5m/s | -55.4°C | 4.3% | 68.6hPa | 2.6V | 00:00:00 | 01:16:18 | 08:30:00 | |
| DO3MHA-11 | 2026-08-30 11:46:04 | 48.28832 | 12.36048 | 28° | 15km/h | 18974m | 4.6m/s | -55.5°C | 4.4% | 68.7hPa | 2.6V | 00:00:00 | 01:16:16 | 00:00:00 | |
| DL6DJ-15 | 2026-08-30 11:45:55 | 48.28806 | 12.36015 | 19° | 7km/h | 18930m | 5.3m/s | -55.5°C | 1.3% | 69.2hPa | 2.6V | 00:00:00 | 00:00:00 | 00:00:00 | |
| DO3MHA-11 | 2026-08-30 11:45:54 | 48.28804 | 12.36014 | 13° | 13km/h | 18925m | 4.5m/s | -55.5°C | 4.2% | 69.2hPa | 2.6V | 00:00:00 | 01:16:06 | 00:00:00 | |
| BAUMI2-15 | 2026-08-30 11:45:51 | 48.28795 | 12.36010 | 29° | 15km/h | 18910m | 3.7m/s | -55.5°C | 4.1% | 69.4hPa | 2.6V | 00:00:00 | 01:16:03 | 00:00:00 | |
| DG1MFX-10 | 2026-08-30 11:45:48 | 48.28788 | 12.36003 | 46° | 15km/h | 18901m | 5.6m/s | -55.9°C | 1.3% | 69.5hPa | 2.6V | 00:00:00 | 00:00:00 | 00:00:00 | |
| PETON7-10 | 2026-08-30 11:45:47 | 48.28785 | 12.35995 | 65° | 11km/h | 18892m | 3.9m/s | -55.8°C | 4.4% | 69.6hPa | 2.6V | 00:00:00 | 00:00:00 | 00:00:00 | |
| OE5FHM-15 | 2026-08-30 11:45:46 | 48.28784 | 12.35992 | 60° | 13km/h | 18887m | 5.2m/s | -55.8°C | 4.4% | 69.6hPa | 2.6V | 00:00:00 | 01:15:58 | 00:00:00 | |
| DO3MHA-11 | 2026-08-30 11:45:44 | 48.28781 | 12.35985 | 62° | 9km/h | 18877m | 5.3m/s | -55.8°C | 4.4% | 69.8hPa | 2.6V | 00:00:00 | 01:15:56 | 08:30:00 | |
| OE5REO-15 | 2026-08-30 11:45:42 | 48.28780 | 12.35983 | 74° | 5km/h | 18871m | 5.5m/s | -55.9°C | 1.3% | 69.9hPa | 2.6V | 00:00:00 | 00:00:00 | 00:00:00 | |
| OE5WHR-10 | 2026-08-30 11:45:41 | 48.28780 | 12.35979 | 69° | 13km/h | 18862m | 4.6m/s | -55.8°C | 4.4% | 69.9hPa | 2.6V | 00:00:00 | 00:00:00 | 00:00:00 | |
| BAUMI2-15 | 2026-08-30 11:45:37 | 48.28776 | 12.35963 | 77° | 20km/h | 18837m | 5.5m/s | -56.3°C | 4.5% | 70.2hPa | 2.6V | 00:00:00 | 01:15:48 | 00:00:00 | |
| OE5MMP-10 | 2026-08-30 11:45:36 | 48.28776 | 12.35963 | 77° | 20km/h | 18837m | 5.5m/s | -56.3°C | 4.5% | 70.2hPa | 2.6V | 00:00:00 | 01:15:48 | 00:00:00 | |
| DO3MHA-11 | 2026-08-30 11:45:34 | 48.28774 | 12.35950 | 84° | 18km/h | 18827m | 4.6m/s | -56.5°C | 4.5% | 70.3hPa | 2.7V | 00:00:00 | 01:15:46 | 00:00:00 | |
| PETON7-10 | 2026-08-30 11:45:32 | 48.28774 | 12.35933 | 95° | 16km/h | 18816m | 4.3m/s | -56.6°C | 4.6% | 70.4hPa | 2.7V | 00:00:00 | 01:15:44 | 00:00:00 | |
| BAUMI2-15 | 2026-08-30 11:45:31 | 48.28775 | 12.35923 | 94° | 20km/h | 18812m | 4.4m/s | -56.5°C | 4.6% | 70.5hPa | 2.7V | 00:00:00 | 01:15:43 | 00:00:00 | |
| OE5DXL-15 | 2026-08-30 11:45:30 | 48.28775 | 12.35914 | 89° | 16km/h | 18807m | 5.1m/s | -56.4°C | 4.5% | 70.5hPa | 2.7V | 00:00:00 | 00:00:00 | 00:00:00 | |
| DG1MFX-10 | 2026-08-30 11:45:27 | 48.28773 | 12.35899 | 76° | 16km/h | 18798m | 4.1m/s | -56.5°C | 1.4% | 70.7hPa | 2.7V | 00:00:00 | 00:00:00 | 00:00:00 | |
| OE5MMP-10 | 2026-08-30 11:45:26 | 48.28771 | 12.35888 | 63° | 13km/h | 18788m | 4.6m/s | -56.3°C | 4.5% | 70.8hPa | 2.7V | 00:00:00 | 01:15:38 | 00:00:00 | |
| OE5REO-15 | 2026-08-30 11:45:25 | 48.28771 | 12.35888 | 63° | 11km/h | 18788m | 4.7m/s | -56.3°C | 1.4% | 70.8hPa | 2.7V | 00:00:00 | 00:00:00 | 00:00:00 | |
| DO3MHA-11 | 2026-08-30 11:45:24 | 48.28767 | 12.35883 | 25° | 13km/h | 18778m | 6.0m/s | -56.3°C | 4.5% | 70.9hPa | 2.7V | 00:00:00 | 01:15:36 | 00:00:00 | |
| BAUMI2-15 | 2026-08-30 11:45:21 | 48.28759 | 12.35880 | 20° | 13km/h | 18763m | 5.5m/s | -56.5°C | 4.5% | 71.0hPa | 2.7V | 00:00:00 | 01:15:33 | 00:00:00 | |
| OE5WHR-10 | 2026-08-30 11:45:20 | 48.28756 | 12.35878 | 29° | 16km/h | 18758m | 4.8m/s | -56.4°C | 4.4% | 71.1hPa | 2.7V | 00:00:00 | 01:15:32 | 00:00:00 | |
| BAUMI2-15 | 2026-08-30 11:45:17 | 48.28746 | 12.35862 | 63° | 16km/h | 18739m | 5.2m/s | -56.6°C | 4.5% | 71.3hPa | 2.7V | 00:00:00 | 01:15:28 | 00:00:00 | |
| OE5MMP-10 | 2026-08-30 11:45:16 | 48.28746 | 12.35862 | 63° | 16km/h | 18739m | 5.2m/s | -56.6°C | 4.5% | 71.3hPa | 2.7V | 00:00:00 | 01:15:28 | 00:00:00 | |
| DO3MHA-11 | 2026-08-30 11:45:14 | 48.28743 | 12.35851 | 66° | 18km/h | 18730m | 3.9m/s | -56.7°C | 4.5% | 71.4hPa | 2.7V | 00:00:00 | 01:15:26 | 00:00:00 | |
| BAUMI2-15 | 2026-08-30 11:45:11 | 48.28734 | 12.35839 | 25° | 18km/h | 18715m | 5.2m/s | -56.8°C | 4.5% | 71.6hPa | 2.6V | 00:00:00 | 01:15:23 | 08:30:00 | |
| OE5REO-15 | 2026-08-30 11:45:09 | 48.28731 | 12.35837 | 16° | 16km/h | 18709m | 5.6m/s | -57.0°C | 1.4% | 71.7hPa | 2.6V | 00:00:00 | 00:00:00 | 00:00:00 | |
| OE5MMP-10 | 2026-08-30 11:45:06 | 48.28711 | 12.35832 | 10° | 18km/h | 18689m | 4.2m/s | -57.3°C | 4.7% | 71.9hPa | 2.6V | 00:00:00 | 01:15:18 | 00:00:00 | |
| DO3MHA-11 | 2026-08-30 11:45:04 | 48.28701 | 12.35829 | 21° | 16km/h | 18679m | 4.4m/s | -57.3°C | 4.8% | 72.0hPa | 2.6V | 00:00:00 | 01:15:16 | 00:00:00 | |
| DL6DJ-15 | 2026-08-30 11:44:53 | 48.28658 | 12.35807 | 0° | 16km/h | 18626m | 4.4m/s | -57.6°C | 1.5% | 72.6hPa | 2.6V | 00:00:00 | 00:00:00 | 00:00:00 | |
| BAUMI2-15 | 2026-08-30 11:44:51 | 48.28649 | 12.35806 | 6° | 16km/h | 18617m | 5.2m/s | -57.6°C | 5.0% | 72.7hPa | 2.6V | 00:00:00 | 01:15:03 | 00:00:00 | |
| PETON7-10 | 2026-08-30 11:44:47 | 48.28633 | 12.35801 | 16° | 16km/h | 18597m | 4.6m/s | -57.6°C | 5.0% | 72.9hPa | 2.6V | 00:00:00 | 01:14:59 | 00:00:00 | |
| OE5MMP-10 | 2026-08-30 11:44:46 | 48.28629 | 12.35800 | 11° | 15km/h | 18592m | 5.2m/s | -57.5°C | 4.9% | 73.0hPa | 2.6V | 00:00:00 | 01:14:58 | 00:00:00 | |
| DG1MFX-10 | 2026-08-30 11:44:45 | 48.28629 | 12.35800 | 11° | 16km/h | 18592m | 5.3m/s | -57.5°C | 1.6% | 73.0hPa | 2.6V | 00:00:00 | 00:00:00 | 00:00:00 | |
| DO3MHA-11 | 2026-08-30 11:44:44 | 48.28621 | 12.35799 | 358° | 15km/h | 18583m | 3.7m/s | -57.5°C | 4.9% | 73.1hPa | 2.6V | 00:00:00 | 01:14:56 | 00:00:00 | |
| BAUMI2-15 | 2026-08-30 11:44:41 | 48.28611 | 12.35801 | 1° | 16km/h | 18569m | 4.3m/s | -57.4°C | 4.9% | 73.3hPa | 2.7V | 00:00:00 | 01:14:53 | 00:00:00 | |
| OE5REO-15 | 2026-08-30 11:44:38 | 48.28604 | 12.35800 | 1° | 16km/h | 18559m | 5.5m/s | -57.5°C | 1.5% | 73.4hPa | 2.7V | 00:00:00 | 00:00:00 | 00:00:00 | |
| OE5WHR-10 | 2026-08-30 11:44:37 | 48.28595 | 12.35801 | 359° | 18km/h | 18550m | 4.3m/s | -57.4°C | 4.8% | 73.5hPa | 2.7V | 00:00:00 | 00:00:00 | 00:00:00 | |
| OE5MMP-10 | 2026-08-30 11:44:36 | 48.28590 | 12.35801 | 360° | 16km/h | 18545m | 5.4m/s | -57.3°C | 4.8% | 73.5hPa | 2.7V | 00:00:00 | 01:14:48 | 08:30:00 | |
| OE5DRO-10 | 2026-08-30 11:44:35 | 48.28586 | 12.35800 | 5° | 18km/h | 18540m | 4.5m/s | -57.3°C | 4.8% | 73.6hPa | 2.6V | 00:00:00 | 00:00:00 | 00:00:00 | |
| DO3MHA-11 | 2026-08-30 11:44:34 | 48.28582 | 12.35800 | 8° | 18km/h | 18535m | 4.6m/s | -57.3°C | 4.8% | 73.6hPa | 2.6V | 00:00:00 | 01:14:46 | 00:00:00 | |
| PETON7-10 | 2026-08-30 11:44:32 | 48.28573 | 12.35797 | 13° | 20km/h | 18525m | 4.3m/s | -57.3°C | 4.8% | 73.7hPa | 2.6V | 00:00:00 | 00:00:00 | 08:30:00 | |
| BAUMI2-15 | 2026-08-30 11:44:31 | 48.28568 | 12.35796 | 13° | 16km/h | 18521m | 5.6m/s | -57.2°C | 4.8% | 73.8hPa | 2.6V | 00:00:00 | 01:14:43 | 00:00:00 | |
| OE5DXL-15 | 2026-08-30 11:44:30 | 48.28564 | 12.35795 | 15° | 20km/h | 18515m | 5.1m/s | -57.2°C | 4.8% | 73.9hPa | 2.6V | 00:00:00 | 00:00:00 | 08:30:00 | |
| OE5MMP-10 | 2026-08-30 11:44:26 | 48.28547 | 12.35786 | 22° | 20km/h | 18496m | 4.3m/s | -57.0°C | 4.8% | 74.1hPa | 2.6V | 00:00:00 | 01:14:38 | 00:00:00 | |
| DO3MHA-11 | 2026-08-30 11:44:24 | 48.28538 | 12.35780 | 22° | 20km/h | 18486m | 4.7m/s | -57.0°C | 4.8% | 74.3hPa | 2.6V | 00:00:00 | 01:14:36 | 00:00:00 | |
| OE5REO-15 | 2026-08-30 11:44:23 | 48.28538 | 12.35780 | 23° | 20km/h | 18486m | 4.8m/s | -57.0°C | 1.5% | 74.3hPa | 2.6V | 00:00:00 | 00:00:00 | 00:00:00 | |
| DL6DJ-15 | 2026-08-30 11:44:22 | 48.28522 | 12.35772 | 16° | 24km/h | 18471m | 4.8m/s | -56.8°C | 1.4% | 74.5hPa | 2.6V | 00:00:00 | 00:00:00 | 00:00:00 | |
| BAUMI2-15 | 2026-08-30 11:44:21 | 48.28522 | 12.35772 | 17° | 16km/h | 18471m | 4.8m/s | -56.8°C | 4.7% | 74.4hPa | 2.6V | 00:00:00 | 01:14:33 | 00:00:00 | |
| PETON7-10 | 2026-08-30 11:44:17 | 48.28503 | 12.35760 | 34° | 18km/h | 18453m | 4.1m/s | -56.7°C | 4.7% | 74.6hPa | 2.6V | 00:00:00 | 00:00:00 | 00:00:00 | |
| OE5FHM-15 | 2026-08-30 11:44:16 | 48.28499 | 12.35756 | 35° | 18km/h | 18448m | 5.3m/s | -56.7°C | 4.7% | 74.7hPa | 2.6V | 00:00:00 | 01:14:28 | 00:00:00 | |
| DO3MHA-11 | 2026-08-30 11:44:14 | 48.28490 | 12.35749 | 28° | 18km/h | 18438m | 4.5m/s | -56.8°C | 4.6% | 74.8hPa | 2.6V | 00:00:00 | 01:14:26 | 08:30:00 | |
| OE5REO-15 | 2026-08-30 11:44:07 | 48.28461 | 12.35742 | 4° | 20km/h | 18408m | 5.9m/s | -56.7°C | 1.4% | 75.2hPa | 2.6V | 00:00:00 | 00:00:00 | 00:00:00 | |
| OE5MMP-10 | 2026-08-30 11:44:06 | 48.28453 | 12.35739 | 30° | 20km/h | 18398m | 4.8m/s | -56.6°C | 4.7% | 75.3hPa | 2.6V | 00:00:00 | 01:14:18 | 00:00:00 | |
| DO3MHA-11 | 2026-08-30 11:44:04 | 48.28445 | 12.35730 | 43° | 20km/h | 18388m | 4.3m/s | -56.6°C | 4.7% | 75.4hPa | 2.7V | 00:00:00 | 01:14:16 | 00:00:00 | |
| DG1MFX-10 | 2026-08-30 11:44:03 | 48.28445 | 12.35730 | 44° | 20km/h | 18388m | 4.3m/s | -56.6°C | 1.5% | 75.5hPa | 2.7V | 00:00:00 | 00:00:00 | 00:00:00 | |
| DL6DJ-15 | 2026-08-30 11:43:51 | 48.28404 | 12.35659 | 72° | 11km/h | 18318m | 4.4m/s | -56.5°C | 1.4% | 76.3hPa | 2.7V | 00:00:00 | 00:00:00 | 00:00:00 | |
| OE5DRO-10 | 2026-08-30 11:43:48 | 48.28401 | 12.35650 | 55° | 15km/h | 18308m | 4.9m/s | -56.4°C | 4.7% | 76.4hPa | 2.7V | 00:00:00 | 00:00:00 | 00:00:00 | |
| PETON7-10 | 2026-08-30 11:43:47 | 48.28398 | 12.35645 | 49° | 15km/h | 18303m | 4.7m/s | -56.3°C | 4.7% | 76.4hPa | 2.7V | 00:00:00 | 00:00:00 | 00:00:00 | |
| OE5FHM-15 | 2026-08-30 11:43:46 | 48.28395 | 12.35640 | 44° | 13km/h | 18298m | 5.8m/s | -56.3°C | 4.6% | 76.5hPa | 2.6V | 00:00:00 | 01:13:58 | 00:00:00 | |
| DO3MHA-11 | 2026-08-30 11:43:44 | 48.28387 | 12.35632 | 29° | 16km/h | 18288m | 5.3m/s | -56.2°C | 4.5% | 76.6hPa | 2.6V | 00:00:00 | 01:13:56 | 00:00:00 | |
| DG1MFX-10 | 2026-08-30 11:43:42 | 48.28382 | 12.35629 | 22° | 24km/h | 18283m | 5.4m/s | -56.3°C | 1.4% | 76.7hPa | 2.6V | 00:00:00 | 00:00:00 | 00:00:00 | |
| OE5REO-15 | 2026-08-30 11:43:35 | 48.28355 | 12.35614 | 25° | 11km/h | 18251m | 4.1m/s | -56.0°C | 1.4% | 77.1hPa | 2.6V | 00:00:00 | 00:00:00 | 00:00:00 | |
| DO3MHA-11 | 2026-08-30 11:43:34 | 48.28351 | 12.35611 | 27° | 13km/h | 18241m | 5.9m/s | -55.9°C | 4.7% | 77.2hPa | 2.6V | 00:00:00 | 01:13:46 | 00:00:00 | |
| PETON7-10 | 2026-08-30 11:43:32 | 48.28348 | 12.35608 | 43° | 11km/h | 18231m | 5.4m/s | -55.8°C | 4.6% | 77.3hPa | 2.6V | 00:00:00 | 00:00:00 | 00:00:00 | |
| OE5DXL-15 | 2026-08-30 11:43:30 | 48.28343 | 12.35601 | 41° | 11km/h | 18221m | 4.3m/s | -55.7°C | 4.5% | 77.4hPa | 2.6V | 00:00:00 | 00:00:00 | 00:00:00 | |
| DO3MHA-11 | 2026-08-30 11:43:24 | 48.28322 | 12.35587 | 3° | 9km/h | 18191m | 3.8m/s | -55.6°C | 4.6% | 77.8hPa | 2.6V | 00:00:00 | 01:13:36 | 00:00:00 | |
| DG1MFX-10 | 2026-08-30 11:43:21 | 48.28316 | 12.35588 | 340° | 9km/h | 18181m | 5.7m/s | -55.4°C | 1.4% | 77.9hPa | 2.6V | 00:00:00 | 00:00:00 | 00:00:00 | |
| OE5REO-15 | 2026-08-30 11:43:19 | 48.28313 | 12.35590 | 6° | 4km/h | 18172m | 5.2m/s | -55.3°C | 1.4% | 78.1hPa | 2.6V | 00:00:00 | 00:00:00 | 00:00:00 | |
| PETON7-10 | 2026-08-30 11:43:17 | 48.28310 | 12.35583 | 67° | 9km/h | 18157m | 4.7m/s | -55.2°C | 4.5% | 78.2hPa | 2.6V | 00:00:00 | 01:13:29 | 00:00:00 | |
| OE5FHM-15 | 2026-08-30 11:43:16 | 48.28309 | 12.35579 | 75° | 7km/h | 18151m | 5.8m/s | -55.1°C | 4.5% | 78.3hPa | 2.6V | 00:00:00 | 01:13:28 | 08:30:00 | |
| DO3MHA-11 | 2026-08-30 11:43:14 | 48.28308 | 12.35573 | 46° | 9km/h | 18142m | 4.3m/s | -55.1°C | 4.4% | 78.4hPa | 2.6V | 00:00:00 | 01:13:26 | 00:00:00 | |
| OE5WHR-10 | 2026-08-30 11:43:13 | 48.28306 | 12.35572 | 19° | 7km/h | 18137m | 5.9m/s | -55.1°C | 4.4% | 78.5hPa | 2.7V | 00:00:00 | 01:13:25 | 00:00:00 | |
| DO7DH-14 | 2026-08-30 11:43:10 | 48.28297 | 12.35575 | 325° | 15km/h | 18121m | 6.1m/s | 0°C | 0% | 0hPa | 2.7V | 00:00:00 | 01:13:22 | 00:00:00 | |
| OE5MMP-10 | 2026-08-30 11:43:07 | 48.28292 | 12.35581 | 352° | 7km/h | 18107m | 4.9m/s | -54.8°C | 4.4% | 78.8hPa | 2.7V | 00:00:00 | 01:13:19 | 00:00:00 | |
| DO3MHA-11 | 2026-08-30 11:43:04 | 48.28289 | 12.35575 | 73° | 7km/h | 18091m | 5.6m/s | -54.7°C | 4.3% | 79.0hPa | 2.7V | 00:00:00 | 01:13:16 | 00:00:00 | |
| PETON7-10 | 2026-08-30 11:43:02 | 48.28288 | 12.35567 | 87° | 5km/h | 18081m | 3.8m/s | -54.5°C | 4.3% | 79.1hPa | 2.7V | 00:00:00 | 00:00:00 | 00:00:00 | |
| OE5DXL-15 | 2026-08-30 11:43:00 | 48.28287 | 12.35561 | 58° | 5km/h | 18072m | 5.0m/s | -54.4°C | 4.3% | 79.3hPa | 2.7V | 00:00:00 | 00:00:00 | 00:00:00 | |
| OE5MMP-10 | 2026-08-30 11:42:57 | 48.28284 | 12.35558 | 343° | 5km/h | 18057m | 5.2m/s | -54.3°C | 4.3% | 79.4hPa | 2.6V | 00:00:00 | 01:13:09 | 00:00:00 | |
| DO3MHA-11 | 2026-08-30 11:42:54 | 48.28283 | 12.35561 | 319° | 7km/h | 18042m | 5.1m/s | -54.2°C | 4.2% | 79.7hPa | 2.6V | 00:00:00 | 01:13:06 | 00:00:00 | |
| OE5WHR-10 | 2026-08-30 11:42:52 | 48.28280 | 12.35563 | 341° | 5km/h | 18032m | 6.0m/s | -54.1°C | 4.1% | 79.8hPa | 2.6V | 00:00:00 | 00:00:00 | 00:00:00 | |
| OE5REO-15 | 2026-08-30 11:42:48 | 48.28279 | 12.35559 | 74° | 9km/h | 18017m | 5.9m/s | -54.0°C | 1.2% | 80.0hPa | 2.7V | 00:00:00 | 00:00:00 | 00:00:00 | |
| OE5MMP-10 | 2026-08-30 11:42:47 | 48.28277 | 12.35551 | 72° | 5km/h | 18007m | 4.7m/s | -53.9°C | 4.1% | 80.1hPa | 2.7V | 00:00:00 | 01:12:59 | 00:00:00 | |
| OE5FHM-15 | 2026-08-30 11:42:46 | 48.28277 | 12.35547 | 80° | 5km/h | 18002m | 5.3m/s | -53.9°C | 4.1% | 80.1hPa | 2.7V | 00:00:00 | 01:12:58 | 00:00:00 | |
| DO3MHA-11 | 2026-08-30 11:42:44 | 48.28277 | 12.35542 | 95° | 4km/h | 17993m | 3.8m/s | -53.9°C | 4.0% | 80.3hPa | 2.7V | 00:00:00 | 01:12:56 | 08:30:00 | |
| DG1MFX-10 | 2026-08-30 11:42:39 | 48.28277 | 12.35538 | 207° | 4km/h | 17973m | 4.6m/s | -54.0°C | 1.3% | 80.6hPa | 2.7V | 00:00:00 | 00:00:00 | 00:00:00 | |
| OE5MMP-10 | 2026-08-30 11:42:37 | 48.28278 | 12.35539 | 17° | 5km/h | 17959m | 5.1m/s | -54.0°C | 4.1% | 80.7hPa | 2.7V | 00:00:00 | 01:12:49 | 08:30:00 | |
| DO3MHA-11 | 2026-08-30 11:42:34 | 48.28276 | 12.35536 | 76° | 5km/h | 17946m | 4.8m/s | -53.9°C | 4.1% | 80.9hPa | 2.7V | 00:00:00 | 01:12:46 | 00:00:00 | |
| OE3JTB-15 | 2026-08-30 11:42:33 | 48.28276 | 12.35535 | 86° | 7km/h | 17941m | 3.6m/s | -54.0°C | 4.1% | 80.9hPa | 2.7V | 00:00:00 | 00:00:00 | 08:30:00 | |
| OE5REO-15 | 2026-08-30 11:42:32 | 48.28276 | 12.35535 | 87° | 4km/h | 17941m | 3.7m/s | -54.0°C | 1.3% | 80.9hPa | 2.7V | 00:00:00 | 00:00:00 | 00:00:00 | |
| OE5WHR-10 | 2026-08-30 11:42:31 | 48.28275 | 12.35531 | 76° | 7km/h | 17932m | 4.9m/s | -54.0°C | 4.2% | 81.0hPa | 2.7V | 00:00:00 | 00:00:00 | 00:00:00 | |
| OE5DXL-15 | 2026-08-30 11:42:30 | 48.28275 | 12.35528 | 79° | 9km/h | 17928m | 3.7m/s | -54.1°C | 4.2% | 81.1hPa | 2.7V | 00:00:00 | 00:00:00 | 00:00:00 | |
| OE5MMP-10 | 2026-08-30 11:42:27 | 48.28276 | 12.35523 | 125° | 7km/h | 17915m | 3.4m/s | -54.0°C | 4.1% | 81.2hPa | 2.7V | 00:00:00 | 01:12:39 | 00:00:00 | |
| DO3MHA-11 | 2026-08-30 11:42:24 | 48.28276 | 12.35518 | 75° | 7km/h | 17901m | 4.4m/s | -54.1°C | 4.2% | 81.4hPa | 2.7V | 00:00:00 | 01:12:36 | 00:00:00 | |
| DG1MFX-10 | 2026-08-30 11:42:19 | 48.28276 | 12.35507 | 80° | 9km/h | 17882m | 5.0m/s | -54.4°C | 1.3% | 81.7hPa | 2.7V | 00:00:00 | 00:00:00 | 00:00:00 | |
| OE5MMP-10 | 2026-08-30 11:42:17 | 48.28275 | 12.35497 | 92° | 9km/h | 17867m | 4.5m/s | -54.2°C | 4.3% | 81.8hPa | 2.7V | 00:00:00 | 01:12:29 | 00:00:00 | |
| OE5FHM-15 | 2026-08-30 11:42:16 | 48.28275 | 12.35495 | 92° | 11km/h | 17862m | 4.2m/s | -54.1°C | 4.2% | 81.9hPa | 2.7V | 00:00:00 | 01:12:28 | 00:00:00 | |
| DO3MHA-11 | 2026-08-30 11:42:14 | 48.28274 | 12.35488 | 81° | 11km/h | 17853m | 4.3m/s | -54.1°C | 4.2% | 82.0hPa | 2.7V | 00:00:00 | 01:12:26 | 00:00:00 | |
| BAUMI2-15 | 2026-08-30 11:42:13 | 48.28274 | 12.35484 | 86° | 9km/h | 17848m | 5.2m/s | -54.0°C | 4.2% | 82.1hPa | 2.7V | 00:00:00 | 01:12:25 | 00:00:00 | |
| OE5HKT-10 | 2026-08-30 11:42:10 | 48.28275 | 12.35474 | 97° | 11km/h | 17834m | 5.2m/s | 0°C | 0% | 0hPa | 2.7V | 00:00:00 | 01:12:22 | 00:00:00 | |
| BAUMI2-15 | 2026-08-30 11:42:08 | 48.28275 | 12.35465 | 102° | 11km/h | 17825m | 4.4m/s | -53.8°C | 4.1% | 82.4hPa | 2.7V | 00:00:00 | 01:12:20 | 00:00:00 | |
| OE5MMP-10 | 2026-08-30 11:42:07 | 48.28276 | 12.35461 | 111° | 11km/h | 17820m | 5.5m/s | -53.9°C | 4.2% | 82.4hPa | 2.6V | 00:00:00 | 01:12:19 | 00:00:00 | |
| DO3MHA-11 | 2026-08-30 11:42:04 | 48.28279 | 12.35451 | 98° | 11km/h | 17806m | 5.2m/s | -53.7°C | 4.1% | 82.6hPa | 2.6V | 00:00:00 | 01:12:16 | 00:00:00 | |
| BAUMI2-15 | 2026-08-30 11:42:03 | 48.28279 | 12.35446 | 89° | 11km/h | 17801m | 4.2m/s | -53.7°C | 4.1% | 82.7hPa | 2.6V | 00:00:00 | 01:12:15 | 00:00:00 | |
| OE5REO-15 | 2026-08-30 11:42:02 | 48.28279 | 12.35446 | 90° | 11km/h | 17801m | 4.3m/s | -53.7°C | 1.2% | 82.7hPa | 2.6V | 00:00:00 | 00:00:00 | 00:00:00 | |
| OE5DXL-15 | 2026-08-30 11:42:00 | 48.28279 | 12.35434 | 94° | 16km/h | 17787m | 4.1m/s | -53.7°C | 4.1% | 82.9hPa | 2.6V | 00:00:00 | 00:00:00 | 00:00:00 | |
| DG1MFX-10 | 2026-08-30 11:41:59 | 48.28279 | 12.35434 | 94° | 9km/h | 17787m | 4.2m/s | -53.8°C | 1.3% | 82.9hPa | 2.6V | 00:00:00 | 00:00:00 | 00:00:00 | |
| BAUMI2-15 | 2026-08-30 11:41:58 | 48.28279 | 12.35426 | 88° | 11km/h | 17777m | 4.3m/s | -53.6°C | 4.1% | 83.0hPa | 2.6V | 00:00:00 | 01:12:10 | 00:00:00 | |
| OE5MMP-10 | 2026-08-30 11:41:57 | 48.28280 | 12.35422 | 96° | 13km/h | 17773m | 3.4m/s | -53.6°C | 4.1% | 83.1hPa | 2.6V | 00:00:00 | 01:12:09 | 00:00:00 | |
| BAUMI2-15 | 2026-08-30 11:41:54 | 48.28284 | 12.35407 | 116° | 15km/h | 17755m | 4.9m/s | -53.4°C | 4.1% | 83.3hPa | 2.6V | 00:00:00 | 01:12:05 | 00:00:00 | |
| OE5WHR-10 | 2026-08-30 11:41:49 | 48.28286 | 12.35384 | 88° | 20km/h | 17738m | 4.2m/s | -53.2°C | 4.0% | 83.5hPa | 2.6V | 00:00:00 | 00:00:00 | 00:00:00 | |
| BAUMI2-15 | 2026-08-30 11:41:48 | 48.28286 | 12.35378 | 94° | 20km/h | 17734m | 3.8m/s | -53.3°C | 4.0% | 83.6hPa | 2.7V | 00:00:00 | 01:12:00 | 00:00:00 | |
| OE5MMP-10 | 2026-08-30 11:41:47 | 48.28286 | 12.35372 | 102° | 18km/h | 17730m | 4.5m/s | -53.2°C | 4.0% | 83.6hPa | 2.7V | 00:00:00 | 01:11:59 | 00:00:00 | |
| OE5FHM-15 | 2026-08-30 11:41:46 | 48.28288 | 12.35364 | 110° | 22km/h | 17725m | 5.2m/s | -53.1°C | 3.9% | 83.7hPa | 2.7V | 00:00:00 | 01:11:58 | 00:00:00 | |
| DO3MHA-11 | 2026-08-30 11:41:44 | 48.28293 | 12.35350 | 122° | 18km/h | 17715m | 5.5m/s | -53.1°C | 3.9% | 83.8hPa | 2.7V | 00:00:00 | 01:11:56 | 00:00:00 | |
| BAUMI2-15 | 2026-08-30 11:41:43 | 48.28296 | 12.35343 | 127° | 18km/h | 17710m | 4.2m/s | -53.0°C | 3.9% | 83.9hPa | 2.6V | 00:00:00 | 01:11:55 | 00:00:00 | |
| DG1MFX-10 | 2026-08-30 11:41:39 | 48.28304 | 12.35324 | 114° | 18km/h | 17696m | 3.4m/s | -52.9°C | 1.2% | 84.1hPa | 2.6V | 00:00:00 | 00:00:00 | 00:00:00 | |
| BAUMI2-15 | 2026-08-30 11:41:38 | 48.28306 | 12.35313 | 88° | 18km/h | 17687m | 4.0m/s | -53.0°C | 3.7% | 84.2hPa | 2.6V | 00:00:00 | 01:11:50 | 08:30:00 | |
| OE5MMP-10 | 2026-08-30 11:41:37 | 48.28305 | 12.35307 | 80° | 22km/h | 17684m | 3.3m/s | -53.2°C | 3.7% | 84.2hPa | 2.6V | 00:00:00 | 01:11:49 | 00:00:00 | |
| DO3MHA-11 | 2026-08-30 11:41:34 | 48.28304 | 12.35286 | 94° | 24km/h | 17670m | 3.6m/s | -53.6°C | 3.9% | 84.4hPa | 2.6V | 00:00:00 | 01:11:46 | 00:00:00 | |
| BAUMI2-15 | 2026-08-30 11:41:33 | 48.28305 | 12.35278 | 99° | 24km/h | 17665m | 5.5m/s | -53.7°C | 3.9% | 84.4hPa | 2.6V | 00:00:00 | 01:11:45 | 00:00:00 | |
| OE5DRO-10 | 2026-08-30 11:41:32 | 48.28306 | 12.35271 | 105° | 26km/h | 17661m | 3.9m/s | -53.7°C | 3.9% | 84.5hPa | 2.6V | 00:00:00 | 00:00:00 | 00:00:00 | |
| OE5DXL-15 | 2026-08-30 11:41:30 | 48.28309 | 12.35254 | 110° | 27km/h | 17651m | 5.6m/s | -53.8°C | 3.9% | 84.7hPa | 2.6V | 00:00:00 | 00:00:00 | 00:00:00 | |
| OE5WHR-10 | 2026-08-30 11:41:28 | 48.28313 | 12.35235 | 104° | 27km/h | 17642m | 2.9m/s | -53.9°C | 3.9% | 84.8hPa | 2.6V | 00:00:00 | 00:00:00 | 00:00:00 | |
| OE5MMP-10 | 2026-08-30 11:41:27 | 48.28314 | 12.35225 | 102° | 24km/h | 17638m | 5.6m/s | -54.1°C | 4.0% | 84.8hPa | 2.6V | 00:00:00 | 01:11:39 | 00:00:00 | |
| OE5HKT-10 | 2026-08-30 11:41:25 | 48.28316 | 12.35208 | 91° | 27km/h | 17628m | 4.4m/s | 0°C | 0% | 0hPa | 2.6V | 00:00:00 | 00:00:00 | 00:00:00 | |
| DO3MHA-11 | 2026-08-30 11:41:24 | 48.28316 | 12.35200 | 88° | 26km/h | 17623m | 5.3m/s | -54.6°C | 4.2% | 85.0hPa | 2.6V | 00:00:00 | 01:11:36 | 00:00:00 | |
| PETON7-10 | 2026-08-30 11:41:23 | 48.28315 | 12.35191 | 85° | 27km/h | 17618m | 4.3m/s | -54.6°C | 4.2% | 85.1hPa | 2.6V | 00:00:00 | 01:11:35 | 00:00:00 | |
| BAUMI2-15 | 2026-08-30 11:41:18 | 48.28308 | 12.35147 | 76° | 29km/h | 17595m | 4.7m/s | -54.5°C | 4.2% | 85.4hPa | 2.6V | 00:00:00 | 01:11:30 | 00:00:00 | |
| OE5MMP-10 | 2026-08-30 11:41:17 | 48.28306 | 12.35136 | 78° | 29km/h | 17590m | 3.7m/s | -54.5°C | 4.1% | 85.5hPa | 2.6V | 00:00:00 | 01:11:29 | 00:00:00 | |
| OE5FHM-15 | 2026-08-30 11:41:16 | 48.28305 | 12.35125 | 80° | 29km/h | 17586m | 5.3m/s | -54.5°C | 4.1% | 85.5hPa | 2.6V | 00:00:00 | 01:11:28 | 00:00:00 | |
| OE5REO-15 | 2026-08-30 11:41:15 | 48.28305 | 12.35125 | 80° | 29km/h | 17586m | 5.3m/s | -54.6°C | 1.3% | 85.6hPa | 2.6V | 00:00:00 | 00:00:00 | 00:00:00 | |
| BAUMI2-15 | 2026-08-30 11:41:13 | 48.28302 | 12.35094 | 83° | 31km/h | 17572m | 4.9m/s | -54.8°C | 4.2% | 85.7hPa | 2.6V | 00:00:00 | 01:11:25 | 00:00:00 | |
| PG1ADW-2 | 2026-08-30 11:41:10 | 48.28297 | 12.35060 | 74° | 27km/h | 17558m | 5.3m/s | -55.0°C | 4.3% | 85.9hPa | 2.6V | 00:00:00 | 00:00:00 | 00:00:00 | |
| PETON7-10 | 2026-08-30 11:41:08 | 48.28291 | 12.35038 | 66° | 29km/h | 17549m | 4.8m/s | -55.1°C | 4.3% | 86.0hPa | 2.6V | 00:00:00 | 00:00:00 | 08:30:00 | |
| OE5WHR-10 | 2026-08-30 11:41:07 | 48.28288 | 12.35027 | 65° | 27km/h | 17544m | 4.6m/s | -55.0°C | 4.3% | 86.1hPa | 2.7V | 00:00:00 | 01:11:19 | 00:00:00 | |
| OE3JTB-15 | 2026-08-30 11:41:05 | 48.28280 | 12.35005 | 60° | 27km/h | 17536m | 4.7m/s | -55.0°C | 4.3% | 86.2hPa | 2.7V | 00:00:00 | 00:00:00 | 00:00:00 | |
| DO3MHA-11 | 2026-08-30 11:41:04 | 48.28276 | 12.34995 | 61° | 27km/h | 17531m | 3.7m/s | -55.1°C | 4.3% | 86.3hPa | 2.6V | 00:00:00 | 01:11:16 | 00:00:00 | |
| BAUMI2-15 | 2026-08-30 11:41:03 | 48.28273 | 12.34985 | 64° | 29km/h | 17528m | 4.3m/s | -55.1°C | 4.3% | 86.3hPa | 2.6V | 00:00:00 | 01:11:15 | 00:00:00 | |
| OE5DXL-15 | 2026-08-30 11:41:00 | 48.28264 | 12.34953 | 73° | 26km/h | 17514m | 5.0m/s | -55.2°C | 4.3% | 86.5hPa | 2.6V | 00:00:00 | 00:00:00 | 00:00:00 | |
| OE5REO-15 | 2026-08-30 11:40:59 | 48.28264 | 12.34953 | 74° | 29km/h | 17514m | 5.0m/s | -55.2°C | 1.3% | 86.6hPa | 2.6V | 00:00:00 | 00:00:00 | 00:00:00 | |
| DG1MFX-10 | 2026-08-30 11:40:58 | 48.28261 | 12.34933 | 81° | 27km/h | 17505m | 4.5m/s | -55.3°C | 1.4% | 86.6hPa | 2.6V | 00:00:00 | 00:00:00 | 00:00:00 | |
| OE5MMP-10 | 2026-08-30 11:40:57 | 48.28260 | 12.34923 | 81° | 26km/h | 17501m | 4.7m/s | -55.4°C | 4.4% | 86.7hPa | 2.6V | 00:00:00 | 01:11:09 | 00:00:00 | |
| DO3MHA-11 | 2026-08-30 11:40:54 | 48.28257 | 12.34896 | 82° | 26km/h | 17487m | 3.7m/s | -55.4°C | 4.5% | 86.9hPa | 2.6V | 00:00:00 | 01:11:06 | 00:00:00 | |
| PETON7-10 | 2026-08-30 11:40:53 | 48.28256 | 12.34887 | 80° | 27km/h | 17483m | 4.6m/s | -55.3°C | 4.5% | 86.9hPa | 2.6V | 00:00:00 | 00:00:00 | 00:00:00 | |
| BAUMI2-15 | 2026-08-30 11:40:48 | 48.28246 | 12.34841 | 66° | 29km/h | 17460m | 3.4m/s | -55.2°C | 4.4% | 87.2hPa | 2.6V | 00:00:00 | 01:11:00 | 00:00:00 | |
| OE5MMP-10 | 2026-08-30 11:40:47 | 48.28243 | 12.34831 | 68° | 27km/h | 17456m | 5.1m/s | -55.1°C | 4.4% | 87.3hPa | 2.6V | 00:00:00 | 01:10:59 | 00:00:00 | |
| OE5FHM-15 | 2026-08-30 11:40:46 | 48.28240 | 12.34821 | 71° | 26km/h | 17452m | 3.7m/s | -55.2°C | 4.5% | 87.4hPa | 2.6V | 00:00:00 | 01:10:58 | 00:00:00 | |
| OE5REO-15 | 2026-08-30 11:40:45 | 48.28238 | 12.34810 | 74° | 29km/h | 17447m | 4.5m/s | -55.1°C | 1.4% | 87.4hPa | 2.6V | 00:00:00 | 00:00:00 | 00:00:00 | |
| DO3MHA-11 | 2026-08-30 11:40:44 | 48.28236 | 12.34800 | 77° | 26km/h | 17443m | 4.6m/s | -55.0°C | 4.4% | 87.5hPa | 2.6V | 00:00:00 | 01:10:56 | 00:00:00 | |
| BAUMI2-15 | 2026-08-30 11:40:43 | 48.28235 | 12.34790 | 79° | 26km/h | 17439m | 3.5m/s | -55.1°C | 4.4% | 87.5hPa | 2.7V | 00:00:00 | 01:10:55 | 00:00:00 | |
| OE5HKT-10 | 2026-08-30 11:40:42 | 48.28233 | 12.34780 | 78° | 26km/h | 17435m | 4.8m/s | 0°C | 0% | 0hPa | 2.7V | 00:00:00 | 00:00:00 | 08:30:00 | |
| PETON7-10 | 2026-08-30 11:40:38 | 48.28224 | 12.34744 | 55° | 24km/h | 17417m | 3.5m/s | -54.7°C | 4.3% | 87.8hPa | 2.7V | 00:00:00 | 01:10:50 | 00:00:00 | |
| OE5MMP-10 | 2026-08-30 11:40:37 | 48.28220 | 12.34737 | 52° | 26km/h | 17413m | 4.5m/s | -54.8°C | 4.3% | 87.9hPa | 2.7V | 00:00:00 | 01:10:49 | 00:00:00 | |
| OE3JTB-15 | 2026-08-30 11:40:36 | 48.28216 | 12.34729 | 55° | 27km/h | 17409m | 4.4m/s | -54.8°C | 4.4% | 88.0hPa | 2.6V | 00:00:00 | 00:00:00 | 00:00:00 | |
| DO7DH-14 | 2026-08-30 11:40:35 | 48.28213 | 12.34721 | 60° | 26km/h | 17404m | 3.8m/s | 0°C | 0% | 0hPa | 2.6V | 00:00:00 | 01:10:47 | 00:00:00 | |
| DO3MHA-11 | 2026-08-30 11:40:34 | 48.28210 | 12.34712 | 66° | 24km/h | 17400m | 4.2m/s | -54.7°C | 4.3% | 88.1hPa | 2.6V | 00:00:00 | 01:10:46 | 00:00:00 | |
| DB0UT-7 | 2026-08-30 11:40:33 | 48.28208 | 12.34704 | 73° | 33km/h | 17396m | 4.9m/s | -54.7°C | 4.3% | 88.1hPa | 2.6V | 00:00:00 | 00:00:00 | 00:00:00 | |
| BAUMI2-15 | 2026-08-30 11:40:32 | 48.28206 | 12.34695 | 83° | 26km/h | 17392m | 3.5m/s | -54.7°C | 4.3% | 88.2hPa | 2.7V | 00:00:00 | 01:10:44 | 00:00:00 | |
| OE5DXL-15 | 2026-08-30 11:40:30 | 48.28206 | 12.34676 | 88° | 29km/h | 17382m | 4.4m/s | -54.6°C | 4.4% | 88.3hPa | 2.7V | 00:00:00 | 00:00:00 | 00:00:00 | |
| OE5DRO-10 | 2026-08-30 11:40:29 | 48.28205 | 12.34666 | 87° | 24km/h | 17378m | 3.3m/s | -54.6°C | 4.3% | 88.4hPa | 2.7V | 00:00:00 | 00:00:00 | 00:00:00 | |
| OE5MMP-10 | 2026-08-30 11:40:27 | 48.28204 | 12.34646 | 84° | 24km/h | 17370m | 4.9m/s | -54.6°C | 4.4% | 88.5hPa | 2.7V | 00:00:00 | 01:10:39 | 00:00:00 | |
| OE5WHR-10 | 2026-08-30 11:40:25 | 48.28202 | 12.34630 | 72° | 29km/h | 17361m | 3.9m/s | -54.5°C | 4.3% | 88.6hPa | 2.7V | 00:00:00 | 00:00:00 | 00:00:00 | |
| DO3MHA-11 | 2026-08-30 11:40:24 | 48.28200 | 12.34623 | 66° | 24km/h | 17357m | 4.9m/s | -54.5°C | 4.3% | 88.7hPa | 2.7V | 00:00:00 | 01:10:36 | 00:00:00 | |
| PETON7-10 | 2026-08-30 11:40:23 | 48.28197 | 12.34615 | 63° | 27km/h | 17352m | 4.6m/s | -54.6°C | 4.3% | 88.7hPa | 2.7V | 00:00:00 | 00:00:00 | 00:00:00 | |
| BAUMI2-15 | 2026-08-30 11:40:22 | 48.28194 | 12.34606 | 60° | 24km/h | 17348m | 3.4m/s | -54.5°C | 4.3% | 88.8hPa | 2.6V | 00:00:00 | 01:10:34 | 00:00:00 | |
| OE5HKT-10 | 2026-08-30 11:40:21 | 48.28191 | 12.34598 | 58° | 29km/h | 17344m | 4.5m/s | 0°C | 0% | 0hPa | 2.6V | 00:00:00 | 00:00:00 | 00:00:00 | |
| OE5MMP-10 | 2026-08-30 11:40:17 | 48.28182 | 12.34566 | 84° | 31km/h | 17326m | 3.9m/s | -54.2°C | 4.2% | 89.1hPa | 2.6V | 00:00:00 | 01:10:29 | 00:00:00 | |
| OE5FHM-15 | 2026-08-30 11:40:16 | 48.28182 | 12.34557 | 85° | 35km/h | 17322m | 4.3m/s | -54.2°C | 4.2% | 89.2hPa | 2.6V | 00:00:00 | 01:10:28 | 00:00:00 | |
| DO3MHA-11 | 2026-08-30 11:40:14 | 48.28180 | 12.34538 | 75° | 33km/h | 17312m | 4.2m/s | -54.3°C | 4.1% | 89.3hPa | 2.6V | 00:00:00 | 01:10:26 | 00:00:00 | |
| DL6DJ-15 | 2026-08-30 11:40:13 | 48.28177 | 12.34529 | 69° | 29km/h | 17307m | 5.1m/s | -54.3°C | 1.3% | 89.4hPa | 2.7V | 00:00:00 | 00:00:00 | 00:00:00 | |
| OE5DRO-10 | 2026-08-30 11:40:10 | 48.28167 | 12.34492 | 67° | 37km/h | 17292m | 4.8m/s | -54.0°C | 3.9% | 89.6hPa | 2.7V | 00:00:00 | 00:00:00 | 00:00:00 | |
| PETON7-10 | 2026-08-30 11:40:08 | 48.28161 | 12.34466 | 76° | 35km/h | 17282m | 3.9m/s | -54.1°C | 3.9% | 89.7hPa | 2.7V | 00:00:00 | 00:00:00 | 00:00:00 | |
| OE5MMP-10 | 2026-08-30 11:40:07 | 48.28159 | 12.34454 | 83° | 35km/h | 17277m | 5.7m/s | -54.1°C | 3.9% | 89.8hPa | 2.7V | 00:00:00 | 01:10:19 | 00:00:00 | |
| OE5WHR-10 | 2026-08-30 11:40:04 | 48.28160 | 12.34417 | 95° | 38km/h | 17260m | 6.3m/s | -54.3°C | 4.0% | 90.0hPa | 2.7V | 00:00:00 | 01:10:16 | 00:00:00 | |
| DO7DH-14 | 2026-08-30 11:40:03 | 48.28160 | 12.34405 | 91° | 38km/h | 17254m | 4.6m/s | 0°C | 0% | 0hPa | 2.7V | 00:00:00 | 01:10:15 | 00:00:00 | |
| OE5HKT-10 | 2026-08-30 11:40:00 | 48.28159 | 12.34367 | 88° | 42km/h | 17239m | 6.7m/s | 0°C | 0% | 0hPa | 2.7V | 00:00:00 | 01:10:12 | 00:00:00 | |
| OE5REO-15 | 2026-08-30 11:39:58 | 48.28158 | 12.34353 | 86° | 38km/h | 17233m | 4.4m/s | -55.1°C | 1.4% | 90.4hPa | 2.7V | 00:00:00 | 00:00:00 | 00:00:00 | |
| OE5MMP-10 | 2026-08-30 11:39:57 | 48.28155 | 12.34325 | 76° | 38km/h | 17223m | 4.3m/s | -55.5°C | 4.4% | 90.6hPa | 2.7V | 00:00:00 | 01:10:09 | 00:00:00 | |
| DG1MFX-10 | 2026-08-30 11:39:56 | 48.28156 | 12.34325 | 76° | 38km/h | 17223m | 4.3m/s | -55.6°C | 1.4% | 90.6hPa | 2.7V | 00:00:00 | 00:00:00 | 00:00:00 | |
| DO3MHA-11 | 2026-08-30 11:39:54 | 48.28148 | 12.34282 | 79° | 40km/h | 17207m | 5.0m/s | -55.7°C | 4.5% | 90.8hPa | 2.7V | 00:00:00 | 01:10:06 | 00:00:00 | |
| DH7VM-15 | 2026-08-30 11:39:53 | 48.28148 | 12.34282 | 80° | 38km/h | 17207m | 5.1m/s | -55.7°C | 1.5% | 90.8hPa | 2.7V | 00:00:00 | 00:00:00 | 00:00:00 | |
| PETON7-10 | 2026-08-30 11:39:52 | 48.28144 | 12.34254 | 78° | 44km/h | 17198m | 5.2m/s | -55.7°C | 4.5% | 90.9hPa | 2.7V | 00:00:00 | 01:10:04 | 00:00:00 | |
| OE5DRO-10 | 2026-08-30 11:39:51 | 48.28142 | 12.34240 | 76° | 42km/h | 17193m | 5.1m/s | -55.7°C | 4.5% | 91.0hPa | 2.7V | 00:00:00 | 00:00:00 | 00:00:00 | |
| OE5MMP-10 | 2026-08-30 11:39:47 | 48.28134 | 12.34181 | 83° | 46km/h | 17174m | 4.5m/s | -55.7°C | 4.6% | 91.3hPa | 2.7V | 00:00:00 | 01:09:59 | 00:00:00 | |
| OE5FHM-15 | 2026-08-30 11:39:46 | 48.28132 | 12.34164 | 82° | 40km/h | 17169m | 6.2m/s | -55.7°C | 4.6% | 91.3hPa | 2.7V | 00:00:00 | 01:09:58 | 00:00:00 | |
| DO3MHA-11 | 2026-08-30 11:39:44 | 48.28128 | 12.34129 | 79° | 44km/h | 17158m | 4.2m/s | -55.6°C | 4.6% | 91.4hPa | 2.7V | 00:00:00 | 01:09:56 | 08:30:00 | |
| OE5WHR-10 | 2026-08-30 11:39:43 | 48.28126 | 12.34111 | 80° | 42km/h | 17154m | 4.4m/s | -55.5°C | 4.6% | 91.5hPa | 2.7V | 00:00:00 | 00:00:00 | 00:00:00 | |
| DL6DJ-15 | 2026-08-30 11:39:42 | 48.28124 | 12.34093 | 80° | 47km/h | 17149m | 5.4m/s | -55.6°C | 1.5% | 91.6hPa | 2.7V | 00:00:00 | 00:00:00 | 00:00:00 | |
| PG1ADW-2 | 2026-08-30 11:39:41 | 48.28122 | 12.34075 | 82° | 40km/h | 17144m | 4.6m/s | -55.5°C | 4.6% | 91.7hPa | 2.7V | 00:00:00 | 01:09:53 | 00:00:00 | |
| OE5HKT-10 | 2026-08-30 11:39:38 | 48.28114 | 12.34026 | 72° | 37km/h | 17131m | 4.3m/s | 0°C | 0% | 0hPa | 2.7V | 00:00:00 | 00:00:00 | 00:00:00 | |
| OE5MMP-10 | 2026-08-30 11:39:37 | 48.28111 | 12.34011 | 73° | 38km/h | 17125m | 5.7m/s | -55.4°C | 4.5% | 92.0hPa | 2.7V | 00:00:00 | 01:09:49 | 08:30:00 | |
| DG1MFX-10 | 2026-08-30 11:39:35 | 48.28108 | 12.33996 | 74° | 40km/h | 17120m | 4.7m/s | -55.5°C | 1.6% | 92.1hPa | 2.7V | 00:00:00 | 00:00:00 | 00:00:00 | |
| DO3MHA-11 | 2026-08-30 11:39:34 | 48.28102 | 12.33968 | 73° | 38km/h | 17111m | 5.4m/s | -55.4°C | 4.5% | 92.2hPa | 2.7V | 00:00:00 | 01:09:46 | 00:00:00 | |
| OE5DRO-10 | 2026-08-30 11:39:32 | 48.28097 | 12.33940 | 78° | 38km/h | 17101m | 5.8m/s | -55.4°C | 4.5% | 92.3hPa | 2.7V | 00:00:00 | 00:00:00 | 08:30:00 | |
| OE5DXL-15 | 2026-08-30 11:39:30 | 48.28094 | 12.33911 | 83° | 37km/h | 17092m | 4.3m/s | -55.3°C | 4.4% | 92.4hPa | 2.6V | 00:00:00 | 01:09:42 | 00:00:00 | |
| OE5MMP-10 | 2026-08-30 11:39:27 | 48.28089 | 12.33867 | 78° | 37km/h | 17077m | 3.6m/s | -55.2°C | 4.4% | 92.7hPa | 2.6V | 00:00:00 | 01:09:39 | 00:00:00 | |
| OE5REO-15 | 2026-08-30 11:39:26 | 48.28089 | 12.33867 | 79° | 40km/h | 17077m | 3.6m/s | -55.3°C | 1.4% | 92.7hPa | 2.6V | 00:00:00 | 00:00:00 | 00:00:00 | |
| S52SK | 2026-08-30 11:39:25 | 48.28087 | 12.33852 | 81° | 40km/h | 17073m | 5.0m/s | -55.2°C | 1.4% | 92.8hPa | 2.6V | 00:00:00 | 00:00:00 | 00:00:00 | |
| DO3MHA-11 | 2026-08-30 11:39:24 | 48.28084 | 12.33822 | 84° | 37km/h | 17063m | 4.4m/s | -55.1°C | 4.4% | 92.9hPa | 2.6V | 00:00:00 | 01:09:36 | 00:00:00 | |
| OE5WHR-10 | 2026-08-30 11:39:22 | 48.28082 | 12.33794 | 81° | 37km/h | 17054m | 3.8m/s | -55.0°C | 4.3% | 93.0hPa | 2.6V | 00:00:00 | 00:00:00 | 00:00:00 | |
| OE5MMP-10 | 2026-08-30 11:39:17 | 48.28072 | 12.33730 | 67° | 37km/h | 17031m | 4.3m/s | -55.0°C | 4.3% | 93.4hPa | 2.6V | 00:00:00 | 01:09:29 | 00:00:00 | |
| OE5FHM-15 | 2026-08-30 11:39:16 | 48.28068 | 12.33717 | 66° | 37km/h | 17027m | 3.5m/s | -54.9°C | 4.2% | 93.4hPa | 2.6V | 00:00:00 | 01:09:28 | 00:00:00 | |
| OE5HKT-10 | 2026-08-30 11:39:15 | 48.28064 | 12.33704 | 68° | 35km/h | 17022m | 5.1m/s | 0°C | 0% | 0hPa | 2.6V | 00:00:00 | 00:00:00 | 00:00:00 | |
| DO3MHA-11 | 2026-08-30 11:39:14 | 48.28061 | 12.33690 | 74° | 37km/h | 17018m | 4.1m/s | -55.2°C | 4.3% | 93.5hPa | 2.6V | 00:00:00 | 01:09:26 | 00:00:00 | |
| OE5DRO-10 | 2026-08-30 11:39:13 | 48.28059 | 12.33676 | 78° | 35km/h | 17014m | 4.3m/s | -55.3°C | 4.3% | 93.6hPa | 2.6V | 00:00:00 | 00:00:00 | 00:00:00 | |
| DL6DJ-15 | 2026-08-30 11:39:11 | 48.28056 | 12.33649 | 81° | 35km/h | 17004m | 4.6m/s | -55.5°C | 1.4% | 93.8hPa | 2.6V | 00:00:00 | 00:00:00 | 00:00:00 | |
| OE3JTB-15 | 2026-08-30 11:39:09 | 48.28054 | 12.33622 | 85° | 35km/h | 16995m | 5.0m/s | -55.7°C | 4.5% | 93.9hPa | 2.6V | 00:00:00 | 00:00:00 | 00:00:00 | |
| PETON7-10 | 2026-08-30 11:39:07 | 48.28051 | 12.33594 | 80° | 33km/h | 16986m | 5.0m/s | 0°C | 0% | 0hPa | 2.6V | 00:00:00 | 01:09:19 | 00:00:00 | |
| DB0UT-7 | 2026-08-30 11:39:06 | 48.28049 | 12.33581 | 74° | 35km/h | 16981m | 5.1m/s | -55.7°C | 4.5% | 94.1hPa | 2.6V | 00:00:00 | 01:09:18 | 00:00:00 | |
| DO3MHA-11 | 2026-08-30 11:39:04 | 48.28043 | 12.33557 | 69° | 33km/h | 16972m | 5.5m/s | -55.8°C | 4.5% | 94.2hPa | 2.6V | 00:00:00 | 01:09:16 | 00:00:00 | |
| OE5WHR-10 | 2026-08-30 11:39:01 | 48.28033 | 12.33520 | 67° | 33km/h | 16958m | 5.5m/s | -55.9°C | 4.5% | 94.5hPa | 2.6V | 00:00:00 | 01:09:13 | 00:00:00 | |
| OE5DXL-15 | 2026-08-30 11:39:00 | 48.28030 | 12.33508 | 67° | 33km/h | 16953m | 3.8m/s | -55.9°C | 4.6% | 94.5hPa | 2.6V | 00:00:00 | 00:00:00 | 00:00:00 | |
| OE5MMP-10 | 2026-08-30 11:38:57 | 48.28024 | 12.33475 | 83° | 37km/h | 16940m | 4.3m/s | -56.0°C | 4.7% | 94.7hPa | 2.6V | 00:00:00 | 01:09:09 | 00:00:00 | |
| OE5REO-15 | 2026-08-30 11:38:55 | 48.28023 | 12.33463 | 84° | 31km/h | 16935m | 4.8m/s | -56.1°C | 1.6% | 94.8hPa | 2.6V | 00:00:00 | 00:00:00 | 00:00:00 | |
| DO3MHA-11 | 2026-08-30 11:38:54 | 48.28020 | 12.33441 | 70° | 37km/h | 16926m | 3.4m/s | -56.1°C | 4.7% | 94.9hPa | 2.6V | 00:00:00 | 01:09:06 | 00:00:00 | |
| OE5HKT-10 | 2026-08-30 11:38:53 | 48.28016 | 12.33430 | 63° | 38km/h | 16922m | 5.0m/s | 0°C | 0% | 0hPa | 2.6V | 00:00:00 | 01:09:05 | 00:00:00 | |
| PETON7-10 | 2026-08-30 11:38:52 | 48.28012 | 12.33418 | 58° | 40km/h | 16917m | 5.2m/s | 0°C | 0% | 0hPa | 2.6V | 00:00:00 | 00:00:00 | 00:00:00 | |
| OE5MMP-10 | 2026-08-30 11:38:47 | 48.27979 | 12.33360 | 52° | 31km/h | 16893m | 4.8m/s | -56.1°C | 4.6% | 95.4hPa | 2.6V | 00:00:00 | 01:08:59 | 00:00:00 | |
| OE5FHM-15 | 2026-08-30 11:38:46 | 48.27973 | 12.33349 | 61° | 37km/h | 16889m | 4.3m/s | -56.1°C | 4.6% | 95.5hPa | 2.6V | 00:00:00 | 01:08:58 | 08:30:00 | |
| DO3MHA-11 | 2026-08-30 11:38:44 | 48.27968 | 12.33327 | 81° | 33km/h | 16879m | 6.1m/s | -56.0°C | 4.5% | 95.6hPa | 2.7V | 00:00:00 | 01:08:56 | 00:00:00 | |
| OE5WHR-10 | 2026-08-30 11:38:40 | 48.27966 | 12.33286 | 72° | 37km/h | 16860m | 4.1m/s | -55.9°C | 4.5% | 95.9hPa | 2.6V | 00:00:00 | 00:00:00 | 00:00:00 | |
| OE5REO-15 | 2026-08-30 11:38:39 | 48.27966 | 12.33286 | 73° | 31km/h | 16860m | 4.1m/s | -55.9°C | 1.5% | 96.0hPa | 2.7V | 00:00:00 | 00:00:00 | 00:00:00 | |
| OE5MMP-10 | 2026-08-30 11:38:37 | 48.27954 | 12.33251 | 62° | 37km/h | 16842m | 6.4m/s | -55.9°C | 4.4% | 96.2hPa | 2.7V | 00:00:00 | 01:08:49 | 00:00:00 | |
| DB0UT-7 | 2026-08-30 11:38:36 | 48.27950 | 12.33238 | 64° | 38km/h | 16835m | 6.6m/s | -56.2°C | 4.5% | 96.2hPa | 2.6V | 00:00:00 | 00:00:00 | 00:00:00 | |
| OE5DRO-10 | 2026-08-30 11:38:35 | 48.27946 | 12.33225 | 69° | 38km/h | 16829m | 5.6m/s | -56.3°C | 4.6% | 96.4hPa | 2.6V | 00:00:00 | 00:00:00 | 00:00:00 | |
| DO3MHA-11 | 2026-08-30 11:38:34 | 48.27943 | 12.33212 | 71° | 37km/h | 16824m | 4.9m/s | -56.3°C | 4.6% | 96.5hPa | 2.6V | 00:00:00 | 01:08:46 | 00:00:00 | |
| DG1MFX-10 | 2026-08-30 11:38:33 | 48.27942 | 12.33212 | 71° | 35km/h | 16824m | 4.9m/s | -56.4°C | 1.6% | 96.5hPa | 2.6V | 00:00:00 | 00:00:00 | 00:00:00 | |
| OE5DXL-15 | 2026-08-30 11:38:30 | 48.27934 | 12.33161 | 83° | 42km/h | 16801m | 6.7m/s | -56.9°C | 4.8% | 96.8hPa | 2.6V | 00:00:00 | 00:00:00 | 00:00:00 | |
| DH7VM-15 | 2026-08-30 11:38:28 | 48.27933 | 12.33146 | 86° | 40km/h | 16795m | 4.6m/s | -57.0°C | 1.7% | 96.9hPa | 2.6V | 00:00:00 | 00:00:00 | 00:00:00 | |
| OE5MMP-10 | 2026-08-30 11:38:27 | 48.27931 | 12.33117 | 84° | 40km/h | 16784m | 5.7m/s | -56.9°C | 4.9% | 97.1hPa | 2.6V | 00:00:00 | 01:08:39 | 00:00:00 | |
| DO3MHA-11 | 2026-08-30 11:38:24 | 48.27927 | 12.33075 | 82° | 42km/h | 16769m | 4.7m/s | -56.9°C | 4.9% | 97.3hPa | 2.6V | 00:00:00 | 01:08:36 | 00:00:00 | |
| DO7DH-14 | 2026-08-30 11:38:19 | 48.27913 | 12.33003 | 73° | 44km/h | 16747m | 4.7m/s | 0°C | 0% | 0hPa | 2.6V | 00:00:00 | 01:08:31 | 00:00:00 | |
| OE5MMP-10 | 2026-08-30 11:38:17 | 48.27907 | 12.32971 | 73° | 42km/h | 16739m | 4.5m/s | -56.9°C | 4.9% | 97.8hPa | 2.6V | 00:00:00 | 01:08:29 | 00:00:00 | |
| DO3MHA-11 | 2026-08-30 11:38:14 | 48.27896 | 12.32924 | 73° | 42km/h | 16724m | 5.4m/s | -57.0°C | 4.9% | 98.0hPa | 2.6V | 00:00:00 | 01:08:26 | 08:30:00 | |
| DG1MFX-10 | 2026-08-30 11:38:13 | 48.27893 | 12.32909 | 75° | 42km/h | 16719m | 4.5m/s | -57.3°C | 1.8% | 98.1hPa | 2.6V | 00:00:00 | 00:00:00 | 00:00:00 | |
| BAUMI2-15 | 2026-08-30 11:38:12 | 48.27890 | 12.32894 | 74° | 40km/h | 16715m | 4.6m/s | -57.3°C | 5.1% | 98.1hPa | 2.6V | 00:00:00 | 01:08:24 | 00:00:00 | |
| OE5HKT-10 | 2026-08-30 11:38:11 | 48.27887 | 12.32880 | 72° | 38km/h | 16710m | 5.3m/s | 0°C | 0% | 0hPa | 2.6V | 00:00:00 | 00:00:00 | 00:00:00 | |
| DL6DJ-15 | 2026-08-30 11:38:09 | 48.27881 | 12.32851 | 72° | 40km/h | 16701m | 5.3m/s | -57.2°C | 1.7% | 98.4hPa | 2.6V | 00:00:00 | 00:00:00 | 00:00:00 | |
| BAUMI2-15 | 2026-08-30 11:38:07 | 48.27874 | 12.32819 | 75° | 47km/h | 16691m | 3.9m/s | -57.1°C | 5.0% | 98.5hPa | 2.6V | 00:00:00 | 01:08:19 | 08:30:00 | |
| DO3MHA-11 | 2026-08-30 11:38:04 | 48.27864 | 12.32768 | 73° | 46km/h | 16677m | 3.7m/s | -57.0°C | 5.0% | 98.7hPa | 2.6V | 00:00:00 | 01:08:16 | 00:00:00 | |
| BAUMI2-15 | 2026-08-30 11:38:02 | 48.27858 | 12.32734 | 74° | 44km/h | 16667m | 4.0m/s | -57.0°C | 5.0% | 98.9hPa | 2.6V | 00:00:00 | 01:08:14 | 00:00:00 | |
| OE5DXL-15 | 2026-08-30 11:38:00 | 48.27851 | 12.32701 | 71° | 44km/h | 16658m | 5.2m/s | -56.8°C | 4.9% | 99.0hPa | 2.6V | 00:00:00 | 00:00:00 | 00:00:00 | |
| OE5WHR-10 | 2026-08-30 11:37:58 | 48.27843 | 12.32670 | 70° | 44km/h | 16649m | 3.3m/s | -56.7°C | 4.9% | 99.1hPa | 2.6V | 00:00:00 | 01:08:10 | 00:00:00 | |
| OE5MMP-10 | 2026-08-30 11:37:57 | 48.27839 | 12.32655 | 72° | 47km/h | 16645m | 5.3m/s | -56.8°C | 4.9% | 99.2hPa | 2.6V | 00:00:00 | 01:08:09 | 00:00:00 | |
| DO3MHA-11 | 2026-08-30 11:37:54 | 48.27829 | 12.32607 | 70° | 49km/h | 16631m | 4.8m/s | -56.8°C | 4.8% | 99.4hPa | 2.6V | 00:00:00 | 01:08:06 | 00:00:00 | |
| BAUMI2-15 | 2026-08-30 11:37:52 | 48.27820 | 12.32574 | 71° | 49km/h | 16623m | 4.6m/s | -56.9°C | 4.9% | 99.6hPa | 2.6V | 00:00:00 | 01:08:04 | 00:00:00 | |
| OE5MMP-10 | 2026-08-30 11:37:47 | 48.27799 | 12.32485 | 64° | 42km/h | 16600m | 4.4m/s | -56.7°C | 4.9% | 99.9hPa | 2.6V | 00:00:00 | 01:07:59 | 00:00:00 | |
| OE5FHM-15 | 2026-08-30 11:37:46 | 48.27793 | 12.32469 | 63° | 42km/h | 16596m | 4.0m/s | -56.8°C | 4.9% | 100.0hPa | 2.6V | 00:00:00 | 01:07:58 | 00:00:00 | |
| DO3MHA-11 | 2026-08-30 11:37:44 | 48.27783 | 12.32437 | 68° | 40km/h | 16587m | 3.9m/s | -56.7°C | 4.9% | 100.1hPa | 2.6V | 00:00:00 | 01:07:56 | 00:00:00 | |
| BAUMI2-15 | 2026-08-30 11:37:42 | 48.27775 | 12.32408 | 69° | 38km/h | 16578m | 5.4m/s | -56.8°C | 4.9% | 100.3hPa | 2.7V | 00:00:00 | 01:07:54 | 00:00:00 | |
| OE5REO-15 | 2026-08-30 11:37:39 | 48.27769 | 12.32382 | 75° | 37km/h | 16568m | 4.9m/s | -57.2°C | 1.8% | 100.4hPa | 2.7V | 00:00:00 | 00:00:00 | 00:00:00 | |
| OE5DRO-10 | 2026-08-30 11:37:38 | 48.27764 | 12.32354 | 75° | 42km/h | 16559m | 3.8m/s | -57.0°C | 5.1% | 100.5hPa | 2.7V | 00:00:00 | 00:00:00 | 00:00:00 | |
| OE5WHR-10 | 2026-08-30 11:37:37 | 48.27761 | 12.32339 | 72° | 42km/h | 16555m | 5.0m/s | -57.1°C | 5.1% | 100.6hPa | 2.7V | 00:00:00 | 00:00:00 | 08:30:00 | |
| DO3MHA-11 | 2026-08-30 11:37:34 | 48.27747 | 12.32293 | 65° | 44km/h | 16541m | 5.0m/s | -57.0°C | 5.1% | 100.8hPa | 2.6V | 00:00:00 | 01:07:46 | 00:00:00 | |
| BAUMI2-15 | 2026-08-30 11:37:32 | 48.27736 | 12.32261 | 62° | 44km/h | 16532m | 5.4m/s | -57.0°C | 5.1% | 101.0hPa | 2.6V | 00:00:00 | 01:07:44 | 00:00:00 | |
| DG1MFX-10 | 2026-08-30 11:37:31 | 48.27736 | 12.32261 | 63° | 47km/h | 16532m | 5.4m/s | -57.1°C | 1.9% | 101.1hPa | 2.6V | 00:00:00 | 00:00:00 | 00:00:00 | |
| OE5DXL-15 | 2026-08-30 11:37:30 | 48.27726 | 12.32230 | 66° | 44km/h | 16522m | 4.7m/s | -56.9°C | 5.1% | 101.2hPa | 2.6V | 00:00:00 | 00:00:00 | 00:00:00 | |
| DB0UT-7 | 2026-08-30 11:37:29 | 48.27722 | 12.32215 | 71° | 42km/h | 16517m | 5.5m/s | -56.9°C | 5.1% | 101.2hPa | 2.6V | 00:00:00 | 01:07:41 | 00:00:00 | |
| OE5MMP-10 | 2026-08-30 11:37:27 | 48.27716 | 12.32186 | 75° | 40km/h | 16508m | 5.6m/s | -56.8°C | 5.0% | 101.4hPa | 2.6V | 00:00:00 | 01:07:39 | 00:00:00 | |
| DO3MHA-11 | 2026-08-30 11:37:24 | 48.27708 | 12.32143 | 76° | 42km/h | 16493m | 5.5m/s | -56.8°C | 5.1% | 101.6hPa | 2.6V | 00:00:00 | 01:07:36 | 00:00:00 | |
| OE5REO-15 | 2026-08-30 11:37:23 | 48.27708 | 12.32143 | 77° | 40km/h | 16493m | 5.6m/s | -56.9°C | 1.8% | 101.7hPa | 2.6V | 00:00:00 | 00:00:00 | 00:00:00 | |
| BAUMI2-15 | 2026-08-30 11:37:22 | 48.27703 | 12.32113 | 74° | 42km/h | 16484m | 3.5m/s | -56.7°C | 5.0% | 101.7hPa | 2.6V | 00:00:00 | 01:07:34 | 08:30:00 | |
| OE5DRO-10 | 2026-08-30 11:37:19 | 48.27692 | 12.32070 | 67° | 44km/h | 16470m | 5.3m/s | -56.8°C | 5.1% | 102.0hPa | 2.6V | 00:00:00 | 00:00:00 | 00:00:00 | |
| OE5MMP-10 | 2026-08-30 11:37:17 | 48.27684 | 12.32040 | 68° | 44km/h | 16461m | 3.3m/s | -56.7°C | 5.0% | 102.1hPa | 2.6V | 00:00:00 | 01:07:29 | 00:00:00 | |
| OE5WHR-10 | 2026-08-30 11:37:16 | 48.27679 | 12.32026 | 67° | 44km/h | 16457m | 5.0m/s | -56.8°C | 5.0% | 102.2hPa | 2.6V | 00:00:00 | 00:00:00 | 00:00:00 | |
| NBG1-10 | 2026-08-30 11:37:15 | 48.27675 | 12.32012 | 68° | 58km/h | 16452m | 4.2m/s | 0°C | 0% | 0hPa | 2.6V | 00:00:00 | 01:07:27 | 00:00:00 | |
| DO3MHA-11 | 2026-08-30 11:37:14 | 48.27671 | 12.31997 | 70° | 46km/h | 16448m | 3.8m/s | -56.6°C | 5.0% | 102.4hPa | 2.6V | 00:00:00 | 01:07:26 | 00:00:00 | |
| OE3JTB-15 | 2026-08-30 11:37:13 | 48.27668 | 12.31982 | 73° | 46km/h | 16443m | 5.3m/s | -56.7°C | 5.0% | 102.4hPa | 2.6V | 00:00:00 | 01:07:25 | 00:00:00 | |
| BAUMI2-15 | 2026-08-30 11:37:12 | 48.27665 | 12.31965 | 76° | 46km/h | 16439m | 3.8m/s | -56.7°C | 5.1% | 102.5hPa | 2.6V | 00:00:00 | 01:07:24 | 00:00:00 | |
| DG1MFX-10 | 2026-08-30 11:37:11 | 48.27665 | 12.31965 | 77° | 46km/h | 16439m | 3.9m/s | -56.8°C | 1.9% | 102.6hPa | 2.6V | 00:00:00 | 00:00:00 | 00:00:00 | |
| OE5REO-15 | 2026-08-30 11:37:08 | 48.27656 | 12.31914 | 75° | 46km/h | 16426m | 4.3m/s | -56.6°C | 0% | 102.7hPa | 2.6V | 00:00:00 | 00:00:00 | 00:00:00 | |
| OE5MMP-10 | 2026-08-30 11:37:07 | 48.27651 | 12.31881 | 77° | 44km/h | 16418m | 5.4m/s | -56.7°C | 5.1% | 102.8hPa | 2.6V | 00:00:00 | 01:07:19 | 00:00:00 | |
| DO3MHA-11 | 2026-08-30 11:37:04 | 48.27641 | 12.31831 | 72° | 42km/h | 16403m | 4.5m/s | -56.5°C | 5.1% | 103.1hPa | 2.7V | 00:00:00 | 01:07:16 | 00:00:00 | |
| BAUMI2-15 | 2026-08-30 11:37:02 | 48.27634 | 12.31798 | 73° | 42km/h | 16393m | 5.6m/s | -56.4°C | 5.0% | 103.2hPa | 2.7V | 00:00:00 | 01:07:14 | 00:00:00 | |
| OE5DXL-15 | 2026-08-30 11:37:00 | 48.27628 | 12.31767 | 73° | 44km/h | 16383m | 5.5m/s | -56.4°C | 5.1% | 103.4hPa | 2.7V | 00:00:00 | 00:00:00 | 00:00:00 | |
| OE5MMP-10 | 2026-08-30 11:36:57 | 48.27618 | 12.31722 | 74° | 42km/h | 16369m | 4.9m/s | -56.2°C | 5.0% | 103.6hPa | 2.6V | 00:00:00 | 01:07:09 | 00:00:00 | |
| OE5WHR-10 | 2026-08-30 11:36:55 | 48.27612 | 12.31693 | 71° | 44km/h | 16360m | 5.9m/s | -56.3°C | 5.0% | 103.8hPa | 2.6V | 00:00:00 | 01:07:07 | 00:00:00 | |
| DO3MHA-11 | 2026-08-30 11:36:54 | 48.27608 | 12.31680 | 67° | 44km/h | 16354m | 4.3m/s | -56.4°C | 5.0% | 103.9hPa | 2.6V | 00:00:00 | 01:07:06 | 00:00:00 | |
| BAUMI2-15 | 2026-08-30 11:36:52 | 48.27600 | 12.31652 | 68° | 44km/h | 16346m | 5.2m/s | -56.5°C | 5.1% | 104.0hPa | 2.6V | 00:00:00 | 01:07:04 | 00:00:00 | |
| DB0UT-7 | 2026-08-30 11:36:51 | 48.27597 | 12.31637 | 71° | 40km/h | 16342m | 3.9m/s | -56.3°C | 5.0% | 104.1hPa | 2.6V | 00:00:00 | 00:00:00 | 00:00:00 | |
| OE5MMP-10 | 2026-08-30 11:36:47 | 48.27580 | 12.31573 | 70° | 46km/h | 16324m | 2.5m/s | -56.2°C | 4.9% | 104.4hPa | 2.6V | 00:00:00 | 01:06:59 | 00:00:00 | |
| OE5FHM-15 | 2026-08-30 11:36:46 | 48.27576 | 12.31556 | 72° | 44km/h | 16320m | 4.6m/s | -56.3°C | 4.9% | 104.5hPa | 2.6V | 00:00:00 | 01:06:58 | 00:00:00 | |
| BAUMI2-15 | 2026-08-30 11:36:42 | 48.27564 | 12.31487 | 77° | 46km/h | 16302m | 4.1m/s | -56.4°C | 5.0% | 104.8hPa | 2.6V | 00:00:00 | 01:06:54 | 00:00:00 | |
| OE5DRO-10 | 2026-08-30 11:36:41 | 48.27561 | 12.31470 | 80° | 44km/h | 16297m | 5.1m/s | -56.3°C | 5.0% | 104.8hPa | 2.6V | 00:00:00 | 00:00:00 | 08:30:00 | |
| PG1ADW-2 | 2026-08-30 11:36:38 | 48.27553 | 12.31403 | 74° | 44km/h | 16278m | 4.1m/s | -56.2°C | 5.0% | 105.1hPa | 2.6V | 00:00:00 | 00:00:00 | 00:00:00 | |
| OE5MMP-10 | 2026-08-30 11:36:37 | 48.27553 | 12.31403 | 74° | 42km/h | 16278m | 4.1m/s | -56.2°C | 5.0% | 105.1hPa | 2.6V | 00:00:00 | 01:06:49 | 08:30:00 | |
| DL6DJ-15 | 2026-08-30 11:36:36 | 48.27546 | 12.31372 | 72° | 42km/h | 16270m | 5.2m/s | -56.4°C | 1.9% | 105.3hPa | 2.7V | 00:00:00 | 00:00:00 | 00:00:00 | |
| OE5WHR-10 | 2026-08-30 11:36:34 | 48.27543 | 12.31357 | 74° | 42km/h | 16265m | 4.5m/s | -56.3°C | 5.0% | 105.4hPa | 2.7V | 00:00:00 | 00:00:00 | 00:00:00 | |
| BAUMI2-15 | 2026-08-30 11:36:32 | 48.27537 | 12.31329 | 72° | 40km/h | 16256m | 5.4m/s | -56.3°C | 4.9% | 105.5hPa | 2.7V | 00:00:00 | 01:06:44 | 00:00:00 | |
| OE5DXL-15 | 2026-08-30 11:36:30 | 48.27531 | 12.31301 | 73° | 44km/h | 16247m | 4.1m/s | -56.5°C | 4.8% | 105.7hPa | 2.7V | 00:00:00 | 00:00:00 | 00:00:00 | |
| DO7DH-14 | 2026-08-30 11:36:27 | 48.27523 | 12.31254 | 76° | 40km/h | 16233m | 5.5m/s | 0°C | 0% | 0hPa | 2.7V | 00:00:00 | 01:06:39 | 00:00:00 | |
| DO3MHA-11 | 2026-08-30 11:36:24 | 48.27513 | 12.31204 | 74° | 44km/h | 16217m | 4.6m/s | -56.8°C | 5.1% | 106.2hPa | 2.7V | 00:00:00 | 01:06:36 | 00:00:00 | |
| BAUMI2-15 | 2026-08-30 11:36:22 | 48.27505 | 12.31171 | 68° | 44km/h | 16209m | 5.7m/s | -57.4°C | 5.3% | 106.3hPa | 2.7V | 00:00:00 | 01:06:34 | 00:00:00 | |
| OE5REO-15 | 2026-08-30 11:36:20 | 48.27501 | 12.31155 | 66° | 44km/h | 16204m | 3.9m/s | -57.5°C | 0% | 0hPa | 2.7V | 00:00:00 | 00:00:00 | 00:00:00 | |
| OE5MMP-10 | 2026-08-30 11:36:17 | 48.27485 | 12.31095 | 76° | 46km/h | 16187m | 3.3m/s | -57.4°C | 5.4% | 106.7hPa | 2.7V | 00:00:00 | 01:06:29 | 00:00:00 | |
| OE5FHM-15 | 2026-08-30 11:36:16 | 48.27483 | 12.31080 | 76° | 42km/h | 16183m | 5.1m/s | -57.5°C | 5.5% | 106.8hPa | 2.7V | 00:00:00 | 01:06:28 | 00:00:00 | |
| OE3JTB-15 | 2026-08-30 11:36:15 | 48.27480 | 12.31064 | 73° | 42km/h | 16178m | 5.0m/s | -57.4°C | 5.4% | 106.8hPa | 2.7V | 00:00:00 | 00:00:00 | 00:00:00 | |
| DO3MHA-11 | 2026-08-30 11:36:14 | 48.27476 | 12.31049 | 72° | 46km/h | 16173m | 4.1m/s | -57.4°C | 5.4% | 106.9hPa | 2.7V | 00:00:00 | 01:06:26 | 00:00:00 | |
| OE5WHR-10 | 2026-08-30 11:36:13 | 48.27473 | 12.31032 | 72° | 42km/h | 16168m | 5.0m/s | -57.5°C | 5.5% | 107.0hPa | 2.6V | 00:00:00 | 00:00:00 | 00:00:00 | |
| DG1MFX-10 | 2026-08-30 11:36:08 | 48.27449 | 12.30934 | 69° | 44km/h | 16141m | 5.3m/s | -57.3°C | 2.1% | 107.5hPa | 2.6V | 00:00:00 | 00:00:00 | 00:00:00 | |
| OE5REO-15 | 2026-08-30 11:36:07 | 48.27445 | 12.30919 | 70° | 44km/h | 16136m | 4.6m/s | 0°C | 0% | 0hPa | 2.6V | 00:00:00 | 00:00:00 | 00:00:00 | |
| DL6DJ-15 | 2026-08-30 11:36:05 | 48.27437 | 12.30889 | 68° | 40km/h | 16127m | 4.3m/s | -57.3°C | 2.1% | 107.7hPa | 2.6V | 00:00:00 | 00:00:00 | 00:00:00 | |
| DO3MHA-11 | 2026-08-30 11:36:04 | 48.27437 | 12.30889 | 69° | 42km/h | 16127m | 4.3m/s | -57.2°C | 5.5% | 107.7hPa | 2.6V | 00:00:00 | 01:06:16 | 00:00:00 | |
| OE5MMP-10 | 2026-08-30 11:35:57 | 48.27421 | 12.30780 | 79° | 37km/h | 16094m | 3.7m/s | -57.3°C | 5.4% | 108.3hPa | 2.6V | 00:00:00 | 01:06:09 | 00:00:00 | |
| S52SK | 2026-08-30 11:35:55 | 48.27419 | 12.30765 | 79° | 40km/h | 16090m | 5.3m/s | -57.2°C | 2.0% | 108.4hPa | 2.6V | 00:00:00 | 00:00:00 | 00:00:00 | |
| DO3MHA-11 | 2026-08-30 11:35:54 | 48.27414 | 12.30736 | 77° | 37km/h | 16080m | 4.7m/s | -57.1°C | 5.4% | 108.5hPa | 2.6V | 00:00:00 | 01:06:06 | 00:00:00 | |
| OE5WHR-10 | 2026-08-30 11:35:52 | 48.27410 | 12.30710 | 77° | 38km/h | 16070m | 3.8m/s | -57.0°C | 5.3% | 108.6hPa | 2.6V | 00:00:00 | 01:06:04 | 00:00:00 | |
| S52SK | 2026-08-30 11:35:50 | 48.27408 | 12.30698 | 79° | 35km/h | 16066m | 5.2m/s | -57.0°C | 2.0% | 108.8hPa | 2.6V | 00:00:00 | 00:00:00 | 00:00:00 | |
| OE5REO-15 | 2026-08-30 11:35:49 | 48.27406 | 12.30684 | 81° | 37km/h | 16061m | 5.3m/s | 0°C | 0% | 0hPa | 2.6V | 00:00:00 | 00:00:00 | 00:00:00 | |
| OE5MMP-10 | 2026-08-30 11:35:47 | 48.27404 | 12.30642 | 89° | 38km/h | 16046m | 3.7m/s | -56.8°C | 5.2% | 109.1hPa | 2.6V | 00:00:00 | 01:05:59 | 00:00:00 | |
| OE5FHM-15 | 2026-08-30 11:35:46 | 48.27404 | 12.30627 | 89° | 40km/h | 16041m | 5.2m/s | -56.8°C | 5.2% | 109.2hPa | 2.6V | 00:00:00 | 01:05:58 | 00:00:00 | |
| DB0UT-7 | 2026-08-30 11:35:45 | 48.27403 | 12.30612 | 89° | 38km/h | 16036m | 4.2m/s | -56.8°C | 5.2% | 109.3hPa | 2.6V | 00:00:00 | 01:05:57 | 00:00:00 | |
| DO3MHA-11 | 2026-08-30 11:35:44 | 48.27403 | 12.30596 | 89° | 37km/h | 16032m | 5.3m/s | -56.8°C | 5.2% | 109.3hPa | 2.6V | 00:00:00 | 01:05:56 | 00:00:00 | |
| DO7DH-14 | 2026-08-30 11:35:43 | 48.27403 | 12.30581 | 89° | 46km/h | 16027m | 4.4m/s | 0°C | 0% | 0hPa | 2.7V | 00:00:00 | 01:05:55 | 00:00:00 | |
| OE5MMP-10 | 2026-08-30 11:35:37 | 48.27394 | 12.30499 | 79° | 42km/h | 16000m | 4.0m/s | -56.7°C | 5.2% | 109.9hPa | 2.7V | 00:00:00 | 01:05:49 | 00:00:00 | |
| DL6DJ-15 | 2026-08-30 11:35:34 | 48.27388 | 12.30443 | 86° | 40km/h | 15980m | 5.2m/s | -56.7°C | 1.9% | 110.3hPa | 2.6V | 00:00:00 | 00:00:00 | 00:00:00 | |
| OE5REO-15 | 2026-08-30 11:35:33 | 48.27388 | 12.30443 | 88° | 42km/h | 15980m | 5.2m/s | 0°C | 0% | 0hPa | 2.6V | 00:00:00 | 00:00:00 | 00:00:00 | |
| OE5WHR-10 | 2026-08-30 11:35:31 | 48.27387 | 12.30409 | 88° | 42km/h | 15971m | 5.8m/s | -56.6°C | 5.2% | 110.4hPa | 2.6V | 00:00:00 | 00:00:00 | 00:00:00 | |
| OE5DXL-15 | 2026-08-30 11:35:30 | 48.27386 | 12.30391 | 87° | 42km/h | 15966m | 3.8m/s | -56.7°C | 5.3% | 110.5hPa | 2.6V | 00:00:00 | 00:00:00 | 08:30:00 | |
| OE5MMP-10 | 2026-08-30 11:35:27 | 48.27383 | 12.30341 | 84° | 40km/h | 15953m | 3.9m/s | -56.6°C | 5.3% | 110.7hPa | 2.6V | 00:00:00 | 01:05:39 | 00:00:00 | |
| OE5DRO-10 | 2026-08-30 11:35:25 | 48.27380 | 12.30312 | 77° | 40km/h | 15944m | 4.9m/s | -56.6°C | 5.3% | 110.9hPa | 2.6V | 00:00:00 | 00:00:00 | 00:00:00 | |
| DO3MHA-11 | 2026-08-30 11:35:24 | 48.27377 | 12.30298 | 76° | 40km/h | 15940m | 3.8m/s | -56.5°C | 5.2% | 110.9hPa | 2.6V | 00:00:00 | 01:05:36 | 00:00:00 | |
| OE5HKT-10 | 2026-08-30 11:35:23 | 48.27375 | 12.30284 | 79° | 42km/h | 15935m | 5.3m/s | 0°C | 0% | 0hPa | 2.6V | 00:00:00 | 01:05:35 | 00:00:00 | |
| OE5MMP-10 | 2026-08-30 11:35:17 | 48.27371 | 12.30193 | 89° | 42km/h | 15908m | 5.3m/s | -56.4°C | 5.2% | 111.5hPa | 2.6V | 00:00:00 | 01:05:29 | 00:00:00 | |
| OE5FHM-15 | 2026-08-30 11:35:16 | 48.27370 | 12.30177 | 88° | 44km/h | 15903m | 3.9m/s | -56.4°C | 5.2% | 111.6hPa | 2.6V | 00:00:00 | 01:05:28 | 00:00:00 | |
| OE5REO-15 | 2026-08-30 11:35:15 | 48.27369 | 12.30161 | 85° | 42km/h | 15898m | 5.5m/s | 0°C | 0% | 0hPa | 2.6V | 00:00:00 | 00:00:00 | 00:00:00 | |
| DO3MHA-11 | 2026-08-30 11:35:14 | 48.27368 | 12.30145 | 80° | 42km/h | 15893m | 4.3m/s | -56.3°C | 5.2% | 111.8hPa | 2.6V | 00:00:00 | 01:05:26 | 08:30:00 | |
| DB0UT-7 | 2026-08-30 11:35:13 | 48.27366 | 12.30130 | 80° | 55km/h | 15889m | 4.6m/s | -56.2°C | 5.2% | 111.8hPa | 2.6V | 00:00:00 | 00:00:00 | 08:30:00 | |
| OE5WHR-10 | 2026-08-30 11:35:10 | 48.27360 | 12.30085 | 77° | 44km/h | 15875m | 4.6m/s | -56.2°C | 5.1% | 112.1hPa | 2.7V | 00:00:00 | 00:00:00 | 00:00:00 | |
| OE5MMP-10 | 2026-08-30 11:35:07 | 48.27352 | 12.30039 | 78° | 44km/h | 15861m | 5.3m/s | -56.0°C | 5.0% | 112.3hPa | 2.7V | 00:00:00 | 01:05:19 | 08:30:00 | |
| OE5DRO-10 | 2026-08-30 11:35:06 | 48.27350 | 12.30023 | 80° | 44km/h | 15857m | 4.1m/s | -55.9°C | 5.1% | 112.4hPa | 2.6V | 00:00:00 | 00:00:00 | 00:00:00 | |
| DO3MHA-11 | 2026-08-30 11:35:04 | 48.27346 | 12.29989 | 80° | 44km/h | 15848m | 5.2m/s | -55.9°C | 5.0% | 112.6hPa | 2.6V | 00:00:00 | 01:05:16 | 00:00:00 | |
| OE5DXL-15 | 2026-08-30 11:35:00 | 48.27338 | 12.29922 | 79° | 44km/h | 15828m | 5.0m/s | -55.6°C | 5.0% | 112.9hPa | 2.6V | 00:00:00 | 00:00:00 | 00:00:00 | |
| OE5MMP-10 | 2026-08-30 11:34:57 | 48.27330 | 12.29876 | 76° | 44km/h | 15814m | 5.7m/s | -55.5°C | 4.9% | 113.2hPa | 2.6V | 00:00:00 | 01:05:09 | 00:00:00 | |
| DO3MHA-11 | 2026-08-30 11:34:54 | 48.27323 | 12.29831 | 75° | 46km/h | 15800m | 5.2m/s | -55.4°C | 4.9% | 113.4hPa | 2.6V | 00:00:00 | 01:05:06 | 00:00:00 | |
| OE5REO-15 | 2026-08-30 11:34:53 | 48.27323 | 12.29831 | 75° | 44km/h | 15800m | 5.3m/s | 0°C | 0% | 0hPa | 2.6V | 00:00:00 | 00:00:00 | 00:00:00 | |
| OE5WHR-10 | 2026-08-30 11:34:49 | 48.27310 | 12.29746 | 79° | 44km/h | 15777m | 5.4m/s | -55.3°C | 5.0% | 113.8hPa | 2.6V | 00:00:00 | 01:05:01 | 00:00:00 | |
| OE3JTB-15 | 2026-08-30 11:34:48 | 48.27308 | 12.29729 | 81° | 44km/h | 15772m | 4.0m/s | -55.2°C | 4.9% | 113.9hPa | 2.6V | 00:00:00 | 00:00:00 | 00:00:00 | |
| OE5MMP-10 | 2026-08-30 11:34:47 | 48.27306 | 12.29711 | 84° | 40km/h | 15767m | 5.7m/s | -55.2°C | 4.9% | 114.0hPa | 2.6V | 00:00:00 | 01:04:59 | 00:00:00 | |
| OE5FHM-15 | 2026-08-30 11:34:46 | 48.27305 | 12.29695 | 85° | 44km/h | 15762m | 3.9m/s | -55.2°C | 4.9% | 114.1hPa | 2.6V | 00:00:00 | 01:04:58 | 00:00:00 | |
| DO3MHA-11 | 2026-08-30 11:34:44 | 48.27302 | 12.29663 | 82° | 40km/h | 15753m | 5.2m/s | -55.1°C | 4.8% | 114.3hPa | 2.6V | 00:00:00 | 01:04:56 | 00:00:00 | |
| S52SK | 2026-08-30 11:34:42 | 48.27301 | 12.29647 | 80° | 40km/h | 15748m | 4.1m/s | -55.2°C | 1.8% | 114.4hPa | 2.7V | 00:00:00 | 00:00:00 | 00:00:00 | |
| OE5MMP-10 | 2026-08-30 11:34:37 | 48.27288 | 12.29563 | 76° | 46km/h | 15720m | 4.2m/s | -55.1°C | 4.7% | 114.8hPa | 2.7V | 00:00:00 | 01:04:49 | 00:00:00 | |
| OE5REO-15 | 2026-08-30 11:34:36 | 48.27288 | 12.29563 | 76° | 44km/h | 15720m | 4.3m/s | 0°C | 0% | 0hPa | 2.6V | 00:00:00 | 00:00:00 | 00:00:00 | |
| DO3MHA-11 | 2026-08-30 11:34:34 | 48.27282 | 12.29513 | 84° | 46km/h | 15706m | 4.5m/s | -55.1°C | 4.8% | 115.1hPa | 2.6V | 00:00:00 | 01:04:46 | 00:00:00 | |
| DL6DJ-15 | 2026-08-30 11:34:32 | 48.27277 | 12.29460 | 83° | 46km/h | 15692m | 4.4m/s | -55.1°C | 1.8% | 115.4hPa | 2.6V | 00:00:00 | 00:00:00 | 00:00:00 | |
| OE5DXL-15 | 2026-08-30 11:34:30 | 48.27276 | 12.29443 | 84° | 47km/h | 15687m | 4.7m/s | -55.0°C | 4.8% | 115.4hPa | 2.6V | 00:00:00 | 00:00:00 | 00:00:00 | |
| OE5WHR-10 | 2026-08-30 11:34:28 | 48.27273 | 12.29410 | 80° | 47km/h | 15679m | 4.8m/s | -55.0°C | 4.8% | 115.6hPa | 2.6V | 00:00:00 | 00:00:00 | 08:30:00 | |
| OE5MMP-10 | 2026-08-30 11:34:27 | 48.27271 | 12.29395 | 76° | 46km/h | 15674m | 4.9m/s | -54.9°C | 4.8% | 115.7hPa | 2.7V | 00:00:00 | 01:04:39 | 00:00:00 | |
| DO3MHA-11 | 2026-08-30 11:34:24 | 48.27262 | 12.29346 | 74° | 47km/h | 15661m | 3.9m/s | -54.9°C | 4.8% | 115.9hPa | 2.7V | 00:00:00 | 01:04:36 | 00:00:00 | |
| DG1MFX-10 | 2026-08-30 11:34:23 | 48.27262 | 12.29346 | 74° | 46km/h | 15661m | 3.9m/s | -54.9°C | 1.9% | 116.0hPa | 2.7V | 00:00:00 | 00:00:00 | 00:00:00 | |
| OE3JTB-15 | 2026-08-30 11:34:19 | 48.27244 | 12.29261 | 79° | 47km/h | 15638m | 4.0m/s | -54.9°C | 4.8% | 116.3hPa | 2.7V | 00:00:00 | 01:04:31 | 00:00:00 | |
| OE5MMP-10 | 2026-08-30 11:34:17 | 48.27239 | 12.29226 | 80° | 49km/h | 15629m | 4.6m/s | -55.0°C | 4.9% | 116.5hPa | 2.7V | 00:00:00 | 01:04:29 | 00:00:00 | |
| OE5FHM-15 | 2026-08-30 11:34:16 | 48.27237 | 12.29207 | 80° | 49km/h | 15625m | 4.2m/s | -55.0°C | 4.8% | 116.6hPa | 2.7V | 00:00:00 | 01:04:28 | 08:30:00 | |
| DO3MHA-11 | 2026-08-30 11:34:14 | 48.27233 | 12.29171 | 83° | 49km/h | 15616m | 5.1m/s | -55.1°C | 4.9% | 116.7hPa | 2.6V | 00:00:00 | 01:04:26 | 00:00:00 | |
| BAUMI2-15 | 2026-08-30 11:34:11 | 48.27227 | 12.29115 | 80° | 51km/h | 15602m | 4.5m/s | -55.0°C | 4.8% | 117.0hPa | 2.7V | 00:00:00 | 01:04:23 | 00:00:00 | |
| OE5DRO-10 | 2026-08-30 11:34:09 | 48.27222 | 12.29077 | 78° | 55km/h | 15593m | 4.9m/s | -54.9°C | 4.8% | 117.1hPa | 2.7V | 00:00:00 | 00:00:00 | 00:00:00 | |
| OE5WHR-10 | 2026-08-30 11:34:07 | 48.27215 | 12.29040 | 74° | 47km/h | 15583m | 5.1m/s | -54.8°C | 4.7% | 117.4hPa | 2.7V | 00:00:00 | 00:00:00 | 00:00:00 | |
| BAUMI2-15 | 2026-08-30 11:34:06 | 48.27212 | 12.29022 | 73° | 46km/h | 15579m | 3.7m/s | -54.8°C | 4.7% | 117.4hPa | 2.7V | 00:00:00 | 01:04:18 | 00:00:00 | |
| DF3TZ-5 | 2026-08-30 11:34:04 | 48.27202 | 12.28972 | 73° | 42km/h | 15566m | 2.8m/s | -54.7°C | 1.8% | 117.7hPa | 2.7V | 00:00:00 | 00:00:00 | 00:00:00 | |
| DG1MFX-10 | 2026-08-30 11:34:02 | 48.27202 | 12.28972 | 75° | 44km/h | 15566m | 2.8m/s | -54.7°C | 1.9% | 117.7hPa | 2.7V | 00:00:00 | 00:00:00 | 00:00:00 | |
| BAUMI2-15 | 2026-08-30 11:34:01 | 48.27195 | 12.28940 | 72° | 49km/h | 15557m | 4.7m/s | -54.7°C | 4.8% | 117.8hPa | 2.7V | 00:00:00 | 01:04:13 | 00:00:00 | |
| OE5DXL-15 | 2026-08-30 11:34:00 | 48.27191 | 12.28922 | 71° | 47km/h | 15553m | 4.2m/s | -54.7°C | 4.8% | 117.9hPa | 2.7V | 00:00:00 | 00:00:00 | 00:00:00 | |
| OE5MMP-10 | 2026-08-30 11:33:57 | 48.27179 | 12.28867 | 71° | 47km/h | 15540m | 4.0m/s | -54.7°C | 4.8% | 118.2hPa | 2.7V | 00:00:00 | 01:04:09 | 00:00:00 | |
| BAUMI2-15 | 2026-08-30 11:33:56 | 48.27175 | 12.28850 | 69° | 46km/h | 15536m | 5.0m/s | -54.6°C | 4.8% | 118.2hPa | 2.7V | 00:00:00 | 01:04:08 | 00:00:00 | |
| DO3MHA-11 | 2026-08-30 11:33:54 | 48.27165 | 12.28817 | 67° | 47km/h | 15527m | 5.1m/s | -54.6°C | 4.7% | 118.4hPa | 2.7V | 00:00:00 | 01:04:06 | 00:00:00 | |
| BAUMI2-15 | 2026-08-30 11:33:51 | 48.27153 | 12.28769 | 68° | 49km/h | 15513m | 5.1m/s | -54.6°C | 4.8% | 118.6hPa | 2.7V | 00:00:00 | 01:04:03 | 08:30:00 | |
| OE3JTB-15 | 2026-08-30 11:33:50 | 48.27148 | 12.28752 | 68° | 49km/h | 15509m | 4.2m/s | -54.5°C | 4.8% | 118.7hPa | 2.6V | 00:00:00 | 00:00:00 | 08:30:00 | |
| OE5MMP-10 | 2026-08-30 11:33:47 | 48.27134 | 12.28700 | 71° | 47km/h | 15495m | 4.1m/s | -54.5°C | 4.8% | 119.0hPa | 2.6V | 00:00:00 | 01:03:59 | 00:00:00 | |
| OE5WHR-10 | 2026-08-30 11:33:46 | 48.27130 | 12.28683 | 69° | 49km/h | 15492m | 3.6m/s | -54.5°C | 4.8% | 119.0hPa | 2.6V | 00:00:00 | 01:03:58 | 00:00:00 | |
| DO3MHA-11 | 2026-08-30 11:33:44 | 48.27120 | 12.28649 | 64° | 47km/h | 15483m | 3.9m/s | -54.4°C | 4.8% | 119.2hPa | 2.6V | 00:00:00 | 01:03:56 | 08:30:00 | |
| BAUMI2-15 | 2026-08-30 11:33:41 | 48.27103 | 12.28600 | 62° | 47km/h | 15470m | 4.1m/s | -54.3°C | 4.8% | 119.4hPa | 2.7V | 00:00:00 | 01:03:53 | 00:00:00 | |
| OE5MMP-10 | 2026-08-30 11:33:37 | 48.27080 | 12.28538 | 63° | 49km/h | 15453m | 4.7m/s | -54.3°C | 4.8% | 119.8hPa | 2.7V | 00:00:00 | 01:03:49 | 08:30:00 | |
| BAUMI2-15 | 2026-08-30 11:33:36 | 48.27075 | 12.28523 | 65° | 49km/h | 15448m | 4.5m/s | -54.3°C | 4.9% | 119.8hPa | 2.7V | 00:00:00 | 01:03:48 | 00:00:00 | |
| DO3MHA-11 | 2026-08-30 11:33:34 | 48.27064 | 12.28490 | 63° | 49km/h | 15440m | 5.0m/s | -54.3°C | 4.8% | 120.0hPa | 2.7V | 00:00:00 | 01:03:46 | 00:00:00 | |
| S52SK | 2026-08-30 11:33:32 | 48.27058 | 12.28473 | 64° | 49km/h | 15435m | 3.6m/s | -54.2°C | 1.9% | 120.2hPa | 2.7V | 00:00:00 | 00:00:00 | 00:00:00 | |
| BAUMI2-15 | 2026-08-30 11:33:31 | 48.27048 | 12.28439 | 67° | 49km/h | 15426m | 4.5m/s | -54.1°C | 4.8% | 120.3hPa | 2.7V | 00:00:00 | 01:03:43 | 00:00:00 | |
| OE5DXL-15 | 2026-08-30 11:33:30 | 48.27043 | 12.28422 | 67° | 49km/h | 15422m | 3.7m/s | -54.2°C | 4.8% | 120.4hPa | 2.7V | 00:00:00 | 00:00:00 | 00:00:00 | |
| DL6DJ-15 | 2026-08-30 11:33:29 | 48.27038 | 12.28405 | 64° | 49km/h | 15417m | 5.0m/s | -54.2°C | 1.9% | 120.5hPa | 2.7V | 00:00:00 | 00:00:00 | 00:00:00 | |
| OE5MMP-10 | 2026-08-30 11:33:27 | 48.27027 | 12.28370 | 66° | 51km/h | 15409m | 3.5m/s | -54.1°C | 4.8% | 120.6hPa | 2.7V | 00:00:00 | 01:03:39 | 00:00:00 | |
| BAUMI2-15 | 2026-08-30 11:33:26 | 48.27022 | 12.28352 | 69° | 51km/h | 15406m | 4.8m/s | -54.2°C | 4.8% | 120.6hPa | 2.7V | 00:00:00 | 01:03:38 | 00:00:00 | |
| OE5WHR-10 | 2026-08-30 11:33:25 | 48.27018 | 12.28334 | 74° | 49km/h | 15401m | 4.4m/s | -54.1°C | 4.8% | 120.8hPa | 2.7V | 00:00:00 | 00:00:00 | 00:00:00 | |
| DO3MHA-11 | 2026-08-30 11:33:24 | 48.27014 | 12.28316 | 76° | 49km/h | 15397m | 3.7m/s | -54.1°C | 4.8% | 120.8hPa | 2.7V | 00:00:00 | 01:03:36 | 00:00:00 | |
| S52SK | 2026-08-30 11:33:23 | 48.27011 | 12.28297 | 77° | 51km/h | 15392m | 4.6m/s | -54.1°C | 2.0% | 120.9hPa | 2.7V | 00:00:00 | 00:00:00 | 00:00:00 | |
| BAUMI2-15 | 2026-08-30 11:33:21 | 48.27004 | 12.28260 | 74° | 49km/h | 15384m | 4.1m/s | -54.1°C | 4.8% | 121.0hPa | 2.7V | 00:00:00 | 01:03:33 | 00:00:00 | |
| DG1MFX-10 | 2026-08-30 11:33:20 | 48.27004 | 12.28260 | 74° | 51km/h | 15384m | 4.1m/s | -54.1°C | 2.0% | 121.1hPa | 2.6V | 00:00:00 | 00:00:00 | 00:00:00 | |
| OE5MMP-10 | 2026-08-30 11:33:17 | 48.26987 | 12.28190 | 64° | 47km/h | 15366m | 3.2m/s | -54.1°C | 4.8% | 121.4hPa | 2.6V | 00:00:00 | 01:03:29 | 00:00:00 | |
| OE5FHM-15 | 2026-08-30 11:33:16 | 48.26981 | 12.28174 | 63° | 49km/h | 15362m | 3.9m/s | -54.2°C | 4.9% | 121.5hPa | 2.6V | 00:00:00 | 01:03:28 | 00:00:00 | |
| DO3MHA-11 | 2026-08-30 11:33:14 | 48.26972 | 12.28143 | 70° | 51km/h | 15353m | 4.4m/s | -54.1°C | 4.9% | 121.7hPa | 2.6V | 00:00:00 | 01:03:26 | 00:00:00 | |
| BAUMI2-15 | 2026-08-30 11:33:11 | 48.26961 | 12.28095 | 72° | 51km/h | 15341m | 4.1m/s | -54.0°C | 5.0% | 121.9hPa | 2.7V | 00:00:00 | 01:03:23 | 00:00:00 | |
| OE5MMP-10 | 2026-08-30 11:33:07 | 48.26947 | 12.28020 | 75° | 49km/h | 15323m | 5.7m/s | -54.5°C | 5.2% | 122.2hPa | 2.7V | 00:00:00 | 01:03:19 | 00:00:00 | |
| BAUMI2-15 | 2026-08-30 11:33:06 | 48.26943 | 12.27999 | 74° | 53km/h | 15318m | 3.5m/s | -54.6°C | 5.2% | 122.3hPa | 2.7V | 00:00:00 | 01:03:18 | 08:30:00 | |
| DO7DH-14 | 2026-08-30 11:33:05 | 48.26939 | 12.27979 | 74° | 51km/h | 15314m | 4.8m/s | 0°C | 0% | 0hPa | 2.7V | 00:00:00 | 01:03:17 | 00:00:00 | |
| DO3MHA-11 | 2026-08-30 11:33:04 | 48.26935 | 12.27959 | 73° | 46km/h | 15309m | 3.5m/s | -54.6°C | 5.2% | 122.5hPa | 2.7V | 00:00:00 | 01:03:16 | 00:00:00 | |
| DL6DJ-15 | 2026-08-30 11:32:58 | 48.26908 | 12.27861 | 71° | 42km/h | 15284m | 3.8m/s | -54.6°C | 2.3% | 123.0hPa | 2.7V | 00:00:00 | 00:00:00 | 00:00:00 | |
| OE5MMP-10 | 2026-08-30 11:32:57 | 48.26905 | 12.27845 | 72° | 47km/h | 15280m | 5.1m/s | -54.5°C | 5.2% | 123.1hPa | 2.7V | 00:00:00 | 01:03:09 | 00:00:00 | |
| BAUMI2-15 | 2026-08-30 11:32:56 | 48.26901 | 12.27829 | 75° | 47km/h | 15275m | 3.8m/s | -54.4°C | 5.1% | 123.2hPa | 2.7V | 00:00:00 | 01:03:08 | 00:00:00 | |
| DO3MHA-11 | 2026-08-30 11:32:54 | 48.26896 | 12.27795 | 80° | 49km/h | 15267m | 4.7m/s | -54.4°C | 5.1% | 123.3hPa | 2.7V | 00:00:00 | 01:03:06 | 00:00:00 | |
| OE3JTB-15 | 2026-08-30 11:32:52 | 48.26892 | 12.27760 | 79° | 53km/h | 15258m | 5.1m/s | -54.5°C | 5.1% | 123.4hPa | 2.7V | 00:00:00 | 01:03:04 | 00:00:00 | |
| BAUMI2-15 | 2026-08-30 11:32:51 | 48.26889 | 12.27742 | 76° | 51km/h | 15254m | 3.8m/s | -54.4°C | 5.1% | 123.5hPa | 2.7V | 00:00:00 | 01:03:03 | 00:00:00 | |
| OE5MMP-10 | 2026-08-30 11:32:47 | 48.26878 | 12.27667 | 80° | 51km/h | 15236m | 3.4m/s | -54.2°C | 5.2% | 123.9hPa | 2.6V | 00:00:00 | 01:02:59 | 00:00:00 | |
| BAUMI2-15 | 2026-08-30 11:32:46 | 48.26875 | 12.27648 | 78° | 51km/h | 15232m | 4.9m/s | -54.2°C | 5.2% | 124.0hPa | 2.6V | 00:00:00 | 01:02:58 | 00:00:00 | |
| DO3MHA-11 | 2026-08-30 11:32:44 | 48.26870 | 12.27610 | 79° | 53km/h | 15224m | 3.9m/s | -54.1°C | 5.1% | 124.1hPa | 2.6V | 00:00:00 | 01:02:56 | 00:00:00 | |
| OE5WHR-10 | 2026-08-30 11:32:43 | 48.26868 | 12.27591 | 81° | 53km/h | 15220m | 4.7m/s | -54.2°C | 5.1% | 124.2hPa | 2.6V | 00:00:00 | 01:02:55 | 00:00:00 | |
| BAUMI2-15 | 2026-08-30 11:32:41 | 48.26864 | 12.27553 | 81° | 53km/h | 15212m | 4.7m/s | -54.2°C | 5.2% | 124.3hPa | 2.6V | 00:00:00 | 01:02:53 | 00:00:00 | |
| DG1MFX-10 | 2026-08-30 11:32:40 | 48.26864 | 12.27553 | 82° | 51km/h | 15212m | 4.7m/s | -54.3°C | 2.4% | 124.4hPa | 2.6V | 00:00:00 | 00:00:00 | 00:00:00 | |
| OE5MMP-10 | 2026-08-30 11:32:37 | 48.26855 | 12.27474 | 82° | 51km/h | 15195m | 3.8m/s | -54.2°C | 5.2% | 124.7hPa | 2.6V | 00:00:00 | 01:02:49 | 00:00:00 | |
| BAUMI2-15 | 2026-08-30 11:32:36 | 48.26853 | 12.27454 | 80° | 53km/h | 15190m | 4.5m/s | -54.4°C | 5.3% | 124.8hPa | 2.6V | 00:00:00 | 01:02:48 | 00:00:00 | |
| DO3MHA-11 | 2026-08-30 11:32:34 | 48.26848 | 12.27414 | 81° | 53km/h | 15182m | 4.3m/s | -54.7°C | 5.4% | 124.9hPa | 2.7V | 00:00:00 | 01:02:46 | 00:00:00 | |
| BAUMI2-15 | 2026-08-30 11:32:31 | 48.26843 | 12.27357 | 82° | 51km/h | 15169m | 4.9m/s | -55.0°C | 5.6% | 125.2hPa | 2.7V | 00:00:00 | 01:02:43 | 00:00:00 | |
| OE5MMP-10 | 2026-08-30 11:32:27 | 48.26838 | 12.27280 | 91° | 60km/h | 15152m | 3.8m/s | -55.2°C | 5.8% | 125.5hPa | 2.7V | 00:00:00 | 01:02:39 | 00:00:00 | |
| BAUMI2-15 | 2026-08-30 11:32:26 | 48.26839 | 12.27259 | 92° | 57km/h | 15148m | 3.5m/s | -55.2°C | 5.8% | 125.6hPa | 2.7V | 00:00:00 | 01:02:38 | 00:00:00 | |
| DO3MHA-11 | 2026-08-30 11:32:24 | 48.26839 | 12.27217 | 91° | 62km/h | 15140m | 3.6m/s | -55.2°C | 5.8% | 125.8hPa | 2.7V | 00:00:00 | 01:02:36 | 00:00:00 | |
| OE3JTB-15 | 2026-08-30 11:32:23 | 48.26840 | 12.27195 | 91° | 62km/h | 15136m | 3.1m/s | -55.2°C | 5.8% | 125.8hPa | 2.7V | 00:00:00 | 00:00:00 | 00:00:00 | |
| OE5WHR-10 | 2026-08-30 11:32:22 | 48.26840 | 12.27173 | 92° | 60km/h | 15132m | 5.1m/s | -55.2°C | 5.8% | 125.9hPa | 2.7V | 00:00:00 | 00:00:00 | 00:00:00 | |
| BAUMI2-15 | 2026-08-30 11:32:21 | 48.26840 | 12.27149 | 92° | 68km/h | 15128m | 3.8m/s | -55.1°C | 5.7% | 126.0hPa | 2.6V | 00:00:00 | 01:02:33 | 08:30:00 | |
| DG1MFX-10 | 2026-08-30 11:32:20 | 48.26840 | 12.27124 | 92° | 66km/h | 15124m | 3.3m/s | -55.2°C | 2.7% | 126.1hPa | 2.7V | 00:00:00 | 00:00:00 | 00:00:00 | |
| OE5MMP-10 | 2026-08-30 11:32:17 | 48.26838 | 12.27051 | 85° | 60km/h | 15112m | 4.1m/s | -55.0°C | 5.8% | 126.3hPa | 2.7V | 00:00:00 | 01:02:29 | 00:00:00 | |
| OE5FHM-15 | 2026-08-30 11:32:16 | 48.26837 | 12.27029 | 84° | 62km/h | 15107m | 4.6m/s | -55.0°C | 5.8% | 126.4hPa | 2.7V | 00:00:00 | 01:02:28 | 00:00:00 | |
| DO3MHA-11 | 2026-08-30 11:32:14 | 48.26833 | 12.26985 | 82° | 58km/h | 15099m | 4.5m/s | -54.9°C | 5.8% | 126.6hPa | 2.7V | 00:00:00 | 01:02:26 | 08:30:00 | |
| S52SK | 2026-08-30 11:32:11 | 48.26828 | 12.26938 | 80° | 64km/h | 15091m | 3.7m/s | -54.9°C | 2.8% | 126.8hPa | 2.7V | 00:00:00 | 00:00:00 | 00:00:00 | |
| OE5MMP-10 | 2026-08-30 11:32:07 | 48.26813 | 12.26827 | 82° | 60km/h | 15068m | 3.8m/s | -54.7°C | 5.8% | 127.2hPa | 2.7V | 00:00:00 | 01:02:19 | 08:30:00 | |
| DO3MHA-11 | 2026-08-30 11:32:03 | 48.26804 | 12.26742 | 81° | 64km/h | 15052m | 3.8m/s | -54.7°C | 5.8% | 127.5hPa | 2.7V | 00:00:00 | 01:02:15 | 00:00:00 | |
| DL6DJ-15 | 2026-08-30 11:31:56 | 48.26776 | 12.26578 | 73° | 64km/h | 15022m | 3.9m/s | -55.1°C | 2.8% | 128.2hPa | 2.7V | 00:00:00 | 00:00:00 | 00:00:00 | |
| OE3JTB-15 | 2026-08-30 11:31:54 | 48.26766 | 12.26532 | 73° | 64km/h | 15014m | 3.5m/s | -55.0°C | 6.0% | 128.3hPa | 2.7V | 00:00:00 | 00:00:00 | 00:00:00 | |
| DO3MHA-11 | 2026-08-30 11:31:53 | 48.26762 | 12.26510 | 74° | 64km/h | 15010m | 4.4m/s | -55.0°C | 6.0% | 128.4hPa | 2.7V | 00:00:00 | 01:02:05 | 00:00:00 | |
| OE5DRO-10 | 2026-08-30 11:31:52 | 48.26758 | 12.26487 | 76° | 57km/h | 15005m | 4.4m/s | -55.0°C | 6.1% | 128.5hPa | 2.7V | 00:00:00 | 00:00:00 | 08:30:00 | |
| OE5MMP-10 | 2026-08-30 11:31:47 | 48.26738 | 12.26372 | 77° | 64km/h | 14985m | 3.7m/s | -55.0°C | 6.2% | 128.9hPa | 2.7V | 00:00:00 | 01:01:59 | 00:00:00 | |
| OE5FHM-15 | 2026-08-30 11:31:46 | 48.26734 | 12.26348 | 76° | 62km/h | 14980m | 4.8m/s | -55.1°C | 6.2% | 129.0hPa | 2.7V | 00:00:00 | 01:01:58 | 00:00:00 | |
| DO3MHA-11 | 2026-08-30 11:31:43 | 48.26720 | 12.26277 | 73° | 64km/h | 14968m | 4.8m/s | -55.1°C | 6.2% | 129.2hPa | 2.7V | 00:00:00 | 01:01:55 | 00:00:00 | |
| OE5WHR-10 | 2026-08-30 11:31:40 | 48.26705 | 12.26209 | 68° | 62km/h | 14954m | 3.8m/s | -55.3°C | 6.2% | 129.5hPa | 2.7V | 00:00:00 | 01:01:52 | 00:00:00 | |
| DG1MFX-10 | 2026-08-30 11:31:39 | 48.26705 | 12.26209 | 69° | 60km/h | 14954m | 3.8m/s | -55.4°C | 3.1% | 129.6hPa | 2.7V | 00:00:00 | 00:00:00 | 00:00:00 | |
| OE5MMP-10 | 2026-08-30 11:31:37 | 48.26687 | 12.26143 | 70° | 64km/h | 14942m | 3.6m/s | -55.4°C | 6.4% | 129.7hPa | 2.7V | 00:00:00 | 01:01:49 | 00:00:00 | |
| DH7VM-15 | 2026-08-30 11:31:36 | 48.26687 | 12.26143 | 71° | 64km/h | 14942m | 3.7m/s | -55.5°C | 3.2% | 129.8hPa | 2.7V | 00:00:00 | 00:00:00 | 00:00:00 | |
| DO3MHA-11 | 2026-08-30 11:31:33 | 48.26666 | 12.26052 | 73° | 62km/h | 14926m | 3.7m/s | -55.4°C | 6.5% | 130.1hPa | 2.7V | 00:00:00 | 01:01:45 | 00:00:00 | |
| OE5DXL-15 | 2026-08-30 11:31:30 | 48.26653 | 12.25980 | 78° | 58km/h | 14913m | 5.2m/s | -55.6°C | 6.7% | 130.4hPa | 2.7V | 00:00:00 | 00:00:00 | 00:00:00 | |
| OE5MMP-10 | 2026-08-30 11:31:27 | 48.26644 | 12.25910 | 81° | 58km/h | 14900m | 5.1m/s | -55.7°C | 6.7% | 130.6hPa | 2.7V | 00:00:00 | 01:01:39 | 00:00:00 | |
| OE3JTB-15 | 2026-08-30 11:31:25 | 48.26640 | 12.25865 | 81° | 57km/h | 14890m | 5.5m/s | -55.7°C | 6.6% | 130.8hPa | 2.7V | 00:00:00 | 01:01:37 | 00:00:00 | |
| DO3MHA-11 | 2026-08-30 11:31:23 | 48.26634 | 12.25824 | 79° | 58km/h | 14881m | 4.4m/s | -55.7°C | 6.7% | 131.0hPa | 2.7V | 00:00:00 | 01:01:35 | 00:00:00 | |
| OE5MMP-10 | 2026-08-30 11:31:17 | 48.26618 | 12.25695 | 80° | 58km/h | 14851m | 5.1m/s | -55.8°C | 6.9% | 131.6hPa | 2.7V | 00:00:00 | 01:01:29 | 00:00:00 | |
| OE5FHM-15 | 2026-08-30 11:31:16 | 48.26615 | 12.25673 | 81° | 57km/h | 14846m | 4.1m/s | -55.8°C | 6.9% | 131.7hPa | 2.7V | 00:00:00 | 01:01:28 | 00:00:00 | |
| S52SK | 2026-08-30 11:31:14 | 48.26612 | 12.25650 | 82° | 60km/h | 14842m | 3.7m/s | -55.9°C | 3.6% | 131.9hPa | 2.7V | 00:00:00 | 00:00:00 | 00:00:00 | |
| DO3MHA-11 | 2026-08-30 11:31:13 | 48.26607 | 12.25606 | 79° | 55km/h | 14833m | 3.9m/s | -55.9°C | 7.0% | 132.0hPa | 2.7V | 00:00:00 | 01:01:25 | 00:00:00 | |
| DK5PH-5 | 2026-08-30 11:31:12 | 48.26604 | 12.25584 | 80° | 57km/h | 14829m | 4.1m/s | -55.9°C | 7.0% | 132.1hPa | 2.7V | 00:00:00 | 01:01:24 | 08:30:00 | |
| S52SK | 2026-08-30 11:31:08 | 48.26599 | 12.25521 | 85° | 55km/h | 14817m | 4.7m/s | -56.0°C | 0% | 132.4hPa | 2.7V | 00:00:00 | 00:00:00 | 00:00:00 | |
| OE5MMP-10 | 2026-08-30 11:31:07 | 48.26595 | 12.25481 | 83° | 57km/h | 14807m | 3.8m/s | -56.0°C | 7.0% | 132.5hPa | 2.7V | 00:00:00 | 01:01:19 | 00:00:00 | |
| DO3MHA-11 | 2026-08-30 11:31:03 | 48.26588 | 12.25401 | 81° | 57km/h | 14789m | 3.5m/s | -55.9°C | 7.0% | 132.9hPa | 2.7V | 00:00:00 | 01:01:15 | 00:00:00 | |
| DF3TZ-5 | 2026-08-30 11:30:58 | 48.26581 | 12.25212 | 97° | 49km/h | 14747m | 5.8m/s | -55.8°C | 3.9% | 133.8hPa | 2.7V | 00:00:00 | 00:00:00 | 00:00:00 | |
| DL6DJ-15 | 2026-08-30 11:30:54 | 48.26581 | 12.25212 | 97° | 49km/h | 14747m | 5.8m/s | -55.8°C | 3.9% | 133.8hPa | 2.7V | 00:00:00 | 00:00:00 | 00:00:00 | |
| DO3MHA-11 | 2026-08-30 11:30:53 | 48.26583 | 12.25193 | 97° | 58km/h | 14742m | 4.3m/s | -55.6°C | 7.3% | 133.9hPa | 2.7V | 00:00:00 | 01:01:05 | 00:00:00 | |
| OE5DRO-10 | 2026-08-30 11:30:50 | 48.26586 | 12.25134 | 93° | 60km/h | 14729m | 4.5m/s | -55.7°C | 7.3% | 134.2hPa | 2.7V | 00:00:00 | 00:00:00 | 00:00:00 | |
| OE5MMP-10 | 2026-08-30 11:30:47 | 48.26585 | 12.25066 | 85° | 60km/h | 14714m | 5.7m/s | -55.7°C | 7.1% | 134.5hPa | 2.7V | 00:00:00 | 01:00:59 | 00:00:00 | |
| OE5FHM-15 | 2026-08-30 11:30:46 | 48.26584 | 12.25042 | 86° | 66km/h | 14708m | 6.2m/s | -55.6°C | 7.1% | 134.6hPa | 2.7V | 00:00:00 | 01:00:58 | 00:00:00 | |
| DG1MFX-10 | 2026-08-30 11:30:38 | 48.26590 | 12.24864 | 103° | 62km/h | 14668m | 3.7m/s | -55.9°C | 3.9% | 135.5hPa | 2.7V | 00:00:00 | 00:00:00 | 00:00:00 | |
| OE5WHR-10 | 2026-08-30 11:30:37 | 48.26593 | 12.24841 | 102° | 69km/h | 14663m | 5.8m/s | -55.9°C | 7.2% | 135.6hPa | 2.7V | 00:00:00 | 01:00:49 | 00:00:00 | |
| DO3MHA-11 | 2026-08-30 11:30:33 | 48.26603 | 12.24752 | 99° | 69km/h | 14643m | 5.0m/s | -55.9°C | 7.0% | 135.9hPa | 2.7V | 00:00:00 | 01:00:45 | 00:00:00 | |
| OE5DXL-15 | 2026-08-30 11:30:30 | 48.26611 | 12.24680 | 100° | 75km/h | 14626m | 5.8m/s | -56.1°C | 7.2% | 136.4hPa | 2.7V | 00:00:00 | 00:00:00 | 00:00:00 | |
| OE5MMP-10 | 2026-08-30 11:30:27 | 48.26619 | 12.24603 | 101° | 75km/h | 14612m | 5.4m/s | -56.3°C | 7.5% | 136.6hPa | 2.7V | 00:00:00 | 01:00:39 | 00:00:00 | |
| DO3MHA-11 | 2026-08-30 11:30:23 | 48.26633 | 12.24491 | 99° | 75km/h | 14595m | 4.3m/s | -56.3°C | 7.6% | 137.0hPa | 2.7V | 00:00:00 | 01:00:35 | 00:00:00 | |
| OE5MMP-10 | 2026-08-30 11:30:17 | 48.26646 | 12.24320 | 96° | 75km/h | 14568m | 5.2m/s | -56.3°C | 7.1% | 137.6hPa | 2.7V | 00:00:00 | 01:00:29 | 00:00:00 | |
| OE5FHM-15 | 2026-08-30 11:30:16 | 48.26648 | 12.24292 | 97° | 78km/h | 14563m | 3.3m/s | -56.3°C | 7.2% | 137.7hPa | 2.7V | 00:00:00 | 01:00:28 | 00:00:00 | |
| DO3MHA-11 | 2026-08-30 11:30:13 | 48.26653 | 12.24210 | 93° | 77km/h | 14550m | 3.6m/s | -56.4°C | 7.3% | 138.0hPa | 2.7V | 00:00:00 | 01:00:25 | 00:00:00 | |
| BAUMI2-15 | 2026-08-30 11:30:11 | 48.26654 | 12.24153 | 92° | 77km/h | 14542m | 5.2m/s | -56.3°C | 7.3% | 138.2hPa | 2.7V | 00:00:00 | 01:00:23 | 00:00:00 | |
| OE5MMP-10 | 2026-08-30 11:30:07 | 48.26657 | 12.24036 | 93° | 78km/h | 14523m | 4.6m/s | -56.3°C | 7.3% | 138.6hPa | 2.7V | 00:00:00 | 01:00:19 | 00:00:00 | |
| BAUMI2-15 | 2026-08-30 11:30:06 | 48.26658 | 12.24007 | 93° | 77km/h | 14517m | 5.3m/s | 0°C | 0% | 0hPa | 2.7V | 00:00:00 | 01:00:18 | 00:00:00 | |
| S52SK | 2026-08-30 11:30:05 | 48.26658 | 12.24007 | 94° | 78km/h | 14517m | 5.4m/s | -56.3°C | 0% | 138.7hPa | 2.7V | 00:00:00 | 00:00:00 | 00:00:00 | |
| DF7PN | 2026-08-30 11:30:01 | 48.26653 | 12.23650 | 90° | 77km/h | 14463m | 4.2m/s | 0°C | -1.0% | -1.0hPa | 2.7V | 00:00:00 | 00:00:00 | 00:00:00 | |
| DF3TZ-5 | 2026-08-30 11:29:56 | 48.26653 | 12.23650 | 90° | 77km/h | 14463m | 4.2m/s | -56.5°C | 3.8% | 139.9hPa | 2.7V | 00:00:00 | 00:00:00 | 00:00:00 | |
| DL6DJ-15 | 2026-08-30 11:29:52 | 48.26654 | 12.23592 | 93° | 75km/h | 14453m | 4.2m/s | -56.5°C | 3.9% | 140.2hPa | 2.7V | 00:00:00 | 00:00:00 | 00:00:00 | |
| BAUMI2-15 | 2026-08-30 11:29:51 | 48.26655 | 12.23562 | 95° | 80km/h | 14448m | 5.1m/s | 0°C | 0% | 0hPa | 2.7V | 00:00:00 | 01:00:03 | 00:00:00 | |
| OE5MMP-10 | 2026-08-30 11:29:47 | 48.26659 | 12.23440 | 90° | 82km/h | 14431m | 4.3m/s | -56.4°C | 7.3% | 140.6hPa | 2.7V | 00:00:00 | 00:59:59 | 00:00:00 | |
| OE5FHM-15 | 2026-08-30 11:29:46 | 48.26659 | 12.23410 | 89° | 82km/h | 14427m | 3.7m/s | -56.5°C | 7.3% | 140.7hPa | 2.7V | 00:00:00 | 00:59:58 | 08:30:00 | |
| DO3MHA-11 | 2026-08-30 11:29:43 | 48.26657 | 12.23318 | 90° | 80km/h | 14413m | 4.0m/s | -56.5°C | 7.2% | 141.0hPa | 2.7V | 00:00:00 | 00:59:55 | 00:00:00 | |
| DG1MFX-10 | 2026-08-30 11:29:37 | 48.26661 | 12.23132 | 92° | 80km/h | 14384m | 5.2m/s | -56.5°C | 3.9% | 141.7hPa | 2.7V | 00:00:00 | 00:00:00 | 00:00:00 | |
| BAUMI2-15 | 2026-08-30 11:29:36 | 48.26661 | 12.23101 | 90° | 78km/h | 14380m | 4.4m/s | 0°C | 0% | 0hPa | 2.7V | 00:00:00 | 00:59:48 | 00:00:00 | |
| OE5WHR-10 | 2026-08-30 11:29:34 | 48.26660 | 12.23042 | 88° | 82km/h | 14370m | 5.3m/s | -56.4°C | 7.4% | 142.0hPa | 2.7V | 00:00:00 | 00:59:46 | 00:00:00 | |
| DO3MHA-11 | 2026-08-30 11:29:33 | 48.26658 | 12.23012 | 87° | 80km/h | 14366m | 3.8m/s | -56.5°C | 7.4% | 142.0hPa | 2.7V | 00:00:00 | 00:59:45 | 00:00:00 | |
| BAUMI2-15 | 2026-08-30 11:29:31 | 48.26656 | 12.22951 | 88° | 80km/h | 14356m | 4.8m/s | 0°C | 0% | 0hPa | 2.7V | 00:00:00 | 00:59:43 | 00:00:00 | |
| OE5MMP-10 | 2026-08-30 11:29:27 | 48.26655 | 12.22828 | 90° | 82km/h | 14337m | 5.3m/s | -56.4°C | 7.5% | 142.7hPa | 2.7V | 00:00:00 | 00:59:39 | 00:00:00 | |
| BAUMI2-15 | 2026-08-30 11:29:26 | 48.26655 | 12.22797 | 90° | 82km/h | 14332m | 4.4m/s | 0°C | 0% | 0hPa | 2.7V | 00:00:00 | 00:59:38 | 00:00:00 | |
| DO3MHA-11 | 2026-08-30 11:29:23 | 48.26653 | 12.22704 | 87° | 82km/h | 14318m | 3.9m/s | -56.3°C | 7.4% | 143.2hPa | 2.7V | 00:00:00 | 00:59:35 | 00:00:00 | |
| BAUMI2-15 | 2026-08-30 11:29:21 | 48.26649 | 12.22641 | 83° | 82km/h | 14309m | 5.2m/s | 0°C | 0% | 0hPa | 2.7V | 00:00:00 | 00:59:33 | 00:00:00 | |
| DG1MFX-10 | 2026-08-30 11:29:17 | 48.26637 | 12.22517 | 85° | 80km/h | 14291m | 5.1m/s | -56.3°C | 3.9% | 143.8hPa | 2.7V | 00:00:00 | 00:00:00 | 00:00:00 | |
| OE5FHM-15 | 2026-08-30 11:29:16 | 48.26635 | 12.22487 | 87° | 78km/h | 14286m | 4.4m/s | -56.3°C | 7.2% | 143.9hPa | 2.7V | 00:00:00 | 00:59:28 | 00:00:00 | |
| OE5DRO-10 | 2026-08-30 11:29:14 | 48.26634 | 12.22428 | 90° | 78km/h | 14278m | 4.7m/s | -56.3°C | 7.2% | 144.0hPa | 2.7V | 00:00:00 | 00:00:00 | 00:00:00 | |
| BAUMI2-15 | 2026-08-30 11:29:13 | 48.26634 | 12.22397 | 90° | 80km/h | 14273m | 4.2m/s | 0°C | 0% | 0hPa | 2.7V | 00:00:00 | 00:59:25 | 00:00:00 | |
| S52SK | 2026-08-30 11:29:09 | 48.26632 | 12.22305 | 88° | 78km/h | 14259m | 4.6m/s | -56.4°C | 0% | 144.5hPa | 2.7V | 00:00:00 | 00:00:00 | 00:00:00 | |
| BAUMI2-15 | 2026-08-30 11:29:08 | 48.26628 | 12.22247 | 85° | 77km/h | 14250m | 5.3m/s | 0°C | 0% | 0hPa | 2.7V | 00:00:00 | 00:59:20 | 00:00:00 | |
| OE5MMP-10 | 2026-08-30 11:29:07 | 48.26626 | 12.22217 | 84° | 78km/h | 14246m | 3.5m/s | -56.5°C | 7.5% | 144.8hPa | 2.7V | 00:00:00 | 00:59:19 | 08:30:00 | |
| OE3JTB-15 | 2026-08-30 11:29:06 | 48.26624 | 12.22188 | 84° | 80km/h | 14241m | 5.0m/s | -56.5°C | 7.5% | 144.9hPa | 2.7V | 00:00:00 | 00:00:00 | 08:30:00 | |
| DO3MHA-11 | 2026-08-30 11:29:03 | 48.26620 | 12.22103 | 87° | 78km/h | 14229m | 5.4m/s | -56.4°C | 7.5% | 145.2hPa | 2.7V | 00:00:00 | 00:59:15 | 00:00:00 | |
| DF3TZ-5 | 2026-08-30 11:28:54 | 48.26613 | 12.21805 | 86° | 77km/h | 14183m | 4.1m/s | -56.3°C | 4.1% | 146.3hPa | 2.7V | 00:00:00 | 00:00:00 | 00:00:00 | |
| DO3MHA-11 | 2026-08-30 11:28:53 | 48.26613 | 12.21805 | 87° | 80km/h | 14183m | 4.1m/s | -56.3°C | 7.5% | 146.2hPa | 2.7V | 00:00:00 | 00:59:05 | 00:00:00 | |
| OE5WHR-10 | 2026-08-30 11:28:52 | 48.26612 | 12.21776 | 87° | 84km/h | 14179m | 4.2m/s | -56.3°C | 7.5% | 146.3hPa | 2.7V | 00:00:00 | 00:00:00 | 00:00:00 | |
| BAUMI2-15 | 2026-08-30 11:28:48 | 48.26612 | 12.21657 | 92° | 82km/h | 14161m | 4.0m/s | 0°C | 0% | 0hPa | 2.7V | 00:00:00 | 00:59:00 | 00:00:00 | |
| OE5MMP-10 | 2026-08-30 11:28:47 | 48.26612 | 12.21625 | 91° | 86km/h | 14156m | 4.2m/s | -56.7°C | 7.7% | 146.8hPa | 2.7V | 00:00:00 | 00:58:59 | 00:00:00 | |
| OE5FHM-15 | 2026-08-30 11:28:46 | 48.26612 | 12.21594 | 91° | 88km/h | 14152m | 5.4m/s | -56.7°C | 7.8% | 146.9hPa | 2.7V | 00:00:00 | 00:58:58 | 00:00:00 | |
| DO3MHA-11 | 2026-08-30 11:28:43 | 48.26613 | 12.21497 | 93° | 86km/h | 14137m | 5.4m/s | -56.7°C | 7.8% | 147.3hPa | 2.7V | 00:00:00 | 00:58:55 | 00:00:00 | |
| BAUMI2-15 | 2026-08-30 11:28:38 | 48.26620 | 12.21335 | 96° | 86km/h | 14114m | 5.0m/s | 0°C | 0% | 0hPa | 2.7V | 00:00:00 | 00:58:50 | 00:00:00 | |
| OE5MMP-10 | 2026-08-30 11:28:37 | 48.26622 | 12.21302 | 97° | 88km/h | 14109m | 5.1m/s | -56.6°C | 7.7% | 147.9hPa | 2.7V | 00:00:00 | 00:58:49 | 00:00:00 | |
| OE5DRO-10 | 2026-08-30 11:28:36 | 48.26625 | 12.21269 | 97° | 89km/h | 14105m | 3.6m/s | -56.6°C | 7.7% | 148.0hPa | 2.7V | 00:00:00 | 00:00:00 | 00:00:00 | |
| OE3JTB-15 | 2026-08-30 11:28:35 | 48.26627 | 12.21237 | 96° | 88km/h | 14101m | 5.3m/s | -56.6°C | 7.7% | 148.1hPa | 2.7V | 00:00:00 | 00:00:00 | 00:00:00 | |
| DO3MHA-11 | 2026-08-30 11:28:33 | 48.26630 | 12.21173 | 94° | 89km/h | 14092m | 3.5m/s | -56.6°C | 7.8% | 148.4hPa | 2.7V | 00:00:00 | 00:58:45 | 00:00:00 | |
| OE5WHR-10 | 2026-08-30 11:28:31 | 48.26633 | 12.21107 | 94° | 89km/h | 14084m | 4.1m/s | -56.5°C | 7.7% | 148.5hPa | 2.7V | 00:00:00 | 00:58:43 | 00:00:00 | |
| OE5DXL-15 | 2026-08-30 11:28:30 | 48.26635 | 12.21074 | 95° | 88km/h | 14080m | 3.5m/s | -56.5°C | 7.7% | 148.6hPa | 2.7V | 00:00:00 | 00:00:00 | 00:00:00 | |
| OE5MMP-10 | 2026-08-30 11:28:27 | 48.26638 | 12.20973 | 94° | 91km/h | 14066m | 5.5m/s | -56.4°C | 7.7% | 148.9hPa | 2.7V | 00:00:00 | 00:58:39 | 00:00:00 | |
| DO3MHA-11 | 2026-08-30 11:28:21 | 48.26641 | 12.20768 | 92° | 91km/h | 14038m | 4.2m/s | -56.3°C | 7.9% | 149.6hPa | 2.7V | 00:00:00 | 00:58:33 | 00:00:00 | |
| DL6DJ-15 | 2026-08-30 11:28:19 | 48.26641 | 12.20663 | 89° | 91km/h | 14025m | 3.4m/s | -56.3°C | 4.3% | 150.0hPa | 2.7V | 00:00:00 | 00:00:00 | 00:00:00 | |
| OE5MMP-10 | 2026-08-30 11:28:17 | 48.26641 | 12.20629 | 90° | 86km/h | 14021m | 4.3m/s | -56.4°C | 7.8% | 150.0hPa | 2.7V | 00:00:00 | 00:58:29 | 00:00:00 | |
| OE5FHM-15 | 2026-08-30 11:28:16 | 48.26641 | 12.20594 | 91° | 88km/h | 14017m | 5.1m/s | -56.4°C | 7.9% | 150.1hPa | 2.7V | 00:00:00 | 00:58:28 | 00:00:00 | |
| DG1MFX-10 | 2026-08-30 11:28:14 | 48.26641 | 12.20560 | 92° | 89km/h | 14012m | 3.9m/s | -56.4°C | 4.5% | 150.3hPa | 2.7V | 00:00:00 | 00:00:00 | 00:00:00 | |
| DO3MHA-11 | 2026-08-30 11:28:11 | 48.26641 | 12.20429 | 90° | 84km/h | 13995m | 4.9m/s | -56.4°C | 7.9% | 150.6hPa | 2.7V | 00:00:00 | 00:58:23 | 00:00:00 | |
| OE5WHR-10 | 2026-08-30 11:28:10 | 48.26641 | 12.20397 | 91° | 88km/h | 13990m | 4.9m/s | -56.3°C | 7.9% | 150.7hPa | 2.7V | 00:00:00 | 00:00:00 | 08:30:00 | |
| OE5MMP-10 | 2026-08-30 11:28:07 | 48.26643 | 12.20303 | 92° | 86km/h | 13977m | 3.8m/s | -56.3°C | 7.8% | 151.1hPa | 2.7V | 00:00:00 | 00:58:19 | 00:00:00 | |
| OE3JTB-15 | 2026-08-30 11:28:06 | 48.26643 | 12.20272 | 92° | 93km/h | 13973m | 3.5m/s | -56.3°C | 7.8% | 151.1hPa | 2.7V | 00:00:00 | 00:58:18 | 00:00:00 | |
| DL6DJ-15 | 2026-08-30 11:27:48 | 48.26643 | 12.19632 | 92° | 93km/h | 13891m | 4.5m/s | -56.7°C | 4.3% | 153.2hPa | 2.7V | 00:00:00 | 00:00:00 | 00:00:00 | |
| OE5MMP-10 | 2026-08-30 11:27:47 | 48.26642 | 12.19632 | 93° | 93km/h | 13891m | 4.5m/s | -56.7°C | 7.8% | 153.1hPa | 2.7V | 00:00:00 | 00:57:59 | 00:00:00 | |
| OE5FHM-15 | 2026-08-30 11:27:46 | 48.26643 | 12.19597 | 92° | 97km/h | 13886m | 4.6m/s | -56.7°C | 7.8% | 153.3hPa | 2.7V | 00:00:00 | 00:57:58 | 00:00:00 | |
| OE5DRO-10 | 2026-08-30 11:27:39 | 48.26635 | 12.19351 | 85° | 97km/h | 13856m | 5.1m/s | -56.9°C | 7.7% | 154.0hPa | 2.7V | 00:00:00 | 00:00:00 | 08:30:00 | |
| OE5MMP-10 | 2026-08-30 11:27:37 | 48.26632 | 12.19278 | 87° | 97km/h | 13847m | 4.4m/s | -57.0°C | 7.7% | 154.2hPa | 2.7V | 00:00:00 | 00:57:49 | 08:30:00 | |
| DG1MFX-10 | 2026-08-30 11:27:32 | 48.26629 | 12.19133 | 90° | 99km/h | 13830m | 3.9m/s | -57.0°C | 4.2% | 154.7hPa | 2.7V | 00:00:00 | 00:00:00 | 00:00:00 | |
| DO3MHA-11 | 2026-08-30 11:27:31 | 48.26627 | 12.19059 | 88° | 99km/h | 13821m | 5.0m/s | -57.1°C | 7.7% | 154.9hPa | 2.7V | 00:00:00 | 00:57:43 | 00:00:00 | |
| OE3JTB-15 | 2026-08-30 11:27:30 | 48.26626 | 12.19023 | 87° | 100km/h | 13817m | 3.4m/s | -57.0°C | 7.6% | 155.0hPa | 2.7V | 00:00:00 | 00:00:00 | 00:00:00 | |
| OE5WHR-10 | 2026-08-30 11:27:28 | 48.26623 | 12.18949 | 87° | 100km/h | 13808m | 4.2m/s | -57.1°C | 7.6% | 155.2hPa | 2.7V | 00:00:00 | 00:57:40 | 00:00:00 | |
| OE5MMP-10 | 2026-08-30 11:27:27 | 48.26621 | 12.18912 | 87° | 99km/h | 13804m | 4.1m/s | -57.2°C | 7.6% | 155.3hPa | 2.7V | 00:00:00 | 00:57:39 | 00:00:00 | |
| DF3TZ-5 | 2026-08-30 11:27:21 | 48.26615 | 12.18649 | 88° | 97km/h | 13772m | 3.2m/s | -57.1°C | 4.1% | 156.1hPa | 2.7V | 00:00:00 | 00:00:00 | 00:00:00 | |
| OE5DRO-10 | 2026-08-30 11:27:20 | 48.26615 | 12.18649 | 89° | 100km/h | 13773m | 3.1m/s | -57.1°C | 7.6% | 156.1hPa | 2.7V | 00:00:00 | 00:00:00 | 00:00:00 | |
| OE5MMP-10 | 2026-08-30 11:27:17 | 48.26612 | 12.18536 | 87° | 100km/h | 13760m | 3.7m/s | -57.0°C | 7.5% | 156.4hPa | 2.7V | 00:00:00 | 00:57:29 | 00:00:00 | |
| OE5FHM-15 | 2026-08-30 11:27:16 | 48.26610 | 12.18498 | 86° | 99km/h | 13756m | 4.7m/s | -57.1°C | 7.5% | 156.5hPa | 2.7V | 00:00:00 | 00:57:28 | 00:00:00 | |
| DG1MFX-10 | 2026-08-30 11:27:13 | 48.26603 | 12.18387 | 85° | 99km/h | 13743m | 4.9m/s | -57.0°C | 4.0% | 156.9hPa | 2.7V | 00:00:00 | 00:00:00 | 00:00:00 | |
| DB0UT-7 | 2026-08-30 11:27:12 | 48.26601 | 12.18349 | 85° | 97km/h | 13738m | 4.5m/s | -56.9°C | 7.3% | 156.9hPa | 2.7V | 00:00:00 | 00:57:24 | 00:00:00 | |
| DO3MHA-11 | 2026-08-30 11:27:10 | 48.26597 | 12.18274 | 87° | 100km/h | 13729m | 3.4m/s | -56.8°C | 7.3% | 157.1hPa | 2.7V | 00:00:00 | 00:57:22 | 00:00:00 | |
| OE5WHR-10 | 2026-08-30 11:27:07 | 48.26593 | 12.18156 | 88° | 99km/h | 13716m | 4.2m/s | -56.8°C | 7.2% | 157.5hPa | 2.7V | 00:00:00 | 00:00:00 | 00:00:00 | |
| DF3TZ-5 | 2026-08-30 11:26:50 | 48.26550 | 12.17490 | 83° | 95km/h | 13638m | 5.2m/s | -57.0°C | 4.2% | 159.5hPa | 2.7V | 00:00:00 | 00:00:00 | 00:00:00 | |
| OE5MMP-10 | 2026-08-30 11:26:47 | 48.26545 | 12.17419 | 86° | 93km/h | 13629m | 4.2m/s | -56.9°C | 7.6% | 159.7hPa | 2.7V | 00:00:00 | 00:56:59 | 00:00:00 | |
| OE5FHM-15 | 2026-08-30 11:26:46 | 48.26544 | 12.17383 | 87° | 93km/h | 13624m | 4.9m/s | -56.9°C | 7.7% | 159.8hPa | 2.7V | 00:00:00 | 00:56:58 | 00:00:00 | |
| DO3MHA-11 | 2026-08-30 11:26:45 | 48.26542 | 12.17348 | 87° | 95km/h | 13620m | 2.8m/s | -56.9°C | 7.7% | 159.9hPa | 2.7V | 00:00:00 | 00:56:57 | 00:00:00 | |
| OE5DRO-10 | 2026-08-30 11:26:42 | 48.26535 | 12.17244 | 82° | 93km/h | 13607m | 4.9m/s | -56.8°C | 7.8% | 160.2hPa | 2.7V | 00:00:00 | 00:00:00 | 00:00:00 | |
| OE5MMP-10 | 2026-08-30 11:26:37 | 48.26515 | 12.17065 | 83° | 93km/h | 13586m | 3.9m/s | -56.7°C | 7.6% | 160.8hPa | 2.7V | 00:00:00 | 00:56:49 | 00:00:00 | |
| DK5PH-5 | 2026-08-30 11:26:36 | 48.26512 | 12.17028 | 84° | 91km/h | 13582m | 4.4m/s | -56.7°C | 7.5% | 160.9hPa | 2.7V | 00:00:00 | 00:56:48 | 00:00:00 | |
| DO3MHA-11 | 2026-08-30 11:26:35 | 48.26509 | 12.16992 | 84° | 93km/h | 13577m | 4.4m/s | -56.8°C | 7.6% | 161.0hPa | 2.7V | 00:00:00 | 00:56:47 | 00:00:00 | |
| OE3JTB-15 | 2026-08-30 11:26:32 | 48.26501 | 12.16887 | 85° | 91km/h | 13565m | 4.7m/s | -56.9°C | 7.8% | 161.3hPa | 2.7V | 00:00:00 | 00:56:44 | 00:00:00 | |
| DG1MFX-10 | 2026-08-30 11:26:31 | 48.26501 | 12.16887 | 85° | 93km/h | 13565m | 4.8m/s | -56.9°C | 4.4% | 161.3hPa | 2.7V | 00:00:00 | 00:00:00 | 00:00:00 | |
| OE5DXL-15 | 2026-08-30 11:26:30 | 48.26497 | 12.16817 | 85° | 91km/h | 13556m | 3.5m/s | -56.8°C | 7.9% | 161.5hPa | 2.7V | 00:00:00 | 00:00:00 | 08:30:00 | |
| OE5MMP-10 | 2026-08-30 11:26:27 | 48.26487 | 12.16716 | 80° | 91km/h | 13543m | 4.1m/s | -56.8°C | 7.9% | 161.9hPa | 2.7V | 00:00:00 | 00:56:39 | 00:00:00 | |
| DO3MHA-11 | 2026-08-30 11:26:24 | 48.26475 | 12.16617 | 80° | 93km/h | 13530m | 3.1m/s | -56.9°C | 8.0% | 162.2hPa | 2.7V | 00:00:00 | 00:56:36 | 00:00:00 | |
| OE5DRO-10 | 2026-08-30 11:26:23 | 48.26470 | 12.16582 | 79° | 93km/h | 13526m | 4.8m/s | -56.8°C | 8.0% | 162.2hPa | 2.7V | 00:00:00 | 00:00:00 | 00:00:00 | |
| DF3TZ-5 | 2026-08-30 11:26:18 | 48.26450 | 12.16408 | 84° | 93km/h | 13503m | 3.9m/s | -56.6°C | 4.5% | 162.9hPa | 2.7V | 00:00:00 | 00:00:00 | 00:00:00 | |
| OE5MMP-10 | 2026-08-30 11:26:17 | 48.26448 | 12.16373 | 84° | 91km/h | 13498m | 5.8m/s | -56.5°C | 8.0% | 163.0hPa | 2.7V | 00:00:00 | 00:56:29 | 00:00:00 | |
| DO3MHA-11 | 2026-08-30 11:26:14 | 48.26440 | 12.16270 | 84° | 91km/h | 13483m | 5.7m/s | -56.5°C | 7.9% | 163.3hPa | 2.7V | 00:00:00 | 00:56:26 | 00:00:00 | |
| BAUMI2-15 | 2026-08-30 11:26:11 | 48.26430 | 12.16166 | 81° | 88km/h | 13470m | 3.7m/s | 0°C | 0% | 0hPa | 2.7V | 00:00:00 | 00:56:23 | 00:00:00 | |
| OE5MMP-10 | 2026-08-30 11:26:07 | 48.26418 | 12.16027 | 83° | 88km/h | 13453m | 4.6m/s | -56.3°C | 8.1% | 164.1hPa | 2.7V | 00:00:00 | 00:56:19 | 08:30:00 | |
| DK5PH-5 | 2026-08-30 11:26:04 | 48.26410 | 12.15926 | 85° | 88km/h | 13440m | 4.7m/s | -56.2°C | 8.2% | 164.5hPa | 2.7V | 00:00:00 | 00:56:16 | 00:00:00 | |
| OE5WHR-10 | 2026-08-30 11:26:03 | 48.26408 | 12.15893 | 84° | 86km/h | 13435m | 4.3m/s | -56.2°C | 8.3% | 164.6hPa | 2.7V | 00:00:00 | 00:00:00 | 00:00:00 | |
| DF7PN | 2026-08-30 11:25:53 | 48.26377 | 12.15543 | 84° | 82km/h | 13386m | 3.0m/s | 0°C | -1.0% | -1.0hPa | 2.7V | 00:00:00 | 00:00:00 | 00:00:00 | |
| DG1MFX-10 | 2026-08-30 11:25:50 | 48.26375 | 12.15511 | 86° | 84km/h | 13381m | 6.8m/s | -56.1°C | 5.0% | 166.1hPa | 2.7V | 00:00:00 | 00:00:00 | 00:00:00 | |
| BAUMI2-15 | 2026-08-30 11:25:49 | 48.26372 | 12.15447 | 87° | 88km/h | 13370m | 4.3m/s | 0°C | 0% | 0hPa | 2.7V | 00:00:00 | 00:56:01 | 00:00:00 | |
| OE5MMP-10 | 2026-08-30 11:25:47 | 48.26370 | 12.15383 | 90° | 89km/h | 13360m | 3.6m/s | -56.1°C | 8.7% | 166.6hPa | 2.7V | 00:00:00 | 00:55:59 | 00:00:00 | |
| OE5FHM-15 | 2026-08-30 11:25:46 | 48.26370 | 12.15351 | 90° | 88km/h | 13356m | 4.6m/s | -56.1°C | 8.7% | 166.7hPa | 2.7V | 00:00:00 | 00:55:58 | 00:00:00 | |
| DH7VM-15 | 2026-08-30 11:25:45 | 48.26369 | 12.15318 | 89° | 88km/h | 13351m | 5.2m/s | -56.1°C | 5.3% | 166.8hPa | 2.7V | 00:00:00 | 00:00:00 | 00:00:00 | |
| DL6DJ-15 | 2026-08-30 11:25:43 | 48.26368 | 12.15252 | 87° | 88km/h | 13343m | 5.2m/s | -56.1°C | 5.3% | 167.1hPa | 2.7V | 00:00:00 | 00:00:00 | 00:00:00 | |
| DO3MHA-11 | 2026-08-30 11:25:42 | 48.26367 | 12.15219 | 89° | 86km/h | 13338m | 4.1m/s | -56.1°C | 8.8% | 167.1hPa | 2.7V | 00:00:00 | 00:55:54 | 08:30:00 | |
| OE5MMP-10 | 2026-08-30 11:25:37 | 48.26358 | 12.15048 | 85° | 86km/h | 13316m | 3.7m/s | -56.1°C | 9.2% | 167.7hPa | 2.7V | 00:00:00 | 00:55:49 | 00:00:00 | |
| DK5PH-5 | 2026-08-30 11:25:34 | 48.26350 | 12.14951 | 84° | 93km/h | 13303m | 4.1m/s | -56.1°C | 9.2% | 168.1hPa | 2.7V | 00:00:00 | 00:55:46 | 00:00:00 | |
| DO3MHA-11 | 2026-08-30 11:25:31 | 48.26343 | 12.14856 | 83° | 89km/h | 13289m | 3.8m/s | -56.1°C | 9.2% | 168.5hPa | 2.7V | 00:00:00 | 00:55:43 | 00:00:00 | |
| OE5DXL-15 | 2026-08-30 11:25:30 | 48.26340 | 12.14824 | 82° | 93km/h | 13285m | 5.2m/s | -56.2°C | 9.4% | 168.5hPa | 2.7V | 00:00:00 | 00:00:00 | 00:00:00 | |
| DB0UT-7 | 2026-08-30 11:25:28 | 48.26333 | 12.14758 | 81° | 89km/h | 13276m | 4.8m/s | -56.3°C | 9.6% | 168.8hPa | 2.7V | 00:00:00 | 00:00:00 | 00:00:00 | |
| OE5MMP-10 | 2026-08-30 11:25:27 | 48.26330 | 12.14725 | 82° | 89km/h | 13271m | 4.8m/s | -56.2°C | 9.8% | 168.9hPa | 2.7V | 00:00:00 | 00:55:39 | 00:00:00 | |
| OE5DRO-10 | 2026-08-30 11:25:26 | 48.26327 | 12.14691 | 84° | 93km/h | 13267m | 3.0m/s | -56.2°C | 9.8% | 169.0hPa | 2.7V | 00:00:00 | 00:00:00 | 00:00:00 | |
| BAUMI2-15 | 2026-08-30 11:25:21 | 48.26318 | 12.14521 | 89° | 91km/h | 13245m | 3.2m/s | 0°C | 0% | 0hPa | 2.7V | 00:00:00 | 00:55:33 | 00:00:00 | |
| DO3MHA-11 | 2026-08-30 11:25:20 | 48.26317 | 12.14488 | 89° | 95km/h | 13241m | 4.7m/s | -56.5°C | 10.0% | 169.6hPa | 2.7V | 00:00:00 | 00:55:32 | 00:00:00 | |
| OE5MMP-10 | 2026-08-30 11:25:17 | 48.26315 | 12.14386 | 89° | 99km/h | 13227m | 5.1m/s | -56.4°C | 9.9% | 170.1hPa | 2.7V | 00:00:00 | 00:55:29 | 00:00:00 | |
| OE5FHM-15 | 2026-08-30 11:25:16 | 48.26314 | 12.14351 | 89° | 97km/h | 13223m | 4.0m/s | -56.4°C | 10.0% | 170.2hPa | 2.7V | 00:00:00 | 00:55:28 | 08:30:00 | |
| DL6DJ-15 | 2026-08-30 11:25:12 | 48.26311 | 12.14200 | 87° | 102km/h | 13205m | 4.4m/s | -56.4°C | 6.1% | 170.7hPa | 2.7V | 00:00:00 | 00:00:00 | 00:00:00 | |
| DO3MHA-11 | 2026-08-30 11:25:10 | 48.26308 | 12.14124 | 87° | 97km/h | 13196m | 4.9m/s | -56.4°C | 9.9% | 170.9hPa | 2.7V | 00:00:00 | 00:55:22 | 00:00:00 | |
| DG1MFX-10 | 2026-08-30 11:25:09 | 48.26308 | 12.14124 | 87° | 99km/h | 13196m | 5.0m/s | -56.4°C | 6.2% | 171.0hPa | 2.7V | 00:00:00 | 00:00:00 | 00:00:00 | |
| OE5MMP-10 | 2026-08-30 11:25:07 | 48.26304 | 12.14015 | 87° | 97km/h | 13183m | 5.4m/s | -56.2°C | 9.9% | 171.2hPa | 2.7V | 00:00:00 | 00:55:19 | 00:00:00 | |
| DK5PH-5 | 2026-08-30 11:25:03 | 48.26296 | 12.13873 | 84° | 97km/h | 13165m | 3.2m/s | -56.2°C | 10.2% | 171.7hPa | 2.7V | 00:00:00 | 00:55:15 | 00:00:00 | |
| DF3TZ-5 | 2026-08-30 11:24:46 | 48.26234 | 12.13216 | 80° | 99km/h | 13088m | 3.2m/s | -56.3°C | 6.3% | 173.9hPa | 2.7V | 00:00:00 | 00:00:00 | 00:00:00 | |
| DL6DJ-15 | 2026-08-30 11:24:41 | 48.26215 | 12.13074 | 77° | 93km/h | 13071m | 3.5m/s | -56.3°C | 6.6% | 174.3hPa | 2.7V | 00:00:00 | 00:00:00 | 00:00:00 | |
| BAUMI2-15 | 2026-08-30 11:24:40 | 48.26210 | 12.13039 | 78° | 91km/h | 13067m | 5.0m/s | 0°C | 0% | 0hPa | 2.7V | 00:00:00 | 00:54:52 | 00:00:00 | |
| OE5WHR-10 | 2026-08-30 11:24:39 | 48.26205 | 12.13004 | 79° | 91km/h | 13062m | 3.8m/s | -56.2°C | 10.2% | 174.5hPa | 2.7V | 00:00:00 | 00:00:00 | 00:00:00 | |
| OE5MMP-10 | 2026-08-30 11:24:37 | 48.26196 | 12.12933 | 78° | 95km/h | 13055m | 4.3m/s | -56.4°C | 10.0% | 174.7hPa | 2.7V | 00:00:00 | 00:54:49 | 08:30:00 | |
| DK5PH-5 | 2026-08-30 11:24:33 | 48.26172 | 12.12794 | 75° | 91km/h | 13038m | 3.7m/s | -56.3°C | 9.4% | 175.2hPa | 2.7V | 00:00:00 | 00:54:45 | 00:00:00 | |
| DH7VM-15 | 2026-08-30 11:24:31 | 48.26165 | 12.12759 | 74° | 95km/h | 13034m | 4.9m/s | -56.4°C | 5.8% | 175.4hPa | 2.7V | 00:00:00 | 00:00:00 | 00:00:00 | |
| OE5DXL-15 | 2026-08-30 11:24:30 | 48.26151 | 12.12690 | 75° | 89km/h | 13025m | 4.6m/s | -56.3°C | 9.4% | 175.5hPa | 2.7V | 00:00:00 | 00:00:00 | 00:00:00 | |
| OE5DRO-10 | 2026-08-30 11:24:29 | 48.26145 | 12.12655 | 76° | 89km/h | 13021m | 3.5m/s | -56.2°C | 9.6% | 175.7hPa | 2.7V | 00:00:00 | 00:00:00 | 00:00:00 | |
| DG1MFX-10 | 2026-08-30 11:24:28 | 48.26145 | 12.12655 | 77° | 95km/h | 13021m | 3.6m/s | -56.3°C | 6.0% | 175.7hPa | 2.7V | 00:00:00 | 00:00:00 | 00:00:00 | |
| DO3MHA-11 | 2026-08-30 11:24:27 | 48.26134 | 12.12587 | 77° | 89km/h | 13014m | 4.4m/s | -56.1°C | 9.6% | 175.9hPa | 2.7V | 00:00:00 | 00:54:39 | 00:00:00 | |
| BAUMI2-15 | 2026-08-30 11:24:24 | 48.26119 | 12.12488 | 79° | 88km/h | 13002m | 4.5m/s | 0°C | 0% | 0hPa | 2.7V | 00:00:00 | 00:54:36 | 00:00:00 | |
| OE5WHR-10 | 2026-08-30 11:24:18 | 48.26090 | 12.12293 | 80° | 89km/h | 12979m | 3.6m/s | -56.3°C | 9.4% | 176.9hPa | 2.7V | 00:00:00 | 00:54:30 | 00:00:00 | |
| OE5MMP-10 | 2026-08-30 11:24:17 | 48.26086 | 12.12260 | 81° | 89km/h | 12975m | 4.0m/s | -56.2°C | 9.4% | 177.0hPa | 2.7V | 00:00:00 | 00:54:29 | 00:00:00 | |
| DO3MHA-11 | 2026-08-30 11:24:16 | 48.26082 | 12.12226 | 81° | 89km/h | 12970m | 4.3m/s | -56.2°C | 9.3% | 177.1hPa | 2.7V | 00:00:00 | 00:54:28 | 00:00:00 | |
| DF3TZ-5 | 2026-08-30 11:24:14 | 48.26075 | 12.12160 | 81° | 89km/h | 12963m | 3.5m/s | -56.3°C | 5.8% | 177.3hPa | 2.7V | 00:00:00 | 00:00:00 | 00:00:00 | |
| OE5DRO-10 | 2026-08-30 11:24:10 | 48.26063 | 12.12021 | 85° | 88km/h | 12948m | 4.4m/s | -56.3°C | 9.7% | 177.8hPa | 2.7V | 00:00:00 | 00:00:00 | 00:00:00 | |
| OE5MMP-10 | 2026-08-30 11:24:07 | 48.26057 | 12.11923 | 86° | 91km/h | 12935m | 4.9m/s | -56.4°C | 9.8% | 178.1hPa | 2.7V | 00:00:00 | 00:54:19 | 00:00:00 | |
| DO3MHA-11 | 2026-08-30 11:24:06 | 48.26056 | 12.11890 | 86° | 91km/h | 12931m | 3.4m/s | -56.4°C | 9.8% | 178.2hPa | 2.7V | 00:00:00 | 00:54:18 | 08:30:00 | |
| DK5PH-5 | 2026-08-30 11:24:03 | 48.26049 | 12.11791 | 83° | 88km/h | 12920m | 3.6m/s | -56.2°C | 9.7% | 178.5hPa | 2.7V | 00:00:00 | 00:54:15 | 00:00:00 | |
| OE5DXL-15 | 2026-08-30 11:24:00 | 48.26038 | 12.11686 | 83° | 88km/h | 12908m | 4.6m/s | -56.1°C | 9.9% | 178.9hPa | 2.7V | 00:00:00 | 00:00:00 | 00:00:00 | |
| OE5MMP-10 | 2026-08-30 11:23:57 | 48.26031 | 12.11580 | 85° | 86km/h | 12896m | 4.3m/s | -56.2°C | 10.0% | 179.2hPa | 2.7V | 00:00:00 | 00:54:09 | 00:00:00 | |
| OE5WHR-10 | 2026-08-30 11:23:56 | 48.26029 | 12.11547 | 85° | 86km/h | 12892m | 5.2m/s | -56.1°C | 10.1% | 179.3hPa | 2.7V | 00:00:00 | 00:00:00 | 00:00:00 | |
| OE5DRO-10 | 2026-08-30 11:23:51 | 48.26017 | 12.11390 | 83° | 88km/h | 12869m | 5.6m/s | -55.9°C | 10.2% | 180.0hPa | 2.7V | 00:00:00 | 00:00:00 | 00:00:00 | |
| OE5MMP-10 | 2026-08-30 11:23:47 | 48.26007 | 12.11260 | 84° | 88km/h | 12853m | 3.8m/s | -55.8°C | 10.1% | 180.4hPa | 2.7V | 00:00:00 | 00:53:59 | 00:00:00 | |
| DO3MHA-11 | 2026-08-30 11:23:46 | 48.26004 | 12.11226 | 83° | 88km/h | 12848m | 4.5m/s | -55.9°C | 10.1% | 180.5hPa | 2.7V | 00:00:00 | 00:53:58 | 00:00:00 | |
| DL6DJ-15 | 2026-08-30 11:23:39 | 48.25984 | 12.10996 | 85° | 82km/h | 12819m | 5.3m/s | -55.8°C | 6.9% | 181.4hPa | 2.7V | 00:00:00 | 00:00:00 | 00:00:00 | |
| OE5MMP-10 | 2026-08-30 11:23:37 | 48.25982 | 12.10932 | 88° | 91km/h | 12809m | 3.8m/s | -55.7°C | 10.9% | 181.6hPa | 2.7V | 00:00:00 | 00:53:49 | 00:00:00 | |
| DO3MHA-11 | 2026-08-30 11:23:36 | 48.25981 | 12.10899 | 89° | 93km/h | 12805m | 4.8m/s | -55.6°C | 11.0% | 181.8hPa | 2.7V | 00:00:00 | 00:53:48 | 00:00:00 | |
| OE5WHR-10 | 2026-08-30 11:23:35 | 48.25980 | 12.10867 | 90° | 93km/h | 12800m | 4.2m/s | -55.6°C | 11.0% | 181.9hPa | 2.7V | 00:00:00 | 00:00:00 | 00:00:00 | |
| DK5PH-5 | 2026-08-30 11:23:33 | 48.25980 | 12.10800 | 90° | 93km/h | 12792m | 4.8m/s | -55.6°C | 10.9% | 182.1hPa | 2.7V | 00:00:00 | 00:53:45 | 00:00:00 | |
| OE5DRO-10 | 2026-08-30 11:23:32 | 48.25979 | 12.10764 | 89° | 93km/h | 12787m | 5.2m/s | -55.5°C | 10.8% | 182.3hPa | 2.7V | 00:00:00 | 00:00:00 | 00:00:00 | |
| OE5DXL-15 | 2026-08-30 11:23:30 | 48.25976 | 12.10690 | 85° | 95km/h | 12777m | 5.3m/s | -55.6°C | 10.9% | 182.6hPa | 2.7V | 00:00:00 | 00:00:00 | 00:00:00 | |
| OE3JTB-15 | 2026-08-30 11:23:28 | 48.25971 | 12.10619 | 85° | 99km/h | 12769m | 3.3m/s | -55.6°C | 10.9% | 182.8hPa | 2.7V | 00:00:00 | 00:53:40 | 00:00:00 | |
| OE5MMP-10 | 2026-08-30 11:23:27 | 48.25969 | 12.10585 | 87° | 91km/h | 12764m | 5.7m/s | -55.6°C | 10.9% | 182.9hPa | 2.7V | 00:00:00 | 00:53:39 | 00:00:00 | |
| DO3MHA-11 | 2026-08-30 11:23:26 | 48.25968 | 12.10552 | 90° | 95km/h | 12759m | 4.1m/s | -55.6°C | 10.9% | 183.1hPa | 2.7V | 00:00:00 | 00:53:38 | 00:00:00 | |
| DB0UT-7 | 2026-08-30 11:23:24 | 48.25969 | 12.10487 | 92° | 97km/h | 12751m | 3.8m/s | -55.6°C | 11.0% | 183.3hPa | 2.7V | 00:00:00 | 00:53:36 | 00:00:00 | |
| OE5MMP-10 | 2026-08-30 11:23:17 | 48.25971 | 12.10242 | 94° | 99km/h | 12720m | 3.1m/s | -55.7°C | 11.8% | 184.3hPa | 2.7V | 00:00:00 | 00:53:29 | 00:00:00 | |
| OE5FHM-15 | 2026-08-30 11:23:16 | 48.25973 | 12.10206 | 93° | 119km/h | 12716m | 4.2m/s | -55.8°C | 11.8% | 184.3hPa | 2.7V | 00:00:00 | 00:53:28 | 00:00:00 | |
| OE5WHR-10 | 2026-08-30 11:23:14 | 48.25975 | 12.10131 | 92° | 102km/h | 12707m | 4.0m/s | -55.9°C | 12.3% | 184.6hPa | 2.7V | 00:00:00 | 00:53:26 | 00:00:00 | |
| OE5DRO-10 | 2026-08-30 11:23:13 | 48.25975 | 12.10093 | 92° | 102km/h | 12703m | 5.1m/s | -56.0°C | 12.5% | 184.8hPa | 2.7V | 00:00:00 | 00:00:00 | 00:00:00 | |
| DO3MHA-11 | 2026-08-30 11:23:12 | 48.25976 | 12.10056 | 92° | 100km/h | 12699m | 3.4m/s | -56.0°C | 12.7% | 184.9hPa | 2.7V | 00:00:00 | 00:53:24 | 00:00:00 | |
| DL6DJ-15 | 2026-08-30 11:23:08 | 48.25981 | 12.09903 | 94° | 99km/h | 12681m | 4.4m/s | -56.2°C | 8.9% | 185.4hPa | 2.7V | 00:00:00 | 00:00:00 | 00:00:00 | |
| OE5MMP-10 | 2026-08-30 11:23:07 | 48.25983 | 12.09865 | 96° | 100km/h | 12677m | 3.0m/s | -56.1°C | 13.1% | 185.4hPa | 2.7V | 00:00:00 | 00:53:19 | 08:30:00 | |
| DG1MFX-10 | 2026-08-30 11:23:05 | 48.25985 | 12.09827 | 96° | 99km/h | 12674m | 4.4m/s | -56.3°C | 9.1% | 185.6hPa | 2.7V | 00:00:00 | 00:00:00 | 00:00:00 | |
| DO3MHA-11 | 2026-08-30 11:23:02 | 48.25994 | 12.09681 | 96° | 110km/h | 12657m | 4.4m/s | -56.2°C | 13.1% | 186.1hPa | 2.7V | 00:00:00 | 00:53:14 | 00:00:00 | |
| OE5DXL-15 | 2026-08-30 11:23:00 | 48.25998 | 12.09605 | 94° | 106km/h | 12650m | 4.7m/s | -56.2°C | 13.3% | 186.3hPa | 2.7V | 00:00:00 | 00:00:00 | 00:00:00 | |
| OE5MMP-10 | 2026-08-30 11:22:57 | 48.26000 | 12.09483 | 91° | 110km/h | 12636m | 4.6m/s | -56.2°C | 14.2% | 186.7hPa | 2.7V | 00:00:00 | 00:53:09 | 00:00:00 | |
| OE5DRO-10 | 2026-08-30 11:22:54 | 48.25999 | 12.09355 | 89° | 106km/h | 12624m | 3.7m/s | -56.1°C | 14.4% | 187.1hPa | 2.7V | 00:00:00 | 00:00:00 | 00:00:00 | |
| OE5WHR-10 | 2026-08-30 11:22:53 | 48.25998 | 12.09314 | 89° | 106km/h | 12621m | 3.4m/s | -56.2°C | 14.7% | 187.2hPa | 2.7V | 00:00:00 | 00:00:00 | 00:00:00 | |
| DO3MHA-11 | 2026-08-30 11:22:52 | 48.25998 | 12.09273 | 91° | 106km/h | 12617m | 4.3m/s | -56.1°C | 14.8% | 187.3hPa | 2.7V | 00:00:00 | 00:53:04 | 00:00:00 | |
| OE5MMP-10 | 2026-08-30 11:22:47 | 48.25999 | 12.09070 | 91° | 106km/h | 12596m | 5.2m/s | -56.1°C | 15.4% | 187.9hPa | 2.7V | 00:00:00 | 00:52:59 | 00:00:00 | |
| DG1MFX-10 | 2026-08-30 11:22:44 | 48.25999 | 12.08990 | 91° | 106km/h | 12588m | 5.1m/s | -56.2°C | 11.4% | 188.2hPa | 2.7V | 00:00:00 | 00:00:00 | 00:00:00 | |
| DO3MHA-11 | 2026-08-30 11:22:42 | 48.25997 | 12.08870 | 88° | 104km/h | 12574m | 5.4m/s | -56.4°C | 16.6% | 188.6hPa | 2.7V | 00:00:00 | 00:52:54 | 00:00:00 | |
| OE5MMP-10 | 2026-08-30 11:22:37 | 48.25991 | 12.08670 | 90° | 102km/h | 12551m | 4.5m/s | -56.5°C | 17.3% | 189.2hPa | 2.7V | 00:00:00 | 00:52:49 | 00:00:00 | |
| OE5DRO-10 | 2026-08-30 11:22:35 | 48.25990 | 12.08592 | 89° | 111km/h | 12542m | 5.4m/s | -56.6°C | 17.7% | 189.5hPa | 2.7V | 00:00:00 | 00:00:00 | 00:00:00 | |
| DO3MHA-11 | 2026-08-30 11:22:32 | 48.25987 | 12.08476 | 88° | 100km/h | 12529m | 5.5m/s | -56.8°C | 18.4% | 189.9hPa | 2.7V | 00:00:00 | 00:52:44 | 08:30:00 | |
| OE5DXL-15 | 2026-08-30 11:22:30 | 48.25984 | 12.08401 | 87° | 97km/h | 12519m | 5.2m/s | -56.9°C | 18.7% | 190.2hPa | 2.7V | 00:00:00 | 00:00:00 | 00:00:00 | |
| OE5MMP-10 | 2026-08-30 11:22:27 | 48.25978 | 12.08287 | 86° | 102km/h | 12505m | 6.3m/s | -56.9°C | 19.1% | 190.6hPa | 2.7V | 00:00:00 | 00:52:39 | 00:00:00 | |
| OE3JTB-15 | 2026-08-30 11:22:23 | 48.25970 | 12.08136 | 85° | 95km/h | 12488m | 4.8m/s | -56.8°C | 19.1% | 191.1hPa | 2.7V | 00:00:00 | 00:00:00 | 00:00:00 | |
| DO3MHA-11 | 2026-08-30 11:22:22 | 48.25967 | 12.08097 | 83° | 97km/h | 12483m | 4.2m/s | -56.8°C | 19.2% | 191.2hPa | 2.7V | 00:00:00 | 00:52:34 | 00:00:00 | |
| DK5PH-5 | 2026-08-30 11:22:18 | 48.25955 | 12.07942 | 85° | 91km/h | 12465m | 2.5m/s | -56.7°C | 21.0% | 191.8hPa | 2.7V | 00:00:00 | 00:52:30 | 08:30:00 | |
| OE5MMP-10 | 2026-08-30 11:22:17 | 48.25952 | 12.07906 | 84° | 93km/h | 12461m | 4.9m/s | -56.8°C | 20.9% | 191.9hPa | 2.7V | 00:00:00 | 00:52:29 | 00:00:00 | |
| DO3MHA-11 | 2026-08-30 11:22:12 | 48.25935 | 12.07739 | 82° | 93km/h | 12437m | 4.6m/s | -56.9°C | 22.0% | 192.6hPa | 2.7V | 00:00:00 | 00:52:24 | 00:00:00 | |
| OE5WHR-10 | 2026-08-30 11:22:11 | 48.25932 | 12.07704 | 82° | 91km/h | 12433m | 3.3m/s | -56.9°C | 22.2% | 192.8hPa | 2.7V | 00:00:00 | 00:52:23 | 00:00:00 | |
| DF3TZ-5 | 2026-08-30 11:22:10 | 48.25928 | 12.07668 | 82° | 97km/h | 12429m | 5.4m/s | -57.0°C | 16.9% | 193.0hPa | 2.7V | 00:00:00 | 00:00:00 | 00:00:00 | |
| OE5MMP-10 | 2026-08-30 11:22:07 | 48.25918 | 12.07560 | 82° | 89km/h | 12412m | 5.6m/s | -56.9°C | 22.8% | 193.4hPa | 2.7V | 00:00:00 | 00:52:19 | 00:00:00 | |
| DL6DJ-15 | 2026-08-30 11:22:06 | 48.25914 | 12.07526 | 81° | 91km/h | 12407m | 5.2m/s | -57.0°C | 17.5% | 193.6hPa | 2.7V | 00:00:00 | 00:00:00 | 00:00:00 | |
| DO3MHA-11 | 2026-08-30 11:22:02 | 48.25902 | 12.07389 | 83° | 89km/h | 12387m | 5.7m/s | -56.8°C | 23.7% | 194.2hPa | 2.7V | 00:00:00 | 00:52:14 | 00:00:00 | |
| OE5DXL-15 | 2026-08-30 11:22:00 | 48.25897 | 12.07323 | 85° | 86km/h | 12377m | 5.8m/s | -56.8°C | 24.5% | 194.5hPa | 2.7V | 00:00:00 | 00:00:00 | 08:30:00 | |
| DB0UT-7 | 2026-08-30 11:21:58 | 48.25895 | 12.07258 | 90° | 88km/h | 12368m | 2.5m/s | -56.7°C | 24.8% | 194.8hPa | 2.7V | 00:00:00 | 00:52:10 | 00:00:00 | |
| OE5MMP-10 | 2026-08-30 11:21:57 | 48.25895 | 12.07225 | 91° | 89km/h | 12363m | 7.0m/s | -56.7°C | 24.8% | 194.9hPa | 2.7V | 00:00:00 | 00:52:09 | 00:00:00 | |
| OE3JTB-15 | 2026-08-30 11:21:54 | 48.25893 | 12.07119 | 90° | 84km/h | 12347m | 5.4m/s | -56.7°C | 25.3% | 195.4hPa | 2.7V | 00:00:00 | 00:52:06 | 00:00:00 | |
| DO3MHA-11 | 2026-08-30 11:21:52 | 48.25893 | 12.07048 | 91° | 86km/h | 12335m | 3.8m/s | -56.6°C | 25.9% | 195.8hPa | 2.7V | 00:00:00 | 00:52:04 | 00:00:00 | |
| OE5WHR-10 | 2026-08-30 11:21:50 | 48.25893 | 12.06982 | 89° | 84km/h | 12323m | 8.1m/s | -56.5°C | 26.1% | 196.1hPa | 2.7V | 00:00:00 | 00:00:00 | 08:30:00 | |
| DK5PH-5 | 2026-08-30 11:21:48 | 48.25892 | 12.06920 | 89° | 84km/h | 12312m | 4.1m/s | -56.5°C | 26.8% | 196.5hPa | 2.7V | 00:00:00 | 00:52:00 | 00:00:00 | |
| OE5MMP-10 | 2026-08-30 11:21:47 | 48.25891 | 12.06890 | 89° | 86km/h | 12307m | 6.7m/s | -56.4°C | 27.0% | 196.6hPa | 2.7V | 00:00:00 | 00:51:59 | 00:00:00 | |
| DO3MHA-11 | 2026-08-30 11:21:42 | 48.25892 | 12.06724 | 92° | 84km/h | 12279m | 4.8m/s | -56.4°C | 28.0% | 197.5hPa | 2.7V | 00:00:00 | 00:51:54 | 00:00:00 | |
| OE5MMP-10 | 2026-08-30 11:21:37 | 48.25896 | 12.06566 | 92° | 84km/h | 12252m | 4.8m/s | -56.6°C | 29.9% | 198.3hPa | 2.7V | 00:00:00 | 00:51:49 | 08:30:00 | |
| DL6DJ-15 | 2026-08-30 11:21:35 | 48.25902 | 12.06474 | 100° | 82km/h | 12236m | 4.0m/s | -56.7°C | 25.8% | 198.9hPa | 2.7V | 00:00:00 | 00:00:00 | 00:00:00 | |
| DO3MHA-11 | 2026-08-30 11:21:32 | 48.25910 | 12.06411 | 102° | 84km/h | 12225m | 6.0m/s | -56.7°C | 33.4% | 199.1hPa | 2.7V | 00:00:00 | 00:51:44 | 00:00:00 | |
| OE5DXL-15 | 2026-08-30 11:21:30 | 48.25919 | 12.06349 | 100° | 88km/h | 12216m | 2.8m/s | -56.8°C | 34.7% | 199.5hPa | 2.7V | 00:00:00 | 00:00:00 | 00:00:00 | |
| OE5WHR-10 | 2026-08-30 11:21:29 | 48.25923 | 12.06318 | 102° | 88km/h | 12212m | 4.8m/s | -56.8°C | 34.6% | 199.6hPa | 2.7V | 00:00:00 | 00:00:00 | 00:00:00 | |
| OE5MMP-10 | 2026-08-30 11:21:27 | 48.25931 | 12.06252 | 100° | 80km/h | 12202m | 5.0m/s | -56.8°C | 34.9% | 199.9hPa | 2.7V | 00:00:00 | 00:51:39 | 00:00:00 | |
| DO3MHA-11 | 2026-08-30 11:21:22 | 48.25950 | 12.06101 | 101° | 86km/h | 12179m | 4.3m/s | -56.7°C | 36.6% | 200.7hPa | 2.7V | 00:00:00 | 00:51:34 | 00:00:00 | |
| OE5MMP-10 | 2026-08-30 11:21:17 | 48.25979 | 12.05954 | 111° | 93km/h | 12158m | 6.0m/s | -56.6°C | 39.1% | 201.3hPa | 2.7V | 00:00:00 | 00:51:29 | 00:00:00 | |
| OE3JTB-15 | 2026-08-30 11:21:15 | 48.25992 | 12.05888 | 104° | 93km/h | 12144m | 7.6m/s | -56.7°C | 40.5% | 201.7hPa | 2.7V | 00:00:00 | 00:00:00 | 00:00:00 | |
| DO3MHA-11 | 2026-08-30 11:21:12 | 48.26004 | 12.05782 | 99° | 93km/h | 12129m | 5.2m/s | -56.8°C | 43.2% | 202.2hPa | 2.7V | 00:00:00 | 00:51:24 | 00:00:00 | |
| DH7VM-15 | 2026-08-30 11:21:09 | 48.26014 | 12.05712 | 107° | 99km/h | 12119m | 6.1m/s | -56.8°C | 0% | 202.6hPa | 2.7V | 00:00:00 | 00:00:00 | 00:00:00 | |
| OE5WHR-10 | 2026-08-30 11:21:08 | 48.26030 | 12.05643 | 114° | 97km/h | 12109m | 5.8m/s | -56.7°C | 46.7% | 202.9hPa | 2.7V | 00:00:00 | 00:51:20 | 00:00:00 | |
| OE5MMP-10 | 2026-08-30 11:21:07 | 48.26040 | 12.05611 | 116° | 91km/h | 12105m | 3.5m/s | -56.7°C | 47.7% | 203.1hPa | 2.7V | 00:00:00 | 00:51:19 | 00:00:00 | |
| DL6DJ-15 | 2026-08-30 11:21:04 | 48.26078 | 12.05482 | 109° | 88km/h | 12087m | 9.4m/s | -56.8°C | 41.6% | 203.7hPa | 2.7V | 00:00:00 | 00:00:00 | 00:00:00 | |
| DO3MHA-11 | 2026-08-30 11:21:02 | 48.26084 | 12.05451 | 107° | 91km/h | 12078m | 8.1m/s | -56.7°C | 50.2% | 203.9hPa | 2.7V | 00:00:00 | 00:51:14 | 08:30:00 | |
| OE5DXL-15 | 2026-08-30 11:21:00 | 48.26092 | 12.05384 | 98° | 111km/h | 12065m | 5.3m/s | -56.7°C | 51.0% | 204.4hPa | 2.7V | 00:00:00 | 00:00:00 | 00:00:00 | |
| OE5MMP-10 | 2026-08-30 11:20:57 | 48.26099 | 12.05279 | 97° | 102km/h | 12048m | 6.2m/s | -56.8°C | 52.3% | 204.9hPa | 2.7V | 00:00:00 | 00:51:09 | 00:00:00 | |
| DO3MHA-11 | 2026-08-30 11:20:52 | 48.26128 | 12.05109 | 108° | 115km/h | 12017m | 7.8m/s | -57.0°C | 55.8% | 205.9hPa | 2.7V | 00:00:00 | 00:51:04 | 00:00:00 | |
| DH7VM-15 | 2026-08-30 11:20:49 | 48.26143 | 12.05032 | 108° | 115km/h | 12001m | 7.9m/s | -57.1°C | 0% | 206.5hPa | 2.7V | 00:00:00 | 00:00:00 | 00:00:00 | |
| OE5WHR-10 | 2026-08-30 11:20:47 | 48.26171 | 12.04903 | 109° | 122km/h | 11980m | 8.3m/s | -57.2°C | 58.1% | 207.1hPa | 2.7V | 00:00:00 | 00:00:00 | 00:00:00 | |
| OE3JTB-15 | 2026-08-30 11:20:46 | 48.26180 | 12.04862 | 108° | 124km/h | 11973m | 6.1m/s | -57.2°C | 58.6% | 207.3hPa | 2.7V | 00:00:00 | 00:00:00 | 00:00:00 | |
| DO3MHA-11 | 2026-08-30 11:20:42 | 48.26215 | 12.04689 | 107° | 122km/h | 11952m | 4.8m/s | -57.1°C | 59.4% | 208.0hPa | 2.7V | 00:00:00 | 00:50:54 | 00:00:00 | |
| OE5MMP-10 | 2026-08-30 11:20:37 | 48.26250 | 12.04458 | 101° | 122km/h | 11927m | 6.3m/s | -56.9°C | 59.6% | 208.9hPa | 2.7V | 00:00:00 | 00:50:49 | 00:00:00 | |
| OE5DRO-10 | 2026-08-30 11:20:33 | 48.26275 | 12.04283 | 103° | 126km/h | 11904m | 7.3m/s | -57.0°C | 60.5% | 209.5hPa | 2.7V | 00:00:00 | 00:00:00 | 00:00:00 | |
| OE5DXL-15 | 2026-08-30 11:20:30 | 48.26295 | 12.04146 | 103° | 122km/h | 11887m | 5.1m/s | -57.0°C | 59.8% | 210.1hPa | 2.7V | 00:00:00 | 00:00:00 | 00:00:00 | |
| DH7VM-15 | 2026-08-30 11:20:29 | 48.26295 | 12.04146 | 104° | 126km/h | 11887m | 5.1m/s | -57.0°C | 0% | 0hPa | 2.7V | 00:00:00 | 00:00:00 | 00:00:00 | |
| OE5MMP-10 | 2026-08-30 11:20:27 | 48.26314 | 12.04004 | 100° | 126km/h | 11870m | 4.3m/s | -57.1°C | 62.4% | 210.7hPa | 2.7V | 00:00:00 | 00:50:39 | 00:00:00 | |
| OE5WHR-10 | 2026-08-30 11:20:26 | 48.26319 | 12.03956 | 99° | 122km/h | 11866m | 5.0m/s | -57.1°C | 63.2% | 210.9hPa | 2.7V | 00:00:00 | 00:00:00 | 00:00:00 | |
| OE5FHM-15 | 2026-08-30 11:20:25 | 48.26324 | 12.03908 | 99° | 120km/h | 11860m | 6.1m/s | -57.1°C | 62.8% | 211.0hPa | 2.7V | 00:00:00 | 00:50:37 | 00:00:00 | |
| DO3MHA-11 | 2026-08-30 11:20:22 | 48.26340 | 12.03771 | 102° | 126km/h | 11844m | 7.7m/s | -57.1°C | 62.9% | 211.6hPa | 2.7V | 00:00:00 | 00:50:34 | 00:00:00 | |
| OE5MMP-10 | 2026-08-30 11:20:17 | 48.26375 | 12.03538 | 102° | 120km/h | 11818m | 5.9m/s | -57.0°C | 62.9% | 212.5hPa | 2.7V | 00:00:00 | 00:50:29 | 00:00:00 | |
| OE3JTB-15 | 2026-08-30 11:20:16 | 48.26381 | 12.03490 | 101° | 120km/h | 11812m | 5.8m/s | -56.9°C | 61.8% | 212.7hPa | 2.7V | 00:00:00 | 00:50:28 | 00:00:00 | |
| DK5PH-5 | 2026-08-30 11:20:15 | 48.26386 | 12.03443 | 99° | 115km/h | 11807m | 3.9m/s | 0°C | 0% | 0hPa | 2.7V | 00:00:00 | 00:50:27 | 00:00:00 | |
| OE5DRO-10 | 2026-08-30 11:20:14 | 48.26391 | 12.03397 | 99° | 117km/h | 11802m | 7.1m/s | -56.9°C | 60.7% | 213.0hPa | 2.7V | 00:00:00 | 00:00:00 | 08:30:00 | |
| DO3MHA-11 | 2026-08-30 11:20:12 | 48.26398 | 12.03306 | 97° | 115km/h | 11789m | 3.0m/s | -56.7°C | 60.6% | 213.4hPa | 2.7V | 00:00:00 | 00:50:24 | 00:00:00 | |
| OE5MMP-10 | 2026-08-30 11:20:07 | 48.26417 | 12.03089 | 102° | 117km/h | 11763m | 3.2m/s | -56.5°C | 61.1% | 214.3hPa | 2.7V | 00:00:00 | 00:50:19 | 08:30:00 | |
| DF3TZ-5 | 2026-08-30 11:20:06 | 48.26430 | 12.03005 | 103° | 113km/h | 11751m | 5.4m/s | -56.5°C | 52.7% | 214.7hPa | 2.7V | 00:00:00 | 00:00:00 | 00:00:00 | |
| OE5WHR-10 | 2026-08-30 11:20:05 | 48.26430 | 12.03005 | 104° | 117km/h | 11751m | 5.4m/s | -56.4°C | 61.5% | 214.7hPa | 2.7V | 00:00:00 | 00:50:17 | 00:00:00 | |
| DL6DJ-15 | 2026-08-30 11:20:01 | 48.26458 | 12.02835 | 104° | 117km/h | 11731m | 5.0m/s | -56.3°C | 52.9% | 215.4hPa | 2.7V | 00:00:00 | 00:00:00 | 00:00:00 | |
| OE5DXL-15 | 2026-08-30 11:20:00 | 48.26465 | 12.02791 | 105° | 115km/h | 11726m | 6.1m/s | -56.2°C | 61.8% | 215.6hPa | 2.7V | 00:00:00 | 00:00:00 | 00:00:00 | |
| OE5MMP-10 | 2026-08-30 11:19:57 | 48.26486 | 12.02659 | 103° | 117km/h | 11713m | 5.0m/s | -56.1°C | 60.6% | 216.0hPa | 2.7V | 00:00:00 | 00:50:09 | 00:00:00 | |
| OE5FHM-15 | 2026-08-30 11:19:55 | 48.26499 | 12.02567 | 101° | 115km/h | 11702m | 3.9m/s | -56.0°C | 60.5% | 216.4hPa | 2.7V | 00:00:00 | 00:50:07 | 00:00:00 | |
| DO3MHA-11 | 2026-08-30 11:19:52 | 48.26512 | 12.02434 | 97° | 113km/h | 11684m | 6.7m/s | -55.9°C | 61.6% | 217.0hPa | 2.7V | 00:00:00 | 00:50:04 | 00:00:00 | |
| DB0UT-7 | 2026-08-30 11:19:50 | 48.26520 | 12.02347 | 100° | 111km/h | 11675m | 4.8m/s | -55.8°C | 63.0% | 217.3hPa | 2.7V | 00:00:00 | 00:50:02 | 08:30:00 | |
| OE5MMP-10 | 2026-08-30 11:19:47 | 48.26538 | 12.02225 | 106° | 113km/h | 11660m | 4.6m/s | -55.6°C | 63.4% | 217.8hPa | 2.7V | 00:00:00 | 00:49:59 | 00:00:00 | |
| OE5WHR-10 | 2026-08-30 11:19:44 | 48.26561 | 12.02102 | 104° | 115km/h | 11643m | 3.6m/s | -55.6°C | 63.3% | 218.4hPa | 2.7V | 00:00:00 | 00:00:00 | 00:00:00 | |
| DO3MHA-11 | 2026-08-30 11:19:42 | 48.26574 | 12.02016 | 102° | 113km/h | 11634m | 7.0m/s | -55.5°C | 62.9% | 218.7hPa | 2.7V | 00:00:00 | 00:49:54 | 00:00:00 | |
| OE5MMP-10 | 2026-08-30 11:19:37 | 48.26601 | 12.01805 | 104° | 113km/h | 11606m | 5.9m/s | -55.2°C | 63.1% | 219.6hPa | 2.7V | 00:00:00 | 00:49:49 | 00:00:00 | |
| OE5DRO-10 | 2026-08-30 11:19:36 | 48.26608 | 12.01764 | 106° | 115km/h | 11600m | 6.0m/s | -55.2°C | 63.0% | 219.9hPa | 2.7V | 00:00:00 | 00:00:00 | 00:00:00 | |
| DF3TZ-5 | 2026-08-30 11:19:35 | 48.26624 | 12.01682 | 105° | 113km/h | 11588m | 7.9m/s | -55.2°C | 53.9% | 220.4hPa | 2.7V | 00:00:00 | 00:00:00 | 00:00:00 | |
| DO3MHA-11 | 2026-08-30 11:19:32 | 48.26637 | 12.01599 | 101° | 117km/h | 11575m | 5.6m/s | -55.1°C | 62.6% | 220.8hPa | 2.7V | 00:00:00 | 00:49:44 | 08:30:00 | |
| OE5DXL-15 | 2026-08-30 11:19:30 | 48.26646 | 12.01514 | 99° | 117km/h | 11566m | 6.4m/s | -55.0°C | 63.1% | 221.1hPa | 2.7V | 00:00:00 | 00:00:00 | 00:00:00 | |
| OE5MMP-10 | 2026-08-30 11:19:27 | 48.26664 | 12.01385 | 106° | 117km/h | 11551m | 2.4m/s | -54.7°C | 63.2% | 221.6hPa | 2.7V | 00:00:00 | 00:49:39 | 00:00:00 | |
| OE5FHM-15 | 2026-08-30 11:19:25 | 48.26681 | 12.01298 | 106° | 115km/h | 11541m | 6.6m/s | -54.8°C | 61.5% | 221.9hPa | 2.7V | 00:00:00 | 00:49:37 | 00:00:00 | |
| OE5WHR-10 | 2026-08-30 11:19:23 | 48.26696 | 12.01210 | 104° | 115km/h | 11531m | 6.6m/s | -54.7°C | 61.2% | 222.3hPa | 2.7V | 00:00:00 | 00:00:00 | 00:00:00 | |
| DO3MHA-11 | 2026-08-30 11:19:22 | 48.26702 | 12.01167 | 102° | 117km/h | 11525m | 4.0m/s | -54.7°C | 60.9% | 222.5hPa | 2.7V | 00:00:00 | 00:49:34 | 00:00:00 | |
| DK5PH-5 | 2026-08-30 11:19:20 | 48.26714 | 12.01083 | 103° | 115km/h | 11516m | 3.0m/s | 0°C | 0% | 0hPa | 2.7V | 00:00:00 | 00:49:32 | 00:00:00 | |
| OE5DRO-10 | 2026-08-30 11:19:17 | 48.26735 | 12.00953 | 104° | 115km/h | 11502m | 3.7m/s | -54.4°C | 60.5% | 223.3hPa | 2.7V | 00:00:00 | 00:00:00 | 00:00:00 | |
| DH7VM-15 | 2026-08-30 11:19:14 | 48.26749 | 12.00866 | 106° | 119km/h | 11494m | 3.4m/s | -54.4°C | 0% | 0hPa | 2.9V | 00:00:00 | 00:00:00 | 00:00:00 | |
| DO3MHA-11 | 2026-08-30 11:19:12 | 48.26773 | 12.00737 | 107° | 113km/h | 11482m | 4.1m/s | -54.3°C | 61.1% | 224.0hPa | 2.9V | 00:00:00 | 00:49:24 | 00:00:00 | |
| OE5MMP-10 | 2026-08-30 11:19:07 | 48.26811 | 12.00533 | 105° | 115km/h | 11462m | 4.3m/s | -54.1°C | 62.0% | 224.8hPa | 2.9V | 00:00:00 | 00:49:19 | 00:00:00 | |
| DF3TZ-5 | 2026-08-30 11:19:04 | 48.26839 | 12.00362 | 104° | 119km/h | 11447m | 3.7m/s | 0°C | -1.0% | 225.3hPa | 2.9V | 00:00:00 | 00:00:00 | 00:00:00 | |
| DL6DJ-15 | 2026-08-30 11:18:59 | 48.26870 | 12.00192 | 106° | 113km/h | 11432m | 4.5m/s | -53.9°C | 54.6% | 225.9hPa | 2.9V | 00:00:00 | 00:00:00 | 00:00:00 | |
| OE5DRO-10 | 2026-08-30 11:18:58 | 48.26879 | 12.00150 | 107° | 111km/h | 11427m | 4.1m/s | -53.9°C | 63.6% | 225.9hPa | 2.9V | 00:00:00 | 00:00:00 | 00:00:00 | |
| OE5MMP-10 | 2026-08-30 11:18:57 | 48.26886 | 12.00109 | 106° | 113km/h | 11424m | 3.5m/s | -53.7°C | 63.8% | 226.1hPa | 2.9V | 00:00:00 | 00:49:09 | 00:00:00 | |
| DG1MFX-10 | 2026-08-30 11:18:56 | 48.26887 | 12.00109 | 107° | 113km/h | 11424m | 3.6m/s | -53.8°C | 55.6% | 226.2hPa | 2.9V | 00:00:00 | 00:00:00 | 00:00:00 | |
| OE5FHM-15 | 2026-08-30 11:18:55 | 48.26901 | 12.00027 | 105° | 111km/h | 11416m | 3.9m/s | -53.7°C | 63.7% | 226.4hPa | 2.9V | 00:00:00 | 00:49:07 | 00:00:00 | |
| DK5PH-5 | 2026-08-30 11:18:50 | 48.26933 | 11.99818 | 103° | 111km/h | 11395m | 4.9m/s | 0°C | 0% | 0hPa | 2.9V | 00:00:00 | 00:49:02 | 00:00:00 | |
| DO3MHA-11 | 2026-08-30 11:18:49 | 48.26940 | 11.99776 | 103° | 111km/h | 11391m | 3.6m/s | -53.5°C | 63.0% | 227.2hPa | 2.9V | 00:00:00 | 00:49:01 | 00:00:00 | |
| OE5MMP-10 | 2026-08-30 11:18:47 | 48.26953 | 11.99693 | 105° | 111km/h | 11383m | 2.9m/s | -53.4°C | 63.6% | 227.5hPa | 2.9V | 00:00:00 | 00:48:59 | 00:00:00 | |
| DO3MHA-11 | 2026-08-30 11:18:39 | 48.27012 | 11.99368 | 106° | 111km/h | 11351m | 5.4m/s | -53.2°C | 61.9% | 228.6hPa | 2.9V | 00:00:00 | 00:48:51 | 00:00:00 | |
| OE5MMP-10 | 2026-08-30 11:18:37 | 48.27027 | 11.99288 | 106° | 111km/h | 11342m | 4.6m/s | -53.1°C | 62.1% | 228.9hPa | 2.9V | 00:00:00 | 00:48:49 | 08:30:00 | |
| DG1MFX-10 | 2026-08-30 11:18:36 | 48.27027 | 11.99288 | 107° | 108km/h | 11342m | 4.7m/s | -53.2°C | 54.3% | 229.0hPa | 2.9V | 00:00:00 | 00:00:00 | 00:00:00 | |
| OE5DXL-15 | 2026-08-30 11:18:30 | 48.27079 | 11.99006 | 103° | 110km/h | 11315m | 3.0m/s | -52.9°C | 62.7% | 229.9hPa | 2.9V | 00:00:00 | 00:00:00 | 00:00:00 | |
| DO3MHA-11 | 2026-08-30 11:18:29 | 48.27085 | 11.98963 | 103° | 111km/h | 11311m | 4.1m/s | -52.8°C | 63.1% | 230.0hPa | 2.9V | 00:00:00 | 00:48:41 | 00:00:00 | |
| DL6DJ-15 | 2026-08-30 11:18:28 | 48.27092 | 11.98921 | 104° | 113km/h | 11307m | 3.6m/s | -52.9°C | 56.1% | 230.3hPa | 2.9V | 00:00:00 | 00:00:00 | 00:00:00 | |
| OE5MMP-10 | 2026-08-30 11:18:27 | 48.27099 | 11.98880 | 106° | 108km/h | 11304m | 3.3m/s | -52.8°C | 64.1% | 230.3hPa | 2.9V | 00:00:00 | 00:48:39 | 00:00:00 | |
| OE5FHM-15 | 2026-08-30 11:18:25 | 48.27115 | 11.98798 | 107° | 108km/h | 11296m | 4.3m/s | -52.7°C | 64.0% | 230.6hPa | 2.9V | 00:00:00 | 00:48:37 | 00:00:00 | |
| DB0UT-7 | 2026-08-30 11:18:20 | 48.27150 | 11.98598 | 107° | 100km/h | 11276m | 4.9m/s | -52.6°C | 62.5% | 231.3hPa | 2.9V | 00:00:00 | 00:00:00 | 00:00:00 | |
| DO3MHA-11 | 2026-08-30 11:18:19 | 48.27158 | 11.98560 | 109° | 108km/h | 11272m | 4.7m/s | -52.6°C | 62.8% | 231.5hPa | 2.9V | 00:00:00 | 00:48:31 | 00:00:00 | |
| OE5MMP-10 | 2026-08-30 11:18:17 | 48.27176 | 11.98487 | 111° | 110km/h | 11264m | 4.1m/s | -52.5°C | 63.1% | 231.7hPa | 2.9V | 00:00:00 | 00:48:29 | 00:00:00 | |
| DG1MFX-10 | 2026-08-30 11:18:15 | 48.27185 | 11.98449 | 110° | 106km/h | 11260m | 3.9m/s | -52.5°C | 55.8% | 231.9hPa | 2.9V | 00:00:00 | 00:00:00 | 00:00:00 | |
| OE3JTB-15 | 2026-08-30 11:18:10 | 48.27229 | 11.98208 | 105° | 106km/h | 11235m | 2.9m/s | -52.3°C | 63.7% | 232.8hPa | 2.9V | 00:00:00 | 00:00:00 | 00:00:00 | |
| DO3MHA-11 | 2026-08-30 11:18:09 | 48.27236 | 11.98166 | 104° | 108km/h | 11231m | 4.3m/s | -52.3°C | 63.9% | 232.9hPa | 2.9V | 00:00:00 | 00:48:21 | 00:00:00 | |
| OE5MMP-10 | 2026-08-30 11:18:07 | 48.27249 | 11.98085 | 104° | 108km/h | 11223m | 4.3m/s | -52.2°C | 64.2% | 233.2hPa | 2.9V | 00:00:00 | 00:48:19 | 00:00:00 | |
| OE5DRO-10 | 2026-08-30 11:18:01 | 48.27293 | 11.97851 | 108° | 106km/h | 11199m | 3.5m/s | -52.0°C | 65.6% | 234.1hPa | 2.9V | 00:00:00 | 00:00:00 | 00:00:00 | |
| OE5DXL-15 | 2026-08-30 11:18:00 | 48.27301 | 11.97811 | 107° | 106km/h | 11195m | 2.9m/s | -51.9°C | 65.0% | 234.2hPa | 2.9V | 00:00:00 | 00:00:00 | 00:00:00 | |
| DO3MHA-11 | 2026-08-30 11:17:59 | 48.27308 | 11.97772 | 105° | 108km/h | 11192m | 4.7m/s | -51.9°C | 64.1% | 234.3hPa | 2.9V | 00:00:00 | 00:48:11 | 08:30:00 | |
| OE5WHR-10 | 2026-08-30 11:17:58 | 48.27314 | 11.97733 | 103° | 106km/h | 11187m | 3.7m/s | -51.9°C | 64.1% | 234.5hPa | 2.7V | 00:00:00 | 00:48:10 | 00:00:00 | |
| OE5MMP-10 | 2026-08-30 11:17:57 | 48.27320 | 11.97693 | 102° | 108km/h | 11184m | 3.3m/s | -51.9°C | 63.9% | 234.6hPa | 2.7V | 00:00:00 | 00:48:09 | 00:00:00 | |
| OE5FHM-15 | 2026-08-30 11:17:55 | 48.27331 | 11.97614 | 103° | 104km/h | 11176m | 4.5m/s | -51.8°C | 62.5% | 234.9hPa | 2.7V | 00:00:00 | 00:48:07 | 08:30:00 | |
| DG1MFX-10 | 2026-08-30 11:17:54 | 48.27331 | 11.97614 | 104° | 108km/h | 11176m | 4.6m/s | -51.9°C | 55.0% | 235.0hPa | 2.7V | 00:00:00 | 00:00:00 | 00:00:00 | |
| DO3MHA-11 | 2026-08-30 11:17:49 | 48.27379 | 11.97376 | 109° | 104km/h | 11150m | 3.6m/s | -51.6°C | 63.1% | 235.8hPa | 2.7V | 00:00:00 | 00:48:01 | 00:00:00 | |
| OE5MMP-10 | 2026-08-30 11:17:47 | 48.27394 | 11.97301 | 107° | 106km/h | 11140m | 5.7m/s | -51.5°C | 63.1% | 236.1hPa | 2.7V | 00:00:00 | 00:47:59 | 00:00:00 | |
| OE5DRO-10 | 2026-08-30 11:17:42 | 48.27425 | 11.97111 | 105° | 104km/h | 11120m | 4.4m/s | -51.4°C | 60.8% | 236.9hPa | 2.7V | 00:00:00 | 00:00:00 | 00:00:00 | |
| DO3MHA-11 | 2026-08-30 11:17:39 | 48.27449 | 11.96993 | 108° | 104km/h | 11106m | 5.5m/s | -51.3°C | 59.9% | 237.4hPa | 2.7V | 00:00:00 | 00:47:51 | 00:00:00 | |
| OE5WHR-10 | 2026-08-30 11:17:37 | 48.27466 | 11.96914 | 109° | 100km/h | 11097m | 3.3m/s | -51.2°C | 60.4% | 237.7hPa | 2.7V | 00:00:00 | 00:00:00 | 00:00:00 | |
| DG1MFX-10 | 2026-08-30 11:17:34 | 48.27482 | 11.96837 | 108° | 104km/h | 11087m | 5.3m/s | -51.2°C | 53.6% | 238.1hPa | 2.9V | 00:00:00 | 00:00:00 | 00:00:00 | |
| OE3JTB-15 | 2026-08-30 11:17:33 | 48.27495 | 11.96761 | 103° | 100km/h | 11078m | 5.6m/s | -51.1°C | 60.7% | 238.4hPa | 2.9V | 00:00:00 | 00:47:45 | 00:00:00 | |
| DK5PH-5 | 2026-08-30 11:17:30 | 48.27509 | 11.96649 | 100° | 99km/h | 11065m | 4.8m/s | 0°C | 0% | 0hPa | 2.9V | 00:00:00 | 00:47:42 | 00:00:00 | |
| DO3MHA-11 | 2026-08-30 11:17:29 | 48.27514 | 11.96613 | 103° | 100km/h | 11060m | 4.5m/s | -50.9°C | 64.6% | 239.1hPa | 2.9V | 00:00:00 | 00:47:41 | 00:00:00 | |
| OE5MMP-10 | 2026-08-30 11:17:27 | 48.27526 | 11.96541 | 108° | 100km/h | 11052m | 3.7m/s | -50.9°C | 65.0% | 239.4hPa | 2.9V | 00:00:00 | 00:47:39 | 00:00:00 | |
| DL6DJ-15 | 2026-08-30 11:17:26 | 48.27534 | 11.96505 | 107° | 102km/h | 11047m | 4.5m/s | -50.9°C | 57.1% | 239.6hPa | 2.9V | 00:00:00 | 00:00:00 | 00:00:00 | |
| OE5FHM-15 | 2026-08-30 11:17:25 | 48.27542 | 11.96467 | 107° | 100km/h | 11043m | 5.8m/s | -50.8°C | 64.0% | 239.8hPa | 2.9V | 00:00:00 | 00:47:37 | 00:00:00 | |
| OE5DRO-10 | 2026-08-30 11:17:23 | 48.27558 | 11.96390 | 107° | 99km/h | 11033m | 5.9m/s | -50.8°C | 62.1% | 240.0hPa | 2.9V | 00:00:00 | 00:00:00 | 08:30:00 | |
| DO3MHA-11 | 2026-08-30 11:17:19 | 48.27588 | 11.96246 | 109° | 100km/h | 11008m | 5.7m/s | -50.5°C | 59.8% | 241.0hPa | 2.9V | 00:00:00 | 00:47:31 | 00:00:00 | |
| OE5MMP-10 | 2026-08-30 11:17:17 | 48.27603 | 11.96178 | 109° | 100km/h | 10994m | 5.6m/s | -50.4°C | 59.2% | 241.5hPa | 2.9V | 00:00:00 | 00:47:29 | 00:00:00 | |
| OE5WHR-10 | 2026-08-30 11:17:16 | 48.27611 | 11.96143 | 109° | 99km/h | 10989m | 5.2m/s | -50.4°C | 59.7% | 241.7hPa | 2.9V | 00:00:00 | 00:00:00 | 00:00:00 | |
| DG1MFX-10 | 2026-08-30 11:17:13 | 48.27628 | 11.96069 | 110° | 106km/h | 10980m | 6.3m/s | -50.4°C | 52.3% | 242.1hPa | 2.9V | 00:00:00 | 00:00:00 | 00:00:00 | |
| DO3MHA-11 | 2026-08-30 11:17:09 | 48.27668 | 11.95888 | 104° | 97km/h | 10954m | 4.3m/s | -50.1°C | 56.5% | 243.1hPa | 2.9V | 00:00:00 | 00:47:21 | 00:00:00 | |
| OE5MMP-10 | 2026-08-30 11:17:07 | 48.27677 | 11.95819 | 99° | 97km/h | 10943m | 5.5m/s | -50.0°C | 54.9% | 243.4hPa | 2.9V | 00:00:00 | 00:47:19 | 08:30:00 | |
| OE5DRO-10 | 2026-08-30 11:17:04 | 48.27688 | 11.95710 | 101° | 95km/h | 10926m | 4.1m/s | -49.9°C | 54.7% | 244.1hPa | 2.7V | 00:00:00 | 00:00:00 | 00:00:00 | |
| OE3JTB-15 | 2026-08-30 11:17:03 | 48.27693 | 11.95673 | 102° | 93km/h | 10920m | 7.4m/s | -49.9°C | 53.7% | 244.2hPa | 2.7V | 00:00:00 | 00:00:00 | 00:00:00 | |
| DK5PH-5 | 2026-08-30 11:17:00 | 48.27711 | 11.95565 | 106° | 91km/h | 10902m | 6.9m/s | 0°C | 0% | 0hPa | 2.9V | 00:00:00 | 00:47:12 | 00:00:00 | |
| DO3MHA-11 | 2026-08-30 11:16:59 | 48.27718 | 11.95530 | 107° | 93km/h | 10897m | 2.4m/s | -49.6°C | 52.9% | 245.2hPa | 2.9V | 00:00:00 | 00:47:11 | 00:00:00 | |
| OE5MMP-10 | 2026-08-30 11:16:57 | 48.27732 | 11.95460 | 109° | 95km/h | 10886m | 6.3m/s | -49.6°C | 51.7% | 245.6hPa | 2.9V | 00:00:00 | 00:47:09 | 00:00:00 | |
| OE5WHR-10 | 2026-08-30 11:16:55 | 48.27747 | 11.95394 | 110° | 93km/h | 10874m | 5.3m/s | -49.4°C | 53.0% | 246.1hPa | 2.9V | 00:00:00 | 00:47:07 | 00:00:00 | |
| OE5FHM-15 | 2026-08-30 11:16:54 | 48.27755 | 11.95361 | 110° | 89km/h | 10869m | 5.6m/s | -49.4°C | 53.0% | 246.2hPa | 2.9V | 00:00:00 | 00:47:06 | 00:00:00 | |
| DG1MFX-10 | 2026-08-30 11:16:52 | 48.27762 | 11.95327 | 108° | 93km/h | 10864m | 3.9m/s | -49.4°C | 46.8% | 246.5hPa | 2.9V | 00:00:00 | 00:00:00 | 00:00:00 | |
| DO3MHA-11 | 2026-08-30 11:16:49 | 48.27788 | 11.95190 | 106° | 91km/h | 10846m | 5.3m/s | -49.2°C | 50.5% | 247.1hPa | 2.9V | 00:00:00 | 00:47:01 | 00:00:00 | |
| OE5MMP-10 | 2026-08-30 11:16:47 | 48.27803 | 11.95119 | 109° | 91km/h | 10836m | 6.9m/s | -49.1°C | 50.0% | 247.5hPa | 2.9V | 00:00:00 | 00:46:59 | 00:00:00 | |
| DB0UT-7 | 2026-08-30 11:16:45 | 48.27816 | 11.95051 | 105° | 88km/h | 10823m | 3.9m/s | -48.9°C | 49.9% | 248.1hPa | 2.9V | 00:00:00 | 00:46:57 | 00:00:00 | |
| OE5MMP-10 | 2026-08-30 11:16:37 | 48.27856 | 11.94786 | 107° | 89km/h | 10779m | 3.3m/s | -48.7°C | 47.3% | 249.7hPa | 2.9V | 00:00:00 | 00:46:49 | 00:00:00 | |
| OE5WHR-10 | 2026-08-30 11:16:34 | 48.27875 | 11.94683 | 103° | 86km/h | 10766m | 4.6m/s | -48.5°C | 47.1% | 250.2hPa | 2.9V | 00:00:00 | 00:00:00 | 00:00:00 | |
| DG1MFX-10 | 2026-08-30 11:16:31 | 48.27884 | 11.94615 | 100° | 89km/h | 10756m | 5.5m/s | -48.5°C | 40.9% | 250.7hPa | 2.9V | 00:00:00 | 00:00:00 | 00:00:00 | |
| OE5DXL-15 | 2026-08-30 11:16:30 | 48.27891 | 11.94550 | 100° | 84km/h | 10747m | 3.3m/s | -48.4°C | 47.0% | 251.1hPa | 2.9V | 00:00:00 | 00:00:00 | 00:00:00 | |
| DO3MHA-11 | 2026-08-30 11:16:29 | 48.27895 | 11.94518 | 100° | 88km/h | 10743m | 5.0m/s | -48.3°C | 46.4% | 251.2hPa | 2.9V | 00:00:00 | 00:46:41 | 08:30:00 | |
| OE5MMP-10 | 2026-08-30 11:16:27 | 48.27901 | 11.94452 | 98° | 86km/h | 10731m | 4.4m/s | -48.2°C | 46.7% | 251.6hPa | 2.7V | 00:00:00 | 00:46:39 | 00:00:00 | |
| OE5DRO-10 | 2026-08-30 11:16:26 | 48.27905 | 11.94419 | 99° | 84km/h | 10727m | 3.5m/s | -48.2°C | 46.1% | 251.7hPa | 2.7V | 00:00:00 | 00:00:00 | 00:00:00 | |
| DL6DJ-15 | 2026-08-30 11:16:24 | 48.27912 | 11.94354 | 99° | 86km/h | 10719m | 4.1m/s | -48.2°C | 39.9% | 252.1hPa | 2.7V | 00:00:00 | 00:00:00 | 00:00:00 | |
| OE5FHM-15 | 2026-08-30 11:16:20 | 48.27926 | 11.94224 | 101° | 84km/h | 10697m | 6.7m/s | -47.9°C | 44.9% | 252.9hPa | 2.7V | 00:00:00 | 00:46:32 | 00:00:00 | |
| DO3MHA-11 | 2026-08-30 11:16:19 | 48.27931 | 11.94193 | 104° | 84km/h | 10691m | 4.9m/s | -47.9°C | 45.4% | 253.1hPa | 2.9V | 00:00:00 | 00:46:31 | 00:00:00 | |
| OE5MMP-10 | 2026-08-30 11:16:17 | 48.27940 | 11.94132 | 103° | 84km/h | 10682m | 6.4m/s | -47.8°C | 45.7% | 253.4hPa | 2.9V | 00:00:00 | 00:46:29 | 00:00:00 | |
| OE5WHR-10 | 2026-08-30 11:16:13 | 48.27957 | 11.94007 | 102° | 84km/h | 10663m | 5.1m/s | -47.6°C | 46.4% | 254.2hPa | 2.9V | 00:00:00 | 00:00:00 | 00:00:00 | |
| DG1MFX-10 | 2026-08-30 11:16:10 | 48.27965 | 11.93944 | 99° | 82km/h | 10654m | 6.0m/s | -47.6°C | 41.6% | 254.6hPa | 2.9V | 00:00:00 | 00:00:00 | 00:00:00 | |
| DO3MHA-11 | 2026-08-30 11:16:09 | 48.27970 | 11.93883 | 96° | 84km/h | 10645m | 4.6m/s | -47.5°C | 47.4% | 254.8hPa | 2.9V | 00:00:00 | 00:46:21 | 00:00:00 | |
| OE5MMP-10 | 2026-08-30 11:16:07 | 48.27974 | 11.93819 | 97° | 84km/h | 10635m | 4.5m/s | -47.4°C | 48.5% | 255.3hPa | 2.9V | 00:00:00 | 00:46:19 | 00:00:00 | |
| OE3JTB-15 | 2026-08-30 11:16:05 | 48.27980 | 11.93754 | 101° | 84km/h | 10625m | 4.5m/s | -47.3°C | 49.9% | 255.7hPa | 2.7V | 00:00:00 | 00:46:17 | 00:00:00 | |
| DL6DJ-15 | 2026-08-30 11:15:53 | 48.28021 | 11.93375 | 100° | 82km/h | 10563m | 4.4m/s | -46.9°C | 56.5% | 258.1hPa | 2.7V | 00:00:00 | 00:00:00 | 00:00:00 | |
| OE5WHR-10 | 2026-08-30 11:15:52 | 48.28025 | 11.93344 | 101° | 84km/h | 10559m | 3.3m/s | -46.8°C | 64.5% | 258.2hPa | 2.7V | 00:00:00 | 00:46:04 | 00:00:00 | |
| OE5FHM-15 | 2026-08-30 11:15:50 | 48.28032 | 11.93281 | 99° | 84km/h | 10549m | 6.6m/s | -46.7°C | 66.4% | 258.6hPa | 2.7V | 00:00:00 | 00:46:02 | 00:00:00 | |
| DO3MHA-11 | 2026-08-30 11:15:49 | 48.28036 | 11.93249 | 98° | 84km/h | 10543m | 4.0m/s | -46.7°C | 65.9% | 258.8hPa | 2.7V | 00:00:00 | 00:46:01 | 00:00:00 | |
| OE5DRO-10 | 2026-08-30 11:15:48 | 48.28038 | 11.93218 | 97° | 84km/h | 10538m | 5.5m/s | -46.6°C | 65.8% | 259.0hPa | 2.7V | 00:00:00 | 00:00:00 | 00:00:00 | |
| OE5MMP-10 | 2026-08-30 11:15:47 | 48.28040 | 11.93187 | 95° | 84km/h | 10532m | 6.8m/s | -46.6°C | 65.9% | 259.3hPa | 2.7V | 00:00:00 | 00:45:59 | 00:00:00 | |
| DO3MHA-11 | 2026-08-30 11:15:39 | 48.28063 | 11.92936 | 99° | 84km/h | 10490m | 4.7m/s | -46.3°C | 67.7% | 261.0hPa | 2.7V | 00:00:00 | 00:45:51 | 00:00:00 | |
| OE5MMP-10 | 2026-08-30 11:15:37 | 48.28069 | 11.92870 | 98° | 82km/h | 10481m | 5.7m/s | -46.3°C | 68.5% | 261.2hPa | 2.7V | 00:00:00 | 00:45:49 | 08:30:00 | |
| OE5WHR-10 | 2026-08-30 11:15:31 | 48.28085 | 11.92683 | 99° | 84km/h | 10453m | 5.1m/s | -46.1°C | 71.2% | 262.4hPa | 2.7V | 00:00:00 | 00:00:00 | 08:30:00 | |
| OE5DXL-15 | 2026-08-30 11:15:30 | 48.28088 | 11.92653 | 98° | 82km/h | 10448m | 4.9m/s | -46.0°C | 71.1% | 262.6hPa | 2.9V | 00:00:00 | 00:00:00 | 00:00:00 | |
| DO3MHA-11 | 2026-08-30 11:15:29 | 48.28090 | 11.92624 | 98° | 84km/h | 10444m | 3.1m/s | -46.0°C | 71.4% | 262.8hPa | 2.9V | 00:00:00 | 00:45:41 | 00:00:00 | |
| OE5MMP-10 | 2026-08-30 11:15:27 | 48.28096 | 11.92563 | 97° | 86km/h | 10435m | 5.2m/s | -45.9°C | 71.1% | 263.1hPa | 2.9V | 00:00:00 | 00:45:39 | 00:00:00 | |
| DL6DJ-15 | 2026-08-30 11:15:22 | 48.28110 | 11.92403 | 99° | 82km/h | 10410m | 4.4m/s | -45.8°C | 62.9% | 264.1hPa | 2.9V | 00:00:00 | 00:00:00 | 00:00:00 | |
| OE5FHM-15 | 2026-08-30 11:15:20 | 48.28117 | 11.92339 | 99° | 80km/h | 10399m | 6.9m/s | -45.7°C | 69.9% | 264.4hPa | 2.9V | 00:00:00 | 00:45:32 | 00:00:00 | |
| DO3MHA-11 | 2026-08-30 11:15:19 | 48.28120 | 11.92306 | 97° | 84km/h | 10393m | 5.4m/s | -45.7°C | 69.6% | 264.7hPa | 2.9V | 00:00:00 | 00:45:31 | 00:00:00 | |
| OE5MMP-10 | 2026-08-30 11:15:17 | 48.28124 | 11.92242 | 94° | 82km/h | 10384m | 3.8m/s | -45.5°C | 69.8% | 265.1hPa | 2.9V | 00:00:00 | 00:45:29 | 00:00:00 | |
| OE5WHR-10 | 2026-08-30 11:15:10 | 48.28140 | 11.92022 | 94° | 78km/h | 10350m | 5.5m/s | -45.2°C | 67.5% | 266.5hPa | 2.9V | 00:00:00 | 00:00:00 | 00:00:00 | |
| DO3MHA-11 | 2026-08-30 11:15:09 | 48.28141 | 11.91990 | 94° | 80km/h | 10345m | 4.3m/s | -45.2°C | 66.5% | 266.7hPa | 2.9V | 00:00:00 | 00:45:21 | 00:00:00 | |
| DG1MFX-10 | 2026-08-30 11:15:08 | 48.28141 | 11.91990 | 95° | 84km/h | 10345m | 4.3m/s | -45.2°C | 60.3% | 266.7hPa | 2.9V | 00:00:00 | 00:00:00 | 00:00:00 | |
| OE5MMP-10 | 2026-08-30 11:15:07 | 48.28143 | 11.91930 | 94° | 80km/h | 10336m | 5.2m/s | -45.1°C | 66.6% | 267.1hPa | 2.9V | 00:00:00 | 00:45:19 | 00:00:00 | |
| OE5DXL-15 | 2026-08-30 11:15:00 | 48.28157 | 11.91719 | 97° | 80km/h | 10304m | 4.1m/s | -44.7°C | 65.3% | 268.4hPa | 2.9V | 00:00:00 | 00:00:00 | 00:00:00 | |
| DO3MHA-11 | 2026-08-30 11:14:59 | 48.28159 | 11.91689 | 97° | 78km/h | 10300m | 4.4m/s | -44.7°C | 65.1% | 268.5hPa | 2.9V | 00:00:00 | 00:45:11 | 08:30:00 | |
| OE5MMP-10 | 2026-08-30 11:14:57 | 48.28165 | 11.91631 | 100° | 78km/h | 10293m | 4.6m/s | -44.6°C | 64.3% | 268.9hPa | 2.9V | 00:00:00 | 00:45:09 | 00:00:00 | |
| OE5DRO-10 | 2026-08-30 11:14:51 | 48.28179 | 11.91460 | 94° | 82km/h | 10269m | 4.6m/s | -44.4°C | 63.9% | 269.8hPa | 2.9V | 00:00:00 | 00:00:00 | 00:00:00 | |
| OE5FHM-15 | 2026-08-30 11:14:50 | 48.28180 | 11.91428 | 94° | 82km/h | 10264m | 4.5m/s | -44.4°C | 63.8% | 270.0hPa | 2.9V | 00:00:00 | 00:45:02 | 00:00:00 | |
| OE5WHR-10 | 2026-08-30 11:14:49 | 48.28182 | 11.91395 | 96° | 80km/h | 10260m | 4.4m/s | -44.3°C | 63.9% | 270.1hPa | 2.7V | 00:00:00 | 00:45:01 | 00:00:00 | |
| OE5MMP-10 | 2026-08-30 11:14:47 | 48.28186 | 11.91333 | 98° | 82km/h | 10251m | 4.1m/s | -44.3°C | 64.2% | 270.5hPa | 2.7V | 00:00:00 | 00:44:59 | 00:00:00 | |
| DO3MHA-11 | 2026-08-30 11:14:39 | 48.28205 | 11.91086 | 98° | 80km/h | 10215m | 3.5m/s | -44.0°C | 63.7% | 272.0hPa | 2.7V | 00:00:00 | 00:44:51 | 00:00:00 | |
| OE3JTB-15 | 2026-08-30 11:14:38 | 48.28208 | 11.91054 | 98° | 80km/h | 10212m | 3.9m/s | -44.0°C | 63.5% | 272.1hPa | 2.7V | 00:00:00 | 00:44:50 | 00:00:00 | |
| OE5DXL-15 | 2026-08-30 11:14:30 | 48.28227 | 11.90814 | 95° | 80km/h | 10177m | 5.5m/s | -43.8°C | 64.3% | 273.5hPa | 2.7V | 00:00:00 | 00:00:00 | 00:00:00 | |
| DO3MHA-11 | 2026-08-30 11:14:29 | 48.28228 | 11.90784 | 95° | 82km/h | 10172m | 5.1m/s | -43.8°C | 64.7% | 273.7hPa | 2.9V | 00:00:00 | 00:44:41 | 00:00:00 | |
| OE5WHR-10 | 2026-08-30 11:14:28 | 48.28230 | 11.90753 | 95° | 80km/h | 10168m | 3.4m/s | -43.7°C | 64.9% | 273.9hPa | 2.9V | 00:00:00 | 00:00:00 | 00:00:00 | |
| OE5MMP-10 | 2026-08-30 11:14:27 | 48.28231 | 11.90722 | 94° | 82km/h | 10163m | 5.5m/s | -43.7°C | 64.5% | 274.0hPa | 2.9V | 00:00:00 | 00:44:39 | 00:00:00 | |
| DG1MFX-10 | 2026-08-30 11:14:26 | 48.28231 | 11.90722 | 95° | 82km/h | 10163m | 5.5m/s | -43.7°C | 58.7% | 274.1hPa | 2.9V | 00:00:00 | 00:00:00 | 00:00:00 | |
| OE5FHM-15 | 2026-08-30 11:14:20 | 48.28243 | 11.90501 | 94° | 82km/h | 10134m | 3.4m/s | 0°C | 0% | 0hPa | 2.9V | 00:00:00 | 00:44:32 | 00:00:00 | |
| DO3MHA-11 | 2026-08-30 11:14:19 | 48.28244 | 11.90472 | 93° | 77km/h | 10130m | 4.3m/s | -43.4°C | 64.5% | 275.4hPa | 2.9V | 00:00:00 | 00:44:31 | 00:00:00 | |
| OE5MMP-10 | 2026-08-30 11:14:17 | 48.28245 | 11.90416 | 93° | 78km/h | 10121m | 4.5m/s | -43.3°C | 64.5% | 275.8hPa | 2.9V | 00:00:00 | 00:44:29 | 00:00:00 | |
| OE5DRO-10 | 2026-08-30 11:14:13 | 48.28248 | 11.90303 | 91° | 82km/h | 10106m | 4.0m/s | -43.2°C | 65.5% | 276.5hPa | 2.9V | 00:00:00 | 00:00:00 | 00:00:00 | |
| DO3MHA-11 | 2026-08-30 11:14:09 | 48.28251 | 11.90179 | 92° | 82km/h | 10089m | 4.7m/s | -43.1°C | 65.7% | 277.1hPa | 2.9V | 00:00:00 | 00:44:21 | 00:00:00 | |
| OE5MMP-10 | 2026-08-30 11:14:07 | 48.28251 | 11.90113 | 92° | 80km/h | 10080m | 3.8m/s | -43.0°C | 65.9% | 277.5hPa | 2.9V | 00:00:00 | 00:44:19 | 08:30:00 | |
| DG1MFX-10 | 2026-08-30 11:14:05 | 48.28252 | 11.90080 | 93° | 84km/h | 10076m | 5.8m/s | -43.0°C | 60.3% | 277.7hPa | 2.9V | 00:00:00 | 00:00:00 | 00:00:00 | |
| OE5DXL-15 | 2026-08-30 11:14:00 | 48.28254 | 11.89900 | 86° | 86km/h | 10048m | 2.7m/s | -42.7°C | 66.7% | 278.9hPa | 2.9V | 00:00:00 | 00:00:00 | 00:00:00 | |
| DG1MJG | 2026-08-30 11:13:59 | 48.28252 | 11.89871 | 86° | 77km/h | 10044m | 5.4m/s | -42.7°C | 60.9% | 279.0hPa | 2.9V | 00:00:00 | 00:00:00 | 00:00:00 | |
| OE5MMP-10 | 2026-08-30 11:13:57 | 48.28249 | 11.89808 | 87° | 86km/h | 10032m | 4.6m/s | -42.6°C | 67.0% | 279.4hPa | 2.9V | 00:00:00 | 00:44:09 | 00:00:00 | |
| OE5DRO-10 | 2026-08-30 11:13:54 | 48.28250 | 11.89704 | 95° | 86km/h | 10016m | 4.9m/s | -42.5°C | 69.6% | 280.1hPa | 2.9V | 00:00:00 | 00:00:00 | 00:00:00 | |
| OE5FHM-15 | 2026-08-30 11:13:50 | 48.28252 | 11.89572 | 88° | 86km/h | 9997m | 6.2m/s | 0°C | 0% | 0hPa | 2.9V | 00:00:00 | 00:44:02 | 00:00:00 | |
| DO3MHA-11 | 2026-08-30 11:13:49 | 48.28251 | 11.89541 | 87° | 86km/h | 9991m | 6.1m/s | -42.3°C | 69.8% | 281.1hPa | 2.9V | 00:00:00 | 00:44:01 | 00:00:00 | |
| OE5MMP-10 | 2026-08-30 11:13:47 | 48.28249 | 11.89481 | 88° | 86km/h | 9981m | 4.1m/s | -42.3°C | 70.9% | 281.6hPa | 2.9V | 00:00:00 | 00:43:59 | 00:00:00 | |
| OE5WHR-10 | 2026-08-30 11:13:46 | 48.28248 | 11.89450 | 87° | 88km/h | 9977m | 4.1m/s | -42.2°C | 70.9% | 281.8hPa | 2.9V | 00:00:00 | 00:43:58 | 00:00:00 | |
| DG1MFX-10 | 2026-08-30 11:13:44 | 48.28247 | 11.89418 | 87° | 86km/h | 9970m | 8.7m/s | -42.3°C | 65.0% | 282.1hPa | 2.9V | 00:00:00 | 00:00:00 | 00:00:00 | |
| OE3JTB-15 | 2026-08-30 11:13:40 | 48.28238 | 11.89251 | 87° | 88km/h | 9938m | 2.7m/s | -42.0°C | 73.5% | 283.3hPa | 2.9V | 00:00:00 | 00:00:00 | 00:00:00 | |
| DO3MHA-11 | 2026-08-30 11:13:39 | 48.28237 | 11.89219 | 88° | 89km/h | 9934m | 5.2m/s | -42.0°C | 73.0% | 283.5hPa | 2.9V | 00:00:00 | 00:43:51 | 00:00:00 | |
| OE5MMP-10 | 2026-08-30 11:13:37 | 48.28234 | 11.89153 | 85° | 89km/h | 9920m | 7.1m/s | -42.0°C | 73.0% | 284.0hPa | 2.9V | 00:00:00 | 00:43:49 | 00:00:00 | |
| OE5DRO-10 | 2026-08-30 11:13:35 | 48.28229 | 11.89086 | 84° | 88km/h | 9910m | 5.7m/s | -41.9°C | 73.5% | 284.5hPa | 2.9V | 00:00:00 | 00:00:00 | 00:00:00 | |
| OE5DXL-15 | 2026-08-30 11:13:30 | 48.28218 | 11.88914 | 85° | 86km/h | 9880m | 7.1m/s | -41.7°C | 73.0% | 285.7hPa | 2.9V | 00:00:00 | 00:00:00 | 00:00:00 | |
| DO3MHA-11 | 2026-08-30 11:13:29 | 48.28216 | 11.88881 | 85° | 86km/h | 9872m | 8.6m/s | -41.7°C | 72.7% | 286.0hPa | 2.9V | 00:00:00 | 00:43:41 | 08:30:00 | |
| OE5MMP-10 | 2026-08-30 11:13:27 | 48.28214 | 11.88818 | 90° | 88km/h | 9860m | 4.8m/s | 0°C | 0% | 0hPa | 2.9V | 00:00:00 | 00:43:39 | 00:00:00 | |
| OE5WHR-10 | 2026-08-30 11:13:24 | 48.28218 | 11.88723 | 96° | 86km/h | 9842m | 4.1m/s | -41.5°C | 73.3% | 287.3hPa | 2.9V | 00:00:00 | 00:00:00 | 00:00:00 | |
| DG1MFX-10 | 2026-08-30 11:13:23 | 48.28218 | 11.88723 | 96° | 86km/h | 9842m | 4.1m/s | -41.5°C | 67.5% | 287.4hPa | 2.9V | 00:00:00 | 00:00:00 | 00:00:00 | |
| OE5FHM-15 | 2026-08-30 11:13:20 | 48.28221 | 11.88587 | 90° | 89km/h | 9822m | 5.5m/s | 0°C | 0% | 0hPa | 2.9V | 00:00:00 | 00:43:32 | 00:00:00 | |
| DO3MHA-11 | 2026-08-30 11:13:19 | 48.28220 | 11.88553 | 88° | 86km/h | 9817m | 3.3m/s | -41.2°C | 71.8% | 288.4hPa | 2.9V | 00:00:00 | 00:43:31 | 00:00:00 | |
| DL6DJ-15 | 2026-08-30 11:13:18 | 48.28219 | 11.88485 | 89° | 88km/h | 9803m | 7.3m/s | -41.2°C | 64.8% | 289.0hPa | 2.9V | 00:00:00 | 00:00:00 | 00:00:00 | |
| OE5MMP-10 | 2026-08-30 11:13:17 | 48.28219 | 11.88485 | 90° | 84km/h | 9804m | 7.2m/s | 0°C | 0% | 0hPa | 2.9V | 00:00:00 | 00:43:29 | 00:00:00 | |
| OE5DRO-10 | 2026-08-30 11:13:16 | 48.28219 | 11.88452 | 91° | 84km/h | 9798m | 3.9m/s | -41.0°C | 70.8% | 289.3hPa | 2.9V | 00:00:00 | 00:00:00 | 00:00:00 | |
| OE3JTB-15 | 2026-08-30 11:13:11 | 48.28216 | 11.88295 | 84° | 82km/h | 9766m | 7.9m/s | -40.8°C | 68.8% | 290.6hPa | 2.9V | 00:00:00 | 00:43:23 | 00:00:00 | |
| DO3MHA-11 | 2026-08-30 11:13:09 | 48.28210 | 11.88231 | 84° | 84km/h | 9755m | 5.7m/s | -40.7°C | 68.8% | 291.1hPa | 2.9V | 00:00:00 | 00:43:21 | 00:00:00 | |
| OE5MMP-10 | 2026-08-30 11:13:07 | 48.28207 | 11.88167 | 88° | 82km/h | 9746m | 7.5m/s | 0°C | 0% | 0hPa | 2.9V | 00:00:00 | 00:43:19 | 00:00:00 | |
| OE5WHR-10 | 2026-08-30 11:13:03 | 48.28208 | 11.88037 | 90° | 82km/h | 9720m | 7.0m/s | -40.3°C | 70.0% | 292.6hPa | 2.9V | 00:00:00 | 00:00:00 | 00:00:00 | |
| DL6DJ-15 | 2026-08-30 11:12:47 | 48.28188 | 11.87507 | 80° | 82km/h | 9616m | 5.8m/s | -39.4°C | 56.1% | 297.2hPa | 2.9V | 00:00:00 | 00:00:00 | 00:00:00 | |
| DG1MFX-10 | 2026-08-30 11:12:43 | 48.28181 | 11.87445 | 84° | 84km/h | 9602m | 7.8m/s | -39.3°C | 54.8% | 297.8hPa | 2.9V | 00:00:00 | 00:00:00 | 00:00:00 | |
| OE5WHR-10 | 2026-08-30 11:12:42 | 48.28177 | 11.87380 | 87° | 86km/h | 9590m | 5.3m/s | -39.2°C | 58.9% | 298.3hPa | 2.9V | 00:00:00 | 00:42:54 | 00:00:00 | |
| DO3MHA-11 | 2026-08-30 11:12:39 | 48.28175 | 11.87282 | 90° | 88km/h | 9571m | 3.1m/s | -39.0°C | 57.5% | 299.1hPa | 2.9V | 00:00:00 | 00:42:51 | 00:00:00 | |
| OE5DRO-10 | 2026-08-30 11:12:38 | 48.28175 | 11.87249 | 91° | 86km/h | 9566m | 7.6m/s | -38.9°C | 56.7% | 299.3hPa | 2.9V | 00:00:00 | 00:00:00 | 00:00:00 | |
| PG1ADW-2 | 2026-08-30 11:12:37 | 48.28175 | 11.87215 | 91° | 86km/h | 9559m | 7.4m/s | -38.9°C | 56.1% | 299.6hPa | 2.9V | 00:00:00 | 00:00:00 | 00:00:00 | |
| OE5DXL-15 | 2026-08-30 11:12:30 | 48.28158 | 11.86982 | 78° | 84km/h | 9516m | 5.5m/s | -38.5°C | 55.6% | 301.5hPa | 2.9V | 00:00:00 | 00:00:00 | 00:00:00 | |
| DO3MHA-11 | 2026-08-30 11:12:29 | 48.28153 | 11.86953 | 78° | 84km/h | 9511m | 4.2m/s | -38.4°C | 55.8% | 301.7hPa | 2.9V | 00:00:00 | 00:42:41 | 00:00:00 | |
| DG1MFX-10 | 2026-08-30 11:12:22 | 48.28139 | 11.86773 | 92° | 91km/h | 9477m | 6.2m/s | -38.2°C | 53.0% | 303.3hPa | 2.9V | 00:00:00 | 00:00:00 | 00:00:00 | |
| OE5WHR-10 | 2026-08-30 11:12:21 | 48.28140 | 11.86703 | 91° | 84km/h | 9467m | 5.9m/s | -38.0°C | 58.0% | 303.7hPa | 2.9V | 00:00:00 | 00:00:00 | 08:30:00 | |
| DO3MHA-11 | 2026-08-30 11:12:19 | 48.28140 | 11.86634 | 89° | 91km/h | 9456m | 6.0m/s | -37.9°C | 56.6% | 304.2hPa | 2.9V | 00:00:00 | 00:42:31 | 00:00:00 | |
| PG1ADW-2 | 2026-08-30 11:12:17 | 48.28139 | 11.86571 | 88° | 86km/h | 9445m | 7.7m/s | -37.8°C | 55.8% | 304.8hPa | 2.9V | 00:00:00 | 00:00:00 | 00:00:00 | |
| DL6DJ-15 | 2026-08-30 11:12:16 | 48.28137 | 11.86512 | 87° | 77km/h | 9430m | 5.1m/s | -37.8°C | 51.7% | 305.4hPa | 2.9V | 00:00:00 | 00:00:00 | 00:00:00 | |
| DB0UT-7 | 2026-08-30 11:12:11 | 48.28134 | 11.86384 | 91° | 84km/h | 9408m | 4.7m/s | -37.5°C | 56.1% | 306.3hPa | 2.9V | 00:00:00 | 00:00:00 | 00:00:00 | |
| DG1MFX-10 | 2026-08-30 11:12:01 | 48.28136 | 11.86092 | 89° | 93km/h | 9361m | 6.6m/s | -37.2°C | 53.0% | 308.4hPa | 2.9V | 00:00:00 | 00:00:00 | 00:00:00 | |
| DO3MHA-11 | 2026-08-30 11:12:00 | 48.28136 | 11.86020 | 93° | 86km/h | 9349m | 4.4m/s | -37.1°C | 57.8% | 309.0hPa | 2.9V | 00:00:00 | 00:42:12 | 00:00:00 | |
| PG1ADW-2 | 2026-08-30 11:11:57 | 48.28139 | 11.85919 | 90° | 80km/h | 9331m | 7.4m/s | -36.9°C | 58.5% | 309.7hPa | 2.9V | 00:00:00 | 00:00:00 | 08:30:00 | |
| DO3MHA-11 | 2026-08-30 11:11:50 | 48.28125 | 11.85701 | 85° | 82km/h | 9290m | 7.9m/s | -36.6°C | 57.9% | 311.5hPa | 2.7V | 00:00:00 | 00:42:02 | 08:30:00 | |
| DL6DJ-15 | 2026-08-30 11:11:44 | 48.28129 | 11.85508 | 90° | 78km/h | 9257m | 4.8m/s | -36.3°C | 54.6% | 313.1hPa | 2.7V | 00:00:00 | 00:00:00 | 00:00:00 | |
| DB0UT-7 | 2026-08-30 11:11:41 | 48.28127 | 11.85420 | 87° | 75km/h | 9241m | 4.6m/s | -36.2°C | 59.6% | 313.8hPa | 2.7V | 00:00:00 | 00:41:53 | 00:00:00 | |
| DO3MHA-11 | 2026-08-30 11:11:40 | 48.28125 | 11.85391 | 87° | 77km/h | 9237m | 3.1m/s | -36.2°C | 59.9% | 314.1hPa | 2.7V | 00:00:00 | 00:41:52 | 00:00:00 | |
| OE5WHR-10 | 2026-08-30 11:11:39 | 48.28125 | 11.85363 | 88° | 78km/h | 9233m | 5.8m/s | -36.2°C | 59.1% | 314.3hPa | 2.7V | 00:00:00 | 00:41:51 | 00:00:00 | |
| PG1ADW-2 | 2026-08-30 11:11:37 | 48.28124 | 11.85308 | 91° | 80km/h | 9220m | 7.3m/s | -36.0°C | 58.1% | 314.8hPa | 2.7V | 00:00:00 | 00:41:49 | 00:00:00 | |
| OE5MMP-10 | 2026-08-30 11:11:32 | 48.28126 | 11.85164 | 93° | 80km/h | 9190m | 8.2m/s | 0°C | 0% | 0hPa | 2.7V | 00:00:00 | 00:41:44 | 00:00:00 | |
| OE3JTB-15 | 2026-08-30 11:11:30 | 48.28127 | 11.85103 | 89° | 80km/h | 9178m | 6.9m/s | -35.7°C | 55.5% | 316.7hPa | 2.7V | 00:00:00 | 00:00:00 | 00:00:00 | |
| OE5MMP-10 | 2026-08-30 11:11:22 | 48.28127 | 11.84856 | 91° | 80km/h | 9131m | 6.9m/s | 0°C | 0% | 0hPa | 2.7V | 00:00:00 | 00:41:34 | 00:00:00 | |
| DG1MFX-10 | 2026-08-30 11:11:21 | 48.28127 | 11.84856 | 92° | 84km/h | 9131m | 7.0m/s | -35.4°C | 48.3% | 318.9hPa | 2.7V | 00:00:00 | 00:00:00 | 00:00:00 | |
| DO3MHA-11 | 2026-08-30 11:11:20 | 48.28126 | 11.84793 | 89° | 78km/h | 9121m | 5.9m/s | -35.3°C | 52.0% | 319.4hPa | 2.7V | 00:00:00 | 00:41:32 | 00:00:00 | |
| OE5WHR-10 | 2026-08-30 11:11:18 | 48.28125 | 11.84732 | 88° | 77km/h | 9108m | 4.7m/s | -35.1°C | 48.8% | 319.9hPa | 2.9V | 00:00:00 | 00:00:00 | 00:00:00 | |
| PG1ADW-2 | 2026-08-30 11:11:17 | 48.28123 | 11.84703 | 85° | 77km/h | 9104m | 3.9m/s | -35.1°C | 44.3% | 320.1hPa | 2.9V | 00:00:00 | 00:00:00 | 00:00:00 | |
| DL6DJ-15 | 2026-08-30 11:11:13 | 48.28114 | 11.84584 | 86° | 75km/h | 9080m | 4.3m/s | -35.0°C | 33.6% | 321.2hPa | 2.9V | 00:00:00 | 00:00:00 | 00:00:00 | |
| OE5MMP-10 | 2026-08-30 11:11:12 | 48.28113 | 11.84556 | 89° | 80km/h | 9076m | 4.0m/s | 0°C | 0% | 0hPa | 2.9V | 00:00:00 | 00:41:24 | 00:00:00 | |
| DB0UT-7 | 2026-08-30 11:11:11 | 48.28113 | 11.84527 | 91° | 80km/h | 9071m | 7.2m/s | -34.8°C | 31.0% | 321.6hPa | 2.9V | 00:00:00 | 00:00:00 | 00:00:00 | |
| DO3MHA-11 | 2026-08-30 11:11:10 | 48.28114 | 11.84498 | 93° | 77km/h | 9064m | 5.2m/s | -34.8°C | 28.1% | 321.9hPa | 2.9V | 00:00:00 | 00:41:22 | 00:00:00 | |
| OE5DRO-10 | 2026-08-30 11:11:03 | 48.28115 | 11.84287 | 87° | 77km/h | 9020m | 6.0m/s | -34.4°C | 23.8% | 324.0hPa | 2.9V | 00:00:00 | 00:00:00 | 00:00:00 | |
| OE5MMP-10 | 2026-08-30 11:11:02 | 48.28114 | 11.84260 | 87° | 80km/h | 9014m | 4.3m/s | 0°C | 0% | 0hPa | 2.9V | 00:00:00 | 00:41:14 | 00:00:00 | |
| DG1MFX-10 | 2026-08-30 11:11:01 | 48.28114 | 11.84260 | 88° | 71km/h | 9014m | 4.4m/s | -34.4°C | 21.6% | 324.2hPa | 2.9V | 00:00:00 | 00:00:00 | 00:00:00 | |
| OE5DXL-15 | 2026-08-30 11:11:00 | 48.28112 | 11.84206 | 90° | 78km/h | 9003m | 7.3m/s | -34.2°C | 23.7% | 324.8hPa | 2.9V | 00:00:00 | 00:00:00 | 00:00:00 | |
| OE5WHR-10 | 2026-08-30 11:10:57 | 48.28110 | 11.84122 | 86° | 80km/h | 8983m | 7.2m/s | -34.1°C | 23.2% | 325.6hPa | 2.9V | 00:00:00 | 00:00:00 | 00:00:00 | |
| OE5MMP-10 | 2026-08-30 11:10:51 | 48.28098 | 11.83939 | 90° | 78km/h | 8948m | 4.4m/s | 0°C | 0% | 0hPa | 2.9V | 00:00:00 | 00:41:03 | 00:00:00 | |
| DO3MHA-11 | 2026-08-30 11:10:50 | 48.28098 | 11.83910 | 91° | 78km/h | 8943m | 5.6m/s | -33.7°C | 22.7% | 327.4hPa | 2.9V | 00:00:00 | 00:41:02 | 00:00:00 | |
| OE5DRO-10 | 2026-08-30 11:10:44 | 48.28101 | 11.83733 | 88° | 77km/h | 8911m | 5.2m/s | -33.4°C | 21.1% | 328.8hPa | 2.9V | 00:00:00 | 00:00:00 | 00:00:00 | |
| DG1MJG | 2026-08-30 11:10:43 | 48.28101 | 11.83733 | 89° | 86km/h | 8911m | 5.2m/s | -33.5°C | 19.0% | 328.9hPa | 2.9V | 00:00:00 | 00:00:00 | 00:00:00 | |
| DL6DJ-15 | 2026-08-30 11:10:42 | 48.28099 | 11.83670 | 87° | 80km/h | 8899m | 6.9m/s | -33.4°C | 19.3% | 329.4hPa | 2.9V | 00:00:00 | 00:00:00 | 00:00:00 | |
| OE5MMP-10 | 2026-08-30 11:10:41 | 48.28097 | 11.83639 | 87° | 77km/h | 8894m | 3.5m/s | 0°C | 0% | 0hPa | 2.9V | 00:00:00 | 00:40:53 | 00:00:00 | |
| DO3MHA-11 | 2026-08-30 11:10:40 | 48.28097 | 11.83609 | 89° | 77km/h | 8890m | 4.0m/s | -33.3°C | 21.7% | 329.8hPa | 2.9V | 00:00:00 | 00:40:52 | 00:00:00 | |
| PG1ADW-2 | 2026-08-30 11:10:37 | 48.28097 | 11.83518 | 94° | 77km/h | 8872m | 5.9m/s | -33.1°C | 22.3% | 330.6hPa | 2.9V | 00:00:00 | 00:00:00 | 00:00:00 | |
| OE5WHR-10 | 2026-08-30 11:10:36 | 48.28099 | 11.83488 | 95° | 77km/h | 8866m | 5.7m/s | -33.1°C | 22.6% | 330.8hPa | 2.9V | 00:00:00 | 00:40:48 | 00:00:00 | |
| OE5MMP-10 | 2026-08-30 11:10:31 | 48.28104 | 11.83348 | 93° | 77km/h | 8843m | 6.4m/s | 0°C | 0% | 0hPa | 2.9V | 00:00:00 | 00:40:43 | 00:00:00 | |
| DO3MHA-11 | 2026-08-30 11:10:30 | 48.28105 | 11.83321 | 91° | 77km/h | 8837m | 5.7m/s | -32.8°C | 22.4% | 332.3hPa | 2.9V | 00:00:00 | 00:40:42 | 00:00:00 | |
| OE5DRO-10 | 2026-08-30 11:10:25 | 48.28099 | 11.83177 | 87° | 78km/h | 8811m | 2.6m/s | -32.6°C | 22.1% | 333.6hPa | 2.9V | 00:00:00 | 00:00:00 | 00:00:00 | |
| OE3JTB-15 | 2026-08-30 11:10:22 | 48.28096 | 11.83085 | 91° | 78km/h | 8797m | 5.4m/s | -32.4°C | 21.7% | 334.3hPa | 2.9V | 00:00:00 | 00:00:00 | 00:00:00 | |
| OE5MMP-10 | 2026-08-30 11:10:21 | 48.28097 | 11.83056 | 92° | 77km/h | 8792m | 4.4m/s | 0°C | 0% | 0hPa | 2.9V | 00:00:00 | 00:40:33 | 00:00:00 | |
| DO3MHA-11 | 2026-08-30 11:10:20 | 48.28097 | 11.83027 | 93° | 78km/h | 8787m | 5.8m/s | -32.4°C | 21.3% | 334.8hPa | 2.9V | 00:00:00 | 00:40:32 | 08:30:00 | |
| PG1ADW-2 | 2026-08-30 11:10:17 | 48.28101 | 11.82935 | 94° | 78km/h | 8769m | 6.5m/s | -32.3°C | 20.2% | 335.6hPa | 2.9V | 00:00:00 | 00:40:29 | 00:00:00 | |
| DG1MJG | 2026-08-30 11:10:12 | 48.28102 | 11.82810 | 91° | 77km/h | 8746m | 5.1m/s | -32.1°C | 17.2% | 336.8hPa | 2.9V | 00:00:00 | 00:00:00 | 00:00:00 | |
| DL6DJ-15 | 2026-08-30 11:10:11 | 48.28102 | 11.82754 | 89° | 73km/h | 8734m | 4.2m/s | -32.0°C | 17.1% | 337.3hPa | 2.9V | 00:00:00 | 00:00:00 | 00:00:00 | |
| DO3MHA-11 | 2026-08-30 11:10:10 | 48.28102 | 11.82726 | 88° | 80km/h | 8729m | 5.3m/s | -31.9°C | 19.0% | 337.6hPa | 2.9V | 00:00:00 | 00:40:22 | 00:00:00 | |
| OE5WHR-10 | 2026-08-30 11:10:08 | 48.28100 | 11.82668 | 86° | 80km/h | 8715m | 6.4m/s | -31.8°C | 18.7% | 338.1hPa | 2.9V | 00:00:00 | 00:00:00 | 00:00:00 | |
| OE5DRO-10 | 2026-08-30 11:10:06 | 48.28096 | 11.82606 | 84° | 80km/h | 8704m | 5.5m/s | -31.7°C | 18.5% | 338.8hPa | 2.9V | 00:00:00 | 00:00:00 | 00:00:00 | |
| DO3MHA-11 | 2026-08-30 11:10:00 | 48.28082 | 11.82423 | 87° | 78km/h | 8667m | 5.3m/s | -31.4°C | 18.2% | 340.5hPa | 2.9V | 00:00:00 | 00:40:12 | 00:00:00 | |
| DG1MFX-10 | 2026-08-30 11:09:59 | 48.28082 | 11.82423 | 88° | 78km/h | 8667m | 5.4m/s | -31.4°C | 16.4% | 340.5hPa | 2.9V | 00:00:00 | 00:00:00 | 00:00:00 | |
| DB0UT-7 | 2026-08-30 11:09:58 | 48.28080 | 11.82365 | 90° | 77km/h | 8653m | 6.9m/s | -31.3°C | 18.2% | 341.1hPa | 2.9V | 00:00:00 | 00:40:10 | 00:00:00 | |
| PG1ADW-2 | 2026-08-30 11:09:57 | 48.28081 | 11.82336 | 92° | 75km/h | 8647m | 3.8m/s | -31.2°C | 17.9% | 341.4hPa | 2.9V | 00:00:00 | 00:00:00 | 00:00:00 | |
| OE3JTB-15 | 2026-08-30 11:09:53 | 48.28083 | 11.82216 | 91° | 77km/h | 8625m | 4.3m/s | -31.0°C | 16.0% | 342.4hPa | 2.9V | 00:00:00 | 00:00:00 | 00:00:00 | |
| DO3MHA-11 | 2026-08-30 11:09:50 | 48.28083 | 11.82123 | 90° | 71km/h | 8605m | 4.7m/s | -30.8°C | 15.3% | 343.3hPa | 2.9V | 00:00:00 | 00:40:02 | 00:00:00 | |
| OE5WHR-10 | 2026-08-30 11:09:47 | 48.28082 | 11.82036 | 89° | 73km/h | 8590m | 6.0m/s | -30.7°C | 14.6% | 344.1hPa | 2.9V | 00:00:00 | 00:00:00 | 00:00:00 | |
| DO3MHA-11 | 2026-08-30 11:09:40 | 48.28075 | 11.81856 | 86° | 78km/h | 8550m | 6.2m/s | -30.4°C | 13.5% | 346.0hPa | 2.9V | 00:00:00 | 00:39:52 | 00:00:00 | |
| DG1MFX-10 | 2026-08-30 11:09:38 | 48.28074 | 11.81827 | 87° | 78km/h | 8544m | 5.8m/s | -30.4°C | 12.0% | 346.4hPa | 2.9V | 00:00:00 | 00:00:00 | 00:00:00 | |
| PG1ADW-2 | 2026-08-30 11:09:37 | 48.28070 | 11.81767 | 84° | 78km/h | 8532m | 7.7m/s | -30.3°C | 13.5% | 346.9hPa | 2.9V | 00:00:00 | 00:00:00 | 00:00:00 | |
| DO3MHA-11 | 2026-08-30 11:09:30 | 48.28058 | 11.81557 | 85° | 77km/h | 8492m | 3.6m/s | -30.0°C | 13.8% | 348.9hPa | 2.9V | 00:00:00 | 00:39:42 | 00:00:00 | |
| DB0UT-7 | 2026-08-30 11:09:28 | 48.28055 | 11.81504 | 88° | 77km/h | 8483m | 5.4m/s | -29.9°C | 14.3% | 349.5hPa | 2.9V | 00:00:00 | 00:00:00 | 08:30:00 | |
| OE5WHR-10 | 2026-08-30 11:09:26 | 48.28055 | 11.81449 | 88° | 78km/h | 8471m | 4.8m/s | -29.8°C | 14.7% | 349.9hPa | 2.7V | 00:00:00 | 00:39:38 | 00:00:00 | |
| OE3JTB-15 | 2026-08-30 11:09:24 | 48.28053 | 11.81389 | 87° | 80km/h | 8462m | 4.0m/s | -29.7°C | 15.0% | 350.5hPa | 2.7V | 00:00:00 | 00:39:36 | 00:00:00 | |
| DO3MHA-11 | 2026-08-30 11:09:20 | 48.28045 | 11.81265 | 84° | 80km/h | 8438m | 8.7m/s | -29.5°C | 14.8% | 351.6hPa | 2.7V | 00:00:00 | 00:39:32 | 00:00:00 | |
| DG1MFX-10 | 2026-08-30 11:09:18 | 48.28042 | 11.81234 | 85° | 80km/h | 8431m | 4.9m/s | -29.5°C | 13.5% | 352.0hPa | 2.7V | 00:00:00 | 00:00:00 | 00:00:00 | |
| Es werden nur die letzten 3500 von 3810 Frames angezeigt. GPX/KML und Diagramme bleiben verfügbar. | |||||||||||||||